<?xml version="1.0" encoding="UTF-8"?><gpx version="1.1" creator="Exported from Strava via extension e-ivanov.ru"  xsi:schemaLocation="http://www.topografix.com/GPX/1/1 http://www.topografix.com/GPX/1/1/gpx.xsd http://www.garmin.com/xmlschemas/GpxExtensions/v3 http://www.garmin.com/xmlschemas/GpxExtensionsv3.xsd http://www.garmin.com/xmlschemas/TrackPointExtension/v1 http://www.garmin.com/xmlschemas/TrackPointExtensionv1.xsd"  xmlns="http://www.topografix.com/GPX/1/1"  xmlns:gpxtpx="http://www.garmin.com/xmlschemas/TrackPointExtension/v1"  xmlns:gpxx="http://www.garmin.com/xmlschemas/GpxExtensions/v3" xmlns:xsi="http://www.w3.org/2001/XMLSchema-instance"><metadata><link href="http://e-ivanov.ru/projects/strava-export-gpx/"><text>Strava gpx export</text></link><time>2017-11-13T07:44:11.189Z</time></metadata><trk><name>Лахав - Алон и Римон</name><trkseg><trkpt lon="34.864984" lat="31.379145"><ele>490</ele><time>2017-11-10T07:00:57.000Z</time></trkpt><trkpt lon="34.864961" lat="31.379155"><ele>490</ele><time>2017-11-10T07:00:58.000Z</time></trkpt><trkpt lon="34.864935" lat="31.379163"><ele>489</ele><time>2017-11-10T07:00:59.000Z</time></trkpt><trkpt lon="34.864908" lat="31.379174"><ele>490</ele><time>2017-11-10T07:01:00.000Z</time></trkpt><trkpt lon="34.864877" lat="31.379186"><ele>490</ele><time>2017-11-10T07:01:01.000Z</time></trkpt><trkpt lon="34.864843" lat="31.379196"><ele>490</ele><time>2017-11-10T07:01:02.000Z</time></trkpt><trkpt lon="34.864807" lat="31.379203"><ele>490</ele><time>2017-11-10T07:01:03.000Z</time></trkpt><trkpt lon="34.864771" lat="31.379209"><ele>490</ele><time>2017-11-10T07:01:04.000Z</time></trkpt><trkpt lon="34.864737" lat="31.379216"><ele>490</ele><time>2017-11-10T07:01:05.000Z</time></trkpt><trkpt lon="34.864702" lat="31.379222"><ele>490</ele><time>2017-11-10T07:01:06.000Z</time></trkpt><trkpt lon="34.864669" lat="31.379226"><ele>490</ele><time>2017-11-10T07:01:07.000Z</time></trkpt><trkpt lon="34.864635" lat="31.379229"><ele>490</ele><time>2017-11-10T07:01:08.000Z</time></trkpt><trkpt lon="34.8646" lat="31.379232"><ele>491</ele><time>2017-11-10T07:01:09.000Z</time></trkpt><trkpt lon="34.864565" lat="31.379235"><ele>491</ele><time>2017-11-10T07:01:10.000Z</time></trkpt><trkpt lon="34.864534" lat="31.379237"><ele>491</ele><time>2017-11-10T07:01:11.000Z</time></trkpt><trkpt lon="34.864501" lat="31.37924"><ele>491</ele><time>2017-11-10T07:01:12.000Z</time></trkpt><trkpt lon="34.864468" lat="31.379245"><ele>491</ele><time>2017-11-10T07:01:13.000Z</time></trkpt><trkpt lon="34.864435" lat="31.379248"><ele>492</ele><time>2017-11-10T07:01:14.000Z</time></trkpt><trkpt lon="34.8644" lat="31.379249"><ele>492</ele><time>2017-11-10T07:01:15.000Z</time></trkpt><trkpt lon="34.864365" lat="31.379251"><ele>492</ele><time>2017-11-10T07:01:16.000Z</time></trkpt><trkpt lon="34.864331" lat="31.379255"><ele>492</ele><time>2017-11-10T07:01:17.000Z</time></trkpt><trkpt lon="34.864297" lat="31.379261"><ele>493</ele><time>2017-11-10T07:01:18.000Z</time></trkpt><trkpt lon="34.864265" lat="31.379268"><ele>493</ele><time>2017-11-10T07:01:19.000Z</time></trkpt><trkpt lon="34.864232" lat="31.379275"><ele>493</ele><time>2017-11-10T07:01:20.000Z</time></trkpt><trkpt lon="34.864198" lat="31.379284"><ele>493</ele><time>2017-11-10T07:01:21.000Z</time></trkpt><trkpt lon="34.864165" lat="31.379292"><ele>493</ele><time>2017-11-10T07:01:22.000Z</time></trkpt><trkpt lon="34.864135" lat="31.379302"><ele>493</ele><time>2017-11-10T07:01:23.000Z</time></trkpt><trkpt lon="34.864107" lat="31.379314"><ele>493</ele><time>2017-11-10T07:01:24.000Z</time></trkpt><trkpt lon="34.86408" lat="31.379329"><ele>493</ele><time>2017-11-10T07:01:25.000Z</time></trkpt><trkpt lon="34.864051" lat="31.379344"><ele>493</ele><time>2017-11-10T07:01:26.000Z</time></trkpt><trkpt lon="34.86402" lat="31.37936"><ele>494</ele><time>2017-11-10T07:01:27.000Z</time></trkpt><trkpt lon="34.863989" lat="31.379374"><ele>494</ele><time>2017-11-10T07:01:28.000Z</time></trkpt><trkpt lon="34.863959" lat="31.379388"><ele>494</ele><time>2017-11-10T07:01:29.000Z</time></trkpt><trkpt lon="34.863932" lat="31.379405"><ele>494</ele><time>2017-11-10T07:01:30.000Z</time></trkpt><trkpt lon="34.863907" lat="31.379425"><ele>494</ele><time>2017-11-10T07:01:31.000Z</time></trkpt><trkpt lon="34.863882" lat="31.379444"><ele>494</ele><time>2017-11-10T07:01:32.000Z</time></trkpt><trkpt lon="34.863854" lat="31.37946"><ele>495</ele><time>2017-11-10T07:01:33.000Z</time></trkpt><trkpt lon="34.863827" lat="31.379479"><ele>495</ele><time>2017-11-10T07:01:34.000Z</time></trkpt><trkpt lon="34.863802" lat="31.379501"><ele>495</ele><time>2017-11-10T07:01:35.000Z</time></trkpt><trkpt lon="34.863778" lat="31.379522"><ele>495</ele><time>2017-11-10T07:01:36.000Z</time></trkpt><trkpt lon="34.863753" lat="31.379543"><ele>495</ele><time>2017-11-10T07:01:37.000Z</time></trkpt><trkpt lon="34.863728" lat="31.379564"><ele>495</ele><time>2017-11-10T07:01:38.000Z</time></trkpt><trkpt lon="34.863704" lat="31.379585"><ele>495</ele><time>2017-11-10T07:01:39.000Z</time></trkpt><trkpt lon="34.863683" lat="31.379607"><ele>495</ele><time>2017-11-10T07:01:40.000Z</time></trkpt><trkpt lon="34.863663" lat="31.379631"><ele>496</ele><time>2017-11-10T07:01:41.000Z</time></trkpt><trkpt lon="34.863643" lat="31.379655"><ele>496</ele><time>2017-11-10T07:01:42.000Z</time></trkpt><trkpt lon="34.863621" lat="31.379679"><ele>496</ele><time>2017-11-10T07:01:43.000Z</time></trkpt><trkpt lon="34.863596" lat="31.3797"><ele>496</ele><time>2017-11-10T07:01:44.000Z</time></trkpt><trkpt lon="34.863571" lat="31.379721"><ele>496</ele><time>2017-11-10T07:01:45.000Z</time></trkpt><trkpt lon="34.86355" lat="31.379744"><ele>496</ele><time>2017-11-10T07:01:46.000Z</time></trkpt><trkpt lon="34.863529" lat="31.379766"><ele>497</ele><time>2017-11-10T07:01:47.000Z</time></trkpt><trkpt lon="34.863504" lat="31.379787"><ele>497</ele><time>2017-11-10T07:01:48.000Z</time></trkpt><trkpt lon="34.863478" lat="31.379807"><ele>497</ele><time>2017-11-10T07:01:49.000Z</time></trkpt><trkpt lon="34.863453" lat="31.379828"><ele>497</ele><time>2017-11-10T07:01:50.000Z</time></trkpt><trkpt lon="34.863429" lat="31.379848"><ele>497</ele><time>2017-11-10T07:01:51.000Z</time></trkpt><trkpt lon="34.863404" lat="31.379867"><ele>497</ele><time>2017-11-10T07:01:52.000Z</time></trkpt><trkpt lon="34.863379" lat="31.379886"><ele>497</ele><time>2017-11-10T07:01:53.000Z</time></trkpt><trkpt lon="34.863354" lat="31.379906"><ele>498</ele><time>2017-11-10T07:01:54.000Z</time></trkpt><trkpt lon="34.863328" lat="31.379925"><ele>498</ele><time>2017-11-10T07:01:55.000Z</time></trkpt><trkpt lon="34.863302" lat="31.379944"><ele>498</ele><time>2017-11-10T07:01:56.000Z</time></trkpt><trkpt lon="34.863276" lat="31.379964"><ele>498</ele><time>2017-11-10T07:01:57.000Z</time></trkpt><trkpt lon="34.863248" lat="31.379982"><ele>498</ele><time>2017-11-10T07:01:58.000Z</time></trkpt><trkpt lon="34.863218" lat="31.379998"><ele>498</ele><time>2017-11-10T07:01:59.000Z</time></trkpt><trkpt lon="34.863187" lat="31.38001"><ele>498</ele><time>2017-11-10T07:02:00.000Z</time></trkpt><trkpt lon="34.863155" lat="31.380022"><ele>498</ele><time>2017-11-10T07:02:01.000Z</time></trkpt><trkpt lon="34.863123" lat="31.38003"><ele>498</ele><time>2017-11-10T07:02:02.000Z</time></trkpt><trkpt lon="34.86309" lat="31.380036"><ele>498</ele><time>2017-11-10T07:02:03.000Z</time></trkpt><trkpt lon="34.863058" lat="31.380042"><ele>498</ele><time>2017-11-10T07:02:04.000Z</time></trkpt><trkpt lon="34.863027" lat="31.380046"><ele>498</ele><time>2017-11-10T07:02:05.000Z</time></trkpt><trkpt lon="34.862995" lat="31.380046"><ele>498</ele><time>2017-11-10T07:02:06.000Z</time></trkpt><trkpt lon="34.862961" lat="31.380046"><ele>498</ele><time>2017-11-10T07:02:07.000Z</time></trkpt><trkpt lon="34.862926" lat="31.380048"><ele>498</ele><time>2017-11-10T07:02:08.000Z</time></trkpt><trkpt lon="34.862889" lat="31.380048"><ele>498</ele><time>2017-11-10T07:02:09.000Z</time></trkpt><trkpt lon="34.862851" lat="31.380044"><ele>498</ele><time>2017-11-10T07:02:10.000Z</time></trkpt><trkpt lon="34.862813" lat="31.380038"><ele>498</ele><time>2017-11-10T07:02:11.000Z</time></trkpt><trkpt lon="34.862775" lat="31.380032"><ele>498</ele><time>2017-11-10T07:02:12.000Z</time></trkpt><trkpt lon="34.862738" lat="31.380022"><ele>498</ele><time>2017-11-10T07:02:13.000Z</time></trkpt><trkpt lon="34.8627" lat="31.380014"><ele>498</ele><time>2017-11-10T07:02:14.000Z</time></trkpt><trkpt lon="34.862663" lat="31.380006"><ele>498</ele><time>2017-11-10T07:02:15.000Z</time></trkpt><trkpt lon="34.862627" lat="31.379998"><ele>498</ele><time>2017-11-10T07:02:16.000Z</time></trkpt><trkpt lon="34.862593" lat="31.379988"><ele>498</ele><time>2017-11-10T07:02:17.000Z</time></trkpt><trkpt lon="34.862558" lat="31.379978"><ele>498</ele><time>2017-11-10T07:02:18.000Z</time></trkpt><trkpt lon="34.862525" lat="31.379969"><ele>498</ele><time>2017-11-10T07:02:19.000Z</time></trkpt><trkpt lon="34.862492" lat="31.379964"><ele>498</ele><time>2017-11-10T07:02:20.000Z</time></trkpt><trkpt lon="34.862459" lat="31.379954"><ele>498</ele><time>2017-11-10T07:02:21.000Z</time></trkpt><trkpt lon="34.862426" lat="31.379948"><ele>498</ele><time>2017-11-10T07:02:22.000Z</time></trkpt><trkpt lon="34.862393" lat="31.37996"><ele>498</ele><time>2017-11-10T07:02:23.000Z</time></trkpt><trkpt lon="34.862379" lat="31.37999"><ele>498</ele><time>2017-11-10T07:02:24.000Z</time></trkpt><trkpt lon="34.862387" lat="31.380026"><ele>498</ele><time>2017-11-10T07:02:25.000Z</time></trkpt><trkpt lon="34.862409" lat="31.380054"><ele>498</ele><time>2017-11-10T07:02:26.000Z</time></trkpt><trkpt lon="34.862436" lat="31.380076"><ele>498</ele><time>2017-11-10T07:02:27.000Z</time></trkpt><trkpt lon="34.862468" lat="31.3801"><ele>498</ele><time>2017-11-10T07:02:28.000Z</time></trkpt><trkpt lon="34.862501" lat="31.380126"><ele>498</ele><time>2017-11-10T07:02:29.000Z</time></trkpt><trkpt lon="34.862536" lat="31.380152"><ele>498</ele><time>2017-11-10T07:02:30.000Z</time></trkpt><trkpt lon="34.862575" lat="31.38017"><ele>498</ele><time>2017-11-10T07:02:31.000Z</time></trkpt><trkpt lon="34.862615" lat="31.380172"><ele>498</ele><time>2017-11-10T07:02:32.000Z</time></trkpt><trkpt lon="34.862656" lat="31.380164"><ele>498</ele><time>2017-11-10T07:02:33.000Z</time></trkpt><trkpt lon="34.862702" lat="31.380162"><ele>498</ele><time>2017-11-10T07:02:34.000Z</time></trkpt><trkpt lon="34.86275" lat="31.380168"><ele>499</ele><time>2017-11-10T07:02:35.000Z</time></trkpt><trkpt lon="34.862792" lat="31.380184"><ele>499</ele><time>2017-11-10T07:02:36.000Z</time></trkpt><trkpt lon="34.862825" lat="31.380207"><ele>500</ele><time>2017-11-10T07:02:37.000Z</time></trkpt><trkpt lon="34.862861" lat="31.380224"><ele>500</ele><time>2017-11-10T07:02:38.000Z</time></trkpt><trkpt lon="34.862902" lat="31.380236"><ele>499</ele><time>2017-11-10T07:02:39.000Z</time></trkpt><trkpt lon="34.862945" lat="31.38025"><ele>500</ele><time>2017-11-10T07:02:40.000Z</time></trkpt><trkpt lon="34.862988" lat="31.380266"><ele>500</ele><time>2017-11-10T07:02:41.000Z</time></trkpt><trkpt lon="34.863029" lat="31.380282"><ele>500</ele><time>2017-11-10T07:02:42.000Z</time></trkpt><trkpt lon="34.86307" lat="31.3803"><ele>500</ele><time>2017-11-10T07:02:43.000Z</time></trkpt><trkpt lon="34.863108" lat="31.380316"><ele>500</ele><time>2017-11-10T07:02:44.000Z</time></trkpt><trkpt lon="34.863146" lat="31.380336"><ele>500</ele><time>2017-11-10T07:02:45.000Z</time></trkpt><trkpt lon="34.863184" lat="31.380354"><ele>500</ele><time>2017-11-10T07:02:46.000Z</time></trkpt><trkpt lon="34.86322" lat="31.380376"><ele>500</ele><time>2017-11-10T07:02:47.000Z</time></trkpt><trkpt lon="34.863251" lat="31.380404"><ele>500</ele><time>2017-11-10T07:02:48.000Z</time></trkpt><trkpt lon="34.863283" lat="31.380436"><ele>500</ele><time>2017-11-10T07:02:49.000Z</time></trkpt><trkpt lon="34.863314" lat="31.380464"><ele>500</ele><time>2017-11-10T07:02:50.000Z</time></trkpt><trkpt lon="34.863342" lat="31.38049"><ele>501</ele><time>2017-11-10T07:02:51.000Z</time></trkpt><trkpt lon="34.863365" lat="31.380518"><ele>501</ele><time>2017-11-10T07:02:52.000Z</time></trkpt><trkpt lon="34.86339" lat="31.380543"><ele>501</ele><time>2017-11-10T07:02:53.000Z</time></trkpt><trkpt lon="34.863417" lat="31.38057"><ele>502</ele><time>2017-11-10T07:02:54.000Z</time></trkpt><trkpt lon="34.863442" lat="31.380596"><ele>502</ele><time>2017-11-10T07:02:55.000Z</time></trkpt><trkpt lon="34.863461" lat="31.380622"><ele>502</ele><time>2017-11-10T07:02:56.000Z</time></trkpt><trkpt lon="34.863471" lat="31.38065"><ele>502</ele><time>2017-11-10T07:02:57.000Z</time></trkpt><trkpt lon="34.863471" lat="31.380678"><ele>502</ele><time>2017-11-10T07:02:58.000Z</time></trkpt><trkpt lon="34.863468" lat="31.380708"><ele>502</ele><time>2017-11-10T07:02:59.000Z</time></trkpt><trkpt lon="34.863472" lat="31.380738"><ele>502</ele><time>2017-11-10T07:03:00.000Z</time></trkpt><trkpt lon="34.863483" lat="31.380767"><ele>501</ele><time>2017-11-10T07:03:01.000Z</time></trkpt><trkpt lon="34.8635" lat="31.380793"><ele>501</ele><time>2017-11-10T07:03:02.000Z</time></trkpt><trkpt lon="34.863524" lat="31.380814"><ele>501</ele><time>2017-11-10T07:03:03.000Z</time></trkpt><trkpt lon="34.863551" lat="31.380833"><ele>500</ele><time>2017-11-10T07:03:04.000Z</time></trkpt><trkpt lon="34.863576" lat="31.380856"><ele>500</ele><time>2017-11-10T07:03:05.000Z</time></trkpt><trkpt lon="34.863593" lat="31.380888"><ele>500</ele><time>2017-11-10T07:03:06.000Z</time></trkpt><trkpt lon="34.863605" lat="31.380923"><ele>500</ele><time>2017-11-10T07:03:07.000Z</time></trkpt><trkpt lon="34.863624" lat="31.380952"><ele>499</ele><time>2017-11-10T07:03:08.000Z</time></trkpt><trkpt lon="34.863654" lat="31.38097"><ele>499</ele><time>2017-11-10T07:03:09.000Z</time></trkpt><trkpt lon="34.863698" lat="31.380973"><ele>499</ele><time>2017-11-10T07:03:10.000Z</time></trkpt><trkpt lon="34.863746" lat="31.380961"><ele>499</ele><time>2017-11-10T07:03:11.000Z</time></trkpt><trkpt lon="34.863795" lat="31.380938"><ele>499</ele><time>2017-11-10T07:03:12.000Z</time></trkpt><trkpt lon="34.863835" lat="31.380904"><ele>499</ele><time>2017-11-10T07:03:13.000Z</time></trkpt><trkpt lon="34.86386" lat="31.380867"><ele>499</ele><time>2017-11-10T07:03:14.000Z</time></trkpt><trkpt lon="34.863869" lat="31.380832"><ele>499</ele><time>2017-11-10T07:03:15.000Z</time></trkpt><trkpt lon="34.863867" lat="31.380793"><ele>499</ele><time>2017-11-10T07:03:16.000Z</time></trkpt><trkpt lon="34.863866" lat="31.38076"><ele>499</ele><time>2017-11-10T07:03:17.000Z</time></trkpt><trkpt lon="34.863873" lat="31.380733"><ele>499</ele><time>2017-11-10T07:03:18.000Z</time></trkpt><trkpt lon="34.863891" lat="31.380707"><ele>499</ele><time>2017-11-10T07:03:19.000Z</time></trkpt><trkpt lon="34.863914" lat="31.380681"><ele>499</ele><time>2017-11-10T07:03:20.000Z</time></trkpt><trkpt lon="34.86394" lat="31.380655"><ele>499</ele><time>2017-11-10T07:03:21.000Z</time></trkpt><trkpt lon="34.863966" lat="31.380626"><ele>499</ele><time>2017-11-10T07:03:22.000Z</time></trkpt><trkpt lon="34.863991" lat="31.380597"><ele>499</ele><time>2017-11-10T07:03:23.000Z</time></trkpt><trkpt lon="34.864015" lat="31.380569"><ele>499</ele><time>2017-11-10T07:03:24.000Z</time></trkpt><trkpt lon="34.864043" lat="31.380543"><ele>499</ele><time>2017-11-10T07:03:25.000Z</time></trkpt><trkpt lon="34.864081" lat="31.380519"><ele>499</ele><time>2017-11-10T07:03:26.000Z</time></trkpt><trkpt lon="34.864125" lat="31.380507"><ele>499</ele><time>2017-11-10T07:03:27.000Z</time></trkpt><trkpt lon="34.864163" lat="31.380509"><ele>499</ele><time>2017-11-10T07:03:28.000Z</time></trkpt><trkpt lon="34.86418" lat="31.380531"><ele>498</ele><time>2017-11-10T07:03:29.000Z</time></trkpt><trkpt lon="34.864176" lat="31.380563"><ele>497</ele><time>2017-11-10T07:03:30.000Z</time></trkpt><trkpt lon="34.864169" lat="31.380606"><ele>497</ele><time>2017-11-10T07:03:31.000Z</time></trkpt><trkpt lon="34.864166" lat="31.380653"><ele>496</ele><time>2017-11-10T07:03:32.000Z</time></trkpt><trkpt lon="34.864163" lat="31.380702"><ele>495</ele><time>2017-11-10T07:03:33.000Z</time></trkpt><trkpt lon="34.864157" lat="31.380751"><ele>495</ele><time>2017-11-10T07:03:34.000Z</time></trkpt><trkpt lon="34.864146" lat="31.380804"><ele>494</ele><time>2017-11-10T07:03:35.000Z</time></trkpt><trkpt lon="34.864131" lat="31.380857"><ele>494</ele><time>2017-11-10T07:03:36.000Z</time></trkpt><trkpt lon="34.864113" lat="31.380906"><ele>494</ele><time>2017-11-10T07:03:37.000Z</time></trkpt><trkpt lon="34.864095" lat="31.380953"><ele>494</ele><time>2017-11-10T07:03:38.000Z</time></trkpt><trkpt lon="34.864063" lat="31.380996"><ele>493</ele><time>2017-11-10T07:03:39.000Z</time></trkpt><trkpt lon="34.864028" lat="31.381037"><ele>493</ele><time>2017-11-10T07:03:40.000Z</time></trkpt><trkpt lon="34.863986" lat="31.381075"><ele>493</ele><time>2017-11-10T07:03:41.000Z</time></trkpt><trkpt lon="34.863945" lat="31.381105"><ele>493</ele><time>2017-11-10T07:03:42.000Z</time></trkpt><trkpt lon="34.863918" lat="31.381132"><ele>493</ele><time>2017-11-10T07:03:43.000Z</time></trkpt><trkpt lon="34.863919" lat="31.381162"><ele>492</ele><time>2017-11-10T07:03:44.000Z</time></trkpt><trkpt lon="34.86395" lat="31.381184"><ele>491</ele><time>2017-11-10T07:03:45.000Z</time></trkpt><trkpt lon="34.863998" lat="31.381187"><ele>491</ele><time>2017-11-10T07:03:46.000Z</time></trkpt><trkpt lon="34.864047" lat="31.381176"><ele>491</ele><time>2017-11-10T07:03:47.000Z</time></trkpt><trkpt lon="34.864096" lat="31.381157"><ele>490</ele><time>2017-11-10T07:03:48.000Z</time></trkpt><trkpt lon="34.864138" lat="31.381138"><ele>490</ele><time>2017-11-10T07:03:49.000Z</time></trkpt><trkpt lon="34.864172" lat="31.381115"><ele>490</ele><time>2017-11-10T07:03:50.000Z</time></trkpt><trkpt lon="34.864203" lat="31.38109"><ele>490</ele><time>2017-11-10T07:03:51.000Z</time></trkpt><trkpt lon="34.864227" lat="31.381064"><ele>490</ele><time>2017-11-10T07:03:52.000Z</time></trkpt><trkpt lon="34.86425" lat="31.38104"><ele>490</ele><time>2017-11-10T07:03:53.000Z</time></trkpt><trkpt lon="34.864273" lat="31.381019"><ele>490</ele><time>2017-11-10T07:03:54.000Z</time></trkpt><trkpt lon="34.864299" lat="31.381012"><ele>490</ele><time>2017-11-10T07:03:55.000Z</time></trkpt><trkpt lon="34.864323" lat="31.381024"><ele>489</ele><time>2017-11-10T07:03:56.000Z</time></trkpt><trkpt lon="34.864328" lat="31.38105"><ele>489</ele><time>2017-11-10T07:03:57.000Z</time></trkpt><trkpt lon="34.864321" lat="31.381083"><ele>488</ele><time>2017-11-10T07:03:58.000Z</time></trkpt><trkpt lon="34.864314" lat="31.381112"><ele>487</ele><time>2017-11-10T07:03:59.000Z</time></trkpt><trkpt lon="34.864306" lat="31.381141"><ele>487</ele><time>2017-11-10T07:04:00.000Z</time></trkpt><trkpt lon="34.864293" lat="31.38117"><ele>487</ele><time>2017-11-10T07:04:01.000Z</time></trkpt><trkpt lon="34.864269" lat="31.381191"><ele>487</ele><time>2017-11-10T07:04:02.000Z</time></trkpt><trkpt lon="34.864235" lat="31.38121"><ele>487</ele><time>2017-11-10T07:04:03.000Z</time></trkpt><trkpt lon="34.864197" lat="31.381228"><ele>487</ele><time>2017-11-10T07:04:04.000Z</time></trkpt><trkpt lon="34.864156" lat="31.381249"><ele>487</ele><time>2017-11-10T07:04:05.000Z</time></trkpt><trkpt lon="34.86411" lat="31.381277"><ele>486</ele><time>2017-11-10T07:04:06.000Z</time></trkpt><trkpt lon="34.864055" lat="31.381306"><ele>486</ele><time>2017-11-10T07:04:07.000Z</time></trkpt><trkpt lon="34.863996" lat="31.381331"><ele>484</ele><time>2017-11-10T07:04:08.000Z</time></trkpt><trkpt lon="34.863939" lat="31.381355"><ele>484</ele><time>2017-11-10T07:04:09.000Z</time></trkpt><trkpt lon="34.863884" lat="31.381384"><ele>484</ele><time>2017-11-10T07:04:10.000Z</time></trkpt><trkpt lon="34.863831" lat="31.381417"><ele>484</ele><time>2017-11-10T07:04:11.000Z</time></trkpt><trkpt lon="34.863779" lat="31.381444"><ele>484</ele><time>2017-11-10T07:04:12.000Z</time></trkpt><trkpt lon="34.863725" lat="31.38147"><ele>484</ele><time>2017-11-10T07:04:13.000Z</time></trkpt><trkpt lon="34.863672" lat="31.381487"><ele>484</ele><time>2017-11-10T07:04:14.000Z</time></trkpt><trkpt lon="34.863616" lat="31.381505"><ele>484</ele><time>2017-11-10T07:04:15.000Z</time></trkpt><trkpt lon="34.863556" lat="31.381522"><ele>484</ele><time>2017-11-10T07:04:16.000Z</time></trkpt><trkpt lon="34.863501" lat="31.38153"><ele>484</ele><time>2017-11-10T07:04:17.000Z</time></trkpt><trkpt lon="34.863452" lat="31.381532"><ele>484</ele><time>2017-11-10T07:04:18.000Z</time></trkpt><trkpt lon="34.863403" lat="31.381535"><ele>484</ele><time>2017-11-10T07:04:19.000Z</time></trkpt><trkpt lon="34.863353" lat="31.38153"><ele>484</ele><time>2017-11-10T07:04:20.000Z</time></trkpt><trkpt lon="34.863304" lat="31.381514"><ele>484</ele><time>2017-11-10T07:04:21.000Z</time></trkpt><trkpt lon="34.863263" lat="31.381492"><ele>485</ele><time>2017-11-10T07:04:22.000Z</time></trkpt><trkpt lon="34.863223" lat="31.381468"><ele>485</ele><time>2017-11-10T07:04:23.000Z</time></trkpt><trkpt lon="34.863182" lat="31.381443"><ele>485</ele><time>2017-11-10T07:04:24.000Z</time></trkpt><trkpt lon="34.863143" lat="31.381417"><ele>485</ele><time>2017-11-10T07:04:25.000Z</time></trkpt><trkpt lon="34.863107" lat="31.38139"><ele>485</ele><time>2017-11-10T07:04:26.000Z</time></trkpt><trkpt lon="34.863074" lat="31.381359"><ele>485</ele><time>2017-11-10T07:04:27.000Z</time></trkpt><trkpt lon="34.863048" lat="31.381321"><ele>485</ele><time>2017-11-10T07:04:28.000Z</time></trkpt><trkpt lon="34.863034" lat="31.381278"><ele>486</ele><time>2017-11-10T07:04:29.000Z</time></trkpt><trkpt lon="34.863014" lat="31.381239"><ele>486</ele><time>2017-11-10T07:04:30.000Z</time></trkpt><trkpt lon="34.862987" lat="31.381206"><ele>486</ele><time>2017-11-10T07:04:31.000Z</time></trkpt><trkpt lon="34.862957" lat="31.381172"><ele>486</ele><time>2017-11-10T07:04:32.000Z</time></trkpt><trkpt lon="34.862921" lat="31.381135"><ele>486</ele><time>2017-11-10T07:04:33.000Z</time></trkpt><trkpt lon="34.862884" lat="31.381092"><ele>486</ele><time>2017-11-10T07:04:34.000Z</time></trkpt><trkpt lon="34.862849" lat="31.381045"><ele>485</ele><time>2017-11-10T07:04:35.000Z</time></trkpt><trkpt lon="34.86282" lat="31.380998"><ele>485</ele><time>2017-11-10T07:04:36.000Z</time></trkpt><trkpt lon="34.862798" lat="31.380953"><ele>485</ele><time>2017-11-10T07:04:37.000Z</time></trkpt><trkpt lon="34.862777" lat="31.380913"><ele>486</ele><time>2017-11-10T07:04:38.000Z</time></trkpt><trkpt lon="34.862747" lat="31.38088"><ele>486</ele><time>2017-11-10T07:04:39.000Z</time></trkpt><trkpt lon="34.862713" lat="31.380852"><ele>486</ele><time>2017-11-10T07:04:40.000Z</time></trkpt><trkpt lon="34.86268" lat="31.38082"><ele>485</ele><time>2017-11-10T07:04:41.000Z</time></trkpt><trkpt lon="34.862647" lat="31.380783"><ele>485</ele><time>2017-11-10T07:04:42.000Z</time></trkpt><trkpt lon="34.862611" lat="31.380745"><ele>485</ele><time>2017-11-10T07:04:43.000Z</time></trkpt><trkpt lon="34.862565" lat="31.380704"><ele>484</ele><time>2017-11-10T07:04:44.000Z</time></trkpt><trkpt lon="34.862508" lat="31.380667"><ele>484</ele><time>2017-11-10T07:04:45.000Z</time></trkpt><trkpt lon="34.862449" lat="31.380641"><ele>484</ele><time>2017-11-10T07:04:46.000Z</time></trkpt><trkpt lon="34.86239" lat="31.380633"><ele>484</ele><time>2017-11-10T07:04:47.000Z</time></trkpt><trkpt lon="34.86234" lat="31.380626"><ele>484</ele><time>2017-11-10T07:04:48.000Z</time></trkpt><trkpt lon="34.862297" lat="31.38061"><ele>484</ele><time>2017-11-10T07:04:49.000Z</time></trkpt><trkpt lon="34.862257" lat="31.380594"><ele>484</ele><time>2017-11-10T07:04:50.000Z</time></trkpt><trkpt lon="34.86221" lat="31.38058"><ele>484</ele><time>2017-11-10T07:04:51.000Z</time></trkpt><trkpt lon="34.862155" lat="31.380567"><ele>484</ele><time>2017-11-10T07:04:52.000Z</time></trkpt><trkpt lon="34.862103" lat="31.380549"><ele>484</ele><time>2017-11-10T07:04:53.000Z</time></trkpt><trkpt lon="34.862057" lat="31.380526"><ele>484</ele><time>2017-11-10T07:04:54.000Z</time></trkpt><trkpt lon="34.862012" lat="31.380501"><ele>483</ele><time>2017-11-10T07:04:55.000Z</time></trkpt><trkpt lon="34.861964" lat="31.380479"><ele>483</ele><time>2017-11-10T07:04:56.000Z</time></trkpt><trkpt lon="34.861912" lat="31.380456"><ele>483</ele><time>2017-11-10T07:04:57.000Z</time></trkpt><trkpt lon="34.861862" lat="31.38043"><ele>482</ele><time>2017-11-10T07:04:58.000Z</time></trkpt><trkpt lon="34.861812" lat="31.380401"><ele>482</ele><time>2017-11-10T07:04:59.000Z</time></trkpt><trkpt lon="34.861763" lat="31.380369"><ele>481</ele><time>2017-11-10T07:05:00.000Z</time></trkpt><trkpt lon="34.861712" lat="31.380333"><ele>481</ele><time>2017-11-10T07:05:01.000Z</time></trkpt><trkpt lon="34.861662" lat="31.380298"><ele>481</ele><time>2017-11-10T07:05:02.000Z</time></trkpt><trkpt lon="34.861609" lat="31.380263"><ele>481</ele><time>2017-11-10T07:05:03.000Z</time></trkpt><trkpt lon="34.861553" lat="31.380231"><ele>481</ele><time>2017-11-10T07:05:04.000Z</time></trkpt><trkpt lon="34.861496" lat="31.3802"><ele>480</ele><time>2017-11-10T07:05:05.000Z</time></trkpt><trkpt lon="34.861438" lat="31.380167"><ele>480</ele><time>2017-11-10T07:05:06.000Z</time></trkpt><trkpt lon="34.861386" lat="31.380132"><ele>479</ele><time>2017-11-10T07:05:07.000Z</time></trkpt><trkpt lon="34.861335" lat="31.380093"><ele>479</ele><time>2017-11-10T07:05:08.000Z</time></trkpt><trkpt lon="34.861287" lat="31.380054"><ele>479</ele><time>2017-11-10T07:05:09.000Z</time></trkpt><trkpt lon="34.861236" lat="31.380016"><ele>479</ele><time>2017-11-10T07:05:10.000Z</time></trkpt><trkpt lon="34.86117" lat="31.379976"><ele>478</ele><time>2017-11-10T07:05:11.000Z</time></trkpt><trkpt lon="34.861102" lat="31.379938"><ele>477</ele><time>2017-11-10T07:05:12.000Z</time></trkpt><trkpt lon="34.861037" lat="31.3799"><ele>476</ele><time>2017-11-10T07:05:13.000Z</time></trkpt><trkpt lon="34.860978" lat="31.379864"><ele>476</ele><time>2017-11-10T07:05:14.000Z</time></trkpt><trkpt lon="34.860923" lat="31.379826"><ele>476</ele><time>2017-11-10T07:05:15.000Z</time></trkpt><trkpt lon="34.86087" lat="31.379787"><ele>476</ele><time>2017-11-10T07:05:16.000Z</time></trkpt><trkpt lon="34.860817" lat="31.379749"><ele>476</ele><time>2017-11-10T07:05:17.000Z</time></trkpt><trkpt lon="34.860764" lat="31.379709"><ele>475</ele><time>2017-11-10T07:05:18.000Z</time></trkpt><trkpt lon="34.860715" lat="31.379672"><ele>475</ele><time>2017-11-10T07:05:19.000Z</time></trkpt><trkpt lon="34.860668" lat="31.379634"><ele>474</ele><time>2017-11-10T07:05:20.000Z</time></trkpt><trkpt lon="34.860623" lat="31.379596"><ele>474</ele><time>2017-11-10T07:05:21.000Z</time></trkpt><trkpt lon="34.860572" lat="31.379562"><ele>474</ele><time>2017-11-10T07:05:22.000Z</time></trkpt><trkpt lon="34.860518" lat="31.37954"><ele>474</ele><time>2017-11-10T07:05:23.000Z</time></trkpt><trkpt lon="34.860462" lat="31.379532"><ele>474</ele><time>2017-11-10T07:05:24.000Z</time></trkpt><trkpt lon="34.860411" lat="31.379541"><ele>474</ele><time>2017-11-10T07:05:25.000Z</time></trkpt><trkpt lon="34.860358" lat="31.379551"><ele>474</ele><time>2017-11-10T07:05:26.000Z</time></trkpt><trkpt lon="34.860301" lat="31.379548"><ele>474</ele><time>2017-11-10T07:05:27.000Z</time></trkpt><trkpt lon="34.860245" lat="31.379534"><ele>473</ele><time>2017-11-10T07:05:28.000Z</time></trkpt><trkpt lon="34.860189" lat="31.379514"><ele>473</ele><time>2017-11-10T07:05:29.000Z</time></trkpt><trkpt lon="34.860133" lat="31.379491"><ele>473</ele><time>2017-11-10T07:05:30.000Z</time></trkpt><trkpt lon="34.860071" lat="31.379471"><ele>472</ele><time>2017-11-10T07:05:31.000Z</time></trkpt><trkpt lon="34.860009" lat="31.379451"><ele>471</ele><time>2017-11-10T07:05:32.000Z</time></trkpt><trkpt lon="34.859946" lat="31.379429"><ele>471</ele><time>2017-11-10T07:05:33.000Z</time></trkpt><trkpt lon="34.859882" lat="31.379405"><ele>470</ele><time>2017-11-10T07:05:34.000Z</time></trkpt><trkpt lon="34.859824" lat="31.379378"><ele>469</ele><time>2017-11-10T07:05:35.000Z</time></trkpt><trkpt lon="34.859779" lat="31.379353"><ele>469</ele><time>2017-11-10T07:05:36.000Z</time></trkpt><trkpt lon="34.85974" lat="31.379344"><ele>469</ele><time>2017-11-10T07:05:37.000Z</time></trkpt><trkpt lon="34.859724" lat="31.379365"><ele>468</ele><time>2017-11-10T07:05:38.000Z</time></trkpt><trkpt lon="34.859747" lat="31.379402"><ele>468</ele><time>2017-11-10T07:05:39.000Z</time></trkpt><trkpt lon="34.859788" lat="31.379442"><ele>468</ele><time>2017-11-10T07:05:40.000Z</time></trkpt><trkpt lon="34.85984" lat="31.379488"><ele>467</ele><time>2017-11-10T07:05:41.000Z</time></trkpt><trkpt lon="34.859896" lat="31.379536"><ele>466</ele><time>2017-11-10T07:05:42.000Z</time></trkpt><trkpt lon="34.859955" lat="31.379585"><ele>466</ele><time>2017-11-10T07:05:43.000Z</time></trkpt><trkpt lon="34.860015" lat="31.379632"><ele>465</ele><time>2017-11-10T07:05:44.000Z</time></trkpt><trkpt lon="34.860077" lat="31.379675"><ele>465</ele><time>2017-11-10T07:05:45.000Z</time></trkpt><trkpt lon="34.860139" lat="31.379709"><ele>465</ele><time>2017-11-10T07:05:46.000Z</time></trkpt><trkpt lon="34.860198" lat="31.379734"><ele>466</ele><time>2017-11-10T07:05:47.000Z</time></trkpt><trkpt lon="34.860253" lat="31.379755"><ele>466</ele><time>2017-11-10T07:05:48.000Z</time></trkpt><trkpt lon="34.86031" lat="31.379771"><ele>466</ele><time>2017-11-10T07:05:49.000Z</time></trkpt><trkpt lon="34.860372" lat="31.379784"><ele>465</ele><time>2017-11-10T07:05:50.000Z</time></trkpt><trkpt lon="34.86043" lat="31.379785"><ele>465</ele><time>2017-11-10T07:05:51.000Z</time></trkpt><trkpt lon="34.860479" lat="31.379786"><ele>465</ele><time>2017-11-10T07:05:52.000Z</time></trkpt><trkpt lon="34.860517" lat="31.3798"><ele>465</ele><time>2017-11-10T07:05:53.000Z</time></trkpt><trkpt lon="34.860546" lat="31.379822"><ele>465</ele><time>2017-11-10T07:05:54.000Z</time></trkpt><trkpt lon="34.860557" lat="31.379853"><ele>465</ele><time>2017-11-10T07:05:55.000Z</time></trkpt><trkpt lon="34.860539" lat="31.379879"><ele>465</ele><time>2017-11-10T07:05:56.000Z</time></trkpt><trkpt lon="34.860488" lat="31.379887"><ele>464</ele><time>2017-11-10T07:05:57.000Z</time></trkpt><trkpt lon="34.860415" lat="31.379882"><ele>462</ele><time>2017-11-10T07:05:58.000Z</time></trkpt><trkpt lon="34.860331" lat="31.379877"><ele>462</ele><time>2017-11-10T07:05:59.000Z</time></trkpt><trkpt lon="34.860251" lat="31.379872"><ele>461</ele><time>2017-11-10T07:06:00.000Z</time></trkpt><trkpt lon="34.86018" lat="31.379864"><ele>461</ele><time>2017-11-10T07:06:01.000Z</time></trkpt><trkpt lon="34.860118" lat="31.379848"><ele>460</ele><time>2017-11-10T07:06:02.000Z</time></trkpt><trkpt lon="34.860062" lat="31.379827"><ele>459</ele><time>2017-11-10T07:06:03.000Z</time></trkpt><trkpt lon="34.860015" lat="31.379801"><ele>459</ele><time>2017-11-10T07:06:04.000Z</time></trkpt><trkpt lon="34.859973" lat="31.379767"><ele>460</ele><time>2017-11-10T07:06:05.000Z</time></trkpt><trkpt lon="34.859939" lat="31.379732"><ele>461</ele><time>2017-11-10T07:06:06.000Z</time></trkpt><trkpt lon="34.85991" lat="31.379697"><ele>461</ele><time>2017-11-10T07:06:07.000Z</time></trkpt><trkpt lon="34.859882" lat="31.379665"><ele>461</ele><time>2017-11-10T07:06:08.000Z</time></trkpt><trkpt lon="34.859856" lat="31.379634"><ele>462</ele><time>2017-11-10T07:06:09.000Z</time></trkpt><trkpt lon="34.859827" lat="31.379603"><ele>462</ele><time>2017-11-10T07:06:10.000Z</time></trkpt><trkpt lon="34.859796" lat="31.379575"><ele>462</ele><time>2017-11-10T07:06:11.000Z</time></trkpt><trkpt lon="34.859765" lat="31.37955"><ele>462</ele><time>2017-11-10T07:06:12.000Z</time></trkpt><trkpt lon="34.859735" lat="31.379527"><ele>463</ele><time>2017-11-10T07:06:13.000Z</time></trkpt><trkpt lon="34.859708" lat="31.379505"><ele>464</ele><time>2017-11-10T07:06:14.000Z</time></trkpt><trkpt lon="34.859681" lat="31.379486"><ele>464</ele><time>2017-11-10T07:06:15.000Z</time></trkpt><trkpt lon="34.859654" lat="31.379467"><ele>464</ele><time>2017-11-10T07:06:16.000Z</time></trkpt><trkpt lon="34.859628" lat="31.379447"><ele>464</ele><time>2017-11-10T07:06:17.000Z</time></trkpt><trkpt lon="34.859601" lat="31.379429"><ele>464</ele><time>2017-11-10T07:06:18.000Z</time></trkpt><trkpt lon="34.859573" lat="31.379411"><ele>464</ele><time>2017-11-10T07:06:19.000Z</time></trkpt><trkpt lon="34.859545" lat="31.379391"><ele>464</ele><time>2017-11-10T07:06:20.000Z</time></trkpt><trkpt lon="34.859515" lat="31.379367"><ele>464</ele><time>2017-11-10T07:06:21.000Z</time></trkpt><trkpt lon="34.85948" lat="31.379341"><ele>464</ele><time>2017-11-10T07:06:22.000Z</time></trkpt><trkpt lon="34.859443" lat="31.379318"><ele>464</ele><time>2017-11-10T07:06:23.000Z</time></trkpt><trkpt lon="34.859404" lat="31.379295"><ele>464</ele><time>2017-11-10T07:06:24.000Z</time></trkpt><trkpt lon="34.859361" lat="31.379274"><ele>464</ele><time>2017-11-10T07:06:25.000Z</time></trkpt><trkpt lon="34.859315" lat="31.379255"><ele>464</ele><time>2017-11-10T07:06:26.000Z</time></trkpt><trkpt lon="34.85927" lat="31.379232"><ele>464</ele><time>2017-11-10T07:06:27.000Z</time></trkpt><trkpt lon="34.859223" lat="31.379207"><ele>463</ele><time>2017-11-10T07:06:28.000Z</time></trkpt><trkpt lon="34.859172" lat="31.379181"><ele>463</ele><time>2017-11-10T07:06:29.000Z</time></trkpt><trkpt lon="34.859117" lat="31.379154"><ele>462</ele><time>2017-11-10T07:06:30.000Z</time></trkpt><trkpt lon="34.859057" lat="31.379124"><ele>461</ele><time>2017-11-10T07:06:31.000Z</time></trkpt><trkpt lon="34.858996" lat="31.379097"><ele>461</ele><time>2017-11-10T07:06:32.000Z</time></trkpt><trkpt lon="34.858939" lat="31.379067"><ele>461</ele><time>2017-11-10T07:06:33.000Z</time></trkpt><trkpt lon="34.858881" lat="31.379037"><ele>461</ele><time>2017-11-10T07:06:34.000Z</time></trkpt><trkpt lon="34.858824" lat="31.379004"><ele>461</ele><time>2017-11-10T07:06:35.000Z</time></trkpt><trkpt lon="34.858774" lat="31.378971"><ele>461</ele><time>2017-11-10T07:06:36.000Z</time></trkpt><trkpt lon="34.858731" lat="31.378936"><ele>461</ele><time>2017-11-10T07:06:37.000Z</time></trkpt><trkpt lon="34.858701" lat="31.378906"><ele>461</ele><time>2017-11-10T07:06:38.000Z</time></trkpt><trkpt lon="34.858676" lat="31.378882"><ele>461</ele><time>2017-11-10T07:06:39.000Z</time></trkpt><trkpt lon="34.858649" lat="31.378859"><ele>461</ele><time>2017-11-10T07:06:40.000Z</time></trkpt><trkpt lon="34.858621" lat="31.37884"><ele>462</ele><time>2017-11-10T07:06:41.000Z</time></trkpt><trkpt lon="34.858587" lat="31.378833"><ele>462</ele><time>2017-11-10T07:06:42.000Z</time></trkpt><trkpt lon="34.858551" lat="31.378838"><ele>462</ele><time>2017-11-10T07:06:43.000Z</time></trkpt><trkpt lon="34.858515" lat="31.378854"><ele>462</ele><time>2017-11-10T07:06:44.000Z</time></trkpt><trkpt lon="34.858486" lat="31.37888"><ele>462</ele><time>2017-11-10T07:06:45.000Z</time></trkpt><trkpt lon="34.858464" lat="31.37891"><ele>462</ele><time>2017-11-10T07:06:46.000Z</time></trkpt><trkpt lon="34.858453" lat="31.378944"><ele>462</ele><time>2017-11-10T07:06:47.000Z</time></trkpt><trkpt lon="34.858462" lat="31.378976"><ele>462</ele><time>2017-11-10T07:06:48.000Z</time></trkpt><trkpt lon="34.858484" lat="31.379006"><ele>462</ele><time>2017-11-10T07:06:49.000Z</time></trkpt><trkpt lon="34.858504" lat="31.379034"><ele>461</ele><time>2017-11-10T07:06:50.000Z</time></trkpt><trkpt lon="34.858518" lat="31.379057"><ele>461</ele><time>2017-11-10T07:06:51.000Z</time></trkpt><trkpt lon="34.85853" lat="31.379076"><ele>461</ele><time>2017-11-10T07:06:52.000Z</time></trkpt><trkpt lon="34.858539" lat="31.379096"><ele>461</ele><time>2017-11-10T07:06:53.000Z</time></trkpt><trkpt lon="34.858539" lat="31.379096"><ele>461</ele><time>2017-11-10T07:06:54.000Z</time></trkpt><trkpt lon="34.858539" lat="31.379096"><ele>461</ele><time>2017-11-10T07:06:55.000Z</time></trkpt><trkpt lon="34.858539" lat="31.379096"><ele>461</ele><time>2017-11-10T07:06:56.000Z</time></trkpt><trkpt lon="34.858539" lat="31.379096"><ele>461</ele><time>2017-11-10T07:06:57.000Z</time></trkpt><trkpt lon="34.858539" lat="31.379096"><ele>461</ele><time>2017-11-10T07:06:58.000Z</time></trkpt><trkpt lon="34.858539" lat="31.379096"><ele>461</ele><time>2017-11-10T07:06:59.000Z</time></trkpt><trkpt lon="34.858539" lat="31.379096"><ele>461</ele><time>2017-11-10T07:07:00.000Z</time></trkpt><trkpt lon="34.858539" lat="31.379096"><ele>461</ele><time>2017-11-10T07:07:01.000Z</time></trkpt><trkpt lon="34.858539" lat="31.379096"><ele>461</ele><time>2017-11-10T07:07:02.000Z</time></trkpt><trkpt lon="34.858539" lat="31.379096"><ele>461</ele><time>2017-11-10T07:07:03.000Z</time></trkpt><trkpt lon="34.858539" lat="31.379096"><ele>461</ele><time>2017-11-10T07:07:04.000Z</time></trkpt><trkpt lon="34.858539" lat="31.379096"><ele>461</ele><time>2017-11-10T07:07:05.000Z</time></trkpt><trkpt lon="34.858539" lat="31.379096"><ele>461</ele><time>2017-11-10T07:07:06.000Z</time></trkpt><trkpt lon="34.858539" lat="31.379096"><ele>461</ele><time>2017-11-10T07:07:07.000Z</time></trkpt><trkpt lon="34.858539" lat="31.379096"><ele>461</ele><time>2017-11-10T07:07:08.000Z</time></trkpt><trkpt lon="34.858539" lat="31.379096"><ele>461</ele><time>2017-11-10T07:07:09.000Z</time></trkpt><trkpt lon="34.858539" lat="31.379096"><ele>461</ele><time>2017-11-10T07:07:10.000Z</time></trkpt><trkpt lon="34.858539" lat="31.379096"><ele>461</ele><time>2017-11-10T07:07:11.000Z</time></trkpt><trkpt lon="34.858539" lat="31.379096"><ele>461</ele><time>2017-11-10T07:07:12.000Z</time></trkpt><trkpt lon="34.858539" lat="31.379096"><ele>461</ele><time>2017-11-10T07:07:13.000Z</time></trkpt><trkpt lon="34.858539" lat="31.379096"><ele>461</ele><time>2017-11-10T07:07:14.000Z</time></trkpt><trkpt lon="34.858539" lat="31.379096"><ele>461</ele><time>2017-11-10T07:07:15.000Z</time></trkpt><trkpt lon="34.858539" lat="31.379096"><ele>461</ele><time>2017-11-10T07:07:16.000Z</time></trkpt><trkpt lon="34.858539" lat="31.379096"><ele>461</ele><time>2017-11-10T07:07:17.000Z</time></trkpt><trkpt lon="34.858539" lat="31.379096"><ele>461</ele><time>2017-11-10T07:07:18.000Z</time></trkpt><trkpt lon="34.858539" lat="31.379096"><ele>461</ele><time>2017-11-10T07:07:19.000Z</time></trkpt><trkpt lon="34.858539" lat="31.379096"><ele>461</ele><time>2017-11-10T07:07:20.000Z</time></trkpt><trkpt lon="34.858539" lat="31.379096"><ele>461</ele><time>2017-11-10T07:07:21.000Z</time></trkpt><trkpt lon="34.858539" lat="31.379096"><ele>461</ele><time>2017-11-10T07:07:22.000Z</time></trkpt><trkpt lon="34.858539" lat="31.379096"><ele>461</ele><time>2017-11-10T07:07:23.000Z</time></trkpt><trkpt lon="34.858539" lat="31.379096"><ele>461</ele><time>2017-11-10T07:07:24.000Z</time></trkpt><trkpt lon="34.858539" lat="31.379096"><ele>461</ele><time>2017-11-10T07:07:25.000Z</time></trkpt><trkpt lon="34.858539" lat="31.379096"><ele>461</ele><time>2017-11-10T07:07:26.000Z</time></trkpt><trkpt lon="34.858539" lat="31.379096"><ele>461</ele><time>2017-11-10T07:07:27.000Z</time></trkpt><trkpt lon="34.858539" lat="31.379096"><ele>461</ele><time>2017-11-10T07:07:28.000Z</time></trkpt><trkpt lon="34.858539" lat="31.379096"><ele>461</ele><time>2017-11-10T07:07:29.000Z</time></trkpt><trkpt lon="34.858539" lat="31.379096"><ele>461</ele><time>2017-11-10T07:07:30.000Z</time></trkpt><trkpt lon="34.858539" lat="31.379096"><ele>461</ele><time>2017-11-10T07:07:31.000Z</time></trkpt><trkpt lon="34.858539" lat="31.379096"><ele>461</ele><time>2017-11-10T07:07:32.000Z</time></trkpt><trkpt lon="34.858539" lat="31.379096"><ele>461</ele><time>2017-11-10T07:07:33.000Z</time></trkpt><trkpt lon="34.858539" lat="31.379096"><ele>461</ele><time>2017-11-10T07:07:34.000Z</time></trkpt><trkpt lon="34.858539" lat="31.379096"><ele>461</ele><time>2017-11-10T07:07:35.000Z</time></trkpt><trkpt lon="34.858539" lat="31.379096"><ele>461</ele><time>2017-11-10T07:07:36.000Z</time></trkpt><trkpt lon="34.858539" lat="31.379096"><ele>461</ele><time>2017-11-10T07:07:37.000Z</time></trkpt><trkpt lon="34.858539" lat="31.379096"><ele>461</ele><time>2017-11-10T07:07:38.000Z</time></trkpt><trkpt lon="34.858539" lat="31.379096"><ele>461</ele><time>2017-11-10T07:07:39.000Z</time></trkpt><trkpt lon="34.858539" lat="31.379096"><ele>461</ele><time>2017-11-10T07:07:40.000Z</time></trkpt><trkpt lon="34.858539" lat="31.379096"><ele>461</ele><time>2017-11-10T07:07:41.000Z</time></trkpt><trkpt lon="34.858539" lat="31.379096"><ele>461</ele><time>2017-11-10T07:07:42.000Z</time></trkpt><trkpt lon="34.858539" lat="31.379096"><ele>461</ele><time>2017-11-10T07:07:43.000Z</time></trkpt><trkpt lon="34.858539" lat="31.379096"><ele>461</ele><time>2017-11-10T07:07:44.000Z</time></trkpt><trkpt lon="34.858539" lat="31.379096"><ele>461</ele><time>2017-11-10T07:07:45.000Z</time></trkpt><trkpt lon="34.858539" lat="31.379096"><ele>461</ele><time>2017-11-10T07:07:46.000Z</time></trkpt><trkpt lon="34.858539" lat="31.379096"><ele>461</ele><time>2017-11-10T07:07:47.000Z</time></trkpt><trkpt lon="34.858539" lat="31.379096"><ele>461</ele><time>2017-11-10T07:07:48.000Z</time></trkpt><trkpt lon="34.858539" lat="31.379096"><ele>461</ele><time>2017-11-10T07:07:49.000Z</time></trkpt><trkpt lon="34.858539" lat="31.379096"><ele>461</ele><time>2017-11-10T07:07:50.000Z</time></trkpt><trkpt lon="34.858539" lat="31.379096"><ele>461</ele><time>2017-11-10T07:07:51.000Z</time></trkpt><trkpt lon="34.858539" lat="31.379096"><ele>461</ele><time>2017-11-10T07:07:52.000Z</time></trkpt><trkpt lon="34.858539" lat="31.379096"><ele>461</ele><time>2017-11-10T07:07:53.000Z</time></trkpt><trkpt lon="34.858539" lat="31.379096"><ele>460</ele><time>2017-11-10T07:07:54.000Z</time></trkpt><trkpt lon="34.858539" lat="31.379096"><ele>460</ele><time>2017-11-10T07:07:55.000Z</time></trkpt><trkpt lon="34.858539" lat="31.379096"><ele>460</ele><time>2017-11-10T07:07:56.000Z</time></trkpt><trkpt lon="34.858539" lat="31.379096"><ele>460</ele><time>2017-11-10T07:07:57.000Z</time></trkpt><trkpt lon="34.858539" lat="31.379096"><ele>460</ele><time>2017-11-10T07:07:58.000Z</time></trkpt><trkpt lon="34.858539" lat="31.379096"><ele>460</ele><time>2017-11-10T07:07:59.000Z</time></trkpt><trkpt lon="34.858539" lat="31.379096"><ele>460</ele><time>2017-11-10T07:08:00.000Z</time></trkpt><trkpt lon="34.858539" lat="31.379096"><ele>460</ele><time>2017-11-10T07:08:01.000Z</time></trkpt><trkpt lon="34.858539" lat="31.379096"><ele>460</ele><time>2017-11-10T07:08:02.000Z</time></trkpt><trkpt lon="34.858539" lat="31.379096"><ele>460</ele><time>2017-11-10T07:08:03.000Z</time></trkpt><trkpt lon="34.858539" lat="31.379096"><ele>460</ele><time>2017-11-10T07:08:04.000Z</time></trkpt><trkpt lon="34.858539" lat="31.379096"><ele>460</ele><time>2017-11-10T07:08:05.000Z</time></trkpt><trkpt lon="34.858539" lat="31.379096"><ele>460</ele><time>2017-11-10T07:08:06.000Z</time></trkpt><trkpt lon="34.858539" lat="31.379096"><ele>460</ele><time>2017-11-10T07:08:07.000Z</time></trkpt><trkpt lon="34.858539" lat="31.379096"><ele>460</ele><time>2017-11-10T07:08:08.000Z</time></trkpt><trkpt lon="34.858539" lat="31.379096"><ele>460</ele><time>2017-11-10T07:08:09.000Z</time></trkpt><trkpt lon="34.858539" lat="31.379096"><ele>460</ele><time>2017-11-10T07:08:10.000Z</time></trkpt><trkpt lon="34.858546" lat="31.379114"><ele>460</ele><time>2017-11-10T07:08:11.000Z</time></trkpt><trkpt lon="34.858558" lat="31.379132"><ele>460</ele><time>2017-11-10T07:08:12.000Z</time></trkpt><trkpt lon="34.858571" lat="31.379149"><ele>460</ele><time>2017-11-10T07:08:13.000Z</time></trkpt><trkpt lon="34.858593" lat="31.379171"><ele>460</ele><time>2017-11-10T07:08:14.000Z</time></trkpt><trkpt lon="34.858619" lat="31.379194"><ele>460</ele><time>2017-11-10T07:08:15.000Z</time></trkpt><trkpt lon="34.858649" lat="31.379214"><ele>459</ele><time>2017-11-10T07:08:16.000Z</time></trkpt><trkpt lon="34.858692" lat="31.379234"><ele>459</ele><time>2017-11-10T07:08:17.000Z</time></trkpt><trkpt lon="34.858751" lat="31.379262"><ele>458</ele><time>2017-11-10T07:08:18.000Z</time></trkpt><trkpt lon="34.858809" lat="31.379299"><ele>457</ele><time>2017-11-10T07:08:19.000Z</time></trkpt><trkpt lon="34.858858" lat="31.379347"><ele>456</ele><time>2017-11-10T07:08:20.000Z</time></trkpt><trkpt lon="34.858905" lat="31.379396"><ele>456</ele><time>2017-11-10T07:08:21.000Z</time></trkpt><trkpt lon="34.858956" lat="31.379443"><ele>456</ele><time>2017-11-10T07:08:22.000Z</time></trkpt><trkpt lon="34.859007" lat="31.37949"><ele>455</ele><time>2017-11-10T07:08:23.000Z</time></trkpt><trkpt lon="34.859064" lat="31.379538"><ele>454</ele><time>2017-11-10T07:08:24.000Z</time></trkpt><trkpt lon="34.85912" lat="31.379589"><ele>454</ele><time>2017-11-10T07:08:25.000Z</time></trkpt><trkpt lon="34.859174" lat="31.379644"><ele>453</ele><time>2017-11-10T07:08:26.000Z</time></trkpt><trkpt lon="34.859231" lat="31.3797"><ele>453</ele><time>2017-11-10T07:08:27.000Z</time></trkpt><trkpt lon="34.859287" lat="31.379758"><ele>453</ele><time>2017-11-10T07:08:28.000Z</time></trkpt><trkpt lon="34.859338" lat="31.379819"><ele>452</ele><time>2017-11-10T07:08:29.000Z</time></trkpt><trkpt lon="34.859394" lat="31.379875"><ele>452</ele><time>2017-11-10T07:08:30.000Z</time></trkpt><trkpt lon="34.859456" lat="31.379926"><ele>452</ele><time>2017-11-10T07:08:31.000Z</time></trkpt><trkpt lon="34.859518" lat="31.379979"><ele>451</ele><time>2017-11-10T07:08:32.000Z</time></trkpt><trkpt lon="34.859581" lat="31.380032"><ele>451</ele><time>2017-11-10T07:08:33.000Z</time></trkpt><trkpt lon="34.859645" lat="31.380089"><ele>450</ele><time>2017-11-10T07:08:34.000Z</time></trkpt><trkpt lon="34.859699" lat="31.380144"><ele>449</ele><time>2017-11-10T07:08:35.000Z</time></trkpt><trkpt lon="34.859742" lat="31.3802"><ele>449</ele><time>2017-11-10T07:08:36.000Z</time></trkpt><trkpt lon="34.859782" lat="31.380251"><ele>449</ele><time>2017-11-10T07:08:37.000Z</time></trkpt><trkpt lon="34.859832" lat="31.380297"><ele>448</ele><time>2017-11-10T07:08:38.000Z</time></trkpt><trkpt lon="34.859889" lat="31.380339"><ele>448</ele><time>2017-11-10T07:08:39.000Z</time></trkpt><trkpt lon="34.859948" lat="31.38038"><ele>448</ele><time>2017-11-10T07:08:40.000Z</time></trkpt><trkpt lon="34.859997" lat="31.380419"><ele>447</ele><time>2017-11-10T07:08:41.000Z</time></trkpt><trkpt lon="34.860045" lat="31.380465"><ele>446</ele><time>2017-11-10T07:08:42.000Z</time></trkpt><trkpt lon="34.860086" lat="31.380526"><ele>445</ele><time>2017-11-10T07:08:43.000Z</time></trkpt><trkpt lon="34.860129" lat="31.380584"><ele>445</ele><time>2017-11-10T07:08:44.000Z</time></trkpt><trkpt lon="34.860173" lat="31.380644"><ele>445</ele><time>2017-11-10T07:08:45.000Z</time></trkpt><trkpt lon="34.860223" lat="31.380696"><ele>445</ele><time>2017-11-10T07:08:46.000Z</time></trkpt><trkpt lon="34.860285" lat="31.38074"><ele>444</ele><time>2017-11-10T07:08:47.000Z</time></trkpt><trkpt lon="34.860346" lat="31.380781"><ele>443</ele><time>2017-11-10T07:08:48.000Z</time></trkpt><trkpt lon="34.860404" lat="31.380827"><ele>443</ele><time>2017-11-10T07:08:49.000Z</time></trkpt><trkpt lon="34.860457" lat="31.380878"><ele>443</ele><time>2017-11-10T07:08:50.000Z</time></trkpt><trkpt lon="34.860514" lat="31.380931"><ele>443</ele><time>2017-11-10T07:08:51.000Z</time></trkpt><trkpt lon="34.860566" lat="31.380987"><ele>443</ele><time>2017-11-10T07:08:52.000Z</time></trkpt><trkpt lon="34.860609" lat="31.381049"><ele>442</ele><time>2017-11-10T07:08:53.000Z</time></trkpt><trkpt lon="34.86065" lat="31.381113"><ele>441</ele><time>2017-11-10T07:08:54.000Z</time></trkpt><trkpt lon="34.860686" lat="31.381174"><ele>441</ele><time>2017-11-10T07:08:55.000Z</time></trkpt><trkpt lon="34.860715" lat="31.38124"><ele>440</ele><time>2017-11-10T07:08:56.000Z</time></trkpt><trkpt lon="34.860743" lat="31.381304"><ele>440</ele><time>2017-11-10T07:08:57.000Z</time></trkpt><trkpt lon="34.860762" lat="31.381365"><ele>440</ele><time>2017-11-10T07:08:58.000Z</time></trkpt><trkpt lon="34.860778" lat="31.381433"><ele>439</ele><time>2017-11-10T07:08:59.000Z</time></trkpt><trkpt lon="34.860808" lat="31.381495"><ele>439</ele><time>2017-11-10T07:09:00.000Z</time></trkpt><trkpt lon="34.860842" lat="31.381553"><ele>438</ele><time>2017-11-10T07:09:01.000Z</time></trkpt><trkpt lon="34.860882" lat="31.381606"><ele>438</ele><time>2017-11-10T07:09:02.000Z</time></trkpt><trkpt lon="34.860926" lat="31.381657"><ele>438</ele><time>2017-11-10T07:09:03.000Z</time></trkpt><trkpt lon="34.860972" lat="31.38171"><ele>438</ele><time>2017-11-10T07:09:04.000Z</time></trkpt><trkpt lon="34.861011" lat="31.381765"><ele>438</ele><time>2017-11-10T07:09:05.000Z</time></trkpt><trkpt lon="34.861036" lat="31.381822"><ele>438</ele><time>2017-11-10T07:09:06.000Z</time></trkpt><trkpt lon="34.861058" lat="31.381878"><ele>437</ele><time>2017-11-10T07:09:07.000Z</time></trkpt><trkpt lon="34.861074" lat="31.381938"><ele>437</ele><time>2017-11-10T07:09:08.000Z</time></trkpt><trkpt lon="34.861072" lat="31.382003"><ele>437</ele><time>2017-11-10T07:09:09.000Z</time></trkpt><trkpt lon="34.861068" lat="31.382074"><ele>436</ele><time>2017-11-10T07:09:10.000Z</time></trkpt><trkpt lon="34.861068" lat="31.382149"><ele>436</ele><time>2017-11-10T07:09:11.000Z</time></trkpt><trkpt lon="34.861078" lat="31.382224"><ele>436</ele><time>2017-11-10T07:09:12.000Z</time></trkpt><trkpt lon="34.861094" lat="31.382296"><ele>436</ele><time>2017-11-10T07:09:13.000Z</time></trkpt><trkpt lon="34.861104" lat="31.382369"><ele>436</ele><time>2017-11-10T07:09:14.000Z</time></trkpt><trkpt lon="34.861116" lat="31.382439"><ele>436</ele><time>2017-11-10T07:09:15.000Z</time></trkpt><trkpt lon="34.861122" lat="31.382508"><ele>435</ele><time>2017-11-10T07:09:16.000Z</time></trkpt><trkpt lon="34.861118" lat="31.382579"><ele>435</ele><time>2017-11-10T07:09:17.000Z</time></trkpt><trkpt lon="34.861102" lat="31.382646"><ele>434</ele><time>2017-11-10T07:09:18.000Z</time></trkpt><trkpt lon="34.861095" lat="31.38271"><ele>434</ele><time>2017-11-10T07:09:19.000Z</time></trkpt><trkpt lon="34.8611" lat="31.382775"><ele>434</ele><time>2017-11-10T07:09:20.000Z</time></trkpt><trkpt lon="34.861104" lat="31.382838"><ele>434</ele><time>2017-11-10T07:09:21.000Z</time></trkpt><trkpt lon="34.861096" lat="31.382899"><ele>434</ele><time>2017-11-10T07:09:22.000Z</time></trkpt><trkpt lon="34.861078" lat="31.382952"><ele>434</ele><time>2017-11-10T07:09:23.000Z</time></trkpt><trkpt lon="34.861054" lat="31.383002"><ele>434</ele><time>2017-11-10T07:09:24.000Z</time></trkpt><trkpt lon="34.861026" lat="31.383054"><ele>433</ele><time>2017-11-10T07:09:25.000Z</time></trkpt><trkpt lon="34.860988" lat="31.383104"><ele>433</ele><time>2017-11-10T07:09:26.000Z</time></trkpt><trkpt lon="34.860946" lat="31.383148"><ele>433</ele><time>2017-11-10T07:09:27.000Z</time></trkpt><trkpt lon="34.860902" lat="31.38319"><ele>433</ele><time>2017-11-10T07:09:28.000Z</time></trkpt><trkpt lon="34.860858" lat="31.383232"><ele>433</ele><time>2017-11-10T07:09:29.000Z</time></trkpt><trkpt lon="34.860816" lat="31.383271"><ele>433</ele><time>2017-11-10T07:09:30.000Z</time></trkpt><trkpt lon="34.86077" lat="31.383305"><ele>433</ele><time>2017-11-10T07:09:31.000Z</time></trkpt><trkpt lon="34.86072" lat="31.383337"><ele>433</ele><time>2017-11-10T07:09:32.000Z</time></trkpt><trkpt lon="34.86067" lat="31.383366"><ele>433</ele><time>2017-11-10T07:09:33.000Z</time></trkpt><trkpt lon="34.860613" lat="31.383394"><ele>433</ele><time>2017-11-10T07:09:34.000Z</time></trkpt><trkpt lon="34.860554" lat="31.383421"><ele>433</ele><time>2017-11-10T07:09:35.000Z</time></trkpt><trkpt lon="34.860496" lat="31.383447"><ele>433</ele><time>2017-11-10T07:09:36.000Z</time></trkpt><trkpt lon="34.860436" lat="31.383475"><ele>433</ele><time>2017-11-10T07:09:37.000Z</time></trkpt><trkpt lon="34.860376" lat="31.383503"><ele>433</ele><time>2017-11-10T07:09:38.000Z</time></trkpt><trkpt lon="34.86031" lat="31.383529"><ele>433</ele><time>2017-11-10T07:09:39.000Z</time></trkpt><trkpt lon="34.860238" lat="31.383548"><ele>432</ele><time>2017-11-10T07:09:40.000Z</time></trkpt><trkpt lon="34.860168" lat="31.383562"><ele>432</ele><time>2017-11-10T07:09:41.000Z</time></trkpt><trkpt lon="34.860106" lat="31.383572"><ele>433</ele><time>2017-11-10T07:09:42.000Z</time></trkpt><trkpt lon="34.860049" lat="31.383583"><ele>433</ele><time>2017-11-10T07:09:43.000Z</time></trkpt><trkpt lon="34.859998" lat="31.383603"><ele>433</ele><time>2017-11-10T07:09:44.000Z</time></trkpt><trkpt lon="34.859952" lat="31.383632"><ele>433</ele><time>2017-11-10T07:09:45.000Z</time></trkpt><trkpt lon="34.859894" lat="31.383658"><ele>433</ele><time>2017-11-10T07:09:46.000Z</time></trkpt><trkpt lon="34.859828" lat="31.383677"><ele>433</ele><time>2017-11-10T07:09:47.000Z</time></trkpt><trkpt lon="34.85976" lat="31.383689"><ele>432</ele><time>2017-11-10T07:09:48.000Z</time></trkpt><trkpt lon="34.859694" lat="31.383698"><ele>432</ele><time>2017-11-10T07:09:49.000Z</time></trkpt><trkpt lon="34.859628" lat="31.383702"><ele>433</ele><time>2017-11-10T07:09:50.000Z</time></trkpt><trkpt lon="34.85957" lat="31.383697"><ele>433</ele><time>2017-11-10T07:09:51.000Z</time></trkpt><trkpt lon="34.859518" lat="31.383685"><ele>433</ele><time>2017-11-10T07:09:52.000Z</time></trkpt><trkpt lon="34.859472" lat="31.383669"><ele>433</ele><time>2017-11-10T07:09:53.000Z</time></trkpt><trkpt lon="34.859433" lat="31.383652"><ele>434</ele><time>2017-11-10T07:09:54.000Z</time></trkpt><trkpt lon="34.8594" lat="31.38365"><ele>434</ele><time>2017-11-10T07:09:55.000Z</time></trkpt><trkpt lon="34.859376" lat="31.38367"><ele>434</ele><time>2017-11-10T07:09:56.000Z</time></trkpt><trkpt lon="34.859378" lat="31.383704"><ele>434</ele><time>2017-11-10T07:09:57.000Z</time></trkpt><trkpt lon="34.85941" lat="31.383739"><ele>433</ele><time>2017-11-10T07:09:58.000Z</time></trkpt><trkpt lon="34.859458" lat="31.383764"><ele>432</ele><time>2017-11-10T07:09:59.000Z</time></trkpt><trkpt lon="34.859498" lat="31.383785"><ele>431</ele><time>2017-11-10T07:10:00.000Z</time></trkpt><trkpt lon="34.859506" lat="31.383814"><ele>431</ele><time>2017-11-10T07:10:01.000Z</time></trkpt><trkpt lon="34.859474" lat="31.383836"><ele>431</ele><time>2017-11-10T07:10:02.000Z</time></trkpt><trkpt lon="34.859423" lat="31.383843"><ele>431</ele><time>2017-11-10T07:10:03.000Z</time></trkpt><trkpt lon="34.859367" lat="31.383834"><ele>430</ele><time>2017-11-10T07:10:04.000Z</time></trkpt><trkpt lon="34.859318" lat="31.383817"><ele>430</ele><time>2017-11-10T07:10:05.000Z</time></trkpt><trkpt lon="34.859279" lat="31.383792"><ele>430</ele><time>2017-11-10T07:10:06.000Z</time></trkpt><trkpt lon="34.859234" lat="31.383768"><ele>430</ele><time>2017-11-10T07:10:07.000Z</time></trkpt><trkpt lon="34.859181" lat="31.383759"><ele>430</ele><time>2017-11-10T07:10:08.000Z</time></trkpt><trkpt lon="34.859116" lat="31.383742"><ele>430</ele><time>2017-11-10T07:10:09.000Z</time></trkpt><trkpt lon="34.859054" lat="31.383714"><ele>430</ele><time>2017-11-10T07:10:10.000Z</time></trkpt><trkpt lon="34.858989" lat="31.383683"><ele>430</ele><time>2017-11-10T07:10:11.000Z</time></trkpt><trkpt lon="34.858921" lat="31.383672"><ele>430</ele><time>2017-11-10T07:10:12.000Z</time></trkpt><trkpt lon="34.858863" lat="31.383691"><ele>429</ele><time>2017-11-10T07:10:13.000Z</time></trkpt><trkpt lon="34.858831" lat="31.383737"><ele>428</ele><time>2017-11-10T07:10:14.000Z</time></trkpt><trkpt lon="34.858823" lat="31.383795"><ele>427</ele><time>2017-11-10T07:10:15.000Z</time></trkpt><trkpt lon="34.858824" lat="31.383859"><ele>426</ele><time>2017-11-10T07:10:16.000Z</time></trkpt><trkpt lon="34.858815" lat="31.383926"><ele>425</ele><time>2017-11-10T07:10:17.000Z</time></trkpt><trkpt lon="34.858787" lat="31.383991"><ele>425</ele><time>2017-11-10T07:10:18.000Z</time></trkpt><trkpt lon="34.858745" lat="31.384047"><ele>424</ele><time>2017-11-10T07:10:19.000Z</time></trkpt><trkpt lon="34.858713" lat="31.384103"><ele>424</ele><time>2017-11-10T07:10:20.000Z</time></trkpt><trkpt lon="34.858711" lat="31.384153"><ele>424</ele><time>2017-11-10T07:10:21.000Z</time></trkpt><trkpt lon="34.858742" lat="31.384198"><ele>424</ele><time>2017-11-10T07:10:22.000Z</time></trkpt><trkpt lon="34.858777" lat="31.384246"><ele>424</ele><time>2017-11-10T07:10:23.000Z</time></trkpt><trkpt lon="34.858808" lat="31.384305"><ele>424</ele><time>2017-11-10T07:10:24.000Z</time></trkpt><trkpt lon="34.858842" lat="31.384365"><ele>424</ele><time>2017-11-10T07:10:25.000Z</time></trkpt><trkpt lon="34.858881" lat="31.384421"><ele>424</ele><time>2017-11-10T07:10:26.000Z</time></trkpt><trkpt lon="34.858918" lat="31.384479"><ele>424</ele><time>2017-11-10T07:10:27.000Z</time></trkpt><trkpt lon="34.858949" lat="31.384543"><ele>423</ele><time>2017-11-10T07:10:28.000Z</time></trkpt><trkpt lon="34.85899" lat="31.384608"><ele>422</ele><time>2017-11-10T07:10:29.000Z</time></trkpt><trkpt lon="34.85902" lat="31.384677"><ele>421</ele><time>2017-11-10T07:10:30.000Z</time></trkpt><trkpt lon="34.859031" lat="31.384745"><ele>421</ele><time>2017-11-10T07:10:31.000Z</time></trkpt><trkpt lon="34.859029" lat="31.384806"><ele>421</ele><time>2017-11-10T07:10:32.000Z</time></trkpt><trkpt lon="34.859015" lat="31.384859"><ele>422</ele><time>2017-11-10T07:10:33.000Z</time></trkpt><trkpt lon="34.858993" lat="31.38491"><ele>422</ele><time>2017-11-10T07:10:34.000Z</time></trkpt><trkpt lon="34.858968" lat="31.38496"><ele>423</ele><time>2017-11-10T07:10:35.000Z</time></trkpt><trkpt lon="34.858945" lat="31.385009"><ele>423</ele><time>2017-11-10T07:10:36.000Z</time></trkpt><trkpt lon="34.858924" lat="31.385056"><ele>423</ele><time>2017-11-10T07:10:37.000Z</time></trkpt><trkpt lon="34.858909" lat="31.385104"><ele>423</ele><time>2017-11-10T07:10:38.000Z</time></trkpt><trkpt lon="34.858901" lat="31.385154"><ele>423</ele><time>2017-11-10T07:10:39.000Z</time></trkpt><trkpt lon="34.858894" lat="31.3852"><ele>423</ele><time>2017-11-10T07:10:40.000Z</time></trkpt><trkpt lon="34.858869" lat="31.385252"><ele>423</ele><time>2017-11-10T07:10:41.000Z</time></trkpt><trkpt lon="34.858841" lat="31.385301"><ele>423</ele><time>2017-11-10T07:10:42.000Z</time></trkpt><trkpt lon="34.858809" lat="31.38535"><ele>422</ele><time>2017-11-10T07:10:43.000Z</time></trkpt><trkpt lon="34.858777" lat="31.38539"><ele>422</ele><time>2017-11-10T07:10:44.000Z</time></trkpt><trkpt lon="34.858743" lat="31.38543"><ele>422</ele><time>2017-11-10T07:10:45.000Z</time></trkpt><trkpt lon="34.858709" lat="31.385473"><ele>423</ele><time>2017-11-10T07:10:46.000Z</time></trkpt><trkpt lon="34.858675" lat="31.385511"><ele>423</ele><time>2017-11-10T07:10:47.000Z</time></trkpt><trkpt lon="34.858637" lat="31.385547"><ele>423</ele><time>2017-11-10T07:10:48.000Z</time></trkpt><trkpt lon="34.858596" lat="31.385582"><ele>423</ele><time>2017-11-10T07:10:49.000Z</time></trkpt><trkpt lon="34.85855" lat="31.385615"><ele>423</ele><time>2017-11-10T07:10:50.000Z</time></trkpt><trkpt lon="34.858505" lat="31.385643"><ele>423</ele><time>2017-11-10T07:10:51.000Z</time></trkpt><trkpt lon="34.85846" lat="31.385674"><ele>423</ele><time>2017-11-10T07:10:52.000Z</time></trkpt><trkpt lon="34.858418" lat="31.385711"><ele>423</ele><time>2017-11-10T07:10:53.000Z</time></trkpt><trkpt lon="34.858378" lat="31.385754"><ele>423</ele><time>2017-11-10T07:10:54.000Z</time></trkpt><trkpt lon="34.858333" lat="31.385793"><ele>423</ele><time>2017-11-10T07:10:55.000Z</time></trkpt><trkpt lon="34.858283" lat="31.385821"><ele>424</ele><time>2017-11-10T07:10:56.000Z</time></trkpt><trkpt lon="34.858235" lat="31.385838"><ele>424</ele><time>2017-11-10T07:10:57.000Z</time></trkpt><trkpt lon="34.85819" lat="31.385852"><ele>424</ele><time>2017-11-10T07:10:58.000Z</time></trkpt><trkpt lon="34.858147" lat="31.385865"><ele>424</ele><time>2017-11-10T07:10:59.000Z</time></trkpt><trkpt lon="34.858102" lat="31.385873"><ele>424</ele><time>2017-11-10T07:11:00.000Z</time></trkpt><trkpt lon="34.858057" lat="31.38588"><ele>424</ele><time>2017-11-10T07:11:01.000Z</time></trkpt><trkpt lon="34.858016" lat="31.385889"><ele>424</ele><time>2017-11-10T07:11:02.000Z</time></trkpt><trkpt lon="34.857977" lat="31.385898"><ele>425</ele><time>2017-11-10T07:11:03.000Z</time></trkpt><trkpt lon="34.857941" lat="31.385907"><ele>425</ele><time>2017-11-10T07:11:04.000Z</time></trkpt><trkpt lon="34.857909" lat="31.385916"><ele>426</ele><time>2017-11-10T07:11:05.000Z</time></trkpt><trkpt lon="34.857877" lat="31.385926"><ele>426</ele><time>2017-11-10T07:11:06.000Z</time></trkpt><trkpt lon="34.857843" lat="31.38594"><ele>426</ele><time>2017-11-10T07:11:07.000Z</time></trkpt><trkpt lon="34.857808" lat="31.385958"><ele>427</ele><time>2017-11-10T07:11:08.000Z</time></trkpt><trkpt lon="34.857772" lat="31.385974"><ele>427</ele><time>2017-11-10T07:11:09.000Z</time></trkpt><trkpt lon="34.857736" lat="31.385986"><ele>427</ele><time>2017-11-10T07:11:10.000Z</time></trkpt><trkpt lon="34.8577" lat="31.385998"><ele>427</ele><time>2017-11-10T07:11:11.000Z</time></trkpt><trkpt lon="34.857667" lat="31.386014"><ele>427</ele><time>2017-11-10T07:11:12.000Z</time></trkpt><trkpt lon="34.857634" lat="31.386032"><ele>427</ele><time>2017-11-10T07:11:13.000Z</time></trkpt><trkpt lon="34.857599" lat="31.386054"><ele>427</ele><time>2017-11-10T07:11:14.000Z</time></trkpt><trkpt lon="34.857559" lat="31.386074"><ele>427</ele><time>2017-11-10T07:11:15.000Z</time></trkpt><trkpt lon="34.857517" lat="31.386091"><ele>427</ele><time>2017-11-10T07:11:16.000Z</time></trkpt><trkpt lon="34.857473" lat="31.386111"><ele>426</ele><time>2017-11-10T07:11:17.000Z</time></trkpt><trkpt lon="34.857428" lat="31.386128"><ele>426</ele><time>2017-11-10T07:11:18.000Z</time></trkpt><trkpt lon="34.857379" lat="31.38614"><ele>426</ele><time>2017-11-10T07:11:19.000Z</time></trkpt><trkpt lon="34.857328" lat="31.386148"><ele>425</ele><time>2017-11-10T07:11:20.000Z</time></trkpt><trkpt lon="34.857277" lat="31.386154"><ele>425</ele><time>2017-11-10T07:11:21.000Z</time></trkpt><trkpt lon="34.857229" lat="31.386163"><ele>425</ele><time>2017-11-10T07:11:22.000Z</time></trkpt><trkpt lon="34.857179" lat="31.386177"><ele>425</ele><time>2017-11-10T07:11:23.000Z</time></trkpt><trkpt lon="34.857124" lat="31.386193"><ele>425</ele><time>2017-11-10T07:11:24.000Z</time></trkpt><trkpt lon="34.857066" lat="31.386195"><ele>425</ele><time>2017-11-10T07:11:25.000Z</time></trkpt><trkpt lon="34.857008" lat="31.386189"><ele>425</ele><time>2017-11-10T07:11:26.000Z</time></trkpt><trkpt lon="34.856953" lat="31.386186"><ele>425</ele><time>2017-11-10T07:11:27.000Z</time></trkpt><trkpt lon="34.856894" lat="31.386191"><ele>424</ele><time>2017-11-10T07:11:28.000Z</time></trkpt><trkpt lon="34.85683" lat="31.386192"><ele>423</ele><time>2017-11-10T07:11:29.000Z</time></trkpt><trkpt lon="34.856761" lat="31.386184"><ele>422</ele><time>2017-11-10T07:11:30.000Z</time></trkpt><trkpt lon="34.856693" lat="31.386166"><ele>421</ele><time>2017-11-10T07:11:31.000Z</time></trkpt><trkpt lon="34.856638" lat="31.386134"><ele>421</ele><time>2017-11-10T07:11:32.000Z</time></trkpt><trkpt lon="34.856593" lat="31.386091"><ele>421</ele><time>2017-11-10T07:11:33.000Z</time></trkpt><trkpt lon="34.856557" lat="31.386051"><ele>421</ele><time>2017-11-10T07:11:34.000Z</time></trkpt><trkpt lon="34.856524" lat="31.38601"><ele>422</ele><time>2017-11-10T07:11:35.000Z</time></trkpt><trkpt lon="34.856481" lat="31.385969"><ele>422</ele><time>2017-11-10T07:11:36.000Z</time></trkpt><trkpt lon="34.856431" lat="31.385937"><ele>422</ele><time>2017-11-10T07:11:37.000Z</time></trkpt><trkpt lon="34.856377" lat="31.3859"><ele>422</ele><time>2017-11-10T07:11:38.000Z</time></trkpt><trkpt lon="34.856329" lat="31.385857"><ele>422</ele><time>2017-11-10T07:11:39.000Z</time></trkpt><trkpt lon="34.856285" lat="31.385812"><ele>421</ele><time>2017-11-10T07:11:40.000Z</time></trkpt><trkpt lon="34.856246" lat="31.385768"><ele>421</ele><time>2017-11-10T07:11:41.000Z</time></trkpt><trkpt lon="34.856209" lat="31.38572"><ele>421</ele><time>2017-11-10T07:11:42.000Z</time></trkpt><trkpt lon="34.856173" lat="31.385672"><ele>421</ele><time>2017-11-10T07:11:43.000Z</time></trkpt><trkpt lon="34.856136" lat="31.385628"><ele>421</ele><time>2017-11-10T07:11:44.000Z</time></trkpt><trkpt lon="34.856095" lat="31.385585"><ele>420</ele><time>2017-11-10T07:11:45.000Z</time></trkpt><trkpt lon="34.856055" lat="31.385543"><ele>420</ele><time>2017-11-10T07:11:46.000Z</time></trkpt><trkpt lon="34.856012" lat="31.385499"><ele>420</ele><time>2017-11-10T07:11:47.000Z</time></trkpt><trkpt lon="34.855969" lat="31.385454"><ele>420</ele><time>2017-11-10T07:11:48.000Z</time></trkpt><trkpt lon="34.855923" lat="31.38541"><ele>420</ele><time>2017-11-10T07:11:49.000Z</time></trkpt><trkpt lon="34.855872" lat="31.38537"><ele>420</ele><time>2017-11-10T07:11:50.000Z</time></trkpt><trkpt lon="34.855823" lat="31.385328"><ele>420</ele><time>2017-11-10T07:11:51.000Z</time></trkpt><trkpt lon="34.85578" lat="31.385282"><ele>419</ele><time>2017-11-10T07:11:52.000Z</time></trkpt><trkpt lon="34.855738" lat="31.385232"><ele>419</ele><time>2017-11-10T07:11:53.000Z</time></trkpt><trkpt lon="34.855694" lat="31.385176"><ele>419</ele><time>2017-11-10T07:11:54.000Z</time></trkpt><trkpt lon="34.855654" lat="31.385121"><ele>419</ele><time>2017-11-10T07:11:55.000Z</time></trkpt><trkpt lon="34.85562" lat="31.385069"><ele>419</ele><time>2017-11-10T07:11:56.000Z</time></trkpt><trkpt lon="34.855596" lat="31.385023"><ele>420</ele><time>2017-11-10T07:11:57.000Z</time></trkpt><trkpt lon="34.855577" lat="31.38498"><ele>420</ele><time>2017-11-10T07:11:58.000Z</time></trkpt><trkpt lon="34.855557" lat="31.384939"><ele>420</ele><time>2017-11-10T07:11:59.000Z</time></trkpt><trkpt lon="34.855533" lat="31.384911"><ele>420</ele><time>2017-11-10T07:12:00.000Z</time></trkpt><trkpt lon="34.855501" lat="31.384889"><ele>420</ele><time>2017-11-10T07:12:01.000Z</time></trkpt><trkpt lon="34.85547" lat="31.384881"><ele>420</ele><time>2017-11-10T07:12:02.000Z</time></trkpt><trkpt lon="34.855445" lat="31.384881"><ele>420</ele><time>2017-11-10T07:12:03.000Z</time></trkpt><trkpt lon="34.855445" lat="31.384881"><ele>420</ele><time>2017-11-10T07:12:04.000Z</time></trkpt><trkpt lon="34.855445" lat="31.384881"><ele>420</ele><time>2017-11-10T07:12:05.000Z</time></trkpt><trkpt lon="34.855445" lat="31.384881"><ele>420</ele><time>2017-11-10T07:12:06.000Z</time></trkpt><trkpt lon="34.855445" lat="31.384881"><ele>420</ele><time>2017-11-10T07:12:07.000Z</time></trkpt><trkpt lon="34.855445" lat="31.384881"><ele>420</ele><time>2017-11-10T07:12:08.000Z</time></trkpt><trkpt lon="34.855445" lat="31.384881"><ele>420</ele><time>2017-11-10T07:12:09.000Z</time></trkpt><trkpt lon="34.855445" lat="31.384881"><ele>420</ele><time>2017-11-10T07:12:10.000Z</time></trkpt><trkpt lon="34.855445" lat="31.384881"><ele>420</ele><time>2017-11-10T07:12:11.000Z</time></trkpt><trkpt lon="34.855445" lat="31.384881"><ele>420</ele><time>2017-11-10T07:12:12.000Z</time></trkpt><trkpt lon="34.855445" lat="31.384881"><ele>420</ele><time>2017-11-10T07:12:13.000Z</time></trkpt><trkpt lon="34.855445" lat="31.384881"><ele>420</ele><time>2017-11-10T07:12:14.000Z</time></trkpt><trkpt lon="34.855445" lat="31.384881"><ele>420</ele><time>2017-11-10T07:12:15.000Z</time></trkpt><trkpt lon="34.855445" lat="31.384881"><ele>420</ele><time>2017-11-10T07:12:16.000Z</time></trkpt><trkpt lon="34.855445" lat="31.384881"><ele>420</ele><time>2017-11-10T07:12:17.000Z</time></trkpt><trkpt lon="34.855445" lat="31.384881"><ele>420</ele><time>2017-11-10T07:12:18.000Z</time></trkpt><trkpt lon="34.855445" lat="31.384881"><ele>420</ele><time>2017-11-10T07:12:19.000Z</time></trkpt><trkpt lon="34.855445" lat="31.384881"><ele>420</ele><time>2017-11-10T07:12:20.000Z</time></trkpt><trkpt lon="34.855445" lat="31.384881"><ele>420</ele><time>2017-11-10T07:12:21.000Z</time></trkpt><trkpt lon="34.855445" lat="31.384881"><ele>420</ele><time>2017-11-10T07:12:22.000Z</time></trkpt><trkpt lon="34.855445" lat="31.384881"><ele>420</ele><time>2017-11-10T07:12:23.000Z</time></trkpt><trkpt lon="34.855445" lat="31.384881"><ele>421</ele><time>2017-11-10T07:12:24.000Z</time></trkpt><trkpt lon="34.855445" lat="31.384881"><ele>421</ele><time>2017-11-10T07:12:25.000Z</time></trkpt><trkpt lon="34.855445" lat="31.384881"><ele>421</ele><time>2017-11-10T07:12:26.000Z</time></trkpt><trkpt lon="34.855445" lat="31.384881"><ele>421</ele><time>2017-11-10T07:12:27.000Z</time></trkpt><trkpt lon="34.855445" lat="31.384881"><ele>421</ele><time>2017-11-10T07:12:28.000Z</time></trkpt><trkpt lon="34.855445" lat="31.384881"><ele>421</ele><time>2017-11-10T07:12:29.000Z</time></trkpt><trkpt lon="34.855445" lat="31.384881"><ele>421</ele><time>2017-11-10T07:12:30.000Z</time></trkpt><trkpt lon="34.855445" lat="31.384881"><ele>421</ele><time>2017-11-10T07:12:31.000Z</time></trkpt><trkpt lon="34.855445" lat="31.384881"><ele>421</ele><time>2017-11-10T07:12:32.000Z</time></trkpt><trkpt lon="34.855445" lat="31.384881"><ele>421</ele><time>2017-11-10T07:12:33.000Z</time></trkpt><trkpt lon="34.855445" lat="31.384881"><ele>421</ele><time>2017-11-10T07:12:34.000Z</time></trkpt><trkpt lon="34.855445" lat="31.384881"><ele>420</ele><time>2017-11-10T07:12:35.000Z</time></trkpt><trkpt lon="34.855445" lat="31.384881"><ele>420</ele><time>2017-11-10T07:12:36.000Z</time></trkpt><trkpt lon="34.855445" lat="31.384881"><ele>420</ele><time>2017-11-10T07:12:37.000Z</time></trkpt><trkpt lon="34.855445" lat="31.384881"><ele>420</ele><time>2017-11-10T07:12:38.000Z</time></trkpt><trkpt lon="34.855445" lat="31.384881"><ele>420</ele><time>2017-11-10T07:12:39.000Z</time></trkpt><trkpt lon="34.855445" lat="31.384881"><ele>420</ele><time>2017-11-10T07:12:40.000Z</time></trkpt><trkpt lon="34.855445" lat="31.384881"><ele>420</ele><time>2017-11-10T07:12:41.000Z</time></trkpt><trkpt lon="34.855445" lat="31.384881"><ele>421</ele><time>2017-11-10T07:12:42.000Z</time></trkpt><trkpt lon="34.855445" lat="31.384881"><ele>421</ele><time>2017-11-10T07:12:43.000Z</time></trkpt><trkpt lon="34.855445" lat="31.384881"><ele>421</ele><time>2017-11-10T07:12:44.000Z</time></trkpt><trkpt lon="34.855445" lat="31.384881"><ele>421</ele><time>2017-11-10T07:12:45.000Z</time></trkpt><trkpt lon="34.855445" lat="31.384881"><ele>420</ele><time>2017-11-10T07:12:46.000Z</time></trkpt><trkpt lon="34.855445" lat="31.384881"><ele>420</ele><time>2017-11-10T07:12:47.000Z</time></trkpt><trkpt lon="34.855445" lat="31.384881"><ele>420</ele><time>2017-11-10T07:12:48.000Z</time></trkpt><trkpt lon="34.855445" lat="31.384881"><ele>421</ele><time>2017-11-10T07:12:49.000Z</time></trkpt><trkpt lon="34.855445" lat="31.384881"><ele>421</ele><time>2017-11-10T07:12:50.000Z</time></trkpt><trkpt lon="34.855445" lat="31.384881"><ele>421</ele><time>2017-11-10T07:12:51.000Z</time></trkpt><trkpt lon="34.855445" lat="31.384881"><ele>421</ele><time>2017-11-10T07:12:52.000Z</time></trkpt><trkpt lon="34.855445" lat="31.384881"><ele>421</ele><time>2017-11-10T07:12:53.000Z</time></trkpt><trkpt lon="34.855445" lat="31.384881"><ele>421</ele><time>2017-11-10T07:12:54.000Z</time></trkpt><trkpt lon="34.855445" lat="31.384881"><ele>421</ele><time>2017-11-10T07:12:55.000Z</time></trkpt><trkpt lon="34.855445" lat="31.384881"><ele>421</ele><time>2017-11-10T07:12:56.000Z</time></trkpt><trkpt lon="34.855445" lat="31.384881"><ele>421</ele><time>2017-11-10T07:12:57.000Z</time></trkpt><trkpt lon="34.855445" lat="31.384881"><ele>421</ele><time>2017-11-10T07:12:58.000Z</time></trkpt><trkpt lon="34.855425" lat="31.384889"><ele>421</ele><time>2017-11-10T07:12:59.000Z</time></trkpt><trkpt lon="34.855425" lat="31.384889"><ele>421</ele><time>2017-11-10T07:13:00.000Z</time></trkpt><trkpt lon="34.855425" lat="31.384889"><ele>421</ele><time>2017-11-10T07:13:01.000Z</time></trkpt><trkpt lon="34.855425" lat="31.384889"><ele>421</ele><time>2017-11-10T07:13:02.000Z</time></trkpt><trkpt lon="34.855425" lat="31.384889"><ele>421</ele><time>2017-11-10T07:13:03.000Z</time></trkpt><trkpt lon="34.855425" lat="31.384889"><ele>421</ele><time>2017-11-10T07:13:04.000Z</time></trkpt><trkpt lon="34.855425" lat="31.384889"><ele>421</ele><time>2017-11-10T07:13:05.000Z</time></trkpt><trkpt lon="34.855425" lat="31.384889"><ele>421</ele><time>2017-11-10T07:13:06.000Z</time></trkpt><trkpt lon="34.855425" lat="31.384889"><ele>421</ele><time>2017-11-10T07:13:07.000Z</time></trkpt><trkpt lon="34.855425" lat="31.384889"><ele>421</ele><time>2017-11-10T07:13:08.000Z</time></trkpt><trkpt lon="34.855425" lat="31.384889"><ele>421</ele><time>2017-11-10T07:13:09.000Z</time></trkpt><trkpt lon="34.855425" lat="31.384889"><ele>421</ele><time>2017-11-10T07:13:10.000Z</time></trkpt><trkpt lon="34.855425" lat="31.384889"><ele>421</ele><time>2017-11-10T07:13:11.000Z</time></trkpt><trkpt lon="34.855425" lat="31.384889"><ele>421</ele><time>2017-11-10T07:13:12.000Z</time></trkpt><trkpt lon="34.855425" lat="31.384889"><ele>421</ele><time>2017-11-10T07:13:13.000Z</time></trkpt><trkpt lon="34.855425" lat="31.384889"><ele>420</ele><time>2017-11-10T07:13:14.000Z</time></trkpt><trkpt lon="34.855425" lat="31.384889"><ele>420</ele><time>2017-11-10T07:13:15.000Z</time></trkpt><trkpt lon="34.855425" lat="31.384889"><ele>420</ele><time>2017-11-10T07:13:16.000Z</time></trkpt><trkpt lon="34.855425" lat="31.384889"><ele>420</ele><time>2017-11-10T07:13:17.000Z</time></trkpt><trkpt lon="34.855425" lat="31.384889"><ele>420</ele><time>2017-11-10T07:13:18.000Z</time></trkpt><trkpt lon="34.855425" lat="31.384889"><ele>420</ele><time>2017-11-10T07:13:19.000Z</time></trkpt><trkpt lon="34.855425" lat="31.384889"><ele>420</ele><time>2017-11-10T07:13:20.000Z</time></trkpt><trkpt lon="34.855425" lat="31.384889"><ele>420</ele><time>2017-11-10T07:13:21.000Z</time></trkpt><trkpt lon="34.855425" lat="31.384889"><ele>420</ele><time>2017-11-10T07:13:22.000Z</time></trkpt><trkpt lon="34.855425" lat="31.384889"><ele>420</ele><time>2017-11-10T07:13:23.000Z</time></trkpt><trkpt lon="34.855425" lat="31.384889"><ele>420</ele><time>2017-11-10T07:13:24.000Z</time></trkpt><trkpt lon="34.855425" lat="31.384889"><ele>420</ele><time>2017-11-10T07:13:25.000Z</time></trkpt><trkpt lon="34.855425" lat="31.384889"><ele>420</ele><time>2017-11-10T07:13:26.000Z</time></trkpt><trkpt lon="34.855425" lat="31.384889"><ele>420</ele><time>2017-11-10T07:13:27.000Z</time></trkpt><trkpt lon="34.855425" lat="31.384889"><ele>420</ele><time>2017-11-10T07:13:28.000Z</time></trkpt><trkpt lon="34.855425" lat="31.384889"><ele>420</ele><time>2017-11-10T07:13:29.000Z</time></trkpt><trkpt lon="34.855425" lat="31.384889"><ele>420</ele><time>2017-11-10T07:13:30.000Z</time></trkpt><trkpt lon="34.855425" lat="31.384889"><ele>420</ele><time>2017-11-10T07:13:31.000Z</time></trkpt><trkpt lon="34.855425" lat="31.384889"><ele>420</ele><time>2017-11-10T07:13:32.000Z</time></trkpt><trkpt lon="34.855425" lat="31.384889"><ele>420</ele><time>2017-11-10T07:13:33.000Z</time></trkpt><trkpt lon="34.855425" lat="31.384889"><ele>420</ele><time>2017-11-10T07:13:34.000Z</time></trkpt><trkpt lon="34.855425" lat="31.384889"><ele>420</ele><time>2017-11-10T07:13:35.000Z</time></trkpt><trkpt lon="34.855425" lat="31.384889"><ele>420</ele><time>2017-11-10T07:13:36.000Z</time></trkpt><trkpt lon="34.855425" lat="31.384889"><ele>420</ele><time>2017-11-10T07:13:37.000Z</time></trkpt><trkpt lon="34.855425" lat="31.384889"><ele>420</ele><time>2017-11-10T07:13:38.000Z</time></trkpt><trkpt lon="34.855425" lat="31.384889"><ele>420</ele><time>2017-11-10T07:13:39.000Z</time></trkpt><trkpt lon="34.855425" lat="31.384889"><ele>420</ele><time>2017-11-10T07:13:40.000Z</time></trkpt><trkpt lon="34.855425" lat="31.384889"><ele>420</ele><time>2017-11-10T07:13:41.000Z</time></trkpt><trkpt lon="34.855425" lat="31.384889"><ele>420</ele><time>2017-11-10T07:13:42.000Z</time></trkpt><trkpt lon="34.855425" lat="31.384889"><ele>420</ele><time>2017-11-10T07:13:43.000Z</time></trkpt><trkpt lon="34.855425" lat="31.384889"><ele>420</ele><time>2017-11-10T07:13:44.000Z</time></trkpt><trkpt lon="34.855425" lat="31.384889"><ele>420</ele><time>2017-11-10T07:13:45.000Z</time></trkpt><trkpt lon="34.855425" lat="31.384889"><ele>420</ele><time>2017-11-10T07:13:46.000Z</time></trkpt><trkpt lon="34.855425" lat="31.384889"><ele>420</ele><time>2017-11-10T07:13:47.000Z</time></trkpt><trkpt lon="34.855425" lat="31.384889"><ele>420</ele><time>2017-11-10T07:13:48.000Z</time></trkpt><trkpt lon="34.855425" lat="31.384889"><ele>420</ele><time>2017-11-10T07:13:49.000Z</time></trkpt><trkpt lon="34.855425" lat="31.384889"><ele>420</ele><time>2017-11-10T07:13:50.000Z</time></trkpt><trkpt lon="34.855425" lat="31.384889"><ele>420</ele><time>2017-11-10T07:13:51.000Z</time></trkpt><trkpt lon="34.855425" lat="31.384889"><ele>420</ele><time>2017-11-10T07:13:52.000Z</time></trkpt><trkpt lon="34.855425" lat="31.384889"><ele>420</ele><time>2017-11-10T07:13:53.000Z</time></trkpt><trkpt lon="34.855425" lat="31.384889"><ele>420</ele><time>2017-11-10T07:13:54.000Z</time></trkpt><trkpt lon="34.855425" lat="31.384889"><ele>420</ele><time>2017-11-10T07:13:55.000Z</time></trkpt><trkpt lon="34.855425" lat="31.384889"><ele>420</ele><time>2017-11-10T07:13:56.000Z</time></trkpt><trkpt lon="34.855425" lat="31.384889"><ele>420</ele><time>2017-11-10T07:13:57.000Z</time></trkpt><trkpt lon="34.855425" lat="31.384889"><ele>420</ele><time>2017-11-10T07:13:58.000Z</time></trkpt><trkpt lon="34.855425" lat="31.384889"><ele>420</ele><time>2017-11-10T07:13:59.000Z</time></trkpt><trkpt lon="34.855425" lat="31.384889"><ele>420</ele><time>2017-11-10T07:14:00.000Z</time></trkpt><trkpt lon="34.855425" lat="31.384889"><ele>420</ele><time>2017-11-10T07:14:01.000Z</time></trkpt><trkpt lon="34.855425" lat="31.384889"><ele>420</ele><time>2017-11-10T07:14:02.000Z</time></trkpt><trkpt lon="34.855425" lat="31.384889"><ele>420</ele><time>2017-11-10T07:14:03.000Z</time></trkpt><trkpt lon="34.855425" lat="31.384889"><ele>420</ele><time>2017-11-10T07:14:04.000Z</time></trkpt><trkpt lon="34.855425" lat="31.384889"><ele>420</ele><time>2017-11-10T07:14:05.000Z</time></trkpt><trkpt lon="34.855425" lat="31.384889"><ele>420</ele><time>2017-11-10T07:14:06.000Z</time></trkpt><trkpt lon="34.855425" lat="31.384889"><ele>420</ele><time>2017-11-10T07:14:07.000Z</time></trkpt><trkpt lon="34.855425" lat="31.384889"><ele>420</ele><time>2017-11-10T07:14:08.000Z</time></trkpt><trkpt lon="34.855425" lat="31.384889"><ele>420</ele><time>2017-11-10T07:14:09.000Z</time></trkpt><trkpt lon="34.855425" lat="31.384889"><ele>420</ele><time>2017-11-10T07:14:10.000Z</time></trkpt><trkpt lon="34.855425" lat="31.384889"><ele>420</ele><time>2017-11-10T07:14:11.000Z</time></trkpt><trkpt lon="34.855425" lat="31.384889"><ele>420</ele><time>2017-11-10T07:14:12.000Z</time></trkpt><trkpt lon="34.855425" lat="31.384889"><ele>420</ele><time>2017-11-10T07:14:13.000Z</time></trkpt><trkpt lon="34.855425" lat="31.384889"><ele>420</ele><time>2017-11-10T07:14:14.000Z</time></trkpt><trkpt lon="34.855425" lat="31.384889"><ele>420</ele><time>2017-11-10T07:14:15.000Z</time></trkpt><trkpt lon="34.855425" lat="31.384889"><ele>420</ele><time>2017-11-10T07:14:16.000Z</time></trkpt><trkpt lon="34.855425" lat="31.384889"><ele>420</ele><time>2017-11-10T07:14:17.000Z</time></trkpt><trkpt lon="34.855425" lat="31.384889"><ele>420</ele><time>2017-11-10T07:14:18.000Z</time></trkpt><trkpt lon="34.855425" lat="31.384889"><ele>420</ele><time>2017-11-10T07:14:19.000Z</time></trkpt><trkpt lon="34.855425" lat="31.384889"><ele>420</ele><time>2017-11-10T07:14:20.000Z</time></trkpt><trkpt lon="34.855425" lat="31.384889"><ele>420</ele><time>2017-11-10T07:14:21.000Z</time></trkpt><trkpt lon="34.855425" lat="31.384889"><ele>420</ele><time>2017-11-10T07:14:22.000Z</time></trkpt><trkpt lon="34.855425" lat="31.384889"><ele>420</ele><time>2017-11-10T07:14:23.000Z</time></trkpt><trkpt lon="34.855425" lat="31.384889"><ele>420</ele><time>2017-11-10T07:14:24.000Z</time></trkpt><trkpt lon="34.855425" lat="31.384889"><ele>420</ele><time>2017-11-10T07:14:25.000Z</time></trkpt><trkpt lon="34.855425" lat="31.384889"><ele>420</ele><time>2017-11-10T07:14:26.000Z</time></trkpt><trkpt lon="34.855425" lat="31.384889"><ele>420</ele><time>2017-11-10T07:14:27.000Z</time></trkpt><trkpt lon="34.855425" lat="31.384889"><ele>420</ele><time>2017-11-10T07:14:28.000Z</time></trkpt><trkpt lon="34.855425" lat="31.384889"><ele>420</ele><time>2017-11-10T07:14:29.000Z</time></trkpt><trkpt lon="34.855425" lat="31.384889"><ele>420</ele><time>2017-11-10T07:14:30.000Z</time></trkpt><trkpt lon="34.855425" lat="31.384889"><ele>420</ele><time>2017-11-10T07:14:31.000Z</time></trkpt><trkpt lon="34.855425" lat="31.384889"><ele>420</ele><time>2017-11-10T07:14:32.000Z</time></trkpt><trkpt lon="34.855425" lat="31.384889"><ele>420</ele><time>2017-11-10T07:14:33.000Z</time></trkpt><trkpt lon="34.855425" lat="31.384889"><ele>420</ele><time>2017-11-10T07:14:34.000Z</time></trkpt><trkpt lon="34.855425" lat="31.384889"><ele>420</ele><time>2017-11-10T07:14:35.000Z</time></trkpt><trkpt lon="34.855425" lat="31.384889"><ele>420</ele><time>2017-11-10T07:14:36.000Z</time></trkpt><trkpt lon="34.855425" lat="31.384889"><ele>420</ele><time>2017-11-10T07:14:37.000Z</time></trkpt><trkpt lon="34.855425" lat="31.384889"><ele>420</ele><time>2017-11-10T07:14:38.000Z</time></trkpt><trkpt lon="34.855425" lat="31.384889"><ele>420</ele><time>2017-11-10T07:14:39.000Z</time></trkpt><trkpt lon="34.855425" lat="31.384889"><ele>420</ele><time>2017-11-10T07:14:40.000Z</time></trkpt><trkpt lon="34.855425" lat="31.384889"><ele>420</ele><time>2017-11-10T07:14:41.000Z</time></trkpt><trkpt lon="34.855425" lat="31.384889"><ele>420</ele><time>2017-11-10T07:14:42.000Z</time></trkpt><trkpt lon="34.855425" lat="31.384889"><ele>420</ele><time>2017-11-10T07:14:43.000Z</time></trkpt><trkpt lon="34.855425" lat="31.384889"><ele>420</ele><time>2017-11-10T07:14:44.000Z</time></trkpt><trkpt lon="34.855425" lat="31.384889"><ele>420</ele><time>2017-11-10T07:14:45.000Z</time></trkpt><trkpt lon="34.855425" lat="31.384889"><ele>420</ele><time>2017-11-10T07:14:46.000Z</time></trkpt><trkpt lon="34.855425" lat="31.384889"><ele>420</ele><time>2017-11-10T07:14:47.000Z</time></trkpt><trkpt lon="34.855425" lat="31.384889"><ele>420</ele><time>2017-11-10T07:14:48.000Z</time></trkpt><trkpt lon="34.855425" lat="31.384889"><ele>420</ele><time>2017-11-10T07:14:49.000Z</time></trkpt><trkpt lon="34.855425" lat="31.384889"><ele>420</ele><time>2017-11-10T07:14:50.000Z</time></trkpt><trkpt lon="34.855425" lat="31.384889"><ele>420</ele><time>2017-11-10T07:14:51.000Z</time></trkpt><trkpt lon="34.855425" lat="31.384889"><ele>420</ele><time>2017-11-10T07:14:52.000Z</time></trkpt><trkpt lon="34.855425" lat="31.384889"><ele>420</ele><time>2017-11-10T07:14:53.000Z</time></trkpt><trkpt lon="34.855425" lat="31.384889"><ele>420</ele><time>2017-11-10T07:14:54.000Z</time></trkpt><trkpt lon="34.855425" lat="31.384889"><ele>420</ele><time>2017-11-10T07:14:55.000Z</time></trkpt><trkpt lon="34.855425" lat="31.384889"><ele>420</ele><time>2017-11-10T07:14:56.000Z</time></trkpt><trkpt lon="34.855425" lat="31.384889"><ele>420</ele><time>2017-11-10T07:14:57.000Z</time></trkpt><trkpt lon="34.855402" lat="31.384886"><ele>420</ele><time>2017-11-10T07:14:58.000Z</time></trkpt><trkpt lon="34.855379" lat="31.384893"><ele>420</ele><time>2017-11-10T07:14:59.000Z</time></trkpt><trkpt lon="34.85535" lat="31.384898"><ele>420</ele><time>2017-11-10T07:15:00.000Z</time></trkpt><trkpt lon="34.855316" lat="31.384905"><ele>420</ele><time>2017-11-10T07:15:01.000Z</time></trkpt><trkpt lon="34.855277" lat="31.384915"><ele>420</ele><time>2017-11-10T07:15:02.000Z</time></trkpt><trkpt lon="34.855236" lat="31.384927"><ele>420</ele><time>2017-11-10T07:15:03.000Z</time></trkpt><trkpt lon="34.855198" lat="31.384951"><ele>420</ele><time>2017-11-10T07:15:04.000Z</time></trkpt><trkpt lon="34.855177" lat="31.384991"><ele>420</ele><time>2017-11-10T07:15:05.000Z</time></trkpt><trkpt lon="34.85518" lat="31.385039"><ele>420</ele><time>2017-11-10T07:15:06.000Z</time></trkpt><trkpt lon="34.855193" lat="31.385091"><ele>420</ele><time>2017-11-10T07:15:07.000Z</time></trkpt><trkpt lon="34.855206" lat="31.385145"><ele>420</ele><time>2017-11-10T07:15:08.000Z</time></trkpt><trkpt lon="34.855213" lat="31.385196"><ele>420</ele><time>2017-11-10T07:15:09.000Z</time></trkpt><trkpt lon="34.855213" lat="31.385239"><ele>420</ele><time>2017-11-10T07:15:10.000Z</time></trkpt><trkpt lon="34.855211" lat="31.385283"><ele>420</ele><time>2017-11-10T07:15:11.000Z</time></trkpt><trkpt lon="34.855214" lat="31.385335"><ele>420</ele><time>2017-11-10T07:15:12.000Z</time></trkpt><trkpt lon="34.855226" lat="31.385392"><ele>419</ele><time>2017-11-10T07:15:13.000Z</time></trkpt><trkpt lon="34.855246" lat="31.385453"><ele>419</ele><time>2017-11-10T07:15:14.000Z</time></trkpt><trkpt lon="34.855273" lat="31.385515"><ele>419</ele><time>2017-11-10T07:15:15.000Z</time></trkpt><trkpt lon="34.855306" lat="31.385576"><ele>419</ele><time>2017-11-10T07:15:16.000Z</time></trkpt><trkpt lon="34.855341" lat="31.385635"><ele>419</ele><time>2017-11-10T07:15:17.000Z</time></trkpt><trkpt lon="34.855373" lat="31.385691"><ele>419</ele><time>2017-11-10T07:15:18.000Z</time></trkpt><trkpt lon="34.855397" lat="31.385747"><ele>419</ele><time>2017-11-10T07:15:19.000Z</time></trkpt><trkpt lon="34.85541" lat="31.385804"><ele>419</ele><time>2017-11-10T07:15:20.000Z</time></trkpt><trkpt lon="34.855418" lat="31.385861"><ele>419</ele><time>2017-11-10T07:15:21.000Z</time></trkpt><trkpt lon="34.855426" lat="31.38592"><ele>419</ele><time>2017-11-10T07:15:22.000Z</time></trkpt><trkpt lon="34.855436" lat="31.385978"><ele>419</ele><time>2017-11-10T07:15:23.000Z</time></trkpt><trkpt lon="34.855443" lat="31.386038"><ele>419</ele><time>2017-11-10T07:15:24.000Z</time></trkpt><trkpt lon="34.855441" lat="31.3861"><ele>419</ele><time>2017-11-10T07:15:25.000Z</time></trkpt><trkpt lon="34.855432" lat="31.38616"><ele>419</ele><time>2017-11-10T07:15:26.000Z</time></trkpt><trkpt lon="34.855422" lat="31.386218"><ele>419</ele><time>2017-11-10T07:15:27.000Z</time></trkpt><trkpt lon="34.855418" lat="31.386272"><ele>419</ele><time>2017-11-10T07:15:28.000Z</time></trkpt><trkpt lon="34.855409" lat="31.38632"><ele>419</ele><time>2017-11-10T07:15:29.000Z</time></trkpt><trkpt lon="34.855391" lat="31.386358"><ele>419</ele><time>2017-11-10T07:15:30.000Z</time></trkpt><trkpt lon="34.855367" lat="31.386392"><ele>419</ele><time>2017-11-10T07:15:31.000Z</time></trkpt><trkpt lon="34.855338" lat="31.386427"><ele>419</ele><time>2017-11-10T07:15:32.000Z</time></trkpt><trkpt lon="34.855308" lat="31.386464"><ele>419</ele><time>2017-11-10T07:15:33.000Z</time></trkpt><trkpt lon="34.855275" lat="31.386502"><ele>419</ele><time>2017-11-10T07:15:34.000Z</time></trkpt><trkpt lon="34.855235" lat="31.386528"><ele>419</ele><time>2017-11-10T07:15:35.000Z</time></trkpt><trkpt lon="34.855189" lat="31.38654"><ele>420</ele><time>2017-11-10T07:15:36.000Z</time></trkpt><trkpt lon="34.855142" lat="31.386547"><ele>420</ele><time>2017-11-10T07:15:37.000Z</time></trkpt><trkpt lon="34.855095" lat="31.386551"><ele>420</ele><time>2017-11-10T07:15:38.000Z</time></trkpt><trkpt lon="34.855049" lat="31.386557"><ele>420</ele><time>2017-11-10T07:15:39.000Z</time></trkpt><trkpt lon="34.855005" lat="31.386568"><ele>420</ele><time>2017-11-10T07:15:40.000Z</time></trkpt><trkpt lon="34.85496" lat="31.386583"><ele>420</ele><time>2017-11-10T07:15:41.000Z</time></trkpt><trkpt lon="34.854916" lat="31.3866"><ele>420</ele><time>2017-11-10T07:15:42.000Z</time></trkpt><trkpt lon="34.854873" lat="31.386617"><ele>420</ele><time>2017-11-10T07:15:43.000Z</time></trkpt><trkpt lon="34.854835" lat="31.386632"><ele>420</ele><time>2017-11-10T07:15:44.000Z</time></trkpt><trkpt lon="34.854802" lat="31.386653"><ele>420</ele><time>2017-11-10T07:15:45.000Z</time></trkpt><trkpt lon="34.854777" lat="31.386685"><ele>420</ele><time>2017-11-10T07:15:46.000Z</time></trkpt><trkpt lon="34.854765" lat="31.386723"><ele>420</ele><time>2017-11-10T07:15:47.000Z</time></trkpt><trkpt lon="34.854758" lat="31.386768"><ele>420</ele><time>2017-11-10T07:15:48.000Z</time></trkpt><trkpt lon="34.854751" lat="31.386817"><ele>420</ele><time>2017-11-10T07:15:49.000Z</time></trkpt><trkpt lon="34.854738" lat="31.386867"><ele>420</ele><time>2017-11-10T07:15:50.000Z</time></trkpt><trkpt lon="34.854714" lat="31.386915"><ele>420</ele><time>2017-11-10T07:15:51.000Z</time></trkpt><trkpt lon="34.854677" lat="31.386957"><ele>420</ele><time>2017-11-10T07:15:52.000Z</time></trkpt><trkpt lon="34.854638" lat="31.386988"><ele>420</ele><time>2017-11-10T07:15:53.000Z</time></trkpt><trkpt lon="34.854603" lat="31.387016"><ele>420</ele><time>2017-11-10T07:15:54.000Z</time></trkpt><trkpt lon="34.854568" lat="31.387043"><ele>420</ele><time>2017-11-10T07:15:55.000Z</time></trkpt><trkpt lon="34.85453" lat="31.387067"><ele>420</ele><time>2017-11-10T07:15:56.000Z</time></trkpt><trkpt lon="34.854487" lat="31.387086"><ele>420</ele><time>2017-11-10T07:15:57.000Z</time></trkpt><trkpt lon="34.854443" lat="31.3871"><ele>420</ele><time>2017-11-10T07:15:58.000Z</time></trkpt><trkpt lon="34.854399" lat="31.387111"><ele>420</ele><time>2017-11-10T07:15:59.000Z</time></trkpt><trkpt lon="34.854353" lat="31.387121"><ele>421</ele><time>2017-11-10T07:16:00.000Z</time></trkpt><trkpt lon="34.854307" lat="31.38713"><ele>421</ele><time>2017-11-10T07:16:01.000Z</time></trkpt><trkpt lon="34.854261" lat="31.387137"><ele>421</ele><time>2017-11-10T07:16:02.000Z</time></trkpt><trkpt lon="34.854217" lat="31.38714"><ele>422</ele><time>2017-11-10T07:16:03.000Z</time></trkpt><trkpt lon="34.854176" lat="31.387141"><ele>422</ele><time>2017-11-10T07:16:04.000Z</time></trkpt><trkpt lon="34.85414" lat="31.387139"><ele>422</ele><time>2017-11-10T07:16:05.000Z</time></trkpt><trkpt lon="34.854107" lat="31.387137"><ele>423</ele><time>2017-11-10T07:16:06.000Z</time></trkpt><trkpt lon="34.854074" lat="31.387135"><ele>423</ele><time>2017-11-10T07:16:07.000Z</time></trkpt><trkpt lon="34.854037" lat="31.387134"><ele>423</ele><time>2017-11-10T07:16:08.000Z</time></trkpt><trkpt lon="34.853998" lat="31.387132"><ele>423</ele><time>2017-11-10T07:16:09.000Z</time></trkpt><trkpt lon="34.853958" lat="31.387129"><ele>424</ele><time>2017-11-10T07:16:10.000Z</time></trkpt><trkpt lon="34.853918" lat="31.387127"><ele>424</ele><time>2017-11-10T07:16:11.000Z</time></trkpt><trkpt lon="34.853876" lat="31.387123"><ele>424</ele><time>2017-11-10T07:16:12.000Z</time></trkpt><trkpt lon="34.853832" lat="31.387117"><ele>424</ele><time>2017-11-10T07:16:13.000Z</time></trkpt><trkpt lon="34.853787" lat="31.387114"><ele>424</ele><time>2017-11-10T07:16:14.000Z</time></trkpt><trkpt lon="34.853746" lat="31.387119"><ele>424</ele><time>2017-11-10T07:16:15.000Z</time></trkpt><trkpt lon="34.853714" lat="31.387138"><ele>424</ele><time>2017-11-10T07:16:16.000Z</time></trkpt><trkpt lon="34.853695" lat="31.387171"><ele>424</ele><time>2017-11-10T07:16:17.000Z</time></trkpt><trkpt lon="34.853687" lat="31.387213"><ele>424</ele><time>2017-11-10T07:16:18.000Z</time></trkpt><trkpt lon="34.853688" lat="31.387259"><ele>423</ele><time>2017-11-10T07:16:19.000Z</time></trkpt><trkpt lon="34.853687" lat="31.387309"><ele>422</ele><time>2017-11-10T07:16:20.000Z</time></trkpt><trkpt lon="34.853675" lat="31.387355"><ele>421</ele><time>2017-11-10T07:16:21.000Z</time></trkpt><trkpt lon="34.853653" lat="31.387392"><ele>420</ele><time>2017-11-10T07:16:22.000Z</time></trkpt><trkpt lon="34.853621" lat="31.387424"><ele>420</ele><time>2017-11-10T07:16:23.000Z</time></trkpt><trkpt lon="34.853584" lat="31.387454"><ele>420</ele><time>2017-11-10T07:16:24.000Z</time></trkpt><trkpt lon="34.85355" lat="31.387489"><ele>420</ele><time>2017-11-10T07:16:25.000Z</time></trkpt><trkpt lon="34.853515" lat="31.387526"><ele>419</ele><time>2017-11-10T07:16:26.000Z</time></trkpt><trkpt lon="34.853473" lat="31.387558"><ele>419</ele><time>2017-11-10T07:16:27.000Z</time></trkpt><trkpt lon="34.853426" lat="31.387583"><ele>419</ele><time>2017-11-10T07:16:28.000Z</time></trkpt><trkpt lon="34.853376" lat="31.387602"><ele>419</ele><time>2017-11-10T07:16:29.000Z</time></trkpt><trkpt lon="34.853324" lat="31.387614"><ele>420</ele><time>2017-11-10T07:16:30.000Z</time></trkpt><trkpt lon="34.85327" lat="31.387627"><ele>420</ele><time>2017-11-10T07:16:31.000Z</time></trkpt><trkpt lon="34.853211" lat="31.387637"><ele>420</ele><time>2017-11-10T07:16:32.000Z</time></trkpt><trkpt lon="34.85315" lat="31.38764"><ele>420</ele><time>2017-11-10T07:16:33.000Z</time></trkpt><trkpt lon="34.853089" lat="31.387636"><ele>420</ele><time>2017-11-10T07:16:34.000Z</time></trkpt><trkpt lon="34.853032" lat="31.387633"><ele>420</ele><time>2017-11-10T07:16:35.000Z</time></trkpt><trkpt lon="34.85298" lat="31.387631"><ele>420</ele><time>2017-11-10T07:16:36.000Z</time></trkpt><trkpt lon="34.852932" lat="31.387628"><ele>421</ele><time>2017-11-10T07:16:37.000Z</time></trkpt><trkpt lon="34.852888" lat="31.387619"><ele>421</ele><time>2017-11-10T07:16:38.000Z</time></trkpt><trkpt lon="34.852847" lat="31.387607"><ele>421</ele><time>2017-11-10T07:16:39.000Z</time></trkpt><trkpt lon="34.852809" lat="31.387591"><ele>421</ele><time>2017-11-10T07:16:40.000Z</time></trkpt><trkpt lon="34.852771" lat="31.387571"><ele>421</ele><time>2017-11-10T07:16:41.000Z</time></trkpt><trkpt lon="34.852733" lat="31.387547"><ele>421</ele><time>2017-11-10T07:16:42.000Z</time></trkpt><trkpt lon="34.852698" lat="31.387522"><ele>421</ele><time>2017-11-10T07:16:43.000Z</time></trkpt><trkpt lon="34.852669" lat="31.387499"><ele>421</ele><time>2017-11-10T07:16:44.000Z</time></trkpt><trkpt lon="34.852647" lat="31.387479"><ele>422</ele><time>2017-11-10T07:16:45.000Z</time></trkpt><trkpt lon="34.85263" lat="31.387462"><ele>422</ele><time>2017-11-10T07:16:46.000Z</time></trkpt><trkpt lon="34.852618" lat="31.387445"><ele>422</ele><time>2017-11-10T07:16:47.000Z</time></trkpt><trkpt lon="34.852603" lat="31.387424"><ele>423</ele><time>2017-11-10T07:16:48.000Z</time></trkpt><trkpt lon="34.852588" lat="31.387403"><ele>423</ele><time>2017-11-10T07:16:49.000Z</time></trkpt><trkpt lon="34.852576" lat="31.387381"><ele>423</ele><time>2017-11-10T07:16:50.000Z</time></trkpt><trkpt lon="34.852564" lat="31.387359"><ele>423</ele><time>2017-11-10T07:16:51.000Z</time></trkpt><trkpt lon="34.852553" lat="31.387336"><ele>423</ele><time>2017-11-10T07:16:52.000Z</time></trkpt><trkpt lon="34.852543" lat="31.387314"><ele>423</ele><time>2017-11-10T07:16:53.000Z</time></trkpt><trkpt lon="34.852532" lat="31.387292"><ele>423</ele><time>2017-11-10T07:16:54.000Z</time></trkpt><trkpt lon="34.85252" lat="31.387272"><ele>423</ele><time>2017-11-10T07:16:55.000Z</time></trkpt><trkpt lon="34.852508" lat="31.387252"><ele>423</ele><time>2017-11-10T07:16:56.000Z</time></trkpt><trkpt lon="34.852496" lat="31.387232"><ele>423</ele><time>2017-11-10T07:16:57.000Z</time></trkpt><trkpt lon="34.852485" lat="31.387213"><ele>423</ele><time>2017-11-10T07:16:58.000Z</time></trkpt><trkpt lon="34.852476" lat="31.387195"><ele>423</ele><time>2017-11-10T07:16:59.000Z</time></trkpt><trkpt lon="34.852469" lat="31.387177"><ele>423</ele><time>2017-11-10T07:17:00.000Z</time></trkpt><trkpt lon="34.852463" lat="31.387156"><ele>423</ele><time>2017-11-10T07:17:01.000Z</time></trkpt><trkpt lon="34.852459" lat="31.387131"><ele>423</ele><time>2017-11-10T07:17:02.000Z</time></trkpt><trkpt lon="34.852457" lat="31.387107"><ele>424</ele><time>2017-11-10T07:17:03.000Z</time></trkpt><trkpt lon="34.85246" lat="31.387087"><ele>424</ele><time>2017-11-10T07:17:04.000Z</time></trkpt><trkpt lon="34.85246" lat="31.387087"><ele>424</ele><time>2017-11-10T07:17:05.000Z</time></trkpt><trkpt lon="34.852469" lat="31.387058"><ele>424</ele><time>2017-11-10T07:17:06.000Z</time></trkpt><trkpt lon="34.852477" lat="31.387038"><ele>424</ele><time>2017-11-10T07:17:07.000Z</time></trkpt><trkpt lon="34.852484" lat="31.387018"><ele>424</ele><time>2017-11-10T07:17:08.000Z</time></trkpt><trkpt lon="34.852498" lat="31.386996"><ele>424</ele><time>2017-11-10T07:17:09.000Z</time></trkpt><trkpt lon="34.852513" lat="31.386978"><ele>424</ele><time>2017-11-10T07:17:10.000Z</time></trkpt><trkpt lon="34.852527" lat="31.386962"><ele>424</ele><time>2017-11-10T07:17:11.000Z</time></trkpt><trkpt lon="34.852539" lat="31.386947"><ele>425</ele><time>2017-11-10T07:17:12.000Z</time></trkpt><trkpt lon="34.852539" lat="31.386947"><ele>425</ele><time>2017-11-10T07:17:13.000Z</time></trkpt><trkpt lon="34.852561" lat="31.386921"><ele>425</ele><time>2017-11-10T07:17:14.000Z</time></trkpt><trkpt lon="34.852561" lat="31.386921"><ele>426</ele><time>2017-11-10T07:17:15.000Z</time></trkpt><trkpt lon="34.852577" lat="31.386893"><ele>426</ele><time>2017-11-10T07:17:16.000Z</time></trkpt><trkpt lon="34.852583" lat="31.386874"><ele>426</ele><time>2017-11-10T07:17:17.000Z</time></trkpt><trkpt lon="34.852588" lat="31.386854"><ele>426</ele><time>2017-11-10T07:17:18.000Z</time></trkpt><trkpt lon="34.852593" lat="31.386828"><ele>426</ele><time>2017-11-10T07:17:19.000Z</time></trkpt><trkpt lon="34.852599" lat="31.3868"><ele>426</ele><time>2017-11-10T07:17:20.000Z</time></trkpt><trkpt lon="34.852603" lat="31.38677"><ele>426</ele><time>2017-11-10T07:17:21.000Z</time></trkpt><trkpt lon="34.852605" lat="31.38674"><ele>426</ele><time>2017-11-10T07:17:22.000Z</time></trkpt><trkpt lon="34.8526" lat="31.386711"><ele>426</ele><time>2017-11-10T07:17:23.000Z</time></trkpt><trkpt lon="34.85259" lat="31.386682"><ele>426</ele><time>2017-11-10T07:17:24.000Z</time></trkpt><trkpt lon="34.852574" lat="31.386655"><ele>426</ele><time>2017-11-10T07:17:25.000Z</time></trkpt><trkpt lon="34.852552" lat="31.386629"><ele>426</ele><time>2017-11-10T07:17:26.000Z</time></trkpt><trkpt lon="34.852526" lat="31.386606"><ele>426</ele><time>2017-11-10T07:17:27.000Z</time></trkpt><trkpt lon="34.852496" lat="31.386586"><ele>426</ele><time>2017-11-10T07:17:28.000Z</time></trkpt><trkpt lon="34.852461" lat="31.386571"><ele>426</ele><time>2017-11-10T07:17:29.000Z</time></trkpt><trkpt lon="34.852423" lat="31.386561"><ele>426</ele><time>2017-11-10T07:17:30.000Z</time></trkpt><trkpt lon="34.85238" lat="31.386558"><ele>426</ele><time>2017-11-10T07:17:31.000Z</time></trkpt><trkpt lon="34.852336" lat="31.38656"><ele>426</ele><time>2017-11-10T07:17:32.000Z</time></trkpt><trkpt lon="34.852289" lat="31.386567"><ele>426</ele><time>2017-11-10T07:17:33.000Z</time></trkpt><trkpt lon="34.85224" lat="31.386577"><ele>426</ele><time>2017-11-10T07:17:34.000Z</time></trkpt><trkpt lon="34.852187" lat="31.386589"><ele>426</ele><time>2017-11-10T07:17:35.000Z</time></trkpt><trkpt lon="34.85213" lat="31.386602"><ele>426</ele><time>2017-11-10T07:17:36.000Z</time></trkpt><trkpt lon="34.85207" lat="31.386613"><ele>426</ele><time>2017-11-10T07:17:37.000Z</time></trkpt><trkpt lon="34.852007" lat="31.386623"><ele>425</ele><time>2017-11-10T07:17:38.000Z</time></trkpt><trkpt lon="34.851943" lat="31.386633"><ele>425</ele><time>2017-11-10T07:17:39.000Z</time></trkpt><trkpt lon="34.851878" lat="31.386644"><ele>425</ele><time>2017-11-10T07:17:40.000Z</time></trkpt><trkpt lon="34.851812" lat="31.386656"><ele>425</ele><time>2017-11-10T07:17:41.000Z</time></trkpt><trkpt lon="34.851741" lat="31.386671"><ele>425</ele><time>2017-11-10T07:17:42.000Z</time></trkpt><trkpt lon="34.85167" lat="31.386691"><ele>424</ele><time>2017-11-10T07:17:43.000Z</time></trkpt><trkpt lon="34.851602" lat="31.386715"><ele>424</ele><time>2017-11-10T07:17:44.000Z</time></trkpt><trkpt lon="34.851538" lat="31.386738"><ele>424</ele><time>2017-11-10T07:17:45.000Z</time></trkpt><trkpt lon="34.851478" lat="31.38676"><ele>424</ele><time>2017-11-10T07:17:46.000Z</time></trkpt><trkpt lon="34.851416" lat="31.386781"><ele>424</ele><time>2017-11-10T07:17:47.000Z</time></trkpt><trkpt lon="34.85135" lat="31.386801"><ele>424</ele><time>2017-11-10T07:17:48.000Z</time></trkpt><trkpt lon="34.851279" lat="31.386821"><ele>424</ele><time>2017-11-10T07:17:49.000Z</time></trkpt><trkpt lon="34.85121" lat="31.386842"><ele>424</ele><time>2017-11-10T07:17:50.000Z</time></trkpt><trkpt lon="34.851142" lat="31.386862"><ele>424</ele><time>2017-11-10T07:17:51.000Z</time></trkpt><trkpt lon="34.851074" lat="31.386878"><ele>424</ele><time>2017-11-10T07:17:52.000Z</time></trkpt><trkpt lon="34.851007" lat="31.386892"><ele>424</ele><time>2017-11-10T07:17:53.000Z</time></trkpt><trkpt lon="34.850944" lat="31.386901"><ele>424</ele><time>2017-11-10T07:17:54.000Z</time></trkpt><trkpt lon="34.850892" lat="31.386895"><ele>423</ele><time>2017-11-10T07:17:55.000Z</time></trkpt><trkpt lon="34.850858" lat="31.386868"><ele>423</ele><time>2017-11-10T07:17:56.000Z</time></trkpt><trkpt lon="34.850841" lat="31.386832"><ele>423</ele><time>2017-11-10T07:17:57.000Z</time></trkpt><trkpt lon="34.850828" lat="31.386792"><ele>422</ele><time>2017-11-10T07:17:58.000Z</time></trkpt><trkpt lon="34.85082" lat="31.386747"><ele>422</ele><time>2017-11-10T07:17:59.000Z</time></trkpt><trkpt lon="34.850815" lat="31.386699"><ele>422</ele><time>2017-11-10T07:18:00.000Z</time></trkpt><trkpt lon="34.850812" lat="31.386651"><ele>422</ele><time>2017-11-10T07:18:01.000Z</time></trkpt><trkpt lon="34.850812" lat="31.386607"><ele>423</ele><time>2017-11-10T07:18:02.000Z</time></trkpt><trkpt lon="34.850815" lat="31.386568"><ele>423</ele><time>2017-11-10T07:18:03.000Z</time></trkpt><trkpt lon="34.850818" lat="31.386532"><ele>423</ele><time>2017-11-10T07:18:04.000Z</time></trkpt><trkpt lon="34.850819" lat="31.386499"><ele>423</ele><time>2017-11-10T07:18:05.000Z</time></trkpt><trkpt lon="34.850808" lat="31.386473"><ele>424</ele><time>2017-11-10T07:18:06.000Z</time></trkpt><trkpt lon="34.850789" lat="31.386452"><ele>424</ele><time>2017-11-10T07:18:07.000Z</time></trkpt><trkpt lon="34.850761" lat="31.386439"><ele>424</ele><time>2017-11-10T07:18:08.000Z</time></trkpt><trkpt lon="34.850733" lat="31.386437"><ele>424</ele><time>2017-11-10T07:18:09.000Z</time></trkpt><trkpt lon="34.850699" lat="31.386435"><ele>424</ele><time>2017-11-10T07:18:10.000Z</time></trkpt><trkpt lon="34.850658" lat="31.386425"><ele>424</ele><time>2017-11-10T07:18:11.000Z</time></trkpt><trkpt lon="34.850624" lat="31.386412"><ele>423</ele><time>2017-11-10T07:18:12.000Z</time></trkpt><trkpt lon="34.850603" lat="31.38639"><ele>422</ele><time>2017-11-10T07:18:13.000Z</time></trkpt><trkpt lon="34.850595" lat="31.386362"><ele>422</ele><time>2017-11-10T07:18:14.000Z</time></trkpt><trkpt lon="34.850598" lat="31.386334"><ele>422</ele><time>2017-11-10T07:18:15.000Z</time></trkpt><trkpt lon="34.850618" lat="31.386307"><ele>422</ele><time>2017-11-10T07:18:16.000Z</time></trkpt><trkpt lon="34.850646" lat="31.386279"><ele>423</ele><time>2017-11-10T07:18:17.000Z</time></trkpt><trkpt lon="34.850676" lat="31.386259"><ele>423</ele><time>2017-11-10T07:18:18.000Z</time></trkpt><trkpt lon="34.850712" lat="31.386247"><ele>423</ele><time>2017-11-10T07:18:19.000Z</time></trkpt><trkpt lon="34.850746" lat="31.38623"><ele>423</ele><time>2017-11-10T07:18:20.000Z</time></trkpt><trkpt lon="34.850772" lat="31.386217"><ele>424</ele><time>2017-11-10T07:18:21.000Z</time></trkpt><trkpt lon="34.850799" lat="31.386198"><ele>424</ele><time>2017-11-10T07:18:22.000Z</time></trkpt><trkpt lon="34.85083" lat="31.386175"><ele>424</ele><time>2017-11-10T07:18:23.000Z</time></trkpt><trkpt lon="34.850866" lat="31.386151"><ele>424</ele><time>2017-11-10T07:18:24.000Z</time></trkpt><trkpt lon="34.850901" lat="31.386134"><ele>424</ele><time>2017-11-10T07:18:25.000Z</time></trkpt><trkpt lon="34.850935" lat="31.386121"><ele>425</ele><time>2017-11-10T07:18:26.000Z</time></trkpt><trkpt lon="34.850964" lat="31.386109"><ele>425</ele><time>2017-11-10T07:18:27.000Z</time></trkpt><trkpt lon="34.850984" lat="31.386094"><ele>425</ele><time>2017-11-10T07:18:28.000Z</time></trkpt><trkpt lon="34.851001" lat="31.386074"><ele>425</ele><time>2017-11-10T07:18:29.000Z</time></trkpt><trkpt lon="34.851022" lat="31.38605"><ele>425</ele><time>2017-11-10T07:18:30.000Z</time></trkpt><trkpt lon="34.851041" lat="31.386025"><ele>425</ele><time>2017-11-10T07:18:31.000Z</time></trkpt><trkpt lon="34.851056" lat="31.385995"><ele>425</ele><time>2017-11-10T07:18:32.000Z</time></trkpt><trkpt lon="34.851061" lat="31.385953"><ele>425</ele><time>2017-11-10T07:18:33.000Z</time></trkpt><trkpt lon="34.851058" lat="31.38591"><ele>425</ele><time>2017-11-10T07:18:34.000Z</time></trkpt><trkpt lon="34.851049" lat="31.38587"><ele>425</ele><time>2017-11-10T07:18:35.000Z</time></trkpt><trkpt lon="34.851035" lat="31.385832"><ele>425</ele><time>2017-11-10T07:18:36.000Z</time></trkpt><trkpt lon="34.851018" lat="31.385796"><ele>425</ele><time>2017-11-10T07:18:37.000Z</time></trkpt><trkpt lon="34.850996" lat="31.385759"><ele>425</ele><time>2017-11-10T07:18:38.000Z</time></trkpt><trkpt lon="34.850975" lat="31.385724"><ele>425</ele><time>2017-11-10T07:18:39.000Z</time></trkpt><trkpt lon="34.850963" lat="31.385684"><ele>425</ele><time>2017-11-10T07:18:40.000Z</time></trkpt><trkpt lon="34.850959" lat="31.385636"><ele>425</ele><time>2017-11-10T07:18:41.000Z</time></trkpt><trkpt lon="34.850961" lat="31.385595"><ele>424</ele><time>2017-11-10T07:18:42.000Z</time></trkpt><trkpt lon="34.850975" lat="31.385562"><ele>424</ele><time>2017-11-10T07:18:43.000Z</time></trkpt><trkpt lon="34.85099" lat="31.385533"><ele>424</ele><time>2017-11-10T07:18:44.000Z</time></trkpt><trkpt lon="34.851006" lat="31.385507"><ele>425</ele><time>2017-11-10T07:18:45.000Z</time></trkpt><trkpt lon="34.851023" lat="31.385482"><ele>425</ele><time>2017-11-10T07:18:46.000Z</time></trkpt><trkpt lon="34.851042" lat="31.385454"><ele>425</ele><time>2017-11-10T07:18:47.000Z</time></trkpt><trkpt lon="34.851056" lat="31.385428"><ele>425</ele><time>2017-11-10T07:18:48.000Z</time></trkpt><trkpt lon="34.851076" lat="31.385397"><ele>425</ele><time>2017-11-10T07:18:49.000Z</time></trkpt><trkpt lon="34.851101" lat="31.385366"><ele>426</ele><time>2017-11-10T07:18:50.000Z</time></trkpt><trkpt lon="34.851128" lat="31.385334"><ele>426</ele><time>2017-11-10T07:18:51.000Z</time></trkpt><trkpt lon="34.851151" lat="31.385302"><ele>426</ele><time>2017-11-10T07:18:52.000Z</time></trkpt><trkpt lon="34.851177" lat="31.385269"><ele>426</ele><time>2017-11-10T07:18:53.000Z</time></trkpt><trkpt lon="34.8512" lat="31.385238"><ele>427</ele><time>2017-11-10T07:18:54.000Z</time></trkpt><trkpt lon="34.851224" lat="31.38521"><ele>427</ele><time>2017-11-10T07:18:55.000Z</time></trkpt><trkpt lon="34.851246" lat="31.385184"><ele>427</ele><time>2017-11-10T07:18:56.000Z</time></trkpt><trkpt lon="34.851268" lat="31.385159"><ele>427</ele><time>2017-11-10T07:18:57.000Z</time></trkpt><trkpt lon="34.851292" lat="31.385136"><ele>427</ele><time>2017-11-10T07:18:58.000Z</time></trkpt><trkpt lon="34.851316" lat="31.385116"><ele>427</ele><time>2017-11-10T07:18:59.000Z</time></trkpt><trkpt lon="34.851341" lat="31.385097"><ele>427</ele><time>2017-11-10T07:19:00.000Z</time></trkpt><trkpt lon="34.851367" lat="31.385077"><ele>427</ele><time>2017-11-10T07:19:01.000Z</time></trkpt><trkpt lon="34.851389" lat="31.385053"><ele>427</ele><time>2017-11-10T07:19:02.000Z</time></trkpt><trkpt lon="34.851409" lat="31.385026"><ele>427</ele><time>2017-11-10T07:19:03.000Z</time></trkpt><trkpt lon="34.851424" lat="31.384992"><ele>427</ele><time>2017-11-10T07:19:04.000Z</time></trkpt><trkpt lon="34.851425" lat="31.384951"><ele>427</ele><time>2017-11-10T07:19:05.000Z</time></trkpt><trkpt lon="34.851398" lat="31.38491"><ele>427</ele><time>2017-11-10T07:19:06.000Z</time></trkpt><trkpt lon="34.851356" lat="31.384879"><ele>427</ele><time>2017-11-10T07:19:07.000Z</time></trkpt><trkpt lon="34.85131" lat="31.384866"><ele>426</ele><time>2017-11-10T07:19:08.000Z</time></trkpt><trkpt lon="34.851259" lat="31.384847"><ele>426</ele><time>2017-11-10T07:19:09.000Z</time></trkpt><trkpt lon="34.851204" lat="31.384832"><ele>425</ele><time>2017-11-10T07:19:10.000Z</time></trkpt><trkpt lon="34.851153" lat="31.384826"><ele>425</ele><time>2017-11-10T07:19:11.000Z</time></trkpt><trkpt lon="34.851108" lat="31.384827"><ele>425</ele><time>2017-11-10T07:19:12.000Z</time></trkpt><trkpt lon="34.851067" lat="31.38484"><ele>425</ele><time>2017-11-10T07:19:13.000Z</time></trkpt><trkpt lon="34.851025" lat="31.384869"><ele>425</ele><time>2017-11-10T07:19:14.000Z</time></trkpt><trkpt lon="34.850979" lat="31.384901"><ele>424</ele><time>2017-11-10T07:19:15.000Z</time></trkpt><trkpt lon="34.850927" lat="31.384931"><ele>423</ele><time>2017-11-10T07:19:16.000Z</time></trkpt><trkpt lon="34.850874" lat="31.384955"><ele>422</ele><time>2017-11-10T07:19:17.000Z</time></trkpt><trkpt lon="34.850821" lat="31.384981"><ele>422</ele><time>2017-11-10T07:19:18.000Z</time></trkpt><trkpt lon="34.850768" lat="31.385002"><ele>422</ele><time>2017-11-10T07:19:19.000Z</time></trkpt><trkpt lon="34.850715" lat="31.385022"><ele>422</ele><time>2017-11-10T07:19:20.000Z</time></trkpt><trkpt lon="34.850664" lat="31.385036"><ele>422</ele><time>2017-11-10T07:19:21.000Z</time></trkpt><trkpt lon="34.850612" lat="31.385044"><ele>423</ele><time>2017-11-10T07:19:22.000Z</time></trkpt><trkpt lon="34.850563" lat="31.385048"><ele>423</ele><time>2017-11-10T07:19:23.000Z</time></trkpt><trkpt lon="34.850517" lat="31.38505"><ele>423</ele><time>2017-11-10T07:19:24.000Z</time></trkpt><trkpt lon="34.850475" lat="31.385052"><ele>423</ele><time>2017-11-10T07:19:25.000Z</time></trkpt><trkpt lon="34.850438" lat="31.385052"><ele>423</ele><time>2017-11-10T07:19:26.000Z</time></trkpt><trkpt lon="34.850404" lat="31.385052"><ele>423</ele><time>2017-11-10T07:19:27.000Z</time></trkpt><trkpt lon="34.850367" lat="31.385055"><ele>423</ele><time>2017-11-10T07:19:28.000Z</time></trkpt><trkpt lon="34.85033" lat="31.385064"><ele>423</ele><time>2017-11-10T07:19:29.000Z</time></trkpt><trkpt lon="34.850283" lat="31.385076"><ele>423</ele><time>2017-11-10T07:19:30.000Z</time></trkpt><trkpt lon="34.850229" lat="31.385091"><ele>422</ele><time>2017-11-10T07:19:31.000Z</time></trkpt><trkpt lon="34.850174" lat="31.3851"><ele>422</ele><time>2017-11-10T07:19:32.000Z</time></trkpt><trkpt lon="34.850116" lat="31.385098"><ele>422</ele><time>2017-11-10T07:19:33.000Z</time></trkpt><trkpt lon="34.850056" lat="31.38509"><ele>421</ele><time>2017-11-10T07:19:34.000Z</time></trkpt><trkpt lon="34.849997" lat="31.385083"><ele>421</ele><time>2017-11-10T07:19:35.000Z</time></trkpt><trkpt lon="34.849939" lat="31.385081"><ele>421</ele><time>2017-11-10T07:19:36.000Z</time></trkpt><trkpt lon="34.849882" lat="31.38511"><ele>421</ele><time>2017-11-10T07:19:37.000Z</time></trkpt><trkpt lon="34.849826" lat="31.385153"><ele>421</ele><time>2017-11-10T07:19:38.000Z</time></trkpt><trkpt lon="34.84977" lat="31.385201"><ele>420</ele><time>2017-11-10T07:19:39.000Z</time></trkpt><trkpt lon="34.849718" lat="31.385246"><ele>420</ele><time>2017-11-10T07:19:40.000Z</time></trkpt><trkpt lon="34.849673" lat="31.385287"><ele>420</ele><time>2017-11-10T07:19:41.000Z</time></trkpt><trkpt lon="34.849628" lat="31.385328"><ele>420</ele><time>2017-11-10T07:19:42.000Z</time></trkpt><trkpt lon="34.849579" lat="31.385362"><ele>420</ele><time>2017-11-10T07:19:43.000Z</time></trkpt><trkpt lon="34.849527" lat="31.385382"><ele>420</ele><time>2017-11-10T07:19:44.000Z</time></trkpt><trkpt lon="34.849478" lat="31.385395"><ele>420</ele><time>2017-11-10T07:19:45.000Z</time></trkpt><trkpt lon="34.849435" lat="31.385411"><ele>420</ele><time>2017-11-10T07:19:46.000Z</time></trkpt><trkpt lon="34.849395" lat="31.385428"><ele>420</ele><time>2017-11-10T07:19:47.000Z</time></trkpt><trkpt lon="34.849356" lat="31.385447"><ele>421</ele><time>2017-11-10T07:19:48.000Z</time></trkpt><trkpt lon="34.849314" lat="31.385466"><ele>421</ele><time>2017-11-10T07:19:49.000Z</time></trkpt><trkpt lon="34.849271" lat="31.385483"><ele>421</ele><time>2017-11-10T07:19:50.000Z</time></trkpt><trkpt lon="34.849227" lat="31.385496"><ele>421</ele><time>2017-11-10T07:19:51.000Z</time></trkpt><trkpt lon="34.849185" lat="31.385505"><ele>421</ele><time>2017-11-10T07:19:52.000Z</time></trkpt><trkpt lon="34.849141" lat="31.385517"><ele>421</ele><time>2017-11-10T07:19:53.000Z</time></trkpt><trkpt lon="34.849096" lat="31.385534"><ele>421</ele><time>2017-11-10T07:19:54.000Z</time></trkpt><trkpt lon="34.84905" lat="31.385555"><ele>421</ele><time>2017-11-10T07:19:55.000Z</time></trkpt><trkpt lon="34.849005" lat="31.385577"><ele>421</ele><time>2017-11-10T07:19:56.000Z</time></trkpt><trkpt lon="34.848956" lat="31.385594"><ele>420</ele><time>2017-11-10T07:19:57.000Z</time></trkpt><trkpt lon="34.848901" lat="31.385608"><ele>420</ele><time>2017-11-10T07:19:58.000Z</time></trkpt><trkpt lon="34.848851" lat="31.385627"><ele>420</ele><time>2017-11-10T07:19:59.000Z</time></trkpt><trkpt lon="34.848803" lat="31.385652"><ele>420</ele><time>2017-11-10T07:20:00.000Z</time></trkpt><trkpt lon="34.848751" lat="31.385678"><ele>419</ele><time>2017-11-10T07:20:01.000Z</time></trkpt><trkpt lon="34.848695" lat="31.385695"><ele>419</ele><time>2017-11-10T07:20:02.000Z</time></trkpt><trkpt lon="34.848638" lat="31.38571"><ele>419</ele><time>2017-11-10T07:20:03.000Z</time></trkpt><trkpt lon="34.848588" lat="31.385725"><ele>419</ele><time>2017-11-10T07:20:04.000Z</time></trkpt><trkpt lon="34.848537" lat="31.385749"><ele>418</ele><time>2017-11-10T07:20:05.000Z</time></trkpt><trkpt lon="34.848479" lat="31.385768"><ele>417</ele><time>2017-11-10T07:20:06.000Z</time></trkpt><trkpt lon="34.848413" lat="31.385773"><ele>416</ele><time>2017-11-10T07:20:07.000Z</time></trkpt><trkpt lon="34.848343" lat="31.385775"><ele>415</ele><time>2017-11-10T07:20:08.000Z</time></trkpt><trkpt lon="34.848273" lat="31.385775"><ele>415</ele><time>2017-11-10T07:20:09.000Z</time></trkpt><trkpt lon="34.848196" lat="31.385782"><ele>415</ele><time>2017-11-10T07:20:10.000Z</time></trkpt><trkpt lon="34.84812" lat="31.385806"><ele>414</ele><time>2017-11-10T07:20:11.000Z</time></trkpt><trkpt lon="34.848058" lat="31.385859"><ele>413</ele><time>2017-11-10T07:20:12.000Z</time></trkpt><trkpt lon="34.848016" lat="31.385928"><ele>412</ele><time>2017-11-10T07:20:13.000Z</time></trkpt><trkpt lon="34.847986" lat="31.385995"><ele>412</ele><time>2017-11-10T07:20:14.000Z</time></trkpt><trkpt lon="34.847959" lat="31.386053"><ele>413</ele><time>2017-11-10T07:20:15.000Z</time></trkpt><trkpt lon="34.84794" lat="31.386097"><ele>413</ele><time>2017-11-10T07:20:16.000Z</time></trkpt><trkpt lon="34.847922" lat="31.386143"><ele>413</ele><time>2017-11-10T07:20:17.000Z</time></trkpt><trkpt lon="34.847908" lat="31.386191"><ele>412</ele><time>2017-11-10T07:20:18.000Z</time></trkpt><trkpt lon="34.847897" lat="31.386239"><ele>412</ele><time>2017-11-10T07:20:19.000Z</time></trkpt><trkpt lon="34.847885" lat="31.38629"><ele>411</ele><time>2017-11-10T07:20:20.000Z</time></trkpt><trkpt lon="34.847865" lat="31.386347"><ele>411</ele><time>2017-11-10T07:20:21.000Z</time></trkpt><trkpt lon="34.847839" lat="31.386401"><ele>411</ele><time>2017-11-10T07:20:22.000Z</time></trkpt><trkpt lon="34.847806" lat="31.386451"><ele>410</ele><time>2017-11-10T07:20:23.000Z</time></trkpt><trkpt lon="34.847766" lat="31.386502"><ele>409</ele><time>2017-11-10T07:20:24.000Z</time></trkpt><trkpt lon="34.847708" lat="31.386546"><ele>409</ele><time>2017-11-10T07:20:25.000Z</time></trkpt><trkpt lon="34.847646" lat="31.386575"><ele>409</ele><time>2017-11-10T07:20:26.000Z</time></trkpt><trkpt lon="34.847577" lat="31.386595"><ele>409</ele><time>2017-11-10T07:20:27.000Z</time></trkpt><trkpt lon="34.847512" lat="31.386608"><ele>409</ele><time>2017-11-10T07:20:28.000Z</time></trkpt><trkpt lon="34.847452" lat="31.386609"><ele>409</ele><time>2017-11-10T07:20:29.000Z</time></trkpt><trkpt lon="34.847394" lat="31.386607"><ele>409</ele><time>2017-11-10T07:20:30.000Z</time></trkpt><trkpt lon="34.847345" lat="31.386602"><ele>409</ele><time>2017-11-10T07:20:31.000Z</time></trkpt><trkpt lon="34.847306" lat="31.386602"><ele>409</ele><time>2017-11-10T07:20:32.000Z</time></trkpt><trkpt lon="34.847265" lat="31.38661"><ele>409</ele><time>2017-11-10T07:20:33.000Z</time></trkpt><trkpt lon="34.847218" lat="31.386623"><ele>409</ele><time>2017-11-10T07:20:34.000Z</time></trkpt><trkpt lon="34.847163" lat="31.386632"><ele>409</ele><time>2017-11-10T07:20:35.000Z</time></trkpt><trkpt lon="34.847105" lat="31.386636"><ele>409</ele><time>2017-11-10T07:20:36.000Z</time></trkpt><trkpt lon="34.847051" lat="31.386638"><ele>410</ele><time>2017-11-10T07:20:37.000Z</time></trkpt><trkpt lon="34.847004" lat="31.38664"><ele>410</ele><time>2017-11-10T07:20:38.000Z</time></trkpt><trkpt lon="34.846961" lat="31.386646"><ele>410</ele><time>2017-11-10T07:20:39.000Z</time></trkpt><trkpt lon="34.846922" lat="31.386659"><ele>410</ele><time>2017-11-10T07:20:40.000Z</time></trkpt><trkpt lon="34.846883" lat="31.386668"><ele>410</ele><time>2017-11-10T07:20:41.000Z</time></trkpt><trkpt lon="34.846839" lat="31.386667"><ele>410</ele><time>2017-11-10T07:20:42.000Z</time></trkpt><trkpt lon="34.846796" lat="31.386664"><ele>410</ele><time>2017-11-10T07:20:43.000Z</time></trkpt><trkpt lon="34.846751" lat="31.386664"><ele>410</ele><time>2017-11-10T07:20:44.000Z</time></trkpt><trkpt lon="34.846701" lat="31.386668"><ele>410</ele><time>2017-11-10T07:20:45.000Z</time></trkpt><trkpt lon="34.846652" lat="31.386668"><ele>410</ele><time>2017-11-10T07:20:46.000Z</time></trkpt><trkpt lon="34.846608" lat="31.386671"><ele>410</ele><time>2017-11-10T07:20:47.000Z</time></trkpt><trkpt lon="34.846569" lat="31.386679"><ele>410</ele><time>2017-11-10T07:20:48.000Z</time></trkpt><trkpt lon="34.846529" lat="31.386697"><ele>410</ele><time>2017-11-10T07:20:49.000Z</time></trkpt><trkpt lon="34.8465" lat="31.386713"><ele>410</ele><time>2017-11-10T07:20:50.000Z</time></trkpt><trkpt lon="34.8465" lat="31.386713"><ele>410</ele><time>2017-11-10T07:20:51.000Z</time></trkpt><trkpt lon="34.846477" lat="31.386722"><ele>410</ele><time>2017-11-10T07:20:52.000Z</time></trkpt><trkpt lon="34.846477" lat="31.386722"><ele>410</ele><time>2017-11-10T07:20:53.000Z</time></trkpt><trkpt lon="34.846477" lat="31.386722"><ele>410</ele><time>2017-11-10T07:20:54.000Z</time></trkpt><trkpt lon="34.846477" lat="31.386722"><ele>410</ele><time>2017-11-10T07:20:55.000Z</time></trkpt><trkpt lon="34.846477" lat="31.386722"><ele>410</ele><time>2017-11-10T07:20:56.000Z</time></trkpt><trkpt lon="34.846477" lat="31.386722"><ele>410</ele><time>2017-11-10T07:20:57.000Z</time></trkpt><trkpt lon="34.846477" lat="31.386722"><ele>410</ele><time>2017-11-10T07:20:58.000Z</time></trkpt><trkpt lon="34.846477" lat="31.386722"><ele>410</ele><time>2017-11-10T07:20:59.000Z</time></trkpt><trkpt lon="34.846477" lat="31.386722"><ele>410</ele><time>2017-11-10T07:21:00.000Z</time></trkpt><trkpt lon="34.846477" lat="31.386722"><ele>410</ele><time>2017-11-10T07:21:01.000Z</time></trkpt><trkpt lon="34.846477" lat="31.386722"><ele>410</ele><time>2017-11-10T07:21:02.000Z</time></trkpt><trkpt lon="34.846477" lat="31.386722"><ele>410</ele><time>2017-11-10T07:21:03.000Z</time></trkpt><trkpt lon="34.846477" lat="31.386722"><ele>410</ele><time>2017-11-10T07:21:04.000Z</time></trkpt><trkpt lon="34.846477" lat="31.386722"><ele>410</ele><time>2017-11-10T07:21:05.000Z</time></trkpt><trkpt lon="34.846477" lat="31.386722"><ele>410</ele><time>2017-11-10T07:21:06.000Z</time></trkpt><trkpt lon="34.846477" lat="31.386722"><ele>410</ele><time>2017-11-10T07:21:07.000Z</time></trkpt><trkpt lon="34.846477" lat="31.386722"><ele>410</ele><time>2017-11-10T07:21:08.000Z</time></trkpt><trkpt lon="34.846477" lat="31.386722"><ele>410</ele><time>2017-11-10T07:21:09.000Z</time></trkpt><trkpt lon="34.846477" lat="31.386722"><ele>410</ele><time>2017-11-10T07:21:10.000Z</time></trkpt><trkpt lon="34.846477" lat="31.386722"><ele>409</ele><time>2017-11-10T07:21:11.000Z</time></trkpt><trkpt lon="34.846477" lat="31.386722"><ele>409</ele><time>2017-11-10T07:21:12.000Z</time></trkpt><trkpt lon="34.846477" lat="31.386722"><ele>409</ele><time>2017-11-10T07:21:13.000Z</time></trkpt><trkpt lon="34.846477" lat="31.386722"><ele>409</ele><time>2017-11-10T07:21:14.000Z</time></trkpt><trkpt lon="34.846477" lat="31.386722"><ele>409</ele><time>2017-11-10T07:21:15.000Z</time></trkpt><trkpt lon="34.846477" lat="31.386722"><ele>409</ele><time>2017-11-10T07:21:16.000Z</time></trkpt><trkpt lon="34.846477" lat="31.386722"><ele>409</ele><time>2017-11-10T07:21:17.000Z</time></trkpt><trkpt lon="34.846477" lat="31.386722"><ele>409</ele><time>2017-11-10T07:21:18.000Z</time></trkpt><trkpt lon="34.846477" lat="31.386722"><ele>409</ele><time>2017-11-10T07:21:19.000Z</time></trkpt><trkpt lon="34.846477" lat="31.386722"><ele>409</ele><time>2017-11-10T07:21:20.000Z</time></trkpt><trkpt lon="34.846477" lat="31.386722"><ele>410</ele><time>2017-11-10T07:21:21.000Z</time></trkpt><trkpt lon="34.846477" lat="31.386722"><ele>410</ele><time>2017-11-10T07:21:22.000Z</time></trkpt><trkpt lon="34.846477" lat="31.386722"><ele>410</ele><time>2017-11-10T07:21:23.000Z</time></trkpt><trkpt lon="34.846477" lat="31.386722"><ele>410</ele><time>2017-11-10T07:21:24.000Z</time></trkpt><trkpt lon="34.846447" lat="31.386737"><ele>410</ele><time>2017-11-10T07:21:25.000Z</time></trkpt><trkpt lon="34.846431" lat="31.386758"><ele>409</ele><time>2017-11-10T07:21:26.000Z</time></trkpt><trkpt lon="34.846419" lat="31.386787"><ele>409</ele><time>2017-11-10T07:21:27.000Z</time></trkpt><trkpt lon="34.84642" lat="31.386818"><ele>409</ele><time>2017-11-10T07:21:28.000Z</time></trkpt><trkpt lon="34.84643" lat="31.386847"><ele>409</ele><time>2017-11-10T07:21:29.000Z</time></trkpt><trkpt lon="34.846439" lat="31.386872"><ele>409</ele><time>2017-11-10T07:21:30.000Z</time></trkpt><trkpt lon="34.84645" lat="31.386897"><ele>409</ele><time>2017-11-10T07:21:31.000Z</time></trkpt><trkpt lon="34.846456" lat="31.386927"><ele>409</ele><time>2017-11-10T07:21:32.000Z</time></trkpt><trkpt lon="34.846451" lat="31.386955"><ele>409</ele><time>2017-11-10T07:21:33.000Z</time></trkpt><trkpt lon="34.846443" lat="31.386977"><ele>409</ele><time>2017-11-10T07:21:34.000Z</time></trkpt><trkpt lon="34.846426" lat="31.386995"><ele>409</ele><time>2017-11-10T07:21:35.000Z</time></trkpt><trkpt lon="34.846401" lat="31.387002"><ele>409</ele><time>2017-11-10T07:21:36.000Z</time></trkpt><trkpt lon="34.846366" lat="31.387003"><ele>408</ele><time>2017-11-10T07:21:37.000Z</time></trkpt><trkpt lon="34.846327" lat="31.386998"><ele>408</ele><time>2017-11-10T07:21:38.000Z</time></trkpt><trkpt lon="34.846293" lat="31.386988"><ele>408</ele><time>2017-11-10T07:21:39.000Z</time></trkpt><trkpt lon="34.846258" lat="31.386974"><ele>407</ele><time>2017-11-10T07:21:40.000Z</time></trkpt><trkpt lon="34.846225" lat="31.38695"><ele>407</ele><time>2017-11-10T07:21:41.000Z</time></trkpt><trkpt lon="34.846199" lat="31.386911"><ele>407</ele><time>2017-11-10T07:21:42.000Z</time></trkpt><trkpt lon="34.846194" lat="31.386867"><ele>406</ele><time>2017-11-10T07:21:43.000Z</time></trkpt><trkpt lon="34.846192" lat="31.386825"><ele>405</ele><time>2017-11-10T07:21:44.000Z</time></trkpt><trkpt lon="34.84619" lat="31.386789"><ele>405</ele><time>2017-11-10T07:21:45.000Z</time></trkpt><trkpt lon="34.846188" lat="31.386751"><ele>405</ele><time>2017-11-10T07:21:46.000Z</time></trkpt><trkpt lon="34.846187" lat="31.386706"><ele>405</ele><time>2017-11-10T07:21:47.000Z</time></trkpt><trkpt lon="34.846191" lat="31.386653"><ele>405</ele><time>2017-11-10T07:21:48.000Z</time></trkpt><trkpt lon="34.846208" lat="31.386604"><ele>405</ele><time>2017-11-10T07:21:49.000Z</time></trkpt><trkpt lon="34.846213" lat="31.38656"><ele>405</ele><time>2017-11-10T07:21:50.000Z</time></trkpt><trkpt lon="34.846209" lat="31.386514"><ele>405</ele><time>2017-11-10T07:21:51.000Z</time></trkpt><trkpt lon="34.846194" lat="31.386467"><ele>405</ele><time>2017-11-10T07:21:52.000Z</time></trkpt><trkpt lon="34.846155" lat="31.38643"><ele>405</ele><time>2017-11-10T07:21:53.000Z</time></trkpt><trkpt lon="34.846111" lat="31.386397"><ele>405</ele><time>2017-11-10T07:21:54.000Z</time></trkpt><trkpt lon="34.846062" lat="31.386365"><ele>405</ele><time>2017-11-10T07:21:55.000Z</time></trkpt><trkpt lon="34.846003" lat="31.386334"><ele>405</ele><time>2017-11-10T07:21:56.000Z</time></trkpt><trkpt lon="34.845943" lat="31.386307"><ele>405</ele><time>2017-11-10T07:21:57.000Z</time></trkpt><trkpt lon="34.84588" lat="31.386277"><ele>404</ele><time>2017-11-10T07:21:58.000Z</time></trkpt><trkpt lon="34.845818" lat="31.386247"><ele>403</ele><time>2017-11-10T07:21:59.000Z</time></trkpt><trkpt lon="34.845765" lat="31.386217"><ele>403</ele><time>2017-11-10T07:22:00.000Z</time></trkpt><trkpt lon="34.845705" lat="31.386202"><ele>403</ele><time>2017-11-10T07:22:01.000Z</time></trkpt><trkpt lon="34.845632" lat="31.386188"><ele>403</ele><time>2017-11-10T07:22:02.000Z</time></trkpt><trkpt lon="34.845559" lat="31.386174"><ele>403</ele><time>2017-11-10T07:22:03.000Z</time></trkpt><trkpt lon="34.845492" lat="31.386154"><ele>403</ele><time>2017-11-10T07:22:04.000Z</time></trkpt><trkpt lon="34.845417" lat="31.386132"><ele>403</ele><time>2017-11-10T07:22:05.000Z</time></trkpt><trkpt lon="34.845353" lat="31.386116"><ele>403</ele><time>2017-11-10T07:22:06.000Z</time></trkpt><trkpt lon="34.84529" lat="31.386105"><ele>403</ele><time>2017-11-10T07:22:07.000Z</time></trkpt><trkpt lon="34.845233" lat="31.386106"><ele>403</ele><time>2017-11-10T07:22:08.000Z</time></trkpt><trkpt lon="34.845188" lat="31.386121"><ele>403</ele><time>2017-11-10T07:22:09.000Z</time></trkpt><trkpt lon="34.845143" lat="31.386136"><ele>404</ele><time>2017-11-10T07:22:10.000Z</time></trkpt><trkpt lon="34.845093" lat="31.386143"><ele>404</ele><time>2017-11-10T07:22:11.000Z</time></trkpt><trkpt lon="34.845049" lat="31.386145"><ele>404</ele><time>2017-11-10T07:22:12.000Z</time></trkpt><trkpt lon="34.845008" lat="31.38615"><ele>405</ele><time>2017-11-10T07:22:13.000Z</time></trkpt><trkpt lon="34.844967" lat="31.386162"><ele>405</ele><time>2017-11-10T07:22:14.000Z</time></trkpt><trkpt lon="34.844927" lat="31.386174"><ele>405</ele><time>2017-11-10T07:22:15.000Z</time></trkpt><trkpt lon="34.844889" lat="31.386185"><ele>406</ele><time>2017-11-10T07:22:16.000Z</time></trkpt><trkpt lon="34.844842" lat="31.386191"><ele>406</ele><time>2017-11-10T07:22:17.000Z</time></trkpt><trkpt lon="34.84479" lat="31.386197"><ele>406</ele><time>2017-11-10T07:22:18.000Z</time></trkpt><trkpt lon="34.844743" lat="31.386205"><ele>406</ele><time>2017-11-10T07:22:19.000Z</time></trkpt><trkpt lon="34.844694" lat="31.386215"><ele>406</ele><time>2017-11-10T07:22:20.000Z</time></trkpt><trkpt lon="34.84464" lat="31.386226"><ele>406</ele><time>2017-11-10T07:22:21.000Z</time></trkpt><trkpt lon="34.844584" lat="31.386225"><ele>405</ele><time>2017-11-10T07:22:22.000Z</time></trkpt><trkpt lon="34.844531" lat="31.386215"><ele>405</ele><time>2017-11-10T07:22:23.000Z</time></trkpt><trkpt lon="34.844481" lat="31.386208"><ele>405</ele><time>2017-11-10T07:22:24.000Z</time></trkpt><trkpt lon="34.844427" lat="31.386206"><ele>405</ele><time>2017-11-10T07:22:25.000Z</time></trkpt><trkpt lon="34.844371" lat="31.386201"><ele>405</ele><time>2017-11-10T07:22:26.000Z</time></trkpt><trkpt lon="34.844299" lat="31.386191"><ele>405</ele><time>2017-11-10T07:22:27.000Z</time></trkpt><trkpt lon="34.844227" lat="31.386188"><ele>404</ele><time>2017-11-10T07:22:28.000Z</time></trkpt><trkpt lon="34.844153" lat="31.386184"><ele>404</ele><time>2017-11-10T07:22:29.000Z</time></trkpt><trkpt lon="34.844078" lat="31.386178"><ele>404</ele><time>2017-11-10T07:22:30.000Z</time></trkpt><trkpt lon="34.844013" lat="31.386188"><ele>404</ele><time>2017-11-10T07:22:31.000Z</time></trkpt><trkpt lon="34.843953" lat="31.386213"><ele>404</ele><time>2017-11-10T07:22:32.000Z</time></trkpt><trkpt lon="34.843898" lat="31.386247"><ele>403</ele><time>2017-11-10T07:22:33.000Z</time></trkpt><trkpt lon="34.843852" lat="31.386288"><ele>403</ele><time>2017-11-10T07:22:34.000Z</time></trkpt><trkpt lon="34.843815" lat="31.386332"><ele>403</ele><time>2017-11-10T07:22:35.000Z</time></trkpt><trkpt lon="34.843787" lat="31.38638"><ele>403</ele><time>2017-11-10T07:22:36.000Z</time></trkpt><trkpt lon="34.843763" lat="31.386432"><ele>403</ele><time>2017-11-10T07:22:37.000Z</time></trkpt><trkpt lon="34.843753" lat="31.386488"><ele>403</ele><time>2017-11-10T07:22:38.000Z</time></trkpt><trkpt lon="34.843768" lat="31.386541"><ele>403</ele><time>2017-11-10T07:22:39.000Z</time></trkpt><trkpt lon="34.843804" lat="31.386581"><ele>403</ele><time>2017-11-10T07:22:40.000Z</time></trkpt><trkpt lon="34.843842" lat="31.386621"><ele>402</ele><time>2017-11-10T07:22:41.000Z</time></trkpt><trkpt lon="34.843875" lat="31.386673"><ele>401</ele><time>2017-11-10T07:22:42.000Z</time></trkpt><trkpt lon="34.843912" lat="31.386726"><ele>400</ele><time>2017-11-10T07:22:43.000Z</time></trkpt><trkpt lon="34.843951" lat="31.386783"><ele>399</ele><time>2017-11-10T07:22:44.000Z</time></trkpt><trkpt lon="34.843984" lat="31.386838"><ele>399</ele><time>2017-11-10T07:22:45.000Z</time></trkpt><trkpt lon="34.844016" lat="31.386897"><ele>398</ele><time>2017-11-10T07:22:46.000Z</time></trkpt><trkpt lon="34.844041" lat="31.38696"><ele>398</ele><time>2017-11-10T07:22:47.000Z</time></trkpt><trkpt lon="34.844062" lat="31.387021"><ele>398</ele><time>2017-11-10T07:22:48.000Z</time></trkpt><trkpt lon="34.844083" lat="31.387076"><ele>398</ele><time>2017-11-10T07:22:49.000Z</time></trkpt><trkpt lon="34.844114" lat="31.387124"><ele>398</ele><time>2017-11-10T07:22:50.000Z</time></trkpt><trkpt lon="34.844157" lat="31.38716"><ele>397</ele><time>2017-11-10T07:22:51.000Z</time></trkpt><trkpt lon="34.84421" lat="31.387193"><ele>397</ele><time>2017-11-10T07:22:52.000Z</time></trkpt><trkpt lon="34.844266" lat="31.387227"><ele>397</ele><time>2017-11-10T07:22:53.000Z</time></trkpt><trkpt lon="34.844318" lat="31.387266"><ele>397</ele><time>2017-11-10T07:22:54.000Z</time></trkpt><trkpt lon="34.844357" lat="31.38731"><ele>397</ele><time>2017-11-10T07:22:55.000Z</time></trkpt><trkpt lon="34.844383" lat="31.387355"><ele>397</ele><time>2017-11-10T07:22:56.000Z</time></trkpt><trkpt lon="34.844395" lat="31.387398"><ele>396</ele><time>2017-11-10T07:22:57.000Z</time></trkpt><trkpt lon="34.844381" lat="31.387434"><ele>397</ele><time>2017-11-10T07:22:58.000Z</time></trkpt><trkpt lon="34.844348" lat="31.387468"><ele>397</ele><time>2017-11-10T07:22:59.000Z</time></trkpt><trkpt lon="34.844325" lat="31.387508"><ele>397</ele><time>2017-11-10T07:23:00.000Z</time></trkpt><trkpt lon="34.84431" lat="31.387556"><ele>396</ele><time>2017-11-10T07:23:01.000Z</time></trkpt><trkpt lon="34.844306" lat="31.387616"><ele>396</ele><time>2017-11-10T07:23:02.000Z</time></trkpt><trkpt lon="34.844296" lat="31.387681"><ele>395</ele><time>2017-11-10T07:23:03.000Z</time></trkpt><trkpt lon="34.844276" lat="31.387741"><ele>393</ele><time>2017-11-10T07:23:04.000Z</time></trkpt><trkpt lon="34.844237" lat="31.387793"><ele>393</ele><time>2017-11-10T07:23:05.000Z</time></trkpt><trkpt lon="34.844187" lat="31.387834"><ele>391.6</ele><time>2017-11-10T07:23:06.000Z</time></trkpt><trkpt lon="34.844132" lat="31.387866"><ele>391</ele><time>2017-11-10T07:23:07.000Z</time></trkpt><trkpt lon="34.844076" lat="31.387896"><ele>391</ele><time>2017-11-10T07:23:08.000Z</time></trkpt><trkpt lon="34.844015" lat="31.387919"><ele>390</ele><time>2017-11-10T07:23:09.000Z</time></trkpt><trkpt lon="34.843951" lat="31.387929"><ele>390</ele><time>2017-11-10T07:23:10.000Z</time></trkpt><trkpt lon="34.843896" lat="31.387917"><ele>390</ele><time>2017-11-10T07:23:11.000Z</time></trkpt><trkpt lon="34.84386" lat="31.387892"><ele>389</ele><time>2017-11-10T07:23:12.000Z</time></trkpt><trkpt lon="34.843831" lat="31.387861"><ele>389</ele><time>2017-11-10T07:23:13.000Z</time></trkpt><trkpt lon="34.843805" lat="31.387822"><ele>389</ele><time>2017-11-10T07:23:14.000Z</time></trkpt><trkpt lon="34.843783" lat="31.387781"><ele>389</ele><time>2017-11-10T07:23:15.000Z</time></trkpt><trkpt lon="34.843753" lat="31.387734"><ele>389</ele><time>2017-11-10T07:23:16.000Z</time></trkpt><trkpt lon="34.843723" lat="31.387682"><ele>389</ele><time>2017-11-10T07:23:17.000Z</time></trkpt><trkpt lon="34.843705" lat="31.387627"><ele>390</ele><time>2017-11-10T07:23:18.000Z</time></trkpt><trkpt lon="34.843699" lat="31.387572"><ele>391</ele><time>2017-11-10T07:23:19.000Z</time></trkpt><trkpt lon="34.84369" lat="31.387522"><ele>391</ele><time>2017-11-10T07:23:20.000Z</time></trkpt><trkpt lon="34.843679" lat="31.387477"><ele>391</ele><time>2017-11-10T07:23:21.000Z</time></trkpt><trkpt lon="34.843669" lat="31.387434"><ele>391</ele><time>2017-11-10T07:23:22.000Z</time></trkpt><trkpt lon="34.843665" lat="31.387395"><ele>391</ele><time>2017-11-10T07:23:23.000Z</time></trkpt><trkpt lon="34.843664" lat="31.387355"><ele>392</ele><time>2017-11-10T07:23:24.000Z</time></trkpt><trkpt lon="34.843667" lat="31.387318"><ele>392</ele><time>2017-11-10T07:23:25.000Z</time></trkpt><trkpt lon="34.843672" lat="31.387283"><ele>393</ele><time>2017-11-10T07:23:26.000Z</time></trkpt><trkpt lon="34.843675" lat="31.387251"><ele>393</ele><time>2017-11-10T07:23:27.000Z</time></trkpt><trkpt lon="34.843671" lat="31.387221"><ele>394</ele><time>2017-11-10T07:23:28.000Z</time></trkpt><trkpt lon="34.843665" lat="31.387193"><ele>394</ele><time>2017-11-10T07:23:29.000Z</time></trkpt><trkpt lon="34.843658" lat="31.387168"><ele>394</ele><time>2017-11-10T07:23:30.000Z</time></trkpt><trkpt lon="34.843647" lat="31.387141"><ele>394</ele><time>2017-11-10T07:23:31.000Z</time></trkpt><trkpt lon="34.84363" lat="31.387111"><ele>394</ele><time>2017-11-10T07:23:32.000Z</time></trkpt><trkpt lon="34.843611" lat="31.387077"><ele>394</ele><time>2017-11-10T07:23:33.000Z</time></trkpt><trkpt lon="34.843592" lat="31.387044"><ele>394</ele><time>2017-11-10T07:23:34.000Z</time></trkpt><trkpt lon="34.84357" lat="31.387012"><ele>394</ele><time>2017-11-10T07:23:35.000Z</time></trkpt><trkpt lon="34.843549" lat="31.386981"><ele>394</ele><time>2017-11-10T07:23:36.000Z</time></trkpt><trkpt lon="34.84352" lat="31.386948"><ele>394</ele><time>2017-11-10T07:23:37.000Z</time></trkpt><trkpt lon="34.843491" lat="31.386917"><ele>394</ele><time>2017-11-10T07:23:38.000Z</time></trkpt><trkpt lon="34.843458" lat="31.386889"><ele>395</ele><time>2017-11-10T07:23:39.000Z</time></trkpt><trkpt lon="34.843426" lat="31.386863"><ele>395</ele><time>2017-11-10T07:23:40.000Z</time></trkpt><trkpt lon="34.843393" lat="31.386838"><ele>395</ele><time>2017-11-10T07:23:41.000Z</time></trkpt><trkpt lon="34.843359" lat="31.386816"><ele>395</ele><time>2017-11-10T07:23:42.000Z</time></trkpt><trkpt lon="34.843329" lat="31.386796"><ele>395</ele><time>2017-11-10T07:23:43.000Z</time></trkpt><trkpt lon="34.843294" lat="31.386775"><ele>395</ele><time>2017-11-10T07:23:44.000Z</time></trkpt><trkpt lon="34.843262" lat="31.386754"><ele>395</ele><time>2017-11-10T07:23:45.000Z</time></trkpt><trkpt lon="34.843232" lat="31.386726"><ele>395</ele><time>2017-11-10T07:23:46.000Z</time></trkpt><trkpt lon="34.843207" lat="31.386703"><ele>395</ele><time>2017-11-10T07:23:47.000Z</time></trkpt><trkpt lon="34.84318" lat="31.386682"><ele>396</ele><time>2017-11-10T07:23:48.000Z</time></trkpt><trkpt lon="34.843156" lat="31.386663"><ele>396</ele><time>2017-11-10T07:23:49.000Z</time></trkpt><trkpt lon="34.843135" lat="31.386644"><ele>396</ele><time>2017-11-10T07:23:50.000Z</time></trkpt><trkpt lon="34.843113" lat="31.386625"><ele>396</ele><time>2017-11-10T07:23:51.000Z</time></trkpt><trkpt lon="34.843092" lat="31.386606"><ele>397</ele><time>2017-11-10T07:23:52.000Z</time></trkpt><trkpt lon="34.843073" lat="31.386588"><ele>397</ele><time>2017-11-10T07:23:53.000Z</time></trkpt><trkpt lon="34.843058" lat="31.38657"><ele>397</ele><time>2017-11-10T07:23:54.000Z</time></trkpt><trkpt lon="34.843035" lat="31.386554"><ele>397</ele><time>2017-11-10T07:23:55.000Z</time></trkpt><trkpt lon="34.84301" lat="31.386538"><ele>397</ele><time>2017-11-10T07:23:56.000Z</time></trkpt><trkpt lon="34.842983" lat="31.386524"><ele>397</ele><time>2017-11-10T07:23:57.000Z</time></trkpt><trkpt lon="34.842946" lat="31.386508"><ele>397</ele><time>2017-11-10T07:23:58.000Z</time></trkpt><trkpt lon="34.842902" lat="31.386494"><ele>397</ele><time>2017-11-10T07:23:59.000Z</time></trkpt><trkpt lon="34.842855" lat="31.386488"><ele>397</ele><time>2017-11-10T07:24:00.000Z</time></trkpt><trkpt lon="34.84281" lat="31.386484"><ele>397</ele><time>2017-11-10T07:24:01.000Z</time></trkpt><trkpt lon="34.84277" lat="31.386482"><ele>397</ele><time>2017-11-10T07:24:02.000Z</time></trkpt><trkpt lon="34.842732" lat="31.386487"><ele>397</ele><time>2017-11-10T07:24:03.000Z</time></trkpt><trkpt lon="34.842707" lat="31.386506"><ele>397</ele><time>2017-11-10T07:24:04.000Z</time></trkpt><trkpt lon="34.842686" lat="31.386529"><ele>397</ele><time>2017-11-10T07:24:05.000Z</time></trkpt><trkpt lon="34.84267" lat="31.386551"><ele>397</ele><time>2017-11-10T07:24:06.000Z</time></trkpt><trkpt lon="34.842657" lat="31.386567"><ele>397</ele><time>2017-11-10T07:24:07.000Z</time></trkpt><trkpt lon="34.842648" lat="31.386586"><ele>397</ele><time>2017-11-10T07:24:08.000Z</time></trkpt><trkpt lon="34.842642" lat="31.386604"><ele>397</ele><time>2017-11-10T07:24:09.000Z</time></trkpt><trkpt lon="34.842632" lat="31.386624"><ele>397</ele><time>2017-11-10T07:24:10.000Z</time></trkpt><trkpt lon="34.842619" lat="31.38665"><ele>397</ele><time>2017-11-10T07:24:11.000Z</time></trkpt><trkpt lon="34.842607" lat="31.386678"><ele>397</ele><time>2017-11-10T07:24:12.000Z</time></trkpt><trkpt lon="34.842595" lat="31.386708"><ele>397</ele><time>2017-11-10T07:24:13.000Z</time></trkpt><trkpt lon="34.842583" lat="31.38674"><ele>397</ele><time>2017-11-10T07:24:14.000Z</time></trkpt><trkpt lon="34.842571" lat="31.386775"><ele>397</ele><time>2017-11-10T07:24:15.000Z</time></trkpt><trkpt lon="34.842561" lat="31.38681"><ele>397</ele><time>2017-11-10T07:24:16.000Z</time></trkpt><trkpt lon="34.84255" lat="31.386845"><ele>397</ele><time>2017-11-10T07:24:17.000Z</time></trkpt><trkpt lon="34.842539" lat="31.386883"><ele>397</ele><time>2017-11-10T07:24:18.000Z</time></trkpt><trkpt lon="34.842534" lat="31.386922"><ele>397</ele><time>2017-11-10T07:24:19.000Z</time></trkpt><trkpt lon="34.842532" lat="31.386961"><ele>397</ele><time>2017-11-10T07:24:20.000Z</time></trkpt><trkpt lon="34.842519" lat="31.386998"><ele>397</ele><time>2017-11-10T07:24:21.000Z</time></trkpt><trkpt lon="34.842497" lat="31.387031"><ele>397</ele><time>2017-11-10T07:24:22.000Z</time></trkpt><trkpt lon="34.842478" lat="31.387063"><ele>397</ele><time>2017-11-10T07:24:23.000Z</time></trkpt><trkpt lon="34.842457" lat="31.387098"><ele>396</ele><time>2017-11-10T07:24:24.000Z</time></trkpt><trkpt lon="34.842431" lat="31.387137"><ele>396</ele><time>2017-11-10T07:24:25.000Z</time></trkpt><trkpt lon="34.842402" lat="31.387173"><ele>396</ele><time>2017-11-10T07:24:26.000Z</time></trkpt><trkpt lon="34.842365" lat="31.387197"><ele>396</ele><time>2017-11-10T07:24:27.000Z</time></trkpt><trkpt lon="34.842322" lat="31.387208"><ele>396</ele><time>2017-11-10T07:24:28.000Z</time></trkpt><trkpt lon="34.842283" lat="31.387219"><ele>396</ele><time>2017-11-10T07:24:29.000Z</time></trkpt><trkpt lon="34.842257" lat="31.387246"><ele>396</ele><time>2017-11-10T07:24:30.000Z</time></trkpt><trkpt lon="34.842245" lat="31.38728"><ele>396</ele><time>2017-11-10T07:24:31.000Z</time></trkpt><trkpt lon="34.842242" lat="31.387323"><ele>395</ele><time>2017-11-10T07:24:32.000Z</time></trkpt><trkpt lon="34.842239" lat="31.387365"><ele>395</ele><time>2017-11-10T07:24:33.000Z</time></trkpt><trkpt lon="34.84223" lat="31.387407"><ele>394</ele><time>2017-11-10T07:24:34.000Z</time></trkpt><trkpt lon="34.842223" lat="31.387451"><ele>394</ele><time>2017-11-10T07:24:35.000Z</time></trkpt><trkpt lon="34.842225" lat="31.387497"><ele>394</ele><time>2017-11-10T07:24:36.000Z</time></trkpt><trkpt lon="34.842231" lat="31.387545"><ele>393</ele><time>2017-11-10T07:24:37.000Z</time></trkpt><trkpt lon="34.842232" lat="31.387597"><ele>393</ele><time>2017-11-10T07:24:38.000Z</time></trkpt><trkpt lon="34.842216" lat="31.387656"><ele>392</ele><time>2017-11-10T07:24:39.000Z</time></trkpt><trkpt lon="34.842188" lat="31.387705"><ele>392</ele><time>2017-11-10T07:24:40.000Z</time></trkpt><trkpt lon="34.842145" lat="31.387748"><ele>391</ele><time>2017-11-10T07:24:41.000Z</time></trkpt><trkpt lon="34.842091" lat="31.387786"><ele>391</ele><time>2017-11-10T07:24:42.000Z</time></trkpt><trkpt lon="34.84203" lat="31.387813"><ele>391</ele><time>2017-11-10T07:24:43.000Z</time></trkpt><trkpt lon="34.841967" lat="31.387836"><ele>390</ele><time>2017-11-10T07:24:44.000Z</time></trkpt><trkpt lon="34.841915" lat="31.387864"><ele>390</ele><time>2017-11-10T07:24:45.000Z</time></trkpt><trkpt lon="34.841887" lat="31.387906"><ele>390</ele><time>2017-11-10T07:24:46.000Z</time></trkpt><trkpt lon="34.841874" lat="31.38796"><ele>389</ele><time>2017-11-10T07:24:47.000Z</time></trkpt><trkpt lon="34.841881" lat="31.38801"><ele>389</ele><time>2017-11-10T07:24:48.000Z</time></trkpt><trkpt lon="34.841913" lat="31.388053"><ele>388</ele><time>2017-11-10T07:24:49.000Z</time></trkpt><trkpt lon="34.84195" lat="31.388093"><ele>387</ele><time>2017-11-10T07:24:50.000Z</time></trkpt><trkpt lon="34.841979" lat="31.388133"><ele>387</ele><time>2017-11-10T07:24:51.000Z</time></trkpt><trkpt lon="34.841987" lat="31.388181"><ele>386</ele><time>2017-11-10T07:24:52.000Z</time></trkpt><trkpt lon="34.841973" lat="31.388237"><ele>386</ele><time>2017-11-10T07:24:53.000Z</time></trkpt><trkpt lon="34.841942" lat="31.388287"><ele>386</ele><time>2017-11-10T07:24:54.000Z</time></trkpt><trkpt lon="34.84191" lat="31.38834"><ele>385</ele><time>2017-11-10T07:24:55.000Z</time></trkpt><trkpt lon="34.841886" lat="31.388393"><ele>385</ele><time>2017-11-10T07:24:56.000Z</time></trkpt><trkpt lon="34.841862" lat="31.388443"><ele>385</ele><time>2017-11-10T07:24:57.000Z</time></trkpt><trkpt lon="34.841813" lat="31.388482"><ele>384</ele><time>2017-11-10T07:24:58.000Z</time></trkpt><trkpt lon="34.841749" lat="31.388507"><ele>384</ele><time>2017-11-10T07:24:59.000Z</time></trkpt><trkpt lon="34.84169" lat="31.388531"><ele>384</ele><time>2017-11-10T07:25:00.000Z</time></trkpt><trkpt lon="34.841653" lat="31.38856"><ele>384</ele><time>2017-11-10T07:25:01.000Z</time></trkpt><trkpt lon="34.841652" lat="31.388602"><ele>383</ele><time>2017-11-10T07:25:02.000Z</time></trkpt><trkpt lon="34.841674" lat="31.38864"><ele>382</ele><time>2017-11-10T07:25:03.000Z</time></trkpt><trkpt lon="34.84172" lat="31.388673"><ele>382</ele><time>2017-11-10T07:25:04.000Z</time></trkpt><trkpt lon="34.841764" lat="31.388703"><ele>381</ele><time>2017-11-10T07:25:05.000Z</time></trkpt><trkpt lon="34.841812" lat="31.388732"><ele>381</ele><time>2017-11-10T07:25:06.000Z</time></trkpt><trkpt lon="34.841856" lat="31.388767"><ele>380</ele><time>2017-11-10T07:25:07.000Z</time></trkpt><trkpt lon="34.841912" lat="31.388808"><ele>380</ele><time>2017-11-10T07:25:08.000Z</time></trkpt><trkpt lon="34.841972" lat="31.388839"><ele>379</ele><time>2017-11-10T07:25:09.000Z</time></trkpt><trkpt lon="34.842034" lat="31.38886"><ele>379</ele><time>2017-11-10T07:25:10.000Z</time></trkpt><trkpt lon="34.842102" lat="31.388891"><ele>379</ele><time>2017-11-10T07:25:11.000Z</time></trkpt><trkpt lon="34.842163" lat="31.388928"><ele>378</ele><time>2017-11-10T07:25:12.000Z</time></trkpt><trkpt lon="34.842204" lat="31.388975"><ele>377</ele><time>2017-11-10T07:25:13.000Z</time></trkpt><trkpt lon="34.842222" lat="31.389034"><ele>376</ele><time>2017-11-10T07:25:14.000Z</time></trkpt><trkpt lon="34.842228" lat="31.389086"><ele>375</ele><time>2017-11-10T07:25:15.000Z</time></trkpt><trkpt lon="34.842208" lat="31.389135"><ele>374</ele><time>2017-11-10T07:25:16.000Z</time></trkpt><trkpt lon="34.84218" lat="31.389186"><ele>374</ele><time>2017-11-10T07:25:17.000Z</time></trkpt><trkpt lon="34.842162" lat="31.389243"><ele>374</ele><time>2017-11-10T07:25:18.000Z</time></trkpt><trkpt lon="34.842147" lat="31.3893"><ele>374</ele><time>2017-11-10T07:25:19.000Z</time></trkpt><trkpt lon="34.842124" lat="31.389355"><ele>374</ele><time>2017-11-10T07:25:20.000Z</time></trkpt><trkpt lon="34.84208" lat="31.3894"><ele>374</ele><time>2017-11-10T07:25:21.000Z</time></trkpt><trkpt lon="34.842018" lat="31.389431"><ele>374</ele><time>2017-11-10T07:25:22.000Z</time></trkpt><trkpt lon="34.841949" lat="31.389449"><ele>374</ele><time>2017-11-10T07:25:23.000Z</time></trkpt><trkpt lon="34.841886" lat="31.389467"><ele>374</ele><time>2017-11-10T07:25:24.000Z</time></trkpt><trkpt lon="34.841836" lat="31.389501"><ele>373</ele><time>2017-11-10T07:25:25.000Z</time></trkpt><trkpt lon="34.841782" lat="31.38954"><ele>373</ele><time>2017-11-10T07:25:26.000Z</time></trkpt><trkpt lon="34.84171" lat="31.38957"><ele>372</ele><time>2017-11-10T07:25:27.000Z</time></trkpt><trkpt lon="34.841628" lat="31.389591"><ele>371</ele><time>2017-11-10T07:25:28.000Z</time></trkpt><trkpt lon="34.84155" lat="31.389613"><ele>370</ele><time>2017-11-10T07:25:29.000Z</time></trkpt><trkpt lon="34.841471" lat="31.389645"><ele>370</ele><time>2017-11-10T07:25:30.000Z</time></trkpt><trkpt lon="34.841394" lat="31.389675"><ele>369</ele><time>2017-11-10T07:25:31.000Z</time></trkpt><trkpt lon="34.841326" lat="31.389708"><ele>369</ele><time>2017-11-10T07:25:32.000Z</time></trkpt><trkpt lon="34.841253" lat="31.389731"><ele>369</ele><time>2017-11-10T07:25:33.000Z</time></trkpt><trkpt lon="34.84118" lat="31.389729"><ele>369</ele><time>2017-11-10T07:25:34.000Z</time></trkpt><trkpt lon="34.841119" lat="31.389707"><ele>369</ele><time>2017-11-10T07:25:35.000Z</time></trkpt><trkpt lon="34.841076" lat="31.389669"><ele>369</ele><time>2017-11-10T07:25:36.000Z</time></trkpt><trkpt lon="34.841042" lat="31.389625"><ele>369</ele><time>2017-11-10T07:25:37.000Z</time></trkpt><trkpt lon="34.84102" lat="31.389583"><ele>369</ele><time>2017-11-10T07:25:38.000Z</time></trkpt><trkpt lon="34.841012" lat="31.389538"><ele>369</ele><time>2017-11-10T07:25:39.000Z</time></trkpt><trkpt lon="34.841002" lat="31.389495"><ele>369</ele><time>2017-11-10T07:25:40.000Z</time></trkpt><trkpt lon="34.841" lat="31.389453"><ele>369</ele><time>2017-11-10T07:25:41.000Z</time></trkpt><trkpt lon="34.841002" lat="31.389412"><ele>369</ele><time>2017-11-10T07:25:42.000Z</time></trkpt><trkpt lon="34.84101" lat="31.389375"><ele>369</ele><time>2017-11-10T07:25:43.000Z</time></trkpt><trkpt lon="34.841022" lat="31.38934"><ele>370</ele><time>2017-11-10T07:25:44.000Z</time></trkpt><trkpt lon="34.841028" lat="31.389306"><ele>370</ele><time>2017-11-10T07:25:45.000Z</time></trkpt><trkpt lon="34.841036" lat="31.389271"><ele>370</ele><time>2017-11-10T07:25:46.000Z</time></trkpt><trkpt lon="34.841042" lat="31.389238"><ele>370</ele><time>2017-11-10T07:25:47.000Z</time></trkpt><trkpt lon="34.841052" lat="31.389206"><ele>370</ele><time>2017-11-10T07:25:48.000Z</time></trkpt><trkpt lon="34.84106" lat="31.389176"><ele>371</ele><time>2017-11-10T07:25:49.000Z</time></trkpt><trkpt lon="34.84107" lat="31.38915"><ele>371</ele><time>2017-11-10T07:25:50.000Z</time></trkpt><trkpt lon="34.841078" lat="31.389126"><ele>372</ele><time>2017-11-10T07:25:51.000Z</time></trkpt><trkpt lon="34.841087" lat="31.389105"><ele>372</ele><time>2017-11-10T07:25:52.000Z</time></trkpt><trkpt lon="34.841094" lat="31.389081"><ele>372</ele><time>2017-11-10T07:25:53.000Z</time></trkpt><trkpt lon="34.8411" lat="31.389053"><ele>373</ele><time>2017-11-10T07:25:54.000Z</time></trkpt><trkpt lon="34.8411" lat="31.389022"><ele>373</ele><time>2017-11-10T07:25:55.000Z</time></trkpt><trkpt lon="34.841096" lat="31.388989"><ele>373</ele><time>2017-11-10T07:25:56.000Z</time></trkpt><trkpt lon="34.841088" lat="31.388955"><ele>373</ele><time>2017-11-10T07:25:57.000Z</time></trkpt><trkpt lon="34.84108" lat="31.388923"><ele>373</ele><time>2017-11-10T07:25:58.000Z</time></trkpt><trkpt lon="34.841071" lat="31.388892"><ele>373</ele><time>2017-11-10T07:25:59.000Z</time></trkpt><trkpt lon="34.841064" lat="31.388861"><ele>373</ele><time>2017-11-10T07:26:00.000Z</time></trkpt><trkpt lon="34.841055" lat="31.38883"><ele>373</ele><time>2017-11-10T07:26:01.000Z</time></trkpt><trkpt lon="34.841048" lat="31.3888"><ele>373</ele><time>2017-11-10T07:26:02.000Z</time></trkpt><trkpt lon="34.841042" lat="31.38877"><ele>373</ele><time>2017-11-10T07:26:03.000Z</time></trkpt><trkpt lon="34.841038" lat="31.388741"><ele>374</ele><time>2017-11-10T07:26:04.000Z</time></trkpt><trkpt lon="34.841036" lat="31.388712"><ele>375</ele><time>2017-11-10T07:26:05.000Z</time></trkpt><trkpt lon="34.841034" lat="31.388682"><ele>375</ele><time>2017-11-10T07:26:06.000Z</time></trkpt><trkpt lon="34.841036" lat="31.388655"><ele>375</ele><time>2017-11-10T07:26:07.000Z</time></trkpt><trkpt lon="34.84104" lat="31.388632"><ele>375</ele><time>2017-11-10T07:26:08.000Z</time></trkpt><trkpt lon="34.841043" lat="31.388609"><ele>375</ele><time>2017-11-10T07:26:09.000Z</time></trkpt><trkpt lon="34.841046" lat="31.388586"><ele>375</ele><time>2017-11-10T07:26:10.000Z</time></trkpt><trkpt lon="34.841046" lat="31.388562"><ele>375</ele><time>2017-11-10T07:26:11.000Z</time></trkpt><trkpt lon="34.841046" lat="31.388538"><ele>375</ele><time>2017-11-10T07:26:12.000Z</time></trkpt><trkpt lon="34.841047" lat="31.388513"><ele>376</ele><time>2017-11-10T07:26:13.000Z</time></trkpt><trkpt lon="34.841047" lat="31.388489"><ele>376</ele><time>2017-11-10T07:26:14.000Z</time></trkpt><trkpt lon="34.841046" lat="31.388462"><ele>376</ele><time>2017-11-10T07:26:15.000Z</time></trkpt><trkpt lon="34.841046" lat="31.388436"><ele>376</ele><time>2017-11-10T07:26:16.000Z</time></trkpt><trkpt lon="34.841048" lat="31.388408"><ele>375</ele><time>2017-11-10T07:26:17.000Z</time></trkpt><trkpt lon="34.841053" lat="31.38838"><ele>375</ele><time>2017-11-10T07:26:18.000Z</time></trkpt><trkpt lon="34.841059" lat="31.388356"><ele>375</ele><time>2017-11-10T07:26:19.000Z</time></trkpt><trkpt lon="34.841065" lat="31.388329"><ele>375</ele><time>2017-11-10T07:26:20.000Z</time></trkpt><trkpt lon="34.84107" lat="31.388303"><ele>376</ele><time>2017-11-10T07:26:21.000Z</time></trkpt><trkpt lon="34.841076" lat="31.388272"><ele>376</ele><time>2017-11-10T07:26:22.000Z</time></trkpt><trkpt lon="34.841081" lat="31.388241"><ele>376</ele><time>2017-11-10T07:26:23.000Z</time></trkpt><trkpt lon="34.841085" lat="31.388208"><ele>376</ele><time>2017-11-10T07:26:24.000Z</time></trkpt><trkpt lon="34.84109" lat="31.388178"><ele>376</ele><time>2017-11-10T07:26:25.000Z</time></trkpt><trkpt lon="34.841095" lat="31.388149"><ele>377</ele><time>2017-11-10T07:26:26.000Z</time></trkpt><trkpt lon="34.841101" lat="31.38812"><ele>377</ele><time>2017-11-10T07:26:27.000Z</time></trkpt><trkpt lon="34.841107" lat="31.388093"><ele>376</ele><time>2017-11-10T07:26:28.000Z</time></trkpt><trkpt lon="34.841114" lat="31.388065"><ele>376</ele><time>2017-11-10T07:26:29.000Z</time></trkpt><trkpt lon="34.841121" lat="31.388038"><ele>377</ele><time>2017-11-10T07:26:30.000Z</time></trkpt><trkpt lon="34.841125" lat="31.38801"><ele>377</ele><time>2017-11-10T07:26:31.000Z</time></trkpt><trkpt lon="34.841127" lat="31.387976"><ele>377</ele><time>2017-11-10T07:26:32.000Z</time></trkpt><trkpt lon="34.841125" lat="31.387937"><ele>378</ele><time>2017-11-10T07:26:33.000Z</time></trkpt><trkpt lon="34.841119" lat="31.387899"><ele>378</ele><time>2017-11-10T07:26:34.000Z</time></trkpt><trkpt lon="34.84111" lat="31.387862"><ele>378</ele><time>2017-11-10T07:26:35.000Z</time></trkpt><trkpt lon="34.841099" lat="31.387825"><ele>378</ele><time>2017-11-10T07:26:36.000Z</time></trkpt><trkpt lon="34.841094" lat="31.387787"><ele>378</ele><time>2017-11-10T07:26:37.000Z</time></trkpt><trkpt lon="34.841093" lat="31.38775"><ele>378</ele><time>2017-11-10T07:26:38.000Z</time></trkpt><trkpt lon="34.841095" lat="31.387718"><ele>378</ele><time>2017-11-10T07:26:39.000Z</time></trkpt><trkpt lon="34.841096" lat="31.387686"><ele>378</ele><time>2017-11-10T07:26:40.000Z</time></trkpt><trkpt lon="34.8411" lat="31.387654"><ele>378</ele><time>2017-11-10T07:26:41.000Z</time></trkpt><trkpt lon="34.841104" lat="31.387615"><ele>379</ele><time>2017-11-10T07:26:42.000Z</time></trkpt><trkpt lon="34.841113" lat="31.387581"><ele>379</ele><time>2017-11-10T07:26:43.000Z</time></trkpt><trkpt lon="34.841124" lat="31.387554"><ele>380</ele><time>2017-11-10T07:26:44.000Z</time></trkpt><trkpt lon="34.841138" lat="31.387529"><ele>381</ele><time>2017-11-10T07:26:45.000Z</time></trkpt><trkpt lon="34.841153" lat="31.387509"><ele>381</ele><time>2017-11-10T07:26:46.000Z</time></trkpt><trkpt lon="34.841167" lat="31.387489"><ele>381</ele><time>2017-11-10T07:26:47.000Z</time></trkpt><trkpt lon="34.841178" lat="31.387469"><ele>381</ele><time>2017-11-10T07:26:48.000Z</time></trkpt><trkpt lon="34.841192" lat="31.387449"><ele>381</ele><time>2017-11-10T07:26:49.000Z</time></trkpt><trkpt lon="34.841204" lat="31.387428"><ele>381</ele><time>2017-11-10T07:26:50.000Z</time></trkpt><trkpt lon="34.841217" lat="31.387407"><ele>381</ele><time>2017-11-10T07:26:51.000Z</time></trkpt><trkpt lon="34.841233" lat="31.387386"><ele>381</ele><time>2017-11-10T07:26:52.000Z</time></trkpt><trkpt lon="34.841249" lat="31.387368"><ele>381</ele><time>2017-11-10T07:26:53.000Z</time></trkpt><trkpt lon="34.841266" lat="31.387345"><ele>382</ele><time>2017-11-10T07:26:54.000Z</time></trkpt><trkpt lon="34.84128" lat="31.387326"><ele>382</ele><time>2017-11-10T07:26:55.000Z</time></trkpt><trkpt lon="34.84128" lat="31.387326"><ele>382</ele><time>2017-11-10T07:26:56.000Z</time></trkpt><trkpt lon="34.841295" lat="31.387305"><ele>382</ele><time>2017-11-10T07:26:57.000Z</time></trkpt><trkpt lon="34.841295" lat="31.387305"><ele>382</ele><time>2017-11-10T07:26:58.000Z</time></trkpt><trkpt lon="34.841295" lat="31.387305"><ele>382</ele><time>2017-11-10T07:26:59.000Z</time></trkpt><trkpt lon="34.841295" lat="31.387305"><ele>382</ele><time>2017-11-10T07:27:00.000Z</time></trkpt><trkpt lon="34.841295" lat="31.387305"><ele>382</ele><time>2017-11-10T07:27:01.000Z</time></trkpt><trkpt lon="34.841315" lat="31.387292"><ele>382</ele><time>2017-11-10T07:27:02.000Z</time></trkpt><trkpt lon="34.841315" lat="31.387292"><ele>382</ele><time>2017-11-10T07:27:03.000Z</time></trkpt><trkpt lon="34.841327" lat="31.387259"><ele>382</ele><time>2017-11-10T07:27:04.000Z</time></trkpt><trkpt lon="34.841339" lat="31.387234"><ele>382</ele><time>2017-11-10T07:27:05.000Z</time></trkpt><trkpt lon="34.841351" lat="31.387206"><ele>382</ele><time>2017-11-10T07:27:06.000Z</time></trkpt><trkpt lon="34.841365" lat="31.387177"><ele>382</ele><time>2017-11-10T07:27:07.000Z</time></trkpt><trkpt lon="34.841385" lat="31.387151"><ele>382</ele><time>2017-11-10T07:27:08.000Z</time></trkpt><trkpt lon="34.841404" lat="31.387134"><ele>383</ele><time>2017-11-10T07:27:09.000Z</time></trkpt><trkpt lon="34.841422" lat="31.387122"><ele>383</ele><time>2017-11-10T07:27:10.000Z</time></trkpt><trkpt lon="34.841441" lat="31.387111"><ele>384</ele><time>2017-11-10T07:27:11.000Z</time></trkpt><trkpt lon="34.841458" lat="31.3871"><ele>384</ele><time>2017-11-10T07:27:12.000Z</time></trkpt><trkpt lon="34.841472" lat="31.387082"><ele>384</ele><time>2017-11-10T07:27:13.000Z</time></trkpt><trkpt lon="34.841481" lat="31.387062"><ele>384</ele><time>2017-11-10T07:27:14.000Z</time></trkpt><trkpt lon="34.84149" lat="31.387043"><ele>384</ele><time>2017-11-10T07:27:15.000Z</time></trkpt><trkpt lon="34.841503" lat="31.38702"><ele>384</ele><time>2017-11-10T07:27:16.000Z</time></trkpt><trkpt lon="34.841522" lat="31.386995"><ele>384</ele><time>2017-11-10T07:27:17.000Z</time></trkpt><trkpt lon="34.841539" lat="31.386974"><ele>384</ele><time>2017-11-10T07:27:18.000Z</time></trkpt><trkpt lon="34.841553" lat="31.386956"><ele>384</ele><time>2017-11-10T07:27:19.000Z</time></trkpt><trkpt lon="34.841569" lat="31.386937"><ele>384</ele><time>2017-11-10T07:27:20.000Z</time></trkpt><trkpt lon="34.841587" lat="31.386915"><ele>385</ele><time>2017-11-10T07:27:21.000Z</time></trkpt><trkpt lon="34.841595" lat="31.386897"><ele>385</ele><time>2017-11-10T07:27:22.000Z</time></trkpt><trkpt lon="34.841602" lat="31.386871"><ele>384</ele><time>2017-11-10T07:27:23.000Z</time></trkpt><trkpt lon="34.841607" lat="31.386842"><ele>384</ele><time>2017-11-10T07:27:24.000Z</time></trkpt><trkpt lon="34.841614" lat="31.38681"><ele>384</ele><time>2017-11-10T07:27:25.000Z</time></trkpt><trkpt lon="34.841617" lat="31.386778"><ele>384</ele><time>2017-11-10T07:27:26.000Z</time></trkpt><trkpt lon="34.841618" lat="31.386742"><ele>384</ele><time>2017-11-10T07:27:27.000Z</time></trkpt><trkpt lon="34.841617" lat="31.386709"><ele>384</ele><time>2017-11-10T07:27:28.000Z</time></trkpt><trkpt lon="34.841609" lat="31.386678"><ele>384</ele><time>2017-11-10T07:27:29.000Z</time></trkpt><trkpt lon="34.841596" lat="31.386653"><ele>384</ele><time>2017-11-10T07:27:30.000Z</time></trkpt><trkpt lon="34.841581" lat="31.386626"><ele>384</ele><time>2017-11-10T07:27:31.000Z</time></trkpt><trkpt lon="34.84157" lat="31.386597"><ele>385</ele><time>2017-11-10T07:27:32.000Z</time></trkpt><trkpt lon="34.841562" lat="31.38657"><ele>385</ele><time>2017-11-10T07:27:33.000Z</time></trkpt><trkpt lon="34.841555" lat="31.386545"><ele>385</ele><time>2017-11-10T07:27:34.000Z</time></trkpt><trkpt lon="34.841544" lat="31.386519"><ele>385</ele><time>2017-11-10T07:27:35.000Z</time></trkpt><trkpt lon="34.841524" lat="31.386489"><ele>385</ele><time>2017-11-10T07:27:36.000Z</time></trkpt><trkpt lon="34.841507" lat="31.386457"><ele>385</ele><time>2017-11-10T07:27:37.000Z</time></trkpt><trkpt lon="34.84149" lat="31.386419"><ele>385</ele><time>2017-11-10T07:27:38.000Z</time></trkpt><trkpt lon="34.841481" lat="31.386385"><ele>385</ele><time>2017-11-10T07:27:39.000Z</time></trkpt><trkpt lon="34.841468" lat="31.386361"><ele>385</ele><time>2017-11-10T07:27:40.000Z</time></trkpt><trkpt lon="34.841448" lat="31.386342"><ele>385</ele><time>2017-11-10T07:27:41.000Z</time></trkpt><trkpt lon="34.841417" lat="31.386324"><ele>385</ele><time>2017-11-10T07:27:42.000Z</time></trkpt><trkpt lon="34.841382" lat="31.386312"><ele>385</ele><time>2017-11-10T07:27:43.000Z</time></trkpt><trkpt lon="34.841349" lat="31.386305"><ele>385</ele><time>2017-11-10T07:27:44.000Z</time></trkpt><trkpt lon="34.841324" lat="31.386302"><ele>385</ele><time>2017-11-10T07:27:45.000Z</time></trkpt><trkpt lon="34.841324" lat="31.386302"><ele>385</ele><time>2017-11-10T07:27:46.000Z</time></trkpt><trkpt lon="34.841324" lat="31.386302"><ele>385</ele><time>2017-11-10T07:27:47.000Z</time></trkpt><trkpt lon="34.841324" lat="31.386302"><ele>385</ele><time>2017-11-10T07:27:48.000Z</time></trkpt><trkpt lon="34.841324" lat="31.386302"><ele>385</ele><time>2017-11-10T07:27:49.000Z</time></trkpt><trkpt lon="34.841324" lat="31.386302"><ele>385</ele><time>2017-11-10T07:27:50.000Z</time></trkpt><trkpt lon="34.841324" lat="31.386302"><ele>385</ele><time>2017-11-10T07:27:51.000Z</time></trkpt><trkpt lon="34.841324" lat="31.386302"><ele>385</ele><time>2017-11-10T07:27:52.000Z</time></trkpt><trkpt lon="34.841324" lat="31.386302"><ele>385</ele><time>2017-11-10T07:27:53.000Z</time></trkpt><trkpt lon="34.841324" lat="31.386302"><ele>385</ele><time>2017-11-10T07:27:54.000Z</time></trkpt><trkpt lon="34.841324" lat="31.386302"><ele>385</ele><time>2017-11-10T07:27:55.000Z</time></trkpt><trkpt lon="34.841324" lat="31.386302"><ele>385</ele><time>2017-11-10T07:27:56.000Z</time></trkpt><trkpt lon="34.841324" lat="31.386302"><ele>385</ele><time>2017-11-10T07:27:57.000Z</time></trkpt><trkpt lon="34.841324" lat="31.386302"><ele>385</ele><time>2017-11-10T07:27:58.000Z</time></trkpt><trkpt lon="34.841324" lat="31.386302"><ele>385</ele><time>2017-11-10T07:27:59.000Z</time></trkpt><trkpt lon="34.841324" lat="31.386302"><ele>385</ele><time>2017-11-10T07:28:00.000Z</time></trkpt><trkpt lon="34.841324" lat="31.386302"><ele>385</ele><time>2017-11-10T07:28:01.000Z</time></trkpt><trkpt lon="34.841324" lat="31.386302"><ele>385</ele><time>2017-11-10T07:28:02.000Z</time></trkpt><trkpt lon="34.841324" lat="31.386302"><ele>385</ele><time>2017-11-10T07:28:03.000Z</time></trkpt><trkpt lon="34.841324" lat="31.386302"><ele>385</ele><time>2017-11-10T07:28:04.000Z</time></trkpt><trkpt lon="34.841324" lat="31.386302"><ele>385</ele><time>2017-11-10T07:28:05.000Z</time></trkpt><trkpt lon="34.841324" lat="31.386302"><ele>385</ele><time>2017-11-10T07:28:06.000Z</time></trkpt><trkpt lon="34.841324" lat="31.386302"><ele>385</ele><time>2017-11-10T07:28:07.000Z</time></trkpt><trkpt lon="34.841324" lat="31.386302"><ele>385</ele><time>2017-11-10T07:28:08.000Z</time></trkpt><trkpt lon="34.841324" lat="31.386302"><ele>385</ele><time>2017-11-10T07:28:09.000Z</time></trkpt><trkpt lon="34.841324" lat="31.386302"><ele>385</ele><time>2017-11-10T07:28:10.000Z</time></trkpt><trkpt lon="34.841324" lat="31.386302"><ele>385</ele><time>2017-11-10T07:28:11.000Z</time></trkpt><trkpt lon="34.841324" lat="31.386302"><ele>385</ele><time>2017-11-10T07:28:12.000Z</time></trkpt><trkpt lon="34.841324" lat="31.386302"><ele>384</ele><time>2017-11-10T07:28:13.000Z</time></trkpt><trkpt lon="34.841324" lat="31.386302"><ele>384</ele><time>2017-11-10T07:28:14.000Z</time></trkpt><trkpt lon="34.841324" lat="31.386302"><ele>385</ele><time>2017-11-10T07:28:15.000Z</time></trkpt><trkpt lon="34.841324" lat="31.386302"><ele>385</ele><time>2017-11-10T07:28:16.000Z</time></trkpt><trkpt lon="34.841324" lat="31.386302"><ele>385</ele><time>2017-11-10T07:28:17.000Z</time></trkpt><trkpt lon="34.841324" lat="31.386302"><ele>385</ele><time>2017-11-10T07:28:18.000Z</time></trkpt><trkpt lon="34.841324" lat="31.386302"><ele>385</ele><time>2017-11-10T07:28:19.000Z</time></trkpt><trkpt lon="34.841324" lat="31.386302"><ele>385</ele><time>2017-11-10T07:28:20.000Z</time></trkpt><trkpt lon="34.841324" lat="31.386302"><ele>385</ele><time>2017-11-10T07:28:21.000Z</time></trkpt><trkpt lon="34.841324" lat="31.386302"><ele>385</ele><time>2017-11-10T07:28:22.000Z</time></trkpt><trkpt lon="34.841324" lat="31.386302"><ele>385</ele><time>2017-11-10T07:28:23.000Z</time></trkpt><trkpt lon="34.841324" lat="31.386302"><ele>385</ele><time>2017-11-10T07:28:24.000Z</time></trkpt><trkpt lon="34.841324" lat="31.386302"><ele>385</ele><time>2017-11-10T07:28:25.000Z</time></trkpt><trkpt lon="34.841324" lat="31.386302"><ele>385</ele><time>2017-11-10T07:28:26.000Z</time></trkpt><trkpt lon="34.841324" lat="31.386302"><ele>385</ele><time>2017-11-10T07:28:27.000Z</time></trkpt><trkpt lon="34.841324" lat="31.386302"><ele>385</ele><time>2017-11-10T07:28:28.000Z</time></trkpt><trkpt lon="34.841324" lat="31.386302"><ele>385</ele><time>2017-11-10T07:28:29.000Z</time></trkpt><trkpt lon="34.841324" lat="31.386302"><ele>385</ele><time>2017-11-10T07:28:30.000Z</time></trkpt><trkpt lon="34.841324" lat="31.386302"><ele>385</ele><time>2017-11-10T07:28:31.000Z</time></trkpt><trkpt lon="34.841324" lat="31.386302"><ele>385</ele><time>2017-11-10T07:28:32.000Z</time></trkpt><trkpt lon="34.841324" lat="31.386302"><ele>385</ele><time>2017-11-10T07:28:33.000Z</time></trkpt><trkpt lon="34.841324" lat="31.386302"><ele>385</ele><time>2017-11-10T07:28:34.000Z</time></trkpt><trkpt lon="34.841324" lat="31.386302"><ele>385</ele><time>2017-11-10T07:28:35.000Z</time></trkpt><trkpt lon="34.841324" lat="31.386302"><ele>385</ele><time>2017-11-10T07:28:36.000Z</time></trkpt><trkpt lon="34.841324" lat="31.386302"><ele>385</ele><time>2017-11-10T07:28:37.000Z</time></trkpt><trkpt lon="34.841324" lat="31.386302"><ele>385</ele><time>2017-11-10T07:28:38.000Z</time></trkpt><trkpt lon="34.841324" lat="31.386302"><ele>385</ele><time>2017-11-10T07:28:39.000Z</time></trkpt><trkpt lon="34.841324" lat="31.386302"><ele>385</ele><time>2017-11-10T07:28:40.000Z</time></trkpt><trkpt lon="34.841324" lat="31.386302"><ele>385</ele><time>2017-11-10T07:28:41.000Z</time></trkpt><trkpt lon="34.841324" lat="31.386302"><ele>385</ele><time>2017-11-10T07:28:42.000Z</time></trkpt><trkpt lon="34.841324" lat="31.386302"><ele>385</ele><time>2017-11-10T07:28:43.000Z</time></trkpt><trkpt lon="34.841324" lat="31.386302"><ele>385</ele><time>2017-11-10T07:28:44.000Z</time></trkpt><trkpt lon="34.841324" lat="31.386302"><ele>385</ele><time>2017-11-10T07:28:45.000Z</time></trkpt><trkpt lon="34.841324" lat="31.386302"><ele>385</ele><time>2017-11-10T07:28:46.000Z</time></trkpt><trkpt lon="34.841324" lat="31.386302"><ele>385</ele><time>2017-11-10T07:28:47.000Z</time></trkpt><trkpt lon="34.841324" lat="31.386302"><ele>385</ele><time>2017-11-10T07:28:48.000Z</time></trkpt><trkpt lon="34.841324" lat="31.386302"><ele>385</ele><time>2017-11-10T07:28:49.000Z</time></trkpt><trkpt lon="34.841324" lat="31.386302"><ele>385</ele><time>2017-11-10T07:28:50.000Z</time></trkpt><trkpt lon="34.841324" lat="31.386302"><ele>385</ele><time>2017-11-10T07:28:51.000Z</time></trkpt><trkpt lon="34.841324" lat="31.386302"><ele>385</ele><time>2017-11-10T07:28:52.000Z</time></trkpt><trkpt lon="34.841324" lat="31.386302"><ele>385</ele><time>2017-11-10T07:28:53.000Z</time></trkpt><trkpt lon="34.841324" lat="31.386302"><ele>384</ele><time>2017-11-10T07:28:54.000Z</time></trkpt><trkpt lon="34.841324" lat="31.386302"><ele>384</ele><time>2017-11-10T07:28:55.000Z</time></trkpt><trkpt lon="34.841324" lat="31.386302"><ele>385</ele><time>2017-11-10T07:28:56.000Z</time></trkpt><trkpt lon="34.841324" lat="31.386302"><ele>385</ele><time>2017-11-10T07:28:57.000Z</time></trkpt><trkpt lon="34.841324" lat="31.386302"><ele>385</ele><time>2017-11-10T07:28:58.000Z</time></trkpt><trkpt lon="34.841324" lat="31.386302"><ele>385</ele><time>2017-11-10T07:28:59.000Z</time></trkpt><trkpt lon="34.841324" lat="31.386302"><ele>385</ele><time>2017-11-10T07:29:00.000Z</time></trkpt><trkpt lon="34.841324" lat="31.386302"><ele>385</ele><time>2017-11-10T07:29:01.000Z</time></trkpt><trkpt lon="34.841324" lat="31.386302"><ele>385</ele><time>2017-11-10T07:29:02.000Z</time></trkpt><trkpt lon="34.841324" lat="31.386302"><ele>385</ele><time>2017-11-10T07:29:03.000Z</time></trkpt><trkpt lon="34.841324" lat="31.386302"><ele>385</ele><time>2017-11-10T07:29:04.000Z</time></trkpt><trkpt lon="34.841324" lat="31.386302"><ele>385</ele><time>2017-11-10T07:29:05.000Z</time></trkpt><trkpt lon="34.841324" lat="31.386302"><ele>385</ele><time>2017-11-10T07:29:06.000Z</time></trkpt><trkpt lon="34.841324" lat="31.386302"><ele>385</ele><time>2017-11-10T07:29:07.000Z</time></trkpt><trkpt lon="34.841324" lat="31.386302"><ele>385</ele><time>2017-11-10T07:29:08.000Z</time></trkpt><trkpt lon="34.841324" lat="31.386302"><ele>385</ele><time>2017-11-10T07:29:09.000Z</time></trkpt><trkpt lon="34.841324" lat="31.386302"><ele>385</ele><time>2017-11-10T07:29:10.000Z</time></trkpt><trkpt lon="34.841324" lat="31.386302"><ele>385</ele><time>2017-11-10T07:29:11.000Z</time></trkpt><trkpt lon="34.841324" lat="31.386302"><ele>385</ele><time>2017-11-10T07:29:12.000Z</time></trkpt><trkpt lon="34.841324" lat="31.386302"><ele>385</ele><time>2017-11-10T07:29:13.000Z</time></trkpt><trkpt lon="34.841324" lat="31.386302"><ele>385</ele><time>2017-11-10T07:29:14.000Z</time></trkpt><trkpt lon="34.841324" lat="31.386302"><ele>385</ele><time>2017-11-10T07:29:15.000Z</time></trkpt><trkpt lon="34.841324" lat="31.386302"><ele>384</ele><time>2017-11-10T07:29:16.000Z</time></trkpt><trkpt lon="34.841324" lat="31.386302"><ele>385</ele><time>2017-11-10T07:29:17.000Z</time></trkpt><trkpt lon="34.841324" lat="31.386302"><ele>385</ele><time>2017-11-10T07:29:18.000Z</time></trkpt><trkpt lon="34.841324" lat="31.386302"><ele>385</ele><time>2017-11-10T07:29:19.000Z</time></trkpt><trkpt lon="34.841324" lat="31.386302"><ele>385</ele><time>2017-11-10T07:29:20.000Z</time></trkpt><trkpt lon="34.841324" lat="31.386302"><ele>385</ele><time>2017-11-10T07:29:21.000Z</time></trkpt><trkpt lon="34.841324" lat="31.386302"><ele>385</ele><time>2017-11-10T07:29:22.000Z</time></trkpt><trkpt lon="34.841324" lat="31.386302"><ele>385</ele><time>2017-11-10T07:29:23.000Z</time></trkpt><trkpt lon="34.841324" lat="31.386302"><ele>385</ele><time>2017-11-10T07:29:24.000Z</time></trkpt><trkpt lon="34.841324" lat="31.386302"><ele>385</ele><time>2017-11-10T07:29:25.000Z</time></trkpt><trkpt lon="34.841324" lat="31.386302"><ele>385</ele><time>2017-11-10T07:29:26.000Z</time></trkpt><trkpt lon="34.841324" lat="31.386302"><ele>385</ele><time>2017-11-10T07:29:27.000Z</time></trkpt><trkpt lon="34.841324" lat="31.386302"><ele>385</ele><time>2017-11-10T07:29:28.000Z</time></trkpt><trkpt lon="34.841324" lat="31.386302"><ele>385</ele><time>2017-11-10T07:29:29.000Z</time></trkpt><trkpt lon="34.841324" lat="31.386302"><ele>385</ele><time>2017-11-10T07:29:30.000Z</time></trkpt><trkpt lon="34.841324" lat="31.386302"><ele>385</ele><time>2017-11-10T07:29:31.000Z</time></trkpt><trkpt lon="34.841324" lat="31.386302"><ele>385</ele><time>2017-11-10T07:29:32.000Z</time></trkpt><trkpt lon="34.841324" lat="31.386302"><ele>385</ele><time>2017-11-10T07:29:33.000Z</time></trkpt><trkpt lon="34.841324" lat="31.386302"><ele>385</ele><time>2017-11-10T07:29:34.000Z</time></trkpt><trkpt lon="34.841324" lat="31.386302"><ele>385</ele><time>2017-11-10T07:29:35.000Z</time></trkpt><trkpt lon="34.841324" lat="31.386302"><ele>385</ele><time>2017-11-10T07:29:36.000Z</time></trkpt><trkpt lon="34.841324" lat="31.386302"><ele>385</ele><time>2017-11-10T07:29:37.000Z</time></trkpt><trkpt lon="34.841324" lat="31.386302"><ele>385</ele><time>2017-11-10T07:29:38.000Z</time></trkpt><trkpt lon="34.841324" lat="31.386302"><ele>385</ele><time>2017-11-10T07:29:39.000Z</time></trkpt><trkpt lon="34.841324" lat="31.386302"><ele>385</ele><time>2017-11-10T07:29:40.000Z</time></trkpt><trkpt lon="34.841324" lat="31.386302"><ele>385</ele><time>2017-11-10T07:29:41.000Z</time></trkpt><trkpt lon="34.841324" lat="31.386302"><ele>385</ele><time>2017-11-10T07:29:42.000Z</time></trkpt><trkpt lon="34.841296" lat="31.386297"><ele>385</ele><time>2017-11-10T07:29:43.000Z</time></trkpt><trkpt lon="34.841296" lat="31.386297"><ele>385</ele><time>2017-11-10T07:29:44.000Z</time></trkpt><trkpt lon="34.841271" lat="31.386293"><ele>384</ele><time>2017-11-10T07:29:45.000Z</time></trkpt><trkpt lon="34.841271" lat="31.386293"><ele>384</ele><time>2017-11-10T07:29:46.000Z</time></trkpt><trkpt lon="34.841271" lat="31.386293"><ele>384</ele><time>2017-11-10T07:29:47.000Z</time></trkpt><trkpt lon="34.841271" lat="31.386293"><ele>384</ele><time>2017-11-10T07:29:48.000Z</time></trkpt><trkpt lon="34.841271" lat="31.386293"><ele>384</ele><time>2017-11-10T07:29:49.000Z</time></trkpt><trkpt lon="34.841271" lat="31.386293"><ele>384</ele><time>2017-11-10T07:29:50.000Z</time></trkpt><trkpt lon="34.841271" lat="31.386293"><ele>384</ele><time>2017-11-10T07:29:51.000Z</time></trkpt><trkpt lon="34.841271" lat="31.386293"><ele>384</ele><time>2017-11-10T07:29:52.000Z</time></trkpt><trkpt lon="34.841271" lat="31.386293"><ele>384</ele><time>2017-11-10T07:29:53.000Z</time></trkpt><trkpt lon="34.841271" lat="31.386293"><ele>384</ele><time>2017-11-10T07:29:54.000Z</time></trkpt><trkpt lon="34.841271" lat="31.386293"><ele>384</ele><time>2017-11-10T07:29:55.000Z</time></trkpt><trkpt lon="34.841271" lat="31.386293"><ele>384</ele><time>2017-11-10T07:29:56.000Z</time></trkpt><trkpt lon="34.841271" lat="31.386293"><ele>384</ele><time>2017-11-10T07:29:57.000Z</time></trkpt><trkpt lon="34.841271" lat="31.386293"><ele>384</ele><time>2017-11-10T07:29:58.000Z</time></trkpt><trkpt lon="34.841271" lat="31.386293"><ele>384</ele><time>2017-11-10T07:29:59.000Z</time></trkpt><trkpt lon="34.841271" lat="31.386293"><ele>384</ele><time>2017-11-10T07:30:00.000Z</time></trkpt><trkpt lon="34.841271" lat="31.386293"><ele>384</ele><time>2017-11-10T07:30:01.000Z</time></trkpt><trkpt lon="34.841271" lat="31.386293"><ele>384</ele><time>2017-11-10T07:30:02.000Z</time></trkpt><trkpt lon="34.841271" lat="31.386293"><ele>384</ele><time>2017-11-10T07:30:03.000Z</time></trkpt><trkpt lon="34.841271" lat="31.386293"><ele>384</ele><time>2017-11-10T07:30:04.000Z</time></trkpt><trkpt lon="34.841271" lat="31.386293"><ele>384</ele><time>2017-11-10T07:30:05.000Z</time></trkpt><trkpt lon="34.841271" lat="31.386293"><ele>384</ele><time>2017-11-10T07:30:06.000Z</time></trkpt><trkpt lon="34.841271" lat="31.386293"><ele>384</ele><time>2017-11-10T07:30:07.000Z</time></trkpt><trkpt lon="34.841271" lat="31.386293"><ele>384</ele><time>2017-11-10T07:30:08.000Z</time></trkpt><trkpt lon="34.841271" lat="31.386293"><ele>384</ele><time>2017-11-10T07:30:09.000Z</time></trkpt><trkpt lon="34.841271" lat="31.386293"><ele>384</ele><time>2017-11-10T07:30:10.000Z</time></trkpt><trkpt lon="34.841271" lat="31.386293"><ele>384</ele><time>2017-11-10T07:30:11.000Z</time></trkpt><trkpt lon="34.841271" lat="31.386293"><ele>384</ele><time>2017-11-10T07:30:12.000Z</time></trkpt><trkpt lon="34.841271" lat="31.386293"><ele>384</ele><time>2017-11-10T07:30:13.000Z</time></trkpt><trkpt lon="34.841271" lat="31.386293"><ele>384</ele><time>2017-11-10T07:30:14.000Z</time></trkpt><trkpt lon="34.841271" lat="31.386293"><ele>384</ele><time>2017-11-10T07:30:15.000Z</time></trkpt><trkpt lon="34.841271" lat="31.386293"><ele>384</ele><time>2017-11-10T07:30:16.000Z</time></trkpt><trkpt lon="34.841271" lat="31.386293"><ele>384</ele><time>2017-11-10T07:30:17.000Z</time></trkpt><trkpt lon="34.841271" lat="31.386293"><ele>384</ele><time>2017-11-10T07:30:18.000Z</time></trkpt><trkpt lon="34.841271" lat="31.386293"><ele>384</ele><time>2017-11-10T07:30:19.000Z</time></trkpt><trkpt lon="34.841271" lat="31.386293"><ele>384</ele><time>2017-11-10T07:30:20.000Z</time></trkpt><trkpt lon="34.841271" lat="31.386293"><ele>384</ele><time>2017-11-10T07:30:21.000Z</time></trkpt><trkpt lon="34.841271" lat="31.386293"><ele>384</ele><time>2017-11-10T07:30:22.000Z</time></trkpt><trkpt lon="34.841271" lat="31.386293"><ele>384</ele><time>2017-11-10T07:30:23.000Z</time></trkpt><trkpt lon="34.841271" lat="31.386293"><ele>384</ele><time>2017-11-10T07:30:24.000Z</time></trkpt><trkpt lon="34.841271" lat="31.386293"><ele>384</ele><time>2017-11-10T07:30:25.000Z</time></trkpt><trkpt lon="34.841271" lat="31.386293"><ele>384</ele><time>2017-11-10T07:30:26.000Z</time></trkpt><trkpt lon="34.841271" lat="31.386293"><ele>384</ele><time>2017-11-10T07:30:27.000Z</time></trkpt><trkpt lon="34.841271" lat="31.386293"><ele>384</ele><time>2017-11-10T07:30:28.000Z</time></trkpt><trkpt lon="34.841271" lat="31.386293"><ele>384</ele><time>2017-11-10T07:30:29.000Z</time></trkpt><trkpt lon="34.841271" lat="31.386293"><ele>384</ele><time>2017-11-10T07:30:30.000Z</time></trkpt><trkpt lon="34.841271" lat="31.386293"><ele>384</ele><time>2017-11-10T07:30:31.000Z</time></trkpt><trkpt lon="34.841271" lat="31.386293"><ele>384</ele><time>2017-11-10T07:30:32.000Z</time></trkpt><trkpt lon="34.841271" lat="31.386293"><ele>384</ele><time>2017-11-10T07:30:33.000Z</time></trkpt><trkpt lon="34.841271" lat="31.386293"><ele>384</ele><time>2017-11-10T07:30:34.000Z</time></trkpt><trkpt lon="34.841271" lat="31.386293"><ele>384</ele><time>2017-11-10T07:30:35.000Z</time></trkpt><trkpt lon="34.841271" lat="31.386293"><ele>384</ele><time>2017-11-10T07:30:36.000Z</time></trkpt><trkpt lon="34.841271" lat="31.386293"><ele>384</ele><time>2017-11-10T07:30:37.000Z</time></trkpt><trkpt lon="34.841271" lat="31.386293"><ele>384</ele><time>2017-11-10T07:30:38.000Z</time></trkpt><trkpt lon="34.841271" lat="31.386293"><ele>384</ele><time>2017-11-10T07:30:39.000Z</time></trkpt><trkpt lon="34.841271" lat="31.386293"><ele>384</ele><time>2017-11-10T07:30:40.000Z</time></trkpt><trkpt lon="34.841271" lat="31.386293"><ele>384</ele><time>2017-11-10T07:30:41.000Z</time></trkpt><trkpt lon="34.841271" lat="31.386293"><ele>384</ele><time>2017-11-10T07:30:42.000Z</time></trkpt><trkpt lon="34.841271" lat="31.386293"><ele>384</ele><time>2017-11-10T07:30:43.000Z</time></trkpt><trkpt lon="34.841271" lat="31.386293"><ele>384</ele><time>2017-11-10T07:30:44.000Z</time></trkpt><trkpt lon="34.841271" lat="31.386293"><ele>384</ele><time>2017-11-10T07:30:45.000Z</time></trkpt><trkpt lon="34.841271" lat="31.386293"><ele>384</ele><time>2017-11-10T07:30:46.000Z</time></trkpt><trkpt lon="34.841271" lat="31.386293"><ele>384</ele><time>2017-11-10T07:30:47.000Z</time></trkpt><trkpt lon="34.841271" lat="31.386293"><ele>384</ele><time>2017-11-10T07:30:48.000Z</time></trkpt><trkpt lon="34.841271" lat="31.386293"><ele>384</ele><time>2017-11-10T07:30:49.000Z</time></trkpt><trkpt lon="34.841271" lat="31.386293"><ele>384</ele><time>2017-11-10T07:30:50.000Z</time></trkpt><trkpt lon="34.841271" lat="31.386293"><ele>384</ele><time>2017-11-10T07:30:51.000Z</time></trkpt><trkpt lon="34.841271" lat="31.386293"><ele>384</ele><time>2017-11-10T07:30:52.000Z</time></trkpt><trkpt lon="34.841271" lat="31.386293"><ele>384</ele><time>2017-11-10T07:30:53.000Z</time></trkpt><trkpt lon="34.841271" lat="31.386293"><ele>384</ele><time>2017-11-10T07:30:54.000Z</time></trkpt><trkpt lon="34.841271" lat="31.386293"><ele>384</ele><time>2017-11-10T07:30:55.000Z</time></trkpt><trkpt lon="34.841271" lat="31.386293"><ele>384</ele><time>2017-11-10T07:30:56.000Z</time></trkpt><trkpt lon="34.841271" lat="31.386293"><ele>384</ele><time>2017-11-10T07:30:57.000Z</time></trkpt><trkpt lon="34.841271" lat="31.386293"><ele>384</ele><time>2017-11-10T07:30:58.000Z</time></trkpt><trkpt lon="34.841271" lat="31.386293"><ele>384</ele><time>2017-11-10T07:30:59.000Z</time></trkpt><trkpt lon="34.841271" lat="31.386293"><ele>384</ele><time>2017-11-10T07:31:00.000Z</time></trkpt><trkpt lon="34.841271" lat="31.386293"><ele>384</ele><time>2017-11-10T07:31:01.000Z</time></trkpt><trkpt lon="34.841271" lat="31.386293"><ele>384</ele><time>2017-11-10T07:31:02.000Z</time></trkpt><trkpt lon="34.841271" lat="31.386293"><ele>384</ele><time>2017-11-10T07:31:03.000Z</time></trkpt><trkpt lon="34.841271" lat="31.386293"><ele>384</ele><time>2017-11-10T07:31:04.000Z</time></trkpt><trkpt lon="34.841271" lat="31.386293"><ele>384</ele><time>2017-11-10T07:31:05.000Z</time></trkpt><trkpt lon="34.841271" lat="31.386293"><ele>384</ele><time>2017-11-10T07:31:06.000Z</time></trkpt><trkpt lon="34.841271" lat="31.386293"><ele>384</ele><time>2017-11-10T07:31:07.000Z</time></trkpt><trkpt lon="34.841271" lat="31.386293"><ele>384</ele><time>2017-11-10T07:31:08.000Z</time></trkpt><trkpt lon="34.841271" lat="31.386293"><ele>384</ele><time>2017-11-10T07:31:09.000Z</time></trkpt><trkpt lon="34.841271" lat="31.386293"><ele>384</ele><time>2017-11-10T07:31:10.000Z</time></trkpt><trkpt lon="34.841271" lat="31.386293"><ele>384</ele><time>2017-11-10T07:31:11.000Z</time></trkpt><trkpt lon="34.841271" lat="31.386293"><ele>384</ele><time>2017-11-10T07:31:12.000Z</time></trkpt><trkpt lon="34.841271" lat="31.386293"><ele>384</ele><time>2017-11-10T07:31:13.000Z</time></trkpt><trkpt lon="34.841271" lat="31.386293"><ele>384</ele><time>2017-11-10T07:31:14.000Z</time></trkpt><trkpt lon="34.841271" lat="31.386293"><ele>384</ele><time>2017-11-10T07:31:15.000Z</time></trkpt><trkpt lon="34.841271" lat="31.386293"><ele>384</ele><time>2017-11-10T07:31:16.000Z</time></trkpt><trkpt lon="34.841271" lat="31.386293"><ele>384</ele><time>2017-11-10T07:31:17.000Z</time></trkpt><trkpt lon="34.841271" lat="31.386293"><ele>384</ele><time>2017-11-10T07:31:18.000Z</time></trkpt><trkpt lon="34.841271" lat="31.386293"><ele>384</ele><time>2017-11-10T07:31:19.000Z</time></trkpt><trkpt lon="34.841271" lat="31.386293"><ele>384</ele><time>2017-11-10T07:31:20.000Z</time></trkpt><trkpt lon="34.841271" lat="31.386293"><ele>384</ele><time>2017-11-10T07:31:21.000Z</time></trkpt><trkpt lon="34.841271" lat="31.386293"><ele>384</ele><time>2017-11-10T07:31:22.000Z</time></trkpt><trkpt lon="34.841271" lat="31.386293"><ele>384</ele><time>2017-11-10T07:31:23.000Z</time></trkpt><trkpt lon="34.841271" lat="31.386293"><ele>384</ele><time>2017-11-10T07:31:24.000Z</time></trkpt><trkpt lon="34.841271" lat="31.386293"><ele>384</ele><time>2017-11-10T07:31:25.000Z</time></trkpt><trkpt lon="34.841271" lat="31.386293"><ele>384</ele><time>2017-11-10T07:31:26.000Z</time></trkpt><trkpt lon="34.841271" lat="31.386293"><ele>384</ele><time>2017-11-10T07:31:27.000Z</time></trkpt><trkpt lon="34.841271" lat="31.386293"><ele>384</ele><time>2017-11-10T07:31:28.000Z</time></trkpt><trkpt lon="34.841271" lat="31.386293"><ele>384</ele><time>2017-11-10T07:31:29.000Z</time></trkpt><trkpt lon="34.841271" lat="31.386293"><ele>384</ele><time>2017-11-10T07:31:30.000Z</time></trkpt><trkpt lon="34.841271" lat="31.386293"><ele>384</ele><time>2017-11-10T07:31:31.000Z</time></trkpt><trkpt lon="34.841271" lat="31.386293"><ele>384</ele><time>2017-11-10T07:31:32.000Z</time></trkpt><trkpt lon="34.841271" lat="31.386293"><ele>384</ele><time>2017-11-10T07:31:33.000Z</time></trkpt><trkpt lon="34.841271" lat="31.386293"><ele>384</ele><time>2017-11-10T07:31:34.000Z</time></trkpt><trkpt lon="34.841271" lat="31.386293"><ele>384</ele><time>2017-11-10T07:31:35.000Z</time></trkpt><trkpt lon="34.841271" lat="31.386293"><ele>384</ele><time>2017-11-10T07:31:36.000Z</time></trkpt><trkpt lon="34.841271" lat="31.386293"><ele>384</ele><time>2017-11-10T07:31:37.000Z</time></trkpt><trkpt lon="34.841271" lat="31.386293"><ele>384</ele><time>2017-11-10T07:31:38.000Z</time></trkpt><trkpt lon="34.841271" lat="31.386293"><ele>384</ele><time>2017-11-10T07:31:39.000Z</time></trkpt><trkpt lon="34.841271" lat="31.386293"><ele>384</ele><time>2017-11-10T07:31:40.000Z</time></trkpt><trkpt lon="34.841271" lat="31.386293"><ele>384</ele><time>2017-11-10T07:31:41.000Z</time></trkpt><trkpt lon="34.841271" lat="31.386293"><ele>384</ele><time>2017-11-10T07:31:42.000Z</time></trkpt><trkpt lon="34.841271" lat="31.386293"><ele>384</ele><time>2017-11-10T07:31:43.000Z</time></trkpt><trkpt lon="34.841271" lat="31.386293"><ele>384</ele><time>2017-11-10T07:31:44.000Z</time></trkpt><trkpt lon="34.841271" lat="31.386293"><ele>384</ele><time>2017-11-10T07:31:45.000Z</time></trkpt><trkpt lon="34.841271" lat="31.386293"><ele>384</ele><time>2017-11-10T07:31:46.000Z</time></trkpt><trkpt lon="34.841271" lat="31.386293"><ele>384</ele><time>2017-11-10T07:31:47.000Z</time></trkpt><trkpt lon="34.841271" lat="31.386293"><ele>384</ele><time>2017-11-10T07:31:48.000Z</time></trkpt><trkpt lon="34.841271" lat="31.386293"><ele>384</ele><time>2017-11-10T07:31:49.000Z</time></trkpt><trkpt lon="34.841271" lat="31.386293"><ele>384</ele><time>2017-11-10T07:31:50.000Z</time></trkpt><trkpt lon="34.841271" lat="31.386293"><ele>384</ele><time>2017-11-10T07:31:51.000Z</time></trkpt><trkpt lon="34.841271" lat="31.386293"><ele>384</ele><time>2017-11-10T07:31:52.000Z</time></trkpt><trkpt lon="34.841271" lat="31.386293"><ele>384</ele><time>2017-11-10T07:31:53.000Z</time></trkpt><trkpt lon="34.841271" lat="31.386293"><ele>384</ele><time>2017-11-10T07:31:54.000Z</time></trkpt><trkpt lon="34.841271" lat="31.386293"><ele>384</ele><time>2017-11-10T07:31:55.000Z</time></trkpt><trkpt lon="34.841271" lat="31.386293"><ele>384</ele><time>2017-11-10T07:31:56.000Z</time></trkpt><trkpt lon="34.841271" lat="31.386293"><ele>384</ele><time>2017-11-10T07:31:57.000Z</time></trkpt><trkpt lon="34.841244" lat="31.386297"><ele>384</ele><time>2017-11-10T07:31:58.000Z</time></trkpt><trkpt lon="34.841226" lat="31.386308"><ele>384</ele><time>2017-11-10T07:31:59.000Z</time></trkpt><trkpt lon="34.8412" lat="31.386317"><ele>383</ele><time>2017-11-10T07:32:00.000Z</time></trkpt><trkpt lon="34.841165" lat="31.386322"><ele>383</ele><time>2017-11-10T07:32:01.000Z</time></trkpt><trkpt lon="34.841124" lat="31.386326"><ele>383</ele><time>2017-11-10T07:32:02.000Z</time></trkpt><trkpt lon="34.841077" lat="31.386328"><ele>383</ele><time>2017-11-10T07:32:03.000Z</time></trkpt><trkpt lon="34.841028" lat="31.38633"><ele>382</ele><time>2017-11-10T07:32:04.000Z</time></trkpt><trkpt lon="34.840977" lat="31.386336"><ele>382</ele><time>2017-11-10T07:32:05.000Z</time></trkpt><trkpt lon="34.840928" lat="31.386346"><ele>382</ele><time>2017-11-10T07:32:06.000Z</time></trkpt><trkpt lon="34.840881" lat="31.386366"><ele>382</ele><time>2017-11-10T07:32:07.000Z</time></trkpt><trkpt lon="34.840835" lat="31.38639"><ele>382</ele><time>2017-11-10T07:32:08.000Z</time></trkpt><trkpt lon="34.840791" lat="31.386422"><ele>382</ele><time>2017-11-10T07:32:09.000Z</time></trkpt><trkpt lon="34.840749" lat="31.386458"><ele>382</ele><time>2017-11-10T07:32:10.000Z</time></trkpt><trkpt lon="34.840705" lat="31.386492"><ele>382</ele><time>2017-11-10T07:32:11.000Z</time></trkpt><trkpt lon="34.84066" lat="31.386524"><ele>382</ele><time>2017-11-10T07:32:12.000Z</time></trkpt><trkpt lon="34.84062" lat="31.386558"><ele>382</ele><time>2017-11-10T07:32:13.000Z</time></trkpt><trkpt lon="34.8406" lat="31.386598"><ele>383</ele><time>2017-11-10T07:32:14.000Z</time></trkpt><trkpt lon="34.840602" lat="31.386638"><ele>383</ele><time>2017-11-10T07:32:15.000Z</time></trkpt><trkpt lon="34.840613" lat="31.386674"><ele>383</ele><time>2017-11-10T07:32:16.000Z</time></trkpt><trkpt lon="34.840625" lat="31.386708"><ele>383</ele><time>2017-11-10T07:32:17.000Z</time></trkpt><trkpt lon="34.840635" lat="31.38674"><ele>383</ele><time>2017-11-10T07:32:18.000Z</time></trkpt><trkpt lon="34.840635" lat="31.386774"><ele>383</ele><time>2017-11-10T07:32:19.000Z</time></trkpt><trkpt lon="34.840617" lat="31.386804"><ele>383</ele><time>2017-11-10T07:32:20.000Z</time></trkpt><trkpt lon="34.840608" lat="31.386836"><ele>383</ele><time>2017-11-10T07:32:21.000Z</time></trkpt><trkpt lon="34.840608" lat="31.386867"><ele>383</ele><time>2017-11-10T07:32:22.000Z</time></trkpt><trkpt lon="34.84061" lat="31.3869"><ele>383</ele><time>2017-11-10T07:32:23.000Z</time></trkpt><trkpt lon="34.840604" lat="31.386938"><ele>382</ele><time>2017-11-10T07:32:24.000Z</time></trkpt><trkpt lon="34.840585" lat="31.386976"><ele>382</ele><time>2017-11-10T07:32:25.000Z</time></trkpt><trkpt lon="34.840557" lat="31.387014"><ele>382</ele><time>2017-11-10T07:32:26.000Z</time></trkpt><trkpt lon="34.840526" lat="31.38705"><ele>382</ele><time>2017-11-10T07:32:27.000Z</time></trkpt><trkpt lon="34.840502" lat="31.387088"><ele>382</ele><time>2017-11-10T07:32:28.000Z</time></trkpt><trkpt lon="34.840478" lat="31.38713"><ele>382</ele><time>2017-11-10T07:32:29.000Z</time></trkpt><trkpt lon="34.840451" lat="31.387166"><ele>382</ele><time>2017-11-10T07:32:30.000Z</time></trkpt><trkpt lon="34.840409" lat="31.387198"><ele>381</ele><time>2017-11-10T07:32:31.000Z</time></trkpt><trkpt lon="34.840365" lat="31.387236"><ele>381</ele><time>2017-11-10T07:32:32.000Z</time></trkpt><trkpt lon="34.840328" lat="31.38727"><ele>381</ele><time>2017-11-10T07:32:33.000Z</time></trkpt><trkpt lon="34.8403" lat="31.387312"><ele>381</ele><time>2017-11-10T07:32:34.000Z</time></trkpt><trkpt lon="34.840283" lat="31.387354"><ele>381</ele><time>2017-11-10T07:32:35.000Z</time></trkpt><trkpt lon="34.840276" lat="31.387396"><ele>380</ele><time>2017-11-10T07:32:36.000Z</time></trkpt><trkpt lon="34.84026" lat="31.387438"><ele>379</ele><time>2017-11-10T07:32:37.000Z</time></trkpt><trkpt lon="34.840239" lat="31.387484"><ele>378</ele><time>2017-11-10T07:32:38.000Z</time></trkpt><trkpt lon="34.840218" lat="31.387532"><ele>377</ele><time>2017-11-10T07:32:39.000Z</time></trkpt><trkpt lon="34.840188" lat="31.387574"><ele>377</ele><time>2017-11-10T07:32:40.000Z</time></trkpt><trkpt lon="34.840144" lat="31.387616"><ele>377</ele><time>2017-11-10T07:32:41.000Z</time></trkpt><trkpt lon="34.840114" lat="31.387659"><ele>377</ele><time>2017-11-10T07:32:42.000Z</time></trkpt><trkpt lon="34.840095" lat="31.387702"><ele>377</ele><time>2017-11-10T07:32:43.000Z</time></trkpt><trkpt lon="34.840076" lat="31.387736"><ele>377</ele><time>2017-11-10T07:32:44.000Z</time></trkpt><trkpt lon="34.840047" lat="31.387766"><ele>376</ele><time>2017-11-10T07:32:45.000Z</time></trkpt><trkpt lon="34.840007" lat="31.38779"><ele>376</ele><time>2017-11-10T07:32:46.000Z</time></trkpt><trkpt lon="34.839968" lat="31.387794"><ele>376</ele><time>2017-11-10T07:32:47.000Z</time></trkpt><trkpt lon="34.83994" lat="31.38778"><ele>376</ele><time>2017-11-10T07:32:48.000Z</time></trkpt><trkpt lon="34.839933" lat="31.387758"><ele>376</ele><time>2017-11-10T07:32:49.000Z</time></trkpt><trkpt lon="34.839931" lat="31.387732"><ele>375</ele><time>2017-11-10T07:32:50.000Z</time></trkpt><trkpt lon="34.839922" lat="31.387706"><ele>376</ele><time>2017-11-10T07:32:51.000Z</time></trkpt><trkpt lon="34.83991" lat="31.387678"><ele>376</ele><time>2017-11-10T07:32:52.000Z</time></trkpt><trkpt lon="34.839901" lat="31.387648"><ele>376</ele><time>2017-11-10T07:32:53.000Z</time></trkpt><trkpt lon="34.839901" lat="31.387606"><ele>376</ele><time>2017-11-10T07:32:54.000Z</time></trkpt><trkpt lon="34.839907" lat="31.387562"><ele>376</ele><time>2017-11-10T07:32:55.000Z</time></trkpt><trkpt lon="34.83991" lat="31.38752"><ele>376</ele><time>2017-11-10T07:32:56.000Z</time></trkpt><trkpt lon="34.839907" lat="31.387476"><ele>376</ele><time>2017-11-10T07:32:57.000Z</time></trkpt><trkpt lon="34.839894" lat="31.387437"><ele>377</ele><time>2017-11-10T07:32:58.000Z</time></trkpt><trkpt lon="34.83988" lat="31.3874"><ele>377</ele><time>2017-11-10T07:32:59.000Z</time></trkpt><trkpt lon="34.839847" lat="31.387366"><ele>377</ele><time>2017-11-10T07:33:00.000Z</time></trkpt><trkpt lon="34.83982" lat="31.387329"><ele>377</ele><time>2017-11-10T07:33:01.000Z</time></trkpt><trkpt lon="34.839804" lat="31.387293"><ele>377</ele><time>2017-11-10T07:33:02.000Z</time></trkpt><trkpt lon="34.839795" lat="31.387263"><ele>377</ele><time>2017-11-10T07:33:03.000Z</time></trkpt><trkpt lon="34.839782" lat="31.387235"><ele>377</ele><time>2017-11-10T07:33:04.000Z</time></trkpt><trkpt lon="34.839767" lat="31.387208"><ele>377</ele><time>2017-11-10T07:33:05.000Z</time></trkpt><trkpt lon="34.839752" lat="31.387177"><ele>378</ele><time>2017-11-10T07:33:06.000Z</time></trkpt><trkpt lon="34.839737" lat="31.387145"><ele>378</ele><time>2017-11-10T07:33:07.000Z</time></trkpt><trkpt lon="34.839729" lat="31.387113"><ele>378</ele><time>2017-11-10T07:33:08.000Z</time></trkpt><trkpt lon="34.839723" lat="31.387083"><ele>378</ele><time>2017-11-10T07:33:09.000Z</time></trkpt><trkpt lon="34.839713" lat="31.387053"><ele>378</ele><time>2017-11-10T07:33:10.000Z</time></trkpt><trkpt lon="34.839703" lat="31.38702"><ele>378</ele><time>2017-11-10T07:33:11.000Z</time></trkpt><trkpt lon="34.839696" lat="31.386985"><ele>378</ele><time>2017-11-10T07:33:12.000Z</time></trkpt><trkpt lon="34.83969" lat="31.386949"><ele>378</ele><time>2017-11-10T07:33:13.000Z</time></trkpt><trkpt lon="34.83968" lat="31.386912"><ele>378</ele><time>2017-11-10T07:33:14.000Z</time></trkpt><trkpt lon="34.839668" lat="31.38687"><ele>378</ele><time>2017-11-10T07:33:15.000Z</time></trkpt><trkpt lon="34.839659" lat="31.386824"><ele>378</ele><time>2017-11-10T07:33:16.000Z</time></trkpt><trkpt lon="34.839639" lat="31.386776"><ele>378</ele><time>2017-11-10T07:33:17.000Z</time></trkpt><trkpt lon="34.839607" lat="31.386741"><ele>378</ele><time>2017-11-10T07:33:18.000Z</time></trkpt><trkpt lon="34.839562" lat="31.386721"><ele>378</ele><time>2017-11-10T07:33:19.000Z</time></trkpt><trkpt lon="34.839511" lat="31.386714"><ele>378</ele><time>2017-11-10T07:33:20.000Z</time></trkpt><trkpt lon="34.839454" lat="31.386706"><ele>378</ele><time>2017-11-10T07:33:21.000Z</time></trkpt><trkpt lon="34.839392" lat="31.386691"><ele>377</ele><time>2017-11-10T07:33:22.000Z</time></trkpt><trkpt lon="34.839328" lat="31.386668"><ele>377</ele><time>2017-11-10T07:33:23.000Z</time></trkpt><trkpt lon="34.83927" lat="31.386642"><ele>376</ele><time>2017-11-10T07:33:24.000Z</time></trkpt><trkpt lon="34.839224" lat="31.386608"><ele>376</ele><time>2017-11-10T07:33:25.000Z</time></trkpt><trkpt lon="34.839194" lat="31.386573"><ele>376</ele><time>2017-11-10T07:33:26.000Z</time></trkpt><trkpt lon="34.839166" lat="31.386538"><ele>376</ele><time>2017-11-10T07:33:27.000Z</time></trkpt><trkpt lon="34.83914" lat="31.386501"><ele>376</ele><time>2017-11-10T07:33:28.000Z</time></trkpt><trkpt lon="34.839118" lat="31.386461"><ele>376</ele><time>2017-11-10T07:33:29.000Z</time></trkpt><trkpt lon="34.839093" lat="31.386421"><ele>376</ele><time>2017-11-10T07:33:30.000Z</time></trkpt><trkpt lon="34.83907" lat="31.38638"><ele>376</ele><time>2017-11-10T07:33:31.000Z</time></trkpt><trkpt lon="34.839062" lat="31.386339"><ele>376</ele><time>2017-11-10T07:33:32.000Z</time></trkpt><trkpt lon="34.839079" lat="31.386305"><ele>375</ele><time>2017-11-10T07:33:33.000Z</time></trkpt><trkpt lon="34.83912" lat="31.386279"><ele>375</ele><time>2017-11-10T07:33:34.000Z</time></trkpt><trkpt lon="34.839164" lat="31.386264"><ele>375</ele><time>2017-11-10T07:33:35.000Z</time></trkpt><trkpt lon="34.839212" lat="31.386251"><ele>375</ele><time>2017-11-10T07:33:36.000Z</time></trkpt><trkpt lon="34.839262" lat="31.386229"><ele>375</ele><time>2017-11-10T07:33:37.000Z</time></trkpt><trkpt lon="34.839308" lat="31.386194"><ele>376</ele><time>2017-11-10T07:33:38.000Z</time></trkpt><trkpt lon="34.839358" lat="31.386161"><ele>376</ele><time>2017-11-10T07:33:39.000Z</time></trkpt><trkpt lon="34.839405" lat="31.386133"><ele>376</ele><time>2017-11-10T07:33:40.000Z</time></trkpt><trkpt lon="34.839447" lat="31.386117"><ele>376</ele><time>2017-11-10T07:33:41.000Z</time></trkpt><trkpt lon="34.839489" lat="31.386104"><ele>376</ele><time>2017-11-10T07:33:42.000Z</time></trkpt><trkpt lon="34.839529" lat="31.386086"><ele>376</ele><time>2017-11-10T07:33:43.000Z</time></trkpt><trkpt lon="34.839574" lat="31.386069"><ele>376</ele><time>2017-11-10T07:33:44.000Z</time></trkpt><trkpt lon="34.839623" lat="31.386058"><ele>376</ele><time>2017-11-10T07:33:45.000Z</time></trkpt><trkpt lon="34.839671" lat="31.386058"><ele>376</ele><time>2017-11-10T07:33:46.000Z</time></trkpt><trkpt lon="34.839716" lat="31.386066"><ele>376</ele><time>2017-11-10T07:33:47.000Z</time></trkpt><trkpt lon="34.839756" lat="31.386073"><ele>377</ele><time>2017-11-10T07:33:48.000Z</time></trkpt><trkpt lon="34.839797" lat="31.386076"><ele>377</ele><time>2017-11-10T07:33:49.000Z</time></trkpt><trkpt lon="34.83984" lat="31.386072"><ele>377</ele><time>2017-11-10T07:33:50.000Z</time></trkpt><trkpt lon="34.839887" lat="31.386064"><ele>377</ele><time>2017-11-10T07:33:51.000Z</time></trkpt><trkpt lon="34.839936" lat="31.386058"><ele>377</ele><time>2017-11-10T07:33:52.000Z</time></trkpt><trkpt lon="34.839985" lat="31.386054"><ele>377</ele><time>2017-11-10T07:33:53.000Z</time></trkpt><trkpt lon="34.840033" lat="31.386057"><ele>377</ele><time>2017-11-10T07:33:54.000Z</time></trkpt><trkpt lon="34.840076" lat="31.386064"><ele>377.6</ele><time>2017-11-10T07:33:55.000Z</time></trkpt><trkpt lon="34.840116" lat="31.386071"><ele>378</ele><time>2017-11-10T07:33:56.000Z</time></trkpt><trkpt lon="34.840154" lat="31.386077"><ele>378</ele><time>2017-11-10T07:33:57.000Z</time></trkpt><trkpt lon="34.840191" lat="31.386084"><ele>378</ele><time>2017-11-10T07:33:58.000Z</time></trkpt><trkpt lon="34.840228" lat="31.386091"><ele>378</ele><time>2017-11-10T07:33:59.000Z</time></trkpt><trkpt lon="34.840264" lat="31.386093"><ele>379</ele><time>2017-11-10T07:34:00.000Z</time></trkpt><trkpt lon="34.840301" lat="31.386088"><ele>379</ele><time>2017-11-10T07:34:01.000Z</time></trkpt><trkpt lon="34.840335" lat="31.386074"><ele>380</ele><time>2017-11-10T07:34:02.000Z</time></trkpt><trkpt lon="34.840371" lat="31.38606"><ele>380</ele><time>2017-11-10T07:34:03.000Z</time></trkpt><trkpt lon="34.840406" lat="31.386046"><ele>380</ele><time>2017-11-10T07:34:04.000Z</time></trkpt><trkpt lon="34.840443" lat="31.386029"><ele>380</ele><time>2017-11-10T07:34:05.000Z</time></trkpt><trkpt lon="34.840479" lat="31.386013"><ele>380</ele><time>2017-11-10T07:34:06.000Z</time></trkpt><trkpt lon="34.840514" lat="31.385999"><ele>380</ele><time>2017-11-10T07:34:07.000Z</time></trkpt><trkpt lon="34.840547" lat="31.385984"><ele>380</ele><time>2017-11-10T07:34:08.000Z</time></trkpt><trkpt lon="34.840577" lat="31.385968"><ele>380</ele><time>2017-11-10T07:34:09.000Z</time></trkpt><trkpt lon="34.840609" lat="31.38595"><ele>380</ele><time>2017-11-10T07:34:10.000Z</time></trkpt><trkpt lon="34.840639" lat="31.385931"><ele>380</ele><time>2017-11-10T07:34:11.000Z</time></trkpt><trkpt lon="34.84067" lat="31.385908"><ele>380</ele><time>2017-11-10T07:34:12.000Z</time></trkpt><trkpt lon="34.840695" lat="31.38588"><ele>381</ele><time>2017-11-10T07:34:13.000Z</time></trkpt><trkpt lon="34.840709" lat="31.385845"><ele>381</ele><time>2017-11-10T07:34:14.000Z</time></trkpt><trkpt lon="34.840712" lat="31.385806"><ele>381</ele><time>2017-11-10T07:34:15.000Z</time></trkpt><trkpt lon="34.840706" lat="31.385763"><ele>380</ele><time>2017-11-10T07:34:16.000Z</time></trkpt><trkpt lon="34.840685" lat="31.385722"><ele>380</ele><time>2017-11-10T07:34:17.000Z</time></trkpt><trkpt lon="34.840656" lat="31.385682"><ele>380</ele><time>2017-11-10T07:34:18.000Z</time></trkpt><trkpt lon="34.84063" lat="31.385637"><ele>379</ele><time>2017-11-10T07:34:19.000Z</time></trkpt><trkpt lon="34.840602" lat="31.385592"><ele>379</ele><time>2017-11-10T07:34:20.000Z</time></trkpt><trkpt lon="34.840566" lat="31.385546"><ele>379</ele><time>2017-11-10T07:34:21.000Z</time></trkpt><trkpt lon="34.840523" lat="31.385499"><ele>378</ele><time>2017-11-10T07:34:22.000Z</time></trkpt><trkpt lon="34.840467" lat="31.385451"><ele>376</ele><time>2017-11-10T07:34:23.000Z</time></trkpt><trkpt lon="34.840407" lat="31.385396"><ele>376</ele><time>2017-11-10T07:34:24.000Z</time></trkpt><trkpt lon="34.840355" lat="31.385339"><ele>375</ele><time>2017-11-10T07:34:25.000Z</time></trkpt><trkpt lon="34.840304" lat="31.385296"><ele>375</ele><time>2017-11-10T07:34:26.000Z</time></trkpt><trkpt lon="34.840249" lat="31.385277"><ele>375</ele><time>2017-11-10T07:34:27.000Z</time></trkpt><trkpt lon="34.84019" lat="31.385278"><ele>374</ele><time>2017-11-10T07:34:28.000Z</time></trkpt><trkpt lon="34.840127" lat="31.385279"><ele>374</ele><time>2017-11-10T07:34:29.000Z</time></trkpt><trkpt lon="34.840073" lat="31.385257"><ele>373</ele><time>2017-11-10T07:34:30.000Z</time></trkpt><trkpt lon="34.840028" lat="31.385211"><ele>373</ele><time>2017-11-10T07:34:31.000Z</time></trkpt><trkpt lon="34.839986" lat="31.38516"><ele>372</ele><time>2017-11-10T07:34:32.000Z</time></trkpt><trkpt lon="34.839932" lat="31.385116"><ele>371</ele><time>2017-11-10T07:34:33.000Z</time></trkpt><trkpt lon="34.839871" lat="31.38509"><ele>370</ele><time>2017-11-10T07:34:34.000Z</time></trkpt><trkpt lon="34.839811" lat="31.38507"><ele>369</ele><time>2017-11-10T07:34:35.000Z</time></trkpt><trkpt lon="34.839764" lat="31.385041"><ele>369</ele><time>2017-11-10T07:34:36.000Z</time></trkpt><trkpt lon="34.839749" lat="31.385003"><ele>369</ele><time>2017-11-10T07:34:37.000Z</time></trkpt><trkpt lon="34.839774" lat="31.384972"><ele>369</ele><time>2017-11-10T07:34:38.000Z</time></trkpt><trkpt lon="34.839811" lat="31.384954"><ele>369</ele><time>2017-11-10T07:34:39.000Z</time></trkpt><trkpt lon="34.839849" lat="31.384947"><ele>369</ele><time>2017-11-10T07:34:40.000Z</time></trkpt><trkpt lon="34.839888" lat="31.384937"><ele>369</ele><time>2017-11-10T07:34:41.000Z</time></trkpt><trkpt lon="34.839926" lat="31.384916"><ele>369</ele><time>2017-11-10T07:34:42.000Z</time></trkpt><trkpt lon="34.839965" lat="31.384894"><ele>369</ele><time>2017-11-10T07:34:43.000Z</time></trkpt><trkpt lon="34.840006" lat="31.384873"><ele>369</ele><time>2017-11-10T07:34:44.000Z</time></trkpt><trkpt lon="34.840047" lat="31.384861"><ele>369</ele><time>2017-11-10T07:34:45.000Z</time></trkpt><trkpt lon="34.840088" lat="31.384868"><ele>369</ele><time>2017-11-10T07:34:46.000Z</time></trkpt><trkpt lon="34.840126" lat="31.384883"><ele>369</ele><time>2017-11-10T07:34:47.000Z</time></trkpt><trkpt lon="34.840164" lat="31.384894"><ele>370</ele><time>2017-11-10T07:34:48.000Z</time></trkpt><trkpt lon="34.840201" lat="31.384893"><ele>370</ele><time>2017-11-10T07:34:49.000Z</time></trkpt><trkpt lon="34.840235" lat="31.384886"><ele>370</ele><time>2017-11-10T07:34:50.000Z</time></trkpt><trkpt lon="34.840268" lat="31.384885"><ele>371</ele><time>2017-11-10T07:34:51.000Z</time></trkpt><trkpt lon="34.840299" lat="31.384889"><ele>371</ele><time>2017-11-10T07:34:52.000Z</time></trkpt><trkpt lon="34.840327" lat="31.384898"><ele>372</ele><time>2017-11-10T07:34:53.000Z</time></trkpt><trkpt lon="34.840352" lat="31.384913"><ele>372</ele><time>2017-11-10T07:34:54.000Z</time></trkpt><trkpt lon="34.840382" lat="31.384927"><ele>372</ele><time>2017-11-10T07:34:55.000Z</time></trkpt><trkpt lon="34.840411" lat="31.384935"><ele>372</ele><time>2017-11-10T07:34:56.000Z</time></trkpt><trkpt lon="34.840438" lat="31.384942"><ele>373</ele><time>2017-11-10T07:34:57.000Z</time></trkpt><trkpt lon="34.840465" lat="31.384953"><ele>373</ele><time>2017-11-10T07:34:58.000Z</time></trkpt><trkpt lon="34.840491" lat="31.384966"><ele>373</ele><time>2017-11-10T07:34:59.000Z</time></trkpt><trkpt lon="34.840519" lat="31.384979"><ele>373</ele><time>2017-11-10T07:35:00.000Z</time></trkpt><trkpt lon="34.840544" lat="31.384995"><ele>373</ele><time>2017-11-10T07:35:01.000Z</time></trkpt><trkpt lon="34.840565" lat="31.385016"><ele>374</ele><time>2017-11-10T07:35:02.000Z</time></trkpt><trkpt lon="34.84058" lat="31.385038"><ele>374</ele><time>2017-11-10T07:35:03.000Z</time></trkpt><trkpt lon="34.840592" lat="31.38506"><ele>375</ele><time>2017-11-10T07:35:04.000Z</time></trkpt><trkpt lon="34.840603" lat="31.38508"><ele>375</ele><time>2017-11-10T07:35:05.000Z</time></trkpt><trkpt lon="34.840616" lat="31.385098"><ele>375</ele><time>2017-11-10T07:35:06.000Z</time></trkpt><trkpt lon="34.840626" lat="31.385118"><ele>375</ele><time>2017-11-10T07:35:07.000Z</time></trkpt><trkpt lon="34.840637" lat="31.385138"><ele>375</ele><time>2017-11-10T07:35:08.000Z</time></trkpt><trkpt lon="34.840652" lat="31.38516"><ele>375</ele><time>2017-11-10T07:35:09.000Z</time></trkpt><trkpt lon="34.840669" lat="31.385185"><ele>375</ele><time>2017-11-10T07:35:10.000Z</time></trkpt><trkpt lon="34.840689" lat="31.385212"><ele>375</ele><time>2017-11-10T07:35:11.000Z</time></trkpt><trkpt lon="34.840712" lat="31.385235"><ele>375</ele><time>2017-11-10T07:35:12.000Z</time></trkpt><trkpt lon="34.840737" lat="31.38525"><ele>376</ele><time>2017-11-10T07:35:13.000Z</time></trkpt><trkpt lon="34.840771" lat="31.385258"><ele>376</ele><time>2017-11-10T07:35:14.000Z</time></trkpt><trkpt lon="34.840813" lat="31.385256"><ele>376</ele><time>2017-11-10T07:35:15.000Z</time></trkpt><trkpt lon="34.840859" lat="31.385248"><ele>376</ele><time>2017-11-10T07:35:16.000Z</time></trkpt><trkpt lon="34.840903" lat="31.385239"><ele>376</ele><time>2017-11-10T07:35:17.000Z</time></trkpt><trkpt lon="34.840954" lat="31.38523"><ele>375</ele><time>2017-11-10T07:35:18.000Z</time></trkpt><trkpt lon="34.841007" lat="31.385223"><ele>374</ele><time>2017-11-10T07:35:19.000Z</time></trkpt><trkpt lon="34.841057" lat="31.385216"><ele>374</ele><time>2017-11-10T07:35:20.000Z</time></trkpt><trkpt lon="34.841102" lat="31.385209"><ele>375</ele><time>2017-11-10T07:35:21.000Z</time></trkpt><trkpt lon="34.841141" lat="31.385196"><ele>375</ele><time>2017-11-10T07:35:22.000Z</time></trkpt><trkpt lon="34.841172" lat="31.385174"><ele>375</ele><time>2017-11-10T07:35:23.000Z</time></trkpt><trkpt lon="34.841197" lat="31.385144"><ele>376</ele><time>2017-11-10T07:35:24.000Z</time></trkpt><trkpt lon="34.841211" lat="31.385107"><ele>376</ele><time>2017-11-10T07:35:25.000Z</time></trkpt><trkpt lon="34.841213" lat="31.385064"><ele>376</ele><time>2017-11-10T07:35:26.000Z</time></trkpt><trkpt lon="34.841202" lat="31.385015"><ele>376</ele><time>2017-11-10T07:35:27.000Z</time></trkpt><trkpt lon="34.841178" lat="31.384964"><ele>376</ele><time>2017-11-10T07:35:28.000Z</time></trkpt><trkpt lon="34.841146" lat="31.384912"><ele>376</ele><time>2017-11-10T07:35:29.000Z</time></trkpt><trkpt lon="34.841114" lat="31.384858"><ele>375</ele><time>2017-11-10T07:35:30.000Z</time></trkpt><trkpt lon="34.841089" lat="31.3848"><ele>374</ele><time>2017-11-10T07:35:31.000Z</time></trkpt><trkpt lon="34.841072" lat="31.384745"><ele>373</ele><time>2017-11-10T07:35:32.000Z</time></trkpt><trkpt lon="34.841056" lat="31.384696"><ele>373</ele><time>2017-11-10T07:35:33.000Z</time></trkpt><trkpt lon="34.841036" lat="31.384653"><ele>373</ele><time>2017-11-10T07:35:34.000Z</time></trkpt><trkpt lon="34.841029" lat="31.384612"><ele>373</ele><time>2017-11-10T07:35:35.000Z</time></trkpt><trkpt lon="34.841038" lat="31.384573"><ele>373</ele><time>2017-11-10T07:35:36.000Z</time></trkpt><trkpt lon="34.841052" lat="31.384538"><ele>373</ele><time>2017-11-10T07:35:37.000Z</time></trkpt><trkpt lon="34.841065" lat="31.384499"><ele>373</ele><time>2017-11-10T07:35:38.000Z</time></trkpt><trkpt lon="34.841084" lat="31.384454"><ele>372</ele><time>2017-11-10T07:35:39.000Z</time></trkpt><trkpt lon="34.841118" lat="31.384406"><ele>372</ele><time>2017-11-10T07:35:40.000Z</time></trkpt><trkpt lon="34.841162" lat="31.384362"><ele>371</ele><time>2017-11-10T07:35:41.000Z</time></trkpt><trkpt lon="34.841214" lat="31.384333"><ele>371</ele><time>2017-11-10T07:35:42.000Z</time></trkpt><trkpt lon="34.841263" lat="31.384318"><ele>371</ele><time>2017-11-10T07:35:43.000Z</time></trkpt><trkpt lon="34.841312" lat="31.384303"><ele>371</ele><time>2017-11-10T07:35:44.000Z</time></trkpt><trkpt lon="34.841342" lat="31.38427"><ele>371</ele><time>2017-11-10T07:35:45.000Z</time></trkpt><trkpt lon="34.841329" lat="31.384229"><ele>371</ele><time>2017-11-10T07:35:46.000Z</time></trkpt><trkpt lon="34.841282" lat="31.384204"><ele>370</ele><time>2017-11-10T07:35:47.000Z</time></trkpt><trkpt lon="34.841224" lat="31.384194"><ele>369</ele><time>2017-11-10T07:35:48.000Z</time></trkpt><trkpt lon="34.841172" lat="31.384181"><ele>369</ele><time>2017-11-10T07:35:49.000Z</time></trkpt><trkpt lon="34.841121" lat="31.384154"><ele>369</ele><time>2017-11-10T07:35:50.000Z</time></trkpt><trkpt lon="34.841053" lat="31.384113"><ele>368</ele><time>2017-11-10T07:35:51.000Z</time></trkpt><trkpt lon="34.84101" lat="31.384075"><ele>367</ele><time>2017-11-10T07:35:52.000Z</time></trkpt><trkpt lon="34.841007" lat="31.384038"><ele>366</ele><time>2017-11-10T07:35:53.000Z</time></trkpt><trkpt lon="34.841031" lat="31.384007"><ele>366</ele><time>2017-11-10T07:35:54.000Z</time></trkpt><trkpt lon="34.841065" lat="31.383986"><ele>367</ele><time>2017-11-10T07:35:55.000Z</time></trkpt><trkpt lon="34.841104" lat="31.383977"><ele>367</ele><time>2017-11-10T07:35:56.000Z</time></trkpt><trkpt lon="34.841143" lat="31.383985"><ele>367</ele><time>2017-11-10T07:35:57.000Z</time></trkpt><trkpt lon="34.841184" lat="31.384005"><ele>367</ele><time>2017-11-10T07:35:58.000Z</time></trkpt><trkpt lon="34.841228" lat="31.384026"><ele>367</ele><time>2017-11-10T07:35:59.000Z</time></trkpt><trkpt lon="34.841272" lat="31.384039"><ele>367</ele><time>2017-11-10T07:36:00.000Z</time></trkpt><trkpt lon="34.841317" lat="31.384042"><ele>367</ele><time>2017-11-10T07:36:01.000Z</time></trkpt><trkpt lon="34.841365" lat="31.384034"><ele>367</ele><time>2017-11-10T07:36:02.000Z</time></trkpt><trkpt lon="34.841414" lat="31.384015"><ele>367</ele><time>2017-11-10T07:36:03.000Z</time></trkpt><trkpt lon="34.841461" lat="31.383988"><ele>367</ele><time>2017-11-10T07:36:04.000Z</time></trkpt><trkpt lon="34.841505" lat="31.383961"><ele>368</ele><time>2017-11-10T07:36:05.000Z</time></trkpt><trkpt lon="34.841543" lat="31.383936"><ele>368</ele><time>2017-11-10T07:36:06.000Z</time></trkpt><trkpt lon="34.841573" lat="31.383908"><ele>368</ele><time>2017-11-10T07:36:07.000Z</time></trkpt><trkpt lon="34.841601" lat="31.38388"><ele>368</ele><time>2017-11-10T07:36:08.000Z</time></trkpt><trkpt lon="34.841628" lat="31.383851"><ele>369</ele><time>2017-11-10T07:36:09.000Z</time></trkpt><trkpt lon="34.841656" lat="31.383821"><ele>369</ele><time>2017-11-10T07:36:10.000Z</time></trkpt><trkpt lon="34.841682" lat="31.383791"><ele>369</ele><time>2017-11-10T07:36:11.000Z</time></trkpt><trkpt lon="34.841708" lat="31.383761"><ele>369</ele><time>2017-11-10T07:36:12.000Z</time></trkpt><trkpt lon="34.841738" lat="31.383738"><ele>369</ele><time>2017-11-10T07:36:13.000Z</time></trkpt><trkpt lon="34.841771" lat="31.383725"><ele>369</ele><time>2017-11-10T07:36:14.000Z</time></trkpt><trkpt lon="34.841804" lat="31.383714"><ele>369</ele><time>2017-11-10T07:36:15.000Z</time></trkpt><trkpt lon="34.841834" lat="31.383702"><ele>369</ele><time>2017-11-10T07:36:16.000Z</time></trkpt><trkpt lon="34.841861" lat="31.383691"><ele>369</ele><time>2017-11-10T07:36:17.000Z</time></trkpt><trkpt lon="34.841888" lat="31.383682"><ele>370</ele><time>2017-11-10T07:36:18.000Z</time></trkpt><trkpt lon="34.841914" lat="31.383671"><ele>370</ele><time>2017-11-10T07:36:19.000Z</time></trkpt><trkpt lon="34.841938" lat="31.383658"><ele>371</ele><time>2017-11-10T07:36:20.000Z</time></trkpt><trkpt lon="34.841959" lat="31.383647"><ele>371</ele><time>2017-11-10T07:36:21.000Z</time></trkpt><trkpt lon="34.841977" lat="31.383638"><ele>371</ele><time>2017-11-10T07:36:22.000Z</time></trkpt><trkpt lon="34.841977" lat="31.383638"><ele>371</ele><time>2017-11-10T07:36:23.000Z</time></trkpt><trkpt lon="34.842011" lat="31.383619"><ele>371</ele><time>2017-11-10T07:36:24.000Z</time></trkpt><trkpt lon="34.842027" lat="31.383607"><ele>372</ele><time>2017-11-10T07:36:25.000Z</time></trkpt><trkpt lon="34.842027" lat="31.383607"><ele>372</ele><time>2017-11-10T07:36:26.000Z</time></trkpt><trkpt lon="34.842057" lat="31.383584"><ele>372</ele><time>2017-11-10T07:36:27.000Z</time></trkpt><trkpt lon="34.842057" lat="31.383584"><ele>372</ele><time>2017-11-10T07:36:28.000Z</time></trkpt><trkpt lon="34.842093" lat="31.383569"><ele>372</ele><time>2017-11-10T07:36:29.000Z</time></trkpt><trkpt lon="34.842093" lat="31.383569"><ele>372</ele><time>2017-11-10T07:36:30.000Z</time></trkpt><trkpt lon="34.842123" lat="31.383549"><ele>372</ele><time>2017-11-10T07:36:31.000Z</time></trkpt><trkpt lon="34.842123" lat="31.383549"><ele>372</ele><time>2017-11-10T07:36:32.000Z</time></trkpt><trkpt lon="34.84215" lat="31.383524"><ele>372</ele><time>2017-11-10T07:36:33.000Z</time></trkpt><trkpt lon="34.84215" lat="31.383524"><ele>372</ele><time>2017-11-10T07:36:34.000Z</time></trkpt><trkpt lon="34.84217" lat="31.383496"><ele>372</ele><time>2017-11-10T07:36:35.000Z</time></trkpt><trkpt lon="34.84217" lat="31.383496"><ele>372</ele><time>2017-11-10T07:36:36.000Z</time></trkpt><trkpt lon="34.842189" lat="31.383466"><ele>373</ele><time>2017-11-10T07:36:37.000Z</time></trkpt><trkpt lon="34.842189" lat="31.383466"><ele>373</ele><time>2017-11-10T07:36:38.000Z</time></trkpt><trkpt lon="34.842208" lat="31.383442"><ele>374</ele><time>2017-11-10T07:36:39.000Z</time></trkpt><trkpt lon="34.842208" lat="31.383442"><ele>374</ele><time>2017-11-10T07:36:40.000Z</time></trkpt><trkpt lon="34.842224" lat="31.383413"><ele>374</ele><time>2017-11-10T07:36:41.000Z</time></trkpt><trkpt lon="34.842224" lat="31.383413"><ele>374</ele><time>2017-11-10T07:36:42.000Z</time></trkpt><trkpt lon="34.842246" lat="31.383388"><ele>374</ele><time>2017-11-10T07:36:43.000Z</time></trkpt><trkpt lon="34.842246" lat="31.383388"><ele>374</ele><time>2017-11-10T07:36:44.000Z</time></trkpt><trkpt lon="34.842266" lat="31.383374"><ele>374</ele><time>2017-11-10T07:36:45.000Z</time></trkpt><trkpt lon="34.842266" lat="31.383374"><ele>374</ele><time>2017-11-10T07:36:46.000Z</time></trkpt><trkpt lon="34.842266" lat="31.383374"><ele>373</ele><time>2017-11-10T07:36:47.000Z</time></trkpt><trkpt lon="34.842266" lat="31.383374"><ele>373</ele><time>2017-11-10T07:36:48.000Z</time></trkpt><trkpt lon="34.842266" lat="31.383374"><ele>373</ele><time>2017-11-10T07:36:49.000Z</time></trkpt><trkpt lon="34.842266" lat="31.383374"><ele>373</ele><time>2017-11-10T07:36:50.000Z</time></trkpt><trkpt lon="34.842266" lat="31.383374"><ele>373</ele><time>2017-11-10T07:36:51.000Z</time></trkpt><trkpt lon="34.842266" lat="31.383374"><ele>373</ele><time>2017-11-10T07:36:52.000Z</time></trkpt><trkpt lon="34.842266" lat="31.383374"><ele>373</ele><time>2017-11-10T07:36:53.000Z</time></trkpt><trkpt lon="34.842266" lat="31.383374"><ele>373</ele><time>2017-11-10T07:36:54.000Z</time></trkpt><trkpt lon="34.842266" lat="31.383374"><ele>373</ele><time>2017-11-10T07:36:55.000Z</time></trkpt><trkpt lon="34.842266" lat="31.383374"><ele>373</ele><time>2017-11-10T07:36:56.000Z</time></trkpt><trkpt lon="34.842266" lat="31.383374"><ele>374</ele><time>2017-11-10T07:36:57.000Z</time></trkpt><trkpt lon="34.842266" lat="31.383374"><ele>374</ele><time>2017-11-10T07:36:58.000Z</time></trkpt><trkpt lon="34.842266" lat="31.383374"><ele>374</ele><time>2017-11-10T07:36:59.000Z</time></trkpt><trkpt lon="34.842266" lat="31.383374"><ele>374</ele><time>2017-11-10T07:37:00.000Z</time></trkpt><trkpt lon="34.842266" lat="31.383374"><ele>374</ele><time>2017-11-10T07:37:01.000Z</time></trkpt><trkpt lon="34.842266" lat="31.383374"><ele>374</ele><time>2017-11-10T07:37:02.000Z</time></trkpt><trkpt lon="34.842266" lat="31.383374"><ele>374</ele><time>2017-11-10T07:37:03.000Z</time></trkpt><trkpt lon="34.842266" lat="31.383374"><ele>374</ele><time>2017-11-10T07:37:04.000Z</time></trkpt><trkpt lon="34.842266" lat="31.383374"><ele>373</ele><time>2017-11-10T07:37:05.000Z</time></trkpt><trkpt lon="34.842266" lat="31.383374"><ele>373</ele><time>2017-11-10T07:37:06.000Z</time></trkpt><trkpt lon="34.842266" lat="31.383374"><ele>373</ele><time>2017-11-10T07:37:07.000Z</time></trkpt><trkpt lon="34.842266" lat="31.383374"><ele>373</ele><time>2017-11-10T07:37:08.000Z</time></trkpt><trkpt lon="34.842266" lat="31.383374"><ele>373</ele><time>2017-11-10T07:37:09.000Z</time></trkpt><trkpt lon="34.842266" lat="31.383374"><ele>373</ele><time>2017-11-10T07:37:10.000Z</time></trkpt><trkpt lon="34.842266" lat="31.383374"><ele>373</ele><time>2017-11-10T07:37:11.000Z</time></trkpt><trkpt lon="34.842266" lat="31.383374"><ele>373</ele><time>2017-11-10T07:37:12.000Z</time></trkpt><trkpt lon="34.842266" lat="31.383374"><ele>373</ele><time>2017-11-10T07:37:13.000Z</time></trkpt><trkpt lon="34.842266" lat="31.383374"><ele>373</ele><time>2017-11-10T07:37:14.000Z</time></trkpt><trkpt lon="34.842266" lat="31.383374"><ele>373</ele><time>2017-11-10T07:37:15.000Z</time></trkpt><trkpt lon="34.842266" lat="31.383374"><ele>373</ele><time>2017-11-10T07:37:16.000Z</time></trkpt><trkpt lon="34.842266" lat="31.383374"><ele>373</ele><time>2017-11-10T07:37:17.000Z</time></trkpt><trkpt lon="34.842266" lat="31.383374"><ele>373</ele><time>2017-11-10T07:37:18.000Z</time></trkpt><trkpt lon="34.842266" lat="31.383374"><ele>373</ele><time>2017-11-10T07:37:19.000Z</time></trkpt><trkpt lon="34.842266" lat="31.383374"><ele>373</ele><time>2017-11-10T07:37:20.000Z</time></trkpt><trkpt lon="34.842266" lat="31.383374"><ele>373</ele><time>2017-11-10T07:37:21.000Z</time></trkpt><trkpt lon="34.842266" lat="31.383374"><ele>373</ele><time>2017-11-10T07:37:22.000Z</time></trkpt><trkpt lon="34.842266" lat="31.383374"><ele>373</ele><time>2017-11-10T07:37:23.000Z</time></trkpt><trkpt lon="34.842266" lat="31.383374"><ele>373</ele><time>2017-11-10T07:37:24.000Z</time></trkpt><trkpt lon="34.842266" lat="31.383374"><ele>373</ele><time>2017-11-10T07:37:25.000Z</time></trkpt><trkpt lon="34.842266" lat="31.383374"><ele>373</ele><time>2017-11-10T07:37:26.000Z</time></trkpt><trkpt lon="34.842266" lat="31.383374"><ele>373</ele><time>2017-11-10T07:37:27.000Z</time></trkpt><trkpt lon="34.842266" lat="31.383374"><ele>373</ele><time>2017-11-10T07:37:28.000Z</time></trkpt><trkpt lon="34.842266" lat="31.383374"><ele>373</ele><time>2017-11-10T07:37:29.000Z</time></trkpt><trkpt lon="34.842266" lat="31.383374"><ele>373</ele><time>2017-11-10T07:37:30.000Z</time></trkpt><trkpt lon="34.842266" lat="31.383374"><ele>372</ele><time>2017-11-10T07:37:31.000Z</time></trkpt><trkpt lon="34.842266" lat="31.383374"><ele>372</ele><time>2017-11-10T07:37:32.000Z</time></trkpt><trkpt lon="34.842266" lat="31.383374"><ele>373</ele><time>2017-11-10T07:37:33.000Z</time></trkpt><trkpt lon="34.842266" lat="31.383374"><ele>373</ele><time>2017-11-10T07:37:34.000Z</time></trkpt><trkpt lon="34.842266" lat="31.383374"><ele>373</ele><time>2017-11-10T07:37:35.000Z</time></trkpt><trkpt lon="34.842266" lat="31.383374"><ele>373</ele><time>2017-11-10T07:37:36.000Z</time></trkpt><trkpt lon="34.842266" lat="31.383374"><ele>373</ele><time>2017-11-10T07:37:37.000Z</time></trkpt><trkpt lon="34.842266" lat="31.383374"><ele>373</ele><time>2017-11-10T07:37:38.000Z</time></trkpt><trkpt lon="34.842266" lat="31.383374"><ele>373</ele><time>2017-11-10T07:37:39.000Z</time></trkpt><trkpt lon="34.842266" lat="31.383374"><ele>373</ele><time>2017-11-10T07:37:40.000Z</time></trkpt><trkpt lon="34.842266" lat="31.383374"><ele>373</ele><time>2017-11-10T07:37:41.000Z</time></trkpt><trkpt lon="34.842266" lat="31.383374"><ele>373</ele><time>2017-11-10T07:37:42.000Z</time></trkpt><trkpt lon="34.842266" lat="31.383374"><ele>373</ele><time>2017-11-10T07:37:43.000Z</time></trkpt><trkpt lon="34.842266" lat="31.383374"><ele>373</ele><time>2017-11-10T07:37:44.000Z</time></trkpt><trkpt lon="34.842266" lat="31.383374"><ele>373</ele><time>2017-11-10T07:37:45.000Z</time></trkpt><trkpt lon="34.842266" lat="31.383374"><ele>373</ele><time>2017-11-10T07:37:46.000Z</time></trkpt><trkpt lon="34.842266" lat="31.383374"><ele>373</ele><time>2017-11-10T07:37:47.000Z</time></trkpt><trkpt lon="34.842266" lat="31.383374"><ele>373</ele><time>2017-11-10T07:37:48.000Z</time></trkpt><trkpt lon="34.842266" lat="31.383374"><ele>373</ele><time>2017-11-10T07:37:49.000Z</time></trkpt><trkpt lon="34.842266" lat="31.383374"><ele>373</ele><time>2017-11-10T07:37:50.000Z</time></trkpt><trkpt lon="34.842266" lat="31.383374"><ele>373</ele><time>2017-11-10T07:37:51.000Z</time></trkpt><trkpt lon="34.842266" lat="31.383374"><ele>373</ele><time>2017-11-10T07:37:52.000Z</time></trkpt><trkpt lon="34.842266" lat="31.383374"><ele>373</ele><time>2017-11-10T07:37:53.000Z</time></trkpt><trkpt lon="34.842266" lat="31.383374"><ele>373</ele><time>2017-11-10T07:37:54.000Z</time></trkpt><trkpt lon="34.842266" lat="31.383374"><ele>373</ele><time>2017-11-10T07:37:55.000Z</time></trkpt><trkpt lon="34.842266" lat="31.383374"><ele>373</ele><time>2017-11-10T07:37:56.000Z</time></trkpt><trkpt lon="34.842266" lat="31.383374"><ele>373</ele><time>2017-11-10T07:37:57.000Z</time></trkpt><trkpt lon="34.842266" lat="31.383374"><ele>373</ele><time>2017-11-10T07:37:58.000Z</time></trkpt><trkpt lon="34.842266" lat="31.383374"><ele>373</ele><time>2017-11-10T07:37:59.000Z</time></trkpt><trkpt lon="34.842266" lat="31.383374"><ele>373</ele><time>2017-11-10T07:38:00.000Z</time></trkpt><trkpt lon="34.842266" lat="31.383374"><ele>373</ele><time>2017-11-10T07:38:01.000Z</time></trkpt><trkpt lon="34.842266" lat="31.383374"><ele>373</ele><time>2017-11-10T07:38:02.000Z</time></trkpt><trkpt lon="34.842266" lat="31.383374"><ele>373</ele><time>2017-11-10T07:38:03.000Z</time></trkpt><trkpt lon="34.842266" lat="31.383374"><ele>373</ele><time>2017-11-10T07:38:04.000Z</time></trkpt><trkpt lon="34.842266" lat="31.383374"><ele>373</ele><time>2017-11-10T07:38:05.000Z</time></trkpt><trkpt lon="34.842266" lat="31.383374"><ele>373</ele><time>2017-11-10T07:38:06.000Z</time></trkpt><trkpt lon="34.842266" lat="31.383374"><ele>373</ele><time>2017-11-10T07:38:07.000Z</time></trkpt><trkpt lon="34.842266" lat="31.383374"><ele>373</ele><time>2017-11-10T07:38:08.000Z</time></trkpt><trkpt lon="34.842266" lat="31.383374"><ele>372</ele><time>2017-11-10T07:38:09.000Z</time></trkpt><trkpt lon="34.842266" lat="31.383374"><ele>372</ele><time>2017-11-10T07:38:10.000Z</time></trkpt><trkpt lon="34.842266" lat="31.383374"><ele>372</ele><time>2017-11-10T07:38:11.000Z</time></trkpt><trkpt lon="34.842266" lat="31.383374"><ele>373</ele><time>2017-11-10T07:38:12.000Z</time></trkpt><trkpt lon="34.842266" lat="31.383374"><ele>373</ele><time>2017-11-10T07:38:13.000Z</time></trkpt><trkpt lon="34.842266" lat="31.383374"><ele>373</ele><time>2017-11-10T07:38:14.000Z</time></trkpt><trkpt lon="34.842266" lat="31.383374"><ele>373</ele><time>2017-11-10T07:38:15.000Z</time></trkpt><trkpt lon="34.842266" lat="31.383374"><ele>373</ele><time>2017-11-10T07:38:16.000Z</time></trkpt><trkpt lon="34.842266" lat="31.383374"><ele>373</ele><time>2017-11-10T07:38:17.000Z</time></trkpt><trkpt lon="34.842266" lat="31.383374"><ele>373</ele><time>2017-11-10T07:38:18.000Z</time></trkpt><trkpt lon="34.842266" lat="31.383374"><ele>373</ele><time>2017-11-10T07:38:19.000Z</time></trkpt><trkpt lon="34.842266" lat="31.383374"><ele>373</ele><time>2017-11-10T07:38:20.000Z</time></trkpt><trkpt lon="34.842266" lat="31.383374"><ele>373</ele><time>2017-11-10T07:38:21.000Z</time></trkpt><trkpt lon="34.842266" lat="31.383374"><ele>373</ele><time>2017-11-10T07:38:22.000Z</time></trkpt><trkpt lon="34.842266" lat="31.383374"><ele>373</ele><time>2017-11-10T07:38:23.000Z</time></trkpt><trkpt lon="34.842266" lat="31.383374"><ele>373</ele><time>2017-11-10T07:38:24.000Z</time></trkpt><trkpt lon="34.842266" lat="31.383374"><ele>373</ele><time>2017-11-10T07:38:25.000Z</time></trkpt><trkpt lon="34.842266" lat="31.383374"><ele>373</ele><time>2017-11-10T07:38:26.000Z</time></trkpt><trkpt lon="34.842266" lat="31.383374"><ele>373</ele><time>2017-11-10T07:38:27.000Z</time></trkpt><trkpt lon="34.842266" lat="31.383374"><ele>373</ele><time>2017-11-10T07:38:28.000Z</time></trkpt><trkpt lon="34.842266" lat="31.383374"><ele>373</ele><time>2017-11-10T07:38:29.000Z</time></trkpt><trkpt lon="34.842266" lat="31.383374"><ele>373</ele><time>2017-11-10T07:38:30.000Z</time></trkpt><trkpt lon="34.842266" lat="31.383374"><ele>373</ele><time>2017-11-10T07:38:31.000Z</time></trkpt><trkpt lon="34.842266" lat="31.383374"><ele>373</ele><time>2017-11-10T07:38:32.000Z</time></trkpt><trkpt lon="34.842266" lat="31.383374"><ele>373</ele><time>2017-11-10T07:38:33.000Z</time></trkpt><trkpt lon="34.842266" lat="31.383374"><ele>373</ele><time>2017-11-10T07:38:34.000Z</time></trkpt><trkpt lon="34.842266" lat="31.383374"><ele>373</ele><time>2017-11-10T07:38:35.000Z</time></trkpt><trkpt lon="34.842266" lat="31.383374"><ele>373</ele><time>2017-11-10T07:38:36.000Z</time></trkpt><trkpt lon="34.842266" lat="31.383374"><ele>373</ele><time>2017-11-10T07:38:37.000Z</time></trkpt><trkpt lon="34.842266" lat="31.383374"><ele>373</ele><time>2017-11-10T07:38:38.000Z</time></trkpt><trkpt lon="34.842266" lat="31.383374"><ele>373</ele><time>2017-11-10T07:38:39.000Z</time></trkpt><trkpt lon="34.842266" lat="31.383374"><ele>373</ele><time>2017-11-10T07:38:40.000Z</time></trkpt><trkpt lon="34.842266" lat="31.383374"><ele>373</ele><time>2017-11-10T07:38:41.000Z</time></trkpt><trkpt lon="34.842266" lat="31.383374"><ele>373</ele><time>2017-11-10T07:38:42.000Z</time></trkpt><trkpt lon="34.842266" lat="31.383374"><ele>373</ele><time>2017-11-10T07:38:43.000Z</time></trkpt><trkpt lon="34.842266" lat="31.383374"><ele>373</ele><time>2017-11-10T07:38:44.000Z</time></trkpt><trkpt lon="34.842266" lat="31.383374"><ele>372</ele><time>2017-11-10T07:38:45.000Z</time></trkpt><trkpt lon="34.842266" lat="31.383374"><ele>372</ele><time>2017-11-10T07:38:46.000Z</time></trkpt><trkpt lon="34.842266" lat="31.383374"><ele>372</ele><time>2017-11-10T07:38:47.000Z</time></trkpt><trkpt lon="34.842266" lat="31.383374"><ele>372</ele><time>2017-11-10T07:38:48.000Z</time></trkpt><trkpt lon="34.842266" lat="31.383374"><ele>372</ele><time>2017-11-10T07:38:49.000Z</time></trkpt><trkpt lon="34.842266" lat="31.383374"><ele>372</ele><time>2017-11-10T07:38:50.000Z</time></trkpt><trkpt lon="34.842266" lat="31.383374"><ele>372</ele><time>2017-11-10T07:38:51.000Z</time></trkpt><trkpt lon="34.842266" lat="31.383374"><ele>372</ele><time>2017-11-10T07:38:52.000Z</time></trkpt><trkpt lon="34.842266" lat="31.383374"><ele>372</ele><time>2017-11-10T07:38:53.000Z</time></trkpt><trkpt lon="34.842266" lat="31.383374"><ele>372</ele><time>2017-11-10T07:38:54.000Z</time></trkpt><trkpt lon="34.842266" lat="31.383374"><ele>372</ele><time>2017-11-10T07:38:55.000Z</time></trkpt><trkpt lon="34.842266" lat="31.383374"><ele>372</ele><time>2017-11-10T07:38:56.000Z</time></trkpt><trkpt lon="34.842266" lat="31.383374"><ele>372</ele><time>2017-11-10T07:38:57.000Z</time></trkpt><trkpt lon="34.842266" lat="31.383374"><ele>372</ele><time>2017-11-10T07:38:58.000Z</time></trkpt><trkpt lon="34.842266" lat="31.383374"><ele>372</ele><time>2017-11-10T07:38:59.000Z</time></trkpt><trkpt lon="34.842266" lat="31.383374"><ele>372</ele><time>2017-11-10T07:39:00.000Z</time></trkpt><trkpt lon="34.842266" lat="31.383374"><ele>372</ele><time>2017-11-10T07:39:01.000Z</time></trkpt><trkpt lon="34.842266" lat="31.383374"><ele>372</ele><time>2017-11-10T07:39:02.000Z</time></trkpt><trkpt lon="34.842266" lat="31.383374"><ele>372</ele><time>2017-11-10T07:39:03.000Z</time></trkpt><trkpt lon="34.842266" lat="31.383374"><ele>372</ele><time>2017-11-10T07:39:04.000Z</time></trkpt><trkpt lon="34.842266" lat="31.383374"><ele>372</ele><time>2017-11-10T07:39:05.000Z</time></trkpt><trkpt lon="34.842266" lat="31.383374"><ele>372</ele><time>2017-11-10T07:39:06.000Z</time></trkpt><trkpt lon="34.842266" lat="31.383374"><ele>372</ele><time>2017-11-10T07:39:07.000Z</time></trkpt><trkpt lon="34.842266" lat="31.383374"><ele>372</ele><time>2017-11-10T07:39:08.000Z</time></trkpt><trkpt lon="34.842266" lat="31.383374"><ele>372</ele><time>2017-11-10T07:39:09.000Z</time></trkpt><trkpt lon="34.842266" lat="31.383374"><ele>372</ele><time>2017-11-10T07:39:10.000Z</time></trkpt><trkpt lon="34.842266" lat="31.383374"><ele>372</ele><time>2017-11-10T07:39:11.000Z</time></trkpt><trkpt lon="34.842266" lat="31.383374"><ele>372</ele><time>2017-11-10T07:39:12.000Z</time></trkpt><trkpt lon="34.842266" lat="31.383374"><ele>372</ele><time>2017-11-10T07:39:13.000Z</time></trkpt><trkpt lon="34.842266" lat="31.383374"><ele>372</ele><time>2017-11-10T07:39:14.000Z</time></trkpt><trkpt lon="34.842266" lat="31.383374"><ele>372</ele><time>2017-11-10T07:39:15.000Z</time></trkpt><trkpt lon="34.842266" lat="31.383374"><ele>372</ele><time>2017-11-10T07:39:16.000Z</time></trkpt><trkpt lon="34.842266" lat="31.383374"><ele>372</ele><time>2017-11-10T07:39:17.000Z</time></trkpt><trkpt lon="34.842266" lat="31.383374"><ele>372</ele><time>2017-11-10T07:39:18.000Z</time></trkpt><trkpt lon="34.842266" lat="31.383374"><ele>372</ele><time>2017-11-10T07:39:19.000Z</time></trkpt><trkpt lon="34.842266" lat="31.383374"><ele>372</ele><time>2017-11-10T07:39:20.000Z</time></trkpt><trkpt lon="34.842266" lat="31.383374"><ele>372</ele><time>2017-11-10T07:39:21.000Z</time></trkpt><trkpt lon="34.842266" lat="31.383374"><ele>372</ele><time>2017-11-10T07:39:22.000Z</time></trkpt><trkpt lon="34.842266" lat="31.383374"><ele>372</ele><time>2017-11-10T07:39:23.000Z</time></trkpt><trkpt lon="34.842266" lat="31.383374"><ele>372</ele><time>2017-11-10T07:39:24.000Z</time></trkpt><trkpt lon="34.842266" lat="31.383374"><ele>372</ele><time>2017-11-10T07:39:25.000Z</time></trkpt><trkpt lon="34.842266" lat="31.383374"><ele>372</ele><time>2017-11-10T07:39:26.000Z</time></trkpt><trkpt lon="34.842266" lat="31.383374"><ele>372</ele><time>2017-11-10T07:39:27.000Z</time></trkpt><trkpt lon="34.842266" lat="31.383374"><ele>372</ele><time>2017-11-10T07:39:28.000Z</time></trkpt><trkpt lon="34.842266" lat="31.383374"><ele>372</ele><time>2017-11-10T07:39:29.000Z</time></trkpt><trkpt lon="34.842266" lat="31.383374"><ele>372</ele><time>2017-11-10T07:39:30.000Z</time></trkpt><trkpt lon="34.842266" lat="31.383374"><ele>372</ele><time>2017-11-10T07:39:31.000Z</time></trkpt><trkpt lon="34.842266" lat="31.383374"><ele>372</ele><time>2017-11-10T07:39:32.000Z</time></trkpt><trkpt lon="34.842266" lat="31.383374"><ele>372</ele><time>2017-11-10T07:39:33.000Z</time></trkpt><trkpt lon="34.842266" lat="31.383374"><ele>372</ele><time>2017-11-10T07:39:34.000Z</time></trkpt><trkpt lon="34.842266" lat="31.383374"><ele>372</ele><time>2017-11-10T07:39:35.000Z</time></trkpt><trkpt lon="34.842266" lat="31.383374"><ele>372</ele><time>2017-11-10T07:39:36.000Z</time></trkpt><trkpt lon="34.842266" lat="31.383374"><ele>372</ele><time>2017-11-10T07:39:37.000Z</time></trkpt><trkpt lon="34.842266" lat="31.383374"><ele>372</ele><time>2017-11-10T07:39:38.000Z</time></trkpt><trkpt lon="34.842266" lat="31.383374"><ele>372</ele><time>2017-11-10T07:39:39.000Z</time></trkpt><trkpt lon="34.842266" lat="31.383374"><ele>372</ele><time>2017-11-10T07:39:40.000Z</time></trkpt><trkpt lon="34.842266" lat="31.383374"><ele>372</ele><time>2017-11-10T07:39:41.000Z</time></trkpt><trkpt lon="34.842266" lat="31.383374"><ele>372</ele><time>2017-11-10T07:39:42.000Z</time></trkpt><trkpt lon="34.842266" lat="31.383374"><ele>372</ele><time>2017-11-10T07:39:43.000Z</time></trkpt><trkpt lon="34.842266" lat="31.383374"><ele>372</ele><time>2017-11-10T07:39:44.000Z</time></trkpt><trkpt lon="34.842266" lat="31.383374"><ele>372</ele><time>2017-11-10T07:39:45.000Z</time></trkpt><trkpt lon="34.842266" lat="31.383374"><ele>372</ele><time>2017-11-10T07:39:46.000Z</time></trkpt><trkpt lon="34.842266" lat="31.383374"><ele>371</ele><time>2017-11-10T07:39:47.000Z</time></trkpt><trkpt lon="34.842266" lat="31.383374"><ele>371</ele><time>2017-11-10T07:39:48.000Z</time></trkpt><trkpt lon="34.842266" lat="31.383374"><ele>371</ele><time>2017-11-10T07:39:49.000Z</time></trkpt><trkpt lon="34.842266" lat="31.383374"><ele>371</ele><time>2017-11-10T07:39:50.000Z</time></trkpt><trkpt lon="34.842266" lat="31.383374"><ele>371</ele><time>2017-11-10T07:39:51.000Z</time></trkpt><trkpt lon="34.842266" lat="31.383374"><ele>371</ele><time>2017-11-10T07:39:52.000Z</time></trkpt><trkpt lon="34.842266" lat="31.383374"><ele>371</ele><time>2017-11-10T07:39:53.000Z</time></trkpt><trkpt lon="34.842266" lat="31.383374"><ele>371</ele><time>2017-11-10T07:39:54.000Z</time></trkpt><trkpt lon="34.842266" lat="31.383374"><ele>371</ele><time>2017-11-10T07:39:55.000Z</time></trkpt><trkpt lon="34.842266" lat="31.383374"><ele>371</ele><time>2017-11-10T07:39:56.000Z</time></trkpt><trkpt lon="34.842266" lat="31.383374"><ele>371</ele><time>2017-11-10T07:39:57.000Z</time></trkpt><trkpt lon="34.842266" lat="31.383374"><ele>371</ele><time>2017-11-10T07:39:58.000Z</time></trkpt><trkpt lon="34.842266" lat="31.383374"><ele>371</ele><time>2017-11-10T07:39:59.000Z</time></trkpt><trkpt lon="34.842266" lat="31.383374"><ele>371</ele><time>2017-11-10T07:40:00.000Z</time></trkpt><trkpt lon="34.842266" lat="31.383374"><ele>371</ele><time>2017-11-10T07:40:01.000Z</time></trkpt><trkpt lon="34.842266" lat="31.383374"><ele>371</ele><time>2017-11-10T07:40:02.000Z</time></trkpt><trkpt lon="34.842266" lat="31.383374"><ele>372</ele><time>2017-11-10T07:40:03.000Z</time></trkpt><trkpt lon="34.842266" lat="31.383374"><ele>372</ele><time>2017-11-10T07:40:04.000Z</time></trkpt><trkpt lon="34.842266" lat="31.383374"><ele>372</ele><time>2017-11-10T07:40:05.000Z</time></trkpt><trkpt lon="34.842266" lat="31.383374"><ele>372</ele><time>2017-11-10T07:40:06.000Z</time></trkpt><trkpt lon="34.842266" lat="31.383374"><ele>372</ele><time>2017-11-10T07:40:07.000Z</time></trkpt><trkpt lon="34.842266" lat="31.383374"><ele>372</ele><time>2017-11-10T07:40:08.000Z</time></trkpt><trkpt lon="34.842266" lat="31.383374"><ele>372</ele><time>2017-11-10T07:40:09.000Z</time></trkpt><trkpt lon="34.842266" lat="31.383374"><ele>372</ele><time>2017-11-10T07:40:10.000Z</time></trkpt><trkpt lon="34.842266" lat="31.383374"><ele>372</ele><time>2017-11-10T07:40:11.000Z</time></trkpt><trkpt lon="34.842266" lat="31.383374"><ele>372</ele><time>2017-11-10T07:40:12.000Z</time></trkpt><trkpt lon="34.842266" lat="31.383374"><ele>372</ele><time>2017-11-10T07:40:13.000Z</time></trkpt><trkpt lon="34.842266" lat="31.383374"><ele>372</ele><time>2017-11-10T07:40:14.000Z</time></trkpt><trkpt lon="34.842266" lat="31.383374"><ele>372</ele><time>2017-11-10T07:40:15.000Z</time></trkpt><trkpt lon="34.842266" lat="31.383374"><ele>372</ele><time>2017-11-10T07:40:16.000Z</time></trkpt><trkpt lon="34.842266" lat="31.383374"><ele>372</ele><time>2017-11-10T07:40:17.000Z</time></trkpt><trkpt lon="34.842266" lat="31.383374"><ele>372</ele><time>2017-11-10T07:40:18.000Z</time></trkpt><trkpt lon="34.842266" lat="31.383374"><ele>372</ele><time>2017-11-10T07:40:19.000Z</time></trkpt><trkpt lon="34.842266" lat="31.383374"><ele>372</ele><time>2017-11-10T07:40:20.000Z</time></trkpt><trkpt lon="34.842266" lat="31.383374"><ele>372</ele><time>2017-11-10T07:40:21.000Z</time></trkpt><trkpt lon="34.842266" lat="31.383374"><ele>372</ele><time>2017-11-10T07:40:22.000Z</time></trkpt><trkpt lon="34.842266" lat="31.383374"><ele>372</ele><time>2017-11-10T07:40:23.000Z</time></trkpt><trkpt lon="34.842266" lat="31.383374"><ele>372</ele><time>2017-11-10T07:40:24.000Z</time></trkpt><trkpt lon="34.842266" lat="31.383374"><ele>371</ele><time>2017-11-10T07:40:25.000Z</time></trkpt><trkpt lon="34.842266" lat="31.383374"><ele>371</ele><time>2017-11-10T07:40:26.000Z</time></trkpt><trkpt lon="34.842266" lat="31.383374"><ele>371</ele><time>2017-11-10T07:40:27.000Z</time></trkpt><trkpt lon="34.842266" lat="31.383374"><ele>371</ele><time>2017-11-10T07:40:28.000Z</time></trkpt><trkpt lon="34.842266" lat="31.383374"><ele>371</ele><time>2017-11-10T07:40:29.000Z</time></trkpt><trkpt lon="34.842266" lat="31.383374"><ele>371</ele><time>2017-11-10T07:40:30.000Z</time></trkpt><trkpt lon="34.842266" lat="31.383374"><ele>371</ele><time>2017-11-10T07:40:31.000Z</time></trkpt><trkpt lon="34.842266" lat="31.383374"><ele>371</ele><time>2017-11-10T07:40:32.000Z</time></trkpt><trkpt lon="34.842266" lat="31.383374"><ele>371</ele><time>2017-11-10T07:40:33.000Z</time></trkpt><trkpt lon="34.842266" lat="31.383374"><ele>371</ele><time>2017-11-10T07:40:34.000Z</time></trkpt><trkpt lon="34.842266" lat="31.383374"><ele>371</ele><time>2017-11-10T07:40:35.000Z</time></trkpt><trkpt lon="34.842266" lat="31.383374"><ele>371</ele><time>2017-11-10T07:40:36.000Z</time></trkpt><trkpt lon="34.842266" lat="31.383374"><ele>371</ele><time>2017-11-10T07:40:37.000Z</time></trkpt><trkpt lon="34.842266" lat="31.383374"><ele>371</ele><time>2017-11-10T07:40:38.000Z</time></trkpt><trkpt lon="34.842266" lat="31.383374"><ele>371</ele><time>2017-11-10T07:40:39.000Z</time></trkpt><trkpt lon="34.842266" lat="31.383374"><ele>371</ele><time>2017-11-10T07:40:40.000Z</time></trkpt><trkpt lon="34.842266" lat="31.383374"><ele>371</ele><time>2017-11-10T07:40:41.000Z</time></trkpt><trkpt lon="34.842266" lat="31.383374"><ele>371</ele><time>2017-11-10T07:40:42.000Z</time></trkpt><trkpt lon="34.842266" lat="31.383374"><ele>371</ele><time>2017-11-10T07:40:43.000Z</time></trkpt><trkpt lon="34.842266" lat="31.383374"><ele>371</ele><time>2017-11-10T07:40:44.000Z</time></trkpt><trkpt lon="34.842266" lat="31.383374"><ele>371</ele><time>2017-11-10T07:40:45.000Z</time></trkpt><trkpt lon="34.842266" lat="31.383374"><ele>371</ele><time>2017-11-10T07:40:46.000Z</time></trkpt><trkpt lon="34.842266" lat="31.383374"><ele>371</ele><time>2017-11-10T07:40:47.000Z</time></trkpt><trkpt lon="34.842266" lat="31.383374"><ele>371</ele><time>2017-11-10T07:40:48.000Z</time></trkpt><trkpt lon="34.842266" lat="31.383374"><ele>371</ele><time>2017-11-10T07:40:49.000Z</time></trkpt><trkpt lon="34.842266" lat="31.383374"><ele>371</ele><time>2017-11-10T07:40:50.000Z</time></trkpt><trkpt lon="34.842266" lat="31.383374"><ele>371</ele><time>2017-11-10T07:40:51.000Z</time></trkpt><trkpt lon="34.842266" lat="31.383374"><ele>371</ele><time>2017-11-10T07:40:52.000Z</time></trkpt><trkpt lon="34.842266" lat="31.383374"><ele>371</ele><time>2017-11-10T07:40:53.000Z</time></trkpt><trkpt lon="34.842266" lat="31.383374"><ele>371</ele><time>2017-11-10T07:40:54.000Z</time></trkpt><trkpt lon="34.842266" lat="31.383374"><ele>371</ele><time>2017-11-10T07:40:55.000Z</time></trkpt><trkpt lon="34.842266" lat="31.383374"><ele>371</ele><time>2017-11-10T07:40:56.000Z</time></trkpt><trkpt lon="34.842266" lat="31.383374"><ele>371</ele><time>2017-11-10T07:40:57.000Z</time></trkpt><trkpt lon="34.842266" lat="31.383374"><ele>371</ele><time>2017-11-10T07:40:58.000Z</time></trkpt><trkpt lon="34.842266" lat="31.383374"><ele>371</ele><time>2017-11-10T07:40:59.000Z</time></trkpt><trkpt lon="34.842266" lat="31.383374"><ele>371</ele><time>2017-11-10T07:41:00.000Z</time></trkpt><trkpt lon="34.842266" lat="31.383374"><ele>371</ele><time>2017-11-10T07:41:01.000Z</time></trkpt><trkpt lon="34.842266" lat="31.383374"><ele>371</ele><time>2017-11-10T07:41:02.000Z</time></trkpt><trkpt lon="34.842266" lat="31.383374"><ele>371</ele><time>2017-11-10T07:41:03.000Z</time></trkpt><trkpt lon="34.842266" lat="31.383374"><ele>371</ele><time>2017-11-10T07:41:04.000Z</time></trkpt><trkpt lon="34.842266" lat="31.383374"><ele>371</ele><time>2017-11-10T07:41:05.000Z</time></trkpt><trkpt lon="34.842266" lat="31.383374"><ele>371</ele><time>2017-11-10T07:41:06.000Z</time></trkpt><trkpt lon="34.842266" lat="31.383374"><ele>371</ele><time>2017-11-10T07:41:07.000Z</time></trkpt><trkpt lon="34.842266" lat="31.383374"><ele>371</ele><time>2017-11-10T07:41:08.000Z</time></trkpt><trkpt lon="34.842266" lat="31.383374"><ele>371</ele><time>2017-11-10T07:41:09.000Z</time></trkpt><trkpt lon="34.842266" lat="31.383374"><ele>371</ele><time>2017-11-10T07:41:10.000Z</time></trkpt><trkpt lon="34.842266" lat="31.383374"><ele>371</ele><time>2017-11-10T07:41:11.000Z</time></trkpt><trkpt lon="34.842266" lat="31.383374"><ele>371</ele><time>2017-11-10T07:41:12.000Z</time></trkpt><trkpt lon="34.842266" lat="31.383374"><ele>371</ele><time>2017-11-10T07:41:13.000Z</time></trkpt><trkpt lon="34.842266" lat="31.383374"><ele>371</ele><time>2017-11-10T07:41:14.000Z</time></trkpt><trkpt lon="34.842266" lat="31.383374"><ele>371</ele><time>2017-11-10T07:41:15.000Z</time></trkpt><trkpt lon="34.842266" lat="31.383374"><ele>371</ele><time>2017-11-10T07:41:16.000Z</time></trkpt><trkpt lon="34.842266" lat="31.383374"><ele>371</ele><time>2017-11-10T07:41:17.000Z</time></trkpt><trkpt lon="34.842266" lat="31.383374"><ele>371</ele><time>2017-11-10T07:41:18.000Z</time></trkpt><trkpt lon="34.842266" lat="31.383374"><ele>371</ele><time>2017-11-10T07:41:19.000Z</time></trkpt><trkpt lon="34.842266" lat="31.383374"><ele>371</ele><time>2017-11-10T07:41:20.000Z</time></trkpt><trkpt lon="34.842266" lat="31.383374"><ele>371</ele><time>2017-11-10T07:41:21.000Z</time></trkpt><trkpt lon="34.842266" lat="31.383374"><ele>371</ele><time>2017-11-10T07:41:22.000Z</time></trkpt><trkpt lon="34.842266" lat="31.383374"><ele>371</ele><time>2017-11-10T07:41:23.000Z</time></trkpt><trkpt lon="34.842266" lat="31.383374"><ele>371</ele><time>2017-11-10T07:41:24.000Z</time></trkpt><trkpt lon="34.842266" lat="31.383374"><ele>371</ele><time>2017-11-10T07:41:25.000Z</time></trkpt><trkpt lon="34.842266" lat="31.383374"><ele>371</ele><time>2017-11-10T07:41:26.000Z</time></trkpt><trkpt lon="34.842266" lat="31.383374"><ele>371</ele><time>2017-11-10T07:41:27.000Z</time></trkpt><trkpt lon="34.842266" lat="31.383374"><ele>371</ele><time>2017-11-10T07:41:28.000Z</time></trkpt><trkpt lon="34.842266" lat="31.383374"><ele>371</ele><time>2017-11-10T07:41:29.000Z</time></trkpt><trkpt lon="34.842266" lat="31.383374"><ele>371</ele><time>2017-11-10T07:41:30.000Z</time></trkpt><trkpt lon="34.842266" lat="31.383374"><ele>370</ele><time>2017-11-10T07:41:31.000Z</time></trkpt><trkpt lon="34.842266" lat="31.383374"><ele>370</ele><time>2017-11-10T07:41:32.000Z</time></trkpt><trkpt lon="34.842266" lat="31.383374"><ele>370</ele><time>2017-11-10T07:41:33.000Z</time></trkpt><trkpt lon="34.842266" lat="31.383374"><ele>371</ele><time>2017-11-10T07:41:34.000Z</time></trkpt><trkpt lon="34.842266" lat="31.383374"><ele>371</ele><time>2017-11-10T07:41:35.000Z</time></trkpt><trkpt lon="34.842266" lat="31.383374"><ele>371</ele><time>2017-11-10T07:41:36.000Z</time></trkpt><trkpt lon="34.842266" lat="31.383374"><ele>371</ele><time>2017-11-10T07:41:37.000Z</time></trkpt><trkpt lon="34.842266" lat="31.383374"><ele>371</ele><time>2017-11-10T07:41:38.000Z</time></trkpt><trkpt lon="34.842266" lat="31.383374"><ele>371</ele><time>2017-11-10T07:41:39.000Z</time></trkpt><trkpt lon="34.842266" lat="31.383374"><ele>371</ele><time>2017-11-10T07:41:40.000Z</time></trkpt><trkpt lon="34.842266" lat="31.383374"><ele>371</ele><time>2017-11-10T07:41:41.000Z</time></trkpt><trkpt lon="34.842266" lat="31.383374"><ele>371</ele><time>2017-11-10T07:41:42.000Z</time></trkpt><trkpt lon="34.842266" lat="31.383374"><ele>371</ele><time>2017-11-10T07:41:43.000Z</time></trkpt><trkpt lon="34.842266" lat="31.383374"><ele>371</ele><time>2017-11-10T07:41:44.000Z</time></trkpt><trkpt lon="34.842266" lat="31.383374"><ele>371</ele><time>2017-11-10T07:41:45.000Z</time></trkpt><trkpt lon="34.842266" lat="31.383374"><ele>371</ele><time>2017-11-10T07:41:46.000Z</time></trkpt><trkpt lon="34.842266" lat="31.383374"><ele>371</ele><time>2017-11-10T07:41:47.000Z</time></trkpt><trkpt lon="34.842266" lat="31.383374"><ele>371</ele><time>2017-11-10T07:41:48.000Z</time></trkpt><trkpt lon="34.842266" lat="31.383374"><ele>371</ele><time>2017-11-10T07:41:49.000Z</time></trkpt><trkpt lon="34.842266" lat="31.383374"><ele>371</ele><time>2017-11-10T07:41:50.000Z</time></trkpt><trkpt lon="34.842266" lat="31.383374"><ele>371</ele><time>2017-11-10T07:41:51.000Z</time></trkpt><trkpt lon="34.842266" lat="31.383374"><ele>371</ele><time>2017-11-10T07:41:52.000Z</time></trkpt><trkpt lon="34.842266" lat="31.383374"><ele>371</ele><time>2017-11-10T07:41:53.000Z</time></trkpt><trkpt lon="34.842266" lat="31.383374"><ele>371</ele><time>2017-11-10T07:41:54.000Z</time></trkpt><trkpt lon="34.842266" lat="31.383374"><ele>371</ele><time>2017-11-10T07:41:55.000Z</time></trkpt><trkpt lon="34.842266" lat="31.383374"><ele>371</ele><time>2017-11-10T07:41:56.000Z</time></trkpt><trkpt lon="34.842266" lat="31.383374"><ele>371</ele><time>2017-11-10T07:41:57.000Z</time></trkpt><trkpt lon="34.842266" lat="31.383374"><ele>371</ele><time>2017-11-10T07:41:58.000Z</time></trkpt><trkpt lon="34.842266" lat="31.383374"><ele>371</ele><time>2017-11-10T07:41:59.000Z</time></trkpt><trkpt lon="34.842266" lat="31.383374"><ele>371</ele><time>2017-11-10T07:42:00.000Z</time></trkpt><trkpt lon="34.842266" lat="31.383374"><ele>371</ele><time>2017-11-10T07:42:01.000Z</time></trkpt><trkpt lon="34.842266" lat="31.383374"><ele>371</ele><time>2017-11-10T07:42:02.000Z</time></trkpt><trkpt lon="34.842266" lat="31.383374"><ele>371</ele><time>2017-11-10T07:42:03.000Z</time></trkpt><trkpt lon="34.842266" lat="31.383374"><ele>371</ele><time>2017-11-10T07:42:04.000Z</time></trkpt><trkpt lon="34.842266" lat="31.383374"><ele>371</ele><time>2017-11-10T07:42:05.000Z</time></trkpt><trkpt lon="34.842266" lat="31.383374"><ele>371</ele><time>2017-11-10T07:42:06.000Z</time></trkpt><trkpt lon="34.842266" lat="31.383374"><ele>371</ele><time>2017-11-10T07:42:07.000Z</time></trkpt><trkpt lon="34.842266" lat="31.383374"><ele>371</ele><time>2017-11-10T07:42:08.000Z</time></trkpt><trkpt lon="34.842266" lat="31.383374"><ele>371</ele><time>2017-11-10T07:42:09.000Z</time></trkpt><trkpt lon="34.842266" lat="31.383374"><ele>371</ele><time>2017-11-10T07:42:10.000Z</time></trkpt><trkpt lon="34.842266" lat="31.383374"><ele>371</ele><time>2017-11-10T07:42:11.000Z</time></trkpt><trkpt lon="34.842266" lat="31.383374"><ele>371</ele><time>2017-11-10T07:42:12.000Z</time></trkpt><trkpt lon="34.842266" lat="31.383374"><ele>371</ele><time>2017-11-10T07:42:13.000Z</time></trkpt><trkpt lon="34.842266" lat="31.383374"><ele>371</ele><time>2017-11-10T07:42:14.000Z</time></trkpt><trkpt lon="34.842266" lat="31.383374"><ele>371</ele><time>2017-11-10T07:42:15.000Z</time></trkpt><trkpt lon="34.842266" lat="31.383374"><ele>371</ele><time>2017-11-10T07:42:16.000Z</time></trkpt><trkpt lon="34.842266" lat="31.383374"><ele>371</ele><time>2017-11-10T07:42:17.000Z</time></trkpt><trkpt lon="34.842266" lat="31.383374"><ele>371</ele><time>2017-11-10T07:42:18.000Z</time></trkpt><trkpt lon="34.842266" lat="31.383374"><ele>371</ele><time>2017-11-10T07:42:19.000Z</time></trkpt><trkpt lon="34.842266" lat="31.383374"><ele>371</ele><time>2017-11-10T07:42:20.000Z</time></trkpt><trkpt lon="34.842266" lat="31.383374"><ele>371</ele><time>2017-11-10T07:42:21.000Z</time></trkpt><trkpt lon="34.842266" lat="31.383374"><ele>371</ele><time>2017-11-10T07:42:22.000Z</time></trkpt><trkpt lon="34.842266" lat="31.383374"><ele>371</ele><time>2017-11-10T07:42:23.000Z</time></trkpt><trkpt lon="34.842266" lat="31.383374"><ele>371</ele><time>2017-11-10T07:42:24.000Z</time></trkpt><trkpt lon="34.842266" lat="31.383374"><ele>371</ele><time>2017-11-10T07:42:25.000Z</time></trkpt><trkpt lon="34.842266" lat="31.383374"><ele>371</ele><time>2017-11-10T07:42:26.000Z</time></trkpt><trkpt lon="34.842266" lat="31.383374"><ele>371</ele><time>2017-11-10T07:42:27.000Z</time></trkpt><trkpt lon="34.842266" lat="31.383374"><ele>371</ele><time>2017-11-10T07:42:28.000Z</time></trkpt><trkpt lon="34.842266" lat="31.383374"><ele>371</ele><time>2017-11-10T07:42:29.000Z</time></trkpt><trkpt lon="34.842266" lat="31.383374"><ele>371</ele><time>2017-11-10T07:42:30.000Z</time></trkpt><trkpt lon="34.842266" lat="31.383374"><ele>371</ele><time>2017-11-10T07:42:31.000Z</time></trkpt><trkpt lon="34.842266" lat="31.383374"><ele>371</ele><time>2017-11-10T07:42:32.000Z</time></trkpt><trkpt lon="34.842266" lat="31.383374"><ele>371</ele><time>2017-11-10T07:42:33.000Z</time></trkpt><trkpt lon="34.842266" lat="31.383374"><ele>371</ele><time>2017-11-10T07:42:34.000Z</time></trkpt><trkpt lon="34.842266" lat="31.383374"><ele>371</ele><time>2017-11-10T07:42:35.000Z</time></trkpt><trkpt lon="34.842266" lat="31.383374"><ele>371</ele><time>2017-11-10T07:42:36.000Z</time></trkpt><trkpt lon="34.842266" lat="31.383374"><ele>371</ele><time>2017-11-10T07:42:37.000Z</time></trkpt><trkpt lon="34.842266" lat="31.383374"><ele>371</ele><time>2017-11-10T07:42:38.000Z</time></trkpt><trkpt lon="34.842266" lat="31.383374"><ele>371</ele><time>2017-11-10T07:42:39.000Z</time></trkpt><trkpt lon="34.842266" lat="31.383374"><ele>371</ele><time>2017-11-10T07:42:40.000Z</time></trkpt><trkpt lon="34.842266" lat="31.383374"><ele>371</ele><time>2017-11-10T07:42:41.000Z</time></trkpt><trkpt lon="34.842266" lat="31.383374"><ele>371</ele><time>2017-11-10T07:42:42.000Z</time></trkpt><trkpt lon="34.842266" lat="31.383374"><ele>371</ele><time>2017-11-10T07:42:43.000Z</time></trkpt><trkpt lon="34.842266" lat="31.383374"><ele>371</ele><time>2017-11-10T07:42:44.000Z</time></trkpt><trkpt lon="34.842266" lat="31.383374"><ele>371</ele><time>2017-11-10T07:42:45.000Z</time></trkpt><trkpt lon="34.842266" lat="31.383374"><ele>371</ele><time>2017-11-10T07:42:46.000Z</time></trkpt><trkpt lon="34.842266" lat="31.383374"><ele>372</ele><time>2017-11-10T07:42:47.000Z</time></trkpt><trkpt lon="34.842266" lat="31.383374"><ele>372</ele><time>2017-11-10T07:42:48.000Z</time></trkpt><trkpt lon="34.842266" lat="31.383374"><ele>372</ele><time>2017-11-10T07:42:49.000Z</time></trkpt><trkpt lon="34.842266" lat="31.383374"><ele>371</ele><time>2017-11-10T07:42:50.000Z</time></trkpt><trkpt lon="34.842266" lat="31.383374"><ele>371</ele><time>2017-11-10T07:42:51.000Z</time></trkpt><trkpt lon="34.842266" lat="31.383374"><ele>371</ele><time>2017-11-10T07:42:52.000Z</time></trkpt><trkpt lon="34.842266" lat="31.383374"><ele>371</ele><time>2017-11-10T07:42:53.000Z</time></trkpt><trkpt lon="34.842266" lat="31.383374"><ele>371</ele><time>2017-11-10T07:42:54.000Z</time></trkpt><trkpt lon="34.842266" lat="31.383374"><ele>371</ele><time>2017-11-10T07:42:55.000Z</time></trkpt><trkpt lon="34.842266" lat="31.383374"><ele>371</ele><time>2017-11-10T07:42:56.000Z</time></trkpt><trkpt lon="34.842266" lat="31.383374"><ele>371</ele><time>2017-11-10T07:42:57.000Z</time></trkpt><trkpt lon="34.842266" lat="31.383374"><ele>371</ele><time>2017-11-10T07:42:58.000Z</time></trkpt><trkpt lon="34.842266" lat="31.383374"><ele>371</ele><time>2017-11-10T07:42:59.000Z</time></trkpt><trkpt lon="34.842266" lat="31.383374"><ele>372</ele><time>2017-11-10T07:43:00.000Z</time></trkpt><trkpt lon="34.842266" lat="31.383374"><ele>372</ele><time>2017-11-10T07:43:01.000Z</time></trkpt><trkpt lon="34.842266" lat="31.383374"><ele>372</ele><time>2017-11-10T07:43:02.000Z</time></trkpt><trkpt lon="34.842266" lat="31.383374"><ele>371</ele><time>2017-11-10T07:43:03.000Z</time></trkpt><trkpt lon="34.842266" lat="31.383374"><ele>371</ele><time>2017-11-10T07:43:04.000Z</time></trkpt><trkpt lon="34.842266" lat="31.383374"><ele>371</ele><time>2017-11-10T07:43:05.000Z</time></trkpt><trkpt lon="34.842266" lat="31.383374"><ele>371</ele><time>2017-11-10T07:43:06.000Z</time></trkpt><trkpt lon="34.842266" lat="31.383374"><ele>371</ele><time>2017-11-10T07:43:07.000Z</time></trkpt><trkpt lon="34.842266" lat="31.383374"><ele>371</ele><time>2017-11-10T07:43:08.000Z</time></trkpt><trkpt lon="34.842266" lat="31.383374"><ele>371</ele><time>2017-11-10T07:43:09.000Z</time></trkpt><trkpt lon="34.842266" lat="31.383374"><ele>371</ele><time>2017-11-10T07:43:10.000Z</time></trkpt><trkpt lon="34.842266" lat="31.383374"><ele>371</ele><time>2017-11-10T07:43:11.000Z</time></trkpt><trkpt lon="34.842266" lat="31.383374"><ele>371</ele><time>2017-11-10T07:43:12.000Z</time></trkpt><trkpt lon="34.842266" lat="31.383374"><ele>371</ele><time>2017-11-10T07:43:13.000Z</time></trkpt><trkpt lon="34.842266" lat="31.383374"><ele>371</ele><time>2017-11-10T07:43:14.000Z</time></trkpt><trkpt lon="34.842266" lat="31.383374"><ele>371</ele><time>2017-11-10T07:43:15.000Z</time></trkpt><trkpt lon="34.842266" lat="31.383374"><ele>371</ele><time>2017-11-10T07:43:16.000Z</time></trkpt><trkpt lon="34.842266" lat="31.383374"><ele>371</ele><time>2017-11-10T07:43:17.000Z</time></trkpt><trkpt lon="34.842266" lat="31.383374"><ele>371</ele><time>2017-11-10T07:43:18.000Z</time></trkpt><trkpt lon="34.842266" lat="31.383374"><ele>371</ele><time>2017-11-10T07:43:19.000Z</time></trkpt><trkpt lon="34.842266" lat="31.383374"><ele>371</ele><time>2017-11-10T07:43:20.000Z</time></trkpt><trkpt lon="34.842266" lat="31.383374"><ele>371</ele><time>2017-11-10T07:43:21.000Z</time></trkpt><trkpt lon="34.842266" lat="31.383374"><ele>371</ele><time>2017-11-10T07:43:22.000Z</time></trkpt><trkpt lon="34.842266" lat="31.383374"><ele>371</ele><time>2017-11-10T07:43:23.000Z</time></trkpt><trkpt lon="34.842266" lat="31.383374"><ele>371</ele><time>2017-11-10T07:43:24.000Z</time></trkpt><trkpt lon="34.842266" lat="31.383374"><ele>371</ele><time>2017-11-10T07:43:25.000Z</time></trkpt><trkpt lon="34.842266" lat="31.383374"><ele>372</ele><time>2017-11-10T07:43:26.000Z</time></trkpt><trkpt lon="34.842266" lat="31.383374"><ele>372</ele><time>2017-11-10T07:43:27.000Z</time></trkpt><trkpt lon="34.842266" lat="31.383374"><ele>371</ele><time>2017-11-10T07:43:28.000Z</time></trkpt><trkpt lon="34.842266" lat="31.383374"><ele>371</ele><time>2017-11-10T07:43:29.000Z</time></trkpt><trkpt lon="34.842266" lat="31.383374"><ele>371</ele><time>2017-11-10T07:43:30.000Z</time></trkpt><trkpt lon="34.842266" lat="31.383374"><ele>371</ele><time>2017-11-10T07:43:31.000Z</time></trkpt><trkpt lon="34.842266" lat="31.383374"><ele>371</ele><time>2017-11-10T07:43:32.000Z</time></trkpt><trkpt lon="34.842266" lat="31.383374"><ele>371</ele><time>2017-11-10T07:43:33.000Z</time></trkpt><trkpt lon="34.842266" lat="31.383374"><ele>371</ele><time>2017-11-10T07:43:34.000Z</time></trkpt><trkpt lon="34.842266" lat="31.383374"><ele>371</ele><time>2017-11-10T07:43:35.000Z</time></trkpt><trkpt lon="34.842266" lat="31.383374"><ele>372</ele><time>2017-11-10T07:43:36.000Z</time></trkpt><trkpt lon="34.842266" lat="31.383374"><ele>372</ele><time>2017-11-10T07:43:37.000Z</time></trkpt><trkpt lon="34.842266" lat="31.383374"><ele>371</ele><time>2017-11-10T07:43:38.000Z</time></trkpt><trkpt lon="34.842266" lat="31.383374"><ele>371</ele><time>2017-11-10T07:43:39.000Z</time></trkpt><trkpt lon="34.842266" lat="31.383374"><ele>371</ele><time>2017-11-10T07:43:40.000Z</time></trkpt><trkpt lon="34.842266" lat="31.383374"><ele>371</ele><time>2017-11-10T07:43:41.000Z</time></trkpt><trkpt lon="34.842266" lat="31.383374"><ele>371</ele><time>2017-11-10T07:43:42.000Z</time></trkpt><trkpt lon="34.842266" lat="31.383374"><ele>371</ele><time>2017-11-10T07:43:43.000Z</time></trkpt><trkpt lon="34.842266" lat="31.383374"><ele>371</ele><time>2017-11-10T07:43:44.000Z</time></trkpt><trkpt lon="34.842266" lat="31.383374"><ele>371</ele><time>2017-11-10T07:43:45.000Z</time></trkpt><trkpt lon="34.842266" lat="31.383374"><ele>371</ele><time>2017-11-10T07:43:46.000Z</time></trkpt><trkpt lon="34.842266" lat="31.383374"><ele>371</ele><time>2017-11-10T07:43:47.000Z</time></trkpt><trkpt lon="34.842266" lat="31.383374"><ele>371</ele><time>2017-11-10T07:43:48.000Z</time></trkpt><trkpt lon="34.842266" lat="31.383374"><ele>371</ele><time>2017-11-10T07:43:49.000Z</time></trkpt><trkpt lon="34.842266" lat="31.383374"><ele>371</ele><time>2017-11-10T07:43:50.000Z</time></trkpt><trkpt lon="34.842266" lat="31.383374"><ele>371</ele><time>2017-11-10T07:43:51.000Z</time></trkpt><trkpt lon="34.842266" lat="31.383374"><ele>371</ele><time>2017-11-10T07:43:52.000Z</time></trkpt><trkpt lon="34.842266" lat="31.383374"><ele>371</ele><time>2017-11-10T07:43:53.000Z</time></trkpt><trkpt lon="34.842266" lat="31.383374"><ele>371</ele><time>2017-11-10T07:43:54.000Z</time></trkpt><trkpt lon="34.842266" lat="31.383374"><ele>371</ele><time>2017-11-10T07:43:55.000Z</time></trkpt><trkpt lon="34.842266" lat="31.383374"><ele>371</ele><time>2017-11-10T07:43:56.000Z</time></trkpt><trkpt lon="34.842266" lat="31.383374"><ele>371</ele><time>2017-11-10T07:43:57.000Z</time></trkpt><trkpt lon="34.842266" lat="31.383374"><ele>371</ele><time>2017-11-10T07:43:58.000Z</time></trkpt><trkpt lon="34.842266" lat="31.383374"><ele>372</ele><time>2017-11-10T07:43:59.000Z</time></trkpt><trkpt lon="34.842266" lat="31.383374"><ele>372</ele><time>2017-11-10T07:44:00.000Z</time></trkpt><trkpt lon="34.842266" lat="31.383374"><ele>372</ele><time>2017-11-10T07:44:01.000Z</time></trkpt><trkpt lon="34.842266" lat="31.383374"><ele>372</ele><time>2017-11-10T07:44:02.000Z</time></trkpt><trkpt lon="34.842266" lat="31.383374"><ele>372</ele><time>2017-11-10T07:44:03.000Z</time></trkpt><trkpt lon="34.842266" lat="31.383374"><ele>372</ele><time>2017-11-10T07:44:04.000Z</time></trkpt><trkpt lon="34.842266" lat="31.383374"><ele>372</ele><time>2017-11-10T07:44:05.000Z</time></trkpt><trkpt lon="34.842266" lat="31.383374"><ele>372</ele><time>2017-11-10T07:44:06.000Z</time></trkpt><trkpt lon="34.842266" lat="31.383374"><ele>372</ele><time>2017-11-10T07:44:07.000Z</time></trkpt><trkpt lon="34.842266" lat="31.383374"><ele>372</ele><time>2017-11-10T07:44:08.000Z</time></trkpt><trkpt lon="34.842266" lat="31.383374"><ele>371</ele><time>2017-11-10T07:44:09.000Z</time></trkpt><trkpt lon="34.842266" lat="31.383374"><ele>371</ele><time>2017-11-10T07:44:10.000Z</time></trkpt><trkpt lon="34.842266" lat="31.383374"><ele>371</ele><time>2017-11-10T07:44:11.000Z</time></trkpt><trkpt lon="34.842266" lat="31.383374"><ele>371</ele><time>2017-11-10T07:44:12.000Z</time></trkpt><trkpt lon="34.842266" lat="31.383374"><ele>371</ele><time>2017-11-10T07:44:13.000Z</time></trkpt><trkpt lon="34.842266" lat="31.383374"><ele>371</ele><time>2017-11-10T07:44:14.000Z</time></trkpt><trkpt lon="34.842266" lat="31.383374"><ele>371</ele><time>2017-11-10T07:44:15.000Z</time></trkpt><trkpt lon="34.842266" lat="31.383374"><ele>371</ele><time>2017-11-10T07:44:16.000Z</time></trkpt><trkpt lon="34.842266" lat="31.383374"><ele>371</ele><time>2017-11-10T07:44:17.000Z</time></trkpt><trkpt lon="34.842266" lat="31.383374"><ele>371</ele><time>2017-11-10T07:44:18.000Z</time></trkpt><trkpt lon="34.842266" lat="31.383374"><ele>371</ele><time>2017-11-10T07:44:19.000Z</time></trkpt><trkpt lon="34.842266" lat="31.383374"><ele>371</ele><time>2017-11-10T07:44:20.000Z</time></trkpt><trkpt lon="34.842266" lat="31.383374"><ele>371</ele><time>2017-11-10T07:44:21.000Z</time></trkpt><trkpt lon="34.842266" lat="31.383374"><ele>371</ele><time>2017-11-10T07:44:22.000Z</time></trkpt><trkpt lon="34.842266" lat="31.383374"><ele>371</ele><time>2017-11-10T07:44:23.000Z</time></trkpt><trkpt lon="34.842266" lat="31.383374"><ele>371</ele><time>2017-11-10T07:44:24.000Z</time></trkpt><trkpt lon="34.842266" lat="31.383374"><ele>372</ele><time>2017-11-10T07:44:25.000Z</time></trkpt><trkpt lon="34.842266" lat="31.383374"><ele>372</ele><time>2017-11-10T07:44:26.000Z</time></trkpt><trkpt lon="34.842266" lat="31.383374"><ele>372</ele><time>2017-11-10T07:44:27.000Z</time></trkpt><trkpt lon="34.842266" lat="31.383374"><ele>372</ele><time>2017-11-10T07:44:28.000Z</time></trkpt><trkpt lon="34.842266" lat="31.383374"><ele>372</ele><time>2017-11-10T07:44:29.000Z</time></trkpt><trkpt lon="34.842266" lat="31.383374"><ele>372</ele><time>2017-11-10T07:44:30.000Z</time></trkpt><trkpt lon="34.842266" lat="31.383374"><ele>371</ele><time>2017-11-10T07:44:31.000Z</time></trkpt><trkpt lon="34.842266" lat="31.383374"><ele>371</ele><time>2017-11-10T07:44:32.000Z</time></trkpt><trkpt lon="34.842266" lat="31.383374"><ele>371</ele><time>2017-11-10T07:44:33.000Z</time></trkpt><trkpt lon="34.842266" lat="31.383374"><ele>371</ele><time>2017-11-10T07:44:34.000Z</time></trkpt><trkpt lon="34.842266" lat="31.383374"><ele>371</ele><time>2017-11-10T07:44:35.000Z</time></trkpt><trkpt lon="34.842266" lat="31.383374"><ele>371</ele><time>2017-11-10T07:44:36.000Z</time></trkpt><trkpt lon="34.842266" lat="31.383374"><ele>371</ele><time>2017-11-10T07:44:37.000Z</time></trkpt><trkpt lon="34.842266" lat="31.383374"><ele>371</ele><time>2017-11-10T07:44:38.000Z</time></trkpt><trkpt lon="34.842266" lat="31.383374"><ele>371</ele><time>2017-11-10T07:44:39.000Z</time></trkpt><trkpt lon="34.842266" lat="31.383374"><ele>371</ele><time>2017-11-10T07:44:40.000Z</time></trkpt><trkpt lon="34.842266" lat="31.383374"><ele>371</ele><time>2017-11-10T07:44:41.000Z</time></trkpt><trkpt lon="34.842266" lat="31.383374"><ele>371</ele><time>2017-11-10T07:44:42.000Z</time></trkpt><trkpt lon="34.842266" lat="31.383374"><ele>371</ele><time>2017-11-10T07:44:43.000Z</time></trkpt><trkpt lon="34.842266" lat="31.383374"><ele>371</ele><time>2017-11-10T07:44:44.000Z</time></trkpt><trkpt lon="34.842266" lat="31.383374"><ele>371</ele><time>2017-11-10T07:44:45.000Z</time></trkpt><trkpt lon="34.842266" lat="31.383374"><ele>371</ele><time>2017-11-10T07:44:46.000Z</time></trkpt><trkpt lon="34.842266" lat="31.383374"><ele>371</ele><time>2017-11-10T07:44:47.000Z</time></trkpt><trkpt lon="34.842266" lat="31.383374"><ele>371</ele><time>2017-11-10T07:44:48.000Z</time></trkpt><trkpt lon="34.842266" lat="31.383374"><ele>371</ele><time>2017-11-10T07:44:49.000Z</time></trkpt><trkpt lon="34.842266" lat="31.383374"><ele>371</ele><time>2017-11-10T07:44:50.000Z</time></trkpt><trkpt lon="34.842266" lat="31.383374"><ele>371</ele><time>2017-11-10T07:44:51.000Z</time></trkpt><trkpt lon="34.842266" lat="31.383374"><ele>371</ele><time>2017-11-10T07:44:52.000Z</time></trkpt><trkpt lon="34.842266" lat="31.383374"><ele>371</ele><time>2017-11-10T07:44:53.000Z</time></trkpt><trkpt lon="34.842266" lat="31.383374"><ele>371</ele><time>2017-11-10T07:44:54.000Z</time></trkpt><trkpt lon="34.842266" lat="31.383374"><ele>371</ele><time>2017-11-10T07:44:55.000Z</time></trkpt><trkpt lon="34.842266" lat="31.383374"><ele>371</ele><time>2017-11-10T07:44:56.000Z</time></trkpt><trkpt lon="34.842266" lat="31.383374"><ele>371</ele><time>2017-11-10T07:44:57.000Z</time></trkpt><trkpt lon="34.842266" lat="31.383374"><ele>371</ele><time>2017-11-10T07:44:58.000Z</time></trkpt><trkpt lon="34.842266" lat="31.383374"><ele>371</ele><time>2017-11-10T07:44:59.000Z</time></trkpt><trkpt lon="34.842266" lat="31.383374"><ele>371</ele><time>2017-11-10T07:45:00.000Z</time></trkpt><trkpt lon="34.842266" lat="31.383374"><ele>371</ele><time>2017-11-10T07:45:01.000Z</time></trkpt><trkpt lon="34.842266" lat="31.383374"><ele>371</ele><time>2017-11-10T07:45:02.000Z</time></trkpt><trkpt lon="34.842266" lat="31.383374"><ele>371</ele><time>2017-11-10T07:45:03.000Z</time></trkpt><trkpt lon="34.842266" lat="31.383374"><ele>371</ele><time>2017-11-10T07:45:04.000Z</time></trkpt><trkpt lon="34.842266" lat="31.383374"><ele>371</ele><time>2017-11-10T07:45:05.000Z</time></trkpt><trkpt lon="34.842266" lat="31.383374"><ele>371</ele><time>2017-11-10T07:45:06.000Z</time></trkpt><trkpt lon="34.842266" lat="31.383374"><ele>371</ele><time>2017-11-10T07:45:07.000Z</time></trkpt><trkpt lon="34.842266" lat="31.383374"><ele>371</ele><time>2017-11-10T07:45:08.000Z</time></trkpt><trkpt lon="34.842266" lat="31.383374"><ele>371</ele><time>2017-11-10T07:45:09.000Z</time></trkpt><trkpt lon="34.842266" lat="31.383374"><ele>371</ele><time>2017-11-10T07:45:10.000Z</time></trkpt><trkpt lon="34.842266" lat="31.383374"><ele>371</ele><time>2017-11-10T07:45:11.000Z</time></trkpt><trkpt lon="34.842266" lat="31.383374"><ele>371</ele><time>2017-11-10T07:45:12.000Z</time></trkpt><trkpt lon="34.842266" lat="31.383374"><ele>371</ele><time>2017-11-10T07:45:13.000Z</time></trkpt><trkpt lon="34.842266" lat="31.383374"><ele>371</ele><time>2017-11-10T07:45:14.000Z</time></trkpt><trkpt lon="34.842266" lat="31.383374"><ele>371</ele><time>2017-11-10T07:45:16.000Z</time></trkpt><trkpt lon="34.842266" lat="31.383374"><ele>371</ele><time>2017-11-10T07:45:17.000Z</time></trkpt><trkpt lon="34.842266" lat="31.383374"><ele>371</ele><time>2017-11-10T07:45:18.000Z</time></trkpt><trkpt lon="34.842266" lat="31.383374"><ele>371</ele><time>2017-11-10T07:45:19.000Z</time></trkpt><trkpt lon="34.842266" lat="31.383374"><ele>371</ele><time>2017-11-10T07:45:20.000Z</time></trkpt><trkpt lon="34.842266" lat="31.383374"><ele>371</ele><time>2017-11-10T07:45:21.000Z</time></trkpt><trkpt lon="34.842266" lat="31.383374"><ele>371</ele><time>2017-11-10T07:45:22.000Z</time></trkpt><trkpt lon="34.842266" lat="31.383374"><ele>371</ele><time>2017-11-10T07:45:23.000Z</time></trkpt><trkpt lon="34.842266" lat="31.383374"><ele>371</ele><time>2017-11-10T07:45:24.000Z</time></trkpt><trkpt lon="34.842266" lat="31.383374"><ele>371</ele><time>2017-11-10T07:45:25.000Z</time></trkpt><trkpt lon="34.842266" lat="31.383374"><ele>371</ele><time>2017-11-10T07:45:26.000Z</time></trkpt><trkpt lon="34.842266" lat="31.383374"><ele>371</ele><time>2017-11-10T07:45:27.000Z</time></trkpt><trkpt lon="34.842266" lat="31.383374"><ele>371</ele><time>2017-11-10T07:45:28.000Z</time></trkpt><trkpt lon="34.842266" lat="31.383374"><ele>371</ele><time>2017-11-10T07:45:29.000Z</time></trkpt><trkpt lon="34.842266" lat="31.383374"><ele>371</ele><time>2017-11-10T07:45:30.000Z</time></trkpt><trkpt lon="34.842266" lat="31.383374"><ele>371</ele><time>2017-11-10T07:45:31.000Z</time></trkpt><trkpt lon="34.842266" lat="31.383374"><ele>371</ele><time>2017-11-10T07:45:32.000Z</time></trkpt><trkpt lon="34.842266" lat="31.383374"><ele>371</ele><time>2017-11-10T07:45:33.000Z</time></trkpt><trkpt lon="34.842266" lat="31.383374"><ele>371</ele><time>2017-11-10T07:45:34.000Z</time></trkpt><trkpt lon="34.842266" lat="31.383374"><ele>371</ele><time>2017-11-10T07:45:35.000Z</time></trkpt><trkpt lon="34.842266" lat="31.383374"><ele>371</ele><time>2017-11-10T07:45:36.000Z</time></trkpt><trkpt lon="34.842266" lat="31.383374"><ele>371</ele><time>2017-11-10T07:45:37.000Z</time></trkpt><trkpt lon="34.842266" lat="31.383374"><ele>371</ele><time>2017-11-10T07:45:38.000Z</time></trkpt><trkpt lon="34.842266" lat="31.383374"><ele>371</ele><time>2017-11-10T07:45:39.000Z</time></trkpt><trkpt lon="34.842266" lat="31.383374"><ele>371</ele><time>2017-11-10T07:45:40.000Z</time></trkpt><trkpt lon="34.842266" lat="31.383374"><ele>371</ele><time>2017-11-10T07:45:41.000Z</time></trkpt><trkpt lon="34.842266" lat="31.383374"><ele>371</ele><time>2017-11-10T07:45:42.000Z</time></trkpt><trkpt lon="34.842266" lat="31.383374"><ele>371</ele><time>2017-11-10T07:45:43.000Z</time></trkpt><trkpt lon="34.842266" lat="31.383374"><ele>371</ele><time>2017-11-10T07:45:44.000Z</time></trkpt><trkpt lon="34.842266" lat="31.383374"><ele>371</ele><time>2017-11-10T07:45:45.000Z</time></trkpt><trkpt lon="34.842266" lat="31.383374"><ele>371</ele><time>2017-11-10T07:45:46.000Z</time></trkpt><trkpt lon="34.842266" lat="31.383374"><ele>371</ele><time>2017-11-10T07:45:47.000Z</time></trkpt><trkpt lon="34.842266" lat="31.383374"><ele>371</ele><time>2017-11-10T07:45:48.000Z</time></trkpt><trkpt lon="34.842266" lat="31.383374"><ele>371</ele><time>2017-11-10T07:45:49.000Z</time></trkpt><trkpt lon="34.842266" lat="31.383374"><ele>371</ele><time>2017-11-10T07:45:50.000Z</time></trkpt><trkpt lon="34.842266" lat="31.383374"><ele>371</ele><time>2017-11-10T07:45:51.000Z</time></trkpt><trkpt lon="34.842266" lat="31.383374"><ele>371</ele><time>2017-11-10T07:45:52.000Z</time></trkpt><trkpt lon="34.842266" lat="31.383374"><ele>371</ele><time>2017-11-10T07:45:53.000Z</time></trkpt><trkpt lon="34.842266" lat="31.383374"><ele>371</ele><time>2017-11-10T07:45:54.000Z</time></trkpt><trkpt lon="34.842266" lat="31.383374"><ele>371</ele><time>2017-11-10T07:45:55.000Z</time></trkpt><trkpt lon="34.842266" lat="31.383374"><ele>371</ele><time>2017-11-10T07:45:56.000Z</time></trkpt><trkpt lon="34.842266" lat="31.383374"><ele>371</ele><time>2017-11-10T07:45:57.000Z</time></trkpt><trkpt lon="34.842266" lat="31.383374"><ele>371</ele><time>2017-11-10T07:45:58.000Z</time></trkpt><trkpt lon="34.842266" lat="31.383374"><ele>371</ele><time>2017-11-10T07:45:59.000Z</time></trkpt><trkpt lon="34.842266" lat="31.383374"><ele>371</ele><time>2017-11-10T07:46:00.000Z</time></trkpt><trkpt lon="34.842266" lat="31.383374"><ele>371</ele><time>2017-11-10T07:46:01.000Z</time></trkpt><trkpt lon="34.842266" lat="31.383374"><ele>371</ele><time>2017-11-10T07:46:02.000Z</time></trkpt><trkpt lon="34.842266" lat="31.383374"><ele>371</ele><time>2017-11-10T07:46:03.000Z</time></trkpt><trkpt lon="34.842266" lat="31.383374"><ele>371</ele><time>2017-11-10T07:46:04.000Z</time></trkpt><trkpt lon="34.842266" lat="31.383374"><ele>371</ele><time>2017-11-10T07:46:05.000Z</time></trkpt><trkpt lon="34.842266" lat="31.383374"><ele>371</ele><time>2017-11-10T07:46:06.000Z</time></trkpt><trkpt lon="34.842266" lat="31.383374"><ele>371</ele><time>2017-11-10T07:46:07.000Z</time></trkpt><trkpt lon="34.842266" lat="31.383374"><ele>371</ele><time>2017-11-10T07:46:08.000Z</time></trkpt><trkpt lon="34.842266" lat="31.383374"><ele>371</ele><time>2017-11-10T07:46:09.000Z</time></trkpt><trkpt lon="34.842266" lat="31.383374"><ele>371</ele><time>2017-11-10T07:46:10.000Z</time></trkpt><trkpt lon="34.842266" lat="31.383374"><ele>371</ele><time>2017-11-10T07:46:11.000Z</time></trkpt><trkpt lon="34.842266" lat="31.383374"><ele>371</ele><time>2017-11-10T07:46:12.000Z</time></trkpt><trkpt lon="34.842266" lat="31.383374"><ele>371</ele><time>2017-11-10T07:46:13.000Z</time></trkpt><trkpt lon="34.842266" lat="31.383374"><ele>371</ele><time>2017-11-10T07:46:14.000Z</time></trkpt><trkpt lon="34.842266" lat="31.383374"><ele>371</ele><time>2017-11-10T07:46:15.000Z</time></trkpt><trkpt lon="34.842266" lat="31.383374"><ele>371</ele><time>2017-11-10T07:46:16.000Z</time></trkpt><trkpt lon="34.842266" lat="31.383374"><ele>371</ele><time>2017-11-10T07:46:17.000Z</time></trkpt><trkpt lon="34.842266" lat="31.383374"><ele>371</ele><time>2017-11-10T07:46:18.000Z</time></trkpt><trkpt lon="34.842266" lat="31.383374"><ele>371</ele><time>2017-11-10T07:46:19.000Z</time></trkpt><trkpt lon="34.842266" lat="31.383374"><ele>371</ele><time>2017-11-10T07:46:20.000Z</time></trkpt><trkpt lon="34.842266" lat="31.383374"><ele>371</ele><time>2017-11-10T07:46:21.000Z</time></trkpt><trkpt lon="34.842266" lat="31.383374"><ele>371</ele><time>2017-11-10T07:46:22.000Z</time></trkpt><trkpt lon="34.842266" lat="31.383374"><ele>371</ele><time>2017-11-10T07:46:23.000Z</time></trkpt><trkpt lon="34.842266" lat="31.383374"><ele>371</ele><time>2017-11-10T07:46:24.000Z</time></trkpt><trkpt lon="34.842266" lat="31.383374"><ele>371</ele><time>2017-11-10T07:46:25.000Z</time></trkpt><trkpt lon="34.842266" lat="31.383374"><ele>371</ele><time>2017-11-10T07:46:26.000Z</time></trkpt><trkpt lon="34.842266" lat="31.383374"><ele>371</ele><time>2017-11-10T07:46:27.000Z</time></trkpt><trkpt lon="34.842266" lat="31.383374"><ele>371</ele><time>2017-11-10T07:46:28.000Z</time></trkpt><trkpt lon="34.842266" lat="31.383374"><ele>371</ele><time>2017-11-10T07:46:29.000Z</time></trkpt><trkpt lon="34.842266" lat="31.383374"><ele>371</ele><time>2017-11-10T07:46:30.000Z</time></trkpt><trkpt lon="34.842266" lat="31.383374"><ele>371</ele><time>2017-11-10T07:46:31.000Z</time></trkpt><trkpt lon="34.842266" lat="31.383374"><ele>371</ele><time>2017-11-10T07:46:32.000Z</time></trkpt><trkpt lon="34.842266" lat="31.383374"><ele>371</ele><time>2017-11-10T07:46:33.000Z</time></trkpt><trkpt lon="34.842266" lat="31.383374"><ele>371</ele><time>2017-11-10T07:46:34.000Z</time></trkpt><trkpt lon="34.842266" lat="31.383374"><ele>371</ele><time>2017-11-10T07:46:35.000Z</time></trkpt><trkpt lon="34.842266" lat="31.383374"><ele>371</ele><time>2017-11-10T07:46:37.000Z</time></trkpt><trkpt lon="34.842266" lat="31.383374"><ele>371</ele><time>2017-11-10T07:46:38.000Z</time></trkpt><trkpt lon="34.842266" lat="31.383374"><ele>371</ele><time>2017-11-10T07:46:39.000Z</time></trkpt><trkpt lon="34.842266" lat="31.383374"><ele>371</ele><time>2017-11-10T07:46:40.000Z</time></trkpt><trkpt lon="34.842266" lat="31.383374"><ele>371</ele><time>2017-11-10T07:46:41.000Z</time></trkpt><trkpt lon="34.842266" lat="31.383374"><ele>371</ele><time>2017-11-10T07:46:42.000Z</time></trkpt><trkpt lon="34.842266" lat="31.383374"><ele>371</ele><time>2017-11-10T07:46:43.000Z</time></trkpt><trkpt lon="34.842266" lat="31.383374"><ele>371</ele><time>2017-11-10T07:46:44.000Z</time></trkpt><trkpt lon="34.842266" lat="31.383374"><ele>371</ele><time>2017-11-10T07:46:45.000Z</time></trkpt><trkpt lon="34.842266" lat="31.383374"><ele>371</ele><time>2017-11-10T07:46:46.000Z</time></trkpt><trkpt lon="34.842266" lat="31.383374"><ele>371</ele><time>2017-11-10T07:46:47.000Z</time></trkpt><trkpt lon="34.842266" lat="31.383374"><ele>371</ele><time>2017-11-10T07:46:48.000Z</time></trkpt><trkpt lon="34.842266" lat="31.383374"><ele>371</ele><time>2017-11-10T07:46:49.000Z</time></trkpt><trkpt lon="34.842266" lat="31.383374"><ele>371</ele><time>2017-11-10T07:46:50.000Z</time></trkpt><trkpt lon="34.842266" lat="31.383374"><ele>371</ele><time>2017-11-10T07:46:51.000Z</time></trkpt><trkpt lon="34.842266" lat="31.383374"><ele>371</ele><time>2017-11-10T07:46:52.000Z</time></trkpt><trkpt lon="34.842266" lat="31.383374"><ele>371</ele><time>2017-11-10T07:46:53.000Z</time></trkpt><trkpt lon="34.842266" lat="31.383374"><ele>371</ele><time>2017-11-10T07:46:54.000Z</time></trkpt><trkpt lon="34.842266" lat="31.383374"><ele>371</ele><time>2017-11-10T07:46:55.000Z</time></trkpt><trkpt lon="34.842266" lat="31.383374"><ele>371</ele><time>2017-11-10T07:46:56.000Z</time></trkpt><trkpt lon="34.842266" lat="31.383374"><ele>371</ele><time>2017-11-10T07:46:57.000Z</time></trkpt><trkpt lon="34.842266" lat="31.383374"><ele>371</ele><time>2017-11-10T07:46:58.000Z</time></trkpt><trkpt lon="34.842266" lat="31.383374"><ele>371</ele><time>2017-11-10T07:46:59.000Z</time></trkpt><trkpt lon="34.842266" lat="31.383374"><ele>371</ele><time>2017-11-10T07:47:00.000Z</time></trkpt><trkpt lon="34.842266" lat="31.383374"><ele>371</ele><time>2017-11-10T07:47:01.000Z</time></trkpt><trkpt lon="34.842266" lat="31.383374"><ele>371</ele><time>2017-11-10T07:47:02.000Z</time></trkpt><trkpt lon="34.842266" lat="31.383374"><ele>371</ele><time>2017-11-10T07:47:03.000Z</time></trkpt><trkpt lon="34.842266" lat="31.383374"><ele>371</ele><time>2017-11-10T07:47:04.000Z</time></trkpt><trkpt lon="34.842266" lat="31.383374"><ele>371</ele><time>2017-11-10T07:47:05.000Z</time></trkpt><trkpt lon="34.842266" lat="31.383374"><ele>371</ele><time>2017-11-10T07:47:06.000Z</time></trkpt><trkpt lon="34.842266" lat="31.383374"><ele>371</ele><time>2017-11-10T07:47:07.000Z</time></trkpt><trkpt lon="34.842266" lat="31.383374"><ele>371</ele><time>2017-11-10T07:47:08.000Z</time></trkpt><trkpt lon="34.842266" lat="31.383374"><ele>371</ele><time>2017-11-10T07:47:09.000Z</time></trkpt><trkpt lon="34.842266" lat="31.383374"><ele>371</ele><time>2017-11-10T07:47:10.000Z</time></trkpt><trkpt lon="34.842266" lat="31.383374"><ele>371</ele><time>2017-11-10T07:47:11.000Z</time></trkpt><trkpt lon="34.842266" lat="31.383374"><ele>371</ele><time>2017-11-10T07:47:12.000Z</time></trkpt><trkpt lon="34.842266" lat="31.383374"><ele>371</ele><time>2017-11-10T07:47:13.000Z</time></trkpt><trkpt lon="34.842266" lat="31.383374"><ele>371</ele><time>2017-11-10T07:47:14.000Z</time></trkpt><trkpt lon="34.842266" lat="31.383374"><ele>371</ele><time>2017-11-10T07:47:15.000Z</time></trkpt><trkpt lon="34.842266" lat="31.383374"><ele>371</ele><time>2017-11-10T07:47:16.000Z</time></trkpt><trkpt lon="34.842266" lat="31.383374"><ele>371</ele><time>2017-11-10T07:47:17.000Z</time></trkpt><trkpt lon="34.842266" lat="31.383374"><ele>371</ele><time>2017-11-10T07:47:18.000Z</time></trkpt><trkpt lon="34.842266" lat="31.383374"><ele>371</ele><time>2017-11-10T07:47:19.000Z</time></trkpt><trkpt lon="34.842266" lat="31.383374"><ele>371</ele><time>2017-11-10T07:47:20.000Z</time></trkpt><trkpt lon="34.842266" lat="31.383374"><ele>371</ele><time>2017-11-10T07:47:21.000Z</time></trkpt><trkpt lon="34.842266" lat="31.383374"><ele>371</ele><time>2017-11-10T07:47:22.000Z</time></trkpt><trkpt lon="34.842266" lat="31.383374"><ele>371</ele><time>2017-11-10T07:47:23.000Z</time></trkpt><trkpt lon="34.842266" lat="31.383374"><ele>371</ele><time>2017-11-10T07:47:24.000Z</time></trkpt><trkpt lon="34.842266" lat="31.383374"><ele>371</ele><time>2017-11-10T07:47:25.000Z</time></trkpt><trkpt lon="34.842266" lat="31.383374"><ele>371</ele><time>2017-11-10T07:47:26.000Z</time></trkpt><trkpt lon="34.842266" lat="31.383374"><ele>371</ele><time>2017-11-10T07:47:27.000Z</time></trkpt><trkpt lon="34.842266" lat="31.383374"><ele>371</ele><time>2017-11-10T07:47:28.000Z</time></trkpt><trkpt lon="34.842266" lat="31.383374"><ele>371</ele><time>2017-11-10T07:47:29.000Z</time></trkpt><trkpt lon="34.842266" lat="31.383374"><ele>371</ele><time>2017-11-10T07:47:30.000Z</time></trkpt><trkpt lon="34.842266" lat="31.383374"><ele>371</ele><time>2017-11-10T07:47:31.000Z</time></trkpt><trkpt lon="34.842266" lat="31.383374"><ele>371</ele><time>2017-11-10T07:47:32.000Z</time></trkpt><trkpt lon="34.842266" lat="31.383374"><ele>371</ele><time>2017-11-10T07:47:33.000Z</time></trkpt><trkpt lon="34.842266" lat="31.383374"><ele>371</ele><time>2017-11-10T07:47:34.000Z</time></trkpt><trkpt lon="34.842266" lat="31.383374"><ele>371</ele><time>2017-11-10T07:47:35.000Z</time></trkpt><trkpt lon="34.842266" lat="31.383374"><ele>371</ele><time>2017-11-10T07:47:36.000Z</time></trkpt><trkpt lon="34.842266" lat="31.383374"><ele>371</ele><time>2017-11-10T07:47:37.000Z</time></trkpt><trkpt lon="34.842266" lat="31.383374"><ele>371</ele><time>2017-11-10T07:47:38.000Z</time></trkpt><trkpt lon="34.842266" lat="31.383374"><ele>371</ele><time>2017-11-10T07:47:39.000Z</time></trkpt><trkpt lon="34.842266" lat="31.383374"><ele>371</ele><time>2017-11-10T07:47:40.000Z</time></trkpt><trkpt lon="34.842266" lat="31.383374"><ele>371</ele><time>2017-11-10T07:47:41.000Z</time></trkpt><trkpt lon="34.842266" lat="31.383374"><ele>371</ele><time>2017-11-10T07:47:42.000Z</time></trkpt><trkpt lon="34.842266" lat="31.383374"><ele>371</ele><time>2017-11-10T07:47:43.000Z</time></trkpt><trkpt lon="34.842266" lat="31.383374"><ele>371</ele><time>2017-11-10T07:47:44.000Z</time></trkpt><trkpt lon="34.842266" lat="31.383374"><ele>371</ele><time>2017-11-10T07:47:45.000Z</time></trkpt><trkpt lon="34.842266" lat="31.383374"><ele>371</ele><time>2017-11-10T07:47:46.000Z</time></trkpt><trkpt lon="34.842266" lat="31.383374"><ele>371</ele><time>2017-11-10T07:47:47.000Z</time></trkpt><trkpt lon="34.842266" lat="31.383374"><ele>371</ele><time>2017-11-10T07:47:48.000Z</time></trkpt><trkpt lon="34.842266" lat="31.383374"><ele>371</ele><time>2017-11-10T07:47:49.000Z</time></trkpt><trkpt lon="34.842266" lat="31.383374"><ele>371</ele><time>2017-11-10T07:47:50.000Z</time></trkpt><trkpt lon="34.842266" lat="31.383374"><ele>371</ele><time>2017-11-10T07:47:51.000Z</time></trkpt><trkpt lon="34.842266" lat="31.383374"><ele>371</ele><time>2017-11-10T07:47:52.000Z</time></trkpt><trkpt lon="34.842266" lat="31.383374"><ele>371</ele><time>2017-11-10T07:47:53.000Z</time></trkpt><trkpt lon="34.842266" lat="31.383374"><ele>371</ele><time>2017-11-10T07:47:54.000Z</time></trkpt><trkpt lon="34.842266" lat="31.383374"><ele>371</ele><time>2017-11-10T07:47:55.000Z</time></trkpt><trkpt lon="34.842266" lat="31.383374"><ele>371</ele><time>2017-11-10T07:47:56.000Z</time></trkpt><trkpt lon="34.842266" lat="31.383374"><ele>371</ele><time>2017-11-10T07:47:57.000Z</time></trkpt><trkpt lon="34.842266" lat="31.383374"><ele>371</ele><time>2017-11-10T07:47:58.000Z</time></trkpt><trkpt lon="34.842266" lat="31.383374"><ele>371</ele><time>2017-11-10T07:47:59.000Z</time></trkpt><trkpt lon="34.842266" lat="31.383374"><ele>371</ele><time>2017-11-10T07:48:00.000Z</time></trkpt><trkpt lon="34.842266" lat="31.383374"><ele>371</ele><time>2017-11-10T07:48:01.000Z</time></trkpt><trkpt lon="34.842266" lat="31.383374"><ele>371</ele><time>2017-11-10T07:48:02.000Z</time></trkpt><trkpt lon="34.842266" lat="31.383374"><ele>371</ele><time>2017-11-10T07:48:03.000Z</time></trkpt><trkpt lon="34.842266" lat="31.383374"><ele>371</ele><time>2017-11-10T07:48:04.000Z</time></trkpt><trkpt lon="34.842266" lat="31.383374"><ele>371</ele><time>2017-11-10T07:48:05.000Z</time></trkpt><trkpt lon="34.842266" lat="31.383374"><ele>371</ele><time>2017-11-10T07:48:06.000Z</time></trkpt><trkpt lon="34.842266" lat="31.383374"><ele>371</ele><time>2017-11-10T07:48:07.000Z</time></trkpt><trkpt lon="34.842266" lat="31.383374"><ele>371</ele><time>2017-11-10T07:48:08.000Z</time></trkpt><trkpt lon="34.842266" lat="31.383374"><ele>371</ele><time>2017-11-10T07:48:09.000Z</time></trkpt><trkpt lon="34.842266" lat="31.383374"><ele>371</ele><time>2017-11-10T07:48:10.000Z</time></trkpt><trkpt lon="34.842266" lat="31.383374"><ele>371</ele><time>2017-11-10T07:48:11.000Z</time></trkpt><trkpt lon="34.842266" lat="31.383374"><ele>371</ele><time>2017-11-10T07:48:12.000Z</time></trkpt><trkpt lon="34.842266" lat="31.383374"><ele>371</ele><time>2017-11-10T07:48:13.000Z</time></trkpt><trkpt lon="34.842266" lat="31.383374"><ele>371</ele><time>2017-11-10T07:48:14.000Z</time></trkpt><trkpt lon="34.842266" lat="31.383374"><ele>371</ele><time>2017-11-10T07:48:15.000Z</time></trkpt><trkpt lon="34.842266" lat="31.383374"><ele>371</ele><time>2017-11-10T07:48:16.000Z</time></trkpt><trkpt lon="34.842266" lat="31.383374"><ele>371</ele><time>2017-11-10T07:48:17.000Z</time></trkpt><trkpt lon="34.842266" lat="31.383374"><ele>371</ele><time>2017-11-10T07:48:18.000Z</time></trkpt><trkpt lon="34.842266" lat="31.383374"><ele>371</ele><time>2017-11-10T07:48:19.000Z</time></trkpt><trkpt lon="34.842266" lat="31.383374"><ele>371</ele><time>2017-11-10T07:48:20.000Z</time></trkpt><trkpt lon="34.842266" lat="31.383374"><ele>371</ele><time>2017-11-10T07:48:21.000Z</time></trkpt><trkpt lon="34.842266" lat="31.383374"><ele>371</ele><time>2017-11-10T07:48:22.000Z</time></trkpt><trkpt lon="34.842266" lat="31.383374"><ele>371</ele><time>2017-11-10T07:48:23.000Z</time></trkpt><trkpt lon="34.842266" lat="31.383374"><ele>371</ele><time>2017-11-10T07:48:24.000Z</time></trkpt><trkpt lon="34.842266" lat="31.383374"><ele>371</ele><time>2017-11-10T07:48:25.000Z</time></trkpt><trkpt lon="34.842266" lat="31.383374"><ele>371</ele><time>2017-11-10T07:48:26.000Z</time></trkpt><trkpt lon="34.842266" lat="31.383374"><ele>371</ele><time>2017-11-10T07:48:27.000Z</time></trkpt><trkpt lon="34.842266" lat="31.383374"><ele>371</ele><time>2017-11-10T07:48:28.000Z</time></trkpt><trkpt lon="34.842266" lat="31.383374"><ele>371</ele><time>2017-11-10T07:48:29.000Z</time></trkpt><trkpt lon="34.842266" lat="31.383374"><ele>371</ele><time>2017-11-10T07:48:30.000Z</time></trkpt><trkpt lon="34.842266" lat="31.383374"><ele>371</ele><time>2017-11-10T07:48:31.000Z</time></trkpt><trkpt lon="34.842266" lat="31.383374"><ele>371</ele><time>2017-11-10T07:48:32.000Z</time></trkpt><trkpt lon="34.842266" lat="31.383374"><ele>371</ele><time>2017-11-10T07:48:33.000Z</time></trkpt><trkpt lon="34.842266" lat="31.383374"><ele>371</ele><time>2017-11-10T07:48:34.000Z</time></trkpt><trkpt lon="34.842266" lat="31.383374"><ele>371</ele><time>2017-11-10T07:48:35.000Z</time></trkpt><trkpt lon="34.842266" lat="31.383374"><ele>371</ele><time>2017-11-10T07:48:36.000Z</time></trkpt><trkpt lon="34.842266" lat="31.383374"><ele>371</ele><time>2017-11-10T07:48:37.000Z</time></trkpt><trkpt lon="34.842266" lat="31.383374"><ele>371</ele><time>2017-11-10T07:48:38.000Z</time></trkpt><trkpt lon="34.842266" lat="31.383374"><ele>371</ele><time>2017-11-10T07:48:39.000Z</time></trkpt><trkpt lon="34.842266" lat="31.383374"><ele>371</ele><time>2017-11-10T07:48:40.000Z</time></trkpt><trkpt lon="34.842266" lat="31.383374"><ele>371</ele><time>2017-11-10T07:48:41.000Z</time></trkpt><trkpt lon="34.842266" lat="31.383374"><ele>371</ele><time>2017-11-10T07:48:42.000Z</time></trkpt><trkpt lon="34.842266" lat="31.383374"><ele>371</ele><time>2017-11-10T07:48:43.000Z</time></trkpt><trkpt lon="34.842266" lat="31.383374"><ele>371</ele><time>2017-11-10T07:48:44.000Z</time></trkpt><trkpt lon="34.842266" lat="31.383374"><ele>371</ele><time>2017-11-10T07:48:45.000Z</time></trkpt><trkpt lon="34.842266" lat="31.383374"><ele>371</ele><time>2017-11-10T07:48:46.000Z</time></trkpt><trkpt lon="34.842266" lat="31.383374"><ele>371</ele><time>2017-11-10T07:48:47.000Z</time></trkpt><trkpt lon="34.842266" lat="31.383374"><ele>371</ele><time>2017-11-10T07:48:48.000Z</time></trkpt><trkpt lon="34.842266" lat="31.383374"><ele>371</ele><time>2017-11-10T07:48:49.000Z</time></trkpt><trkpt lon="34.842266" lat="31.383374"><ele>371</ele><time>2017-11-10T07:48:50.000Z</time></trkpt><trkpt lon="34.842266" lat="31.383374"><ele>372</ele><time>2017-11-10T07:48:51.000Z</time></trkpt><trkpt lon="34.842266" lat="31.383374"><ele>372</ele><time>2017-11-10T07:48:52.000Z</time></trkpt><trkpt lon="34.842266" lat="31.383374"><ele>371</ele><time>2017-11-10T07:48:53.000Z</time></trkpt><trkpt lon="34.842266" lat="31.383374"><ele>371</ele><time>2017-11-10T07:48:54.000Z</time></trkpt><trkpt lon="34.842266" lat="31.383374"><ele>371</ele><time>2017-11-10T07:48:55.000Z</time></trkpt><trkpt lon="34.842266" lat="31.383374"><ele>371</ele><time>2017-11-10T07:48:56.000Z</time></trkpt><trkpt lon="34.842266" lat="31.383374"><ele>371</ele><time>2017-11-10T07:48:57.000Z</time></trkpt><trkpt lon="34.842266" lat="31.383374"><ele>371</ele><time>2017-11-10T07:48:58.000Z</time></trkpt><trkpt lon="34.842266" lat="31.383374"><ele>371</ele><time>2017-11-10T07:48:59.000Z</time></trkpt><trkpt lon="34.842266" lat="31.383374"><ele>371</ele><time>2017-11-10T07:49:00.000Z</time></trkpt><trkpt lon="34.842266" lat="31.383374"><ele>371</ele><time>2017-11-10T07:49:01.000Z</time></trkpt><trkpt lon="34.842266" lat="31.383374"><ele>371</ele><time>2017-11-10T07:49:02.000Z</time></trkpt><trkpt lon="34.842266" lat="31.383374"><ele>371</ele><time>2017-11-10T07:49:03.000Z</time></trkpt><trkpt lon="34.842266" lat="31.383374"><ele>371</ele><time>2017-11-10T07:49:04.000Z</time></trkpt><trkpt lon="34.842266" lat="31.383374"><ele>371</ele><time>2017-11-10T07:49:05.000Z</time></trkpt><trkpt lon="34.842266" lat="31.383374"><ele>371</ele><time>2017-11-10T07:49:06.000Z</time></trkpt><trkpt lon="34.842266" lat="31.383374"><ele>371</ele><time>2017-11-10T07:49:07.000Z</time></trkpt><trkpt lon="34.842266" lat="31.383374"><ele>371</ele><time>2017-11-10T07:49:08.000Z</time></trkpt><trkpt lon="34.842266" lat="31.383374"><ele>371</ele><time>2017-11-10T07:49:09.000Z</time></trkpt><trkpt lon="34.842266" lat="31.383374"><ele>371</ele><time>2017-11-10T07:49:10.000Z</time></trkpt><trkpt lon="34.842266" lat="31.383374"><ele>371</ele><time>2017-11-10T07:49:11.000Z</time></trkpt><trkpt lon="34.842266" lat="31.383374"><ele>371</ele><time>2017-11-10T07:49:12.000Z</time></trkpt><trkpt lon="34.842266" lat="31.383374"><ele>371</ele><time>2017-11-10T07:49:13.000Z</time></trkpt><trkpt lon="34.842266" lat="31.383374"><ele>371</ele><time>2017-11-10T07:49:14.000Z</time></trkpt><trkpt lon="34.842266" lat="31.383374"><ele>371</ele><time>2017-11-10T07:49:15.000Z</time></trkpt><trkpt lon="34.842266" lat="31.383374"><ele>371</ele><time>2017-11-10T07:49:16.000Z</time></trkpt><trkpt lon="34.842266" lat="31.383374"><ele>371</ele><time>2017-11-10T07:49:17.000Z</time></trkpt><trkpt lon="34.842266" lat="31.383374"><ele>371</ele><time>2017-11-10T07:49:18.000Z</time></trkpt><trkpt lon="34.842266" lat="31.383374"><ele>371</ele><time>2017-11-10T07:49:19.000Z</time></trkpt><trkpt lon="34.842266" lat="31.383374"><ele>371</ele><time>2017-11-10T07:49:20.000Z</time></trkpt><trkpt lon="34.842266" lat="31.383374"><ele>372</ele><time>2017-11-10T07:49:21.000Z</time></trkpt><trkpt lon="34.842266" lat="31.383374"><ele>372</ele><time>2017-11-10T07:49:22.000Z</time></trkpt><trkpt lon="34.842266" lat="31.383374"><ele>371</ele><time>2017-11-10T07:49:23.000Z</time></trkpt><trkpt lon="34.842266" lat="31.383374"><ele>371</ele><time>2017-11-10T07:49:24.000Z</time></trkpt><trkpt lon="34.842266" lat="31.383374"><ele>371</ele><time>2017-11-10T07:49:25.000Z</time></trkpt><trkpt lon="34.842266" lat="31.383374"><ele>371</ele><time>2017-11-10T07:49:26.000Z</time></trkpt><trkpt lon="34.842266" lat="31.383374"><ele>371</ele><time>2017-11-10T07:49:27.000Z</time></trkpt><trkpt lon="34.842266" lat="31.383374"><ele>371</ele><time>2017-11-10T07:49:28.000Z</time></trkpt><trkpt lon="34.842266" lat="31.383374"><ele>371</ele><time>2017-11-10T07:49:29.000Z</time></trkpt><trkpt lon="34.842266" lat="31.383374"><ele>371</ele><time>2017-11-10T07:49:30.000Z</time></trkpt><trkpt lon="34.842266" lat="31.383374"><ele>371</ele><time>2017-11-10T07:49:31.000Z</time></trkpt><trkpt lon="34.842266" lat="31.383374"><ele>372</ele><time>2017-11-10T07:49:32.000Z</time></trkpt><trkpt lon="34.842296" lat="31.383373"><ele>372</ele><time>2017-11-10T07:49:33.000Z</time></trkpt><trkpt lon="34.842296" lat="31.383373"><ele>372</ele><time>2017-11-10T07:49:34.000Z</time></trkpt><trkpt lon="34.842334" lat="31.383383"><ele>372</ele><time>2017-11-10T07:49:35.000Z</time></trkpt><trkpt lon="34.842356" lat="31.383388"><ele>372</ele><time>2017-11-10T07:49:36.000Z</time></trkpt><trkpt lon="34.842377" lat="31.383393"><ele>372</ele><time>2017-11-10T07:49:37.000Z</time></trkpt><trkpt lon="34.842399" lat="31.383397"><ele>372</ele><time>2017-11-10T07:49:38.000Z</time></trkpt><trkpt lon="34.842424" lat="31.383401"><ele>372</ele><time>2017-11-10T07:49:39.000Z</time></trkpt><trkpt lon="34.842451" lat="31.383406"><ele>372</ele><time>2017-11-10T07:49:40.000Z</time></trkpt><trkpt lon="34.842485" lat="31.383412"><ele>372</ele><time>2017-11-10T07:49:41.000Z</time></trkpt><trkpt lon="34.842527" lat="31.383418"><ele>371</ele><time>2017-11-10T07:49:42.000Z</time></trkpt><trkpt lon="34.842561" lat="31.383426"><ele>372</ele><time>2017-11-10T07:49:43.000Z</time></trkpt><trkpt lon="34.842585" lat="31.383433"><ele>372</ele><time>2017-11-10T07:49:44.000Z</time></trkpt><trkpt lon="34.842585" lat="31.383433"><ele>372</ele><time>2017-11-10T07:49:45.000Z</time></trkpt><trkpt lon="34.842624" lat="31.383439"><ele>373</ele><time>2017-11-10T07:49:46.000Z</time></trkpt><trkpt lon="34.842645" lat="31.383446"><ele>373</ele><time>2017-11-10T07:49:47.000Z</time></trkpt><trkpt lon="34.842666" lat="31.383453"><ele>373</ele><time>2017-11-10T07:49:48.000Z</time></trkpt><trkpt lon="34.842694" lat="31.383456"><ele>373</ele><time>2017-11-10T07:49:49.000Z</time></trkpt><trkpt lon="34.842723" lat="31.383457"><ele>373</ele><time>2017-11-10T07:49:50.000Z</time></trkpt><trkpt lon="34.842751" lat="31.383457"><ele>373</ele><time>2017-11-10T07:49:51.000Z</time></trkpt><trkpt lon="34.842779" lat="31.383458"><ele>373</ele><time>2017-11-10T07:49:52.000Z</time></trkpt><trkpt lon="34.842809" lat="31.383466"><ele>373</ele><time>2017-11-10T07:49:53.000Z</time></trkpt><trkpt lon="34.842836" lat="31.383481"><ele>373</ele><time>2017-11-10T07:49:54.000Z</time></trkpt><trkpt lon="34.842862" lat="31.383499"><ele>373</ele><time>2017-11-10T07:49:55.000Z</time></trkpt><trkpt lon="34.842883" lat="31.383522"><ele>373</ele><time>2017-11-10T07:49:56.000Z</time></trkpt><trkpt lon="34.842896" lat="31.383551"><ele>373</ele><time>2017-11-10T07:49:57.000Z</time></trkpt><trkpt lon="34.842901" lat="31.383582"><ele>372</ele><time>2017-11-10T07:49:58.000Z</time></trkpt><trkpt lon="34.842909" lat="31.383612"><ele>372</ele><time>2017-11-10T07:49:59.000Z</time></trkpt><trkpt lon="34.84292" lat="31.383639"><ele>373</ele><time>2017-11-10T07:50:00.000Z</time></trkpt><trkpt lon="34.842933" lat="31.383667"><ele>373</ele><time>2017-11-10T07:50:01.000Z</time></trkpt><trkpt lon="34.842949" lat="31.383693"><ele>373</ele><time>2017-11-10T07:50:02.000Z</time></trkpt><trkpt lon="34.842968" lat="31.383717"><ele>373</ele><time>2017-11-10T07:50:03.000Z</time></trkpt><trkpt lon="34.842986" lat="31.383738"><ele>373</ele><time>2017-11-10T07:50:04.000Z</time></trkpt><trkpt lon="34.843006" lat="31.38376"><ele>373</ele><time>2017-11-10T07:50:05.000Z</time></trkpt><trkpt lon="34.843025" lat="31.383781"><ele>374</ele><time>2017-11-10T07:50:06.000Z</time></trkpt><trkpt lon="34.843045" lat="31.3838"><ele>374</ele><time>2017-11-10T07:50:07.000Z</time></trkpt><trkpt lon="34.84306" lat="31.383822"><ele>374</ele><time>2017-11-10T07:50:08.000Z</time></trkpt><trkpt lon="34.843062" lat="31.383843"><ele>375</ele><time>2017-11-10T07:50:09.000Z</time></trkpt><trkpt lon="34.843062" lat="31.383843"><ele>376</ele><time>2017-11-10T07:50:10.000Z</time></trkpt><trkpt lon="34.843051" lat="31.383872"><ele>376</ele><time>2017-11-10T07:50:11.000Z</time></trkpt><trkpt lon="34.843051" lat="31.383872"><ele>376</ele><time>2017-11-10T07:50:12.000Z</time></trkpt><trkpt lon="34.843034" lat="31.383902"><ele>376</ele><time>2017-11-10T07:50:13.000Z</time></trkpt><trkpt lon="34.843023" lat="31.383918"><ele>376</ele><time>2017-11-10T07:50:14.000Z</time></trkpt><trkpt lon="34.843011" lat="31.383934"><ele>376</ele><time>2017-11-10T07:50:15.000Z</time></trkpt><trkpt lon="34.842996" lat="31.383948"><ele>376</ele><time>2017-11-10T07:50:16.000Z</time></trkpt><trkpt lon="34.842979" lat="31.383963"><ele>376</ele><time>2017-11-10T07:50:17.000Z</time></trkpt><trkpt lon="34.84296" lat="31.383979"><ele>376</ele><time>2017-11-10T07:50:18.000Z</time></trkpt><trkpt lon="34.842939" lat="31.383995"><ele>376</ele><time>2017-11-10T07:50:19.000Z</time></trkpt><trkpt lon="34.842916" lat="31.384013"><ele>376</ele><time>2017-11-10T07:50:20.000Z</time></trkpt><trkpt lon="34.842898" lat="31.384031"><ele>376</ele><time>2017-11-10T07:50:21.000Z</time></trkpt><trkpt lon="34.84288" lat="31.384045"><ele>376</ele><time>2017-11-10T07:50:22.000Z</time></trkpt><trkpt lon="34.842863" lat="31.384057"><ele>376</ele><time>2017-11-10T07:50:23.000Z</time></trkpt><trkpt lon="34.842844" lat="31.384071"><ele>376</ele><time>2017-11-10T07:50:24.000Z</time></trkpt><trkpt lon="34.842822" lat="31.384083"><ele>376</ele><time>2017-11-10T07:50:25.000Z</time></trkpt><trkpt lon="34.842797" lat="31.384092"><ele>376</ele><time>2017-11-10T07:50:26.000Z</time></trkpt><trkpt lon="34.842771" lat="31.384101"><ele>376</ele><time>2017-11-10T07:50:27.000Z</time></trkpt><trkpt lon="34.842743" lat="31.38411"><ele>376</ele><time>2017-11-10T07:50:28.000Z</time></trkpt><trkpt lon="34.842714" lat="31.38412"><ele>376</ele><time>2017-11-10T07:50:29.000Z</time></trkpt><trkpt lon="34.842687" lat="31.384132"><ele>376</ele><time>2017-11-10T07:50:30.000Z</time></trkpt><trkpt lon="34.842664" lat="31.38415"><ele>376</ele><time>2017-11-10T07:50:31.000Z</time></trkpt><trkpt lon="34.842649" lat="31.38417"><ele>377</ele><time>2017-11-10T07:50:32.000Z</time></trkpt><trkpt lon="34.842644" lat="31.38419"><ele>377</ele><time>2017-11-10T07:50:33.000Z</time></trkpt><trkpt lon="34.842644" lat="31.38419"><ele>377</ele><time>2017-11-10T07:50:34.000Z</time></trkpt><trkpt lon="34.84265" lat="31.384221"><ele>377</ele><time>2017-11-10T07:50:35.000Z</time></trkpt><trkpt lon="34.84265" lat="31.384221"><ele>377</ele><time>2017-11-10T07:50:36.000Z</time></trkpt><trkpt lon="34.842667" lat="31.384252"><ele>377</ele><time>2017-11-10T07:50:37.000Z</time></trkpt><trkpt lon="34.842687" lat="31.384262"><ele>378</ele><time>2017-11-10T07:50:38.000Z</time></trkpt><trkpt lon="34.842708" lat="31.384271"><ele>378</ele><time>2017-11-10T07:50:39.000Z</time></trkpt><trkpt lon="34.842731" lat="31.38428"><ele>378</ele><time>2017-11-10T07:50:40.000Z</time></trkpt><trkpt lon="34.842755" lat="31.384288"><ele>378</ele><time>2017-11-10T07:50:41.000Z</time></trkpt><trkpt lon="34.842781" lat="31.384293"><ele>378</ele><time>2017-11-10T07:50:42.000Z</time></trkpt><trkpt lon="34.842807" lat="31.384298"><ele>379</ele><time>2017-11-10T07:50:43.000Z</time></trkpt><trkpt lon="34.842833" lat="31.384301"><ele>379</ele><time>2017-11-10T07:50:44.000Z</time></trkpt><trkpt lon="34.842857" lat="31.384304"><ele>379</ele><time>2017-11-10T07:50:45.000Z</time></trkpt><trkpt lon="34.842882" lat="31.384305"><ele>379</ele><time>2017-11-10T07:50:46.000Z</time></trkpt><trkpt lon="34.842905" lat="31.384304"><ele>379</ele><time>2017-11-10T07:50:47.000Z</time></trkpt><trkpt lon="34.842927" lat="31.384299"><ele>380</ele><time>2017-11-10T07:50:48.000Z</time></trkpt><trkpt lon="34.84295" lat="31.384292"><ele>380</ele><time>2017-11-10T07:50:49.000Z</time></trkpt><trkpt lon="34.842972" lat="31.384284"><ele>380</ele><time>2017-11-10T07:50:50.000Z</time></trkpt><trkpt lon="34.842993" lat="31.384278"><ele>380</ele><time>2017-11-10T07:50:51.000Z</time></trkpt><trkpt lon="34.843015" lat="31.384275"><ele>380</ele><time>2017-11-10T07:50:52.000Z</time></trkpt><trkpt lon="34.843039" lat="31.384276"><ele>380</ele><time>2017-11-10T07:50:53.000Z</time></trkpt><trkpt lon="34.843061" lat="31.384281"><ele>381</ele><time>2017-11-10T07:50:54.000Z</time></trkpt><trkpt lon="34.843079" lat="31.384293"><ele>381</ele><time>2017-11-10T07:50:55.000Z</time></trkpt><trkpt lon="34.843092" lat="31.384308"><ele>381</ele><time>2017-11-10T07:50:56.000Z</time></trkpt><trkpt lon="34.843092" lat="31.384308"><ele>381</ele><time>2017-11-10T07:50:57.000Z</time></trkpt><trkpt lon="34.843101" lat="31.384341"><ele>382</ele><time>2017-11-10T07:50:58.000Z</time></trkpt><trkpt lon="34.843101" lat="31.384341"><ele>382</ele><time>2017-11-10T07:50:59.000Z</time></trkpt><trkpt lon="34.843103" lat="31.384374"><ele>381</ele><time>2017-11-10T07:51:00.000Z</time></trkpt><trkpt lon="34.843101" lat="31.384392"><ele>381</ele><time>2017-11-10T07:51:01.000Z</time></trkpt><trkpt lon="34.8431" lat="31.384411"><ele>381</ele><time>2017-11-10T07:51:02.000Z</time></trkpt><trkpt lon="34.843098" lat="31.38443"><ele>381</ele><time>2017-11-10T07:51:03.000Z</time></trkpt><trkpt lon="34.843099" lat="31.384449"><ele>382</ele><time>2017-11-10T07:51:04.000Z</time></trkpt><trkpt lon="34.843101" lat="31.384468"><ele>382</ele><time>2017-11-10T07:51:05.000Z</time></trkpt><trkpt lon="34.843106" lat="31.384487"><ele>382</ele><time>2017-11-10T07:51:06.000Z</time></trkpt><trkpt lon="34.843112" lat="31.384507"><ele>382</ele><time>2017-11-10T07:51:07.000Z</time></trkpt><trkpt lon="34.843121" lat="31.384527"><ele>382</ele><time>2017-11-10T07:51:08.000Z</time></trkpt><trkpt lon="34.843132" lat="31.384546"><ele>382</ele><time>2017-11-10T07:51:09.000Z</time></trkpt><trkpt lon="34.843147" lat="31.384563"><ele>382</ele><time>2017-11-10T07:51:10.000Z</time></trkpt><trkpt lon="34.843163" lat="31.384579"><ele>383</ele><time>2017-11-10T07:51:11.000Z</time></trkpt><trkpt lon="34.843176" lat="31.384596"><ele>383</ele><time>2017-11-10T07:51:12.000Z</time></trkpt><trkpt lon="34.843183" lat="31.384616"><ele>384</ele><time>2017-11-10T07:51:13.000Z</time></trkpt><trkpt lon="34.843188" lat="31.384637"><ele>384</ele><time>2017-11-10T07:51:14.000Z</time></trkpt><trkpt lon="34.84319" lat="31.384658"><ele>384</ele><time>2017-11-10T07:51:15.000Z</time></trkpt><trkpt lon="34.843188" lat="31.38468"><ele>384</ele><time>2017-11-10T07:51:16.000Z</time></trkpt><trkpt lon="34.843182" lat="31.384703"><ele>384</ele><time>2017-11-10T07:51:17.000Z</time></trkpt><trkpt lon="34.843175" lat="31.384727"><ele>384</ele><time>2017-11-10T07:51:18.000Z</time></trkpt><trkpt lon="34.843168" lat="31.384752"><ele>384</ele><time>2017-11-10T07:51:19.000Z</time></trkpt><trkpt lon="34.843162" lat="31.384777"><ele>384</ele><time>2017-11-10T07:51:20.000Z</time></trkpt><trkpt lon="34.843156" lat="31.384802"><ele>384</ele><time>2017-11-10T07:51:21.000Z</time></trkpt><trkpt lon="34.843151" lat="31.384828"><ele>384</ele><time>2017-11-10T07:51:22.000Z</time></trkpt><trkpt lon="34.843147" lat="31.384853"><ele>384</ele><time>2017-11-10T07:51:23.000Z</time></trkpt><trkpt lon="34.843147" lat="31.384878"><ele>385</ele><time>2017-11-10T07:51:24.000Z</time></trkpt><trkpt lon="34.843148" lat="31.384902"><ele>385</ele><time>2017-11-10T07:51:25.000Z</time></trkpt><trkpt lon="34.84315" lat="31.384928"><ele>386</ele><time>2017-11-10T07:51:26.000Z</time></trkpt><trkpt lon="34.843153" lat="31.384956"><ele>386</ele><time>2017-11-10T07:51:27.000Z</time></trkpt><trkpt lon="34.843161" lat="31.384985"><ele>386</ele><time>2017-11-10T07:51:28.000Z</time></trkpt><trkpt lon="34.84317" lat="31.385014"><ele>386</ele><time>2017-11-10T07:51:29.000Z</time></trkpt><trkpt lon="34.843179" lat="31.385042"><ele>386</ele><time>2017-11-10T07:51:30.000Z</time></trkpt><trkpt lon="34.843187" lat="31.38507"><ele>386</ele><time>2017-11-10T07:51:31.000Z</time></trkpt><trkpt lon="34.843196" lat="31.3851"><ele>386</ele><time>2017-11-10T07:51:32.000Z</time></trkpt><trkpt lon="34.843204" lat="31.385131"><ele>386</ele><time>2017-11-10T07:51:33.000Z</time></trkpt><trkpt lon="34.843209" lat="31.385159"><ele>386</ele><time>2017-11-10T07:51:34.000Z</time></trkpt><trkpt lon="34.843215" lat="31.385186"><ele>386</ele><time>2017-11-10T07:51:35.000Z</time></trkpt><trkpt lon="34.84322" lat="31.385216"><ele>387</ele><time>2017-11-10T07:51:36.000Z</time></trkpt><trkpt lon="34.843217" lat="31.385245"><ele>387</ele><time>2017-11-10T07:51:37.000Z</time></trkpt><trkpt lon="34.843205" lat="31.385272"><ele>388</ele><time>2017-11-10T07:51:38.000Z</time></trkpt><trkpt lon="34.843182" lat="31.385295"><ele>388</ele><time>2017-11-10T07:51:39.000Z</time></trkpt><trkpt lon="34.843154" lat="31.385313"><ele>388</ele><time>2017-11-10T07:51:40.000Z</time></trkpt><trkpt lon="34.843121" lat="31.385327"><ele>388</ele><time>2017-11-10T07:51:41.000Z</time></trkpt><trkpt lon="34.843086" lat="31.385336"><ele>389</ele><time>2017-11-10T07:51:42.000Z</time></trkpt><trkpt lon="34.843048" lat="31.385337"><ele>389</ele><time>2017-11-10T07:51:43.000Z</time></trkpt><trkpt lon="34.84301" lat="31.385329"><ele>389</ele><time>2017-11-10T07:51:44.000Z</time></trkpt><trkpt lon="34.842973" lat="31.385319"><ele>389</ele><time>2017-11-10T07:51:45.000Z</time></trkpt><trkpt lon="34.842933" lat="31.385308"><ele>389</ele><time>2017-11-10T07:51:46.000Z</time></trkpt><trkpt lon="34.842889" lat="31.3853"><ele>389</ele><time>2017-11-10T07:51:47.000Z</time></trkpt><trkpt lon="34.842842" lat="31.385294"><ele>389</ele><time>2017-11-10T07:51:48.000Z</time></trkpt><trkpt lon="34.842794" lat="31.385291"><ele>389</ele><time>2017-11-10T07:51:49.000Z</time></trkpt><trkpt lon="34.842743" lat="31.385287"><ele>389</ele><time>2017-11-10T07:51:50.000Z</time></trkpt><trkpt lon="34.842691" lat="31.385284"><ele>389</ele><time>2017-11-10T07:51:51.000Z</time></trkpt><trkpt lon="34.842636" lat="31.385277"><ele>389</ele><time>2017-11-10T07:51:52.000Z</time></trkpt><trkpt lon="34.842582" lat="31.385264"><ele>388</ele><time>2017-11-10T07:51:53.000Z</time></trkpt><trkpt lon="34.842531" lat="31.385242"><ele>388</ele><time>2017-11-10T07:51:54.000Z</time></trkpt><trkpt lon="34.842486" lat="31.385213"><ele>388</ele><time>2017-11-10T07:51:55.000Z</time></trkpt><trkpt lon="34.842446" lat="31.385179"><ele>388</ele><time>2017-11-10T07:51:56.000Z</time></trkpt><trkpt lon="34.842405" lat="31.385141"><ele>388</ele><time>2017-11-10T07:51:57.000Z</time></trkpt><trkpt lon="34.842358" lat="31.385106"><ele>388</ele><time>2017-11-10T07:51:58.000Z</time></trkpt><trkpt lon="34.842311" lat="31.385085"><ele>388</ele><time>2017-11-10T07:51:59.000Z</time></trkpt><trkpt lon="34.842266" lat="31.385081"><ele>388</ele><time>2017-11-10T07:52:00.000Z</time></trkpt><trkpt lon="34.842227" lat="31.385091"><ele>387</ele><time>2017-11-10T07:52:01.000Z</time></trkpt><trkpt lon="34.842189" lat="31.385106"><ele>387</ele><time>2017-11-10T07:52:02.000Z</time></trkpt><trkpt lon="34.842152" lat="31.385122"><ele>387</ele><time>2017-11-10T07:52:03.000Z</time></trkpt><trkpt lon="34.842119" lat="31.385143"><ele>387</ele><time>2017-11-10T07:52:04.000Z</time></trkpt><trkpt lon="34.842092" lat="31.385167"><ele>388</ele><time>2017-11-10T07:52:05.000Z</time></trkpt><trkpt lon="34.84207" lat="31.385194"><ele>388</ele><time>2017-11-10T07:52:06.000Z</time></trkpt><trkpt lon="34.842048" lat="31.385227"><ele>388</ele><time>2017-11-10T07:52:07.000Z</time></trkpt><trkpt lon="34.842029" lat="31.385259"><ele>388</ele><time>2017-11-10T07:52:08.000Z</time></trkpt><trkpt lon="34.842013" lat="31.385291"><ele>388</ele><time>2017-11-10T07:52:09.000Z</time></trkpt><trkpt lon="34.842" lat="31.385324"><ele>388</ele><time>2017-11-10T07:52:10.000Z</time></trkpt><trkpt lon="34.841999" lat="31.385359"><ele>388</ele><time>2017-11-10T07:52:11.000Z</time></trkpt><trkpt lon="34.842008" lat="31.385392"><ele>388</ele><time>2017-11-10T07:52:12.000Z</time></trkpt><trkpt lon="34.842019" lat="31.385423"><ele>388</ele><time>2017-11-10T07:52:13.000Z</time></trkpt><trkpt lon="34.842026" lat="31.385457"><ele>388</ele><time>2017-11-10T07:52:14.000Z</time></trkpt><trkpt lon="34.842021" lat="31.385491"><ele>388</ele><time>2017-11-10T07:52:15.000Z</time></trkpt><trkpt lon="34.842012" lat="31.385528"><ele>388</ele><time>2017-11-10T07:52:16.000Z</time></trkpt><trkpt lon="34.842012" lat="31.385566"><ele>388</ele><time>2017-11-10T07:52:17.000Z</time></trkpt><trkpt lon="34.842025" lat="31.385603"><ele>388</ele><time>2017-11-10T07:52:18.000Z</time></trkpt><trkpt lon="34.842051" lat="31.385634"><ele>389</ele><time>2017-11-10T07:52:19.000Z</time></trkpt><trkpt lon="34.842084" lat="31.385657"><ele>389</ele><time>2017-11-10T07:52:20.000Z</time></trkpt><trkpt lon="34.842117" lat="31.385673"><ele>389</ele><time>2017-11-10T07:52:21.000Z</time></trkpt><trkpt lon="34.842149" lat="31.385682"><ele>390</ele><time>2017-11-10T07:52:22.000Z</time></trkpt><trkpt lon="34.842175" lat="31.385683"><ele>390</ele><time>2017-11-10T07:52:23.000Z</time></trkpt><trkpt lon="34.842175" lat="31.385683"><ele>390</ele><time>2017-11-10T07:52:24.000Z</time></trkpt><trkpt lon="34.842212" lat="31.385673"><ele>390</ele><time>2017-11-10T07:52:25.000Z</time></trkpt><trkpt lon="34.842212" lat="31.385673"><ele>390</ele><time>2017-11-10T07:52:26.000Z</time></trkpt><trkpt lon="34.842242" lat="31.385662"><ele>390</ele><time>2017-11-10T07:52:27.000Z</time></trkpt><trkpt lon="34.842264" lat="31.385657"><ele>391</ele><time>2017-11-10T07:52:28.000Z</time></trkpt><trkpt lon="34.842286" lat="31.385649"><ele>391</ele><time>2017-11-10T07:52:29.000Z</time></trkpt><trkpt lon="34.84231" lat="31.385637"><ele>391</ele><time>2017-11-10T07:52:30.000Z</time></trkpt><trkpt lon="34.842333" lat="31.385623"><ele>391</ele><time>2017-11-10T07:52:31.000Z</time></trkpt><trkpt lon="34.842354" lat="31.385606"><ele>391</ele><time>2017-11-10T07:52:32.000Z</time></trkpt><trkpt lon="34.842371" lat="31.385589"><ele>391</ele><time>2017-11-10T07:52:33.000Z</time></trkpt><trkpt lon="34.842393" lat="31.38557"><ele>391</ele><time>2017-11-10T07:52:34.000Z</time></trkpt><trkpt lon="34.842421" lat="31.38555"><ele>391</ele><time>2017-11-10T07:52:35.000Z</time></trkpt><trkpt lon="34.842451" lat="31.385529"><ele>391</ele><time>2017-11-10T07:52:36.000Z</time></trkpt><trkpt lon="34.842487" lat="31.385511"><ele>391</ele><time>2017-11-10T07:52:37.000Z</time></trkpt><trkpt lon="34.842526" lat="31.385501"><ele>392</ele><time>2017-11-10T07:52:38.000Z</time></trkpt><trkpt lon="34.842555" lat="31.385495"><ele>392</ele><time>2017-11-10T07:52:39.000Z</time></trkpt><trkpt lon="34.842579" lat="31.385489"><ele>393</ele><time>2017-11-10T07:52:40.000Z</time></trkpt><trkpt lon="34.842602" lat="31.38548"><ele>393</ele><time>2017-11-10T07:52:41.000Z</time></trkpt><trkpt lon="34.842627" lat="31.385472"><ele>393</ele><time>2017-11-10T07:52:42.000Z</time></trkpt><trkpt lon="34.842654" lat="31.385466"><ele>393</ele><time>2017-11-10T07:52:43.000Z</time></trkpt><trkpt lon="34.842683" lat="31.385465"><ele>393</ele><time>2017-11-10T07:52:44.000Z</time></trkpt><trkpt lon="34.842712" lat="31.385468"><ele>393</ele><time>2017-11-10T07:52:45.000Z</time></trkpt><trkpt lon="34.842741" lat="31.385473"><ele>393</ele><time>2017-11-10T07:52:46.000Z</time></trkpt><trkpt lon="34.842766" lat="31.385477"><ele>394</ele><time>2017-11-10T07:52:47.000Z</time></trkpt><trkpt lon="34.842792" lat="31.38548"><ele>394</ele><time>2017-11-10T07:52:48.000Z</time></trkpt><trkpt lon="34.842818" lat="31.385482"><ele>394</ele><time>2017-11-10T07:52:49.000Z</time></trkpt><trkpt lon="34.842845" lat="31.385486"><ele>394</ele><time>2017-11-10T07:52:50.000Z</time></trkpt><trkpt lon="34.84287" lat="31.385491"><ele>394</ele><time>2017-11-10T07:52:51.000Z</time></trkpt><trkpt lon="34.842895" lat="31.385502"><ele>395</ele><time>2017-11-10T07:52:52.000Z</time></trkpt><trkpt lon="34.842918" lat="31.385516"><ele>395</ele><time>2017-11-10T07:52:53.000Z</time></trkpt><trkpt lon="34.842939" lat="31.385532"><ele>395</ele><time>2017-11-10T07:52:54.000Z</time></trkpt><trkpt lon="34.842957" lat="31.385546"><ele>395</ele><time>2017-11-10T07:52:55.000Z</time></trkpt><trkpt lon="34.842974" lat="31.385559"><ele>395</ele><time>2017-11-10T07:52:56.000Z</time></trkpt><trkpt lon="34.842974" lat="31.385559"><ele>395</ele><time>2017-11-10T07:52:57.000Z</time></trkpt><trkpt lon="34.843008" lat="31.385573"><ele>395</ele><time>2017-11-10T07:52:58.000Z</time></trkpt><trkpt lon="34.843033" lat="31.385583"><ele>395</ele><time>2017-11-10T07:52:59.000Z</time></trkpt><trkpt lon="34.843061" lat="31.385589"><ele>395</ele><time>2017-11-10T07:53:00.000Z</time></trkpt><trkpt lon="34.843094" lat="31.385592"><ele>396</ele><time>2017-11-10T07:53:01.000Z</time></trkpt><trkpt lon="34.84313" lat="31.385594"><ele>396</ele><time>2017-11-10T07:53:02.000Z</time></trkpt><trkpt lon="34.843163" lat="31.38559"><ele>397</ele><time>2017-11-10T07:53:03.000Z</time></trkpt><trkpt lon="34.843193" lat="31.385581"><ele>397</ele><time>2017-11-10T07:53:04.000Z</time></trkpt><trkpt lon="34.843222" lat="31.38557"><ele>397</ele><time>2017-11-10T07:53:05.000Z</time></trkpt><trkpt lon="34.843254" lat="31.385562"><ele>397</ele><time>2017-11-10T07:53:06.000Z</time></trkpt><trkpt lon="34.843289" lat="31.385558"><ele>397</ele><time>2017-11-10T07:53:07.000Z</time></trkpt><trkpt lon="34.843321" lat="31.385555"><ele>397</ele><time>2017-11-10T07:53:08.000Z</time></trkpt><trkpt lon="34.843346" lat="31.385547"><ele>397</ele><time>2017-11-10T07:53:09.000Z</time></trkpt><trkpt lon="34.843371" lat="31.385538"><ele>397</ele><time>2017-11-10T07:53:10.000Z</time></trkpt><trkpt lon="34.843399" lat="31.385528"><ele>397</ele><time>2017-11-10T07:53:11.000Z</time></trkpt><trkpt lon="34.843426" lat="31.385517"><ele>397</ele><time>2017-11-10T07:53:12.000Z</time></trkpt><trkpt lon="34.843454" lat="31.385503"><ele>397</ele><time>2017-11-10T07:53:13.000Z</time></trkpt><trkpt lon="34.843482" lat="31.385484"><ele>397</ele><time>2017-11-10T07:53:14.000Z</time></trkpt><trkpt lon="34.843508" lat="31.385463"><ele>397</ele><time>2017-11-10T07:53:15.000Z</time></trkpt><trkpt lon="34.843531" lat="31.385443"><ele>397</ele><time>2017-11-10T07:53:16.000Z</time></trkpt><trkpt lon="34.843548" lat="31.385421"><ele>397</ele><time>2017-11-10T07:53:17.000Z</time></trkpt><trkpt lon="34.843564" lat="31.385398"><ele>397</ele><time>2017-11-10T07:53:18.000Z</time></trkpt><trkpt lon="34.84358" lat="31.385375"><ele>397</ele><time>2017-11-10T07:53:19.000Z</time></trkpt><trkpt lon="34.843603" lat="31.385347"><ele>397</ele><time>2017-11-10T07:53:20.000Z</time></trkpt><trkpt lon="34.843628" lat="31.385324"><ele>398</ele><time>2017-11-10T07:53:21.000Z</time></trkpt><trkpt lon="34.843655" lat="31.385302"><ele>398</ele><time>2017-11-10T07:53:22.000Z</time></trkpt><trkpt lon="34.84368" lat="31.385282"><ele>398</ele><time>2017-11-10T07:53:23.000Z</time></trkpt><trkpt lon="34.843704" lat="31.385266"><ele>398</ele><time>2017-11-10T07:53:24.000Z</time></trkpt><trkpt lon="34.843727" lat="31.385251"><ele>398</ele><time>2017-11-10T07:53:25.000Z</time></trkpt><trkpt lon="34.843748" lat="31.385235"><ele>398</ele><time>2017-11-10T07:53:26.000Z</time></trkpt><trkpt lon="34.843767" lat="31.385218"><ele>398</ele><time>2017-11-10T07:53:27.000Z</time></trkpt><trkpt lon="34.843787" lat="31.385202"><ele>398</ele><time>2017-11-10T07:53:28.000Z</time></trkpt><trkpt lon="34.843805" lat="31.385187"><ele>399</ele><time>2017-11-10T07:53:29.000Z</time></trkpt><trkpt lon="34.843819" lat="31.385171"><ele>399</ele><time>2017-11-10T07:53:30.000Z</time></trkpt><trkpt lon="34.843833" lat="31.385152"><ele>399</ele><time>2017-11-10T07:53:31.000Z</time></trkpt><trkpt lon="34.843848" lat="31.385134"><ele>399</ele><time>2017-11-10T07:53:32.000Z</time></trkpt><trkpt lon="34.843865" lat="31.385119"><ele>399</ele><time>2017-11-10T07:53:33.000Z</time></trkpt><trkpt lon="34.843884" lat="31.385105"><ele>399</ele><time>2017-11-10T07:53:34.000Z</time></trkpt><trkpt lon="34.843901" lat="31.38509"><ele>399</ele><time>2017-11-10T07:53:35.000Z</time></trkpt><trkpt lon="34.843924" lat="31.385075"><ele>399</ele><time>2017-11-10T07:53:36.000Z</time></trkpt><trkpt lon="34.843946" lat="31.385064"><ele>399</ele><time>2017-11-10T07:53:37.000Z</time></trkpt><trkpt lon="34.843968" lat="31.385054"><ele>400</ele><time>2017-11-10T07:53:38.000Z</time></trkpt><trkpt lon="34.843992" lat="31.385043"><ele>400</ele><time>2017-11-10T07:53:39.000Z</time></trkpt><trkpt lon="34.844012" lat="31.385036"><ele>400</ele><time>2017-11-10T07:53:40.000Z</time></trkpt><trkpt lon="34.844035" lat="31.38503"><ele>400</ele><time>2017-11-10T07:53:41.000Z</time></trkpt><trkpt lon="34.844059" lat="31.385025"><ele>400</ele><time>2017-11-10T07:53:42.000Z</time></trkpt><trkpt lon="34.844081" lat="31.385018"><ele>400</ele><time>2017-11-10T07:53:43.000Z</time></trkpt><trkpt lon="34.8441" lat="31.385007"><ele>400</ele><time>2017-11-10T07:53:44.000Z</time></trkpt><trkpt lon="34.84412" lat="31.384996"><ele>400</ele><time>2017-11-10T07:53:45.000Z</time></trkpt><trkpt lon="34.844142" lat="31.384984"><ele>401</ele><time>2017-11-10T07:53:46.000Z</time></trkpt><trkpt lon="34.844164" lat="31.384977"><ele>402</ele><time>2017-11-10T07:53:47.000Z</time></trkpt><trkpt lon="34.844184" lat="31.38497"><ele>402</ele><time>2017-11-10T07:53:48.000Z</time></trkpt><trkpt lon="34.844203" lat="31.384959"><ele>402</ele><time>2017-11-10T07:53:49.000Z</time></trkpt><trkpt lon="34.84422" lat="31.384943"><ele>402</ele><time>2017-11-10T07:53:50.000Z</time></trkpt><trkpt lon="34.844239" lat="31.384926"><ele>402</ele><time>2017-11-10T07:53:51.000Z</time></trkpt><trkpt lon="34.844262" lat="31.384912"><ele>402</ele><time>2017-11-10T07:53:52.000Z</time></trkpt><trkpt lon="34.844289" lat="31.3849"><ele>402</ele><time>2017-11-10T07:53:53.000Z</time></trkpt><trkpt lon="34.844317" lat="31.384891"><ele>402</ele><time>2017-11-10T07:53:54.000Z</time></trkpt><trkpt lon="34.844346" lat="31.384881"><ele>402</ele><time>2017-11-10T07:53:55.000Z</time></trkpt><trkpt lon="34.844374" lat="31.38487"><ele>402</ele><time>2017-11-10T07:53:56.000Z</time></trkpt><trkpt lon="34.8444" lat="31.384859"><ele>402</ele><time>2017-11-10T07:53:57.000Z</time></trkpt><trkpt lon="34.844426" lat="31.384847"><ele>402</ele><time>2017-11-10T07:53:58.000Z</time></trkpt><trkpt lon="34.844452" lat="31.384835"><ele>402</ele><time>2017-11-10T07:53:59.000Z</time></trkpt><trkpt lon="34.844481" lat="31.384822"><ele>403</ele><time>2017-11-10T07:54:00.000Z</time></trkpt><trkpt lon="34.844511" lat="31.384811"><ele>403</ele><time>2017-11-10T07:54:01.000Z</time></trkpt><trkpt lon="34.844547" lat="31.384807"><ele>403</ele><time>2017-11-10T07:54:02.000Z</time></trkpt><trkpt lon="34.844581" lat="31.38481"><ele>403</ele><time>2017-11-10T07:54:03.000Z</time></trkpt><trkpt lon="34.844615" lat="31.384817"><ele>403</ele><time>2017-11-10T07:54:04.000Z</time></trkpt><trkpt lon="34.844647" lat="31.384824"><ele>403</ele><time>2017-11-10T07:54:05.000Z</time></trkpt><trkpt lon="34.844677" lat="31.384831"><ele>403</ele><time>2017-11-10T07:54:06.000Z</time></trkpt><trkpt lon="34.844705" lat="31.384838"><ele>404</ele><time>2017-11-10T07:54:07.000Z</time></trkpt><trkpt lon="34.844733" lat="31.384846"><ele>404</ele><time>2017-11-10T07:54:08.000Z</time></trkpt><trkpt lon="34.844762" lat="31.384854"><ele>404</ele><time>2017-11-10T07:54:09.000Z</time></trkpt><trkpt lon="34.844789" lat="31.384862"><ele>404</ele><time>2017-11-10T07:54:10.000Z</time></trkpt><trkpt lon="34.844815" lat="31.384874"><ele>404</ele><time>2017-11-10T07:54:11.000Z</time></trkpt><trkpt lon="34.844842" lat="31.38489"><ele>404</ele><time>2017-11-10T07:54:12.000Z</time></trkpt><trkpt lon="34.844866" lat="31.384909"><ele>404</ele><time>2017-11-10T07:54:13.000Z</time></trkpt><trkpt lon="34.844889" lat="31.384928"><ele>404</ele><time>2017-11-10T07:54:14.000Z</time></trkpt><trkpt lon="34.84491" lat="31.384947"><ele>404</ele><time>2017-11-10T07:54:15.000Z</time></trkpt><trkpt lon="34.844931" lat="31.384966"><ele>405</ele><time>2017-11-10T07:54:16.000Z</time></trkpt><trkpt lon="34.844956" lat="31.384986"><ele>405</ele><time>2017-11-10T07:54:17.000Z</time></trkpt><trkpt lon="34.844983" lat="31.385006"><ele>405</ele><time>2017-11-10T07:54:18.000Z</time></trkpt><trkpt lon="34.845017" lat="31.385027"><ele>406</ele><time>2017-11-10T07:54:19.000Z</time></trkpt><trkpt lon="34.845057" lat="31.385056"><ele>406</ele><time>2017-11-10T07:54:20.000Z</time></trkpt><trkpt lon="34.845094" lat="31.385085"><ele>406</ele><time>2017-11-10T07:54:21.000Z</time></trkpt><trkpt lon="34.845124" lat="31.385113"><ele>406</ele><time>2017-11-10T07:54:22.000Z</time></trkpt><trkpt lon="34.845148" lat="31.385136"><ele>407</ele><time>2017-11-10T07:54:23.000Z</time></trkpt><trkpt lon="34.845169" lat="31.385158"><ele>407</ele><time>2017-11-10T07:54:24.000Z</time></trkpt><trkpt lon="34.845188" lat="31.38518"><ele>407</ele><time>2017-11-10T07:54:25.000Z</time></trkpt><trkpt lon="34.845205" lat="31.385201"><ele>407</ele><time>2017-11-10T07:54:26.000Z</time></trkpt><trkpt lon="34.845219" lat="31.385223"><ele>408</ele><time>2017-11-10T07:54:27.000Z</time></trkpt><trkpt lon="34.845234" lat="31.385248"><ele>408</ele><time>2017-11-10T07:54:28.000Z</time></trkpt><trkpt lon="34.845251" lat="31.385274"><ele>408</ele><time>2017-11-10T07:54:29.000Z</time></trkpt><trkpt lon="34.845264" lat="31.385304"><ele>408</ele><time>2017-11-10T07:54:30.000Z</time></trkpt><trkpt lon="34.845273" lat="31.385331"><ele>408</ele><time>2017-11-10T07:54:31.000Z</time></trkpt><trkpt lon="34.845281" lat="31.385358"><ele>408</ele><time>2017-11-10T07:54:32.000Z</time></trkpt><trkpt lon="34.845286" lat="31.385383"><ele>409</ele><time>2017-11-10T07:54:33.000Z</time></trkpt><trkpt lon="34.845297" lat="31.385404"><ele>409</ele><time>2017-11-10T07:54:34.000Z</time></trkpt><trkpt lon="34.845314" lat="31.385423"><ele>409</ele><time>2017-11-10T07:54:35.000Z</time></trkpt><trkpt lon="34.845338" lat="31.385446"><ele>409</ele><time>2017-11-10T07:54:36.000Z</time></trkpt><trkpt lon="34.845362" lat="31.385472"><ele>409</ele><time>2017-11-10T07:54:37.000Z</time></trkpt><trkpt lon="34.845381" lat="31.385501"><ele>409</ele><time>2017-11-10T07:54:38.000Z</time></trkpt><trkpt lon="34.845401" lat="31.38553"><ele>409</ele><time>2017-11-10T07:54:39.000Z</time></trkpt><trkpt lon="34.845424" lat="31.385558"><ele>409</ele><time>2017-11-10T07:54:40.000Z</time></trkpt><trkpt lon="34.845446" lat="31.385583"><ele>408</ele><time>2017-11-10T07:54:41.000Z</time></trkpt><trkpt lon="34.845474" lat="31.385603"><ele>408</ele><time>2017-11-10T07:54:42.000Z</time></trkpt><trkpt lon="34.845506" lat="31.385621"><ele>408</ele><time>2017-11-10T07:54:43.000Z</time></trkpt><trkpt lon="34.845536" lat="31.385641"><ele>408</ele><time>2017-11-10T07:54:44.000Z</time></trkpt><trkpt lon="34.845558" lat="31.385668"><ele>408</ele><time>2017-11-10T07:54:45.000Z</time></trkpt><trkpt lon="34.845574" lat="31.385694"><ele>408</ele><time>2017-11-10T07:54:46.000Z</time></trkpt><trkpt lon="34.845588" lat="31.385719"><ele>408</ele><time>2017-11-10T07:54:47.000Z</time></trkpt><trkpt lon="34.845607" lat="31.385741"><ele>408</ele><time>2017-11-10T07:54:48.000Z</time></trkpt><trkpt lon="34.84564" lat="31.385761"><ele>408</ele><time>2017-11-10T07:54:49.000Z</time></trkpt><trkpt lon="34.845679" lat="31.385773"><ele>408</ele><time>2017-11-10T07:54:50.000Z</time></trkpt><trkpt lon="34.84572" lat="31.385784"><ele>408</ele><time>2017-11-10T07:54:51.000Z</time></trkpt><trkpt lon="34.845763" lat="31.385795"><ele>408</ele><time>2017-11-10T07:54:52.000Z</time></trkpt><trkpt lon="34.84581" lat="31.385806"><ele>408</ele><time>2017-11-10T07:54:53.000Z</time></trkpt><trkpt lon="34.845847" lat="31.385819"><ele>408</ele><time>2017-11-10T07:54:54.000Z</time></trkpt><trkpt lon="34.845882" lat="31.385831"><ele>408</ele><time>2017-11-10T07:54:55.000Z</time></trkpt><trkpt lon="34.845926" lat="31.385843"><ele>408</ele><time>2017-11-10T07:54:56.000Z</time></trkpt><trkpt lon="34.845967" lat="31.385856"><ele>408</ele><time>2017-11-10T07:54:57.000Z</time></trkpt><trkpt lon="34.846007" lat="31.385867"><ele>408</ele><time>2017-11-10T07:54:58.000Z</time></trkpt><trkpt lon="34.846045" lat="31.385875"><ele>408</ele><time>2017-11-10T07:54:59.000Z</time></trkpt><trkpt lon="34.84608" lat="31.385886"><ele>408</ele><time>2017-11-10T07:55:00.000Z</time></trkpt><trkpt lon="34.846106" lat="31.3859"><ele>408</ele><time>2017-11-10T07:55:01.000Z</time></trkpt><trkpt lon="34.846119" lat="31.385924"><ele>408</ele><time>2017-11-10T07:55:02.000Z</time></trkpt><trkpt lon="34.84613" lat="31.38595"><ele>408</ele><time>2017-11-10T07:55:03.000Z</time></trkpt><trkpt lon="34.846139" lat="31.385978"><ele>408</ele><time>2017-11-10T07:55:04.000Z</time></trkpt><trkpt lon="34.846161" lat="31.386002"><ele>408</ele><time>2017-11-10T07:55:05.000Z</time></trkpt><trkpt lon="34.846192" lat="31.386024"><ele>408</ele><time>2017-11-10T07:55:06.000Z</time></trkpt><trkpt lon="34.846221" lat="31.386046"><ele>409</ele><time>2017-11-10T07:55:07.000Z</time></trkpt><trkpt lon="34.846254" lat="31.386064"><ele>409</ele><time>2017-11-10T07:55:08.000Z</time></trkpt><trkpt lon="34.846295" lat="31.386078"><ele>409</ele><time>2017-11-10T07:55:09.000Z</time></trkpt><trkpt lon="34.846332" lat="31.386092"><ele>409</ele><time>2017-11-10T07:55:10.000Z</time></trkpt><trkpt lon="34.846359" lat="31.38611"><ele>409</ele><time>2017-11-10T07:55:11.000Z</time></trkpt><trkpt lon="34.846382" lat="31.38613"><ele>409</ele><time>2017-11-10T07:55:12.000Z</time></trkpt><trkpt lon="34.846402" lat="31.386151"><ele>409</ele><time>2017-11-10T07:55:13.000Z</time></trkpt><trkpt lon="34.846419" lat="31.386172"><ele>409</ele><time>2017-11-10T07:55:14.000Z</time></trkpt><trkpt lon="34.846435" lat="31.386192"><ele>409</ele><time>2017-11-10T07:55:15.000Z</time></trkpt><trkpt lon="34.846461" lat="31.38621"><ele>409</ele><time>2017-11-10T07:55:16.000Z</time></trkpt><trkpt lon="34.846497" lat="31.38623"><ele>409</ele><time>2017-11-10T07:55:17.000Z</time></trkpt><trkpt lon="34.846531" lat="31.386246"><ele>409</ele><time>2017-11-10T07:55:18.000Z</time></trkpt><trkpt lon="34.846559" lat="31.386258"><ele>410</ele><time>2017-11-10T07:55:19.000Z</time></trkpt><trkpt lon="34.846584" lat="31.386272"><ele>410</ele><time>2017-11-10T07:55:20.000Z</time></trkpt><trkpt lon="34.84661" lat="31.38629"><ele>410</ele><time>2017-11-10T07:55:21.000Z</time></trkpt><trkpt lon="34.846634" lat="31.38631"><ele>410</ele><time>2017-11-10T07:55:22.000Z</time></trkpt><trkpt lon="34.846657" lat="31.386328"><ele>410</ele><time>2017-11-10T07:55:23.000Z</time></trkpt><trkpt lon="34.846685" lat="31.386344"><ele>411</ele><time>2017-11-10T07:55:24.000Z</time></trkpt><trkpt lon="34.846718" lat="31.38636"><ele>411</ele><time>2017-11-10T07:55:25.000Z</time></trkpt><trkpt lon="34.84675" lat="31.386372"><ele>411</ele><time>2017-11-10T07:55:26.000Z</time></trkpt><trkpt lon="34.84678" lat="31.386383"><ele>411</ele><time>2017-11-10T07:55:27.000Z</time></trkpt><trkpt lon="34.846817" lat="31.386393"><ele>411</ele><time>2017-11-10T07:55:28.000Z</time></trkpt><trkpt lon="34.84686" lat="31.386396"><ele>411</ele><time>2017-11-10T07:55:29.000Z</time></trkpt><trkpt lon="34.846909" lat="31.386396"><ele>412</ele><time>2017-11-10T07:55:30.000Z</time></trkpt><trkpt lon="34.846955" lat="31.386394"><ele>412</ele><time>2017-11-10T07:55:31.000Z</time></trkpt><trkpt lon="34.846997" lat="31.386392"><ele>412</ele><time>2017-11-10T07:55:32.000Z</time></trkpt><trkpt lon="34.847034" lat="31.386388"><ele>412</ele><time>2017-11-10T07:55:33.000Z</time></trkpt><trkpt lon="34.847067" lat="31.386382"><ele>413</ele><time>2017-11-10T07:55:34.000Z</time></trkpt><trkpt lon="34.847099" lat="31.386376"><ele>413</ele><time>2017-11-10T07:55:35.000Z</time></trkpt><trkpt lon="34.847135" lat="31.386366"><ele>413</ele><time>2017-11-10T07:55:36.000Z</time></trkpt><trkpt lon="34.84717" lat="31.386358"><ele>414</ele><time>2017-11-10T07:55:37.000Z</time></trkpt><trkpt lon="34.847202" lat="31.386348"><ele>414</ele><time>2017-11-10T07:55:38.000Z</time></trkpt><trkpt lon="34.847237" lat="31.386334"><ele>414</ele><time>2017-11-10T07:55:39.000Z</time></trkpt><trkpt lon="34.847272" lat="31.386322"><ele>415</ele><time>2017-11-10T07:55:40.000Z</time></trkpt><trkpt lon="34.847305" lat="31.38631"><ele>415</ele><time>2017-11-10T07:55:41.000Z</time></trkpt><trkpt lon="34.847337" lat="31.386298"><ele>415</ele><time>2017-11-10T07:55:42.000Z</time></trkpt><trkpt lon="34.847365" lat="31.386286"><ele>415</ele><time>2017-11-10T07:55:43.000Z</time></trkpt><trkpt lon="34.847391" lat="31.386272"><ele>415</ele><time>2017-11-10T07:55:44.000Z</time></trkpt><trkpt lon="34.847412" lat="31.386256"><ele>415</ele><time>2017-11-10T07:55:45.000Z</time></trkpt><trkpt lon="34.847434" lat="31.386236"><ele>415</ele><time>2017-11-10T07:55:46.000Z</time></trkpt><trkpt lon="34.847454" lat="31.386216"><ele>415</ele><time>2017-11-10T07:55:47.000Z</time></trkpt><trkpt lon="34.84747" lat="31.386196"><ele>415</ele><time>2017-11-10T07:55:48.000Z</time></trkpt><trkpt lon="34.84748" lat="31.386179"><ele>415</ele><time>2017-11-10T07:55:49.000Z</time></trkpt><trkpt lon="34.84749" lat="31.38616"><ele>415</ele><time>2017-11-10T07:55:50.000Z</time></trkpt><trkpt lon="34.847504" lat="31.386146"><ele>416</ele><time>2017-11-10T07:55:51.000Z</time></trkpt><trkpt lon="34.84752" lat="31.386132"><ele>416</ele><time>2017-11-10T07:55:52.000Z</time></trkpt><trkpt lon="34.84752" lat="31.386132"><ele>416</ele><time>2017-11-10T07:55:53.000Z</time></trkpt><trkpt lon="34.84755" lat="31.386108"><ele>416</ele><time>2017-11-10T07:55:54.000Z</time></trkpt><trkpt lon="34.847564" lat="31.386094"><ele>416</ele><time>2017-11-10T07:55:55.000Z</time></trkpt><trkpt lon="34.847575" lat="31.386076"><ele>416</ele><time>2017-11-10T07:55:56.000Z</time></trkpt><trkpt lon="34.84758" lat="31.386056"><ele>416</ele><time>2017-11-10T07:55:57.000Z</time></trkpt><trkpt lon="34.84758" lat="31.386056"><ele>417</ele><time>2017-11-10T07:55:58.000Z</time></trkpt><trkpt lon="34.847558" lat="31.38603"><ele>417</ele><time>2017-11-10T07:55:59.000Z</time></trkpt><trkpt lon="34.847558" lat="31.38603"><ele>417</ele><time>2017-11-10T07:56:00.000Z</time></trkpt><trkpt lon="34.847528" lat="31.38604"><ele>417</ele><time>2017-11-10T07:56:01.000Z</time></trkpt><trkpt lon="34.847518" lat="31.38606"><ele>417</ele><time>2017-11-10T07:56:02.000Z</time></trkpt><trkpt lon="34.847504" lat="31.386082"><ele>417</ele><time>2017-11-10T07:56:03.000Z</time></trkpt><trkpt lon="34.847486" lat="31.386096"><ele>417</ele><time>2017-11-10T07:56:04.000Z</time></trkpt><trkpt lon="34.847462" lat="31.386105"><ele>417</ele><time>2017-11-10T07:56:05.000Z</time></trkpt><trkpt lon="34.847438" lat="31.386112"><ele>417</ele><time>2017-11-10T07:56:06.000Z</time></trkpt><trkpt lon="34.847412" lat="31.386118"><ele>417</ele><time>2017-11-10T07:56:07.000Z</time></trkpt><trkpt lon="34.847386" lat="31.386128"><ele>417</ele><time>2017-11-10T07:56:08.000Z</time></trkpt><trkpt lon="34.84736" lat="31.386141"><ele>417</ele><time>2017-11-10T07:56:09.000Z</time></trkpt><trkpt lon="34.847332" lat="31.386151"><ele>417</ele><time>2017-11-10T07:56:10.000Z</time></trkpt><trkpt lon="34.847304" lat="31.386153"><ele>417</ele><time>2017-11-10T07:56:11.000Z</time></trkpt><trkpt lon="34.847278" lat="31.386148"><ele>418</ele><time>2017-11-10T07:56:12.000Z</time></trkpt><trkpt lon="34.847258" lat="31.386139"><ele>418</ele><time>2017-11-10T07:56:13.000Z</time></trkpt><trkpt lon="34.84724" lat="31.386123"><ele>418</ele><time>2017-11-10T07:56:14.000Z</time></trkpt><trkpt lon="34.847224" lat="31.386105"><ele>418</ele><time>2017-11-10T07:56:15.000Z</time></trkpt><trkpt lon="34.84721" lat="31.386087"><ele>418</ele><time>2017-11-10T07:56:16.000Z</time></trkpt><trkpt lon="34.8472" lat="31.386066"><ele>418</ele><time>2017-11-10T07:56:17.000Z</time></trkpt><trkpt lon="34.847195" lat="31.386045"><ele>418</ele><time>2017-11-10T07:56:18.000Z</time></trkpt><trkpt lon="34.847198" lat="31.386026"><ele>419</ele><time>2017-11-10T07:56:19.000Z</time></trkpt><trkpt lon="34.847212" lat="31.386009"><ele>419</ele><time>2017-11-10T07:56:20.000Z</time></trkpt><trkpt lon="34.847232" lat="31.385996"><ele>420</ele><time>2017-11-10T07:56:21.000Z</time></trkpt><trkpt lon="34.847254" lat="31.38599"><ele>420</ele><time>2017-11-10T07:56:22.000Z</time></trkpt><trkpt lon="34.84728" lat="31.38599"><ele>420</ele><time>2017-11-10T07:56:23.000Z</time></trkpt><trkpt lon="34.847304" lat="31.385985"><ele>420</ele><time>2017-11-10T07:56:24.000Z</time></trkpt><trkpt lon="34.847304" lat="31.385985"><ele>420</ele><time>2017-11-10T07:56:25.000Z</time></trkpt><trkpt lon="34.847332" lat="31.385964"><ele>421</ele><time>2017-11-10T07:56:26.000Z</time></trkpt><trkpt lon="34.847344" lat="31.385949"><ele>421</ele><time>2017-11-10T07:56:27.000Z</time></trkpt><trkpt lon="34.847356" lat="31.385934"><ele>421</ele><time>2017-11-10T07:56:28.000Z</time></trkpt><trkpt lon="34.847372" lat="31.385921"><ele>421</ele><time>2017-11-10T07:56:29.000Z</time></trkpt><trkpt lon="34.847372" lat="31.385921"><ele>421</ele><time>2017-11-10T07:56:30.000Z</time></trkpt><trkpt lon="34.847408" lat="31.385906"><ele>421</ele><time>2017-11-10T07:56:31.000Z</time></trkpt><trkpt lon="34.847434" lat="31.385898"><ele>421</ele><time>2017-11-10T07:56:32.000Z</time></trkpt><trkpt lon="34.847458" lat="31.38589"><ele>421</ele><time>2017-11-10T07:56:33.000Z</time></trkpt><trkpt lon="34.84748" lat="31.385881"><ele>421</ele><time>2017-11-10T07:56:34.000Z</time></trkpt><trkpt lon="34.8475" lat="31.385871"><ele>421</ele><time>2017-11-10T07:56:35.000Z</time></trkpt><trkpt lon="34.8475" lat="31.385871"><ele>421</ele><time>2017-11-10T07:56:36.000Z</time></trkpt><trkpt lon="34.847534" lat="31.385852"><ele>421</ele><time>2017-11-10T07:56:37.000Z</time></trkpt><trkpt lon="34.847554" lat="31.385844"><ele>421</ele><time>2017-11-10T07:56:38.000Z</time></trkpt><trkpt lon="34.847576" lat="31.385836"><ele>421</ele><time>2017-11-10T07:56:39.000Z</time></trkpt><trkpt lon="34.8476" lat="31.385824"><ele>421</ele><time>2017-11-10T07:56:40.000Z</time></trkpt><trkpt lon="34.847622" lat="31.385809"><ele>421</ele><time>2017-11-10T07:56:41.000Z</time></trkpt><trkpt lon="34.847642" lat="31.38579"><ele>421</ele><time>2017-11-10T07:56:42.000Z</time></trkpt><trkpt lon="34.84766" lat="31.385767"><ele>421</ele><time>2017-11-10T07:56:43.000Z</time></trkpt><trkpt lon="34.847672" lat="31.38574"><ele>421</ele><time>2017-11-10T07:56:44.000Z</time></trkpt><trkpt lon="34.847678" lat="31.38571"><ele>421</ele><time>2017-11-10T07:56:45.000Z</time></trkpt><trkpt lon="34.847678" lat="31.385682"><ele>421</ele><time>2017-11-10T07:56:46.000Z</time></trkpt><trkpt lon="34.847668" lat="31.385655"><ele>422</ele><time>2017-11-10T07:56:47.000Z</time></trkpt><trkpt lon="34.84764" lat="31.385637"><ele>422</ele><time>2017-11-10T07:56:48.000Z</time></trkpt><trkpt lon="34.847606" lat="31.38563"><ele>423</ele><time>2017-11-10T07:56:49.000Z</time></trkpt><trkpt lon="34.847575" lat="31.385631"><ele>423</ele><time>2017-11-10T07:56:50.000Z</time></trkpt><trkpt lon="34.847548" lat="31.385634"><ele>423</ele><time>2017-11-10T07:56:51.000Z</time></trkpt><trkpt lon="34.847526" lat="31.385633"><ele>423</ele><time>2017-11-10T07:56:52.000Z</time></trkpt><trkpt lon="34.847506" lat="31.385627"><ele>424</ele><time>2017-11-10T07:56:53.000Z</time></trkpt><trkpt lon="34.847488" lat="31.385615"><ele>424</ele><time>2017-11-10T07:56:54.000Z</time></trkpt><trkpt lon="34.847472" lat="31.385598"><ele>424</ele><time>2017-11-10T07:56:55.000Z</time></trkpt><trkpt lon="34.847458" lat="31.385579"><ele>424</ele><time>2017-11-10T07:56:56.000Z</time></trkpt><trkpt lon="34.847438" lat="31.385557"><ele>424</ele><time>2017-11-10T07:56:57.000Z</time></trkpt><trkpt lon="34.847418" lat="31.385535"><ele>424</ele><time>2017-11-10T07:56:58.000Z</time></trkpt><trkpt lon="34.847393" lat="31.385515"><ele>424</ele><time>2017-11-10T07:56:59.000Z</time></trkpt><trkpt lon="34.847366" lat="31.385501"><ele>424</ele><time>2017-11-10T07:57:00.000Z</time></trkpt><trkpt lon="34.847338" lat="31.385489"><ele>424</ele><time>2017-11-10T07:57:01.000Z</time></trkpt><trkpt lon="34.847312" lat="31.385475"><ele>424</ele><time>2017-11-10T07:57:02.000Z</time></trkpt><trkpt lon="34.84729" lat="31.385459"><ele>425</ele><time>2017-11-10T07:57:03.000Z</time></trkpt><trkpt lon="34.847264" lat="31.385445"><ele>426</ele><time>2017-11-10T07:57:04.000Z</time></trkpt><trkpt lon="34.847238" lat="31.385435"><ele>426</ele><time>2017-11-10T07:57:05.000Z</time></trkpt><trkpt lon="34.84721" lat="31.385425"><ele>426</ele><time>2017-11-10T07:57:06.000Z</time></trkpt><trkpt lon="34.847186" lat="31.385412"><ele>426</ele><time>2017-11-10T07:57:07.000Z</time></trkpt><trkpt lon="34.847162" lat="31.385393"><ele>426</ele><time>2017-11-10T07:57:08.000Z</time></trkpt><trkpt lon="34.84714" lat="31.385372"><ele>425</ele><time>2017-11-10T07:57:09.000Z</time></trkpt><trkpt lon="34.84712" lat="31.38535"><ele>425</ele><time>2017-11-10T07:57:10.000Z</time></trkpt><trkpt lon="34.847102" lat="31.385328"><ele>425</ele><time>2017-11-10T07:57:11.000Z</time></trkpt><trkpt lon="34.847086" lat="31.385305"><ele>426</ele><time>2017-11-10T07:57:12.000Z</time></trkpt><trkpt lon="34.847068" lat="31.385283"><ele>426</ele><time>2017-11-10T07:57:13.000Z</time></trkpt><trkpt lon="34.84705" lat="31.385263"><ele>426</ele><time>2017-11-10T07:57:14.000Z</time></trkpt><trkpt lon="34.84703" lat="31.385244"><ele>426</ele><time>2017-11-10T07:57:15.000Z</time></trkpt><trkpt lon="34.847008" lat="31.385225"><ele>426</ele><time>2017-11-10T07:57:16.000Z</time></trkpt><trkpt lon="34.846986" lat="31.385203"><ele>426</ele><time>2017-11-10T07:57:17.000Z</time></trkpt><trkpt lon="34.84697" lat="31.385181"><ele>426</ele><time>2017-11-10T07:57:18.000Z</time></trkpt><trkpt lon="34.846948" lat="31.385162"><ele>426</ele><time>2017-11-10T07:57:19.000Z</time></trkpt><trkpt lon="34.846924" lat="31.385142"><ele>426</ele><time>2017-11-10T07:57:20.000Z</time></trkpt><trkpt lon="34.846902" lat="31.385122"><ele>426</ele><time>2017-11-10T07:57:21.000Z</time></trkpt><trkpt lon="34.84688" lat="31.3851"><ele>426</ele><time>2017-11-10T07:57:22.000Z</time></trkpt><trkpt lon="34.846862" lat="31.385083"><ele>426</ele><time>2017-11-10T07:57:23.000Z</time></trkpt><trkpt lon="34.846838" lat="31.385072"><ele>427</ele><time>2017-11-10T07:57:24.000Z</time></trkpt><trkpt lon="34.84681" lat="31.385059"><ele>427</ele><time>2017-11-10T07:57:25.000Z</time></trkpt><trkpt lon="34.846786" lat="31.385045"><ele>427</ele><time>2017-11-10T07:57:26.000Z</time></trkpt><trkpt lon="34.846766" lat="31.385026"><ele>427</ele><time>2017-11-10T07:57:27.000Z</time></trkpt><trkpt lon="34.84675" lat="31.385002"><ele>427</ele><time>2017-11-10T07:57:28.000Z</time></trkpt><trkpt lon="34.846738" lat="31.384977"><ele>427</ele><time>2017-11-10T07:57:29.000Z</time></trkpt><trkpt lon="34.846726" lat="31.384947"><ele>427</ele><time>2017-11-10T07:57:30.000Z</time></trkpt><trkpt lon="34.846718" lat="31.38492"><ele>427</ele><time>2017-11-10T07:57:31.000Z</time></trkpt><trkpt lon="34.84671" lat="31.384894"><ele>427</ele><time>2017-11-10T07:57:32.000Z</time></trkpt><trkpt lon="34.846704" lat="31.384871"><ele>427</ele><time>2017-11-10T07:57:33.000Z</time></trkpt><trkpt lon="34.8467" lat="31.384848"><ele>427</ele><time>2017-11-10T07:57:34.000Z</time></trkpt><trkpt lon="34.846698" lat="31.384824"><ele>427</ele><time>2017-11-10T07:57:35.000Z</time></trkpt><trkpt lon="34.846698" lat="31.3848"><ele>428</ele><time>2017-11-10T07:57:36.000Z</time></trkpt><trkpt lon="34.846696" lat="31.384777"><ele>428</ele><time>2017-11-10T07:57:37.000Z</time></trkpt><trkpt lon="34.846694" lat="31.384753"><ele>428</ele><time>2017-11-10T07:57:38.000Z</time></trkpt><trkpt lon="34.846694" lat="31.384728"><ele>428</ele><time>2017-11-10T07:57:39.000Z</time></trkpt><trkpt lon="34.846692" lat="31.384704"><ele>428</ele><time>2017-11-10T07:57:40.000Z</time></trkpt><trkpt lon="34.846694" lat="31.384684"><ele>429</ele><time>2017-11-10T07:57:41.000Z</time></trkpt><trkpt lon="34.846694" lat="31.384662"><ele>429</ele><time>2017-11-10T07:57:42.000Z</time></trkpt><trkpt lon="34.846692" lat="31.384641"><ele>429</ele><time>2017-11-10T07:57:43.000Z</time></trkpt><trkpt lon="34.84669" lat="31.384619"><ele>429</ele><time>2017-11-10T07:57:44.000Z</time></trkpt><trkpt lon="34.84669" lat="31.384594"><ele>429</ele><time>2017-11-10T07:57:45.000Z</time></trkpt><trkpt lon="34.846688" lat="31.384567"><ele>429</ele><time>2017-11-10T07:57:46.000Z</time></trkpt><trkpt lon="34.846692" lat="31.384541"><ele>430</ele><time>2017-11-10T07:57:47.000Z</time></trkpt><trkpt lon="34.846694" lat="31.384516"><ele>430</ele><time>2017-11-10T07:57:48.000Z</time></trkpt><trkpt lon="34.846696" lat="31.384494"><ele>430</ele><time>2017-11-10T07:57:49.000Z</time></trkpt><trkpt lon="34.846694" lat="31.384472"><ele>430</ele><time>2017-11-10T07:57:50.000Z</time></trkpt><trkpt lon="34.84669" lat="31.38445"><ele>430</ele><time>2017-11-10T07:57:51.000Z</time></trkpt><trkpt lon="34.846681" lat="31.384425"><ele>430</ele><time>2017-11-10T07:57:52.000Z</time></trkpt><trkpt lon="34.84668" lat="31.384397"><ele>430</ele><time>2017-11-10T07:57:53.000Z</time></trkpt><trkpt lon="34.84668" lat="31.384368"><ele>430</ele><time>2017-11-10T07:57:54.000Z</time></trkpt><trkpt lon="34.84668" lat="31.384339"><ele>430</ele><time>2017-11-10T07:57:55.000Z</time></trkpt><trkpt lon="34.846678" lat="31.384308"><ele>430</ele><time>2017-11-10T07:57:56.000Z</time></trkpt><trkpt lon="34.84668" lat="31.384277"><ele>430</ele><time>2017-11-10T07:57:57.000Z</time></trkpt><trkpt lon="34.846686" lat="31.384249"><ele>430</ele><time>2017-11-10T07:57:58.000Z</time></trkpt><trkpt lon="34.846694" lat="31.384228"><ele>430</ele><time>2017-11-10T07:57:59.000Z</time></trkpt><trkpt lon="34.8467" lat="31.38421"><ele>430</ele><time>2017-11-10T07:58:00.000Z</time></trkpt><trkpt lon="34.846705" lat="31.384192"><ele>431</ele><time>2017-11-10T07:58:01.000Z</time></trkpt><trkpt lon="34.84671" lat="31.384172"><ele>431</ele><time>2017-11-10T07:58:02.000Z</time></trkpt><trkpt lon="34.846714" lat="31.384151"><ele>431</ele><time>2017-11-10T07:58:03.000Z</time></trkpt><trkpt lon="34.846717" lat="31.384125"><ele>431</ele><time>2017-11-10T07:58:04.000Z</time></trkpt><trkpt lon="34.846721" lat="31.384094"><ele>431</ele><time>2017-11-10T07:58:05.000Z</time></trkpt><trkpt lon="34.846732" lat="31.384063"><ele>431</ele><time>2017-11-10T07:58:06.000Z</time></trkpt><trkpt lon="34.846746" lat="31.384035"><ele>431</ele><time>2017-11-10T07:58:07.000Z</time></trkpt><trkpt lon="34.846763" lat="31.384013"><ele>431</ele><time>2017-11-10T07:58:08.000Z</time></trkpt><trkpt lon="34.846785" lat="31.383995"><ele>431</ele><time>2017-11-10T07:58:09.000Z</time></trkpt><trkpt lon="34.846807" lat="31.383979"><ele>431</ele><time>2017-11-10T07:58:10.000Z</time></trkpt><trkpt lon="34.846832" lat="31.383962"><ele>431</ele><time>2017-11-10T07:58:11.000Z</time></trkpt><trkpt lon="34.84686" lat="31.383945"><ele>432</ele><time>2017-11-10T07:58:12.000Z</time></trkpt><trkpt lon="34.846891" lat="31.383933"><ele>432</ele><time>2017-11-10T07:58:13.000Z</time></trkpt><trkpt lon="34.846926" lat="31.383927"><ele>432</ele><time>2017-11-10T07:58:14.000Z</time></trkpt><trkpt lon="34.846963" lat="31.383929"><ele>433</ele><time>2017-11-10T07:58:15.000Z</time></trkpt><trkpt lon="34.846995" lat="31.38394"><ele>433</ele><time>2017-11-10T07:58:16.000Z</time></trkpt><trkpt lon="34.847023" lat="31.383957"><ele>433</ele><time>2017-11-10T07:58:17.000Z</time></trkpt><trkpt lon="34.847046" lat="31.383976"><ele>433</ele><time>2017-11-10T07:58:18.000Z</time></trkpt><trkpt lon="34.847067" lat="31.383992"><ele>433</ele><time>2017-11-10T07:58:19.000Z</time></trkpt><trkpt lon="34.847088" lat="31.384005"><ele>433</ele><time>2017-11-10T07:58:20.000Z</time></trkpt><trkpt lon="34.847088" lat="31.384005"><ele>433</ele><time>2017-11-10T07:58:21.000Z</time></trkpt><trkpt lon="34.847119" lat="31.384019"><ele>433</ele><time>2017-11-10T07:58:22.000Z</time></trkpt><trkpt lon="34.84714" lat="31.384024"><ele>433</ele><time>2017-11-10T07:58:23.000Z</time></trkpt><trkpt lon="34.847166" lat="31.384033"><ele>433</ele><time>2017-11-10T07:58:24.000Z</time></trkpt><trkpt lon="34.84719" lat="31.384049"><ele>433</ele><time>2017-11-10T07:58:25.000Z</time></trkpt><trkpt lon="34.847209" lat="31.384072"><ele>433</ele><time>2017-11-10T07:58:26.000Z</time></trkpt><trkpt lon="34.847226" lat="31.384093"><ele>433</ele><time>2017-11-10T07:58:27.000Z</time></trkpt><trkpt lon="34.847244" lat="31.384114"><ele>433</ele><time>2017-11-10T07:58:28.000Z</time></trkpt><trkpt lon="34.847261" lat="31.384136"><ele>433</ele><time>2017-11-10T07:58:29.000Z</time></trkpt><trkpt lon="34.847279" lat="31.384162"><ele>433</ele><time>2017-11-10T07:58:30.000Z</time></trkpt><trkpt lon="34.847295" lat="31.38419"><ele>433</ele><time>2017-11-10T07:58:31.000Z</time></trkpt><trkpt lon="34.847309" lat="31.384218"><ele>433</ele><time>2017-11-10T07:58:32.000Z</time></trkpt><trkpt lon="34.847325" lat="31.384244"><ele>433</ele><time>2017-11-10T07:58:33.000Z</time></trkpt><trkpt lon="34.847341" lat="31.384269"><ele>433</ele><time>2017-11-10T07:58:34.000Z</time></trkpt><trkpt lon="34.847354" lat="31.384295"><ele>433</ele><time>2017-11-10T07:58:35.000Z</time></trkpt><trkpt lon="34.847367" lat="31.384321"><ele>433</ele><time>2017-11-10T07:58:36.000Z</time></trkpt><trkpt lon="34.847379" lat="31.384343"><ele>433</ele><time>2017-11-10T07:58:37.000Z</time></trkpt><trkpt lon="34.847389" lat="31.384361"><ele>433</ele><time>2017-11-10T07:58:38.000Z</time></trkpt><trkpt lon="34.847398" lat="31.384379"><ele>433</ele><time>2017-11-10T07:58:39.000Z</time></trkpt><trkpt lon="34.847408" lat="31.384397"><ele>433</ele><time>2017-11-10T07:58:40.000Z</time></trkpt><trkpt lon="34.847417" lat="31.384421"><ele>434</ele><time>2017-11-10T07:58:41.000Z</time></trkpt><trkpt lon="34.847417" lat="31.384447"><ele>434</ele><time>2017-11-10T07:58:42.000Z</time></trkpt><trkpt lon="34.847416" lat="31.384472"><ele>434</ele><time>2017-11-10T07:58:43.000Z</time></trkpt><trkpt lon="34.847413" lat="31.384496"><ele>434</ele><time>2017-11-10T07:58:44.000Z</time></trkpt><trkpt lon="34.847412" lat="31.384517"><ele>434</ele><time>2017-11-10T07:58:45.000Z</time></trkpt><trkpt lon="34.847413" lat="31.384536"><ele>434</ele><time>2017-11-10T07:58:46.000Z</time></trkpt><trkpt lon="34.847418" lat="31.384559"><ele>434</ele><time>2017-11-10T07:58:47.000Z</time></trkpt><trkpt lon="34.847431" lat="31.384582"><ele>434</ele><time>2017-11-10T07:58:48.000Z</time></trkpt><trkpt lon="34.84746" lat="31.384595"><ele>434</ele><time>2017-11-10T07:58:49.000Z</time></trkpt><trkpt lon="34.847498" lat="31.384604"><ele>434</ele><time>2017-11-10T07:58:50.000Z</time></trkpt><trkpt lon="34.847529" lat="31.384623"><ele>434</ele><time>2017-11-10T07:58:51.000Z</time></trkpt><trkpt lon="34.847552" lat="31.384657"><ele>433</ele><time>2017-11-10T07:58:52.000Z</time></trkpt><trkpt lon="34.847586" lat="31.384695"><ele>433</ele><time>2017-11-10T07:58:53.000Z</time></trkpt><trkpt lon="34.847624" lat="31.384729"><ele>433</ele><time>2017-11-10T07:58:54.000Z</time></trkpt><trkpt lon="34.847669" lat="31.384767"><ele>433</ele><time>2017-11-10T07:58:55.000Z</time></trkpt><trkpt lon="34.847711" lat="31.384799"><ele>433</ele><time>2017-11-10T07:58:56.000Z</time></trkpt><trkpt lon="34.847741" lat="31.384827"><ele>433</ele><time>2017-11-10T07:58:57.000Z</time></trkpt><trkpt lon="34.847762" lat="31.384847"><ele>433</ele><time>2017-11-10T07:58:58.000Z</time></trkpt><trkpt lon="34.847783" lat="31.384861"><ele>433</ele><time>2017-11-10T07:58:59.000Z</time></trkpt><trkpt lon="34.8478" lat="31.384877"><ele>432</ele><time>2017-11-10T07:59:00.000Z</time></trkpt><trkpt lon="34.847814" lat="31.384894"><ele>432</ele><time>2017-11-10T07:59:01.000Z</time></trkpt><trkpt lon="34.847825" lat="31.384915"><ele>433</ele><time>2017-11-10T07:59:02.000Z</time></trkpt><trkpt lon="34.847836" lat="31.384934"><ele>433</ele><time>2017-11-10T07:59:03.000Z</time></trkpt><trkpt lon="34.847851" lat="31.384952"><ele>433</ele><time>2017-11-10T07:59:04.000Z</time></trkpt><trkpt lon="34.84787" lat="31.384966"><ele>433</ele><time>2017-11-10T07:59:05.000Z</time></trkpt><trkpt lon="34.847888" lat="31.384979"><ele>433</ele><time>2017-11-10T07:59:06.000Z</time></trkpt><trkpt lon="34.847907" lat="31.384993"><ele>433</ele><time>2017-11-10T07:59:07.000Z</time></trkpt><trkpt lon="34.847928" lat="31.385003"><ele>433</ele><time>2017-11-10T07:59:08.000Z</time></trkpt><trkpt lon="34.847948" lat="31.385009"><ele>433</ele><time>2017-11-10T07:59:09.000Z</time></trkpt><trkpt lon="34.847969" lat="31.385013"><ele>433</ele><time>2017-11-10T07:59:10.000Z</time></trkpt><trkpt lon="34.847992" lat="31.385015"><ele>433</ele><time>2017-11-10T07:59:11.000Z</time></trkpt><trkpt lon="34.848017" lat="31.385013"><ele>433</ele><time>2017-11-10T07:59:12.000Z</time></trkpt><trkpt lon="34.848017" lat="31.385013"><ele>433</ele><time>2017-11-10T07:59:13.000Z</time></trkpt><trkpt lon="34.848042" lat="31.38499"><ele>432</ele><time>2017-11-10T07:59:14.000Z</time></trkpt><trkpt lon="34.848038" lat="31.384972"><ele>432</ele><time>2017-11-10T07:59:15.000Z</time></trkpt><trkpt lon="34.848034" lat="31.384953"><ele>431</ele><time>2017-11-10T07:59:16.000Z</time></trkpt><trkpt lon="34.848034" lat="31.384953"><ele>431</ele><time>2017-11-10T07:59:17.000Z</time></trkpt><trkpt lon="34.848055" lat="31.384928"><ele>431</ele><time>2017-11-10T07:59:18.000Z</time></trkpt><trkpt lon="34.848078" lat="31.38493"><ele>431</ele><time>2017-11-10T07:59:19.000Z</time></trkpt><trkpt lon="34.848102" lat="31.384943"><ele>431</ele><time>2017-11-10T07:59:20.000Z</time></trkpt><trkpt lon="34.848129" lat="31.384953"><ele>431</ele><time>2017-11-10T07:59:21.000Z</time></trkpt><trkpt lon="34.848158" lat="31.384961"><ele>431</ele><time>2017-11-10T07:59:22.000Z</time></trkpt><trkpt lon="34.848187" lat="31.384966"><ele>431</ele><time>2017-11-10T07:59:23.000Z</time></trkpt><trkpt lon="34.848216" lat="31.384966"><ele>431</ele><time>2017-11-10T07:59:24.000Z</time></trkpt><trkpt lon="34.848245" lat="31.384965"><ele>431</ele><time>2017-11-10T07:59:25.000Z</time></trkpt><trkpt lon="34.848275" lat="31.38496"><ele>431</ele><time>2017-11-10T07:59:26.000Z</time></trkpt><trkpt lon="34.848303" lat="31.384952"><ele>431</ele><time>2017-11-10T07:59:27.000Z</time></trkpt><trkpt lon="34.848334" lat="31.384943"><ele>431</ele><time>2017-11-10T07:59:28.000Z</time></trkpt><trkpt lon="34.848364" lat="31.384936"><ele>431</ele><time>2017-11-10T07:59:29.000Z</time></trkpt><trkpt lon="34.848393" lat="31.38493"><ele>431</ele><time>2017-11-10T07:59:30.000Z</time></trkpt><trkpt lon="34.848419" lat="31.384923"><ele>431</ele><time>2017-11-10T07:59:31.000Z</time></trkpt><trkpt lon="34.848439" lat="31.384918"><ele>431</ele><time>2017-11-10T07:59:32.000Z</time></trkpt><trkpt lon="34.848459" lat="31.384909"><ele>431</ele><time>2017-11-10T07:59:33.000Z</time></trkpt><trkpt lon="34.84848" lat="31.384896"><ele>432</ele><time>2017-11-10T07:59:34.000Z</time></trkpt><trkpt lon="34.848498" lat="31.384878"><ele>432</ele><time>2017-11-10T07:59:35.000Z</time></trkpt><trkpt lon="34.848517" lat="31.384855"><ele>432</ele><time>2017-11-10T07:59:36.000Z</time></trkpt><trkpt lon="34.848535" lat="31.384825"><ele>432</ele><time>2017-11-10T07:59:37.000Z</time></trkpt><trkpt lon="34.848544" lat="31.384795"><ele>432</ele><time>2017-11-10T07:59:38.000Z</time></trkpt><trkpt lon="34.848551" lat="31.384766"><ele>432</ele><time>2017-11-10T07:59:39.000Z</time></trkpt><trkpt lon="34.848554" lat="31.384734"><ele>432</ele><time>2017-11-10T07:59:40.000Z</time></trkpt><trkpt lon="34.848549" lat="31.384699"><ele>432</ele><time>2017-11-10T07:59:41.000Z</time></trkpt><trkpt lon="34.848548" lat="31.38466"><ele>432</ele><time>2017-11-10T07:59:42.000Z</time></trkpt><trkpt lon="34.848549" lat="31.384624"><ele>432</ele><time>2017-11-10T07:59:43.000Z</time></trkpt><trkpt lon="34.848551" lat="31.384592"><ele>432</ele><time>2017-11-10T07:59:44.000Z</time></trkpt><trkpt lon="34.848552" lat="31.384561"><ele>432</ele><time>2017-11-10T07:59:45.000Z</time></trkpt><trkpt lon="34.848551" lat="31.384531"><ele>432</ele><time>2017-11-10T07:59:46.000Z</time></trkpt><trkpt lon="34.848554" lat="31.3845"><ele>432</ele><time>2017-11-10T07:59:47.000Z</time></trkpt><trkpt lon="34.848559" lat="31.384469"><ele>432</ele><time>2017-11-10T07:59:48.000Z</time></trkpt><trkpt lon="34.848565" lat="31.38444"><ele>433</ele><time>2017-11-10T07:59:49.000Z</time></trkpt><trkpt lon="34.848568" lat="31.384413"><ele>433</ele><time>2017-11-10T07:59:50.000Z</time></trkpt><trkpt lon="34.84857" lat="31.384385"><ele>433</ele><time>2017-11-10T07:59:51.000Z</time></trkpt><trkpt lon="34.848574" lat="31.384353"><ele>433</ele><time>2017-11-10T07:59:52.000Z</time></trkpt><trkpt lon="34.84858" lat="31.38432"><ele>433</ele><time>2017-11-10T07:59:53.000Z</time></trkpt><trkpt lon="34.848586" lat="31.384286"><ele>433</ele><time>2017-11-10T07:59:54.000Z</time></trkpt><trkpt lon="34.848589" lat="31.384252"><ele>433</ele><time>2017-11-10T07:59:55.000Z</time></trkpt><trkpt lon="34.848595" lat="31.384214"><ele>433</ele><time>2017-11-10T07:59:56.000Z</time></trkpt><trkpt lon="34.848601" lat="31.384175"><ele>433</ele><time>2017-11-10T07:59:57.000Z</time></trkpt><trkpt lon="34.848608" lat="31.384138"><ele>433</ele><time>2017-11-10T07:59:58.000Z</time></trkpt><trkpt lon="34.848614" lat="31.384102"><ele>433</ele><time>2017-11-10T07:59:59.000Z</time></trkpt><trkpt lon="34.848621" lat="31.38407"><ele>433</ele><time>2017-11-10T08:00:00.000Z</time></trkpt><trkpt lon="34.84863" lat="31.384037"><ele>433</ele><time>2017-11-10T08:00:01.000Z</time></trkpt><trkpt lon="34.848641" lat="31.384005"><ele>433</ele><time>2017-11-10T08:00:02.000Z</time></trkpt><trkpt lon="34.848652" lat="31.383975"><ele>433</ele><time>2017-11-10T08:00:03.000Z</time></trkpt><trkpt lon="34.848664" lat="31.383946"><ele>434</ele><time>2017-11-10T08:00:04.000Z</time></trkpt><trkpt lon="34.848676" lat="31.383919"><ele>434</ele><time>2017-11-10T08:00:05.000Z</time></trkpt><trkpt lon="34.848689" lat="31.383888"><ele>434</ele><time>2017-11-10T08:00:06.000Z</time></trkpt><trkpt lon="34.848704" lat="31.383855"><ele>434</ele><time>2017-11-10T08:00:07.000Z</time></trkpt><trkpt lon="34.848719" lat="31.383822"><ele>434</ele><time>2017-11-10T08:00:08.000Z</time></trkpt><trkpt lon="34.848734" lat="31.383792"><ele>434</ele><time>2017-11-10T08:00:09.000Z</time></trkpt><trkpt lon="34.848752" lat="31.383762"><ele>434</ele><time>2017-11-10T08:00:10.000Z</time></trkpt><trkpt lon="34.848772" lat="31.383733"><ele>434</ele><time>2017-11-10T08:00:11.000Z</time></trkpt><trkpt lon="34.848791" lat="31.383703"><ele>434</ele><time>2017-11-10T08:00:12.000Z</time></trkpt><trkpt lon="34.848816" lat="31.383675"><ele>434</ele><time>2017-11-10T08:00:13.000Z</time></trkpt><trkpt lon="34.84885" lat="31.383654"><ele>434</ele><time>2017-11-10T08:00:14.000Z</time></trkpt><trkpt lon="34.848887" lat="31.383641"><ele>435</ele><time>2017-11-10T08:00:15.000Z</time></trkpt><trkpt lon="34.848927" lat="31.38363"><ele>435</ele><time>2017-11-10T08:00:16.000Z</time></trkpt><trkpt lon="34.848966" lat="31.383624"><ele>435</ele><time>2017-11-10T08:00:17.000Z</time></trkpt><trkpt lon="34.849004" lat="31.383623"><ele>435</ele><time>2017-11-10T08:00:18.000Z</time></trkpt><trkpt lon="34.849041" lat="31.383626"><ele>435</ele><time>2017-11-10T08:00:19.000Z</time></trkpt><trkpt lon="34.849077" lat="31.383635"><ele>435</ele><time>2017-11-10T08:00:20.000Z</time></trkpt><trkpt lon="34.849108" lat="31.383642"><ele>435</ele><time>2017-11-10T08:00:21.000Z</time></trkpt><trkpt lon="34.849138" lat="31.383647"><ele>435</ele><time>2017-11-10T08:00:22.000Z</time></trkpt><trkpt lon="34.849168" lat="31.383653"><ele>436</ele><time>2017-11-10T08:00:23.000Z</time></trkpt><trkpt lon="34.849201" lat="31.38366"><ele>436</ele><time>2017-11-10T08:00:24.000Z</time></trkpt><trkpt lon="34.849237" lat="31.383668"><ele>436</ele><time>2017-11-10T08:00:25.000Z</time></trkpt><trkpt lon="34.849275" lat="31.383676"><ele>436</ele><time>2017-11-10T08:00:26.000Z</time></trkpt><trkpt lon="34.849314" lat="31.383685"><ele>436</ele><time>2017-11-10T08:00:27.000Z</time></trkpt><trkpt lon="34.849353" lat="31.383694"><ele>436</ele><time>2017-11-10T08:00:28.000Z</time></trkpt><trkpt lon="34.849389" lat="31.383703"><ele>436</ele><time>2017-11-10T08:00:29.000Z</time></trkpt><trkpt lon="34.849423" lat="31.383711"><ele>436</ele><time>2017-11-10T08:00:30.000Z</time></trkpt><trkpt lon="34.849454" lat="31.383719"><ele>436</ele><time>2017-11-10T08:00:31.000Z</time></trkpt><trkpt lon="34.849484" lat="31.383724"><ele>436</ele><time>2017-11-10T08:00:32.000Z</time></trkpt><trkpt lon="34.849514" lat="31.38373"><ele>437</ele><time>2017-11-10T08:00:33.000Z</time></trkpt><trkpt lon="34.849544" lat="31.383735"><ele>437</ele><time>2017-11-10T08:00:34.000Z</time></trkpt><trkpt lon="34.849574" lat="31.383738"><ele>437</ele><time>2017-11-10T08:00:35.000Z</time></trkpt><trkpt lon="34.849605" lat="31.383737"><ele>437</ele><time>2017-11-10T08:00:36.000Z</time></trkpt><trkpt lon="34.849638" lat="31.383731"><ele>438</ele><time>2017-11-10T08:00:37.000Z</time></trkpt><trkpt lon="34.849668" lat="31.38372"><ele>438</ele><time>2017-11-10T08:00:38.000Z</time></trkpt><trkpt lon="34.849698" lat="31.383704"><ele>438</ele><time>2017-11-10T08:00:39.000Z</time></trkpt><trkpt lon="34.849726" lat="31.383684"><ele>438</ele><time>2017-11-10T08:00:40.000Z</time></trkpt><trkpt lon="34.849753" lat="31.383662"><ele>438</ele><time>2017-11-10T08:00:41.000Z</time></trkpt><trkpt lon="34.849772" lat="31.38364"><ele>438</ele><time>2017-11-10T08:00:42.000Z</time></trkpt><trkpt lon="34.849787" lat="31.383617"><ele>438</ele><time>2017-11-10T08:00:43.000Z</time></trkpt><trkpt lon="34.849797" lat="31.383593"><ele>438</ele><time>2017-11-10T08:00:44.000Z</time></trkpt><trkpt lon="34.849806" lat="31.383567"><ele>439</ele><time>2017-11-10T08:00:45.000Z</time></trkpt><trkpt lon="34.849815" lat="31.383541"><ele>439</ele><time>2017-11-10T08:00:46.000Z</time></trkpt><trkpt lon="34.849822" lat="31.383514"><ele>439</ele><time>2017-11-10T08:00:47.000Z</time></trkpt><trkpt lon="34.849828" lat="31.383486"><ele>439</ele><time>2017-11-10T08:00:48.000Z</time></trkpt><trkpt lon="34.849835" lat="31.383461"><ele>439</ele><time>2017-11-10T08:00:49.000Z</time></trkpt><trkpt lon="34.849841" lat="31.383432"><ele>439</ele><time>2017-11-10T08:00:50.000Z</time></trkpt><trkpt lon="34.849848" lat="31.383407"><ele>440</ele><time>2017-11-10T08:00:51.000Z</time></trkpt><trkpt lon="34.849853" lat="31.383383"><ele>440</ele><time>2017-11-10T08:00:52.000Z</time></trkpt><trkpt lon="34.849854" lat="31.383361"><ele>440</ele><time>2017-11-10T08:00:53.000Z</time></trkpt><trkpt lon="34.849849" lat="31.38334"><ele>440</ele><time>2017-11-10T08:00:54.000Z</time></trkpt><trkpt lon="34.849839" lat="31.38332"><ele>440</ele><time>2017-11-10T08:00:55.000Z</time></trkpt><trkpt lon="34.849827" lat="31.383298"><ele>440</ele><time>2017-11-10T08:00:56.000Z</time></trkpt><trkpt lon="34.849814" lat="31.383277"><ele>440</ele><time>2017-11-10T08:00:57.000Z</time></trkpt><trkpt lon="34.8498" lat="31.383258"><ele>440</ele><time>2017-11-10T08:00:58.000Z</time></trkpt><trkpt lon="34.849789" lat="31.383242"><ele>440</ele><time>2017-11-10T08:00:59.000Z</time></trkpt><trkpt lon="34.849778" lat="31.383226"><ele>440</ele><time>2017-11-10T08:01:00.000Z</time></trkpt><trkpt lon="34.849768" lat="31.38321"><ele>440</ele><time>2017-11-10T08:01:01.000Z</time></trkpt><trkpt lon="34.849757" lat="31.383194"><ele>440</ele><time>2017-11-10T08:01:02.000Z</time></trkpt><trkpt lon="34.849744" lat="31.383178"><ele>440</ele><time>2017-11-10T08:01:03.000Z</time></trkpt><trkpt lon="34.849729" lat="31.383162"><ele>440</ele><time>2017-11-10T08:01:04.000Z</time></trkpt><trkpt lon="34.849713" lat="31.383145"><ele>440</ele><time>2017-11-10T08:01:05.000Z</time></trkpt><trkpt lon="34.849692" lat="31.383121"><ele>440</ele><time>2017-11-10T08:01:06.000Z</time></trkpt><trkpt lon="34.849671" lat="31.383095"><ele>440</ele><time>2017-11-10T08:01:07.000Z</time></trkpt><trkpt lon="34.849648" lat="31.383065"><ele>440</ele><time>2017-11-10T08:01:08.000Z</time></trkpt><trkpt lon="34.849625" lat="31.383031"><ele>440</ele><time>2017-11-10T08:01:09.000Z</time></trkpt><trkpt lon="34.849602" lat="31.382993"><ele>440</ele><time>2017-11-10T08:01:10.000Z</time></trkpt><trkpt lon="34.849581" lat="31.382952"><ele>440</ele><time>2017-11-10T08:01:11.000Z</time></trkpt><trkpt lon="34.849566" lat="31.382914"><ele>440</ele><time>2017-11-10T08:01:12.000Z</time></trkpt><trkpt lon="34.849553" lat="31.382878"><ele>440</ele><time>2017-11-10T08:01:13.000Z</time></trkpt><trkpt lon="34.84954" lat="31.38284"><ele>440</ele><time>2017-11-10T08:01:14.000Z</time></trkpt><trkpt lon="34.84953" lat="31.382802"><ele>440</ele><time>2017-11-10T08:01:15.000Z</time></trkpt><trkpt lon="34.849524" lat="31.382766"><ele>440</ele><time>2017-11-10T08:01:16.000Z</time></trkpt><trkpt lon="34.849523" lat="31.382733"><ele>440</ele><time>2017-11-10T08:01:17.000Z</time></trkpt><trkpt lon="34.84953" lat="31.382706"><ele>440</ele><time>2017-11-10T08:01:18.000Z</time></trkpt><trkpt lon="34.849536" lat="31.382681"><ele>441</ele><time>2017-11-10T08:01:19.000Z</time></trkpt><trkpt lon="34.849541" lat="31.382656"><ele>441</ele><time>2017-11-10T08:01:20.000Z</time></trkpt><trkpt lon="34.849546" lat="31.382631"><ele>441</ele><time>2017-11-10T08:01:21.000Z</time></trkpt><trkpt lon="34.849549" lat="31.382602"><ele>441</ele><time>2017-11-10T08:01:22.000Z</time></trkpt><trkpt lon="34.84955" lat="31.382573"><ele>441</ele><time>2017-11-10T08:01:23.000Z</time></trkpt><trkpt lon="34.849552" lat="31.382542"><ele>441</ele><time>2017-11-10T08:01:24.000Z</time></trkpt><trkpt lon="34.849552" lat="31.382509"><ele>441</ele><time>2017-11-10T08:01:25.000Z</time></trkpt><trkpt lon="34.849551" lat="31.382471"><ele>441</ele><time>2017-11-10T08:01:26.000Z</time></trkpt><trkpt lon="34.849555" lat="31.382433"><ele>441</ele><time>2017-11-10T08:01:27.000Z</time></trkpt><trkpt lon="34.849564" lat="31.382394"><ele>441</ele><time>2017-11-10T08:01:28.000Z</time></trkpt><trkpt lon="34.849577" lat="31.382357"><ele>441</ele><time>2017-11-10T08:01:29.000Z</time></trkpt><trkpt lon="34.849595" lat="31.382325"><ele>441</ele><time>2017-11-10T08:01:30.000Z</time></trkpt><trkpt lon="34.849612" lat="31.382296"><ele>441</ele><time>2017-11-10T08:01:31.000Z</time></trkpt><trkpt lon="34.849629" lat="31.382269"><ele>441</ele><time>2017-11-10T08:01:32.000Z</time></trkpt><trkpt lon="34.849648" lat="31.382242"><ele>441</ele><time>2017-11-10T08:01:33.000Z</time></trkpt><trkpt lon="34.849667" lat="31.382217"><ele>441</ele><time>2017-11-10T08:01:34.000Z</time></trkpt><trkpt lon="34.849688" lat="31.382195"><ele>442</ele><time>2017-11-10T08:01:35.000Z</time></trkpt><trkpt lon="34.84971" lat="31.382171"><ele>442</ele><time>2017-11-10T08:01:36.000Z</time></trkpt><trkpt lon="34.849735" lat="31.382149"><ele>442</ele><time>2017-11-10T08:01:37.000Z</time></trkpt><trkpt lon="34.84976" lat="31.382131"><ele>443</ele><time>2017-11-10T08:01:38.000Z</time></trkpt><trkpt lon="34.849784" lat="31.382114"><ele>443</ele><time>2017-11-10T08:01:39.000Z</time></trkpt><trkpt lon="34.849804" lat="31.382099"><ele>443</ele><time>2017-11-10T08:01:40.000Z</time></trkpt><trkpt lon="34.849826" lat="31.382084"><ele>443</ele><time>2017-11-10T08:01:41.000Z</time></trkpt><trkpt lon="34.849853" lat="31.382067"><ele>443</ele><time>2017-11-10T08:01:42.000Z</time></trkpt><trkpt lon="34.849877" lat="31.382052"><ele>443</ele><time>2017-11-10T08:01:43.000Z</time></trkpt><trkpt lon="34.849904" lat="31.382036"><ele>443</ele><time>2017-11-10T08:01:44.000Z</time></trkpt><trkpt lon="34.84993" lat="31.382025"><ele>443</ele><time>2017-11-10T08:01:45.000Z</time></trkpt><trkpt lon="34.849955" lat="31.382017"><ele>443</ele><time>2017-11-10T08:01:46.000Z</time></trkpt><trkpt lon="34.84998" lat="31.38201"><ele>444</ele><time>2017-11-10T08:01:47.000Z</time></trkpt><trkpt lon="34.850008" lat="31.382002"><ele>444</ele><time>2017-11-10T08:01:48.000Z</time></trkpt><trkpt lon="34.850039" lat="31.381998"><ele>444</ele><time>2017-11-10T08:01:49.000Z</time></trkpt><trkpt lon="34.85007" lat="31.382001"><ele>444</ele><time>2017-11-10T08:01:50.000Z</time></trkpt><trkpt lon="34.850099" lat="31.382009"><ele>444</ele><time>2017-11-10T08:01:51.000Z</time></trkpt><trkpt lon="34.850122" lat="31.382014"><ele>444</ele><time>2017-11-10T08:01:52.000Z</time></trkpt><trkpt lon="34.850143" lat="31.382017"><ele>444</ele><time>2017-11-10T08:01:53.000Z</time></trkpt><trkpt lon="34.850167" lat="31.382023"><ele>444</ele><time>2017-11-10T08:01:54.000Z</time></trkpt><trkpt lon="34.850192" lat="31.382035"><ele>445</ele><time>2017-11-10T08:01:55.000Z</time></trkpt><trkpt lon="34.850215" lat="31.382047"><ele>445</ele><time>2017-11-10T08:01:56.000Z</time></trkpt><trkpt lon="34.850236" lat="31.382059"><ele>445</ele><time>2017-11-10T08:01:57.000Z</time></trkpt><trkpt lon="34.850258" lat="31.382073"><ele>445</ele><time>2017-11-10T08:01:58.000Z</time></trkpt><trkpt lon="34.850279" lat="31.382085"><ele>445</ele><time>2017-11-10T08:01:59.000Z</time></trkpt><trkpt lon="34.850301" lat="31.382096"><ele>445</ele><time>2017-11-10T08:02:00.000Z</time></trkpt><trkpt lon="34.850327" lat="31.382108"><ele>445</ele><time>2017-11-10T08:02:01.000Z</time></trkpt><trkpt lon="34.850355" lat="31.38212"><ele>445</ele><time>2017-11-10T08:02:02.000Z</time></trkpt><trkpt lon="34.850386" lat="31.382132"><ele>445</ele><time>2017-11-10T08:02:03.000Z</time></trkpt><trkpt lon="34.850419" lat="31.382145"><ele>445</ele><time>2017-11-10T08:02:04.000Z</time></trkpt><trkpt lon="34.850453" lat="31.382157"><ele>445</ele><time>2017-11-10T08:02:05.000Z</time></trkpt><trkpt lon="34.850488" lat="31.382168"><ele>445</ele><time>2017-11-10T08:02:06.000Z</time></trkpt><trkpt lon="34.850525" lat="31.382177"><ele>445</ele><time>2017-11-10T08:02:07.000Z</time></trkpt><trkpt lon="34.850564" lat="31.38218"><ele>445</ele><time>2017-11-10T08:02:08.000Z</time></trkpt><trkpt lon="34.850603" lat="31.382174"><ele>445</ele><time>2017-11-10T08:02:09.000Z</time></trkpt><trkpt lon="34.85064" lat="31.38216"><ele>445</ele><time>2017-11-10T08:02:10.000Z</time></trkpt><trkpt lon="34.850671" lat="31.382142"><ele>445</ele><time>2017-11-10T08:02:11.000Z</time></trkpt><trkpt lon="34.850696" lat="31.382118"><ele>445</ele><time>2017-11-10T08:02:12.000Z</time></trkpt><trkpt lon="34.850714" lat="31.382092"><ele>445</ele><time>2017-11-10T08:02:13.000Z</time></trkpt><trkpt lon="34.850736" lat="31.382064"><ele>445</ele><time>2017-11-10T08:02:14.000Z</time></trkpt><trkpt lon="34.85076" lat="31.382035"><ele>445</ele><time>2017-11-10T08:02:15.000Z</time></trkpt><trkpt lon="34.850784" lat="31.382009"><ele>445</ele><time>2017-11-10T08:02:16.000Z</time></trkpt><trkpt lon="34.850808" lat="31.381983"><ele>445</ele><time>2017-11-10T08:02:17.000Z</time></trkpt><trkpt lon="34.850835" lat="31.381957"><ele>445</ele><time>2017-11-10T08:02:18.000Z</time></trkpt><trkpt lon="34.850864" lat="31.381934"><ele>445</ele><time>2017-11-10T08:02:19.000Z</time></trkpt><trkpt lon="34.850898" lat="31.381916"><ele>445</ele><time>2017-11-10T08:02:20.000Z</time></trkpt><trkpt lon="34.850934" lat="31.381904"><ele>446</ele><time>2017-11-10T08:02:21.000Z</time></trkpt><trkpt lon="34.850971" lat="31.381897"><ele>446</ele><time>2017-11-10T08:02:22.000Z</time></trkpt><trkpt lon="34.851006" lat="31.381897"><ele>446</ele><time>2017-11-10T08:02:23.000Z</time></trkpt><trkpt lon="34.851042" lat="31.381895"><ele>446</ele><time>2017-11-10T08:02:24.000Z</time></trkpt><trkpt lon="34.85108" lat="31.381895"><ele>446</ele><time>2017-11-10T08:02:25.000Z</time></trkpt><trkpt lon="34.85112" lat="31.3819"><ele>446</ele><time>2017-11-10T08:02:26.000Z</time></trkpt><trkpt lon="34.851161" lat="31.381908"><ele>446</ele><time>2017-11-10T08:02:27.000Z</time></trkpt><trkpt lon="34.851201" lat="31.381921"><ele>446</ele><time>2017-11-10T08:02:28.000Z</time></trkpt><trkpt lon="34.851233" lat="31.38194"><ele>447</ele><time>2017-11-10T08:02:29.000Z</time></trkpt><trkpt lon="34.851262" lat="31.381962"><ele>447</ele><time>2017-11-10T08:02:30.000Z</time></trkpt><trkpt lon="34.851285" lat="31.381984"><ele>447</ele><time>2017-11-10T08:02:31.000Z</time></trkpt><trkpt lon="34.851304" lat="31.382006"><ele>447</ele><time>2017-11-10T08:02:32.000Z</time></trkpt><trkpt lon="34.851325" lat="31.382026"><ele>448</ele><time>2017-11-10T08:02:33.000Z</time></trkpt><trkpt lon="34.85135" lat="31.382044"><ele>448</ele><time>2017-11-10T08:02:34.000Z</time></trkpt><trkpt lon="34.851378" lat="31.382065"><ele>448</ele><time>2017-11-10T08:02:35.000Z</time></trkpt><trkpt lon="34.851404" lat="31.382088"><ele>448</ele><time>2017-11-10T08:02:36.000Z</time></trkpt><trkpt lon="34.851427" lat="31.382112"><ele>448</ele><time>2017-11-10T08:02:37.000Z</time></trkpt><trkpt lon="34.851446" lat="31.382136"><ele>448</ele><time>2017-11-10T08:02:38.000Z</time></trkpt><trkpt lon="34.851465" lat="31.38216"><ele>448</ele><time>2017-11-10T08:02:39.000Z</time></trkpt><trkpt lon="34.851486" lat="31.382186"><ele>448</ele><time>2017-11-10T08:02:40.000Z</time></trkpt><trkpt lon="34.851507" lat="31.382211"><ele>448</ele><time>2017-11-10T08:02:41.000Z</time></trkpt><trkpt lon="34.851528" lat="31.382234"><ele>449</ele><time>2017-11-10T08:02:42.000Z</time></trkpt><trkpt lon="34.851551" lat="31.382259"><ele>449</ele><time>2017-11-10T08:02:43.000Z</time></trkpt><trkpt lon="34.851571" lat="31.382285"><ele>449</ele><time>2017-11-10T08:02:44.000Z</time></trkpt><trkpt lon="34.851591" lat="31.382308"><ele>449</ele><time>2017-11-10T08:02:45.000Z</time></trkpt><trkpt lon="34.85161" lat="31.382329"><ele>449</ele><time>2017-11-10T08:02:46.000Z</time></trkpt><trkpt lon="34.851628" lat="31.382348"><ele>449</ele><time>2017-11-10T08:02:47.000Z</time></trkpt><trkpt lon="34.851644" lat="31.382365"><ele>449</ele><time>2017-11-10T08:02:48.000Z</time></trkpt><trkpt lon="34.85166" lat="31.382383"><ele>449</ele><time>2017-11-10T08:02:49.000Z</time></trkpt><trkpt lon="34.851676" lat="31.3824"><ele>449</ele><time>2017-11-10T08:02:50.000Z</time></trkpt><trkpt lon="34.851695" lat="31.382416"><ele>449</ele><time>2017-11-10T08:02:51.000Z</time></trkpt><trkpt lon="34.851714" lat="31.382434"><ele>450</ele><time>2017-11-10T08:02:52.000Z</time></trkpt><trkpt lon="34.851731" lat="31.382453"><ele>450</ele><time>2017-11-10T08:02:53.000Z</time></trkpt><trkpt lon="34.851744" lat="31.382471"><ele>450</ele><time>2017-11-10T08:02:54.000Z</time></trkpt><trkpt lon="34.851756" lat="31.382488"><ele>450</ele><time>2017-11-10T08:02:55.000Z</time></trkpt><trkpt lon="34.85177" lat="31.382505"><ele>451</ele><time>2017-11-10T08:02:56.000Z</time></trkpt><trkpt lon="34.851782" lat="31.382521"><ele>451</ele><time>2017-11-10T08:02:57.000Z</time></trkpt><trkpt lon="34.851796" lat="31.382541"><ele>451</ele><time>2017-11-10T08:02:58.000Z</time></trkpt><trkpt lon="34.851811" lat="31.382559"><ele>451</ele><time>2017-11-10T08:02:59.000Z</time></trkpt><trkpt lon="34.851825" lat="31.382575"><ele>451</ele><time>2017-11-10T08:03:00.000Z</time></trkpt><trkpt lon="34.85184" lat="31.382589"><ele>451</ele><time>2017-11-10T08:03:01.000Z</time></trkpt><trkpt lon="34.851855" lat="31.382603"><ele>451</ele><time>2017-11-10T08:03:02.000Z</time></trkpt><trkpt lon="34.851873" lat="31.382616"><ele>451</ele><time>2017-11-10T08:03:03.000Z</time></trkpt><trkpt lon="34.851896" lat="31.382626"><ele>451</ele><time>2017-11-10T08:03:04.000Z</time></trkpt><trkpt lon="34.851923" lat="31.382637"><ele>451</ele><time>2017-11-10T08:03:05.000Z</time></trkpt><trkpt lon="34.851951" lat="31.382648"><ele>451</ele><time>2017-11-10T08:03:06.000Z</time></trkpt><trkpt lon="34.85198" lat="31.382657"><ele>452</ele><time>2017-11-10T08:03:07.000Z</time></trkpt><trkpt lon="34.852009" lat="31.38266"><ele>452</ele><time>2017-11-10T08:03:08.000Z</time></trkpt><trkpt lon="34.852038" lat="31.382658"><ele>452</ele><time>2017-11-10T08:03:09.000Z</time></trkpt><trkpt lon="34.852066" lat="31.382647"><ele>452</ele><time>2017-11-10T08:03:10.000Z</time></trkpt><trkpt lon="34.852091" lat="31.382626"><ele>452</ele><time>2017-11-10T08:03:11.000Z</time></trkpt><trkpt lon="34.85211" lat="31.3826"><ele>452</ele><time>2017-11-10T08:03:12.000Z</time></trkpt><trkpt lon="34.852126" lat="31.382572"><ele>451</ele><time>2017-11-10T08:03:13.000Z</time></trkpt><trkpt lon="34.852139" lat="31.382544"><ele>451</ele><time>2017-11-10T08:03:14.000Z</time></trkpt><trkpt lon="34.852147" lat="31.382515"><ele>451</ele><time>2017-11-10T08:03:15.000Z</time></trkpt><trkpt lon="34.852154" lat="31.382487"><ele>451</ele><time>2017-11-10T08:03:16.000Z</time></trkpt><trkpt lon="34.852159" lat="31.382459"><ele>451</ele><time>2017-11-10T08:03:17.000Z</time></trkpt><trkpt lon="34.852165" lat="31.38243"><ele>451</ele><time>2017-11-10T08:03:18.000Z</time></trkpt><trkpt lon="34.852169" lat="31.382402"><ele>452</ele><time>2017-11-10T08:03:19.000Z</time></trkpt><trkpt lon="34.852172" lat="31.382374"><ele>452</ele><time>2017-11-10T08:03:20.000Z</time></trkpt><trkpt lon="34.852175" lat="31.382347"><ele>452</ele><time>2017-11-10T08:03:21.000Z</time></trkpt><trkpt lon="34.852182" lat="31.38232"><ele>452</ele><time>2017-11-10T08:03:22.000Z</time></trkpt><trkpt lon="34.852186" lat="31.38229"><ele>452</ele><time>2017-11-10T08:03:23.000Z</time></trkpt><trkpt lon="34.852188" lat="31.382258"><ele>452</ele><time>2017-11-10T08:03:24.000Z</time></trkpt><trkpt lon="34.852192" lat="31.382226"><ele>452</ele><time>2017-11-10T08:03:25.000Z</time></trkpt><trkpt lon="34.852194" lat="31.382193"><ele>452</ele><time>2017-11-10T08:03:26.000Z</time></trkpt><trkpt lon="34.852195" lat="31.382158"><ele>452</ele><time>2017-11-10T08:03:27.000Z</time></trkpt><trkpt lon="34.852196" lat="31.382121"><ele>452</ele><time>2017-11-10T08:03:28.000Z</time></trkpt><trkpt lon="34.852201" lat="31.382084"><ele>451</ele><time>2017-11-10T08:03:29.000Z</time></trkpt><trkpt lon="34.852209" lat="31.382047"><ele>451</ele><time>2017-11-10T08:03:30.000Z</time></trkpt><trkpt lon="34.852217" lat="31.382008"><ele>451</ele><time>2017-11-10T08:03:31.000Z</time></trkpt><trkpt lon="34.852227" lat="31.38197"><ele>452</ele><time>2017-11-10T08:03:32.000Z</time></trkpt><trkpt lon="34.852236" lat="31.381932"><ele>452</ele><time>2017-11-10T08:03:33.000Z</time></trkpt><trkpt lon="34.852243" lat="31.381897"><ele>452</ele><time>2017-11-10T08:03:34.000Z</time></trkpt><trkpt lon="34.852249" lat="31.381865"><ele>453</ele><time>2017-11-10T08:03:35.000Z</time></trkpt><trkpt lon="34.852255" lat="31.381835"><ele>453</ele><time>2017-11-10T08:03:36.000Z</time></trkpt><trkpt lon="34.852259" lat="31.381808"><ele>453</ele><time>2017-11-10T08:03:37.000Z</time></trkpt><trkpt lon="34.852263" lat="31.381782"><ele>453</ele><time>2017-11-10T08:03:38.000Z</time></trkpt><trkpt lon="34.852264" lat="31.381756"><ele>453</ele><time>2017-11-10T08:03:39.000Z</time></trkpt><trkpt lon="34.852261" lat="31.381726"><ele>453</ele><time>2017-11-10T08:03:40.000Z</time></trkpt><trkpt lon="34.852265" lat="31.381692"><ele>453</ele><time>2017-11-10T08:03:41.000Z</time></trkpt><trkpt lon="34.852273" lat="31.381656"><ele>453</ele><time>2017-11-10T08:03:42.000Z</time></trkpt><trkpt lon="34.852284" lat="31.381616"><ele>453</ele><time>2017-11-10T08:03:43.000Z</time></trkpt><trkpt lon="34.8523" lat="31.38158"><ele>454</ele><time>2017-11-10T08:03:44.000Z</time></trkpt><trkpt lon="34.852315" lat="31.381548"><ele>454</ele><time>2017-11-10T08:03:45.000Z</time></trkpt><trkpt lon="34.85233" lat="31.381517"><ele>454</ele><time>2017-11-10T08:03:46.000Z</time></trkpt><trkpt lon="34.852344" lat="31.381486"><ele>454</ele><time>2017-11-10T08:03:47.000Z</time></trkpt><trkpt lon="34.852362" lat="31.381456"><ele>454</ele><time>2017-11-10T08:03:48.000Z</time></trkpt><trkpt lon="34.85238" lat="31.381429"><ele>454</ele><time>2017-11-10T08:03:49.000Z</time></trkpt><trkpt lon="34.852401" lat="31.381405"><ele>454</ele><time>2017-11-10T08:03:50.000Z</time></trkpt><trkpt lon="34.852425" lat="31.381385"><ele>454</ele><time>2017-11-10T08:03:51.000Z</time></trkpt><trkpt lon="34.852444" lat="31.381372"><ele>454</ele><time>2017-11-10T08:03:52.000Z</time></trkpt><trkpt lon="34.852462" lat="31.381359"><ele>455</ele><time>2017-11-10T08:03:53.000Z</time></trkpt><trkpt lon="34.852485" lat="31.381343"><ele>455</ele><time>2017-11-10T08:03:54.000Z</time></trkpt><trkpt lon="34.852508" lat="31.38133"><ele>455</ele><time>2017-11-10T08:03:55.000Z</time></trkpt><trkpt lon="34.852531" lat="31.381317"><ele>455</ele><time>2017-11-10T08:03:56.000Z</time></trkpt><trkpt lon="34.852558" lat="31.381304"><ele>455</ele><time>2017-11-10T08:03:57.000Z</time></trkpt><trkpt lon="34.852584" lat="31.38129"><ele>455</ele><time>2017-11-10T08:03:58.000Z</time></trkpt><trkpt lon="34.852613" lat="31.381275"><ele>455</ele><time>2017-11-10T08:03:59.000Z</time></trkpt><trkpt lon="34.85264" lat="31.38126"><ele>455</ele><time>2017-11-10T08:04:00.000Z</time></trkpt><trkpt lon="34.852667" lat="31.381246"><ele>455</ele><time>2017-11-10T08:04:01.000Z</time></trkpt><trkpt lon="34.852694" lat="31.381234"><ele>456</ele><time>2017-11-10T08:04:02.000Z</time></trkpt><trkpt lon="34.85272" lat="31.381221"><ele>456</ele><time>2017-11-10T08:04:03.000Z</time></trkpt><trkpt lon="34.852748" lat="31.381208"><ele>456</ele><time>2017-11-10T08:04:04.000Z</time></trkpt><trkpt lon="34.852774" lat="31.381194"><ele>456</ele><time>2017-11-10T08:04:05.000Z</time></trkpt><trkpt lon="34.852802" lat="31.381182"><ele>456</ele><time>2017-11-10T08:04:06.000Z</time></trkpt><trkpt lon="34.852829" lat="31.381169"><ele>457</ele><time>2017-11-10T08:04:07.000Z</time></trkpt><trkpt lon="34.852855" lat="31.381155"><ele>457</ele><time>2017-11-10T08:04:08.000Z</time></trkpt><trkpt lon="34.852882" lat="31.381142"><ele>457</ele><time>2017-11-10T08:04:09.000Z</time></trkpt><trkpt lon="34.852907" lat="31.38113"><ele>457</ele><time>2017-11-10T08:04:10.000Z</time></trkpt><trkpt lon="34.852932" lat="31.381119"><ele>457</ele><time>2017-11-10T08:04:11.000Z</time></trkpt><trkpt lon="34.852957" lat="31.381108"><ele>457</ele><time>2017-11-10T08:04:12.000Z</time></trkpt><trkpt lon="34.852979" lat="31.381097"><ele>457</ele><time>2017-11-10T08:04:13.000Z</time></trkpt><trkpt lon="34.853001" lat="31.381086"><ele>458</ele><time>2017-11-10T08:04:14.000Z</time></trkpt><trkpt lon="34.853027" lat="31.381074"><ele>458</ele><time>2017-11-10T08:04:15.000Z</time></trkpt><trkpt lon="34.853053" lat="31.38106"><ele>458</ele><time>2017-11-10T08:04:16.000Z</time></trkpt><trkpt lon="34.853081" lat="31.381048"><ele>457</ele><time>2017-11-10T08:04:17.000Z</time></trkpt><trkpt lon="34.853109" lat="31.381039"><ele>457</ele><time>2017-11-10T08:04:18.000Z</time></trkpt><trkpt lon="34.853137" lat="31.381029"><ele>457</ele><time>2017-11-10T08:04:19.000Z</time></trkpt><trkpt lon="34.853166" lat="31.381019"><ele>458</ele><time>2017-11-10T08:04:20.000Z</time></trkpt><trkpt lon="34.853196" lat="31.381009"><ele>458</ele><time>2017-11-10T08:04:21.000Z</time></trkpt><trkpt lon="34.853229" lat="31.381002"><ele>458</ele><time>2017-11-10T08:04:22.000Z</time></trkpt><trkpt lon="34.853263" lat="31.380994"><ele>458</ele><time>2017-11-10T08:04:23.000Z</time></trkpt><trkpt lon="34.853295" lat="31.380987"><ele>459</ele><time>2017-11-10T08:04:24.000Z</time></trkpt><trkpt lon="34.853323" lat="31.380984"><ele>459</ele><time>2017-11-10T08:04:25.000Z</time></trkpt><trkpt lon="34.85335" lat="31.38098"><ele>459</ele><time>2017-11-10T08:04:26.000Z</time></trkpt><trkpt lon="34.853375" lat="31.380975"><ele>459</ele><time>2017-11-10T08:04:27.000Z</time></trkpt><trkpt lon="34.853396" lat="31.38097"><ele>459</ele><time>2017-11-10T08:04:28.000Z</time></trkpt><trkpt lon="34.853418" lat="31.380965"><ele>459.6</ele><time>2017-11-10T08:04:29.000Z</time></trkpt><trkpt lon="34.853443" lat="31.380959"><ele>460</ele><time>2017-11-10T08:04:30.000Z</time></trkpt><trkpt lon="34.85347" lat="31.380952"><ele>460</ele><time>2017-11-10T08:04:31.000Z</time></trkpt><trkpt lon="34.853495" lat="31.380945"><ele>460</ele><time>2017-11-10T08:04:32.000Z</time></trkpt><trkpt lon="34.853521" lat="31.380939"><ele>460</ele><time>2017-11-10T08:04:33.000Z</time></trkpt><trkpt lon="34.853549" lat="31.380932"><ele>460</ele><time>2017-11-10T08:04:34.000Z</time></trkpt><trkpt lon="34.853577" lat="31.380927"><ele>461</ele><time>2017-11-10T08:04:35.000Z</time></trkpt><trkpt lon="34.853604" lat="31.380924"><ele>461</ele><time>2017-11-10T08:04:36.000Z</time></trkpt><trkpt lon="34.85363" lat="31.380923"><ele>461</ele><time>2017-11-10T08:04:37.000Z</time></trkpt><trkpt lon="34.85366" lat="31.380922"><ele>461</ele><time>2017-11-10T08:04:38.000Z</time></trkpt><trkpt lon="34.853689" lat="31.380919"><ele>462</ele><time>2017-11-10T08:04:39.000Z</time></trkpt><trkpt lon="34.853718" lat="31.380917"><ele>462</ele><time>2017-11-10T08:04:40.000Z</time></trkpt><trkpt lon="34.853745" lat="31.380917"><ele>462</ele><time>2017-11-10T08:04:41.000Z</time></trkpt><trkpt lon="34.853772" lat="31.380916"><ele>462</ele><time>2017-11-10T08:04:42.000Z</time></trkpt><trkpt lon="34.853797" lat="31.380914"><ele>462</ele><time>2017-11-10T08:04:43.000Z</time></trkpt><trkpt lon="34.853822" lat="31.380913"><ele>462</ele><time>2017-11-10T08:04:44.000Z</time></trkpt><trkpt lon="34.853849" lat="31.380911"><ele>463</ele><time>2017-11-10T08:04:45.000Z</time></trkpt><trkpt lon="34.853874" lat="31.380908"><ele>463</ele><time>2017-11-10T08:04:46.000Z</time></trkpt><trkpt lon="34.853898" lat="31.380905"><ele>463</ele><time>2017-11-10T08:04:47.000Z</time></trkpt><trkpt lon="34.85392" lat="31.380901"><ele>463</ele><time>2017-11-10T08:04:48.000Z</time></trkpt><trkpt lon="34.853941" lat="31.380896"><ele>463</ele><time>2017-11-10T08:04:49.000Z</time></trkpt><trkpt lon="34.853963" lat="31.380889"><ele>463</ele><time>2017-11-10T08:04:50.000Z</time></trkpt><trkpt lon="34.853987" lat="31.38088"><ele>463</ele><time>2017-11-10T08:04:51.000Z</time></trkpt><trkpt lon="34.854013" lat="31.38087"><ele>463</ele><time>2017-11-10T08:04:52.000Z</time></trkpt><trkpt lon="34.85404" lat="31.380862"><ele>463</ele><time>2017-11-10T08:04:53.000Z</time></trkpt><trkpt lon="34.854067" lat="31.380854"><ele>463</ele><time>2017-11-10T08:04:54.000Z</time></trkpt><trkpt lon="34.85409" lat="31.380846"><ele>463</ele><time>2017-11-10T08:04:55.000Z</time></trkpt><trkpt lon="34.854111" lat="31.380841"><ele>464</ele><time>2017-11-10T08:04:56.000Z</time></trkpt><trkpt lon="34.854111" lat="31.380841"><ele>464</ele><time>2017-11-10T08:04:57.000Z</time></trkpt><trkpt lon="34.854148" lat="31.380831"><ele>464</ele><time>2017-11-10T08:04:58.000Z</time></trkpt><trkpt lon="34.854148" lat="31.380831"><ele>464</ele><time>2017-11-10T08:04:59.000Z</time></trkpt><trkpt lon="34.854184" lat="31.380822"><ele>464</ele><time>2017-11-10T08:05:00.000Z</time></trkpt><trkpt lon="34.854184" lat="31.380822"><ele>465</ele><time>2017-11-10T08:05:01.000Z</time></trkpt><trkpt lon="34.854224" lat="31.38081"><ele>465</ele><time>2017-11-10T08:05:02.000Z</time></trkpt><trkpt lon="34.854246" lat="31.380804"><ele>465</ele><time>2017-11-10T08:05:03.000Z</time></trkpt><trkpt lon="34.854246" lat="31.380804"><ele>465</ele><time>2017-11-10T08:05:04.000Z</time></trkpt><trkpt lon="34.854284" lat="31.380792"><ele>465</ele><time>2017-11-10T08:05:05.000Z</time></trkpt><trkpt lon="34.854284" lat="31.380792"><ele>465</ele><time>2017-11-10T08:05:06.000Z</time></trkpt><trkpt lon="34.85432" lat="31.380778"><ele>466</ele><time>2017-11-10T08:05:07.000Z</time></trkpt><trkpt lon="34.85432" lat="31.380778"><ele>466</ele><time>2017-11-10T08:05:08.000Z</time></trkpt><trkpt lon="34.854358" lat="31.380767"><ele>466</ele><time>2017-11-10T08:05:09.000Z</time></trkpt><trkpt lon="34.854358" lat="31.380767"><ele>466</ele><time>2017-11-10T08:05:10.000Z</time></trkpt><trkpt lon="34.854394" lat="31.38075"><ele>466</ele><time>2017-11-10T08:05:11.000Z</time></trkpt><trkpt lon="34.854394" lat="31.38075"><ele>466</ele><time>2017-11-10T08:05:12.000Z</time></trkpt><trkpt lon="34.85443" lat="31.380732"><ele>466</ele><time>2017-11-10T08:05:13.000Z</time></trkpt><trkpt lon="34.85445" lat="31.380724"><ele>466</ele><time>2017-11-10T08:05:14.000Z</time></trkpt><trkpt lon="34.854468" lat="31.380714"><ele>466</ele><time>2017-11-10T08:05:15.000Z</time></trkpt><trkpt lon="34.85449" lat="31.380704"><ele>466</ele><time>2017-11-10T08:05:16.000Z</time></trkpt><trkpt lon="34.85451" lat="31.380694"><ele>466</ele><time>2017-11-10T08:05:17.000Z</time></trkpt><trkpt lon="34.854532" lat="31.380682"><ele>467</ele><time>2017-11-10T08:05:18.000Z</time></trkpt><trkpt lon="34.854552" lat="31.380674"><ele>467</ele><time>2017-11-10T08:05:19.000Z</time></trkpt><trkpt lon="34.854552" lat="31.380674"><ele>468</ele><time>2017-11-10T08:05:20.000Z</time></trkpt><trkpt lon="34.854586" lat="31.380656"><ele>468</ele><time>2017-11-10T08:05:21.000Z</time></trkpt><trkpt lon="34.854586" lat="31.380656"><ele>468</ele><time>2017-11-10T08:05:22.000Z</time></trkpt><trkpt lon="34.854614" lat="31.380638"><ele>468</ele><time>2017-11-10T08:05:23.000Z</time></trkpt><trkpt lon="34.854614" lat="31.380638"><ele>468</ele><time>2017-11-10T08:05:24.000Z</time></trkpt><trkpt lon="34.854632" lat="31.38061"><ele>468</ele><time>2017-11-10T08:05:25.000Z</time></trkpt><trkpt lon="34.854632" lat="31.38061"><ele>468</ele><time>2017-11-10T08:05:26.000Z</time></trkpt><trkpt lon="34.854642" lat="31.38058"><ele>468</ele><time>2017-11-10T08:05:27.000Z</time></trkpt><trkpt lon="34.854648" lat="31.38056"><ele>469</ele><time>2017-11-10T08:05:28.000Z</time></trkpt><trkpt lon="34.854648" lat="31.380536"><ele>469</ele><time>2017-11-10T08:05:29.000Z</time></trkpt><trkpt lon="34.854648" lat="31.380512"><ele>468</ele><time>2017-11-10T08:05:30.000Z</time></trkpt><trkpt lon="34.854646" lat="31.380488"><ele>468</ele><time>2017-11-10T08:05:31.000Z</time></trkpt><trkpt lon="34.854642" lat="31.380466"><ele>468</ele><time>2017-11-10T08:05:32.000Z</time></trkpt><trkpt lon="34.854641" lat="31.380442"><ele>469</ele><time>2017-11-10T08:05:33.000Z</time></trkpt><trkpt lon="34.854644" lat="31.380418"><ele>469</ele><time>2017-11-10T08:05:34.000Z</time></trkpt><trkpt lon="34.854644" lat="31.380394"><ele>469</ele><time>2017-11-10T08:05:35.000Z</time></trkpt><trkpt lon="34.854644" lat="31.380368"><ele>469</ele><time>2017-11-10T08:05:36.000Z</time></trkpt><trkpt lon="34.854641" lat="31.380344"><ele>469</ele><time>2017-11-10T08:05:37.000Z</time></trkpt><trkpt lon="34.854636" lat="31.380322"><ele>469</ele><time>2017-11-10T08:05:38.000Z</time></trkpt><trkpt lon="34.854626" lat="31.380304"><ele>469</ele><time>2017-11-10T08:05:39.000Z</time></trkpt><trkpt lon="34.854616" lat="31.380288"><ele>469</ele><time>2017-11-10T08:05:40.000Z</time></trkpt><trkpt lon="34.854616" lat="31.380288"><ele>470</ele><time>2017-11-10T08:05:41.000Z</time></trkpt><trkpt lon="34.854604" lat="31.380266"><ele>470</ele><time>2017-11-10T08:05:42.000Z</time></trkpt><trkpt lon="34.854604" lat="31.380266"><ele>470</ele><time>2017-11-10T08:05:43.000Z</time></trkpt><trkpt lon="34.854586" lat="31.380238"><ele>470</ele><time>2017-11-10T08:05:44.000Z</time></trkpt><trkpt lon="34.854586" lat="31.380238"><ele>471</ele><time>2017-11-10T08:05:45.000Z</time></trkpt><trkpt lon="34.854568" lat="31.380208"><ele>471</ele><time>2017-11-10T08:05:46.000Z</time></trkpt><trkpt lon="34.854568" lat="31.380208"><ele>471</ele><time>2017-11-10T08:05:47.000Z</time></trkpt><trkpt lon="34.854554" lat="31.38019"><ele>471</ele><time>2017-11-10T08:05:48.000Z</time></trkpt><trkpt lon="34.854554" lat="31.38019"><ele>471</ele><time>2017-11-10T08:05:49.000Z</time></trkpt><trkpt lon="34.854534" lat="31.380168"><ele>471</ele><time>2017-11-10T08:05:50.000Z</time></trkpt><trkpt lon="34.854534" lat="31.380168"><ele>471</ele><time>2017-11-10T08:05:51.000Z</time></trkpt><trkpt lon="34.85451" lat="31.380141"><ele>471</ele><time>2017-11-10T08:05:52.000Z</time></trkpt><trkpt lon="34.85451" lat="31.380141"><ele>471</ele><time>2017-11-10T08:05:53.000Z</time></trkpt><trkpt lon="34.854492" lat="31.380116"><ele>471</ele><time>2017-11-10T08:05:54.000Z</time></trkpt><trkpt lon="34.854492" lat="31.380116"><ele>471</ele><time>2017-11-10T08:05:55.000Z</time></trkpt><trkpt lon="34.85447" lat="31.380092"><ele>471</ele><time>2017-11-10T08:05:56.000Z</time></trkpt><trkpt lon="34.85445" lat="31.380075"><ele>471</ele><time>2017-11-10T08:05:57.000Z</time></trkpt><trkpt lon="34.854436" lat="31.380061"><ele>471</ele><time>2017-11-10T08:05:58.000Z</time></trkpt><trkpt lon="34.854436" lat="31.380061"><ele>471</ele><time>2017-11-10T08:05:59.000Z</time></trkpt><trkpt lon="34.854399" lat="31.380043"><ele>471</ele><time>2017-11-10T08:06:00.000Z</time></trkpt><trkpt lon="34.854374" lat="31.380037"><ele>471</ele><time>2017-11-10T08:06:01.000Z</time></trkpt><trkpt lon="34.854352" lat="31.380032"><ele>471</ele><time>2017-11-10T08:06:02.000Z</time></trkpt><trkpt lon="34.854328" lat="31.380024"><ele>471</ele><time>2017-11-10T08:06:03.000Z</time></trkpt><trkpt lon="34.854305" lat="31.380016"><ele>471</ele><time>2017-11-10T08:06:04.000Z</time></trkpt><trkpt lon="34.85428" lat="31.380008"><ele>471</ele><time>2017-11-10T08:06:05.000Z</time></trkpt><trkpt lon="34.854257" lat="31.380003"><ele>471</ele><time>2017-11-10T08:06:06.000Z</time></trkpt><trkpt lon="34.854233" lat="31.379996"><ele>471</ele><time>2017-11-10T08:06:07.000Z</time></trkpt><trkpt lon="34.854209" lat="31.37999"><ele>471</ele><time>2017-11-10T08:06:08.000Z</time></trkpt><trkpt lon="34.854185" lat="31.379981"><ele>471</ele><time>2017-11-10T08:06:09.000Z</time></trkpt><trkpt lon="34.854164" lat="31.379974"><ele>471</ele><time>2017-11-10T08:06:10.000Z</time></trkpt><trkpt lon="34.854143" lat="31.379968"><ele>471</ele><time>2017-11-10T08:06:11.000Z</time></trkpt><trkpt lon="34.854118" lat="31.379961"><ele>471</ele><time>2017-11-10T08:06:12.000Z</time></trkpt><trkpt lon="34.854088" lat="31.379951"><ele>471</ele><time>2017-11-10T08:06:13.000Z</time></trkpt><trkpt lon="34.854059" lat="31.379939"><ele>471</ele><time>2017-11-10T08:06:14.000Z</time></trkpt><trkpt lon="34.85403" lat="31.379926"><ele>471</ele><time>2017-11-10T08:06:15.000Z</time></trkpt><trkpt lon="34.854002" lat="31.379913"><ele>471</ele><time>2017-11-10T08:06:16.000Z</time></trkpt><trkpt lon="34.853978" lat="31.379904"><ele>471</ele><time>2017-11-10T08:06:17.000Z</time></trkpt><trkpt lon="34.853951" lat="31.379893"><ele>471</ele><time>2017-11-10T08:06:18.000Z</time></trkpt><trkpt lon="34.853924" lat="31.37988"><ele>471</ele><time>2017-11-10T08:06:19.000Z</time></trkpt><trkpt lon="34.853896" lat="31.379863"><ele>471</ele><time>2017-11-10T08:06:20.000Z</time></trkpt><trkpt lon="34.85387" lat="31.379847"><ele>472</ele><time>2017-11-10T08:06:21.000Z</time></trkpt><trkpt lon="34.853849" lat="31.379833"><ele>472</ele><time>2017-11-10T08:06:22.000Z</time></trkpt><trkpt lon="34.853826" lat="31.379819"><ele>472</ele><time>2017-11-10T08:06:23.000Z</time></trkpt><trkpt lon="34.853799" lat="31.379803"><ele>473</ele><time>2017-11-10T08:06:24.000Z</time></trkpt><trkpt lon="34.85377" lat="31.37979"><ele>473</ele><time>2017-11-10T08:06:25.000Z</time></trkpt><trkpt lon="34.853735" lat="31.379777"><ele>473</ele><time>2017-11-10T08:06:26.000Z</time></trkpt><trkpt lon="34.853699" lat="31.379766"><ele>473</ele><time>2017-11-10T08:06:27.000Z</time></trkpt><trkpt lon="34.853662" lat="31.379751"><ele>473</ele><time>2017-11-10T08:06:28.000Z</time></trkpt><trkpt lon="34.853628" lat="31.379729"><ele>473</ele><time>2017-11-10T08:06:29.000Z</time></trkpt><trkpt lon="34.853601" lat="31.37971"><ele>473</ele><time>2017-11-10T08:06:30.000Z</time></trkpt><trkpt lon="34.853576" lat="31.379694"><ele>473</ele><time>2017-11-10T08:06:31.000Z</time></trkpt><trkpt lon="34.853552" lat="31.37968"><ele>474</ele><time>2017-11-10T08:06:32.000Z</time></trkpt><trkpt lon="34.853528" lat="31.379668"><ele>474</ele><time>2017-11-10T08:06:33.000Z</time></trkpt><trkpt lon="34.8535" lat="31.379657"><ele>474</ele><time>2017-11-10T08:06:34.000Z</time></trkpt><trkpt lon="34.853473" lat="31.379647"><ele>474</ele><time>2017-11-10T08:06:35.000Z</time></trkpt><trkpt lon="34.853445" lat="31.379638"><ele>475</ele><time>2017-11-10T08:06:36.000Z</time></trkpt><trkpt lon="34.853416" lat="31.37963"><ele>475</ele><time>2017-11-10T08:06:37.000Z</time></trkpt><trkpt lon="34.853389" lat="31.379621"><ele>475</ele><time>2017-11-10T08:06:38.000Z</time></trkpt><trkpt lon="34.853365" lat="31.379611"><ele>475</ele><time>2017-11-10T08:06:39.000Z</time></trkpt><trkpt lon="34.85334" lat="31.379599"><ele>475</ele><time>2017-11-10T08:06:40.000Z</time></trkpt><trkpt lon="34.853315" lat="31.379586"><ele>475</ele><time>2017-11-10T08:06:41.000Z</time></trkpt><trkpt lon="34.853287" lat="31.379577"><ele>475</ele><time>2017-11-10T08:06:42.000Z</time></trkpt><trkpt lon="34.85326" lat="31.379568"><ele>476</ele><time>2017-11-10T08:06:43.000Z</time></trkpt><trkpt lon="34.853232" lat="31.379558"><ele>476</ele><time>2017-11-10T08:06:44.000Z</time></trkpt><trkpt lon="34.853204" lat="31.379548"><ele>476</ele><time>2017-11-10T08:06:45.000Z</time></trkpt><trkpt lon="34.853175" lat="31.379534"><ele>476</ele><time>2017-11-10T08:06:46.000Z</time></trkpt><trkpt lon="34.853149" lat="31.37952"><ele>476</ele><time>2017-11-10T08:06:47.000Z</time></trkpt><trkpt lon="34.853128" lat="31.379505"><ele>477</ele><time>2017-11-10T08:06:48.000Z</time></trkpt><trkpt lon="34.853106" lat="31.379489"><ele>478</ele><time>2017-11-10T08:06:49.000Z</time></trkpt><trkpt lon="34.853087" lat="31.379479"><ele>478</ele><time>2017-11-10T08:06:50.000Z</time></trkpt><trkpt lon="34.853087" lat="31.379479"><ele>478</ele><time>2017-11-10T08:06:51.000Z</time></trkpt><trkpt lon="34.853055" lat="31.379456"><ele>478</ele><time>2017-11-10T08:06:52.000Z</time></trkpt><trkpt lon="34.853039" lat="31.379442"><ele>478</ele><time>2017-11-10T08:06:53.000Z</time></trkpt><trkpt lon="34.853023" lat="31.379426"><ele>478</ele><time>2017-11-10T08:06:54.000Z</time></trkpt><trkpt lon="34.853009" lat="31.379409"><ele>478</ele><time>2017-11-10T08:06:55.000Z</time></trkpt><trkpt lon="34.85299" lat="31.379388"><ele>478</ele><time>2017-11-10T08:06:56.000Z</time></trkpt><trkpt lon="34.852968" lat="31.379366"><ele>478</ele><time>2017-11-10T08:06:57.000Z</time></trkpt><trkpt lon="34.852948" lat="31.379345"><ele>478</ele><time>2017-11-10T08:06:58.000Z</time></trkpt><trkpt lon="34.852922" lat="31.379324"><ele>478</ele><time>2017-11-10T08:06:59.000Z</time></trkpt><trkpt lon="34.85289" lat="31.379302"><ele>478</ele><time>2017-11-10T08:07:00.000Z</time></trkpt><trkpt lon="34.852854" lat="31.379287"><ele>478</ele><time>2017-11-10T08:07:01.000Z</time></trkpt><trkpt lon="34.852815" lat="31.379281"><ele>478</ele><time>2017-11-10T08:07:02.000Z</time></trkpt><trkpt lon="34.852775" lat="31.379282"><ele>478</ele><time>2017-11-10T08:07:03.000Z</time></trkpt><trkpt lon="34.852732" lat="31.379287"><ele>478</ele><time>2017-11-10T08:07:04.000Z</time></trkpt><trkpt lon="34.85269" lat="31.379287"><ele>477</ele><time>2017-11-10T08:07:05.000Z</time></trkpt><trkpt lon="34.852656" lat="31.379279"><ele>477</ele><time>2017-11-10T08:07:06.000Z</time></trkpt><trkpt lon="34.852625" lat="31.379273"><ele>478</ele><time>2017-11-10T08:07:07.000Z</time></trkpt><trkpt lon="34.852593" lat="31.379273"><ele>478</ele><time>2017-11-10T08:07:08.000Z</time></trkpt><trkpt lon="34.852555" lat="31.379289"><ele>477</ele><time>2017-11-10T08:07:09.000Z</time></trkpt><trkpt lon="34.852503" lat="31.379318"><ele>477</ele><time>2017-11-10T08:07:10.000Z</time></trkpt><trkpt lon="34.852451" lat="31.379339"><ele>476</ele><time>2017-11-10T08:07:11.000Z</time></trkpt><trkpt lon="34.852407" lat="31.379356"><ele>476</ele><time>2017-11-10T08:07:12.000Z</time></trkpt><trkpt lon="34.852369" lat="31.379375"><ele>476</ele><time>2017-11-10T08:07:13.000Z</time></trkpt><trkpt lon="34.852334" lat="31.379392"><ele>476</ele><time>2017-11-10T08:07:14.000Z</time></trkpt><trkpt lon="34.8523" lat="31.379407"><ele>476</ele><time>2017-11-10T08:07:15.000Z</time></trkpt><trkpt lon="34.852269" lat="31.379423"><ele>476</ele><time>2017-11-10T08:07:16.000Z</time></trkpt><trkpt lon="34.852231" lat="31.379435"><ele>476</ele><time>2017-11-10T08:07:17.000Z</time></trkpt><trkpt lon="34.852191" lat="31.379449"><ele>476</ele><time>2017-11-10T08:07:18.000Z</time></trkpt><trkpt lon="34.852147" lat="31.379458"><ele>476</ele><time>2017-11-10T08:07:19.000Z</time></trkpt><trkpt lon="34.8521" lat="31.379464"><ele>476</ele><time>2017-11-10T08:07:20.000Z</time></trkpt><trkpt lon="34.852055" lat="31.379471"><ele>476</ele><time>2017-11-10T08:07:21.000Z</time></trkpt><trkpt lon="34.852012" lat="31.379481"><ele>476</ele><time>2017-11-10T08:07:22.000Z</time></trkpt><trkpt lon="34.851967" lat="31.379486"><ele>476</ele><time>2017-11-10T08:07:23.000Z</time></trkpt><trkpt lon="34.851925" lat="31.379484"><ele>476</ele><time>2017-11-10T08:07:24.000Z</time></trkpt><trkpt lon="34.85189" lat="31.379477"><ele>476</ele><time>2017-11-10T08:07:25.000Z</time></trkpt><trkpt lon="34.851859" lat="31.379469"><ele>476</ele><time>2017-11-10T08:07:26.000Z</time></trkpt><trkpt lon="34.851831" lat="31.37946"><ele>476</ele><time>2017-11-10T08:07:27.000Z</time></trkpt><trkpt lon="34.851799" lat="31.37945"><ele>476</ele><time>2017-11-10T08:07:28.000Z</time></trkpt><trkpt lon="34.851763" lat="31.379438"><ele>476</ele><time>2017-11-10T08:07:29.000Z</time></trkpt><trkpt lon="34.851729" lat="31.379421"><ele>476</ele><time>2017-11-10T08:07:30.000Z</time></trkpt><trkpt lon="34.851696" lat="31.379397"><ele>477</ele><time>2017-11-10T08:07:31.000Z</time></trkpt><trkpt lon="34.85167" lat="31.379371"><ele>477</ele><time>2017-11-10T08:07:32.000Z</time></trkpt><trkpt lon="34.851643" lat="31.37934"><ele>477</ele><time>2017-11-10T08:07:33.000Z</time></trkpt><trkpt lon="34.851616" lat="31.37931"><ele>477</ele><time>2017-11-10T08:07:34.000Z</time></trkpt><trkpt lon="34.85159" lat="31.379279"><ele>478</ele><time>2017-11-10T08:07:35.000Z</time></trkpt><trkpt lon="34.85157" lat="31.379252"><ele>479</ele><time>2017-11-10T08:07:36.000Z</time></trkpt><trkpt lon="34.851556" lat="31.379231"><ele>479</ele><time>2017-11-10T08:07:37.000Z</time></trkpt><trkpt lon="34.851545" lat="31.379215"><ele>479</ele><time>2017-11-10T08:07:38.000Z</time></trkpt><trkpt lon="34.851532" lat="31.379198"><ele>479</ele><time>2017-11-10T08:07:39.000Z</time></trkpt><trkpt lon="34.851515" lat="31.379179"><ele>479</ele><time>2017-11-10T08:07:40.000Z</time></trkpt><trkpt lon="34.851493" lat="31.379158"><ele>479</ele><time>2017-11-10T08:07:41.000Z</time></trkpt><trkpt lon="34.851469" lat="31.379135"><ele>479</ele><time>2017-11-10T08:07:42.000Z</time></trkpt><trkpt lon="34.851447" lat="31.379109"><ele>479</ele><time>2017-11-10T08:07:43.000Z</time></trkpt><trkpt lon="34.851425" lat="31.379085"><ele>479</ele><time>2017-11-10T08:07:44.000Z</time></trkpt><trkpt lon="34.851395" lat="31.379063"><ele>479</ele><time>2017-11-10T08:07:45.000Z</time></trkpt><trkpt lon="34.85136" lat="31.379047"><ele>479</ele><time>2017-11-10T08:07:46.000Z</time></trkpt><trkpt lon="34.851325" lat="31.379033"><ele>479</ele><time>2017-11-10T08:07:47.000Z</time></trkpt><trkpt lon="34.851289" lat="31.37902"><ele>479</ele><time>2017-11-10T08:07:48.000Z</time></trkpt><trkpt lon="34.85126" lat="31.379011"><ele>480</ele><time>2017-11-10T08:07:49.000Z</time></trkpt><trkpt lon="34.851231" lat="31.379006"><ele>480</ele><time>2017-11-10T08:07:50.000Z</time></trkpt><trkpt lon="34.851199" lat="31.379001"><ele>480</ele><time>2017-11-10T08:07:51.000Z</time></trkpt><trkpt lon="34.851164" lat="31.378997"><ele>480</ele><time>2017-11-10T08:07:52.000Z</time></trkpt><trkpt lon="34.851117" lat="31.378993"><ele>480</ele><time>2017-11-10T08:07:53.000Z</time></trkpt><trkpt lon="34.851068" lat="31.37899"><ele>480</ele><time>2017-11-10T08:07:54.000Z</time></trkpt><trkpt lon="34.851015" lat="31.378985"><ele>480</ele><time>2017-11-10T08:07:55.000Z</time></trkpt><trkpt lon="34.850965" lat="31.37898"><ele>480</ele><time>2017-11-10T08:07:56.000Z</time></trkpt><trkpt lon="34.850919" lat="31.378974"><ele>479</ele><time>2017-11-10T08:07:57.000Z</time></trkpt><trkpt lon="34.850876" lat="31.37897"><ele>479</ele><time>2017-11-10T08:07:58.000Z</time></trkpt><trkpt lon="34.850831" lat="31.378974"><ele>479</ele><time>2017-11-10T08:07:59.000Z</time></trkpt><trkpt lon="34.850781" lat="31.378985"><ele>479</ele><time>2017-11-10T08:08:00.000Z</time></trkpt><trkpt lon="34.85072" lat="31.378994"><ele>478</ele><time>2017-11-10T08:08:01.000Z</time></trkpt><trkpt lon="34.850661" lat="31.378994"><ele>478</ele><time>2017-11-10T08:08:02.000Z</time></trkpt><trkpt lon="34.850601" lat="31.37899"><ele>478</ele><time>2017-11-10T08:08:03.000Z</time></trkpt><trkpt lon="34.850546" lat="31.378984"><ele>477</ele><time>2017-11-10T08:08:04.000Z</time></trkpt><trkpt lon="34.850499" lat="31.378978"><ele>477</ele><time>2017-11-10T08:08:05.000Z</time></trkpt><trkpt lon="34.850458" lat="31.378971"><ele>477</ele><time>2017-11-10T08:08:06.000Z</time></trkpt><trkpt lon="34.850416" lat="31.378969"><ele>477</ele><time>2017-11-10T08:08:07.000Z</time></trkpt><trkpt lon="34.85037" lat="31.378966"><ele>477</ele><time>2017-11-10T08:08:08.000Z</time></trkpt><trkpt lon="34.850321" lat="31.378969"><ele>477</ele><time>2017-11-10T08:08:09.000Z</time></trkpt><trkpt lon="34.850272" lat="31.378962"><ele>477</ele><time>2017-11-10T08:08:10.000Z</time></trkpt><trkpt lon="34.850223" lat="31.37895"><ele>477</ele><time>2017-11-10T08:08:11.000Z</time></trkpt><trkpt lon="34.850177" lat="31.378936"><ele>477</ele><time>2017-11-10T08:08:12.000Z</time></trkpt><trkpt lon="34.850138" lat="31.378925"><ele>476</ele><time>2017-11-10T08:08:13.000Z</time></trkpt><trkpt lon="34.850097" lat="31.378914"><ele>476</ele><time>2017-11-10T08:08:14.000Z</time></trkpt><trkpt lon="34.850049" lat="31.378904"><ele>476</ele><time>2017-11-10T08:08:15.000Z</time></trkpt><trkpt lon="34.850002" lat="31.378891"><ele>476</ele><time>2017-11-10T08:08:16.000Z</time></trkpt><trkpt lon="34.849953" lat="31.378876"><ele>475</ele><time>2017-11-10T08:08:17.000Z</time></trkpt><trkpt lon="34.849899" lat="31.378856"><ele>475</ele><time>2017-11-10T08:08:18.000Z</time></trkpt><trkpt lon="34.849842" lat="31.378835"><ele>475</ele><time>2017-11-10T08:08:19.000Z</time></trkpt><trkpt lon="34.849789" lat="31.378812"><ele>475</ele><time>2017-11-10T08:08:20.000Z</time></trkpt><trkpt lon="34.849738" lat="31.378789"><ele>475</ele><time>2017-11-10T08:08:21.000Z</time></trkpt><trkpt lon="34.849688" lat="31.378771"><ele>475</ele><time>2017-11-10T08:08:22.000Z</time></trkpt><trkpt lon="34.84964" lat="31.378761"><ele>475</ele><time>2017-11-10T08:08:23.000Z</time></trkpt><trkpt lon="34.849591" lat="31.37875"><ele>474</ele><time>2017-11-10T08:08:24.000Z</time></trkpt><trkpt lon="34.849546" lat="31.37874"><ele>474</ele><time>2017-11-10T08:08:25.000Z</time></trkpt><trkpt lon="34.849504" lat="31.378731"><ele>474</ele><time>2017-11-10T08:08:26.000Z</time></trkpt><trkpt lon="34.849463" lat="31.378726"><ele>474</ele><time>2017-11-10T08:08:27.000Z</time></trkpt><trkpt lon="34.849419" lat="31.378726"><ele>475</ele><time>2017-11-10T08:08:28.000Z</time></trkpt><trkpt lon="34.849368" lat="31.37873"><ele>475</ele><time>2017-11-10T08:08:29.000Z</time></trkpt><trkpt lon="34.84931" lat="31.378731"><ele>475</ele><time>2017-11-10T08:08:30.000Z</time></trkpt><trkpt lon="34.849251" lat="31.378731"><ele>475</ele><time>2017-11-10T08:08:31.000Z</time></trkpt><trkpt lon="34.849192" lat="31.378733"><ele>475</ele><time>2017-11-10T08:08:32.000Z</time></trkpt><trkpt lon="34.849135" lat="31.378739"><ele>475</ele><time>2017-11-10T08:08:33.000Z</time></trkpt><trkpt lon="34.849079" lat="31.378751"><ele>475</ele><time>2017-11-10T08:08:34.000Z</time></trkpt><trkpt lon="34.849022" lat="31.37877"><ele>475</ele><time>2017-11-10T08:08:35.000Z</time></trkpt><trkpt lon="34.84896" lat="31.378794"><ele>474</ele><time>2017-11-10T08:08:36.000Z</time></trkpt><trkpt lon="34.848899" lat="31.37881"><ele>473</ele><time>2017-11-10T08:08:37.000Z</time></trkpt><trkpt lon="34.848838" lat="31.378819"><ele>473</ele><time>2017-11-10T08:08:38.000Z</time></trkpt><trkpt lon="34.848785" lat="31.378831"><ele>473</ele><time>2017-11-10T08:08:39.000Z</time></trkpt><trkpt lon="34.848736" lat="31.378845"><ele>473</ele><time>2017-11-10T08:08:40.000Z</time></trkpt><trkpt lon="34.848687" lat="31.378859"><ele>473</ele><time>2017-11-10T08:08:41.000Z</time></trkpt><trkpt lon="34.848639" lat="31.378873"><ele>473</ele><time>2017-11-10T08:08:42.000Z</time></trkpt><trkpt lon="34.848591" lat="31.378887"><ele>473</ele><time>2017-11-10T08:08:43.000Z</time></trkpt><trkpt lon="34.848545" lat="31.378904"><ele>473</ele><time>2017-11-10T08:08:44.000Z</time></trkpt><trkpt lon="34.848501" lat="31.378925"><ele>473</ele><time>2017-11-10T08:08:45.000Z</time></trkpt><trkpt lon="34.848458" lat="31.378948"><ele>473</ele><time>2017-11-10T08:08:46.000Z</time></trkpt><trkpt lon="34.848416" lat="31.378973"><ele>473</ele><time>2017-11-10T08:08:47.000Z</time></trkpt><trkpt lon="34.848372" lat="31.378997"><ele>474</ele><time>2017-11-10T08:08:48.000Z</time></trkpt><trkpt lon="34.848332" lat="31.379021"><ele>474</ele><time>2017-11-10T08:08:49.000Z</time></trkpt><trkpt lon="34.848293" lat="31.379046"><ele>474</ele><time>2017-11-10T08:08:50.000Z</time></trkpt><trkpt lon="34.848252" lat="31.379072"><ele>474</ele><time>2017-11-10T08:08:51.000Z</time></trkpt><trkpt lon="34.848215" lat="31.379099"><ele>474</ele><time>2017-11-10T08:08:52.000Z</time></trkpt><trkpt lon="34.84818" lat="31.37912"><ele>474</ele><time>2017-11-10T08:08:53.000Z</time></trkpt><trkpt lon="34.848148" lat="31.379122"><ele>474</ele><time>2017-11-10T08:08:54.000Z</time></trkpt><trkpt lon="34.848128" lat="31.379111"><ele>475</ele><time>2017-11-10T08:08:55.000Z</time></trkpt><trkpt lon="34.84813" lat="31.379093"><ele>475</ele><time>2017-11-10T08:08:56.000Z</time></trkpt><trkpt lon="34.848131" lat="31.379075"><ele>475</ele><time>2017-11-10T08:08:57.000Z</time></trkpt><trkpt lon="34.848142" lat="31.37906"><ele>476</ele><time>2017-11-10T08:08:58.000Z</time></trkpt><trkpt lon="34.848156" lat="31.379044"><ele>476</ele><time>2017-11-10T08:08:59.000Z</time></trkpt><trkpt lon="34.848172" lat="31.379026"><ele>476</ele><time>2017-11-10T08:09:00.000Z</time></trkpt><trkpt lon="34.848186" lat="31.379006"><ele>476</ele><time>2017-11-10T08:09:01.000Z</time></trkpt><trkpt lon="34.848201" lat="31.378985"><ele>476</ele><time>2017-11-10T08:09:02.000Z</time></trkpt><trkpt lon="34.848213" lat="31.378966"><ele>476</ele><time>2017-11-10T08:09:03.000Z</time></trkpt><trkpt lon="34.848226" lat="31.378947"><ele>477</ele><time>2017-11-10T08:09:04.000Z</time></trkpt><trkpt lon="34.848242" lat="31.378932"><ele>477</ele><time>2017-11-10T08:09:05.000Z</time></trkpt><trkpt lon="34.848264" lat="31.378899"><ele>477</ele><time>2017-11-10T08:09:07.000Z</time></trkpt><trkpt lon="34.848273" lat="31.378881"><ele>477</ele><time>2017-11-10T08:09:08.000Z</time></trkpt><trkpt lon="34.848284" lat="31.378865"><ele>477</ele><time>2017-11-10T08:09:09.000Z</time></trkpt><trkpt lon="34.848284" lat="31.378865"><ele>477</ele><time>2017-11-10T08:09:10.000Z</time></trkpt><trkpt lon="34.848309" lat="31.378844"><ele>478</ele><time>2017-11-10T08:09:11.000Z</time></trkpt><trkpt lon="34.848309" lat="31.378844"><ele>478</ele><time>2017-11-10T08:09:12.000Z</time></trkpt><trkpt lon="34.848333" lat="31.378832"><ele>478</ele><time>2017-11-10T08:09:13.000Z</time></trkpt><trkpt lon="34.848333" lat="31.378832"><ele>478</ele><time>2017-11-10T08:09:14.000Z</time></trkpt><trkpt lon="34.848333" lat="31.378832"><ele>478</ele><time>2017-11-10T08:09:15.000Z</time></trkpt><trkpt lon="34.848335" lat="31.37886"><ele>478</ele><time>2017-11-10T08:09:16.000Z</time></trkpt><trkpt lon="34.848322" lat="31.378874"><ele>478</ele><time>2017-11-10T08:09:17.000Z</time></trkpt><trkpt lon="34.848306" lat="31.378889"><ele>478</ele><time>2017-11-10T08:09:18.000Z</time></trkpt><trkpt lon="34.84829" lat="31.378902"><ele>478</ele><time>2017-11-10T08:09:19.000Z</time></trkpt><trkpt lon="34.84829" lat="31.378902"><ele>478</ele><time>2017-11-10T08:09:20.000Z</time></trkpt><trkpt lon="34.84826" lat="31.37892"><ele>478</ele><time>2017-11-10T08:09:21.000Z</time></trkpt><trkpt lon="34.84826" lat="31.37892"><ele>478</ele><time>2017-11-10T08:09:22.000Z</time></trkpt><trkpt lon="34.84826" lat="31.37892"><ele>478</ele><time>2017-11-10T08:09:23.000Z</time></trkpt><trkpt lon="34.84826" lat="31.37892"><ele>478</ele><time>2017-11-10T08:09:24.000Z</time></trkpt><trkpt lon="34.84826" lat="31.37892"><ele>478</ele><time>2017-11-10T08:09:25.000Z</time></trkpt><trkpt lon="34.84826" lat="31.37892"><ele>478</ele><time>2017-11-10T08:09:26.000Z</time></trkpt><trkpt lon="34.84826" lat="31.37892"><ele>478</ele><time>2017-11-10T08:09:27.000Z</time></trkpt><trkpt lon="34.84826" lat="31.37892"><ele>478</ele><time>2017-11-10T08:09:28.000Z</time></trkpt><trkpt lon="34.84826" lat="31.37892"><ele>478</ele><time>2017-11-10T08:09:29.000Z</time></trkpt><trkpt lon="34.84826" lat="31.37892"><ele>478</ele><time>2017-11-10T08:09:30.000Z</time></trkpt><trkpt lon="34.84826" lat="31.37892"><ele>478</ele><time>2017-11-10T08:09:31.000Z</time></trkpt><trkpt lon="34.84826" lat="31.37892"><ele>478</ele><time>2017-11-10T08:09:32.000Z</time></trkpt><trkpt lon="34.84826" lat="31.37892"><ele>478</ele><time>2017-11-10T08:09:33.000Z</time></trkpt><trkpt lon="34.84826" lat="31.37892"><ele>478</ele><time>2017-11-10T08:09:34.000Z</time></trkpt><trkpt lon="34.84826" lat="31.37892"><ele>478</ele><time>2017-11-10T08:09:35.000Z</time></trkpt><trkpt lon="34.84826" lat="31.37892"><ele>478</ele><time>2017-11-10T08:09:36.000Z</time></trkpt><trkpt lon="34.84826" lat="31.37892"><ele>478</ele><time>2017-11-10T08:09:37.000Z</time></trkpt><trkpt lon="34.84826" lat="31.37892"><ele>478</ele><time>2017-11-10T08:09:38.000Z</time></trkpt><trkpt lon="34.84826" lat="31.37892"><ele>478</ele><time>2017-11-10T08:09:39.000Z</time></trkpt><trkpt lon="34.84826" lat="31.37892"><ele>478</ele><time>2017-11-10T08:09:40.000Z</time></trkpt><trkpt lon="34.84826" lat="31.37892"><ele>478</ele><time>2017-11-10T08:09:41.000Z</time></trkpt><trkpt lon="34.84826" lat="31.37892"><ele>478</ele><time>2017-11-10T08:09:42.000Z</time></trkpt><trkpt lon="34.84826" lat="31.37892"><ele>478</ele><time>2017-11-10T08:09:43.000Z</time></trkpt><trkpt lon="34.84826" lat="31.37892"><ele>478</ele><time>2017-11-10T08:09:44.000Z</time></trkpt><trkpt lon="34.84826" lat="31.37892"><ele>478</ele><time>2017-11-10T08:09:45.000Z</time></trkpt><trkpt lon="34.84826" lat="31.37892"><ele>478</ele><time>2017-11-10T08:09:46.000Z</time></trkpt><trkpt lon="34.84826" lat="31.37892"><ele>478</ele><time>2017-11-10T08:09:47.000Z</time></trkpt><trkpt lon="34.84826" lat="31.37892"><ele>478</ele><time>2017-11-10T08:09:48.000Z</time></trkpt><trkpt lon="34.84826" lat="31.37892"><ele>478</ele><time>2017-11-10T08:09:49.000Z</time></trkpt><trkpt lon="34.84826" lat="31.37892"><ele>478</ele><time>2017-11-10T08:09:50.000Z</time></trkpt><trkpt lon="34.84826" lat="31.37892"><ele>478</ele><time>2017-11-10T08:09:51.000Z</time></trkpt><trkpt lon="34.84826" lat="31.37892"><ele>478</ele><time>2017-11-10T08:09:52.000Z</time></trkpt><trkpt lon="34.84826" lat="31.37892"><ele>478</ele><time>2017-11-10T08:09:53.000Z</time></trkpt><trkpt lon="34.84826" lat="31.37892"><ele>478</ele><time>2017-11-10T08:09:54.000Z</time></trkpt><trkpt lon="34.84826" lat="31.37892"><ele>478</ele><time>2017-11-10T08:09:55.000Z</time></trkpt><trkpt lon="34.84826" lat="31.37892"><ele>478</ele><time>2017-11-10T08:09:56.000Z</time></trkpt><trkpt lon="34.84826" lat="31.37892"><ele>478</ele><time>2017-11-10T08:09:57.000Z</time></trkpt><trkpt lon="34.84826" lat="31.37892"><ele>478</ele><time>2017-11-10T08:09:58.000Z</time></trkpt><trkpt lon="34.84826" lat="31.37892"><ele>478</ele><time>2017-11-10T08:09:59.000Z</time></trkpt><trkpt lon="34.84826" lat="31.37892"><ele>478</ele><time>2017-11-10T08:10:00.000Z</time></trkpt><trkpt lon="34.84826" lat="31.37892"><ele>478</ele><time>2017-11-10T08:10:01.000Z</time></trkpt><trkpt lon="34.84826" lat="31.37892"><ele>478</ele><time>2017-11-10T08:10:02.000Z</time></trkpt><trkpt lon="34.84826" lat="31.37892"><ele>478</ele><time>2017-11-10T08:10:03.000Z</time></trkpt><trkpt lon="34.84826" lat="31.37892"><ele>478</ele><time>2017-11-10T08:10:04.000Z</time></trkpt><trkpt lon="34.84826" lat="31.37892"><ele>478</ele><time>2017-11-10T08:10:05.000Z</time></trkpt><trkpt lon="34.84826" lat="31.37892"><ele>478</ele><time>2017-11-10T08:10:06.000Z</time></trkpt><trkpt lon="34.84826" lat="31.37892"><ele>478</ele><time>2017-11-10T08:10:07.000Z</time></trkpt><trkpt lon="34.84826" lat="31.37892"><ele>478</ele><time>2017-11-10T08:10:08.000Z</time></trkpt><trkpt lon="34.84826" lat="31.37892"><ele>478</ele><time>2017-11-10T08:10:09.000Z</time></trkpt><trkpt lon="34.84826" lat="31.37892"><ele>478</ele><time>2017-11-10T08:10:10.000Z</time></trkpt><trkpt lon="34.84826" lat="31.37892"><ele>478</ele><time>2017-11-10T08:10:11.000Z</time></trkpt><trkpt lon="34.84826" lat="31.37892"><ele>478</ele><time>2017-11-10T08:10:12.000Z</time></trkpt><trkpt lon="34.84826" lat="31.37892"><ele>478</ele><time>2017-11-10T08:10:13.000Z</time></trkpt><trkpt lon="34.84826" lat="31.37892"><ele>478</ele><time>2017-11-10T08:10:14.000Z</time></trkpt><trkpt lon="34.84826" lat="31.37892"><ele>478</ele><time>2017-11-10T08:10:15.000Z</time></trkpt><trkpt lon="34.84826" lat="31.37892"><ele>478</ele><time>2017-11-10T08:10:16.000Z</time></trkpt><trkpt lon="34.84826" lat="31.37892"><ele>478</ele><time>2017-11-10T08:10:17.000Z</time></trkpt><trkpt lon="34.84826" lat="31.37892"><ele>478</ele><time>2017-11-10T08:10:18.000Z</time></trkpt><trkpt lon="34.84826" lat="31.37892"><ele>478</ele><time>2017-11-10T08:10:19.000Z</time></trkpt><trkpt lon="34.84826" lat="31.37892"><ele>478</ele><time>2017-11-10T08:10:20.000Z</time></trkpt><trkpt lon="34.84826" lat="31.37892"><ele>478</ele><time>2017-11-10T08:10:21.000Z</time></trkpt><trkpt lon="34.84826" lat="31.37892"><ele>478</ele><time>2017-11-10T08:10:22.000Z</time></trkpt><trkpt lon="34.84826" lat="31.37892"><ele>478</ele><time>2017-11-10T08:10:23.000Z</time></trkpt><trkpt lon="34.84826" lat="31.37892"><ele>478</ele><time>2017-11-10T08:10:24.000Z</time></trkpt><trkpt lon="34.84826" lat="31.37892"><ele>478</ele><time>2017-11-10T08:10:25.000Z</time></trkpt><trkpt lon="34.84826" lat="31.37892"><ele>478</ele><time>2017-11-10T08:10:26.000Z</time></trkpt><trkpt lon="34.84826" lat="31.37892"><ele>478</ele><time>2017-11-10T08:10:27.000Z</time></trkpt><trkpt lon="34.84826" lat="31.37892"><ele>478</ele><time>2017-11-10T08:10:28.000Z</time></trkpt><trkpt lon="34.84826" lat="31.37892"><ele>478</ele><time>2017-11-10T08:10:29.000Z</time></trkpt><trkpt lon="34.84826" lat="31.37892"><ele>478</ele><time>2017-11-10T08:10:30.000Z</time></trkpt><trkpt lon="34.84826" lat="31.37892"><ele>478</ele><time>2017-11-10T08:10:31.000Z</time></trkpt><trkpt lon="34.84826" lat="31.37892"><ele>478</ele><time>2017-11-10T08:10:32.000Z</time></trkpt><trkpt lon="34.84826" lat="31.37892"><ele>478</ele><time>2017-11-10T08:10:33.000Z</time></trkpt><trkpt lon="34.84826" lat="31.37892"><ele>478</ele><time>2017-11-10T08:10:34.000Z</time></trkpt><trkpt lon="34.84826" lat="31.37892"><ele>478</ele><time>2017-11-10T08:10:35.000Z</time></trkpt><trkpt lon="34.84826" lat="31.37892"><ele>478</ele><time>2017-11-10T08:10:36.000Z</time></trkpt><trkpt lon="34.84826" lat="31.37892"><ele>478</ele><time>2017-11-10T08:10:37.000Z</time></trkpt><trkpt lon="34.84826" lat="31.37892"><ele>478</ele><time>2017-11-10T08:10:38.000Z</time></trkpt><trkpt lon="34.84826" lat="31.37892"><ele>478</ele><time>2017-11-10T08:10:39.000Z</time></trkpt><trkpt lon="34.84826" lat="31.37892"><ele>478</ele><time>2017-11-10T08:10:40.000Z</time></trkpt><trkpt lon="34.84826" lat="31.37892"><ele>478</ele><time>2017-11-10T08:10:41.000Z</time></trkpt><trkpt lon="34.84826" lat="31.37892"><ele>478</ele><time>2017-11-10T08:10:42.000Z</time></trkpt><trkpt lon="34.84826" lat="31.37892"><ele>478</ele><time>2017-11-10T08:10:43.000Z</time></trkpt><trkpt lon="34.84826" lat="31.37892"><ele>478</ele><time>2017-11-10T08:10:44.000Z</time></trkpt><trkpt lon="34.84826" lat="31.37892"><ele>478</ele><time>2017-11-10T08:10:45.000Z</time></trkpt><trkpt lon="34.84826" lat="31.37892"><ele>478</ele><time>2017-11-10T08:10:46.000Z</time></trkpt><trkpt lon="34.84826" lat="31.37892"><ele>478</ele><time>2017-11-10T08:10:47.000Z</time></trkpt><trkpt lon="34.84826" lat="31.37892"><ele>478</ele><time>2017-11-10T08:10:48.000Z</time></trkpt><trkpt lon="34.84826" lat="31.37892"><ele>478</ele><time>2017-11-10T08:10:49.000Z</time></trkpt><trkpt lon="34.84826" lat="31.37892"><ele>478</ele><time>2017-11-10T08:10:50.000Z</time></trkpt><trkpt lon="34.84826" lat="31.37892"><ele>478</ele><time>2017-11-10T08:10:51.000Z</time></trkpt><trkpt lon="34.84826" lat="31.37892"><ele>478</ele><time>2017-11-10T08:10:52.000Z</time></trkpt><trkpt lon="34.84826" lat="31.37892"><ele>478</ele><time>2017-11-10T08:10:53.000Z</time></trkpt><trkpt lon="34.84826" lat="31.37892"><ele>478</ele><time>2017-11-10T08:10:54.000Z</time></trkpt><trkpt lon="34.84826" lat="31.37892"><ele>478</ele><time>2017-11-10T08:10:55.000Z</time></trkpt><trkpt lon="34.84826" lat="31.37892"><ele>478</ele><time>2017-11-10T08:10:56.000Z</time></trkpt><trkpt lon="34.84826" lat="31.37892"><ele>478</ele><time>2017-11-10T08:10:57.000Z</time></trkpt><trkpt lon="34.84826" lat="31.37892"><ele>478</ele><time>2017-11-10T08:10:58.000Z</time></trkpt><trkpt lon="34.84826" lat="31.37892"><ele>478</ele><time>2017-11-10T08:10:59.000Z</time></trkpt><trkpt lon="34.84826" lat="31.37892"><ele>478</ele><time>2017-11-10T08:11:00.000Z</time></trkpt><trkpt lon="34.84826" lat="31.37892"><ele>478</ele><time>2017-11-10T08:11:01.000Z</time></trkpt><trkpt lon="34.84826" lat="31.37892"><ele>478</ele><time>2017-11-10T08:11:02.000Z</time></trkpt><trkpt lon="34.84826" lat="31.37892"><ele>478</ele><time>2017-11-10T08:11:03.000Z</time></trkpt><trkpt lon="34.84826" lat="31.37892"><ele>479</ele><time>2017-11-10T08:11:04.000Z</time></trkpt><trkpt lon="34.84826" lat="31.37892"><ele>479</ele><time>2017-11-10T08:11:05.000Z</time></trkpt><trkpt lon="34.84826" lat="31.37892"><ele>478</ele><time>2017-11-10T08:11:06.000Z</time></trkpt><trkpt lon="34.84826" lat="31.37892"><ele>478</ele><time>2017-11-10T08:11:07.000Z</time></trkpt><trkpt lon="34.84826" lat="31.37892"><ele>478</ele><time>2017-11-10T08:11:08.000Z</time></trkpt><trkpt lon="34.84826" lat="31.37892"><ele>478</ele><time>2017-11-10T08:11:09.000Z</time></trkpt><trkpt lon="34.84826" lat="31.37892"><ele>478</ele><time>2017-11-10T08:11:10.000Z</time></trkpt><trkpt lon="34.84826" lat="31.37892"><ele>478</ele><time>2017-11-10T08:11:11.000Z</time></trkpt><trkpt lon="34.84826" lat="31.37892"><ele>478</ele><time>2017-11-10T08:11:12.000Z</time></trkpt><trkpt lon="34.84826" lat="31.37892"><ele>478</ele><time>2017-11-10T08:11:13.000Z</time></trkpt><trkpt lon="34.84826" lat="31.37892"><ele>478</ele><time>2017-11-10T08:11:14.000Z</time></trkpt><trkpt lon="34.84826" lat="31.37892"><ele>478</ele><time>2017-11-10T08:11:15.000Z</time></trkpt><trkpt lon="34.84826" lat="31.37892"><ele>478</ele><time>2017-11-10T08:11:16.000Z</time></trkpt><trkpt lon="34.84826" lat="31.37892"><ele>478</ele><time>2017-11-10T08:11:17.000Z</time></trkpt><trkpt lon="34.84826" lat="31.37892"><ele>478</ele><time>2017-11-10T08:11:18.000Z</time></trkpt><trkpt lon="34.84826" lat="31.37892"><ele>478</ele><time>2017-11-10T08:11:19.000Z</time></trkpt><trkpt lon="34.84826" lat="31.37892"><ele>478</ele><time>2017-11-10T08:11:20.000Z</time></trkpt><trkpt lon="34.84826" lat="31.37892"><ele>478</ele><time>2017-11-10T08:11:21.000Z</time></trkpt><trkpt lon="34.84826" lat="31.37892"><ele>478</ele><time>2017-11-10T08:11:22.000Z</time></trkpt><trkpt lon="34.84826" lat="31.37892"><ele>478</ele><time>2017-11-10T08:11:23.000Z</time></trkpt><trkpt lon="34.84826" lat="31.37892"><ele>478</ele><time>2017-11-10T08:11:24.000Z</time></trkpt><trkpt lon="34.84826" lat="31.37892"><ele>478</ele><time>2017-11-10T08:11:25.000Z</time></trkpt><trkpt lon="34.84826" lat="31.37892"><ele>478</ele><time>2017-11-10T08:11:26.000Z</time></trkpt><trkpt lon="34.84826" lat="31.37892"><ele>478</ele><time>2017-11-10T08:11:27.000Z</time></trkpt><trkpt lon="34.84826" lat="31.37892"><ele>478</ele><time>2017-11-10T08:11:28.000Z</time></trkpt><trkpt lon="34.84826" lat="31.37892"><ele>478</ele><time>2017-11-10T08:11:29.000Z</time></trkpt><trkpt lon="34.84826" lat="31.37892"><ele>478</ele><time>2017-11-10T08:11:30.000Z</time></trkpt><trkpt lon="34.84826" lat="31.37892"><ele>478</ele><time>2017-11-10T08:11:31.000Z</time></trkpt><trkpt lon="34.84826" lat="31.37892"><ele>478</ele><time>2017-11-10T08:11:33.000Z</time></trkpt><trkpt lon="34.84826" lat="31.37892"><ele>478</ele><time>2017-11-10T08:11:34.000Z</time></trkpt><trkpt lon="34.84826" lat="31.37892"><ele>478</ele><time>2017-11-10T08:11:35.000Z</time></trkpt><trkpt lon="34.84826" lat="31.37892"><ele>478</ele><time>2017-11-10T08:11:36.000Z</time></trkpt><trkpt lon="34.84826" lat="31.37892"><ele>478</ele><time>2017-11-10T08:11:37.000Z</time></trkpt><trkpt lon="34.84826" lat="31.37892"><ele>478</ele><time>2017-11-10T08:11:38.000Z</time></trkpt><trkpt lon="34.84826" lat="31.37892"><ele>478</ele><time>2017-11-10T08:11:39.000Z</time></trkpt><trkpt lon="34.84826" lat="31.37892"><ele>478</ele><time>2017-11-10T08:11:40.000Z</time></trkpt><trkpt lon="34.84826" lat="31.37892"><ele>478</ele><time>2017-11-10T08:11:41.000Z</time></trkpt><trkpt lon="34.84826" lat="31.37892"><ele>478</ele><time>2017-11-10T08:11:42.000Z</time></trkpt><trkpt lon="34.84826" lat="31.37892"><ele>479</ele><time>2017-11-10T08:11:43.000Z</time></trkpt><trkpt lon="34.84826" lat="31.37892"><ele>479</ele><time>2017-11-10T08:11:44.000Z</time></trkpt><trkpt lon="34.84826" lat="31.37892"><ele>478</ele><time>2017-11-10T08:11:45.000Z</time></trkpt><trkpt lon="34.84826" lat="31.37892"><ele>478</ele><time>2017-11-10T08:11:46.000Z</time></trkpt><trkpt lon="34.84826" lat="31.37892"><ele>478</ele><time>2017-11-10T08:11:47.000Z</time></trkpt><trkpt lon="34.84826" lat="31.37892"><ele>478</ele><time>2017-11-10T08:11:48.000Z</time></trkpt><trkpt lon="34.84826" lat="31.37892"><ele>478</ele><time>2017-11-10T08:11:49.000Z</time></trkpt><trkpt lon="34.84826" lat="31.37892"><ele>479</ele><time>2017-11-10T08:11:50.000Z</time></trkpt><trkpt lon="34.84826" lat="31.37892"><ele>479</ele><time>2017-11-10T08:11:51.000Z</time></trkpt><trkpt lon="34.84826" lat="31.37892"><ele>478</ele><time>2017-11-10T08:11:52.000Z</time></trkpt><trkpt lon="34.84826" lat="31.37892"><ele>478</ele><time>2017-11-10T08:11:53.000Z</time></trkpt><trkpt lon="34.84826" lat="31.37892"><ele>478</ele><time>2017-11-10T08:11:54.000Z</time></trkpt><trkpt lon="34.84826" lat="31.37892"><ele>478</ele><time>2017-11-10T08:11:55.000Z</time></trkpt><trkpt lon="34.84826" lat="31.37892"><ele>478</ele><time>2017-11-10T08:11:56.000Z</time></trkpt><trkpt lon="34.84826" lat="31.37892"><ele>478</ele><time>2017-11-10T08:11:57.000Z</time></trkpt><trkpt lon="34.84826" lat="31.37892"><ele>478</ele><time>2017-11-10T08:11:58.000Z</time></trkpt><trkpt lon="34.84826" lat="31.37892"><ele>478</ele><time>2017-11-10T08:11:59.000Z</time></trkpt><trkpt lon="34.84826" lat="31.37892"><ele>478</ele><time>2017-11-10T08:12:00.000Z</time></trkpt><trkpt lon="34.84826" lat="31.37892"><ele>478</ele><time>2017-11-10T08:12:01.000Z</time></trkpt><trkpt lon="34.84826" lat="31.37892"><ele>478</ele><time>2017-11-10T08:12:02.000Z</time></trkpt><trkpt lon="34.84826" lat="31.37892"><ele>478</ele><time>2017-11-10T08:12:03.000Z</time></trkpt><trkpt lon="34.84826" lat="31.37892"><ele>478</ele><time>2017-11-10T08:12:04.000Z</time></trkpt><trkpt lon="34.84826" lat="31.37892"><ele>478</ele><time>2017-11-10T08:12:05.000Z</time></trkpt><trkpt lon="34.84826" lat="31.37892"><ele>478</ele><time>2017-11-10T08:12:06.000Z</time></trkpt><trkpt lon="34.84826" lat="31.37892"><ele>478</ele><time>2017-11-10T08:12:07.000Z</time></trkpt><trkpt lon="34.84826" lat="31.37892"><ele>478</ele><time>2017-11-10T08:12:08.000Z</time></trkpt><trkpt lon="34.84826" lat="31.37892"><ele>478</ele><time>2017-11-10T08:12:09.000Z</time></trkpt><trkpt lon="34.84826" lat="31.37892"><ele>478</ele><time>2017-11-10T08:12:10.000Z</time></trkpt><trkpt lon="34.84826" lat="31.37892"><ele>478</ele><time>2017-11-10T08:12:11.000Z</time></trkpt><trkpt lon="34.84826" lat="31.37892"><ele>479</ele><time>2017-11-10T08:12:12.000Z</time></trkpt><trkpt lon="34.84826" lat="31.37892"><ele>479</ele><time>2017-11-10T08:12:13.000Z</time></trkpt><trkpt lon="34.84826" lat="31.37892"><ele>479</ele><time>2017-11-10T08:12:14.000Z</time></trkpt><trkpt lon="34.84826" lat="31.37892"><ele>479</ele><time>2017-11-10T08:12:15.000Z</time></trkpt><trkpt lon="34.84826" lat="31.37892"><ele>479</ele><time>2017-11-10T08:12:16.000Z</time></trkpt><trkpt lon="34.84826" lat="31.37892"><ele>479</ele><time>2017-11-10T08:12:17.000Z</time></trkpt><trkpt lon="34.84826" lat="31.37892"><ele>479</ele><time>2017-11-10T08:12:18.000Z</time></trkpt><trkpt lon="34.84826" lat="31.37892"><ele>479</ele><time>2017-11-10T08:12:19.000Z</time></trkpt><trkpt lon="34.84826" lat="31.37892"><ele>479</ele><time>2017-11-10T08:12:20.000Z</time></trkpt><trkpt lon="34.84826" lat="31.37892"><ele>479</ele><time>2017-11-10T08:12:21.000Z</time></trkpt><trkpt lon="34.84826" lat="31.37892"><ele>479</ele><time>2017-11-10T08:12:22.000Z</time></trkpt><trkpt lon="34.84826" lat="31.37892"><ele>479</ele><time>2017-11-10T08:12:23.000Z</time></trkpt><trkpt lon="34.84826" lat="31.37892"><ele>479</ele><time>2017-11-10T08:12:24.000Z</time></trkpt><trkpt lon="34.84826" lat="31.37892"><ele>479</ele><time>2017-11-10T08:12:25.000Z</time></trkpt><trkpt lon="34.84826" lat="31.37892"><ele>479</ele><time>2017-11-10T08:12:26.000Z</time></trkpt><trkpt lon="34.84826" lat="31.37892"><ele>479</ele><time>2017-11-10T08:12:27.000Z</time></trkpt><trkpt lon="34.84826" lat="31.37892"><ele>479</ele><time>2017-11-10T08:12:28.000Z</time></trkpt><trkpt lon="34.84826" lat="31.37892"><ele>479</ele><time>2017-11-10T08:12:29.000Z</time></trkpt><trkpt lon="34.84826" lat="31.37892"><ele>479</ele><time>2017-11-10T08:12:30.000Z</time></trkpt><trkpt lon="34.84826" lat="31.37892"><ele>479</ele><time>2017-11-10T08:12:31.000Z</time></trkpt><trkpt lon="34.84826" lat="31.37892"><ele>479</ele><time>2017-11-10T08:12:32.000Z</time></trkpt><trkpt lon="34.84826" lat="31.37892"><ele>479</ele><time>2017-11-10T08:12:33.000Z</time></trkpt><trkpt lon="34.84826" lat="31.37892"><ele>479</ele><time>2017-11-10T08:12:34.000Z</time></trkpt><trkpt lon="34.84826" lat="31.37892"><ele>479</ele><time>2017-11-10T08:12:35.000Z</time></trkpt><trkpt lon="34.84826" lat="31.37892"><ele>479</ele><time>2017-11-10T08:12:36.000Z</time></trkpt><trkpt lon="34.84826" lat="31.37892"><ele>479</ele><time>2017-11-10T08:12:37.000Z</time></trkpt><trkpt lon="34.84826" lat="31.37892"><ele>479</ele><time>2017-11-10T08:12:38.000Z</time></trkpt><trkpt lon="34.84826" lat="31.37892"><ele>479</ele><time>2017-11-10T08:12:39.000Z</time></trkpt><trkpt lon="34.84826" lat="31.37892"><ele>479</ele><time>2017-11-10T08:12:40.000Z</time></trkpt><trkpt lon="34.84826" lat="31.37892"><ele>479</ele><time>2017-11-10T08:12:41.000Z</time></trkpt><trkpt lon="34.84826" lat="31.37892"><ele>479</ele><time>2017-11-10T08:12:42.000Z</time></trkpt><trkpt lon="34.84826" lat="31.37892"><ele>479</ele><time>2017-11-10T08:12:43.000Z</time></trkpt><trkpt lon="34.84826" lat="31.37892"><ele>479</ele><time>2017-11-10T08:12:44.000Z</time></trkpt><trkpt lon="34.84826" lat="31.37892"><ele>479</ele><time>2017-11-10T08:12:45.000Z</time></trkpt><trkpt lon="34.84826" lat="31.37892"><ele>479</ele><time>2017-11-10T08:12:46.000Z</time></trkpt><trkpt lon="34.84826" lat="31.37892"><ele>479</ele><time>2017-11-10T08:12:47.000Z</time></trkpt><trkpt lon="34.84826" lat="31.37892"><ele>479</ele><time>2017-11-10T08:12:48.000Z</time></trkpt><trkpt lon="34.84826" lat="31.37892"><ele>479</ele><time>2017-11-10T08:12:49.000Z</time></trkpt><trkpt lon="34.84826" lat="31.37892"><ele>479</ele><time>2017-11-10T08:12:50.000Z</time></trkpt><trkpt lon="34.84826" lat="31.37892"><ele>479</ele><time>2017-11-10T08:12:51.000Z</time></trkpt><trkpt lon="34.84826" lat="31.37892"><ele>479</ele><time>2017-11-10T08:12:52.000Z</time></trkpt><trkpt lon="34.84826" lat="31.37892"><ele>479</ele><time>2017-11-10T08:12:53.000Z</time></trkpt><trkpt lon="34.84826" lat="31.37892"><ele>479</ele><time>2017-11-10T08:12:54.000Z</time></trkpt><trkpt lon="34.84826" lat="31.37892"><ele>479</ele><time>2017-11-10T08:12:55.000Z</time></trkpt><trkpt lon="34.84826" lat="31.37892"><ele>479</ele><time>2017-11-10T08:12:56.000Z</time></trkpt><trkpt lon="34.84826" lat="31.37892"><ele>479</ele><time>2017-11-10T08:12:57.000Z</time></trkpt><trkpt lon="34.84826" lat="31.37892"><ele>479</ele><time>2017-11-10T08:12:58.000Z</time></trkpt><trkpt lon="34.84826" lat="31.37892"><ele>479</ele><time>2017-11-10T08:12:59.000Z</time></trkpt><trkpt lon="34.84826" lat="31.37892"><ele>479</ele><time>2017-11-10T08:13:00.000Z</time></trkpt><trkpt lon="34.84826" lat="31.37892"><ele>479</ele><time>2017-11-10T08:13:01.000Z</time></trkpt><trkpt lon="34.84826" lat="31.37892"><ele>479</ele><time>2017-11-10T08:13:02.000Z</time></trkpt><trkpt lon="34.84826" lat="31.37892"><ele>479</ele><time>2017-11-10T08:13:03.000Z</time></trkpt><trkpt lon="34.84826" lat="31.37892"><ele>479</ele><time>2017-11-10T08:13:04.000Z</time></trkpt><trkpt lon="34.84826" lat="31.37892"><ele>479</ele><time>2017-11-10T08:13:05.000Z</time></trkpt><trkpt lon="34.84826" lat="31.37892"><ele>479</ele><time>2017-11-10T08:13:06.000Z</time></trkpt><trkpt lon="34.84826" lat="31.37892"><ele>479</ele><time>2017-11-10T08:13:07.000Z</time></trkpt><trkpt lon="34.84826" lat="31.37892"><ele>480</ele><time>2017-11-10T08:13:08.000Z</time></trkpt><trkpt lon="34.84826" lat="31.37892"><ele>480</ele><time>2017-11-10T08:13:09.000Z</time></trkpt><trkpt lon="34.84826" lat="31.37892"><ele>479</ele><time>2017-11-10T08:13:10.000Z</time></trkpt><trkpt lon="34.84826" lat="31.37892"><ele>479</ele><time>2017-11-10T08:13:11.000Z</time></trkpt><trkpt lon="34.84826" lat="31.37892"><ele>479</ele><time>2017-11-10T08:13:12.000Z</time></trkpt><trkpt lon="34.84826" lat="31.37892"><ele>479</ele><time>2017-11-10T08:13:13.000Z</time></trkpt><trkpt lon="34.84826" lat="31.37892"><ele>479</ele><time>2017-11-10T08:13:14.000Z</time></trkpt><trkpt lon="34.84826" lat="31.37892"><ele>479</ele><time>2017-11-10T08:13:15.000Z</time></trkpt><trkpt lon="34.84826" lat="31.37892"><ele>479</ele><time>2017-11-10T08:13:16.000Z</time></trkpt><trkpt lon="34.84826" lat="31.37892"><ele>479</ele><time>2017-11-10T08:13:17.000Z</time></trkpt><trkpt lon="34.84826" lat="31.37892"><ele>479</ele><time>2017-11-10T08:13:18.000Z</time></trkpt><trkpt lon="34.84826" lat="31.37892"><ele>479</ele><time>2017-11-10T08:13:19.000Z</time></trkpt><trkpt lon="34.84826" lat="31.37892"><ele>479</ele><time>2017-11-10T08:13:20.000Z</time></trkpt><trkpt lon="34.84826" lat="31.37892"><ele>479</ele><time>2017-11-10T08:13:21.000Z</time></trkpt><trkpt lon="34.84826" lat="31.37892"><ele>479</ele><time>2017-11-10T08:13:22.000Z</time></trkpt><trkpt lon="34.84826" lat="31.37892"><ele>479</ele><time>2017-11-10T08:13:23.000Z</time></trkpt><trkpt lon="34.84826" lat="31.37892"><ele>479</ele><time>2017-11-10T08:13:24.000Z</time></trkpt><trkpt lon="34.84826" lat="31.37892"><ele>479</ele><time>2017-11-10T08:13:25.000Z</time></trkpt><trkpt lon="34.84826" lat="31.37892"><ele>479</ele><time>2017-11-10T08:13:26.000Z</time></trkpt><trkpt lon="34.84826" lat="31.37892"><ele>479</ele><time>2017-11-10T08:13:27.000Z</time></trkpt><trkpt lon="34.84826" lat="31.37892"><ele>479</ele><time>2017-11-10T08:13:28.000Z</time></trkpt><trkpt lon="34.84826" lat="31.37892"><ele>479</ele><time>2017-11-10T08:13:29.000Z</time></trkpt><trkpt lon="34.84826" lat="31.37892"><ele>479</ele><time>2017-11-10T08:13:30.000Z</time></trkpt><trkpt lon="34.84826" lat="31.37892"><ele>479</ele><time>2017-11-10T08:13:31.000Z</time></trkpt><trkpt lon="34.84826" lat="31.37892"><ele>479</ele><time>2017-11-10T08:13:32.000Z</time></trkpt><trkpt lon="34.84826" lat="31.37892"><ele>479</ele><time>2017-11-10T08:13:33.000Z</time></trkpt><trkpt lon="34.84826" lat="31.37892"><ele>479</ele><time>2017-11-10T08:13:34.000Z</time></trkpt><trkpt lon="34.84826" lat="31.37892"><ele>479</ele><time>2017-11-10T08:13:35.000Z</time></trkpt><trkpt lon="34.84826" lat="31.37892"><ele>479</ele><time>2017-11-10T08:13:36.000Z</time></trkpt><trkpt lon="34.84826" lat="31.37892"><ele>479</ele><time>2017-11-10T08:13:37.000Z</time></trkpt><trkpt lon="34.84826" lat="31.37892"><ele>479</ele><time>2017-11-10T08:13:38.000Z</time></trkpt><trkpt lon="34.84826" lat="31.37892"><ele>479</ele><time>2017-11-10T08:13:39.000Z</time></trkpt><trkpt lon="34.84826" lat="31.37892"><ele>479</ele><time>2017-11-10T08:13:40.000Z</time></trkpt><trkpt lon="34.84826" lat="31.37892"><ele>479</ele><time>2017-11-10T08:13:41.000Z</time></trkpt><trkpt lon="34.84826" lat="31.37892"><ele>479</ele><time>2017-11-10T08:13:42.000Z</time></trkpt><trkpt lon="34.84826" lat="31.37892"><ele>479</ele><time>2017-11-10T08:13:43.000Z</time></trkpt><trkpt lon="34.84826" lat="31.37892"><ele>479</ele><time>2017-11-10T08:13:44.000Z</time></trkpt><trkpt lon="34.84826" lat="31.37892"><ele>479</ele><time>2017-11-10T08:13:45.000Z</time></trkpt><trkpt lon="34.84826" lat="31.37892"><ele>479</ele><time>2017-11-10T08:13:46.000Z</time></trkpt><trkpt lon="34.84826" lat="31.37892"><ele>479</ele><time>2017-11-10T08:13:47.000Z</time></trkpt><trkpt lon="34.84826" lat="31.37892"><ele>479</ele><time>2017-11-10T08:13:48.000Z</time></trkpt><trkpt lon="34.84826" lat="31.37892"><ele>479</ele><time>2017-11-10T08:13:49.000Z</time></trkpt><trkpt lon="34.84826" lat="31.37892"><ele>479</ele><time>2017-11-10T08:13:50.000Z</time></trkpt><trkpt lon="34.84826" lat="31.37892"><ele>479</ele><time>2017-11-10T08:13:51.000Z</time></trkpt><trkpt lon="34.84826" lat="31.37892"><ele>479</ele><time>2017-11-10T08:13:52.000Z</time></trkpt><trkpt lon="34.84826" lat="31.37892"><ele>479</ele><time>2017-11-10T08:13:53.000Z</time></trkpt><trkpt lon="34.84826" lat="31.37892"><ele>479</ele><time>2017-11-10T08:13:54.000Z</time></trkpt><trkpt lon="34.84826" lat="31.37892"><ele>479</ele><time>2017-11-10T08:13:55.000Z</time></trkpt><trkpt lon="34.84826" lat="31.37892"><ele>479</ele><time>2017-11-10T08:13:56.000Z</time></trkpt><trkpt lon="34.84826" lat="31.37892"><ele>479</ele><time>2017-11-10T08:13:57.000Z</time></trkpt><trkpt lon="34.84826" lat="31.37892"><ele>479</ele><time>2017-11-10T08:13:58.000Z</time></trkpt><trkpt lon="34.84826" lat="31.37892"><ele>479</ele><time>2017-11-10T08:13:59.000Z</time></trkpt><trkpt lon="34.84826" lat="31.37892"><ele>479</ele><time>2017-11-10T08:14:00.000Z</time></trkpt><trkpt lon="34.84826" lat="31.37892"><ele>479</ele><time>2017-11-10T08:14:01.000Z</time></trkpt><trkpt lon="34.84826" lat="31.37892"><ele>479</ele><time>2017-11-10T08:14:02.000Z</time></trkpt><trkpt lon="34.84826" lat="31.37892"><ele>479</ele><time>2017-11-10T08:14:03.000Z</time></trkpt><trkpt lon="34.84826" lat="31.37892"><ele>479</ele><time>2017-11-10T08:14:04.000Z</time></trkpt><trkpt lon="34.84826" lat="31.37892"><ele>479</ele><time>2017-11-10T08:14:05.000Z</time></trkpt><trkpt lon="34.84826" lat="31.37892"><ele>479</ele><time>2017-11-10T08:14:06.000Z</time></trkpt><trkpt lon="34.84826" lat="31.37892"><ele>479</ele><time>2017-11-10T08:14:07.000Z</time></trkpt><trkpt lon="34.84826" lat="31.37892"><ele>479</ele><time>2017-11-10T08:14:08.000Z</time></trkpt><trkpt lon="34.84826" lat="31.37892"><ele>479</ele><time>2017-11-10T08:14:09.000Z</time></trkpt><trkpt lon="34.84826" lat="31.37892"><ele>479</ele><time>2017-11-10T08:14:10.000Z</time></trkpt><trkpt lon="34.84826" lat="31.37892"><ele>479</ele><time>2017-11-10T08:14:11.000Z</time></trkpt><trkpt lon="34.84826" lat="31.37892"><ele>479</ele><time>2017-11-10T08:14:12.000Z</time></trkpt><trkpt lon="34.84826" lat="31.37892"><ele>479</ele><time>2017-11-10T08:14:13.000Z</time></trkpt><trkpt lon="34.84826" lat="31.37892"><ele>479</ele><time>2017-11-10T08:14:14.000Z</time></trkpt><trkpt lon="34.84826" lat="31.37892"><ele>479</ele><time>2017-11-10T08:14:15.000Z</time></trkpt><trkpt lon="34.84826" lat="31.37892"><ele>479</ele><time>2017-11-10T08:14:16.000Z</time></trkpt><trkpt lon="34.84826" lat="31.37892"><ele>479</ele><time>2017-11-10T08:14:17.000Z</time></trkpt><trkpt lon="34.84826" lat="31.37892"><ele>479</ele><time>2017-11-10T08:14:18.000Z</time></trkpt><trkpt lon="34.84826" lat="31.37892"><ele>479</ele><time>2017-11-10T08:14:19.000Z</time></trkpt><trkpt lon="34.84826" lat="31.37892"><ele>479</ele><time>2017-11-10T08:14:20.000Z</time></trkpt><trkpt lon="34.84826" lat="31.37892"><ele>479</ele><time>2017-11-10T08:14:21.000Z</time></trkpt><trkpt lon="34.84826" lat="31.37892"><ele>479</ele><time>2017-11-10T08:14:22.000Z</time></trkpt><trkpt lon="34.84826" lat="31.37892"><ele>479</ele><time>2017-11-10T08:14:23.000Z</time></trkpt><trkpt lon="34.84826" lat="31.37892"><ele>479</ele><time>2017-11-10T08:14:24.000Z</time></trkpt><trkpt lon="34.84826" lat="31.37892"><ele>479</ele><time>2017-11-10T08:14:25.000Z</time></trkpt><trkpt lon="34.84826" lat="31.37892"><ele>479</ele><time>2017-11-10T08:14:26.000Z</time></trkpt><trkpt lon="34.84826" lat="31.37892"><ele>479</ele><time>2017-11-10T08:14:27.000Z</time></trkpt><trkpt lon="34.84826" lat="31.37892"><ele>479</ele><time>2017-11-10T08:14:28.000Z</time></trkpt><trkpt lon="34.84826" lat="31.37892"><ele>479</ele><time>2017-11-10T08:14:29.000Z</time></trkpt><trkpt lon="34.84826" lat="31.37892"><ele>479</ele><time>2017-11-10T08:14:30.000Z</time></trkpt><trkpt lon="34.84826" lat="31.37892"><ele>479</ele><time>2017-11-10T08:14:31.000Z</time></trkpt><trkpt lon="34.84826" lat="31.37892"><ele>479</ele><time>2017-11-10T08:14:32.000Z</time></trkpt><trkpt lon="34.84826" lat="31.37892"><ele>479</ele><time>2017-11-10T08:14:33.000Z</time></trkpt><trkpt lon="34.84826" lat="31.37892"><ele>479</ele><time>2017-11-10T08:14:34.000Z</time></trkpt><trkpt lon="34.84826" lat="31.37892"><ele>479</ele><time>2017-11-10T08:14:35.000Z</time></trkpt><trkpt lon="34.84826" lat="31.37892"><ele>479</ele><time>2017-11-10T08:14:36.000Z</time></trkpt><trkpt lon="34.84826" lat="31.37892"><ele>479</ele><time>2017-11-10T08:14:37.000Z</time></trkpt><trkpt lon="34.84826" lat="31.37892"><ele>479</ele><time>2017-11-10T08:14:38.000Z</time></trkpt><trkpt lon="34.84826" lat="31.37892"><ele>479</ele><time>2017-11-10T08:14:39.000Z</time></trkpt><trkpt lon="34.84826" lat="31.37892"><ele>479</ele><time>2017-11-10T08:14:40.000Z</time></trkpt><trkpt lon="34.84826" lat="31.37892"><ele>479</ele><time>2017-11-10T08:14:41.000Z</time></trkpt><trkpt lon="34.84826" lat="31.37892"><ele>479</ele><time>2017-11-10T08:14:42.000Z</time></trkpt><trkpt lon="34.84826" lat="31.37892"><ele>479</ele><time>2017-11-10T08:14:43.000Z</time></trkpt><trkpt lon="34.84826" lat="31.37892"><ele>479</ele><time>2017-11-10T08:14:44.000Z</time></trkpt><trkpt lon="34.84826" lat="31.37892"><ele>479</ele><time>2017-11-10T08:14:45.000Z</time></trkpt><trkpt lon="34.84826" lat="31.37892"><ele>479</ele><time>2017-11-10T08:14:46.000Z</time></trkpt><trkpt lon="34.84826" lat="31.37892"><ele>479</ele><time>2017-11-10T08:14:47.000Z</time></trkpt><trkpt lon="34.84826" lat="31.37892"><ele>479</ele><time>2017-11-10T08:14:48.000Z</time></trkpt><trkpt lon="34.84826" lat="31.37892"><ele>479</ele><time>2017-11-10T08:14:49.000Z</time></trkpt><trkpt lon="34.84826" lat="31.37892"><ele>479</ele><time>2017-11-10T08:14:50.000Z</time></trkpt><trkpt lon="34.84826" lat="31.37892"><ele>479</ele><time>2017-11-10T08:14:51.000Z</time></trkpt><trkpt lon="34.84826" lat="31.37892"><ele>480</ele><time>2017-11-10T08:14:52.000Z</time></trkpt><trkpt lon="34.84826" lat="31.37892"><ele>480</ele><time>2017-11-10T08:14:53.000Z</time></trkpt><trkpt lon="34.84826" lat="31.37892"><ele>480</ele><time>2017-11-10T08:14:54.000Z</time></trkpt><trkpt lon="34.84826" lat="31.37892"><ele>480</ele><time>2017-11-10T08:14:55.000Z</time></trkpt><trkpt lon="34.84826" lat="31.37892"><ele>480</ele><time>2017-11-10T08:14:56.000Z</time></trkpt><trkpt lon="34.84826" lat="31.37892"><ele>480</ele><time>2017-11-10T08:14:57.000Z</time></trkpt><trkpt lon="34.84826" lat="31.37892"><ele>480</ele><time>2017-11-10T08:14:58.000Z</time></trkpt><trkpt lon="34.84826" lat="31.37892"><ele>480</ele><time>2017-11-10T08:14:59.000Z</time></trkpt><trkpt lon="34.84826" lat="31.37892"><ele>480</ele><time>2017-11-10T08:15:00.000Z</time></trkpt><trkpt lon="34.84826" lat="31.37892"><ele>480</ele><time>2017-11-10T08:15:01.000Z</time></trkpt><trkpt lon="34.84826" lat="31.37892"><ele>480</ele><time>2017-11-10T08:15:02.000Z</time></trkpt><trkpt lon="34.84826" lat="31.37892"><ele>479</ele><time>2017-11-10T08:15:03.000Z</time></trkpt><trkpt lon="34.84826" lat="31.37892"><ele>479</ele><time>2017-11-10T08:15:04.000Z</time></trkpt><trkpt lon="34.84826" lat="31.37892"><ele>479</ele><time>2017-11-10T08:15:05.000Z</time></trkpt><trkpt lon="34.84826" lat="31.37892"><ele>479</ele><time>2017-11-10T08:15:06.000Z</time></trkpt><trkpt lon="34.84826" lat="31.37892"><ele>479</ele><time>2017-11-10T08:15:07.000Z</time></trkpt><trkpt lon="34.84826" lat="31.37892"><ele>479</ele><time>2017-11-10T08:15:08.000Z</time></trkpt><trkpt lon="34.84826" lat="31.37892"><ele>479</ele><time>2017-11-10T08:15:09.000Z</time></trkpt><trkpt lon="34.84826" lat="31.37892"><ele>479</ele><time>2017-11-10T08:15:10.000Z</time></trkpt><trkpt lon="34.84826" lat="31.37892"><ele>479</ele><time>2017-11-10T08:15:11.000Z</time></trkpt><trkpt lon="34.84826" lat="31.37892"><ele>479</ele><time>2017-11-10T08:15:12.000Z</time></trkpt><trkpt lon="34.84826" lat="31.37892"><ele>479</ele><time>2017-11-10T08:15:13.000Z</time></trkpt><trkpt lon="34.84826" lat="31.37892"><ele>479</ele><time>2017-11-10T08:15:14.000Z</time></trkpt><trkpt lon="34.84826" lat="31.37892"><ele>479</ele><time>2017-11-10T08:15:15.000Z</time></trkpt><trkpt lon="34.84826" lat="31.37892"><ele>479</ele><time>2017-11-10T08:15:16.000Z</time></trkpt><trkpt lon="34.84826" lat="31.37892"><ele>479</ele><time>2017-11-10T08:15:17.000Z</time></trkpt><trkpt lon="34.84826" lat="31.37892"><ele>479</ele><time>2017-11-10T08:15:18.000Z</time></trkpt><trkpt lon="34.84826" lat="31.37892"><ele>479</ele><time>2017-11-10T08:15:19.000Z</time></trkpt><trkpt lon="34.84826" lat="31.37892"><ele>479</ele><time>2017-11-10T08:15:20.000Z</time></trkpt><trkpt lon="34.84826" lat="31.37892"><ele>479</ele><time>2017-11-10T08:15:21.000Z</time></trkpt><trkpt lon="34.84826" lat="31.37892"><ele>479</ele><time>2017-11-10T08:15:22.000Z</time></trkpt><trkpt lon="34.84826" lat="31.37892"><ele>479</ele><time>2017-11-10T08:15:23.000Z</time></trkpt><trkpt lon="34.84826" lat="31.37892"><ele>479</ele><time>2017-11-10T08:15:24.000Z</time></trkpt><trkpt lon="34.84826" lat="31.37892"><ele>479</ele><time>2017-11-10T08:15:25.000Z</time></trkpt><trkpt lon="34.84826" lat="31.37892"><ele>479</ele><time>2017-11-10T08:15:26.000Z</time></trkpt><trkpt lon="34.84826" lat="31.37892"><ele>479</ele><time>2017-11-10T08:15:27.000Z</time></trkpt><trkpt lon="34.84826" lat="31.37892"><ele>479</ele><time>2017-11-10T08:15:28.000Z</time></trkpt><trkpt lon="34.84826" lat="31.37892"><ele>479</ele><time>2017-11-10T08:15:29.000Z</time></trkpt><trkpt lon="34.84826" lat="31.37892"><ele>479</ele><time>2017-11-10T08:15:30.000Z</time></trkpt><trkpt lon="34.84826" lat="31.37892"><ele>479</ele><time>2017-11-10T08:15:31.000Z</time></trkpt><trkpt lon="34.84826" lat="31.37892"><ele>479</ele><time>2017-11-10T08:15:32.000Z</time></trkpt><trkpt lon="34.84826" lat="31.37892"><ele>479</ele><time>2017-11-10T08:15:33.000Z</time></trkpt><trkpt lon="34.84826" lat="31.37892"><ele>479</ele><time>2017-11-10T08:15:34.000Z</time></trkpt><trkpt lon="34.84826" lat="31.37892"><ele>479</ele><time>2017-11-10T08:15:35.000Z</time></trkpt><trkpt lon="34.84826" lat="31.37892"><ele>479</ele><time>2017-11-10T08:15:36.000Z</time></trkpt><trkpt lon="34.84826" lat="31.37892"><ele>479</ele><time>2017-11-10T08:15:37.000Z</time></trkpt><trkpt lon="34.84826" lat="31.37892"><ele>479</ele><time>2017-11-10T08:15:38.000Z</time></trkpt><trkpt lon="34.84826" lat="31.37892"><ele>479</ele><time>2017-11-10T08:15:39.000Z</time></trkpt><trkpt lon="34.84826" lat="31.37892"><ele>479</ele><time>2017-11-10T08:15:40.000Z</time></trkpt><trkpt lon="34.84826" lat="31.37892"><ele>479</ele><time>2017-11-10T08:15:41.000Z</time></trkpt><trkpt lon="34.84826" lat="31.37892"><ele>479</ele><time>2017-11-10T08:15:42.000Z</time></trkpt><trkpt lon="34.84826" lat="31.37892"><ele>479</ele><time>2017-11-10T08:15:43.000Z</time></trkpt><trkpt lon="34.84826" lat="31.37892"><ele>479</ele><time>2017-11-10T08:15:44.000Z</time></trkpt><trkpt lon="34.84826" lat="31.37892"><ele>479</ele><time>2017-11-10T08:15:45.000Z</time></trkpt><trkpt lon="34.84826" lat="31.37892"><ele>480</ele><time>2017-11-10T08:15:46.000Z</time></trkpt><trkpt lon="34.84826" lat="31.37892"><ele>480</ele><time>2017-11-10T08:15:47.000Z</time></trkpt><trkpt lon="34.84826" lat="31.37892"><ele>480</ele><time>2017-11-10T08:15:48.000Z</time></trkpt><trkpt lon="34.84826" lat="31.37892"><ele>480</ele><time>2017-11-10T08:15:49.000Z</time></trkpt><trkpt lon="34.84826" lat="31.37892"><ele>480</ele><time>2017-11-10T08:15:50.000Z</time></trkpt><trkpt lon="34.84826" lat="31.37892"><ele>480</ele><time>2017-11-10T08:15:51.000Z</time></trkpt><trkpt lon="34.84826" lat="31.37892"><ele>480</ele><time>2017-11-10T08:15:52.000Z</time></trkpt><trkpt lon="34.84826" lat="31.37892"><ele>480</ele><time>2017-11-10T08:15:53.000Z</time></trkpt><trkpt lon="34.84826" lat="31.37892"><ele>480</ele><time>2017-11-10T08:15:54.000Z</time></trkpt><trkpt lon="34.84826" lat="31.37892"><ele>480</ele><time>2017-11-10T08:15:55.000Z</time></trkpt><trkpt lon="34.84826" lat="31.37892"><ele>480</ele><time>2017-11-10T08:15:56.000Z</time></trkpt><trkpt lon="34.84826" lat="31.37892"><ele>480</ele><time>2017-11-10T08:15:57.000Z</time></trkpt><trkpt lon="34.84826" lat="31.37892"><ele>480</ele><time>2017-11-10T08:15:58.000Z</time></trkpt><trkpt lon="34.84826" lat="31.37892"><ele>480</ele><time>2017-11-10T08:15:59.000Z</time></trkpt><trkpt lon="34.84826" lat="31.37892"><ele>480</ele><time>2017-11-10T08:16:00.000Z</time></trkpt><trkpt lon="34.84826" lat="31.37892"><ele>480</ele><time>2017-11-10T08:16:01.000Z</time></trkpt><trkpt lon="34.84826" lat="31.37892"><ele>480</ele><time>2017-11-10T08:16:02.000Z</time></trkpt><trkpt lon="34.84826" lat="31.37892"><ele>479</ele><time>2017-11-10T08:16:03.000Z</time></trkpt><trkpt lon="34.84826" lat="31.37892"><ele>479</ele><time>2017-11-10T08:16:04.000Z</time></trkpt><trkpt lon="34.84826" lat="31.37892"><ele>479</ele><time>2017-11-10T08:16:05.000Z</time></trkpt><trkpt lon="34.84826" lat="31.37892"><ele>479</ele><time>2017-11-10T08:16:06.000Z</time></trkpt><trkpt lon="34.84826" lat="31.37892"><ele>479</ele><time>2017-11-10T08:16:07.000Z</time></trkpt><trkpt lon="34.84826" lat="31.37892"><ele>479</ele><time>2017-11-10T08:16:08.000Z</time></trkpt><trkpt lon="34.84826" lat="31.37892"><ele>479</ele><time>2017-11-10T08:16:09.000Z</time></trkpt><trkpt lon="34.84826" lat="31.37892"><ele>479</ele><time>2017-11-10T08:16:10.000Z</time></trkpt><trkpt lon="34.84826" lat="31.37892"><ele>479</ele><time>2017-11-10T08:16:11.000Z</time></trkpt><trkpt lon="34.84826" lat="31.37892"><ele>479</ele><time>2017-11-10T08:16:12.000Z</time></trkpt><trkpt lon="34.84826" lat="31.37892"><ele>479</ele><time>2017-11-10T08:16:13.000Z</time></trkpt><trkpt lon="34.84826" lat="31.37892"><ele>479</ele><time>2017-11-10T08:16:14.000Z</time></trkpt><trkpt lon="34.84826" lat="31.37892"><ele>479</ele><time>2017-11-10T08:16:15.000Z</time></trkpt><trkpt lon="34.84826" lat="31.37892"><ele>480</ele><time>2017-11-10T08:16:16.000Z</time></trkpt><trkpt lon="34.84826" lat="31.37892"><ele>480</ele><time>2017-11-10T08:16:17.000Z</time></trkpt><trkpt lon="34.84826" lat="31.37892"><ele>480</ele><time>2017-11-10T08:16:18.000Z</time></trkpt><trkpt lon="34.84826" lat="31.37892"><ele>480</ele><time>2017-11-10T08:16:19.000Z</time></trkpt><trkpt lon="34.84826" lat="31.37892"><ele>480</ele><time>2017-11-10T08:16:20.000Z</time></trkpt><trkpt lon="34.84826" lat="31.37892"><ele>480</ele><time>2017-11-10T08:16:21.000Z</time></trkpt><trkpt lon="34.84826" lat="31.37892"><ele>480</ele><time>2017-11-10T08:16:22.000Z</time></trkpt><trkpt lon="34.84826" lat="31.37892"><ele>480</ele><time>2017-11-10T08:16:23.000Z</time></trkpt><trkpt lon="34.84826" lat="31.37892"><ele>480</ele><time>2017-11-10T08:16:24.000Z</time></trkpt><trkpt lon="34.84826" lat="31.37892"><ele>480</ele><time>2017-11-10T08:16:25.000Z</time></trkpt><trkpt lon="34.84826" lat="31.37892"><ele>480</ele><time>2017-11-10T08:16:26.000Z</time></trkpt><trkpt lon="34.84826" lat="31.37892"><ele>480</ele><time>2017-11-10T08:16:27.000Z</time></trkpt><trkpt lon="34.84826" lat="31.37892"><ele>480</ele><time>2017-11-10T08:16:28.000Z</time></trkpt><trkpt lon="34.84826" lat="31.37892"><ele>480</ele><time>2017-11-10T08:16:29.000Z</time></trkpt><trkpt lon="34.84826" lat="31.37892"><ele>480</ele><time>2017-11-10T08:16:30.000Z</time></trkpt><trkpt lon="34.84826" lat="31.37892"><ele>480</ele><time>2017-11-10T08:16:31.000Z</time></trkpt><trkpt lon="34.84826" lat="31.37892"><ele>480</ele><time>2017-11-10T08:16:32.000Z</time></trkpt><trkpt lon="34.84826" lat="31.37892"><ele>480</ele><time>2017-11-10T08:16:33.000Z</time></trkpt><trkpt lon="34.84826" lat="31.37892"><ele>480</ele><time>2017-11-10T08:16:34.000Z</time></trkpt><trkpt lon="34.84826" lat="31.37892"><ele>480</ele><time>2017-11-10T08:16:35.000Z</time></trkpt><trkpt lon="34.84826" lat="31.37892"><ele>480</ele><time>2017-11-10T08:16:36.000Z</time></trkpt><trkpt lon="34.84826" lat="31.37892"><ele>480</ele><time>2017-11-10T08:16:37.000Z</time></trkpt><trkpt lon="34.84826" lat="31.37892"><ele>480</ele><time>2017-11-10T08:16:38.000Z</time></trkpt><trkpt lon="34.84826" lat="31.37892"><ele>480</ele><time>2017-11-10T08:16:39.000Z</time></trkpt><trkpt lon="34.84826" lat="31.37892"><ele>480</ele><time>2017-11-10T08:16:40.000Z</time></trkpt><trkpt lon="34.84826" lat="31.37892"><ele>480</ele><time>2017-11-10T08:16:41.000Z</time></trkpt><trkpt lon="34.84826" lat="31.37892"><ele>480</ele><time>2017-11-10T08:16:42.000Z</time></trkpt><trkpt lon="34.84826" lat="31.37892"><ele>480</ele><time>2017-11-10T08:16:43.000Z</time></trkpt><trkpt lon="34.84826" lat="31.37892"><ele>480</ele><time>2017-11-10T08:16:44.000Z</time></trkpt><trkpt lon="34.84826" lat="31.37892"><ele>480</ele><time>2017-11-10T08:16:45.000Z</time></trkpt><trkpt lon="34.84826" lat="31.37892"><ele>480</ele><time>2017-11-10T08:16:46.000Z</time></trkpt><trkpt lon="34.84826" lat="31.37892"><ele>480</ele><time>2017-11-10T08:16:47.000Z</time></trkpt><trkpt lon="34.84826" lat="31.37892"><ele>480</ele><time>2017-11-10T08:16:48.000Z</time></trkpt><trkpt lon="34.84826" lat="31.37892"><ele>480</ele><time>2017-11-10T08:16:49.000Z</time></trkpt><trkpt lon="34.84826" lat="31.37892"><ele>480</ele><time>2017-11-10T08:16:50.000Z</time></trkpt><trkpt lon="34.84826" lat="31.37892"><ele>480</ele><time>2017-11-10T08:16:51.000Z</time></trkpt><trkpt lon="34.84826" lat="31.37892"><ele>480</ele><time>2017-11-10T08:16:52.000Z</time></trkpt><trkpt lon="34.84826" lat="31.37892"><ele>480</ele><time>2017-11-10T08:16:53.000Z</time></trkpt><trkpt lon="34.84826" lat="31.37892"><ele>480</ele><time>2017-11-10T08:16:54.000Z</time></trkpt><trkpt lon="34.84826" lat="31.37892"><ele>480</ele><time>2017-11-10T08:16:55.000Z</time></trkpt><trkpt lon="34.84826" lat="31.37892"><ele>480</ele><time>2017-11-10T08:16:56.000Z</time></trkpt><trkpt lon="34.84826" lat="31.37892"><ele>480</ele><time>2017-11-10T08:16:57.000Z</time></trkpt><trkpt lon="34.84826" lat="31.37892"><ele>480</ele><time>2017-11-10T08:16:58.000Z</time></trkpt><trkpt lon="34.84826" lat="31.37892"><ele>479</ele><time>2017-11-10T08:16:59.000Z</time></trkpt><trkpt lon="34.84826" lat="31.37892"><ele>480</ele><time>2017-11-10T08:17:00.000Z</time></trkpt><trkpt lon="34.84826" lat="31.37892"><ele>480</ele><time>2017-11-10T08:17:01.000Z</time></trkpt><trkpt lon="34.84826" lat="31.37892"><ele>480</ele><time>2017-11-10T08:17:02.000Z</time></trkpt><trkpt lon="34.84826" lat="31.37892"><ele>480</ele><time>2017-11-10T08:17:03.000Z</time></trkpt><trkpt lon="34.84826" lat="31.37892"><ele>480</ele><time>2017-11-10T08:17:04.000Z</time></trkpt><trkpt lon="34.84826" lat="31.37892"><ele>480</ele><time>2017-11-10T08:17:05.000Z</time></trkpt><trkpt lon="34.84826" lat="31.37892"><ele>480</ele><time>2017-11-10T08:17:06.000Z</time></trkpt><trkpt lon="34.84826" lat="31.37892"><ele>480</ele><time>2017-11-10T08:17:07.000Z</time></trkpt><trkpt lon="34.84826" lat="31.37892"><ele>480</ele><time>2017-11-10T08:17:08.000Z</time></trkpt><trkpt lon="34.84826" lat="31.37892"><ele>480</ele><time>2017-11-10T08:17:09.000Z</time></trkpt><trkpt lon="34.84826" lat="31.37892"><ele>480</ele><time>2017-11-10T08:17:10.000Z</time></trkpt><trkpt lon="34.84826" lat="31.37892"><ele>480</ele><time>2017-11-10T08:17:11.000Z</time></trkpt><trkpt lon="34.84826" lat="31.37892"><ele>480</ele><time>2017-11-10T08:17:12.000Z</time></trkpt><trkpt lon="34.84826" lat="31.37892"><ele>480</ele><time>2017-11-10T08:17:13.000Z</time></trkpt><trkpt lon="34.84826" lat="31.37892"><ele>480</ele><time>2017-11-10T08:17:14.000Z</time></trkpt><trkpt lon="34.84826" lat="31.37892"><ele>480</ele><time>2017-11-10T08:17:15.000Z</time></trkpt><trkpt lon="34.84826" lat="31.37892"><ele>480</ele><time>2017-11-10T08:17:16.000Z</time></trkpt><trkpt lon="34.84826" lat="31.37892"><ele>480</ele><time>2017-11-10T08:17:17.000Z</time></trkpt><trkpt lon="34.84826" lat="31.37892"><ele>480</ele><time>2017-11-10T08:17:18.000Z</time></trkpt><trkpt lon="34.84826" lat="31.37892"><ele>479</ele><time>2017-11-10T08:17:19.000Z</time></trkpt><trkpt lon="34.84826" lat="31.37892"><ele>479</ele><time>2017-11-10T08:17:20.000Z</time></trkpt><trkpt lon="34.84826" lat="31.37892"><ele>479</ele><time>2017-11-10T08:17:21.000Z</time></trkpt><trkpt lon="34.84826" lat="31.37892"><ele>479</ele><time>2017-11-10T08:17:22.000Z</time></trkpt><trkpt lon="34.84826" lat="31.37892"><ele>480</ele><time>2017-11-10T08:17:23.000Z</time></trkpt><trkpt lon="34.84826" lat="31.37892"><ele>480</ele><time>2017-11-10T08:17:24.000Z</time></trkpt><trkpt lon="34.84826" lat="31.37892"><ele>480</ele><time>2017-11-10T08:17:25.000Z</time></trkpt><trkpt lon="34.84826" lat="31.37892"><ele>480</ele><time>2017-11-10T08:17:26.000Z</time></trkpt><trkpt lon="34.84826" lat="31.37892"><ele>480</ele><time>2017-11-10T08:17:27.000Z</time></trkpt><trkpt lon="34.84826" lat="31.37892"><ele>480</ele><time>2017-11-10T08:17:28.000Z</time></trkpt><trkpt lon="34.84826" lat="31.37892"><ele>480</ele><time>2017-11-10T08:17:29.000Z</time></trkpt><trkpt lon="34.84826" lat="31.37892"><ele>480</ele><time>2017-11-10T08:17:30.000Z</time></trkpt><trkpt lon="34.84826" lat="31.37892"><ele>480</ele><time>2017-11-10T08:17:31.000Z</time></trkpt><trkpt lon="34.84826" lat="31.37892"><ele>480</ele><time>2017-11-10T08:17:32.000Z</time></trkpt><trkpt lon="34.84826" lat="31.37892"><ele>480</ele><time>2017-11-10T08:17:33.000Z</time></trkpt><trkpt lon="34.84826" lat="31.37892"><ele>480</ele><time>2017-11-10T08:17:34.000Z</time></trkpt><trkpt lon="34.84826" lat="31.37892"><ele>480</ele><time>2017-11-10T08:17:35.000Z</time></trkpt><trkpt lon="34.84826" lat="31.37892"><ele>480</ele><time>2017-11-10T08:17:36.000Z</time></trkpt><trkpt lon="34.84826" lat="31.37892"><ele>480</ele><time>2017-11-10T08:17:37.000Z</time></trkpt><trkpt lon="34.84826" lat="31.37892"><ele>480</ele><time>2017-11-10T08:17:38.000Z</time></trkpt><trkpt lon="34.84826" lat="31.37892"><ele>480</ele><time>2017-11-10T08:17:39.000Z</time></trkpt><trkpt lon="34.84826" lat="31.37892"><ele>480</ele><time>2017-11-10T08:17:40.000Z</time></trkpt><trkpt lon="34.84826" lat="31.37892"><ele>480</ele><time>2017-11-10T08:17:41.000Z</time></trkpt><trkpt lon="34.84826" lat="31.37892"><ele>480</ele><time>2017-11-10T08:17:42.000Z</time></trkpt><trkpt lon="34.84826" lat="31.37892"><ele>480</ele><time>2017-11-10T08:17:43.000Z</time></trkpt><trkpt lon="34.84826" lat="31.37892"><ele>480</ele><time>2017-11-10T08:17:44.000Z</time></trkpt><trkpt lon="34.84826" lat="31.37892"><ele>480</ele><time>2017-11-10T08:17:45.000Z</time></trkpt><trkpt lon="34.84826" lat="31.37892"><ele>480</ele><time>2017-11-10T08:17:46.000Z</time></trkpt><trkpt lon="34.84826" lat="31.37892"><ele>480</ele><time>2017-11-10T08:17:47.000Z</time></trkpt><trkpt lon="34.84826" lat="31.37892"><ele>480</ele><time>2017-11-10T08:17:48.000Z</time></trkpt><trkpt lon="34.84826" lat="31.37892"><ele>480</ele><time>2017-11-10T08:17:49.000Z</time></trkpt><trkpt lon="34.84826" lat="31.37892"><ele>480</ele><time>2017-11-10T08:17:50.000Z</time></trkpt><trkpt lon="34.84826" lat="31.37892"><ele>480</ele><time>2017-11-10T08:17:51.000Z</time></trkpt><trkpt lon="34.84826" lat="31.37892"><ele>480</ele><time>2017-11-10T08:17:52.000Z</time></trkpt><trkpt lon="34.84826" lat="31.37892"><ele>480</ele><time>2017-11-10T08:17:53.000Z</time></trkpt><trkpt lon="34.84826" lat="31.37892"><ele>480</ele><time>2017-11-10T08:17:54.000Z</time></trkpt><trkpt lon="34.84826" lat="31.37892"><ele>480</ele><time>2017-11-10T08:17:55.000Z</time></trkpt><trkpt lon="34.84826" lat="31.37892"><ele>480</ele><time>2017-11-10T08:17:56.000Z</time></trkpt><trkpt lon="34.84826" lat="31.37892"><ele>480</ele><time>2017-11-10T08:17:57.000Z</time></trkpt><trkpt lon="34.84826" lat="31.37892"><ele>480</ele><time>2017-11-10T08:17:58.000Z</time></trkpt><trkpt lon="34.84826" lat="31.37892"><ele>480</ele><time>2017-11-10T08:17:59.000Z</time></trkpt><trkpt lon="34.84826" lat="31.37892"><ele>480</ele><time>2017-11-10T08:18:00.000Z</time></trkpt><trkpt lon="34.84826" lat="31.37892"><ele>480</ele><time>2017-11-10T08:18:01.000Z</time></trkpt><trkpt lon="34.84826" lat="31.37892"><ele>480</ele><time>2017-11-10T08:18:02.000Z</time></trkpt><trkpt lon="34.84826" lat="31.37892"><ele>480</ele><time>2017-11-10T08:18:03.000Z</time></trkpt><trkpt lon="34.84826" lat="31.37892"><ele>480</ele><time>2017-11-10T08:18:04.000Z</time></trkpt><trkpt lon="34.84826" lat="31.37892"><ele>480</ele><time>2017-11-10T08:18:05.000Z</time></trkpt><trkpt lon="34.84826" lat="31.37892"><ele>480</ele><time>2017-11-10T08:18:06.000Z</time></trkpt><trkpt lon="34.84826" lat="31.37892"><ele>480</ele><time>2017-11-10T08:18:07.000Z</time></trkpt><trkpt lon="34.84826" lat="31.37892"><ele>480</ele><time>2017-11-10T08:18:08.000Z</time></trkpt><trkpt lon="34.84826" lat="31.37892"><ele>480</ele><time>2017-11-10T08:18:09.000Z</time></trkpt><trkpt lon="34.84826" lat="31.37892"><ele>480</ele><time>2017-11-10T08:18:10.000Z</time></trkpt><trkpt lon="34.84826" lat="31.37892"><ele>480</ele><time>2017-11-10T08:18:11.000Z</time></trkpt><trkpt lon="34.84826" lat="31.37892"><ele>480</ele><time>2017-11-10T08:18:12.000Z</time></trkpt><trkpt lon="34.84826" lat="31.37892"><ele>480</ele><time>2017-11-10T08:18:13.000Z</time></trkpt><trkpt lon="34.84826" lat="31.37892"><ele>480</ele><time>2017-11-10T08:18:14.000Z</time></trkpt><trkpt lon="34.84826" lat="31.37892"><ele>480</ele><time>2017-11-10T08:18:15.000Z</time></trkpt><trkpt lon="34.84826" lat="31.37892"><ele>480</ele><time>2017-11-10T08:18:16.000Z</time></trkpt><trkpt lon="34.84826" lat="31.37892"><ele>480</ele><time>2017-11-10T08:18:17.000Z</time></trkpt><trkpt lon="34.84826" lat="31.37892"><ele>480</ele><time>2017-11-10T08:18:18.000Z</time></trkpt><trkpt lon="34.84826" lat="31.37892"><ele>480</ele><time>2017-11-10T08:18:19.000Z</time></trkpt><trkpt lon="34.84826" lat="31.37892"><ele>480</ele><time>2017-11-10T08:18:20.000Z</time></trkpt><trkpt lon="34.84826" lat="31.37892"><ele>480</ele><time>2017-11-10T08:18:21.000Z</time></trkpt><trkpt lon="34.84826" lat="31.37892"><ele>480</ele><time>2017-11-10T08:18:22.000Z</time></trkpt><trkpt lon="34.84826" lat="31.37892"><ele>480</ele><time>2017-11-10T08:18:23.000Z</time></trkpt><trkpt lon="34.84826" lat="31.37892"><ele>480</ele><time>2017-11-10T08:18:24.000Z</time></trkpt><trkpt lon="34.84826" lat="31.37892"><ele>480</ele><time>2017-11-10T08:18:25.000Z</time></trkpt><trkpt lon="34.84826" lat="31.37892"><ele>480</ele><time>2017-11-10T08:18:26.000Z</time></trkpt><trkpt lon="34.84826" lat="31.37892"><ele>480</ele><time>2017-11-10T08:18:27.000Z</time></trkpt><trkpt lon="34.84826" lat="31.37892"><ele>480</ele><time>2017-11-10T08:18:28.000Z</time></trkpt><trkpt lon="34.84826" lat="31.37892"><ele>480</ele><time>2017-11-10T08:18:29.000Z</time></trkpt><trkpt lon="34.84826" lat="31.37892"><ele>480</ele><time>2017-11-10T08:18:30.000Z</time></trkpt><trkpt lon="34.84826" lat="31.37892"><ele>480</ele><time>2017-11-10T08:18:31.000Z</time></trkpt><trkpt lon="34.84826" lat="31.37892"><ele>480</ele><time>2017-11-10T08:18:32.000Z</time></trkpt><trkpt lon="34.84826" lat="31.37892"><ele>480</ele><time>2017-11-10T08:18:33.000Z</time></trkpt><trkpt lon="34.84826" lat="31.37892"><ele>480</ele><time>2017-11-10T08:18:34.000Z</time></trkpt><trkpt lon="34.84826" lat="31.37892"><ele>480</ele><time>2017-11-10T08:18:35.000Z</time></trkpt><trkpt lon="34.84826" lat="31.37892"><ele>480</ele><time>2017-11-10T08:18:36.000Z</time></trkpt><trkpt lon="34.84826" lat="31.37892"><ele>480</ele><time>2017-11-10T08:18:37.000Z</time></trkpt><trkpt lon="34.84826" lat="31.37892"><ele>480</ele><time>2017-11-10T08:18:38.000Z</time></trkpt><trkpt lon="34.84826" lat="31.37892"><ele>480</ele><time>2017-11-10T08:18:39.000Z</time></trkpt><trkpt lon="34.84826" lat="31.37892"><ele>480</ele><time>2017-11-10T08:18:40.000Z</time></trkpt><trkpt lon="34.84826" lat="31.37892"><ele>480</ele><time>2017-11-10T08:18:41.000Z</time></trkpt><trkpt lon="34.84826" lat="31.37892"><ele>480</ele><time>2017-11-10T08:18:42.000Z</time></trkpt><trkpt lon="34.84826" lat="31.37892"><ele>480</ele><time>2017-11-10T08:18:43.000Z</time></trkpt><trkpt lon="34.84826" lat="31.37892"><ele>480</ele><time>2017-11-10T08:18:44.000Z</time></trkpt><trkpt lon="34.84826" lat="31.37892"><ele>480</ele><time>2017-11-10T08:18:45.000Z</time></trkpt><trkpt lon="34.84826" lat="31.37892"><ele>480</ele><time>2017-11-10T08:18:46.000Z</time></trkpt><trkpt lon="34.84826" lat="31.37892"><ele>480</ele><time>2017-11-10T08:18:47.000Z</time></trkpt><trkpt lon="34.84826" lat="31.37892"><ele>480</ele><time>2017-11-10T08:18:48.000Z</time></trkpt><trkpt lon="34.84826" lat="31.37892"><ele>480</ele><time>2017-11-10T08:18:50.000Z</time></trkpt><trkpt lon="34.84826" lat="31.37892"><ele>480</ele><time>2017-11-10T08:18:51.000Z</time></trkpt><trkpt lon="34.84826" lat="31.37892"><ele>480</ele><time>2017-11-10T08:18:52.000Z</time></trkpt><trkpt lon="34.84826" lat="31.37892"><ele>480</ele><time>2017-11-10T08:18:53.000Z</time></trkpt><trkpt lon="34.84826" lat="31.37892"><ele>480</ele><time>2017-11-10T08:18:54.000Z</time></trkpt><trkpt lon="34.84826" lat="31.37892"><ele>480</ele><time>2017-11-10T08:18:55.000Z</time></trkpt><trkpt lon="34.84826" lat="31.37892"><ele>480</ele><time>2017-11-10T08:18:56.000Z</time></trkpt><trkpt lon="34.84826" lat="31.37892"><ele>480</ele><time>2017-11-10T08:18:57.000Z</time></trkpt><trkpt lon="34.84826" lat="31.37892"><ele>480</ele><time>2017-11-10T08:18:58.000Z</time></trkpt><trkpt lon="34.84826" lat="31.37892"><ele>480</ele><time>2017-11-10T08:18:59.000Z</time></trkpt><trkpt lon="34.84826" lat="31.37892"><ele>480</ele><time>2017-11-10T08:19:00.000Z</time></trkpt><trkpt lon="34.84826" lat="31.37892"><ele>480</ele><time>2017-11-10T08:19:01.000Z</time></trkpt><trkpt lon="34.84826" lat="31.37892"><ele>480</ele><time>2017-11-10T08:19:02.000Z</time></trkpt><trkpt lon="34.84826" lat="31.37892"><ele>480</ele><time>2017-11-10T08:19:03.000Z</time></trkpt><trkpt lon="34.84826" lat="31.37892"><ele>480</ele><time>2017-11-10T08:19:04.000Z</time></trkpt><trkpt lon="34.84826" lat="31.37892"><ele>480</ele><time>2017-11-10T08:19:05.000Z</time></trkpt><trkpt lon="34.84826" lat="31.37892"><ele>480</ele><time>2017-11-10T08:19:06.000Z</time></trkpt><trkpt lon="34.84826" lat="31.37892"><ele>480</ele><time>2017-11-10T08:19:07.000Z</time></trkpt><trkpt lon="34.84826" lat="31.37892"><ele>480</ele><time>2017-11-10T08:19:08.000Z</time></trkpt><trkpt lon="34.84826" lat="31.37892"><ele>480</ele><time>2017-11-10T08:19:09.000Z</time></trkpt><trkpt lon="34.84826" lat="31.37892"><ele>480</ele><time>2017-11-10T08:19:10.000Z</time></trkpt><trkpt lon="34.84826" lat="31.37892"><ele>480</ele><time>2017-11-10T08:19:11.000Z</time></trkpt><trkpt lon="34.84826" lat="31.37892"><ele>480</ele><time>2017-11-10T08:19:12.000Z</time></trkpt><trkpt lon="34.84826" lat="31.37892"><ele>480</ele><time>2017-11-10T08:19:13.000Z</time></trkpt><trkpt lon="34.84826" lat="31.37892"><ele>480</ele><time>2017-11-10T08:19:14.000Z</time></trkpt><trkpt lon="34.84826" lat="31.37892"><ele>480</ele><time>2017-11-10T08:19:15.000Z</time></trkpt><trkpt lon="34.84826" lat="31.37892"><ele>480</ele><time>2017-11-10T08:19:16.000Z</time></trkpt><trkpt lon="34.84826" lat="31.37892"><ele>480</ele><time>2017-11-10T08:19:17.000Z</time></trkpt><trkpt lon="34.84826" lat="31.37892"><ele>480</ele><time>2017-11-10T08:19:18.000Z</time></trkpt><trkpt lon="34.84826" lat="31.37892"><ele>480</ele><time>2017-11-10T08:19:19.000Z</time></trkpt><trkpt lon="34.84826" lat="31.37892"><ele>480</ele><time>2017-11-10T08:19:20.000Z</time></trkpt><trkpt lon="34.84826" lat="31.37892"><ele>480</ele><time>2017-11-10T08:19:21.000Z</time></trkpt><trkpt lon="34.84826" lat="31.37892"><ele>480</ele><time>2017-11-10T08:19:22.000Z</time></trkpt><trkpt lon="34.84826" lat="31.37892"><ele>480</ele><time>2017-11-10T08:19:23.000Z</time></trkpt><trkpt lon="34.84826" lat="31.37892"><ele>480</ele><time>2017-11-10T08:19:24.000Z</time></trkpt><trkpt lon="34.84826" lat="31.37892"><ele>480</ele><time>2017-11-10T08:19:25.000Z</time></trkpt><trkpt lon="34.84826" lat="31.37892"><ele>480</ele><time>2017-11-10T08:19:26.000Z</time></trkpt><trkpt lon="34.84826" lat="31.37892"><ele>480</ele><time>2017-11-10T08:19:27.000Z</time></trkpt><trkpt lon="34.84826" lat="31.37892"><ele>480</ele><time>2017-11-10T08:19:28.000Z</time></trkpt><trkpt lon="34.84826" lat="31.37892"><ele>480</ele><time>2017-11-10T08:19:29.000Z</time></trkpt><trkpt lon="34.84826" lat="31.37892"><ele>480</ele><time>2017-11-10T08:19:30.000Z</time></trkpt><trkpt lon="34.84826" lat="31.37892"><ele>480</ele><time>2017-11-10T08:19:31.000Z</time></trkpt><trkpt lon="34.84826" lat="31.37892"><ele>480</ele><time>2017-11-10T08:19:32.000Z</time></trkpt><trkpt lon="34.84826" lat="31.37892"><ele>480</ele><time>2017-11-10T08:19:33.000Z</time></trkpt><trkpt lon="34.84826" lat="31.37892"><ele>480</ele><time>2017-11-10T08:19:34.000Z</time></trkpt><trkpt lon="34.84826" lat="31.37892"><ele>480</ele><time>2017-11-10T08:19:35.000Z</time></trkpt><trkpt lon="34.84826" lat="31.37892"><ele>480</ele><time>2017-11-10T08:19:36.000Z</time></trkpt><trkpt lon="34.84826" lat="31.37892"><ele>480</ele><time>2017-11-10T08:19:37.000Z</time></trkpt><trkpt lon="34.84826" lat="31.37892"><ele>480</ele><time>2017-11-10T08:19:38.000Z</time></trkpt><trkpt lon="34.84826" lat="31.37892"><ele>480</ele><time>2017-11-10T08:19:39.000Z</time></trkpt><trkpt lon="34.84826" lat="31.37892"><ele>480</ele><time>2017-11-10T08:19:40.000Z</time></trkpt><trkpt lon="34.84826" lat="31.37892"><ele>480</ele><time>2017-11-10T08:19:41.000Z</time></trkpt><trkpt lon="34.84826" lat="31.37892"><ele>480</ele><time>2017-11-10T08:19:42.000Z</time></trkpt><trkpt lon="34.84826" lat="31.37892"><ele>480</ele><time>2017-11-10T08:19:43.000Z</time></trkpt><trkpt lon="34.84826" lat="31.37892"><ele>480</ele><time>2017-11-10T08:19:44.000Z</time></trkpt><trkpt lon="34.84826" lat="31.37892"><ele>480</ele><time>2017-11-10T08:19:45.000Z</time></trkpt><trkpt lon="34.84826" lat="31.37892"><ele>480</ele><time>2017-11-10T08:19:46.000Z</time></trkpt><trkpt lon="34.84826" lat="31.37892"><ele>480</ele><time>2017-11-10T08:19:47.000Z</time></trkpt><trkpt lon="34.84826" lat="31.37892"><ele>480</ele><time>2017-11-10T08:19:48.000Z</time></trkpt><trkpt lon="34.84826" lat="31.37892"><ele>480</ele><time>2017-11-10T08:19:49.000Z</time></trkpt><trkpt lon="34.84826" lat="31.37892"><ele>479</ele><time>2017-11-10T08:19:50.000Z</time></trkpt><trkpt lon="34.84826" lat="31.37892"><ele>479</ele><time>2017-11-10T08:19:51.000Z</time></trkpt><trkpt lon="34.84826" lat="31.37892"><ele>479</ele><time>2017-11-10T08:19:52.000Z</time></trkpt><trkpt lon="34.84826" lat="31.37892"><ele>480</ele><time>2017-11-10T08:19:53.000Z</time></trkpt><trkpt lon="34.84826" lat="31.37892"><ele>480</ele><time>2017-11-10T08:19:54.000Z</time></trkpt><trkpt lon="34.84826" lat="31.37892"><ele>480</ele><time>2017-11-10T08:19:55.000Z</time></trkpt><trkpt lon="34.84826" lat="31.37892"><ele>480</ele><time>2017-11-10T08:19:56.000Z</time></trkpt><trkpt lon="34.84826" lat="31.37892"><ele>480</ele><time>2017-11-10T08:19:57.000Z</time></trkpt><trkpt lon="34.84826" lat="31.37892"><ele>480</ele><time>2017-11-10T08:19:58.000Z</time></trkpt><trkpt lon="34.84826" lat="31.37892"><ele>480</ele><time>2017-11-10T08:19:59.000Z</time></trkpt><trkpt lon="34.84826" lat="31.37892"><ele>480</ele><time>2017-11-10T08:20:00.000Z</time></trkpt><trkpt lon="34.84826" lat="31.37892"><ele>480</ele><time>2017-11-10T08:20:01.000Z</time></trkpt><trkpt lon="34.84826" lat="31.37892"><ele>480</ele><time>2017-11-10T08:20:02.000Z</time></trkpt><trkpt lon="34.84826" lat="31.37892"><ele>480</ele><time>2017-11-10T08:20:03.000Z</time></trkpt><trkpt lon="34.84826" lat="31.37892"><ele>480</ele><time>2017-11-10T08:20:04.000Z</time></trkpt><trkpt lon="34.84826" lat="31.37892"><ele>480</ele><time>2017-11-10T08:20:05.000Z</time></trkpt><trkpt lon="34.84826" lat="31.37892"><ele>480</ele><time>2017-11-10T08:20:06.000Z</time></trkpt><trkpt lon="34.84826" lat="31.37892"><ele>480</ele><time>2017-11-10T08:20:07.000Z</time></trkpt><trkpt lon="34.84826" lat="31.37892"><ele>480</ele><time>2017-11-10T08:20:08.000Z</time></trkpt><trkpt lon="34.84826" lat="31.37892"><ele>480</ele><time>2017-11-10T08:20:09.000Z</time></trkpt><trkpt lon="34.84826" lat="31.37892"><ele>480</ele><time>2017-11-10T08:20:10.000Z</time></trkpt><trkpt lon="34.84826" lat="31.37892"><ele>480</ele><time>2017-11-10T08:20:11.000Z</time></trkpt><trkpt lon="34.84826" lat="31.37892"><ele>480</ele><time>2017-11-10T08:20:12.000Z</time></trkpt><trkpt lon="34.84826" lat="31.37892"><ele>480</ele><time>2017-11-10T08:20:13.000Z</time></trkpt><trkpt lon="34.84826" lat="31.37892"><ele>480</ele><time>2017-11-10T08:20:14.000Z</time></trkpt><trkpt lon="34.84826" lat="31.37892"><ele>480</ele><time>2017-11-10T08:20:15.000Z</time></trkpt><trkpt lon="34.84826" lat="31.37892"><ele>480</ele><time>2017-11-10T08:20:16.000Z</time></trkpt><trkpt lon="34.84826" lat="31.37892"><ele>480</ele><time>2017-11-10T08:20:17.000Z</time></trkpt><trkpt lon="34.84826" lat="31.37892"><ele>480</ele><time>2017-11-10T08:20:18.000Z</time></trkpt><trkpt lon="34.84826" lat="31.37892"><ele>480</ele><time>2017-11-10T08:20:19.000Z</time></trkpt><trkpt lon="34.84826" lat="31.37892"><ele>480</ele><time>2017-11-10T08:20:20.000Z</time></trkpt><trkpt lon="34.84826" lat="31.37892"><ele>480</ele><time>2017-11-10T08:20:21.000Z</time></trkpt><trkpt lon="34.84826" lat="31.37892"><ele>480</ele><time>2017-11-10T08:20:22.000Z</time></trkpt><trkpt lon="34.84826" lat="31.37892"><ele>480</ele><time>2017-11-10T08:20:23.000Z</time></trkpt><trkpt lon="34.84826" lat="31.37892"><ele>480</ele><time>2017-11-10T08:20:24.000Z</time></trkpt><trkpt lon="34.84826" lat="31.37892"><ele>480</ele><time>2017-11-10T08:20:25.000Z</time></trkpt><trkpt lon="34.84826" lat="31.37892"><ele>480</ele><time>2017-11-10T08:20:26.000Z</time></trkpt><trkpt lon="34.84826" lat="31.37892"><ele>480</ele><time>2017-11-10T08:20:27.000Z</time></trkpt><trkpt lon="34.84826" lat="31.37892"><ele>480</ele><time>2017-11-10T08:20:28.000Z</time></trkpt><trkpt lon="34.84826" lat="31.37892"><ele>480</ele><time>2017-11-10T08:20:29.000Z</time></trkpt><trkpt lon="34.84826" lat="31.37892"><ele>480</ele><time>2017-11-10T08:20:30.000Z</time></trkpt><trkpt lon="34.84826" lat="31.37892"><ele>480</ele><time>2017-11-10T08:20:31.000Z</time></trkpt><trkpt lon="34.84826" lat="31.37892"><ele>479</ele><time>2017-11-10T08:20:32.000Z</time></trkpt><trkpt lon="34.84826" lat="31.37892"><ele>479</ele><time>2017-11-10T08:20:33.000Z</time></trkpt><trkpt lon="34.84826" lat="31.37892"><ele>479</ele><time>2017-11-10T08:20:34.000Z</time></trkpt><trkpt lon="34.84826" lat="31.37892"><ele>479</ele><time>2017-11-10T08:20:35.000Z</time></trkpt><trkpt lon="34.84826" lat="31.37892"><ele>479</ele><time>2017-11-10T08:20:36.000Z</time></trkpt><trkpt lon="34.84826" lat="31.37892"><ele>479</ele><time>2017-11-10T08:20:37.000Z</time></trkpt><trkpt lon="34.84826" lat="31.37892"><ele>479</ele><time>2017-11-10T08:20:38.000Z</time></trkpt><trkpt lon="34.84826" lat="31.37892"><ele>479</ele><time>2017-11-10T08:20:39.000Z</time></trkpt><trkpt lon="34.84826" lat="31.37892"><ele>479</ele><time>2017-11-10T08:20:40.000Z</time></trkpt><trkpt lon="34.84826" lat="31.37892"><ele>479</ele><time>2017-11-10T08:20:41.000Z</time></trkpt><trkpt lon="34.84826" lat="31.37892"><ele>479</ele><time>2017-11-10T08:20:42.000Z</time></trkpt><trkpt lon="34.84826" lat="31.37892"><ele>479</ele><time>2017-11-10T08:20:43.000Z</time></trkpt><trkpt lon="34.84826" lat="31.37892"><ele>479</ele><time>2017-11-10T08:20:44.000Z</time></trkpt><trkpt lon="34.84826" lat="31.37892"><ele>479</ele><time>2017-11-10T08:20:45.000Z</time></trkpt><trkpt lon="34.84826" lat="31.37892"><ele>479</ele><time>2017-11-10T08:20:46.000Z</time></trkpt><trkpt lon="34.84826" lat="31.37892"><ele>479</ele><time>2017-11-10T08:20:47.000Z</time></trkpt><trkpt lon="34.84826" lat="31.37892"><ele>479</ele><time>2017-11-10T08:20:48.000Z</time></trkpt><trkpt lon="34.84826" lat="31.37892"><ele>479</ele><time>2017-11-10T08:20:49.000Z</time></trkpt><trkpt lon="34.84826" lat="31.37892"><ele>479</ele><time>2017-11-10T08:20:50.000Z</time></trkpt><trkpt lon="34.84826" lat="31.37892"><ele>479</ele><time>2017-11-10T08:20:51.000Z</time></trkpt><trkpt lon="34.848233" lat="31.378908"><ele>479</ele><time>2017-11-10T08:20:52.000Z</time></trkpt><trkpt lon="34.848233" lat="31.378908"><ele>479</ele><time>2017-11-10T08:20:53.000Z</time></trkpt><trkpt lon="34.848211" lat="31.378885"><ele>479</ele><time>2017-11-10T08:20:54.000Z</time></trkpt><trkpt lon="34.848189" lat="31.378868"><ele>479</ele><time>2017-11-10T08:20:55.000Z</time></trkpt><trkpt lon="34.848154" lat="31.378849"><ele>478</ele><time>2017-11-10T08:20:56.000Z</time></trkpt><trkpt lon="34.848111" lat="31.378831"><ele>479</ele><time>2017-11-10T08:20:57.000Z</time></trkpt><trkpt lon="34.84807" lat="31.378818"><ele>479</ele><time>2017-11-10T08:20:58.000Z</time></trkpt><trkpt lon="34.848035" lat="31.378809"><ele>479</ele><time>2017-11-10T08:20:59.000Z</time></trkpt><trkpt lon="34.848003" lat="31.378797"><ele>479</ele><time>2017-11-10T08:21:00.000Z</time></trkpt><trkpt lon="34.847972" lat="31.378781"><ele>479</ele><time>2017-11-10T08:21:01.000Z</time></trkpt><trkpt lon="34.84795" lat="31.378758"><ele>479</ele><time>2017-11-10T08:21:02.000Z</time></trkpt><trkpt lon="34.84793" lat="31.378724"><ele>479</ele><time>2017-11-10T08:21:03.000Z</time></trkpt><trkpt lon="34.847914" lat="31.378688"><ele>480</ele><time>2017-11-10T08:21:04.000Z</time></trkpt><trkpt lon="34.847902" lat="31.378648"><ele>480</ele><time>2017-11-10T08:21:05.000Z</time></trkpt><trkpt lon="34.847896" lat="31.378607"><ele>480</ele><time>2017-11-10T08:21:06.000Z</time></trkpt><trkpt lon="34.847894" lat="31.378564"><ele>480</ele><time>2017-11-10T08:21:07.000Z</time></trkpt><trkpt lon="34.8479" lat="31.378526"><ele>481</ele><time>2017-11-10T08:21:08.000Z</time></trkpt><trkpt lon="34.847906" lat="31.378491"><ele>481</ele><time>2017-11-10T08:21:09.000Z</time></trkpt><trkpt lon="34.847912" lat="31.378462"><ele>481</ele><time>2017-11-10T08:21:10.000Z</time></trkpt><trkpt lon="34.847918" lat="31.378434"><ele>481</ele><time>2017-11-10T08:21:11.000Z</time></trkpt><trkpt lon="34.847918" lat="31.378404"><ele>481</ele><time>2017-11-10T08:21:12.000Z</time></trkpt><trkpt lon="34.84792" lat="31.378373"><ele>482</ele><time>2017-11-10T08:21:13.000Z</time></trkpt><trkpt lon="34.847922" lat="31.378338"><ele>482</ele><time>2017-11-10T08:21:14.000Z</time></trkpt><trkpt lon="34.847925" lat="31.378302"><ele>482</ele><time>2017-11-10T08:21:15.000Z</time></trkpt><trkpt lon="34.847928" lat="31.378264"><ele>482</ele><time>2017-11-10T08:21:16.000Z</time></trkpt><trkpt lon="34.84793" lat="31.378225"><ele>482</ele><time>2017-11-10T08:21:17.000Z</time></trkpt><trkpt lon="34.847934" lat="31.378184"><ele>482</ele><time>2017-11-10T08:21:18.000Z</time></trkpt><trkpt lon="34.847946" lat="31.378141"><ele>482</ele><time>2017-11-10T08:21:19.000Z</time></trkpt><trkpt lon="34.847962" lat="31.378107"><ele>483</ele><time>2017-11-10T08:21:20.000Z</time></trkpt><trkpt lon="34.847974" lat="31.378078"><ele>484</ele><time>2017-11-10T08:21:21.000Z</time></trkpt><trkpt lon="34.847986" lat="31.378049"><ele>484</ele><time>2017-11-10T08:21:22.000Z</time></trkpt><trkpt lon="34.847996" lat="31.378018"><ele>484</ele><time>2017-11-10T08:21:23.000Z</time></trkpt><trkpt lon="34.848004" lat="31.377984"><ele>484</ele><time>2017-11-10T08:21:24.000Z</time></trkpt><trkpt lon="34.848008" lat="31.37795"><ele>484</ele><time>2017-11-10T08:21:25.000Z</time></trkpt><trkpt lon="34.848014" lat="31.377915"><ele>484</ele><time>2017-11-10T08:21:26.000Z</time></trkpt><trkpt lon="34.848021" lat="31.377883"><ele>484</ele><time>2017-11-10T08:21:27.000Z</time></trkpt><trkpt lon="34.84803" lat="31.377852"><ele>484</ele><time>2017-11-10T08:21:28.000Z</time></trkpt><trkpt lon="34.848042" lat="31.377823"><ele>484</ele><time>2017-11-10T08:21:29.000Z</time></trkpt><trkpt lon="34.848054" lat="31.377798"><ele>484</ele><time>2017-11-10T08:21:30.000Z</time></trkpt><trkpt lon="34.848062" lat="31.377772"><ele>485</ele><time>2017-11-10T08:21:31.000Z</time></trkpt><trkpt lon="34.848066" lat="31.377746"><ele>486</ele><time>2017-11-10T08:21:32.000Z</time></trkpt><trkpt lon="34.848066" lat="31.377715"><ele>486</ele><time>2017-11-10T08:21:33.000Z</time></trkpt><trkpt lon="34.848066" lat="31.377682"><ele>486</ele><time>2017-11-10T08:21:34.000Z</time></trkpt><trkpt lon="34.848066" lat="31.377645"><ele>486</ele><time>2017-11-10T08:21:35.000Z</time></trkpt><trkpt lon="34.848068" lat="31.37761"><ele>486</ele><time>2017-11-10T08:21:36.000Z</time></trkpt><trkpt lon="34.848078" lat="31.377576"><ele>486</ele><time>2017-11-10T08:21:37.000Z</time></trkpt><trkpt lon="34.84809" lat="31.377543"><ele>486</ele><time>2017-11-10T08:21:38.000Z</time></trkpt><trkpt lon="34.848104" lat="31.377514"><ele>486</ele><time>2017-11-10T08:21:39.000Z</time></trkpt><trkpt lon="34.848118" lat="31.377486"><ele>486</ele><time>2017-11-10T08:21:40.000Z</time></trkpt><trkpt lon="34.848128" lat="31.377456"><ele>487</ele><time>2017-11-10T08:21:41.000Z</time></trkpt><trkpt lon="34.84814" lat="31.377426"><ele>487</ele><time>2017-11-10T08:21:42.000Z</time></trkpt><trkpt lon="34.848154" lat="31.377394"><ele>487</ele><time>2017-11-10T08:21:43.000Z</time></trkpt><trkpt lon="34.848168" lat="31.377359"><ele>487</ele><time>2017-11-10T08:21:44.000Z</time></trkpt><trkpt lon="34.848186" lat="31.377324"><ele>486</ele><time>2017-11-10T08:21:45.000Z</time></trkpt><trkpt lon="34.848208" lat="31.37729"><ele>486</ele><time>2017-11-10T08:21:46.000Z</time></trkpt><trkpt lon="34.848232" lat="31.377263"><ele>486</ele><time>2017-11-10T08:21:47.000Z</time></trkpt><trkpt lon="34.84826" lat="31.377245"><ele>486</ele><time>2017-11-10T08:21:48.000Z</time></trkpt><trkpt lon="34.848286" lat="31.377238"><ele>486</ele><time>2017-11-10T08:21:49.000Z</time></trkpt><trkpt lon="34.848286" lat="31.377238"><ele>487</ele><time>2017-11-10T08:21:50.000Z</time></trkpt><trkpt lon="34.848296" lat="31.377265"><ele>487</ele><time>2017-11-10T08:21:51.000Z</time></trkpt><trkpt lon="34.848296" lat="31.377265"><ele>487</ele><time>2017-11-10T08:21:52.000Z</time></trkpt><trkpt lon="34.848274" lat="31.377294"><ele>487</ele><time>2017-11-10T08:21:53.000Z</time></trkpt><trkpt lon="34.84826" lat="31.377313"><ele>488</ele><time>2017-11-10T08:21:54.000Z</time></trkpt><trkpt lon="34.84825" lat="31.377338"><ele>488</ele><time>2017-11-10T08:21:55.000Z</time></trkpt><trkpt lon="34.848239" lat="31.377364"><ele>488</ele><time>2017-11-10T08:21:56.000Z</time></trkpt><trkpt lon="34.84823" lat="31.377387"><ele>488</ele><time>2017-11-10T08:21:57.000Z</time></trkpt><trkpt lon="34.848226" lat="31.377409"><ele>489</ele><time>2017-11-10T08:21:58.000Z</time></trkpt><trkpt lon="34.848222" lat="31.377432"><ele>489</ele><time>2017-11-10T08:21:59.000Z</time></trkpt><trkpt lon="34.84822" lat="31.377451"><ele>489</ele><time>2017-11-10T08:22:00.000Z</time></trkpt><trkpt lon="34.848216" lat="31.377471"><ele>489</ele><time>2017-11-10T08:22:01.000Z</time></trkpt><trkpt lon="34.848208" lat="31.377493"><ele>489</ele><time>2017-11-10T08:22:02.000Z</time></trkpt><trkpt lon="34.848201" lat="31.377515"><ele>489</ele><time>2017-11-10T08:22:03.000Z</time></trkpt><trkpt lon="34.848194" lat="31.377537"><ele>490</ele><time>2017-11-10T08:22:04.000Z</time></trkpt><trkpt lon="34.848188" lat="31.377563"><ele>490</ele><time>2017-11-10T08:22:05.000Z</time></trkpt><trkpt lon="34.848188" lat="31.377589"><ele>490</ele><time>2017-11-10T08:22:06.000Z</time></trkpt><trkpt lon="34.848189" lat="31.377613"><ele>490</ele><time>2017-11-10T08:22:07.000Z</time></trkpt><trkpt lon="34.84819" lat="31.377635"><ele>490</ele><time>2017-11-10T08:22:08.000Z</time></trkpt><trkpt lon="34.848191" lat="31.377656"><ele>490</ele><time>2017-11-10T08:22:09.000Z</time></trkpt><trkpt lon="34.848192" lat="31.377684"><ele>490</ele><time>2017-11-10T08:22:10.000Z</time></trkpt><trkpt lon="34.848193" lat="31.377715"><ele>490</ele><time>2017-11-10T08:22:11.000Z</time></trkpt><trkpt lon="34.848189" lat="31.377749"><ele>490</ele><time>2017-11-10T08:22:12.000Z</time></trkpt><trkpt lon="34.848185" lat="31.377781"><ele>490</ele><time>2017-11-10T08:22:13.000Z</time></trkpt><trkpt lon="34.848179" lat="31.377811"><ele>490</ele><time>2017-11-10T08:22:14.000Z</time></trkpt><trkpt lon="34.848167" lat="31.377848"><ele>490</ele><time>2017-11-10T08:22:15.000Z</time></trkpt><trkpt lon="34.848152" lat="31.377889"><ele>490</ele><time>2017-11-10T08:22:16.000Z</time></trkpt><trkpt lon="34.848142" lat="31.37793"><ele>489</ele><time>2017-11-10T08:22:17.000Z</time></trkpt><trkpt lon="34.848146" lat="31.377969"><ele>489</ele><time>2017-11-10T08:22:18.000Z</time></trkpt><trkpt lon="34.848159" lat="31.377995"><ele>489</ele><time>2017-11-10T08:22:19.000Z</time></trkpt><trkpt lon="34.84817" lat="31.378013"><ele>489</ele><time>2017-11-10T08:22:20.000Z</time></trkpt><trkpt lon="34.848184" lat="31.37803"><ele>489</ele><time>2017-11-10T08:22:21.000Z</time></trkpt><trkpt lon="34.848194" lat="31.378049"><ele>490</ele><time>2017-11-10T08:22:22.000Z</time></trkpt><trkpt lon="34.848198" lat="31.378071"><ele>490</ele><time>2017-11-10T08:22:23.000Z</time></trkpt><trkpt lon="34.848196" lat="31.378093"><ele>490</ele><time>2017-11-10T08:22:24.000Z</time></trkpt><trkpt lon="34.848199" lat="31.378114"><ele>490</ele><time>2017-11-10T08:22:25.000Z</time></trkpt><trkpt lon="34.848206" lat="31.378134"><ele>490</ele><time>2017-11-10T08:22:26.000Z</time></trkpt><trkpt lon="34.848211" lat="31.378157"><ele>490</ele><time>2017-11-10T08:22:27.000Z</time></trkpt><trkpt lon="34.848215" lat="31.378184"><ele>490</ele><time>2017-11-10T08:22:28.000Z</time></trkpt><trkpt lon="34.848219" lat="31.378211"><ele>490</ele><time>2017-11-10T08:22:29.000Z</time></trkpt><trkpt lon="34.848228" lat="31.378238"><ele>490</ele><time>2017-11-10T08:22:30.000Z</time></trkpt><trkpt lon="34.848242" lat="31.378265"><ele>490</ele><time>2017-11-10T08:22:31.000Z</time></trkpt><trkpt lon="34.848261" lat="31.378291"><ele>490</ele><time>2017-11-10T08:22:32.000Z</time></trkpt><trkpt lon="34.848285" lat="31.378314"><ele>490</ele><time>2017-11-10T08:22:33.000Z</time></trkpt><trkpt lon="34.848311" lat="31.378333"><ele>490</ele><time>2017-11-10T08:22:34.000Z</time></trkpt><trkpt lon="34.84834" lat="31.378348"><ele>490</ele><time>2017-11-10T08:22:35.000Z</time></trkpt><trkpt lon="34.848372" lat="31.378362"><ele>490</ele><time>2017-11-10T08:22:36.000Z</time></trkpt><trkpt lon="34.848406" lat="31.378372"><ele>490</ele><time>2017-11-10T08:22:37.000Z</time></trkpt><trkpt lon="34.848439" lat="31.378374"><ele>490</ele><time>2017-11-10T08:22:38.000Z</time></trkpt><trkpt lon="34.848471" lat="31.378368"><ele>490</ele><time>2017-11-10T08:22:39.000Z</time></trkpt><trkpt lon="34.848501" lat="31.378357"><ele>490</ele><time>2017-11-10T08:22:40.000Z</time></trkpt><trkpt lon="34.84853" lat="31.378343"><ele>490</ele><time>2017-11-10T08:22:41.000Z</time></trkpt><trkpt lon="34.848561" lat="31.378331"><ele>490</ele><time>2017-11-10T08:22:42.000Z</time></trkpt><trkpt lon="34.848592" lat="31.378321"><ele>490</ele><time>2017-11-10T08:22:43.000Z</time></trkpt><trkpt lon="34.848622" lat="31.37831"><ele>490</ele><time>2017-11-10T08:22:44.000Z</time></trkpt><trkpt lon="34.84865" lat="31.378299"><ele>490</ele><time>2017-11-10T08:22:45.000Z</time></trkpt><trkpt lon="34.848678" lat="31.37829"><ele>491</ele><time>2017-11-10T08:22:46.000Z</time></trkpt><trkpt lon="34.848706" lat="31.378281"><ele>491</ele><time>2017-11-10T08:22:47.000Z</time></trkpt><trkpt lon="34.848736" lat="31.378276"><ele>491</ele><time>2017-11-10T08:22:48.000Z</time></trkpt><trkpt lon="34.848768" lat="31.378275"><ele>491</ele><time>2017-11-10T08:22:49.000Z</time></trkpt><trkpt lon="34.848802" lat="31.378272"><ele>491</ele><time>2017-11-10T08:22:50.000Z</time></trkpt><trkpt lon="34.848835" lat="31.378267"><ele>491</ele><time>2017-11-10T08:22:51.000Z</time></trkpt><trkpt lon="34.84887" lat="31.37826"><ele>491</ele><time>2017-11-10T08:22:52.000Z</time></trkpt><trkpt lon="34.848904" lat="31.378252"><ele>491</ele><time>2017-11-10T08:22:53.000Z</time></trkpt><trkpt lon="34.848937" lat="31.378245"><ele>491</ele><time>2017-11-10T08:22:54.000Z</time></trkpt><trkpt lon="34.848968" lat="31.37824"><ele>491</ele><time>2017-11-10T08:22:55.000Z</time></trkpt><trkpt lon="34.848999" lat="31.378237"><ele>491</ele><time>2017-11-10T08:22:56.000Z</time></trkpt><trkpt lon="34.84903" lat="31.378236"><ele>491</ele><time>2017-11-10T08:22:57.000Z</time></trkpt><trkpt lon="34.849061" lat="31.378237"><ele>491</ele><time>2017-11-10T08:22:58.000Z</time></trkpt><trkpt lon="34.849099" lat="31.378239"><ele>491</ele><time>2017-11-10T08:22:59.000Z</time></trkpt><trkpt lon="34.849144" lat="31.378239"><ele>490</ele><time>2017-11-10T08:23:00.000Z</time></trkpt><trkpt lon="34.849188" lat="31.37824"><ele>490</ele><time>2017-11-10T08:23:01.000Z</time></trkpt><trkpt lon="34.849232" lat="31.378242"><ele>490</ele><time>2017-11-10T08:23:02.000Z</time></trkpt><trkpt lon="34.849272" lat="31.378241"><ele>490</ele><time>2017-11-10T08:23:03.000Z</time></trkpt><trkpt lon="34.849308" lat="31.378237"><ele>490</ele><time>2017-11-10T08:23:04.000Z</time></trkpt><trkpt lon="34.84934" lat="31.378235"><ele>491</ele><time>2017-11-10T08:23:05.000Z</time></trkpt><trkpt lon="34.84937" lat="31.378233"><ele>491</ele><time>2017-11-10T08:23:06.000Z</time></trkpt><trkpt lon="34.849398" lat="31.378235"><ele>491</ele><time>2017-11-10T08:23:07.000Z</time></trkpt><trkpt lon="34.849427" lat="31.378235"><ele>491</ele><time>2017-11-10T08:23:08.000Z</time></trkpt><trkpt lon="34.849454" lat="31.378237"><ele>491</ele><time>2017-11-10T08:23:09.000Z</time></trkpt><trkpt lon="34.849481" lat="31.378242"><ele>491</ele><time>2017-11-10T08:23:10.000Z</time></trkpt><trkpt lon="34.84951" lat="31.378248"><ele>491</ele><time>2017-11-10T08:23:11.000Z</time></trkpt><trkpt lon="34.849539" lat="31.378255"><ele>491</ele><time>2017-11-10T08:23:12.000Z</time></trkpt><trkpt lon="34.849571" lat="31.378263"><ele>491</ele><time>2017-11-10T08:23:13.000Z</time></trkpt><trkpt lon="34.849607" lat="31.378277"><ele>491</ele><time>2017-11-10T08:23:14.000Z</time></trkpt><trkpt lon="34.849645" lat="31.378296"><ele>491</ele><time>2017-11-10T08:23:15.000Z</time></trkpt><trkpt lon="34.849683" lat="31.378313"><ele>491</ele><time>2017-11-10T08:23:16.000Z</time></trkpt><trkpt lon="34.84972" lat="31.378329"><ele>491</ele><time>2017-11-10T08:23:17.000Z</time></trkpt><trkpt lon="34.84976" lat="31.378342"><ele>491</ele><time>2017-11-10T08:23:18.000Z</time></trkpt><trkpt lon="34.849801" lat="31.378353"><ele>491</ele><time>2017-11-10T08:23:19.000Z</time></trkpt><trkpt lon="34.849841" lat="31.378362"><ele>491</ele><time>2017-11-10T08:23:20.000Z</time></trkpt><trkpt lon="34.849881" lat="31.378367"><ele>491</ele><time>2017-11-10T08:23:21.000Z</time></trkpt><trkpt lon="34.849919" lat="31.378373"><ele>491</ele><time>2017-11-10T08:23:22.000Z</time></trkpt><trkpt lon="34.849954" lat="31.378376"><ele>492</ele><time>2017-11-10T08:23:23.000Z</time></trkpt><trkpt lon="34.849986" lat="31.378379"><ele>492</ele><time>2017-11-10T08:23:24.000Z</time></trkpt><trkpt lon="34.850014" lat="31.378383"><ele>492</ele><time>2017-11-10T08:23:25.000Z</time></trkpt><trkpt lon="34.850042" lat="31.378389"><ele>492</ele><time>2017-11-10T08:23:26.000Z</time></trkpt><trkpt lon="34.850071" lat="31.378398"><ele>492</ele><time>2017-11-10T08:23:27.000Z</time></trkpt><trkpt lon="34.850108" lat="31.37841"><ele>492</ele><time>2017-11-10T08:23:28.000Z</time></trkpt><trkpt lon="34.850146" lat="31.378421"><ele>493</ele><time>2017-11-10T08:23:29.000Z</time></trkpt><trkpt lon="34.85018" lat="31.378432"><ele>493</ele><time>2017-11-10T08:23:30.000Z</time></trkpt><trkpt lon="34.85021" lat="31.378443"><ele>493</ele><time>2017-11-10T08:23:31.000Z</time></trkpt><trkpt lon="34.850235" lat="31.378452"><ele>493</ele><time>2017-11-10T08:23:32.000Z</time></trkpt><trkpt lon="34.850258" lat="31.378459"><ele>494</ele><time>2017-11-10T08:23:33.000Z</time></trkpt><trkpt lon="34.85028" lat="31.378462"><ele>494</ele><time>2017-11-10T08:23:34.000Z</time></trkpt><trkpt lon="34.850302" lat="31.378461"><ele>494</ele><time>2017-11-10T08:23:35.000Z</time></trkpt><trkpt lon="34.850324" lat="31.378458"><ele>494</ele><time>2017-11-10T08:23:36.000Z</time></trkpt><trkpt lon="34.850345" lat="31.378453"><ele>494</ele><time>2017-11-10T08:23:37.000Z</time></trkpt><trkpt lon="34.850366" lat="31.378448"><ele>495</ele><time>2017-11-10T08:23:38.000Z</time></trkpt><trkpt lon="34.850387" lat="31.378445"><ele>495</ele><time>2017-11-10T08:23:39.000Z</time></trkpt><trkpt lon="34.850409" lat="31.378448"><ele>495</ele><time>2017-11-10T08:23:40.000Z</time></trkpt><trkpt lon="34.850433" lat="31.37845"><ele>496</ele><time>2017-11-10T08:23:41.000Z</time></trkpt><trkpt lon="34.850456" lat="31.378451"><ele>496</ele><time>2017-11-10T08:23:42.000Z</time></trkpt><trkpt lon="34.850479" lat="31.378453"><ele>496</ele><time>2017-11-10T08:23:43.000Z</time></trkpt><trkpt lon="34.850506" lat="31.378455"><ele>496</ele><time>2017-11-10T08:23:44.000Z</time></trkpt><trkpt lon="34.850534" lat="31.378454"><ele>496</ele><time>2017-11-10T08:23:45.000Z</time></trkpt><trkpt lon="34.850562" lat="31.378452"><ele>496</ele><time>2017-11-10T08:23:46.000Z</time></trkpt><trkpt lon="34.850589" lat="31.378447"><ele>496</ele><time>2017-11-10T08:23:47.000Z</time></trkpt><trkpt lon="34.850611" lat="31.378439"><ele>496</ele><time>2017-11-10T08:23:48.000Z</time></trkpt><trkpt lon="34.850632" lat="31.378424"><ele>497</ele><time>2017-11-10T08:23:49.000Z</time></trkpt><trkpt lon="34.850646" lat="31.378405"><ele>497</ele><time>2017-11-10T08:23:50.000Z</time></trkpt><trkpt lon="34.850649" lat="31.378383"><ele>498</ele><time>2017-11-10T08:23:51.000Z</time></trkpt><trkpt lon="34.85064" lat="31.378359"><ele>498</ele><time>2017-11-10T08:23:52.000Z</time></trkpt><trkpt lon="34.850633" lat="31.378336"><ele>499</ele><time>2017-11-10T08:23:53.000Z</time></trkpt><trkpt lon="34.85063" lat="31.378315"><ele>499</ele><time>2017-11-10T08:23:54.000Z</time></trkpt><trkpt lon="34.850631" lat="31.378293"><ele>499</ele><time>2017-11-10T08:23:55.000Z</time></trkpt><trkpt lon="34.850634" lat="31.378273"><ele>499</ele><time>2017-11-10T08:23:56.000Z</time></trkpt><trkpt lon="34.850636" lat="31.378252"><ele>499</ele><time>2017-11-10T08:23:57.000Z</time></trkpt><trkpt lon="34.85064" lat="31.378233"><ele>499</ele><time>2017-11-10T08:23:58.000Z</time></trkpt><trkpt lon="34.850647" lat="31.378214"><ele>499</ele><time>2017-11-10T08:23:59.000Z</time></trkpt><trkpt lon="34.850655" lat="31.378196"><ele>499</ele><time>2017-11-10T08:24:00.000Z</time></trkpt><trkpt lon="34.850662" lat="31.378176"><ele>499</ele><time>2017-11-10T08:24:01.000Z</time></trkpt><trkpt lon="34.850671" lat="31.378158"><ele>499</ele><time>2017-11-10T08:24:02.000Z</time></trkpt><trkpt lon="34.850684" lat="31.37814"><ele>499</ele><time>2017-11-10T08:24:03.000Z</time></trkpt><trkpt lon="34.850684" lat="31.37814"><ele>499</ele><time>2017-11-10T08:24:04.000Z</time></trkpt><trkpt lon="34.850707" lat="31.378114"><ele>499</ele><time>2017-11-10T08:24:05.000Z</time></trkpt><trkpt lon="34.850707" lat="31.378114"><ele>499</ele><time>2017-11-10T08:24:06.000Z</time></trkpt><trkpt lon="34.850737" lat="31.378094"><ele>499</ele><time>2017-11-10T08:24:07.000Z</time></trkpt><trkpt lon="34.85076" lat="31.378084"><ele>499</ele><time>2017-11-10T08:24:08.000Z</time></trkpt><trkpt lon="34.850786" lat="31.378072"><ele>499</ele><time>2017-11-10T08:24:09.000Z</time></trkpt><trkpt lon="34.850817" lat="31.378064"><ele>499</ele><time>2017-11-10T08:24:10.000Z</time></trkpt><trkpt lon="34.850849" lat="31.37806"><ele>499</ele><time>2017-11-10T08:24:11.000Z</time></trkpt><trkpt lon="34.85088" lat="31.37806"><ele>499</ele><time>2017-11-10T08:24:12.000Z</time></trkpt><trkpt lon="34.850908" lat="31.378061"><ele>499.6</ele><time>2017-11-10T08:24:13.000Z</time></trkpt><trkpt lon="34.850935" lat="31.378062"><ele>500</ele><time>2017-11-10T08:24:14.000Z</time></trkpt><trkpt lon="34.85096" lat="31.378064"><ele>500</ele><time>2017-11-10T08:24:15.000Z</time></trkpt><trkpt lon="34.850986" lat="31.37806"><ele>500</ele><time>2017-11-10T08:24:16.000Z</time></trkpt><trkpt lon="34.85101" lat="31.378056"><ele>500</ele><time>2017-11-10T08:24:17.000Z</time></trkpt><trkpt lon="34.851037" lat="31.378048"><ele>500</ele><time>2017-11-10T08:24:18.000Z</time></trkpt><trkpt lon="34.851064" lat="31.378042"><ele>500</ele><time>2017-11-10T08:24:19.000Z</time></trkpt><trkpt lon="34.851088" lat="31.378036"><ele>500</ele><time>2017-11-10T08:24:20.000Z</time></trkpt><trkpt lon="34.851111" lat="31.378028"><ele>500</ele><time>2017-11-10T08:24:21.000Z</time></trkpt><trkpt lon="34.851132" lat="31.378021"><ele>500</ele><time>2017-11-10T08:24:22.000Z</time></trkpt><trkpt lon="34.851152" lat="31.378013"><ele>500</ele><time>2017-11-10T08:24:23.000Z</time></trkpt><trkpt lon="34.851172" lat="31.378006"><ele>500</ele><time>2017-11-10T08:24:24.000Z</time></trkpt><trkpt lon="34.851192" lat="31.377996"><ele>500</ele><time>2017-11-10T08:24:25.000Z</time></trkpt><trkpt lon="34.851211" lat="31.377987"><ele>500</ele><time>2017-11-10T08:24:26.000Z</time></trkpt><trkpt lon="34.851231" lat="31.377976"><ele>501</ele><time>2017-11-10T08:24:27.000Z</time></trkpt><trkpt lon="34.851253" lat="31.377962"><ele>501</ele><time>2017-11-10T08:24:28.000Z</time></trkpt><trkpt lon="34.851276" lat="31.377947"><ele>501</ele><time>2017-11-10T08:24:29.000Z</time></trkpt><trkpt lon="34.8513" lat="31.377934"><ele>501</ele><time>2017-11-10T08:24:30.000Z</time></trkpt><trkpt lon="34.851324" lat="31.37792"><ele>501</ele><time>2017-11-10T08:24:31.000Z</time></trkpt><trkpt lon="34.851346" lat="31.377904"><ele>501</ele><time>2017-11-10T08:24:32.000Z</time></trkpt><trkpt lon="34.851367" lat="31.37789"><ele>501</ele><time>2017-11-10T08:24:33.000Z</time></trkpt><trkpt lon="34.851389" lat="31.377876"><ele>502</ele><time>2017-11-10T08:24:34.000Z</time></trkpt><trkpt lon="34.85141" lat="31.377862"><ele>502</ele><time>2017-11-10T08:24:35.000Z</time></trkpt><trkpt lon="34.85143" lat="31.377846"><ele>502</ele><time>2017-11-10T08:24:36.000Z</time></trkpt><trkpt lon="34.85145" lat="31.377832"><ele>502</ele><time>2017-11-10T08:24:37.000Z</time></trkpt><trkpt lon="34.851469" lat="31.377816"><ele>502</ele><time>2017-11-10T08:24:38.000Z</time></trkpt><trkpt lon="34.851487" lat="31.377798"><ele>502</ele><time>2017-11-10T08:24:39.000Z</time></trkpt><trkpt lon="34.851507" lat="31.377778"><ele>502</ele><time>2017-11-10T08:24:40.000Z</time></trkpt><trkpt lon="34.85153" lat="31.377754"><ele>502</ele><time>2017-11-10T08:24:41.000Z</time></trkpt><trkpt lon="34.851553" lat="31.377734"><ele>502</ele><time>2017-11-10T08:24:42.000Z</time></trkpt><trkpt lon="34.851575" lat="31.377716"><ele>502</ele><time>2017-11-10T08:24:43.000Z</time></trkpt><trkpt lon="34.851593" lat="31.377698"><ele>502</ele><time>2017-11-10T08:24:44.000Z</time></trkpt><trkpt lon="34.851608" lat="31.37768"><ele>502</ele><time>2017-11-10T08:24:45.000Z</time></trkpt><trkpt lon="34.851621" lat="31.37766"><ele>502</ele><time>2017-11-10T08:24:46.000Z</time></trkpt><trkpt lon="34.851635" lat="31.377638"><ele>502</ele><time>2017-11-10T08:24:47.000Z</time></trkpt><trkpt lon="34.851648" lat="31.377612"><ele>502</ele><time>2017-11-10T08:24:48.000Z</time></trkpt><trkpt lon="34.851663" lat="31.377582"><ele>502</ele><time>2017-11-10T08:24:49.000Z</time></trkpt><trkpt lon="34.85168" lat="31.37755"><ele>502</ele><time>2017-11-10T08:24:50.000Z</time></trkpt><trkpt lon="34.851697" lat="31.377518"><ele>502</ele><time>2017-11-10T08:24:51.000Z</time></trkpt><trkpt lon="34.851715" lat="31.377484"><ele>502</ele><time>2017-11-10T08:24:52.000Z</time></trkpt><trkpt lon="34.851734" lat="31.37745"><ele>502</ele><time>2017-11-10T08:24:53.000Z</time></trkpt><trkpt lon="34.851753" lat="31.377418"><ele>502</ele><time>2017-11-10T08:24:54.000Z</time></trkpt><trkpt lon="34.85177" lat="31.37739"><ele>502</ele><time>2017-11-10T08:24:55.000Z</time></trkpt><trkpt lon="34.851783" lat="31.377359"><ele>502</ele><time>2017-11-10T08:24:56.000Z</time></trkpt><trkpt lon="34.851793" lat="31.377326"><ele>502</ele><time>2017-11-10T08:24:57.000Z</time></trkpt><trkpt lon="34.851802" lat="31.377288"><ele>502</ele><time>2017-11-10T08:24:58.000Z</time></trkpt><trkpt lon="34.851811" lat="31.377248"><ele>502</ele><time>2017-11-10T08:24:59.000Z</time></trkpt><trkpt lon="34.851819" lat="31.377206"><ele>502</ele><time>2017-11-10T08:25:00.000Z</time></trkpt><trkpt lon="34.851825" lat="31.377162"><ele>502</ele><time>2017-11-10T08:25:01.000Z</time></trkpt><trkpt lon="34.851831" lat="31.377116"><ele>502</ele><time>2017-11-10T08:25:02.000Z</time></trkpt><trkpt lon="34.851836" lat="31.377068"><ele>502</ele><time>2017-11-10T08:25:03.000Z</time></trkpt><trkpt lon="34.851842" lat="31.377019"><ele>502</ele><time>2017-11-10T08:25:04.000Z</time></trkpt><trkpt lon="34.851847" lat="31.376973"><ele>501</ele><time>2017-11-10T08:25:05.000Z</time></trkpt><trkpt lon="34.851843" lat="31.376928"><ele>501</ele><time>2017-11-10T08:25:06.000Z</time></trkpt><trkpt lon="34.851831" lat="31.37688"><ele>500</ele><time>2017-11-10T08:25:07.000Z</time></trkpt><trkpt lon="34.851822" lat="31.376834"><ele>500</ele><time>2017-11-10T08:25:08.000Z</time></trkpt><trkpt lon="34.85182" lat="31.376791"><ele>499</ele><time>2017-11-10T08:25:09.000Z</time></trkpt><trkpt lon="34.851826" lat="31.376747"><ele>499</ele><time>2017-11-10T08:25:10.000Z</time></trkpt><trkpt lon="34.851837" lat="31.376699"><ele>499</ele><time>2017-11-10T08:25:11.000Z</time></trkpt><trkpt lon="34.851854" lat="31.376647"><ele>498</ele><time>2017-11-10T08:25:12.000Z</time></trkpt><trkpt lon="34.851873" lat="31.376594"><ele>497</ele><time>2017-11-10T08:25:13.000Z</time></trkpt><trkpt lon="34.851897" lat="31.376542"><ele>497</ele><time>2017-11-10T08:25:14.000Z</time></trkpt><trkpt lon="34.851921" lat="31.376492"><ele>497</ele><time>2017-11-10T08:25:15.000Z</time></trkpt><trkpt lon="34.851939" lat="31.376444"><ele>497</ele><time>2017-11-10T08:25:16.000Z</time></trkpt><trkpt lon="34.851952" lat="31.376394"><ele>497</ele><time>2017-11-10T08:25:17.000Z</time></trkpt><trkpt lon="34.851961" lat="31.376343"><ele>497</ele><time>2017-11-10T08:25:18.000Z</time></trkpt><trkpt lon="34.851962" lat="31.376289"><ele>497</ele><time>2017-11-10T08:25:19.000Z</time></trkpt><trkpt lon="34.851963" lat="31.376235"><ele>496</ele><time>2017-11-10T08:25:20.000Z</time></trkpt><trkpt lon="34.851953" lat="31.376178"><ele>496</ele><time>2017-11-10T08:25:21.000Z</time></trkpt><trkpt lon="34.851929" lat="31.376118"><ele>496</ele><time>2017-11-10T08:25:22.000Z</time></trkpt><trkpt lon="34.851901" lat="31.376057"><ele>496</ele><time>2017-11-10T08:25:23.000Z</time></trkpt><trkpt lon="34.851877" lat="31.375996"><ele>496</ele><time>2017-11-10T08:25:24.000Z</time></trkpt><trkpt lon="34.851866" lat="31.375936"><ele>495</ele><time>2017-11-10T08:25:25.000Z</time></trkpt><trkpt lon="34.851863" lat="31.375881"><ele>494</ele><time>2017-11-10T08:25:26.000Z</time></trkpt><trkpt lon="34.851853" lat="31.37583"><ele>494</ele><time>2017-11-10T08:25:27.000Z</time></trkpt><trkpt lon="34.851837" lat="31.375781"><ele>493</ele><time>2017-11-10T08:25:28.000Z</time></trkpt><trkpt lon="34.851824" lat="31.375735"><ele>493</ele><time>2017-11-10T08:25:29.000Z</time></trkpt><trkpt lon="34.851826" lat="31.375694"><ele>493</ele><time>2017-11-10T08:25:30.000Z</time></trkpt><trkpt lon="34.851836" lat="31.375659"><ele>493</ele><time>2017-11-10T08:25:31.000Z</time></trkpt><trkpt lon="34.851838" lat="31.375631"><ele>494</ele><time>2017-11-10T08:25:32.000Z</time></trkpt><trkpt lon="34.851832" lat="31.375612"><ele>494</ele><time>2017-11-10T08:25:33.000Z</time></trkpt><trkpt lon="34.851832" lat="31.375612"><ele>494</ele><time>2017-11-10T08:25:34.000Z</time></trkpt><trkpt lon="34.851826" lat="31.375582"><ele>494</ele><time>2017-11-10T08:25:35.000Z</time></trkpt><trkpt lon="34.851826" lat="31.375582"><ele>494</ele><time>2017-11-10T08:25:36.000Z</time></trkpt><trkpt lon="34.851827" lat="31.375552"><ele>494</ele><time>2017-11-10T08:25:37.000Z</time></trkpt><trkpt lon="34.851834" lat="31.375535"><ele>494</ele><time>2017-11-10T08:25:38.000Z</time></trkpt><trkpt lon="34.851839" lat="31.375508"><ele>494</ele><time>2017-11-10T08:25:39.000Z</time></trkpt><trkpt lon="34.851839" lat="31.375478"><ele>494</ele><time>2017-11-10T08:25:40.000Z</time></trkpt><trkpt lon="34.851835" lat="31.375445"><ele>494</ele><time>2017-11-10T08:25:41.000Z</time></trkpt><trkpt lon="34.85183" lat="31.375412"><ele>494</ele><time>2017-11-10T08:25:42.000Z</time></trkpt><trkpt lon="34.851821" lat="31.37538"><ele>494</ele><time>2017-11-10T08:25:43.000Z</time></trkpt><trkpt lon="34.851811" lat="31.375351"><ele>494</ele><time>2017-11-10T08:25:44.000Z</time></trkpt><trkpt lon="34.851801" lat="31.375321"><ele>494</ele><time>2017-11-10T08:25:45.000Z</time></trkpt><trkpt lon="34.851791" lat="31.375289"><ele>494</ele><time>2017-11-10T08:25:46.000Z</time></trkpt><trkpt lon="34.851793" lat="31.37526"><ele>494</ele><time>2017-11-10T08:25:47.000Z</time></trkpt><trkpt lon="34.851806" lat="31.375238"><ele>494</ele><time>2017-11-10T08:25:48.000Z</time></trkpt><trkpt lon="34.851825" lat="31.37522"><ele>495</ele><time>2017-11-10T08:25:49.000Z</time></trkpt><trkpt lon="34.851848" lat="31.375207"><ele>495</ele><time>2017-11-10T08:25:50.000Z</time></trkpt><trkpt lon="34.851871" lat="31.375196"><ele>495</ele><time>2017-11-10T08:25:51.000Z</time></trkpt><trkpt lon="34.851894" lat="31.375187"><ele>495</ele><time>2017-11-10T08:25:52.000Z</time></trkpt><trkpt lon="34.851914" lat="31.375178"><ele>495</ele><time>2017-11-10T08:25:53.000Z</time></trkpt><trkpt lon="34.851914" lat="31.375178"><ele>495</ele><time>2017-11-10T08:25:54.000Z</time></trkpt><trkpt lon="34.851949" lat="31.375162"><ele>495</ele><time>2017-11-10T08:25:55.000Z</time></trkpt><trkpt lon="34.851972" lat="31.375152"><ele>495</ele><time>2017-11-10T08:25:56.000Z</time></trkpt><trkpt lon="34.851994" lat="31.375141"><ele>495</ele><time>2017-11-10T08:25:57.000Z</time></trkpt><trkpt lon="34.852023" lat="31.375121"><ele>495</ele><time>2017-11-10T08:25:58.000Z</time></trkpt><trkpt lon="34.852048" lat="31.375095"><ele>495</ele><time>2017-11-10T08:25:59.000Z</time></trkpt><trkpt lon="34.852067" lat="31.375063"><ele>495</ele><time>2017-11-10T08:26:00.000Z</time></trkpt><trkpt lon="34.852083" lat="31.375028"><ele>495</ele><time>2017-11-10T08:26:01.000Z</time></trkpt><trkpt lon="34.852098" lat="31.374994"><ele>495</ele><time>2017-11-10T08:26:02.000Z</time></trkpt><trkpt lon="34.85211" lat="31.374961"><ele>495</ele><time>2017-11-10T08:26:03.000Z</time></trkpt><trkpt lon="34.852121" lat="31.374932"><ele>495</ele><time>2017-11-10T08:26:04.000Z</time></trkpt><trkpt lon="34.852129" lat="31.374902"><ele>495</ele><time>2017-11-10T08:26:05.000Z</time></trkpt><trkpt lon="34.852143" lat="31.374876"><ele>495</ele><time>2017-11-10T08:26:06.000Z</time></trkpt><trkpt lon="34.852168" lat="31.374852"><ele>495</ele><time>2017-11-10T08:26:07.000Z</time></trkpt><trkpt lon="34.852198" lat="31.374825"><ele>495</ele><time>2017-11-10T08:26:08.000Z</time></trkpt><trkpt lon="34.852227" lat="31.374787"><ele>494</ele><time>2017-11-10T08:26:09.000Z</time></trkpt><trkpt lon="34.852248" lat="31.374749"><ele>494</ele><time>2017-11-10T08:26:10.000Z</time></trkpt><trkpt lon="34.852264" lat="31.374713"><ele>494</ele><time>2017-11-10T08:26:11.000Z</time></trkpt><trkpt lon="34.852274" lat="31.374679"><ele>495</ele><time>2017-11-10T08:26:12.000Z</time></trkpt><trkpt lon="34.852276" lat="31.374645"><ele>495</ele><time>2017-11-10T08:26:13.000Z</time></trkpt><trkpt lon="34.852276" lat="31.374613"><ele>495</ele><time>2017-11-10T08:26:14.000Z</time></trkpt><trkpt lon="34.852278" lat="31.374586"><ele>495</ele><time>2017-11-10T08:26:15.000Z</time></trkpt><trkpt lon="34.852287" lat="31.37456"><ele>495</ele><time>2017-11-10T08:26:16.000Z</time></trkpt><trkpt lon="34.852307" lat="31.374534"><ele>495</ele><time>2017-11-10T08:26:17.000Z</time></trkpt><trkpt lon="34.852335" lat="31.374509"><ele>495</ele><time>2017-11-10T08:26:18.000Z</time></trkpt><trkpt lon="34.852367" lat="31.374483"><ele>495</ele><time>2017-11-10T08:26:19.000Z</time></trkpt><trkpt lon="34.852395" lat="31.374454"><ele>495</ele><time>2017-11-10T08:26:20.000Z</time></trkpt><trkpt lon="34.852414" lat="31.374418"><ele>495</ele><time>2017-11-10T08:26:21.000Z</time></trkpt><trkpt lon="34.852426" lat="31.374377"><ele>495</ele><time>2017-11-10T08:26:22.000Z</time></trkpt><trkpt lon="34.85243" lat="31.374332"><ele>495</ele><time>2017-11-10T08:26:23.000Z</time></trkpt><trkpt lon="34.852431" lat="31.374288"><ele>494</ele><time>2017-11-10T08:26:24.000Z</time></trkpt><trkpt lon="34.852436" lat="31.374245"><ele>494</ele><time>2017-11-10T08:26:25.000Z</time></trkpt><trkpt lon="34.852451" lat="31.374203"><ele>493</ele><time>2017-11-10T08:26:26.000Z</time></trkpt><trkpt lon="34.852466" lat="31.374158"><ele>493</ele><time>2017-11-10T08:26:27.000Z</time></trkpt><trkpt lon="34.852481" lat="31.37411"><ele>493</ele><time>2017-11-10T08:26:28.000Z</time></trkpt><trkpt lon="34.852496" lat="31.374055"><ele>493</ele><time>2017-11-10T08:26:29.000Z</time></trkpt><trkpt lon="34.852498" lat="31.373998"><ele>492</ele><time>2017-11-10T08:26:30.000Z</time></trkpt><trkpt lon="34.852494" lat="31.373942"><ele>492</ele><time>2017-11-10T08:26:31.000Z</time></trkpt><trkpt lon="34.852491" lat="31.373889"><ele>492</ele><time>2017-11-10T08:26:32.000Z</time></trkpt><trkpt lon="34.852488" lat="31.373841"><ele>492</ele><time>2017-11-10T08:26:33.000Z</time></trkpt><trkpt lon="34.852481" lat="31.373805"><ele>492</ele><time>2017-11-10T08:26:34.000Z</time></trkpt><trkpt lon="34.852477" lat="31.373782"><ele>492</ele><time>2017-11-10T08:26:35.000Z</time></trkpt><trkpt lon="34.852477" lat="31.373782"><ele>492</ele><time>2017-11-10T08:26:36.000Z</time></trkpt><trkpt lon="34.852481" lat="31.373749"><ele>492</ele><time>2017-11-10T08:26:37.000Z</time></trkpt><trkpt lon="34.85249" lat="31.373729"><ele>492</ele><time>2017-11-10T08:26:38.000Z</time></trkpt><trkpt lon="34.852501" lat="31.373702"><ele>492</ele><time>2017-11-10T08:26:39.000Z</time></trkpt><trkpt lon="34.852509" lat="31.373671"><ele>492</ele><time>2017-11-10T08:26:40.000Z</time></trkpt><trkpt lon="34.852518" lat="31.373633"><ele>492</ele><time>2017-11-10T08:26:41.000Z</time></trkpt><trkpt lon="34.852534" lat="31.373595"><ele>492</ele><time>2017-11-10T08:26:42.000Z</time></trkpt><trkpt lon="34.852547" lat="31.373556"><ele>491</ele><time>2017-11-10T08:26:43.000Z</time></trkpt><trkpt lon="34.852555" lat="31.373515"><ele>491</ele><time>2017-11-10T08:26:44.000Z</time></trkpt><trkpt lon="34.852566" lat="31.373475"><ele>491</ele><time>2017-11-10T08:26:45.000Z</time></trkpt><trkpt lon="34.852581" lat="31.373437"><ele>491</ele><time>2017-11-10T08:26:46.000Z</time></trkpt><trkpt lon="34.852602" lat="31.373397"><ele>490</ele><time>2017-11-10T08:26:47.000Z</time></trkpt><trkpt lon="34.852623" lat="31.373352"><ele>490</ele><time>2017-11-10T08:26:48.000Z</time></trkpt><trkpt lon="34.852635" lat="31.373305"><ele>489</ele><time>2017-11-10T08:26:49.000Z</time></trkpt><trkpt lon="34.852647" lat="31.37326"><ele>489</ele><time>2017-11-10T08:26:50.000Z</time></trkpt><trkpt lon="34.852664" lat="31.373211"><ele>489</ele><time>2017-11-10T08:26:51.000Z</time></trkpt><trkpt lon="34.852679" lat="31.373163"><ele>489</ele><time>2017-11-10T08:26:52.000Z</time></trkpt><trkpt lon="34.852685" lat="31.373113"><ele>489</ele><time>2017-11-10T08:26:53.000Z</time></trkpt><trkpt lon="34.852684" lat="31.373062"><ele>489</ele><time>2017-11-10T08:26:54.000Z</time></trkpt><trkpt lon="34.852683" lat="31.373009"><ele>489</ele><time>2017-11-10T08:26:55.000Z</time></trkpt><trkpt lon="34.852682" lat="31.37296"><ele>489</ele><time>2017-11-10T08:26:56.000Z</time></trkpt><trkpt lon="34.852684" lat="31.372909"><ele>489</ele><time>2017-11-10T08:26:57.000Z</time></trkpt><trkpt lon="34.852681" lat="31.37286"><ele>489</ele><time>2017-11-10T08:26:58.000Z</time></trkpt><trkpt lon="34.85267" lat="31.372815"><ele>489</ele><time>2017-11-10T08:26:59.000Z</time></trkpt><trkpt lon="34.852649" lat="31.372777"><ele>489</ele><time>2017-11-10T08:27:00.000Z</time></trkpt><trkpt lon="34.852621" lat="31.372746"><ele>489</ele><time>2017-11-10T08:27:01.000Z</time></trkpt><trkpt lon="34.852595" lat="31.372718"><ele>489</ele><time>2017-11-10T08:27:02.000Z</time></trkpt><trkpt lon="34.852572" lat="31.372693"><ele>489</ele><time>2017-11-10T08:27:03.000Z</time></trkpt><trkpt lon="34.852546" lat="31.372673"><ele>489</ele><time>2017-11-10T08:27:04.000Z</time></trkpt><trkpt lon="34.852519" lat="31.372655"><ele>489</ele><time>2017-11-10T08:27:05.000Z</time></trkpt><trkpt lon="34.852497" lat="31.372639"><ele>489</ele><time>2017-11-10T08:27:06.000Z</time></trkpt><trkpt lon="34.852476" lat="31.372622"><ele>489</ele><time>2017-11-10T08:27:07.000Z</time></trkpt><trkpt lon="34.852449" lat="31.372603"><ele>489</ele><time>2017-11-10T08:27:08.000Z</time></trkpt><trkpt lon="34.852417" lat="31.37259"><ele>489</ele><time>2017-11-10T08:27:09.000Z</time></trkpt><trkpt lon="34.852387" lat="31.372577"><ele>489</ele><time>2017-11-10T08:27:10.000Z</time></trkpt><trkpt lon="34.852355" lat="31.372565"><ele>489</ele><time>2017-11-10T08:27:11.000Z</time></trkpt><trkpt lon="34.852316" lat="31.372554"><ele>489</ele><time>2017-11-10T08:27:12.000Z</time></trkpt><trkpt lon="34.852274" lat="31.37254"><ele>489</ele><time>2017-11-10T08:27:13.000Z</time></trkpt><trkpt lon="34.852231" lat="31.372528"><ele>489</ele><time>2017-11-10T08:27:14.000Z</time></trkpt><trkpt lon="34.852188" lat="31.372514"><ele>489</ele><time>2017-11-10T08:27:15.000Z</time></trkpt><trkpt lon="34.852147" lat="31.372498"><ele>489</ele><time>2017-11-10T08:27:16.000Z</time></trkpt><trkpt lon="34.852109" lat="31.372476"><ele>489</ele><time>2017-11-10T08:27:17.000Z</time></trkpt><trkpt lon="34.852073" lat="31.372458"><ele>489</ele><time>2017-11-10T08:27:18.000Z</time></trkpt><trkpt lon="34.852035" lat="31.372442"><ele>489</ele><time>2017-11-10T08:27:19.000Z</time></trkpt><trkpt lon="34.851997" lat="31.372426"><ele>489</ele><time>2017-11-10T08:27:20.000Z</time></trkpt><trkpt lon="34.851959" lat="31.372408"><ele>489</ele><time>2017-11-10T08:27:21.000Z</time></trkpt><trkpt lon="34.851927" lat="31.372386"><ele>489</ele><time>2017-11-10T08:27:22.000Z</time></trkpt><trkpt lon="34.851904" lat="31.372363"><ele>489</ele><time>2017-11-10T08:27:23.000Z</time></trkpt><trkpt lon="34.851884" lat="31.372338"><ele>489</ele><time>2017-11-10T08:27:24.000Z</time></trkpt><trkpt lon="34.851864" lat="31.372316"><ele>489</ele><time>2017-11-10T08:27:25.000Z</time></trkpt><trkpt lon="34.851848" lat="31.372297"><ele>489</ele><time>2017-11-10T08:27:26.000Z</time></trkpt><trkpt lon="34.851837" lat="31.372273"><ele>489</ele><time>2017-11-10T08:27:27.000Z</time></trkpt><trkpt lon="34.851825" lat="31.372239"><ele>489</ele><time>2017-11-10T08:27:28.000Z</time></trkpt><trkpt lon="34.851814" lat="31.372206"><ele>489</ele><time>2017-11-10T08:27:29.000Z</time></trkpt><trkpt lon="34.851807" lat="31.372171"><ele>489</ele><time>2017-11-10T08:27:30.000Z</time></trkpt><trkpt lon="34.851804" lat="31.372133"><ele>489</ele><time>2017-11-10T08:27:31.000Z</time></trkpt><trkpt lon="34.851803" lat="31.372097"><ele>489</ele><time>2017-11-10T08:27:32.000Z</time></trkpt><trkpt lon="34.851809" lat="31.372064"><ele>489</ele><time>2017-11-10T08:27:33.000Z</time></trkpt><trkpt lon="34.851824" lat="31.372035"><ele>489</ele><time>2017-11-10T08:27:34.000Z</time></trkpt><trkpt lon="34.851845" lat="31.372005"><ele>489</ele><time>2017-11-10T08:27:35.000Z</time></trkpt><trkpt lon="34.851866" lat="31.371969"><ele>489</ele><time>2017-11-10T08:27:36.000Z</time></trkpt><trkpt lon="34.851888" lat="31.371926"><ele>489</ele><time>2017-11-10T08:27:37.000Z</time></trkpt><trkpt lon="34.85191" lat="31.371882"><ele>488</ele><time>2017-11-10T08:27:38.000Z</time></trkpt><trkpt lon="34.851933" lat="31.371839"><ele>488</ele><time>2017-11-10T08:27:39.000Z</time></trkpt><trkpt lon="34.851965" lat="31.371798"><ele>488</ele><time>2017-11-10T08:27:40.000Z</time></trkpt><trkpt lon="34.852002" lat="31.37176"><ele>488</ele><time>2017-11-10T08:27:41.000Z</time></trkpt><trkpt lon="34.852045" lat="31.371719"><ele>488</ele><time>2017-11-10T08:27:42.000Z</time></trkpt><trkpt lon="34.85209" lat="31.371679"><ele>488</ele><time>2017-11-10T08:27:43.000Z</time></trkpt><trkpt lon="34.852131" lat="31.371636"><ele>487</ele><time>2017-11-10T08:27:44.000Z</time></trkpt><trkpt lon="34.852161" lat="31.371592"><ele>488</ele><time>2017-11-10T08:27:45.000Z</time></trkpt><trkpt lon="34.852192" lat="31.371556"><ele>488</ele><time>2017-11-10T08:27:46.000Z</time></trkpt><trkpt lon="34.852229" lat="31.371528"><ele>489</ele><time>2017-11-10T08:27:47.000Z</time></trkpt><trkpt lon="34.852271" lat="31.371501"><ele>489</ele><time>2017-11-10T08:27:48.000Z</time></trkpt><trkpt lon="34.852313" lat="31.371474"><ele>489</ele><time>2017-11-10T08:27:49.000Z</time></trkpt><trkpt lon="34.852355" lat="31.371445"><ele>489</ele><time>2017-11-10T08:27:50.000Z</time></trkpt><trkpt lon="34.852398" lat="31.371416"><ele>489</ele><time>2017-11-10T08:27:51.000Z</time></trkpt><trkpt lon="34.852444" lat="31.371383"><ele>489</ele><time>2017-11-10T08:27:52.000Z</time></trkpt><trkpt lon="34.852489" lat="31.371349"><ele>489</ele><time>2017-11-10T08:27:53.000Z</time></trkpt><trkpt lon="34.852532" lat="31.371314"><ele>488</ele><time>2017-11-10T08:27:54.000Z</time></trkpt><trkpt lon="34.852576" lat="31.371277"><ele>488</ele><time>2017-11-10T08:27:55.000Z</time></trkpt><trkpt lon="34.852626" lat="31.371241"><ele>488</ele><time>2017-11-10T08:27:56.000Z</time></trkpt><trkpt lon="34.852679" lat="31.371209"><ele>488</ele><time>2017-11-10T08:27:57.000Z</time></trkpt><trkpt lon="34.852733" lat="31.371177"><ele>487</ele><time>2017-11-10T08:27:58.000Z</time></trkpt><trkpt lon="34.852787" lat="31.371149"><ele>486</ele><time>2017-11-10T08:27:59.000Z</time></trkpt><trkpt lon="34.852836" lat="31.371128"><ele>486</ele><time>2017-11-10T08:28:00.000Z</time></trkpt><trkpt lon="34.852884" lat="31.371094"><ele>485.6</ele><time>2017-11-10T08:28:01.000Z</time></trkpt><trkpt lon="34.852929" lat="31.371058"><ele>485</ele><time>2017-11-10T08:28:02.000Z</time></trkpt><trkpt lon="34.85297" lat="31.371017"><ele>485</ele><time>2017-11-10T08:28:03.000Z</time></trkpt><trkpt lon="34.853" lat="31.37096"><ele>485</ele><time>2017-11-10T08:28:04.000Z</time></trkpt><trkpt lon="34.853014" lat="31.3709"><ele>485</ele><time>2017-11-10T08:28:05.000Z</time></trkpt><trkpt lon="34.853026" lat="31.370851"><ele>484</ele><time>2017-11-10T08:28:06.000Z</time></trkpt><trkpt lon="34.853046" lat="31.370807"><ele>484</ele><time>2017-11-10T08:28:07.000Z</time></trkpt><trkpt lon="34.853068" lat="31.370763"><ele>484</ele><time>2017-11-10T08:28:08.000Z</time></trkpt><trkpt lon="34.853087" lat="31.370712"><ele>484</ele><time>2017-11-10T08:28:09.000Z</time></trkpt><trkpt lon="34.853105" lat="31.370656"><ele>483</ele><time>2017-11-10T08:28:10.000Z</time></trkpt><trkpt lon="34.853129" lat="31.3706"><ele>483</ele><time>2017-11-10T08:28:11.000Z</time></trkpt><trkpt lon="34.853154" lat="31.370541"><ele>483</ele><time>2017-11-10T08:28:12.000Z</time></trkpt><trkpt lon="34.853172" lat="31.370484"><ele>483</ele><time>2017-11-10T08:28:13.000Z</time></trkpt><trkpt lon="34.8532" lat="31.370428"><ele>483</ele><time>2017-11-10T08:28:14.000Z</time></trkpt><trkpt lon="34.853233" lat="31.370374"><ele>482</ele><time>2017-11-10T08:28:15.000Z</time></trkpt><trkpt lon="34.853268" lat="31.370317"><ele>482</ele><time>2017-11-10T08:28:16.000Z</time></trkpt><trkpt lon="34.853305" lat="31.370259"><ele>481</ele><time>2017-11-10T08:28:17.000Z</time></trkpt><trkpt lon="34.853341" lat="31.370199"><ele>481</ele><time>2017-11-10T08:28:18.000Z</time></trkpt><trkpt lon="34.853366" lat="31.370141"><ele>481</ele><time>2017-11-10T08:28:19.000Z</time></trkpt><trkpt lon="34.8534" lat="31.370091"><ele>481</ele><time>2017-11-10T08:28:20.000Z</time></trkpt><trkpt lon="34.853448" lat="31.370045"><ele>481</ele><time>2017-11-10T08:28:21.000Z</time></trkpt><trkpt lon="34.853486" lat="31.369994"><ele>480</ele><time>2017-11-10T08:28:22.000Z</time></trkpt><trkpt lon="34.853509" lat="31.369942"><ele>480</ele><time>2017-11-10T08:28:23.000Z</time></trkpt><trkpt lon="34.85353" lat="31.369891"><ele>479</ele><time>2017-11-10T08:28:24.000Z</time></trkpt><trkpt lon="34.853553" lat="31.36984"><ele>479</ele><time>2017-11-10T08:28:25.000Z</time></trkpt><trkpt lon="34.853577" lat="31.369785"><ele>478</ele><time>2017-11-10T08:28:26.000Z</time></trkpt><trkpt lon="34.853593" lat="31.36973"><ele>478</ele><time>2017-11-10T08:28:27.000Z</time></trkpt><trkpt lon="34.853594" lat="31.369674"><ele>478</ele><time>2017-11-10T08:28:28.000Z</time></trkpt><trkpt lon="34.853591" lat="31.369621"><ele>478</ele><time>2017-11-10T08:28:29.000Z</time></trkpt><trkpt lon="34.85359" lat="31.369569"><ele>477</ele><time>2017-11-10T08:28:30.000Z</time></trkpt><trkpt lon="34.853596" lat="31.369515"><ele>477</ele><time>2017-11-10T08:28:31.000Z</time></trkpt><trkpt lon="34.853596" lat="31.369465"><ele>477</ele><time>2017-11-10T08:28:32.000Z</time></trkpt><trkpt lon="34.853595" lat="31.369422"><ele>477</ele><time>2017-11-10T08:28:33.000Z</time></trkpt><trkpt lon="34.853613" lat="31.369377"><ele>477</ele><time>2017-11-10T08:28:34.000Z</time></trkpt><trkpt lon="34.85364" lat="31.369335"><ele>476</ele><time>2017-11-10T08:28:35.000Z</time></trkpt><trkpt lon="34.853656" lat="31.369292"><ele>476</ele><time>2017-11-10T08:28:36.000Z</time></trkpt><trkpt lon="34.853657" lat="31.369251"><ele>476</ele><time>2017-11-10T08:28:37.000Z</time></trkpt><trkpt lon="34.853664" lat="31.369218"><ele>475</ele><time>2017-11-10T08:28:38.000Z</time></trkpt><trkpt lon="34.853679" lat="31.369176"><ele>474</ele><time>2017-11-10T08:28:39.000Z</time></trkpt><trkpt lon="34.853694" lat="31.369131"><ele>473</ele><time>2017-11-10T08:28:40.000Z</time></trkpt><trkpt lon="34.853705" lat="31.369083"><ele>473</ele><time>2017-11-10T08:28:41.000Z</time></trkpt><trkpt lon="34.85371" lat="31.369033"><ele>473</ele><time>2017-11-10T08:28:42.000Z</time></trkpt><trkpt lon="34.85371" lat="31.368979"><ele>473</ele><time>2017-11-10T08:28:43.000Z</time></trkpt><trkpt lon="34.853706" lat="31.368926"><ele>472</ele><time>2017-11-10T08:28:44.000Z</time></trkpt><trkpt lon="34.853695" lat="31.368876"><ele>472</ele><time>2017-11-10T08:28:45.000Z</time></trkpt><trkpt lon="34.853682" lat="31.368825"><ele>472</ele><time>2017-11-10T08:28:46.000Z</time></trkpt><trkpt lon="34.853672" lat="31.368779"><ele>472</ele><time>2017-11-10T08:28:47.000Z</time></trkpt><trkpt lon="34.853671" lat="31.368734"><ele>472</ele><time>2017-11-10T08:28:48.000Z</time></trkpt><trkpt lon="34.853678" lat="31.368692"><ele>472</ele><time>2017-11-10T08:28:49.000Z</time></trkpt><trkpt lon="34.853688" lat="31.368649"><ele>472</ele><time>2017-11-10T08:28:50.000Z</time></trkpt><trkpt lon="34.853696" lat="31.368603"><ele>472</ele><time>2017-11-10T08:28:51.000Z</time></trkpt><trkpt lon="34.853703" lat="31.368559"><ele>472</ele><time>2017-11-10T08:28:52.000Z</time></trkpt><trkpt lon="34.853716" lat="31.368513"><ele>472</ele><time>2017-11-10T08:28:53.000Z</time></trkpt><trkpt lon="34.85373" lat="31.368466"><ele>472</ele><time>2017-11-10T08:28:54.000Z</time></trkpt><trkpt lon="34.85375" lat="31.36842"><ele>472</ele><time>2017-11-10T08:28:55.000Z</time></trkpt><trkpt lon="34.853773" lat="31.368373"><ele>471</ele><time>2017-11-10T08:28:56.000Z</time></trkpt><trkpt lon="34.853795" lat="31.368327"><ele>471</ele><time>2017-11-10T08:28:57.000Z</time></trkpt><trkpt lon="34.853819" lat="31.368277"><ele>471</ele><time>2017-11-10T08:28:58.000Z</time></trkpt><trkpt lon="34.853846" lat="31.368223"><ele>471</ele><time>2017-11-10T08:28:59.000Z</time></trkpt><trkpt lon="34.853868" lat="31.368165"><ele>471</ele><time>2017-11-10T08:29:00.000Z</time></trkpt><trkpt lon="34.853884" lat="31.368108"><ele>470</ele><time>2017-11-10T08:29:01.000Z</time></trkpt><trkpt lon="34.853902" lat="31.368051"><ele>470</ele><time>2017-11-10T08:29:02.000Z</time></trkpt><trkpt lon="34.853923" lat="31.367993"><ele>470</ele><time>2017-11-10T08:29:03.000Z</time></trkpt><trkpt lon="34.853941" lat="31.367937"><ele>470</ele><time>2017-11-10T08:29:04.000Z</time></trkpt><trkpt lon="34.853971" lat="31.367887"><ele>470</ele><time>2017-11-10T08:29:05.000Z</time></trkpt><trkpt lon="34.853998" lat="31.367839"><ele>469</ele><time>2017-11-10T08:29:06.000Z</time></trkpt><trkpt lon="34.854013" lat="31.36779"><ele>468</ele><time>2017-11-10T08:29:07.000Z</time></trkpt><trkpt lon="34.854026" lat="31.367738"><ele>468</ele><time>2017-11-10T08:29:08.000Z</time></trkpt><trkpt lon="34.854043" lat="31.367687"><ele>468</ele><time>2017-11-10T08:29:09.000Z</time></trkpt><trkpt lon="34.854063" lat="31.36763"><ele>467</ele><time>2017-11-10T08:29:10.000Z</time></trkpt><trkpt lon="34.854082" lat="31.367568"><ele>466</ele><time>2017-11-10T08:29:11.000Z</time></trkpt><trkpt lon="34.854095" lat="31.367507"><ele>466</ele><time>2017-11-10T08:29:12.000Z</time></trkpt><trkpt lon="34.854096" lat="31.367447"><ele>466</ele><time>2017-11-10T08:29:13.000Z</time></trkpt><trkpt lon="34.854088" lat="31.367391"><ele>466</ele><time>2017-11-10T08:29:14.000Z</time></trkpt><trkpt lon="34.854066" lat="31.367338"><ele>466</ele><time>2017-11-10T08:29:15.000Z</time></trkpt><trkpt lon="34.854047" lat="31.367281"><ele>465</ele><time>2017-11-10T08:29:16.000Z</time></trkpt><trkpt lon="34.854044" lat="31.367225"><ele>464</ele><time>2017-11-10T08:29:17.000Z</time></trkpt><trkpt lon="34.85407" lat="31.367182"><ele>464</ele><time>2017-11-10T08:29:18.000Z</time></trkpt><trkpt lon="34.854108" lat="31.367164"><ele>463</ele><time>2017-11-10T08:29:19.000Z</time></trkpt><trkpt lon="34.854143" lat="31.367151"><ele>462</ele><time>2017-11-10T08:29:20.000Z</time></trkpt><trkpt lon="34.854168" lat="31.367124"><ele>461</ele><time>2017-11-10T08:29:21.000Z</time></trkpt><trkpt lon="34.854186" lat="31.367084"><ele>460</ele><time>2017-11-10T08:29:22.000Z</time></trkpt><trkpt lon="34.85421" lat="31.36704"><ele>460</ele><time>2017-11-10T08:29:23.000Z</time></trkpt><trkpt lon="34.854238" lat="31.366999"><ele>461</ele><time>2017-11-10T08:29:24.000Z</time></trkpt><trkpt lon="34.85427" lat="31.366947"><ele>460</ele><time>2017-11-10T08:29:25.000Z</time></trkpt><trkpt lon="34.854296" lat="31.366892"><ele>459</ele><time>2017-11-10T08:29:26.000Z</time></trkpt><trkpt lon="34.85431" lat="31.366835"><ele>459</ele><time>2017-11-10T08:29:27.000Z</time></trkpt><trkpt lon="34.854318" lat="31.366781"><ele>459</ele><time>2017-11-10T08:29:28.000Z</time></trkpt><trkpt lon="34.854322" lat="31.366732"><ele>459</ele><time>2017-11-10T08:29:29.000Z</time></trkpt><trkpt lon="34.85433" lat="31.366688"><ele>459</ele><time>2017-11-10T08:29:30.000Z</time></trkpt><trkpt lon="34.854345" lat="31.366663"><ele>458</ele><time>2017-11-10T08:29:31.000Z</time></trkpt><trkpt lon="34.854345" lat="31.366663"><ele>458</ele><time>2017-11-10T08:29:32.000Z</time></trkpt><trkpt lon="34.854371" lat="31.366656"><ele>458</ele><time>2017-11-10T08:29:33.000Z</time></trkpt><trkpt lon="34.854371" lat="31.366656"><ele>458</ele><time>2017-11-10T08:29:34.000Z</time></trkpt><trkpt lon="34.854371" lat="31.366656"><ele>458</ele><time>2017-11-10T08:29:35.000Z</time></trkpt><trkpt lon="34.854371" lat="31.366656"><ele>458</ele><time>2017-11-10T08:29:36.000Z</time></trkpt><trkpt lon="34.854371" lat="31.366656"><ele>458</ele><time>2017-11-10T08:29:37.000Z</time></trkpt><trkpt lon="34.854371" lat="31.366656"><ele>458</ele><time>2017-11-10T08:29:38.000Z</time></trkpt><trkpt lon="34.854371" lat="31.366656"><ele>458</ele><time>2017-11-10T08:29:39.000Z</time></trkpt><trkpt lon="34.854371" lat="31.366656"><ele>458</ele><time>2017-11-10T08:29:40.000Z</time></trkpt><trkpt lon="34.854371" lat="31.366656"><ele>458</ele><time>2017-11-10T08:29:41.000Z</time></trkpt><trkpt lon="34.854371" lat="31.366656"><ele>458</ele><time>2017-11-10T08:29:42.000Z</time></trkpt><trkpt lon="34.854371" lat="31.366656"><ele>458</ele><time>2017-11-10T08:29:43.000Z</time></trkpt><trkpt lon="34.854371" lat="31.366656"><ele>458</ele><time>2017-11-10T08:29:44.000Z</time></trkpt><trkpt lon="34.854371" lat="31.366656"><ele>458</ele><time>2017-11-10T08:29:45.000Z</time></trkpt><trkpt lon="34.854371" lat="31.366656"><ele>458</ele><time>2017-11-10T08:29:46.000Z</time></trkpt><trkpt lon="34.854371" lat="31.366656"><ele>458</ele><time>2017-11-10T08:29:47.000Z</time></trkpt><trkpt lon="34.854371" lat="31.366656"><ele>458</ele><time>2017-11-10T08:29:48.000Z</time></trkpt><trkpt lon="34.854371" lat="31.366656"><ele>458</ele><time>2017-11-10T08:29:49.000Z</time></trkpt><trkpt lon="34.854371" lat="31.366656"><ele>458</ele><time>2017-11-10T08:29:50.000Z</time></trkpt><trkpt lon="34.854371" lat="31.366656"><ele>458</ele><time>2017-11-10T08:29:51.000Z</time></trkpt><trkpt lon="34.854371" lat="31.366656"><ele>458</ele><time>2017-11-10T08:29:52.000Z</time></trkpt><trkpt lon="34.854371" lat="31.366656"><ele>458</ele><time>2017-11-10T08:29:53.000Z</time></trkpt><trkpt lon="34.854371" lat="31.366656"><ele>458</ele><time>2017-11-10T08:29:54.000Z</time></trkpt><trkpt lon="34.854371" lat="31.366656"><ele>458</ele><time>2017-11-10T08:29:55.000Z</time></trkpt><trkpt lon="34.854371" lat="31.366656"><ele>458</ele><time>2017-11-10T08:29:56.000Z</time></trkpt><trkpt lon="34.854371" lat="31.366656"><ele>458</ele><time>2017-11-10T08:29:57.000Z</time></trkpt><trkpt lon="34.854371" lat="31.366656"><ele>458</ele><time>2017-11-10T08:29:58.000Z</time></trkpt><trkpt lon="34.854371" lat="31.366656"><ele>458</ele><time>2017-11-10T08:29:59.000Z</time></trkpt><trkpt lon="34.854371" lat="31.366656"><ele>458</ele><time>2017-11-10T08:30:00.000Z</time></trkpt><trkpt lon="34.854371" lat="31.366656"><ele>458</ele><time>2017-11-10T08:30:01.000Z</time></trkpt><trkpt lon="34.854371" lat="31.366656"><ele>458</ele><time>2017-11-10T08:30:02.000Z</time></trkpt><trkpt lon="34.854371" lat="31.366656"><ele>458</ele><time>2017-11-10T08:30:03.000Z</time></trkpt><trkpt lon="34.854371" lat="31.366656"><ele>458</ele><time>2017-11-10T08:30:04.000Z</time></trkpt><trkpt lon="34.854371" lat="31.366656"><ele>457</ele><time>2017-11-10T08:30:05.000Z</time></trkpt><trkpt lon="34.854371" lat="31.366656"><ele>457</ele><time>2017-11-10T08:30:06.000Z</time></trkpt><trkpt lon="34.854371" lat="31.366656"><ele>457</ele><time>2017-11-10T08:30:07.000Z</time></trkpt><trkpt lon="34.854371" lat="31.366656"><ele>458</ele><time>2017-11-10T08:30:08.000Z</time></trkpt><trkpt lon="34.854371" lat="31.366656"><ele>458</ele><time>2017-11-10T08:30:09.000Z</time></trkpt><trkpt lon="34.854394" lat="31.366661"><ele>458</ele><time>2017-11-10T08:30:11.000Z</time></trkpt><trkpt lon="34.854394" lat="31.366661"><ele>458</ele><time>2017-11-10T08:30:12.000Z</time></trkpt><trkpt lon="34.854422" lat="31.366682"><ele>458</ele><time>2017-11-10T08:30:13.000Z</time></trkpt><trkpt lon="34.854422" lat="31.366682"><ele>458</ele><time>2017-11-10T08:30:14.000Z</time></trkpt><trkpt lon="34.854443" lat="31.366706"><ele>458</ele><time>2017-11-10T08:30:15.000Z</time></trkpt><trkpt lon="34.854443" lat="31.366706"><ele>458</ele><time>2017-11-10T08:30:16.000Z</time></trkpt><trkpt lon="34.854484" lat="31.366707"><ele>458</ele><time>2017-11-10T08:30:17.000Z</time></trkpt><trkpt lon="34.85451" lat="31.366702"><ele>458</ele><time>2017-11-10T08:30:18.000Z</time></trkpt><trkpt lon="34.854536" lat="31.366694"><ele>458</ele><time>2017-11-10T08:30:19.000Z</time></trkpt><trkpt lon="34.854562" lat="31.366687"><ele>458</ele><time>2017-11-10T08:30:20.000Z</time></trkpt><trkpt lon="34.854587" lat="31.366681"><ele>458</ele><time>2017-11-10T08:30:21.000Z</time></trkpt><trkpt lon="34.854611" lat="31.366675"><ele>458</ele><time>2017-11-10T08:30:22.000Z</time></trkpt><trkpt lon="34.854635" lat="31.366667"><ele>458</ele><time>2017-11-10T08:30:23.000Z</time></trkpt><trkpt lon="34.854658" lat="31.366661"><ele>458</ele><time>2017-11-10T08:30:24.000Z</time></trkpt><trkpt lon="34.854681" lat="31.36666"><ele>459</ele><time>2017-11-10T08:30:25.000Z</time></trkpt><trkpt lon="34.854706" lat="31.366663"><ele>459</ele><time>2017-11-10T08:30:26.000Z</time></trkpt><trkpt lon="34.854734" lat="31.366666"><ele>459</ele><time>2017-11-10T08:30:27.000Z</time></trkpt><trkpt lon="34.854757" lat="31.366667"><ele>459</ele><time>2017-11-10T08:30:28.000Z</time></trkpt><trkpt lon="34.85478" lat="31.366671"><ele>459</ele><time>2017-11-10T08:30:29.000Z</time></trkpt><trkpt lon="34.854803" lat="31.366672"><ele>459</ele><time>2017-11-10T08:30:30.000Z</time></trkpt><trkpt lon="34.854826" lat="31.36667"><ele>459</ele><time>2017-11-10T08:30:31.000Z</time></trkpt><trkpt lon="34.854852" lat="31.366669"><ele>459</ele><time>2017-11-10T08:30:32.000Z</time></trkpt><trkpt lon="34.854881" lat="31.366666"><ele>459</ele><time>2017-11-10T08:30:33.000Z</time></trkpt><trkpt lon="34.854911" lat="31.366662"><ele>459</ele><time>2017-11-10T08:30:34.000Z</time></trkpt><trkpt lon="34.854942" lat="31.366659"><ele>459</ele><time>2017-11-10T08:30:35.000Z</time></trkpt><trkpt lon="34.854974" lat="31.366656"><ele>459</ele><time>2017-11-10T08:30:36.000Z</time></trkpt><trkpt lon="34.855006" lat="31.366656"><ele>459</ele><time>2017-11-10T08:30:37.000Z</time></trkpt><trkpt lon="34.855036" lat="31.366658"><ele>459</ele><time>2017-11-10T08:30:38.000Z</time></trkpt><trkpt lon="34.855064" lat="31.366663"><ele>459</ele><time>2017-11-10T08:30:39.000Z</time></trkpt><trkpt lon="34.855089" lat="31.366669"><ele>459</ele><time>2017-11-10T08:30:40.000Z</time></trkpt><trkpt lon="34.85511" lat="31.366678"><ele>459</ele><time>2017-11-10T08:30:41.000Z</time></trkpt><trkpt lon="34.85513" lat="31.366688"><ele>459</ele><time>2017-11-10T08:30:42.000Z</time></trkpt><trkpt lon="34.855151" lat="31.366698"><ele>459</ele><time>2017-11-10T08:30:43.000Z</time></trkpt><trkpt lon="34.855168" lat="31.366709"><ele>460</ele><time>2017-11-10T08:30:44.000Z</time></trkpt><trkpt lon="34.855168" lat="31.366709"><ele>460</ele><time>2017-11-10T08:30:45.000Z</time></trkpt><trkpt lon="34.855193" lat="31.366727"><ele>460</ele><time>2017-11-10T08:30:46.000Z</time></trkpt><trkpt lon="34.855193" lat="31.366727"><ele>460</ele><time>2017-11-10T08:30:47.000Z</time></trkpt><trkpt lon="34.855208" lat="31.366758"><ele>460</ele><time>2017-11-10T08:30:48.000Z</time></trkpt><trkpt lon="34.85521" lat="31.366776"><ele>460</ele><time>2017-11-10T08:30:49.000Z</time></trkpt><trkpt lon="34.855212" lat="31.366794"><ele>461</ele><time>2017-11-10T08:30:50.000Z</time></trkpt><trkpt lon="34.855219" lat="31.366811"><ele>461</ele><time>2017-11-10T08:30:51.000Z</time></trkpt><trkpt lon="34.855224" lat="31.366829"><ele>461</ele><time>2017-11-10T08:30:52.000Z</time></trkpt><trkpt lon="34.855228" lat="31.366849"><ele>461</ele><time>2017-11-10T08:30:53.000Z</time></trkpt><trkpt lon="34.855232" lat="31.36687"><ele>461</ele><time>2017-11-10T08:30:54.000Z</time></trkpt><trkpt lon="34.855236" lat="31.366895"><ele>461</ele><time>2017-11-10T08:30:55.000Z</time></trkpt><trkpt lon="34.85524" lat="31.36692"><ele>461</ele><time>2017-11-10T08:30:56.000Z</time></trkpt><trkpt lon="34.855248" lat="31.366946"><ele>461</ele><time>2017-11-10T08:30:57.000Z</time></trkpt><trkpt lon="34.855256" lat="31.366971"><ele>461</ele><time>2017-11-10T08:30:58.000Z</time></trkpt><trkpt lon="34.85526" lat="31.366997"><ele>461</ele><time>2017-11-10T08:30:59.000Z</time></trkpt><trkpt lon="34.855265" lat="31.367023"><ele>461</ele><time>2017-11-10T08:31:00.000Z</time></trkpt><trkpt lon="34.855271" lat="31.367048"><ele>461</ele><time>2017-11-10T08:31:01.000Z</time></trkpt><trkpt lon="34.855273" lat="31.367073"><ele>461</ele><time>2017-11-10T08:31:02.000Z</time></trkpt><trkpt lon="34.855276" lat="31.3671"><ele>461</ele><time>2017-11-10T08:31:03.000Z</time></trkpt><trkpt lon="34.855284" lat="31.367126"><ele>461</ele><time>2017-11-10T08:31:04.000Z</time></trkpt><trkpt lon="34.855293" lat="31.367151"><ele>461</ele><time>2017-11-10T08:31:05.000Z</time></trkpt><trkpt lon="34.855302" lat="31.367175"><ele>461</ele><time>2017-11-10T08:31:06.000Z</time></trkpt><trkpt lon="34.85531" lat="31.367202"><ele>462</ele><time>2017-11-10T08:31:07.000Z</time></trkpt><trkpt lon="34.855321" lat="31.367229"><ele>462</ele><time>2017-11-10T08:31:08.000Z</time></trkpt><trkpt lon="34.85533" lat="31.367256"><ele>463</ele><time>2017-11-10T08:31:09.000Z</time></trkpt><trkpt lon="34.855338" lat="31.367281"><ele>463</ele><time>2017-11-10T08:31:10.000Z</time></trkpt><trkpt lon="34.855346" lat="31.367306"><ele>463</ele><time>2017-11-10T08:31:11.000Z</time></trkpt><trkpt lon="34.855353" lat="31.367329"><ele>463</ele><time>2017-11-10T08:31:12.000Z</time></trkpt><trkpt lon="34.85536" lat="31.36735"><ele>463</ele><time>2017-11-10T08:31:13.000Z</time></trkpt><trkpt lon="34.855372" lat="31.367369"><ele>463</ele><time>2017-11-10T08:31:14.000Z</time></trkpt><trkpt lon="34.855387" lat="31.367386"><ele>463</ele><time>2017-11-10T08:31:15.000Z</time></trkpt><trkpt lon="34.855402" lat="31.367404"><ele>463</ele><time>2017-11-10T08:31:16.000Z</time></trkpt><trkpt lon="34.855415" lat="31.36742"><ele>462</ele><time>2017-11-10T08:31:17.000Z</time></trkpt><trkpt lon="34.855431" lat="31.367435"><ele>462</ele><time>2017-11-10T08:31:18.000Z</time></trkpt><trkpt lon="34.85545" lat="31.367449"><ele>463</ele><time>2017-11-10T08:31:19.000Z</time></trkpt><trkpt lon="34.855466" lat="31.367463"><ele>463</ele><time>2017-11-10T08:31:20.000Z</time></trkpt><trkpt lon="34.855483" lat="31.367477"><ele>463</ele><time>2017-11-10T08:31:21.000Z</time></trkpt><trkpt lon="34.855502" lat="31.36749"><ele>463</ele><time>2017-11-10T08:31:22.000Z</time></trkpt><trkpt lon="34.855523" lat="31.367501"><ele>463</ele><time>2017-11-10T08:31:23.000Z</time></trkpt><trkpt lon="34.855545" lat="31.367513"><ele>464</ele><time>2017-11-10T08:31:24.000Z</time></trkpt><trkpt lon="34.855569" lat="31.367526"><ele>464</ele><time>2017-11-10T08:31:25.000Z</time></trkpt><trkpt lon="34.855594" lat="31.367538"><ele>464</ele><time>2017-11-10T08:31:26.000Z</time></trkpt><trkpt lon="34.855622" lat="31.36755"><ele>465</ele><time>2017-11-10T08:31:27.000Z</time></trkpt><trkpt lon="34.855651" lat="31.36756"><ele>465</ele><time>2017-11-10T08:31:28.000Z</time></trkpt><trkpt lon="34.855683" lat="31.367566"><ele>466</ele><time>2017-11-10T08:31:29.000Z</time></trkpt><trkpt lon="34.855718" lat="31.367569"><ele>466</ele><time>2017-11-10T08:31:30.000Z</time></trkpt><trkpt lon="34.855754" lat="31.367572"><ele>467</ele><time>2017-11-10T08:31:31.000Z</time></trkpt><trkpt lon="34.85579" lat="31.367574"><ele>467</ele><time>2017-11-10T08:31:32.000Z</time></trkpt><trkpt lon="34.855825" lat="31.367575"><ele>467</ele><time>2017-11-10T08:31:33.000Z</time></trkpt><trkpt lon="34.85586" lat="31.367578"><ele>467</ele><time>2017-11-10T08:31:34.000Z</time></trkpt><trkpt lon="34.855895" lat="31.36758"><ele>467</ele><time>2017-11-10T08:31:35.000Z</time></trkpt><trkpt lon="34.855926" lat="31.367584"><ele>468</ele><time>2017-11-10T08:31:36.000Z</time></trkpt><trkpt lon="34.855953" lat="31.367591"><ele>468</ele><time>2017-11-10T08:31:37.000Z</time></trkpt><trkpt lon="34.855978" lat="31.367599"><ele>469</ele><time>2017-11-10T08:31:38.000Z</time></trkpt><trkpt lon="34.856001" lat="31.367604"><ele>469</ele><time>2017-11-10T08:31:39.000Z</time></trkpt><trkpt lon="34.856021" lat="31.36761"><ele>470</ele><time>2017-11-10T08:31:40.000Z</time></trkpt><trkpt lon="34.856021" lat="31.36761"><ele>471</ele><time>2017-11-10T08:31:41.000Z</time></trkpt><trkpt lon="34.856059" lat="31.36762"><ele>471</ele><time>2017-11-10T08:31:42.000Z</time></trkpt><trkpt lon="34.856059" lat="31.36762"><ele>471</ele><time>2017-11-10T08:31:43.000Z</time></trkpt><trkpt lon="34.856096" lat="31.367629"><ele>471</ele><time>2017-11-10T08:31:44.000Z</time></trkpt><trkpt lon="34.856096" lat="31.367629"><ele>471</ele><time>2017-11-10T08:31:45.000Z</time></trkpt><trkpt lon="34.856136" lat="31.367636"><ele>471</ele><time>2017-11-10T08:31:46.000Z</time></trkpt><trkpt lon="34.856157" lat="31.367639"><ele>471</ele><time>2017-11-10T08:31:47.000Z</time></trkpt><trkpt lon="34.856178" lat="31.367644"><ele>471</ele><time>2017-11-10T08:31:48.000Z</time></trkpt><trkpt lon="34.856198" lat="31.367652"><ele>471.6</ele><time>2017-11-10T08:31:49.000Z</time></trkpt><trkpt lon="34.856218" lat="31.367659"><ele>472</ele><time>2017-11-10T08:31:50.000Z</time></trkpt><trkpt lon="34.856239" lat="31.367663"><ele>472</ele><time>2017-11-10T08:31:51.000Z</time></trkpt><trkpt lon="34.85626" lat="31.367667"><ele>472</ele><time>2017-11-10T08:31:52.000Z</time></trkpt><trkpt lon="34.85626" lat="31.367667"><ele>472</ele><time>2017-11-10T08:31:53.000Z</time></trkpt><trkpt lon="34.856299" lat="31.367678"><ele>472</ele><time>2017-11-10T08:31:54.000Z</time></trkpt><trkpt lon="34.856299" lat="31.367678"><ele>472</ele><time>2017-11-10T08:31:55.000Z</time></trkpt><trkpt lon="34.856337" lat="31.367693"><ele>472</ele><time>2017-11-10T08:31:56.000Z</time></trkpt><trkpt lon="34.856357" lat="31.367698"><ele>472</ele><time>2017-11-10T08:31:57.000Z</time></trkpt><trkpt lon="34.856378" lat="31.367703"><ele>472</ele><time>2017-11-10T08:31:58.000Z</time></trkpt><trkpt lon="34.8564" lat="31.367707"><ele>472</ele><time>2017-11-10T08:31:59.000Z</time></trkpt><trkpt lon="34.856422" lat="31.367712"><ele>472</ele><time>2017-11-10T08:32:00.000Z</time></trkpt><trkpt lon="34.856444" lat="31.367716"><ele>473</ele><time>2017-11-10T08:32:01.000Z</time></trkpt><trkpt lon="34.856465" lat="31.367719"><ele>473</ele><time>2017-11-10T08:32:02.000Z</time></trkpt><trkpt lon="34.856465" lat="31.367719"><ele>473</ele><time>2017-11-10T08:32:03.000Z</time></trkpt><trkpt lon="34.856505" lat="31.367725"><ele>473</ele><time>2017-11-10T08:32:04.000Z</time></trkpt><trkpt lon="34.856527" lat="31.367729"><ele>473</ele><time>2017-11-10T08:32:05.000Z</time></trkpt><trkpt lon="34.856527" lat="31.367729"><ele>473</ele><time>2017-11-10T08:32:06.000Z</time></trkpt><trkpt lon="34.856568" lat="31.36773"><ele>473</ele><time>2017-11-10T08:32:07.000Z</time></trkpt><trkpt lon="34.856568" lat="31.36773"><ele>473</ele><time>2017-11-10T08:32:08.000Z</time></trkpt><trkpt lon="34.856607" lat="31.367738"><ele>473</ele><time>2017-11-10T08:32:09.000Z</time></trkpt><trkpt lon="34.856626" lat="31.367745"><ele>473</ele><time>2017-11-10T08:32:10.000Z</time></trkpt><trkpt lon="34.856626" lat="31.367745"><ele>473</ele><time>2017-11-10T08:32:11.000Z</time></trkpt><trkpt lon="34.856663" lat="31.367754"><ele>474</ele><time>2017-11-10T08:32:12.000Z</time></trkpt><trkpt lon="34.856663" lat="31.367754"><ele>474</ele><time>2017-11-10T08:32:13.000Z</time></trkpt><trkpt lon="34.856699" lat="31.367764"><ele>474</ele><time>2017-11-10T08:32:14.000Z</time></trkpt><trkpt lon="34.856699" lat="31.367764"><ele>474</ele><time>2017-11-10T08:32:15.000Z</time></trkpt><trkpt lon="34.856736" lat="31.367764"><ele>474</ele><time>2017-11-10T08:32:16.000Z</time></trkpt><trkpt lon="34.856736" lat="31.367764"><ele>475</ele><time>2017-11-10T08:32:17.000Z</time></trkpt><trkpt lon="34.856774" lat="31.367771"><ele>475</ele><time>2017-11-10T08:32:18.000Z</time></trkpt><trkpt lon="34.856774" lat="31.367771"><ele>475</ele><time>2017-11-10T08:32:19.000Z</time></trkpt><trkpt lon="34.85681" lat="31.367776"><ele>475</ele><time>2017-11-10T08:32:20.000Z</time></trkpt><trkpt lon="34.85681" lat="31.367776"><ele>475</ele><time>2017-11-10T08:32:21.000Z</time></trkpt><trkpt lon="34.856844" lat="31.367777"><ele>475</ele><time>2017-11-10T08:32:22.000Z</time></trkpt><trkpt lon="34.856844" lat="31.367777"><ele>476</ele><time>2017-11-10T08:32:23.000Z</time></trkpt><trkpt lon="34.856878" lat="31.367779"><ele>476</ele><time>2017-11-10T08:32:24.000Z</time></trkpt><trkpt lon="34.856878" lat="31.367779"><ele>476</ele><time>2017-11-10T08:32:25.000Z</time></trkpt><trkpt lon="34.856913" lat="31.367788"><ele>476</ele><time>2017-11-10T08:32:26.000Z</time></trkpt><trkpt lon="34.856913" lat="31.367788"><ele>476</ele><time>2017-11-10T08:32:27.000Z</time></trkpt><trkpt lon="34.856949" lat="31.367797"><ele>476</ele><time>2017-11-10T08:32:28.000Z</time></trkpt><trkpt lon="34.856949" lat="31.367797"><ele>476</ele><time>2017-11-10T08:32:29.000Z</time></trkpt><trkpt lon="34.856981" lat="31.367808"><ele>476</ele><time>2017-11-10T08:32:30.000Z</time></trkpt><trkpt lon="34.856981" lat="31.367808"><ele>476</ele><time>2017-11-10T08:32:31.000Z</time></trkpt><trkpt lon="34.857016" lat="31.367813"><ele>476</ele><time>2017-11-10T08:32:32.000Z</time></trkpt><trkpt lon="34.857016" lat="31.367813"><ele>476</ele><time>2017-11-10T08:32:33.000Z</time></trkpt><trkpt lon="34.857049" lat="31.367822"><ele>476</ele><time>2017-11-10T08:32:34.000Z</time></trkpt><trkpt lon="34.857049" lat="31.367822"><ele>476</ele><time>2017-11-10T08:32:35.000Z</time></trkpt><trkpt lon="34.857087" lat="31.367832"><ele>476</ele><time>2017-11-10T08:32:36.000Z</time></trkpt><trkpt lon="34.857109" lat="31.367839"><ele>476</ele><time>2017-11-10T08:32:37.000Z</time></trkpt><trkpt lon="34.857128" lat="31.367848"><ele>476</ele><time>2017-11-10T08:32:38.000Z</time></trkpt><trkpt lon="34.857128" lat="31.367848"><ele>476</ele><time>2017-11-10T08:32:39.000Z</time></trkpt><trkpt lon="34.857163" lat="31.36786"><ele>476</ele><time>2017-11-10T08:32:40.000Z</time></trkpt><trkpt lon="34.857163" lat="31.36786"><ele>476</ele><time>2017-11-10T08:32:41.000Z</time></trkpt><trkpt lon="34.857204" lat="31.367869"><ele>476</ele><time>2017-11-10T08:32:42.000Z</time></trkpt><trkpt lon="34.857224" lat="31.367878"><ele>477</ele><time>2017-11-10T08:32:43.000Z</time></trkpt><trkpt lon="34.857224" lat="31.367878"><ele>477</ele><time>2017-11-10T08:32:44.000Z</time></trkpt><trkpt lon="34.857256" lat="31.367899"><ele>477</ele><time>2017-11-10T08:32:45.000Z</time></trkpt><trkpt lon="34.857275" lat="31.36791"><ele>477</ele><time>2017-11-10T08:32:46.000Z</time></trkpt><trkpt lon="34.857297" lat="31.367918"><ele>477</ele><time>2017-11-10T08:32:47.000Z</time></trkpt><trkpt lon="34.857318" lat="31.367927"><ele>477</ele><time>2017-11-10T08:32:48.000Z</time></trkpt><trkpt lon="34.857342" lat="31.367933"><ele>477</ele><time>2017-11-10T08:32:49.000Z</time></trkpt><trkpt lon="34.857366" lat="31.367936"><ele>477</ele><time>2017-11-10T08:32:50.000Z</time></trkpt><trkpt lon="34.85739" lat="31.36794"><ele>477</ele><time>2017-11-10T08:32:51.000Z</time></trkpt><trkpt lon="34.857414" lat="31.367945"><ele>477</ele><time>2017-11-10T08:32:52.000Z</time></trkpt><trkpt lon="34.857434" lat="31.367953"><ele>477</ele><time>2017-11-10T08:32:53.000Z</time></trkpt><trkpt lon="34.857452" lat="31.367963"><ele>477</ele><time>2017-11-10T08:32:54.000Z</time></trkpt><trkpt lon="34.857473" lat="31.36797"><ele>477</ele><time>2017-11-10T08:32:55.000Z</time></trkpt><trkpt lon="34.857496" lat="31.367973"><ele>477</ele><time>2017-11-10T08:32:56.000Z</time></trkpt><trkpt lon="34.857518" lat="31.367979"><ele>477</ele><time>2017-11-10T08:32:57.000Z</time></trkpt><trkpt lon="34.857539" lat="31.367989"><ele>477</ele><time>2017-11-10T08:32:58.000Z</time></trkpt><trkpt lon="34.857559" lat="31.368"><ele>477</ele><time>2017-11-10T08:32:59.000Z</time></trkpt><trkpt lon="34.857582" lat="31.368008"><ele>477</ele><time>2017-11-10T08:33:00.000Z</time></trkpt><trkpt lon="34.857606" lat="31.368014"><ele>477</ele><time>2017-11-10T08:33:01.000Z</time></trkpt><trkpt lon="34.85763" lat="31.368018"><ele>477</ele><time>2017-11-10T08:33:02.000Z</time></trkpt><trkpt lon="34.857652" lat="31.368026"><ele>477</ele><time>2017-11-10T08:33:03.000Z</time></trkpt><trkpt lon="34.857675" lat="31.368032"><ele>477</ele><time>2017-11-10T08:33:04.000Z</time></trkpt><trkpt lon="34.857698" lat="31.368035"><ele>477</ele><time>2017-11-10T08:33:05.000Z</time></trkpt><trkpt lon="34.85772" lat="31.36804"><ele>477</ele><time>2017-11-10T08:33:06.000Z</time></trkpt><trkpt lon="34.857742" lat="31.368045"><ele>478</ele><time>2017-11-10T08:33:07.000Z</time></trkpt><trkpt lon="34.857762" lat="31.368056"><ele>478</ele><time>2017-11-10T08:33:08.000Z</time></trkpt><trkpt lon="34.857782" lat="31.368062"><ele>478</ele><time>2017-11-10T08:33:09.000Z</time></trkpt><trkpt lon="34.857804" lat="31.368068"><ele>478</ele><time>2017-11-10T08:33:10.000Z</time></trkpt><trkpt lon="34.857824" lat="31.368074"><ele>478</ele><time>2017-11-10T08:33:11.000Z</time></trkpt><trkpt lon="34.857846" lat="31.36808"><ele>478</ele><time>2017-11-10T08:33:12.000Z</time></trkpt><trkpt lon="34.857868" lat="31.368084"><ele>478</ele><time>2017-11-10T08:33:13.000Z</time></trkpt><trkpt lon="34.85789" lat="31.368092"><ele>478</ele><time>2017-11-10T08:33:14.000Z</time></trkpt><trkpt lon="34.857912" lat="31.368098"><ele>478</ele><time>2017-11-10T08:33:15.000Z</time></trkpt><trkpt lon="34.857936" lat="31.368101"><ele>478</ele><time>2017-11-10T08:33:16.000Z</time></trkpt><trkpt lon="34.857962" lat="31.368106"><ele>478</ele><time>2017-11-10T08:33:17.000Z</time></trkpt><trkpt lon="34.857984" lat="31.36811"><ele>478</ele><time>2017-11-10T08:33:18.000Z</time></trkpt><trkpt lon="34.858007" lat="31.368114"><ele>478</ele><time>2017-11-10T08:33:19.000Z</time></trkpt><trkpt lon="34.858028" lat="31.368114"><ele>478</ele><time>2017-11-10T08:33:20.000Z</time></trkpt><trkpt lon="34.858028" lat="31.368114"><ele>478</ele><time>2017-11-10T08:33:21.000Z</time></trkpt><trkpt lon="34.858064" lat="31.368124"><ele>478</ele><time>2017-11-10T08:33:22.000Z</time></trkpt><trkpt lon="34.858064" lat="31.368124"><ele>478</ele><time>2017-11-10T08:33:23.000Z</time></trkpt><trkpt lon="34.858094" lat="31.36814"><ele>478</ele><time>2017-11-10T08:33:24.000Z</time></trkpt><trkpt lon="34.858094" lat="31.36814"><ele>478</ele><time>2017-11-10T08:33:25.000Z</time></trkpt><trkpt lon="34.858132" lat="31.36815"><ele>478</ele><time>2017-11-10T08:33:26.000Z</time></trkpt><trkpt lon="34.858152" lat="31.368162"><ele>478</ele><time>2017-11-10T08:33:27.000Z</time></trkpt><trkpt lon="34.858174" lat="31.368172"><ele>479</ele><time>2017-11-10T08:33:28.000Z</time></trkpt><trkpt lon="34.858198" lat="31.368176"><ele>479</ele><time>2017-11-10T08:33:29.000Z</time></trkpt><trkpt lon="34.858222" lat="31.368177"><ele>479</ele><time>2017-11-10T08:33:30.000Z</time></trkpt><trkpt lon="34.858244" lat="31.368182"><ele>479</ele><time>2017-11-10T08:33:31.000Z</time></trkpt><trkpt lon="34.858266" lat="31.36819"><ele>479</ele><time>2017-11-10T08:33:32.000Z</time></trkpt><trkpt lon="34.858289" lat="31.368196"><ele>479</ele><time>2017-11-10T08:33:33.000Z</time></trkpt><trkpt lon="34.858312" lat="31.3682"><ele>479</ele><time>2017-11-10T08:33:34.000Z</time></trkpt><trkpt lon="34.858334" lat="31.368204"><ele>479</ele><time>2017-11-10T08:33:35.000Z</time></trkpt><trkpt lon="34.858356" lat="31.368206"><ele>479</ele><time>2017-11-10T08:33:36.000Z</time></trkpt><trkpt lon="34.85838" lat="31.368206"><ele>479</ele><time>2017-11-10T08:33:37.000Z</time></trkpt><trkpt lon="34.858402" lat="31.368208"><ele>479</ele><time>2017-11-10T08:33:38.000Z</time></trkpt><trkpt lon="34.858422" lat="31.368214"><ele>479</ele><time>2017-11-10T08:33:39.000Z</time></trkpt><trkpt lon="34.858442" lat="31.368218"><ele>479</ele><time>2017-11-10T08:33:40.000Z</time></trkpt><trkpt lon="34.858442" lat="31.368218"><ele>479</ele><time>2017-11-10T08:33:41.000Z</time></trkpt><trkpt lon="34.858482" lat="31.368228"><ele>479</ele><time>2017-11-10T08:33:42.000Z</time></trkpt><trkpt lon="34.858482" lat="31.368228"><ele>480</ele><time>2017-11-10T08:33:43.000Z</time></trkpt><trkpt lon="34.858518" lat="31.368242"><ele>480</ele><time>2017-11-10T08:33:44.000Z</time></trkpt><trkpt lon="34.858536" lat="31.36825"><ele>480</ele><time>2017-11-10T08:33:45.000Z</time></trkpt><trkpt lon="34.858554" lat="31.368262"><ele>479</ele><time>2017-11-10T08:33:46.000Z</time></trkpt><trkpt lon="34.858572" lat="31.368274"><ele>479</ele><time>2017-11-10T08:33:47.000Z</time></trkpt><trkpt lon="34.858572" lat="31.368274"><ele>480</ele><time>2017-11-10T08:33:48.000Z</time></trkpt><trkpt lon="34.858598" lat="31.3683"><ele>480</ele><time>2017-11-10T08:33:49.000Z</time></trkpt><trkpt lon="34.858608" lat="31.368318"><ele>480</ele><time>2017-11-10T08:33:50.000Z</time></trkpt><trkpt lon="34.858618" lat="31.368334"><ele>480</ele><time>2017-11-10T08:33:51.000Z</time></trkpt><trkpt lon="34.85862" lat="31.368354"><ele>480</ele><time>2017-11-10T08:33:52.000Z</time></trkpt><trkpt lon="34.858622" lat="31.368374"><ele>480</ele><time>2017-11-10T08:33:53.000Z</time></trkpt><trkpt lon="34.858622" lat="31.368398"><ele>480</ele><time>2017-11-10T08:33:54.000Z</time></trkpt><trkpt lon="34.85862" lat="31.36842"><ele>480</ele><time>2017-11-10T08:33:55.000Z</time></trkpt><trkpt lon="34.85862" lat="31.368446"><ele>479</ele><time>2017-11-10T08:33:56.000Z</time></trkpt><trkpt lon="34.85862" lat="31.36847"><ele>479</ele><time>2017-11-10T08:33:57.000Z</time></trkpt><trkpt lon="34.858618" lat="31.368494"><ele>480</ele><time>2017-11-10T08:33:58.000Z</time></trkpt><trkpt lon="34.858614" lat="31.368514"><ele>480</ele><time>2017-11-10T08:33:59.000Z</time></trkpt><trkpt lon="34.858612" lat="31.368537"><ele>480</ele><time>2017-11-10T08:34:00.000Z</time></trkpt><trkpt lon="34.858613" lat="31.368557"><ele>480</ele><time>2017-11-10T08:34:01.000Z</time></trkpt><trkpt lon="34.858619" lat="31.368576"><ele>480</ele><time>2017-11-10T08:34:02.000Z</time></trkpt><trkpt lon="34.858619" lat="31.368576"><ele>480</ele><time>2017-11-10T08:34:03.000Z</time></trkpt><trkpt lon="34.858632" lat="31.368604"><ele>480</ele><time>2017-11-10T08:34:04.000Z</time></trkpt><trkpt lon="34.858632" lat="31.368604"><ele>480</ele><time>2017-11-10T08:34:05.000Z</time></trkpt><trkpt lon="34.858662" lat="31.368621"><ele>480</ele><time>2017-11-10T08:34:06.000Z</time></trkpt><trkpt lon="34.858662" lat="31.368621"><ele>481</ele><time>2017-11-10T08:34:07.000Z</time></trkpt><trkpt lon="34.858704" lat="31.368627"><ele>481</ele><time>2017-11-10T08:34:08.000Z</time></trkpt><trkpt lon="34.858704" lat="31.368627"><ele>481</ele><time>2017-11-10T08:34:09.000Z</time></trkpt><trkpt lon="34.858742" lat="31.368632"><ele>481</ele><time>2017-11-10T08:34:10.000Z</time></trkpt><trkpt lon="34.858742" lat="31.368632"><ele>481</ele><time>2017-11-10T08:34:11.000Z</time></trkpt><trkpt lon="34.858769" lat="31.368642"><ele>482</ele><time>2017-11-10T08:34:12.000Z</time></trkpt><trkpt lon="34.858777" lat="31.368658"><ele>482</ele><time>2017-11-10T08:34:13.000Z</time></trkpt><trkpt lon="34.858782" lat="31.368679"><ele>482</ele><time>2017-11-10T08:34:14.000Z</time></trkpt><trkpt lon="34.858781" lat="31.368698"><ele>483</ele><time>2017-11-10T08:34:15.000Z</time></trkpt><trkpt lon="34.858781" lat="31.368698"><ele>483</ele><time>2017-11-10T08:34:16.000Z</time></trkpt><trkpt lon="34.858781" lat="31.368698"><ele>483</ele><time>2017-11-10T08:34:17.000Z</time></trkpt><trkpt lon="34.858781" lat="31.368698"><ele>483</ele><time>2017-11-10T08:34:18.000Z</time></trkpt><trkpt lon="34.858781" lat="31.368698"><ele>483</ele><time>2017-11-10T08:34:19.000Z</time></trkpt><trkpt lon="34.858781" lat="31.368698"><ele>483</ele><time>2017-11-10T08:34:20.000Z</time></trkpt><trkpt lon="34.858781" lat="31.368698"><ele>483</ele><time>2017-11-10T08:34:21.000Z</time></trkpt><trkpt lon="34.858781" lat="31.368698"><ele>483</ele><time>2017-11-10T08:34:22.000Z</time></trkpt><trkpt lon="34.858777" lat="31.368716"><ele>483</ele><time>2017-11-10T08:34:23.000Z</time></trkpt><trkpt lon="34.858777" lat="31.368716"><ele>483</ele><time>2017-11-10T08:34:24.000Z</time></trkpt><trkpt lon="34.858777" lat="31.368716"><ele>483</ele><time>2017-11-10T08:34:25.000Z</time></trkpt><trkpt lon="34.858777" lat="31.368716"><ele>483</ele><time>2017-11-10T08:34:26.000Z</time></trkpt><trkpt lon="34.858777" lat="31.368716"><ele>483</ele><time>2017-11-10T08:34:27.000Z</time></trkpt><trkpt lon="34.858777" lat="31.368716"><ele>483</ele><time>2017-11-10T08:34:28.000Z</time></trkpt><trkpt lon="34.858777" lat="31.368716"><ele>483</ele><time>2017-11-10T08:34:29.000Z</time></trkpt><trkpt lon="34.858777" lat="31.368716"><ele>483</ele><time>2017-11-10T08:34:30.000Z</time></trkpt><trkpt lon="34.858777" lat="31.368716"><ele>483</ele><time>2017-11-10T08:34:31.000Z</time></trkpt><trkpt lon="34.858777" lat="31.368716"><ele>483</ele><time>2017-11-10T08:34:32.000Z</time></trkpt><trkpt lon="34.858777" lat="31.368716"><ele>483</ele><time>2017-11-10T08:34:33.000Z</time></trkpt><trkpt lon="34.858777" lat="31.368716"><ele>483</ele><time>2017-11-10T08:34:34.000Z</time></trkpt><trkpt lon="34.858777" lat="31.368716"><ele>483</ele><time>2017-11-10T08:34:35.000Z</time></trkpt><trkpt lon="34.858777" lat="31.368716"><ele>483</ele><time>2017-11-10T08:34:36.000Z</time></trkpt><trkpt lon="34.858777" lat="31.368716"><ele>483</ele><time>2017-11-10T08:34:37.000Z</time></trkpt><trkpt lon="34.858777" lat="31.368716"><ele>483</ele><time>2017-11-10T08:34:38.000Z</time></trkpt><trkpt lon="34.858777" lat="31.368716"><ele>483</ele><time>2017-11-10T08:34:39.000Z</time></trkpt><trkpt lon="34.858777" lat="31.368716"><ele>483</ele><time>2017-11-10T08:34:40.000Z</time></trkpt><trkpt lon="34.858777" lat="31.368716"><ele>483</ele><time>2017-11-10T08:34:41.000Z</time></trkpt><trkpt lon="34.858777" lat="31.368716"><ele>483</ele><time>2017-11-10T08:34:42.000Z</time></trkpt><trkpt lon="34.858777" lat="31.368716"><ele>483</ele><time>2017-11-10T08:34:43.000Z</time></trkpt><trkpt lon="34.858777" lat="31.368716"><ele>483</ele><time>2017-11-10T08:34:44.000Z</time></trkpt><trkpt lon="34.858777" lat="31.368716"><ele>483</ele><time>2017-11-10T08:34:45.000Z</time></trkpt><trkpt lon="34.858777" lat="31.368716"><ele>483</ele><time>2017-11-10T08:34:46.000Z</time></trkpt><trkpt lon="34.858777" lat="31.368716"><ele>483</ele><time>2017-11-10T08:34:47.000Z</time></trkpt><trkpt lon="34.858777" lat="31.368716"><ele>483</ele><time>2017-11-10T08:34:48.000Z</time></trkpt><trkpt lon="34.858777" lat="31.368716"><ele>483</ele><time>2017-11-10T08:34:49.000Z</time></trkpt><trkpt lon="34.858777" lat="31.368716"><ele>483</ele><time>2017-11-10T08:34:50.000Z</time></trkpt><trkpt lon="34.858777" lat="31.368716"><ele>483</ele><time>2017-11-10T08:34:51.000Z</time></trkpt><trkpt lon="34.858777" lat="31.368716"><ele>483</ele><time>2017-11-10T08:34:52.000Z</time></trkpt><trkpt lon="34.858777" lat="31.368716"><ele>483</ele><time>2017-11-10T08:34:53.000Z</time></trkpt><trkpt lon="34.858777" lat="31.368716"><ele>483</ele><time>2017-11-10T08:34:54.000Z</time></trkpt><trkpt lon="34.858777" lat="31.368716"><ele>483</ele><time>2017-11-10T08:34:55.000Z</time></trkpt><trkpt lon="34.858777" lat="31.368716"><ele>483</ele><time>2017-11-10T08:34:56.000Z</time></trkpt><trkpt lon="34.858777" lat="31.368716"><ele>483</ele><time>2017-11-10T08:34:57.000Z</time></trkpt><trkpt lon="34.858777" lat="31.368716"><ele>483</ele><time>2017-11-10T08:34:58.000Z</time></trkpt><trkpt lon="34.858777" lat="31.368716"><ele>483</ele><time>2017-11-10T08:34:59.000Z</time></trkpt><trkpt lon="34.858777" lat="31.368716"><ele>483</ele><time>2017-11-10T08:35:00.000Z</time></trkpt><trkpt lon="34.858777" lat="31.368716"><ele>483</ele><time>2017-11-10T08:35:01.000Z</time></trkpt><trkpt lon="34.858777" lat="31.368716"><ele>483</ele><time>2017-11-10T08:35:02.000Z</time></trkpt><trkpt lon="34.858777" lat="31.368716"><ele>483</ele><time>2017-11-10T08:35:03.000Z</time></trkpt><trkpt lon="34.858777" lat="31.368716"><ele>483</ele><time>2017-11-10T08:35:04.000Z</time></trkpt><trkpt lon="34.858777" lat="31.368716"><ele>483</ele><time>2017-11-10T08:35:05.000Z</time></trkpt><trkpt lon="34.858777" lat="31.368716"><ele>483</ele><time>2017-11-10T08:35:06.000Z</time></trkpt><trkpt lon="34.858777" lat="31.368716"><ele>483</ele><time>2017-11-10T08:35:07.000Z</time></trkpt><trkpt lon="34.858777" lat="31.368716"><ele>483</ele><time>2017-11-10T08:35:08.000Z</time></trkpt><trkpt lon="34.858777" lat="31.368716"><ele>483</ele><time>2017-11-10T08:35:09.000Z</time></trkpt><trkpt lon="34.858777" lat="31.368716"><ele>483</ele><time>2017-11-10T08:35:10.000Z</time></trkpt><trkpt lon="34.858777" lat="31.368716"><ele>483</ele><time>2017-11-10T08:35:11.000Z</time></trkpt><trkpt lon="34.858761" lat="31.368704"><ele>483</ele><time>2017-11-10T08:35:12.000Z</time></trkpt><trkpt lon="34.858761" lat="31.368704"><ele>483</ele><time>2017-11-10T08:35:13.000Z</time></trkpt><trkpt lon="34.858735" lat="31.368709"><ele>483</ele><time>2017-11-10T08:35:14.000Z</time></trkpt><trkpt lon="34.858735" lat="31.368709"><ele>483</ele><time>2017-11-10T08:35:15.000Z</time></trkpt><trkpt lon="34.858693" lat="31.368714"><ele>483</ele><time>2017-11-10T08:35:16.000Z</time></trkpt><trkpt lon="34.858665" lat="31.368715"><ele>483</ele><time>2017-11-10T08:35:17.000Z</time></trkpt><trkpt lon="34.858637" lat="31.368716"><ele>483</ele><time>2017-11-10T08:35:18.000Z</time></trkpt><trkpt lon="34.858609" lat="31.368722"><ele>483</ele><time>2017-11-10T08:35:19.000Z</time></trkpt><trkpt lon="34.858581" lat="31.368729"><ele>483</ele><time>2017-11-10T08:35:20.000Z</time></trkpt><trkpt lon="34.858555" lat="31.368733"><ele>483</ele><time>2017-11-10T08:35:21.000Z</time></trkpt><trkpt lon="34.85853" lat="31.368737"><ele>483</ele><time>2017-11-10T08:35:22.000Z</time></trkpt><trkpt lon="34.858506" lat="31.368743"><ele>483</ele><time>2017-11-10T08:35:23.000Z</time></trkpt><trkpt lon="34.858485" lat="31.368748"><ele>483</ele><time>2017-11-10T08:35:24.000Z</time></trkpt><trkpt lon="34.858461" lat="31.368751"><ele>483</ele><time>2017-11-10T08:35:25.000Z</time></trkpt><trkpt lon="34.858434" lat="31.368753"><ele>483</ele><time>2017-11-10T08:35:26.000Z</time></trkpt><trkpt lon="34.858405" lat="31.368755"><ele>483</ele><time>2017-11-10T08:35:27.000Z</time></trkpt><trkpt lon="34.858377" lat="31.368754"><ele>483</ele><time>2017-11-10T08:35:28.000Z</time></trkpt><trkpt lon="34.85835" lat="31.368752"><ele>483</ele><time>2017-11-10T08:35:29.000Z</time></trkpt><trkpt lon="34.858322" lat="31.368747"><ele>483</ele><time>2017-11-10T08:35:30.000Z</time></trkpt><trkpt lon="34.858289" lat="31.368742"><ele>483</ele><time>2017-11-10T08:35:31.000Z</time></trkpt><trkpt lon="34.858255" lat="31.368741"><ele>483</ele><time>2017-11-10T08:35:32.000Z</time></trkpt><trkpt lon="34.858222" lat="31.368748"><ele>483</ele><time>2017-11-10T08:35:33.000Z</time></trkpt><trkpt lon="34.858195" lat="31.368756"><ele>483</ele><time>2017-11-10T08:35:34.000Z</time></trkpt><trkpt lon="34.85817" lat="31.368764"><ele>483</ele><time>2017-11-10T08:35:35.000Z</time></trkpt><trkpt lon="34.858142" lat="31.368772"><ele>484</ele><time>2017-11-10T08:35:36.000Z</time></trkpt><trkpt lon="34.858113" lat="31.368783"><ele>484</ele><time>2017-11-10T08:35:37.000Z</time></trkpt><trkpt lon="34.858084" lat="31.368798"><ele>484</ele><time>2017-11-10T08:35:38.000Z</time></trkpt><trkpt lon="34.858056" lat="31.368817"><ele>484</ele><time>2017-11-10T08:35:39.000Z</time></trkpt><trkpt lon="34.85803" lat="31.368837"><ele>484</ele><time>2017-11-10T08:35:40.000Z</time></trkpt><trkpt lon="34.858009" lat="31.368854"><ele>484</ele><time>2017-11-10T08:35:41.000Z</time></trkpt><trkpt lon="34.857988" lat="31.368866"><ele>484</ele><time>2017-11-10T08:35:42.000Z</time></trkpt><trkpt lon="34.857968" lat="31.368873"><ele>485</ele><time>2017-11-10T08:35:43.000Z</time></trkpt><trkpt lon="34.857945" lat="31.368879"><ele>486</ele><time>2017-11-10T08:35:44.000Z</time></trkpt><trkpt lon="34.857919" lat="31.368884"><ele>486</ele><time>2017-11-10T08:35:45.000Z</time></trkpt><trkpt lon="34.857892" lat="31.368888"><ele>486</ele><time>2017-11-10T08:35:46.000Z</time></trkpt><trkpt lon="34.857862" lat="31.368888"><ele>486</ele><time>2017-11-10T08:35:47.000Z</time></trkpt><trkpt lon="34.857831" lat="31.368887"><ele>486</ele><time>2017-11-10T08:35:48.000Z</time></trkpt><trkpt lon="34.857798" lat="31.368888"><ele>486</ele><time>2017-11-10T08:35:49.000Z</time></trkpt><trkpt lon="34.85776" lat="31.368889"><ele>486</ele><time>2017-11-10T08:35:50.000Z</time></trkpt><trkpt lon="34.857722" lat="31.368892"><ele>486</ele><time>2017-11-10T08:35:51.000Z</time></trkpt><trkpt lon="34.857684" lat="31.368894"><ele>486</ele><time>2017-11-10T08:35:52.000Z</time></trkpt><trkpt lon="34.857646" lat="31.368894"><ele>486</ele><time>2017-11-10T08:35:53.000Z</time></trkpt><trkpt lon="34.857606" lat="31.368889"><ele>486</ele><time>2017-11-10T08:35:54.000Z</time></trkpt><trkpt lon="34.85756" lat="31.368884"><ele>486</ele><time>2017-11-10T08:35:55.000Z</time></trkpt><trkpt lon="34.857506" lat="31.368886"><ele>485</ele><time>2017-11-10T08:35:56.000Z</time></trkpt><trkpt lon="34.857454" lat="31.368893"><ele>485</ele><time>2017-11-10T08:35:57.000Z</time></trkpt><trkpt lon="34.857406" lat="31.368896"><ele>485</ele><time>2017-11-10T08:35:58.000Z</time></trkpt><trkpt lon="34.857361" lat="31.368889"><ele>485</ele><time>2017-11-10T08:35:59.000Z</time></trkpt><trkpt lon="34.857312" lat="31.368874"><ele>485</ele><time>2017-11-10T08:36:00.000Z</time></trkpt><trkpt lon="34.857258" lat="31.368872"><ele>484</ele><time>2017-11-10T08:36:01.000Z</time></trkpt><trkpt lon="34.857208" lat="31.368873"><ele>484</ele><time>2017-11-10T08:36:02.000Z</time></trkpt><trkpt lon="34.857158" lat="31.368876"><ele>484</ele><time>2017-11-10T08:36:03.000Z</time></trkpt><trkpt lon="34.857105" lat="31.36888"><ele>484</ele><time>2017-11-10T08:36:04.000Z</time></trkpt><trkpt lon="34.857053" lat="31.368883"><ele>484</ele><time>2017-11-10T08:36:05.000Z</time></trkpt><trkpt lon="34.857012" lat="31.368893"><ele>484</ele><time>2017-11-10T08:36:06.000Z</time></trkpt><trkpt lon="34.856983" lat="31.368908"><ele>483</ele><time>2017-11-10T08:36:07.000Z</time></trkpt><trkpt lon="34.856983" lat="31.368908"><ele>483</ele><time>2017-11-10T08:36:08.000Z</time></trkpt><trkpt lon="34.856958" lat="31.368925"><ele>483</ele><time>2017-11-10T08:36:09.000Z</time></trkpt><trkpt lon="34.856958" lat="31.368925"><ele>483</ele><time>2017-11-10T08:36:10.000Z</time></trkpt><trkpt lon="34.856958" lat="31.368925"><ele>483</ele><time>2017-11-10T08:36:11.000Z</time></trkpt><trkpt lon="34.856958" lat="31.368925"><ele>483</ele><time>2017-11-10T08:36:12.000Z</time></trkpt><trkpt lon="34.856958" lat="31.368925"><ele>483</ele><time>2017-11-10T08:36:13.000Z</time></trkpt><trkpt lon="34.856958" lat="31.368925"><ele>483</ele><time>2017-11-10T08:36:14.000Z</time></trkpt><trkpt lon="34.856958" lat="31.368925"><ele>483</ele><time>2017-11-10T08:36:15.000Z</time></trkpt><trkpt lon="34.856958" lat="31.368925"><ele>483</ele><time>2017-11-10T08:36:16.000Z</time></trkpt><trkpt lon="34.856958" lat="31.368925"><ele>483</ele><time>2017-11-10T08:36:17.000Z</time></trkpt><trkpt lon="34.856958" lat="31.368925"><ele>483</ele><time>2017-11-10T08:36:18.000Z</time></trkpt><trkpt lon="34.856958" lat="31.368925"><ele>483</ele><time>2017-11-10T08:36:19.000Z</time></trkpt><trkpt lon="34.856958" lat="31.368925"><ele>483</ele><time>2017-11-10T08:36:20.000Z</time></trkpt><trkpt lon="34.856958" lat="31.368925"><ele>483</ele><time>2017-11-10T08:36:21.000Z</time></trkpt><trkpt lon="34.856958" lat="31.368925"><ele>483</ele><time>2017-11-10T08:36:22.000Z</time></trkpt><trkpt lon="34.856958" lat="31.368925"><ele>483</ele><time>2017-11-10T08:36:23.000Z</time></trkpt><trkpt lon="34.856958" lat="31.368925"><ele>483</ele><time>2017-11-10T08:36:24.000Z</time></trkpt><trkpt lon="34.856958" lat="31.368925"><ele>483</ele><time>2017-11-10T08:36:25.000Z</time></trkpt><trkpt lon="34.856958" lat="31.368925"><ele>483</ele><time>2017-11-10T08:36:26.000Z</time></trkpt><trkpt lon="34.856958" lat="31.368925"><ele>483</ele><time>2017-11-10T08:36:27.000Z</time></trkpt><trkpt lon="34.856958" lat="31.368925"><ele>483</ele><time>2017-11-10T08:36:28.000Z</time></trkpt><trkpt lon="34.856958" lat="31.368925"><ele>483</ele><time>2017-11-10T08:36:29.000Z</time></trkpt><trkpt lon="34.856958" lat="31.368925"><ele>483</ele><time>2017-11-10T08:36:30.000Z</time></trkpt><trkpt lon="34.856958" lat="31.368925"><ele>483</ele><time>2017-11-10T08:36:31.000Z</time></trkpt><trkpt lon="34.856958" lat="31.368925"><ele>483</ele><time>2017-11-10T08:36:32.000Z</time></trkpt><trkpt lon="34.856958" lat="31.368925"><ele>483</ele><time>2017-11-10T08:36:33.000Z</time></trkpt><trkpt lon="34.856958" lat="31.368925"><ele>483</ele><time>2017-11-10T08:36:34.000Z</time></trkpt><trkpt lon="34.856958" lat="31.368925"><ele>483</ele><time>2017-11-10T08:36:35.000Z</time></trkpt><trkpt lon="34.856958" lat="31.368925"><ele>483</ele><time>2017-11-10T08:36:36.000Z</time></trkpt><trkpt lon="34.856958" lat="31.368925"><ele>483</ele><time>2017-11-10T08:36:37.000Z</time></trkpt><trkpt lon="34.856958" lat="31.368925"><ele>483</ele><time>2017-11-10T08:36:38.000Z</time></trkpt><trkpt lon="34.856958" lat="31.368925"><ele>483</ele><time>2017-11-10T08:36:39.000Z</time></trkpt><trkpt lon="34.856958" lat="31.368925"><ele>483</ele><time>2017-11-10T08:36:40.000Z</time></trkpt><trkpt lon="34.856958" lat="31.368925"><ele>483</ele><time>2017-11-10T08:36:41.000Z</time></trkpt><trkpt lon="34.856948" lat="31.368943"><ele>483</ele><time>2017-11-10T08:36:42.000Z</time></trkpt><trkpt lon="34.856948" lat="31.368943"><ele>483</ele><time>2017-11-10T08:36:43.000Z</time></trkpt><trkpt lon="34.856948" lat="31.368943"><ele>483</ele><time>2017-11-10T08:36:44.000Z</time></trkpt><trkpt lon="34.856948" lat="31.368943"><ele>483</ele><time>2017-11-10T08:36:45.000Z</time></trkpt><trkpt lon="34.856948" lat="31.368943"><ele>483</ele><time>2017-11-10T08:36:46.000Z</time></trkpt><trkpt lon="34.856948" lat="31.368943"><ele>483</ele><time>2017-11-10T08:36:47.000Z</time></trkpt><trkpt lon="34.856948" lat="31.368943"><ele>483</ele><time>2017-11-10T08:36:48.000Z</time></trkpt><trkpt lon="34.856964" lat="31.368963"><ele>483</ele><time>2017-11-10T08:36:49.000Z</time></trkpt><trkpt lon="34.856964" lat="31.368963"><ele>483</ele><time>2017-11-10T08:36:50.000Z</time></trkpt><trkpt lon="34.856964" lat="31.368963"><ele>483</ele><time>2017-11-10T08:36:51.000Z</time></trkpt><trkpt lon="34.856986" lat="31.36898"><ele>483</ele><time>2017-11-10T08:36:52.000Z</time></trkpt><trkpt lon="34.856986" lat="31.36898"><ele>484</ele><time>2017-11-10T08:36:53.000Z</time></trkpt><trkpt lon="34.857014" lat="31.368995"><ele>484</ele><time>2017-11-10T08:36:54.000Z</time></trkpt><trkpt lon="34.857014" lat="31.368995"><ele>484</ele><time>2017-11-10T08:36:55.000Z</time></trkpt><trkpt lon="34.857045" lat="31.369019"><ele>484</ele><time>2017-11-10T08:36:56.000Z</time></trkpt><trkpt lon="34.857068" lat="31.36903"><ele>484</ele><time>2017-11-10T08:36:57.000Z</time></trkpt><trkpt lon="34.857095" lat="31.369033"><ele>484</ele><time>2017-11-10T08:36:58.000Z</time></trkpt><trkpt lon="34.857123" lat="31.369036"><ele>484</ele><time>2017-11-10T08:36:59.000Z</time></trkpt><trkpt lon="34.85715" lat="31.369043"><ele>485</ele><time>2017-11-10T08:37:00.000Z</time></trkpt><trkpt lon="34.857172" lat="31.369047"><ele>485</ele><time>2017-11-10T08:37:01.000Z</time></trkpt><trkpt lon="34.857197" lat="31.369056"><ele>485</ele><time>2017-11-10T08:37:02.000Z</time></trkpt><trkpt lon="34.857226" lat="31.369069"><ele>485</ele><time>2017-11-10T08:37:03.000Z</time></trkpt><trkpt lon="34.857254" lat="31.36908"><ele>485</ele><time>2017-11-10T08:37:04.000Z</time></trkpt><trkpt lon="34.857284" lat="31.369087"><ele>485</ele><time>2017-11-10T08:37:05.000Z</time></trkpt><trkpt lon="34.85731" lat="31.369093"><ele>485</ele><time>2017-11-10T08:37:06.000Z</time></trkpt><trkpt lon="34.857329" lat="31.369108"><ele>485</ele><time>2017-11-10T08:37:07.000Z</time></trkpt><trkpt lon="34.85734" lat="31.369128"><ele>485</ele><time>2017-11-10T08:37:08.000Z</time></trkpt><trkpt lon="34.857362" lat="31.36914"><ele>485</ele><time>2017-11-10T08:37:09.000Z</time></trkpt><trkpt lon="34.857388" lat="31.369146"><ele>486</ele><time>2017-11-10T08:37:10.000Z</time></trkpt><trkpt lon="34.857412" lat="31.369148"><ele>486</ele><time>2017-11-10T08:37:11.000Z</time></trkpt><trkpt lon="34.857434" lat="31.369144"><ele>486</ele><time>2017-11-10T08:37:12.000Z</time></trkpt><trkpt lon="34.857456" lat="31.36914"><ele>487</ele><time>2017-11-10T08:37:13.000Z</time></trkpt><trkpt lon="34.857482" lat="31.369138"><ele>487</ele><time>2017-11-10T08:37:14.000Z</time></trkpt><trkpt lon="34.857506" lat="31.369138"><ele>487</ele><time>2017-11-10T08:37:15.000Z</time></trkpt><trkpt lon="34.857528" lat="31.369138"><ele>487</ele><time>2017-11-10T08:37:16.000Z</time></trkpt><trkpt lon="34.857552" lat="31.369141"><ele>487</ele><time>2017-11-10T08:37:17.000Z</time></trkpt><trkpt lon="34.85758" lat="31.369143"><ele>487</ele><time>2017-11-10T08:37:18.000Z</time></trkpt><trkpt lon="34.857608" lat="31.369142"><ele>487</ele><time>2017-11-10T08:37:19.000Z</time></trkpt><trkpt lon="34.857636" lat="31.369141"><ele>487</ele><time>2017-11-10T08:37:20.000Z</time></trkpt><trkpt lon="34.857636" lat="31.369141"><ele>487</ele><time>2017-11-10T08:37:21.000Z</time></trkpt><trkpt lon="34.857668" lat="31.369155"><ele>487</ele><time>2017-11-10T08:37:22.000Z</time></trkpt><trkpt lon="34.857678" lat="31.369171"><ele>487</ele><time>2017-11-10T08:37:23.000Z</time></trkpt><trkpt lon="34.857688" lat="31.369187"><ele>487</ele><time>2017-11-10T08:37:24.000Z</time></trkpt><trkpt lon="34.857712" lat="31.369195"><ele>487</ele><time>2017-11-10T08:37:25.000Z</time></trkpt><trkpt lon="34.857742" lat="31.369195"><ele>487</ele><time>2017-11-10T08:37:26.000Z</time></trkpt><trkpt lon="34.857772" lat="31.369187"><ele>487</ele><time>2017-11-10T08:37:27.000Z</time></trkpt><trkpt lon="34.857802" lat="31.36918"><ele>487</ele><time>2017-11-10T08:37:28.000Z</time></trkpt><trkpt lon="34.857832" lat="31.36918"><ele>487</ele><time>2017-11-10T08:37:29.000Z</time></trkpt><trkpt lon="34.857864" lat="31.369185"><ele>488</ele><time>2017-11-10T08:37:30.000Z</time></trkpt><trkpt lon="34.85789" lat="31.369187"><ele>489</ele><time>2017-11-10T08:37:31.000Z</time></trkpt><trkpt lon="34.857912" lat="31.369187"><ele>489</ele><time>2017-11-10T08:37:32.000Z</time></trkpt><trkpt lon="34.857934" lat="31.369187"><ele>489</ele><time>2017-11-10T08:37:33.000Z</time></trkpt><trkpt lon="34.857958" lat="31.369188"><ele>489</ele><time>2017-11-10T08:37:34.000Z</time></trkpt><trkpt lon="34.857986" lat="31.36919"><ele>489</ele><time>2017-11-10T08:37:35.000Z</time></trkpt><trkpt lon="34.858016" lat="31.369192"><ele>489</ele><time>2017-11-10T08:37:36.000Z</time></trkpt><trkpt lon="34.858048" lat="31.369192"><ele>489</ele><time>2017-11-10T08:37:37.000Z</time></trkpt><trkpt lon="34.858076" lat="31.369189"><ele>489</ele><time>2017-11-10T08:37:38.000Z</time></trkpt><trkpt lon="34.858102" lat="31.369184"><ele>489</ele><time>2017-11-10T08:37:39.000Z</time></trkpt><trkpt lon="34.858128" lat="31.369178"><ele>489</ele><time>2017-11-10T08:37:40.000Z</time></trkpt><trkpt lon="34.858152" lat="31.369173"><ele>490</ele><time>2017-11-10T08:37:41.000Z</time></trkpt><trkpt lon="34.858178" lat="31.369168"><ele>490</ele><time>2017-11-10T08:37:42.000Z</time></trkpt><trkpt lon="34.858202" lat="31.369164"><ele>490</ele><time>2017-11-10T08:37:43.000Z</time></trkpt><trkpt lon="34.858228" lat="31.36916"><ele>490</ele><time>2017-11-10T08:37:44.000Z</time></trkpt><trkpt lon="34.858256" lat="31.369157"><ele>490</ele><time>2017-11-10T08:37:45.000Z</time></trkpt><trkpt lon="34.858282" lat="31.369157"><ele>490</ele><time>2017-11-10T08:37:46.000Z</time></trkpt><trkpt lon="34.858308" lat="31.369159"><ele>491</ele><time>2017-11-10T08:37:47.000Z</time></trkpt><trkpt lon="34.858334" lat="31.369163"><ele>491</ele><time>2017-11-10T08:37:48.000Z</time></trkpt><trkpt lon="34.858357" lat="31.369171"><ele>491</ele><time>2017-11-10T08:37:49.000Z</time></trkpt><trkpt lon="34.858382" lat="31.369181"><ele>491</ele><time>2017-11-10T08:37:50.000Z</time></trkpt><trkpt lon="34.8584" lat="31.369192"><ele>491</ele><time>2017-11-10T08:37:51.000Z</time></trkpt><trkpt lon="34.858418" lat="31.369207"><ele>492</ele><time>2017-11-10T08:37:52.000Z</time></trkpt><trkpt lon="34.858439" lat="31.369221"><ele>492</ele><time>2017-11-10T08:37:53.000Z</time></trkpt><trkpt lon="34.858459" lat="31.369232"><ele>493</ele><time>2017-11-10T08:37:54.000Z</time></trkpt><trkpt lon="34.858478" lat="31.369241"><ele>493</ele><time>2017-11-10T08:37:55.000Z</time></trkpt><trkpt lon="34.8585" lat="31.369253"><ele>493</ele><time>2017-11-10T08:37:56.000Z</time></trkpt><trkpt lon="34.85852" lat="31.369262"><ele>493</ele><time>2017-11-10T08:37:57.000Z</time></trkpt><trkpt lon="34.858542" lat="31.369272"><ele>493</ele><time>2017-11-10T08:37:58.000Z</time></trkpt><trkpt lon="34.858566" lat="31.369279"><ele>493</ele><time>2017-11-10T08:37:59.000Z</time></trkpt><trkpt lon="34.858588" lat="31.369284"><ele>493</ele><time>2017-11-10T08:38:00.000Z</time></trkpt><trkpt lon="34.858614" lat="31.369283"><ele>493</ele><time>2017-11-10T08:38:01.000Z</time></trkpt><trkpt lon="34.858639" lat="31.369281"><ele>493</ele><time>2017-11-10T08:38:02.000Z</time></trkpt><trkpt lon="34.858667" lat="31.36928"><ele>493</ele><time>2017-11-10T08:38:03.000Z</time></trkpt><trkpt lon="34.858694" lat="31.369284"><ele>493</ele><time>2017-11-10T08:38:04.000Z</time></trkpt><trkpt lon="34.85872" lat="31.36929"><ele>494</ele><time>2017-11-10T08:38:05.000Z</time></trkpt><trkpt lon="34.858746" lat="31.369295"><ele>494</ele><time>2017-11-10T08:38:06.000Z</time></trkpt><trkpt lon="34.858773" lat="31.36929"><ele>494</ele><time>2017-11-10T08:38:07.000Z</time></trkpt><trkpt lon="34.858798" lat="31.369279"><ele>494</ele><time>2017-11-10T08:38:08.000Z</time></trkpt><trkpt lon="34.858821" lat="31.369269"><ele>494</ele><time>2017-11-10T08:38:09.000Z</time></trkpt><trkpt lon="34.858845" lat="31.369264"><ele>494</ele><time>2017-11-10T08:38:10.000Z</time></trkpt><trkpt lon="34.858872" lat="31.36926"><ele>494</ele><time>2017-11-10T08:38:11.000Z</time></trkpt><trkpt lon="34.858905" lat="31.369256"><ele>494</ele><time>2017-11-10T08:38:12.000Z</time></trkpt><trkpt lon="34.858937" lat="31.369255"><ele>494</ele><time>2017-11-10T08:38:13.000Z</time></trkpt><trkpt lon="34.858965" lat="31.369254"><ele>495</ele><time>2017-11-10T08:38:14.000Z</time></trkpt><trkpt lon="34.858984" lat="31.369246"><ele>495</ele><time>2017-11-10T08:38:15.000Z</time></trkpt><trkpt lon="34.858984" lat="31.369246"><ele>495</ele><time>2017-11-10T08:38:16.000Z</time></trkpt><trkpt lon="34.858983" lat="31.369219"><ele>495</ele><time>2017-11-10T08:38:17.000Z</time></trkpt><trkpt lon="34.858983" lat="31.369219"><ele>495</ele><time>2017-11-10T08:38:18.000Z</time></trkpt><trkpt lon="34.858983" lat="31.369219"><ele>495</ele><time>2017-11-10T08:38:19.000Z</time></trkpt><trkpt lon="34.858977" lat="31.369196"><ele>495</ele><time>2017-11-10T08:38:21.000Z</time></trkpt><trkpt lon="34.858977" lat="31.369196"><ele>494</ele><time>2017-11-10T08:38:22.000Z</time></trkpt><trkpt lon="34.858977" lat="31.369196"><ele>494</ele><time>2017-11-10T08:38:23.000Z</time></trkpt><trkpt lon="34.858977" lat="31.369196"><ele>494</ele><time>2017-11-10T08:38:24.000Z</time></trkpt><trkpt lon="34.858994" lat="31.369176"><ele>494</ele><time>2017-11-10T08:38:25.000Z</time></trkpt><trkpt lon="34.858994" lat="31.369176"><ele>494</ele><time>2017-11-10T08:38:26.000Z</time></trkpt><trkpt lon="34.858994" lat="31.369176"><ele>494</ele><time>2017-11-10T08:38:27.000Z</time></trkpt><trkpt lon="34.85901" lat="31.369162"><ele>494</ele><time>2017-11-10T08:38:28.000Z</time></trkpt><trkpt lon="34.85901" lat="31.369162"><ele>494</ele><time>2017-11-10T08:38:29.000Z</time></trkpt><trkpt lon="34.85901" lat="31.369162"><ele>494</ele><time>2017-11-10T08:38:30.000Z</time></trkpt><trkpt lon="34.85901" lat="31.369162"><ele>494</ele><time>2017-11-10T08:38:31.000Z</time></trkpt><trkpt lon="34.85901" lat="31.369162"><ele>494</ele><time>2017-11-10T08:38:32.000Z</time></trkpt><trkpt lon="34.85901" lat="31.369162"><ele>494</ele><time>2017-11-10T08:38:33.000Z</time></trkpt><trkpt lon="34.85901" lat="31.369162"><ele>494</ele><time>2017-11-10T08:38:34.000Z</time></trkpt><trkpt lon="34.85901" lat="31.369162"><ele>495</ele><time>2017-11-10T08:38:35.000Z</time></trkpt><trkpt lon="34.85901" lat="31.369162"><ele>495</ele><time>2017-11-10T08:38:36.000Z</time></trkpt><trkpt lon="34.85901" lat="31.369162"><ele>495</ele><time>2017-11-10T08:38:37.000Z</time></trkpt><trkpt lon="34.85901" lat="31.369162"><ele>495</ele><time>2017-11-10T08:38:38.000Z</time></trkpt><trkpt lon="34.85901" lat="31.369162"><ele>495</ele><time>2017-11-10T08:38:39.000Z</time></trkpt><trkpt lon="34.85901" lat="31.369162"><ele>495</ele><time>2017-11-10T08:38:40.000Z</time></trkpt><trkpt lon="34.85901" lat="31.369162"><ele>495</ele><time>2017-11-10T08:38:41.000Z</time></trkpt><trkpt lon="34.85901" lat="31.369162"><ele>495</ele><time>2017-11-10T08:38:42.000Z</time></trkpt><trkpt lon="34.85901" lat="31.369162"><ele>495</ele><time>2017-11-10T08:38:43.000Z</time></trkpt><trkpt lon="34.85901" lat="31.369162"><ele>495</ele><time>2017-11-10T08:38:44.000Z</time></trkpt><trkpt lon="34.85901" lat="31.369162"><ele>495</ele><time>2017-11-10T08:38:45.000Z</time></trkpt><trkpt lon="34.85901" lat="31.369162"><ele>495</ele><time>2017-11-10T08:38:46.000Z</time></trkpt><trkpt lon="34.85901" lat="31.369162"><ele>495</ele><time>2017-11-10T08:38:47.000Z</time></trkpt><trkpt lon="34.85901" lat="31.369162"><ele>495</ele><time>2017-11-10T08:38:48.000Z</time></trkpt><trkpt lon="34.85901" lat="31.369162"><ele>495</ele><time>2017-11-10T08:38:49.000Z</time></trkpt><trkpt lon="34.85901" lat="31.369162"><ele>495</ele><time>2017-11-10T08:38:50.000Z</time></trkpt><trkpt lon="34.85901" lat="31.369162"><ele>495</ele><time>2017-11-10T08:38:51.000Z</time></trkpt><trkpt lon="34.859013" lat="31.369182"><ele>495</ele><time>2017-11-10T08:38:52.000Z</time></trkpt><trkpt lon="34.859013" lat="31.369182"><ele>495</ele><time>2017-11-10T08:38:53.000Z</time></trkpt><trkpt lon="34.859004" lat="31.369204"><ele>495</ele><time>2017-11-10T08:38:54.000Z</time></trkpt><trkpt lon="34.859004" lat="31.369204"><ele>495</ele><time>2017-11-10T08:38:55.000Z</time></trkpt><trkpt lon="34.858994" lat="31.369228"><ele>495</ele><time>2017-11-10T08:38:56.000Z</time></trkpt><trkpt lon="34.858994" lat="31.369228"><ele>495</ele><time>2017-11-10T08:38:57.000Z</time></trkpt><trkpt lon="34.858998" lat="31.369263"><ele>495</ele><time>2017-11-10T08:38:58.000Z</time></trkpt><trkpt lon="34.859013" lat="31.36928"><ele>495</ele><time>2017-11-10T08:38:59.000Z</time></trkpt><trkpt lon="34.859013" lat="31.36928"><ele>495</ele><time>2017-11-10T08:39:00.000Z</time></trkpt><trkpt lon="34.859032" lat="31.36931"><ele>495</ele><time>2017-11-10T08:39:01.000Z</time></trkpt><trkpt lon="34.859032" lat="31.36931"><ele>495</ele><time>2017-11-10T08:39:02.000Z</time></trkpt><trkpt lon="34.859046" lat="31.369342"><ele>495</ele><time>2017-11-10T08:39:03.000Z</time></trkpt><trkpt lon="34.859046" lat="31.369342"><ele>495</ele><time>2017-11-10T08:39:04.000Z</time></trkpt><trkpt lon="34.859054" lat="31.369374"><ele>495</ele><time>2017-11-10T08:39:05.000Z</time></trkpt><trkpt lon="34.859052" lat="31.369394"><ele>495</ele><time>2017-11-10T08:39:06.000Z</time></trkpt><trkpt lon="34.859049" lat="31.369414"><ele>495</ele><time>2017-11-10T08:39:07.000Z</time></trkpt><trkpt lon="34.859043" lat="31.369433"><ele>495</ele><time>2017-11-10T08:39:08.000Z</time></trkpt><trkpt lon="34.859036" lat="31.36945"><ele>495</ele><time>2017-11-10T08:39:09.000Z</time></trkpt><trkpt lon="34.859037" lat="31.369469"><ele>495</ele><time>2017-11-10T08:39:10.000Z</time></trkpt><trkpt lon="34.859037" lat="31.369469"><ele>495</ele><time>2017-11-10T08:39:11.000Z</time></trkpt><trkpt lon="34.859054" lat="31.369485"><ele>495</ele><time>2017-11-10T08:39:12.000Z</time></trkpt><trkpt lon="34.859054" lat="31.369485"><ele>495</ele><time>2017-11-10T08:39:13.000Z</time></trkpt><trkpt lon="34.859077" lat="31.369479"><ele>495</ele><time>2017-11-10T08:39:14.000Z</time></trkpt><trkpt lon="34.859077" lat="31.369479"><ele>495</ele><time>2017-11-10T08:39:15.000Z</time></trkpt><trkpt lon="34.859103" lat="31.369465"><ele>495</ele><time>2017-11-10T08:39:16.000Z</time></trkpt><trkpt lon="34.859125" lat="31.369454"><ele>495</ele><time>2017-11-10T08:39:17.000Z</time></trkpt><trkpt lon="34.859147" lat="31.369444"><ele>495</ele><time>2017-11-10T08:39:18.000Z</time></trkpt><trkpt lon="34.859169" lat="31.369434"><ele>495</ele><time>2017-11-10T08:39:19.000Z</time></trkpt><trkpt lon="34.859194" lat="31.369425"><ele>495</ele><time>2017-11-10T08:39:20.000Z</time></trkpt><trkpt lon="34.859221" lat="31.369425"><ele>495</ele><time>2017-11-10T08:39:21.000Z</time></trkpt><trkpt lon="34.859247" lat="31.369433"><ele>495</ele><time>2017-11-10T08:39:22.000Z</time></trkpt><trkpt lon="34.859271" lat="31.369445"><ele>495</ele><time>2017-11-10T08:39:23.000Z</time></trkpt><trkpt lon="34.859292" lat="31.369461"><ele>495</ele><time>2017-11-10T08:39:24.000Z</time></trkpt><trkpt lon="34.859313" lat="31.369478"><ele>495</ele><time>2017-11-10T08:39:25.000Z</time></trkpt><trkpt lon="34.859338" lat="31.369494"><ele>495</ele><time>2017-11-10T08:39:26.000Z</time></trkpt><trkpt lon="34.859364" lat="31.369509"><ele>495</ele><time>2017-11-10T08:39:27.000Z</time></trkpt><trkpt lon="34.85939" lat="31.369523"><ele>495</ele><time>2017-11-10T08:39:28.000Z</time></trkpt><trkpt lon="34.859418" lat="31.369535"><ele>495</ele><time>2017-11-10T08:39:29.000Z</time></trkpt><trkpt lon="34.859445" lat="31.369546"><ele>495</ele><time>2017-11-10T08:39:30.000Z</time></trkpt><trkpt lon="34.859472" lat="31.369556"><ele>496</ele><time>2017-11-10T08:39:31.000Z</time></trkpt><trkpt lon="34.859496" lat="31.369567"><ele>496</ele><time>2017-11-10T08:39:32.000Z</time></trkpt><trkpt lon="34.85952" lat="31.369576"><ele>496</ele><time>2017-11-10T08:39:33.000Z</time></trkpt><trkpt lon="34.85954" lat="31.369588"><ele>496</ele><time>2017-11-10T08:39:34.000Z</time></trkpt><trkpt lon="34.859557" lat="31.369607"><ele>496</ele><time>2017-11-10T08:39:35.000Z</time></trkpt><trkpt lon="34.859575" lat="31.369628"><ele>496</ele><time>2017-11-10T08:39:36.000Z</time></trkpt><trkpt lon="34.859599" lat="31.36965"><ele>496</ele><time>2017-11-10T08:39:37.000Z</time></trkpt><trkpt lon="34.859625" lat="31.369668"><ele>496</ele><time>2017-11-10T08:39:38.000Z</time></trkpt><trkpt lon="34.859655" lat="31.369684"><ele>496</ele><time>2017-11-10T08:39:39.000Z</time></trkpt><trkpt lon="34.859685" lat="31.369698"><ele>496</ele><time>2017-11-10T08:39:40.000Z</time></trkpt><trkpt lon="34.859712" lat="31.369708"><ele>496</ele><time>2017-11-10T08:39:41.000Z</time></trkpt><trkpt lon="34.859741" lat="31.369718"><ele>496</ele><time>2017-11-10T08:39:42.000Z</time></trkpt><trkpt lon="34.85977" lat="31.369732"><ele>496</ele><time>2017-11-10T08:39:43.000Z</time></trkpt><trkpt lon="34.859799" lat="31.369747"><ele>496</ele><time>2017-11-10T08:39:44.000Z</time></trkpt><trkpt lon="34.859825" lat="31.369764"><ele>496</ele><time>2017-11-10T08:39:45.000Z</time></trkpt><trkpt lon="34.85985" lat="31.369782"><ele>497</ele><time>2017-11-10T08:39:46.000Z</time></trkpt><trkpt lon="34.859874" lat="31.369801"><ele>497</ele><time>2017-11-10T08:39:47.000Z</time></trkpt><trkpt lon="34.859898" lat="31.369817"><ele>497</ele><time>2017-11-10T08:39:48.000Z</time></trkpt><trkpt lon="34.859926" lat="31.369831"><ele>497</ele><time>2017-11-10T08:39:49.000Z</time></trkpt><trkpt lon="34.859956" lat="31.369842"><ele>497</ele><time>2017-11-10T08:39:50.000Z</time></trkpt><trkpt lon="34.859986" lat="31.369849"><ele>498</ele><time>2017-11-10T08:39:51.000Z</time></trkpt><trkpt lon="34.860013" lat="31.369852"><ele>498</ele><time>2017-11-10T08:39:52.000Z</time></trkpt><trkpt lon="34.86004" lat="31.369857"><ele>498</ele><time>2017-11-10T08:39:53.000Z</time></trkpt><trkpt lon="34.860064" lat="31.369858"><ele>498</ele><time>2017-11-10T08:39:54.000Z</time></trkpt><trkpt lon="34.860087" lat="31.369857"><ele>499</ele><time>2017-11-10T08:39:55.000Z</time></trkpt><trkpt lon="34.860112" lat="31.369859"><ele>499</ele><time>2017-11-10T08:39:56.000Z</time></trkpt><trkpt lon="34.860137" lat="31.369859"><ele>499</ele><time>2017-11-10T08:39:57.000Z</time></trkpt><trkpt lon="34.860163" lat="31.369862"><ele>499</ele><time>2017-11-10T08:39:58.000Z</time></trkpt><trkpt lon="34.860187" lat="31.369867"><ele>499</ele><time>2017-11-10T08:39:59.000Z</time></trkpt><trkpt lon="34.860212" lat="31.369877"><ele>499</ele><time>2017-11-10T08:40:00.000Z</time></trkpt><trkpt lon="34.860237" lat="31.369893"><ele>499</ele><time>2017-11-10T08:40:01.000Z</time></trkpt><trkpt lon="34.860259" lat="31.369908"><ele>499</ele><time>2017-11-10T08:40:02.000Z</time></trkpt><trkpt lon="34.860283" lat="31.369926"><ele>499</ele><time>2017-11-10T08:40:03.000Z</time></trkpt><trkpt lon="34.860312" lat="31.369944"><ele>499</ele><time>2017-11-10T08:40:04.000Z</time></trkpt><trkpt lon="34.860349" lat="31.369953"><ele>498</ele><time>2017-11-10T08:40:05.000Z</time></trkpt><trkpt lon="34.860385" lat="31.369956"><ele>498</ele><time>2017-11-10T08:40:06.000Z</time></trkpt><trkpt lon="34.860417" lat="31.369959"><ele>498</ele><time>2017-11-10T08:40:07.000Z</time></trkpt><trkpt lon="34.86045" lat="31.369962"><ele>499</ele><time>2017-11-10T08:40:08.000Z</time></trkpt><trkpt lon="34.860483" lat="31.369962"><ele>499</ele><time>2017-11-10T08:40:09.000Z</time></trkpt><trkpt lon="34.860514" lat="31.369965"><ele>499</ele><time>2017-11-10T08:40:10.000Z</time></trkpt><trkpt lon="34.86054" lat="31.369971"><ele>499</ele><time>2017-11-10T08:40:11.000Z</time></trkpt><trkpt lon="34.86057" lat="31.369977"><ele>499</ele><time>2017-11-10T08:40:12.000Z</time></trkpt><trkpt lon="34.860601" lat="31.369985"><ele>499</ele><time>2017-11-10T08:40:13.000Z</time></trkpt><trkpt lon="34.860634" lat="31.369997"><ele>499</ele><time>2017-11-10T08:40:14.000Z</time></trkpt><trkpt lon="34.860668" lat="31.370007"><ele>499</ele><time>2017-11-10T08:40:15.000Z</time></trkpt><trkpt lon="34.860706" lat="31.370013"><ele>499</ele><time>2017-11-10T08:40:16.000Z</time></trkpt><trkpt lon="34.860745" lat="31.370013"><ele>499</ele><time>2017-11-10T08:40:17.000Z</time></trkpt><trkpt lon="34.860781" lat="31.370008"><ele>499</ele><time>2017-11-10T08:40:18.000Z</time></trkpt><trkpt lon="34.86081" lat="31.370002"><ele>499</ele><time>2017-11-10T08:40:19.000Z</time></trkpt><trkpt lon="34.860836" lat="31.369998"><ele>499</ele><time>2017-11-10T08:40:20.000Z</time></trkpt><trkpt lon="34.860864" lat="31.369997"><ele>499</ele><time>2017-11-10T08:40:21.000Z</time></trkpt><trkpt lon="34.86089" lat="31.369998"><ele>499</ele><time>2017-11-10T08:40:22.000Z</time></trkpt><trkpt lon="34.860917" lat="31.369996"><ele>499</ele><time>2017-11-10T08:40:23.000Z</time></trkpt><trkpt lon="34.860947" lat="31.369992"><ele>499</ele><time>2017-11-10T08:40:24.000Z</time></trkpt><trkpt lon="34.860977" lat="31.369987"><ele>499</ele><time>2017-11-10T08:40:25.000Z</time></trkpt><trkpt lon="34.861007" lat="31.369983"><ele>499</ele><time>2017-11-10T08:40:26.000Z</time></trkpt><trkpt lon="34.861036" lat="31.369979"><ele>499</ele><time>2017-11-10T08:40:27.000Z</time></trkpt><trkpt lon="34.861063" lat="31.369973"><ele>499</ele><time>2017-11-10T08:40:28.000Z</time></trkpt><trkpt lon="34.861088" lat="31.369965"><ele>499</ele><time>2017-11-10T08:40:29.000Z</time></trkpt><trkpt lon="34.861113" lat="31.369953"><ele>499</ele><time>2017-11-10T08:40:30.000Z</time></trkpt><trkpt lon="34.861132" lat="31.369937"><ele>499</ele><time>2017-11-10T08:40:31.000Z</time></trkpt><trkpt lon="34.861132" lat="31.369937"><ele>499</ele><time>2017-11-10T08:40:32.000Z</time></trkpt><trkpt lon="34.861142" lat="31.36991"><ele>499</ele><time>2017-11-10T08:40:33.000Z</time></trkpt><trkpt lon="34.861142" lat="31.36991"><ele>499</ele><time>2017-11-10T08:40:34.000Z</time></trkpt><trkpt lon="34.861142" lat="31.36991"><ele>499</ele><time>2017-11-10T08:40:35.000Z</time></trkpt><trkpt lon="34.861142" lat="31.36991"><ele>499</ele><time>2017-11-10T08:40:36.000Z</time></trkpt><trkpt lon="34.861142" lat="31.36991"><ele>499</ele><time>2017-11-10T08:40:37.000Z</time></trkpt><trkpt lon="34.861142" lat="31.36991"><ele>499</ele><time>2017-11-10T08:40:38.000Z</time></trkpt><trkpt lon="34.861142" lat="31.36991"><ele>499</ele><time>2017-11-10T08:40:39.000Z</time></trkpt><trkpt lon="34.861142" lat="31.36991"><ele>499</ele><time>2017-11-10T08:40:40.000Z</time></trkpt><trkpt lon="34.861142" lat="31.36991"><ele>499</ele><time>2017-11-10T08:40:41.000Z</time></trkpt><trkpt lon="34.861142" lat="31.36991"><ele>499</ele><time>2017-11-10T08:40:42.000Z</time></trkpt><trkpt lon="34.861142" lat="31.36991"><ele>499</ele><time>2017-11-10T08:40:43.000Z</time></trkpt><trkpt lon="34.861142" lat="31.36991"><ele>499</ele><time>2017-11-10T08:40:44.000Z</time></trkpt><trkpt lon="34.861142" lat="31.36991"><ele>499</ele><time>2017-11-10T08:40:45.000Z</time></trkpt><trkpt lon="34.861142" lat="31.36991"><ele>499</ele><time>2017-11-10T08:40:46.000Z</time></trkpt><trkpt lon="34.861142" lat="31.36991"><ele>499</ele><time>2017-11-10T08:40:47.000Z</time></trkpt><trkpt lon="34.861142" lat="31.36991"><ele>499</ele><time>2017-11-10T08:40:48.000Z</time></trkpt><trkpt lon="34.861142" lat="31.36991"><ele>499</ele><time>2017-11-10T08:40:49.000Z</time></trkpt><trkpt lon="34.861142" lat="31.36991"><ele>499</ele><time>2017-11-10T08:40:50.000Z</time></trkpt><trkpt lon="34.861142" lat="31.36991"><ele>499</ele><time>2017-11-10T08:40:51.000Z</time></trkpt><trkpt lon="34.861142" lat="31.36991"><ele>499</ele><time>2017-11-10T08:40:52.000Z</time></trkpt><trkpt lon="34.861142" lat="31.36991"><ele>499</ele><time>2017-11-10T08:40:53.000Z</time></trkpt><trkpt lon="34.861142" lat="31.36991"><ele>499</ele><time>2017-11-10T08:40:54.000Z</time></trkpt><trkpt lon="34.861142" lat="31.36991"><ele>499</ele><time>2017-11-10T08:40:55.000Z</time></trkpt><trkpt lon="34.861142" lat="31.36991"><ele>499</ele><time>2017-11-10T08:40:56.000Z</time></trkpt><trkpt lon="34.861142" lat="31.36991"><ele>499</ele><time>2017-11-10T08:40:57.000Z</time></trkpt><trkpt lon="34.861142" lat="31.36991"><ele>499</ele><time>2017-11-10T08:40:58.000Z</time></trkpt><trkpt lon="34.861142" lat="31.36991"><ele>499</ele><time>2017-11-10T08:40:59.000Z</time></trkpt><trkpt lon="34.861142" lat="31.36991"><ele>499</ele><time>2017-11-10T08:41:00.000Z</time></trkpt><trkpt lon="34.861142" lat="31.36991"><ele>499</ele><time>2017-11-10T08:41:01.000Z</time></trkpt><trkpt lon="34.861142" lat="31.36991"><ele>499</ele><time>2017-11-10T08:41:02.000Z</time></trkpt><trkpt lon="34.861142" lat="31.36991"><ele>499</ele><time>2017-11-10T08:41:03.000Z</time></trkpt><trkpt lon="34.861142" lat="31.36991"><ele>499</ele><time>2017-11-10T08:41:04.000Z</time></trkpt><trkpt lon="34.861142" lat="31.36991"><ele>499</ele><time>2017-11-10T08:41:05.000Z</time></trkpt><trkpt lon="34.861142" lat="31.36991"><ele>499</ele><time>2017-11-10T08:41:06.000Z</time></trkpt><trkpt lon="34.861142" lat="31.36991"><ele>499</ele><time>2017-11-10T08:41:07.000Z</time></trkpt><trkpt lon="34.861142" lat="31.36991"><ele>499</ele><time>2017-11-10T08:41:08.000Z</time></trkpt><trkpt lon="34.861142" lat="31.36991"><ele>499</ele><time>2017-11-10T08:41:09.000Z</time></trkpt><trkpt lon="34.861142" lat="31.36991"><ele>499</ele><time>2017-11-10T08:41:10.000Z</time></trkpt><trkpt lon="34.861142" lat="31.36991"><ele>499</ele><time>2017-11-10T08:41:11.000Z</time></trkpt><trkpt lon="34.861142" lat="31.36991"><ele>499</ele><time>2017-11-10T08:41:12.000Z</time></trkpt><trkpt lon="34.861142" lat="31.36991"><ele>499</ele><time>2017-11-10T08:41:13.000Z</time></trkpt><trkpt lon="34.861142" lat="31.36991"><ele>499</ele><time>2017-11-10T08:41:14.000Z</time></trkpt><trkpt lon="34.861142" lat="31.36991"><ele>499</ele><time>2017-11-10T08:41:15.000Z</time></trkpt><trkpt lon="34.861142" lat="31.36991"><ele>499</ele><time>2017-11-10T08:41:16.000Z</time></trkpt><trkpt lon="34.861142" lat="31.36991"><ele>499</ele><time>2017-11-10T08:41:17.000Z</time></trkpt><trkpt lon="34.861142" lat="31.36991"><ele>499</ele><time>2017-11-10T08:41:18.000Z</time></trkpt><trkpt lon="34.861142" lat="31.36991"><ele>499</ele><time>2017-11-10T08:41:19.000Z</time></trkpt><trkpt lon="34.861142" lat="31.36991"><ele>499</ele><time>2017-11-10T08:41:20.000Z</time></trkpt><trkpt lon="34.861142" lat="31.36991"><ele>499</ele><time>2017-11-10T08:41:21.000Z</time></trkpt><trkpt lon="34.861142" lat="31.36991"><ele>499</ele><time>2017-11-10T08:41:22.000Z</time></trkpt><trkpt lon="34.861142" lat="31.36991"><ele>499</ele><time>2017-11-10T08:41:23.000Z</time></trkpt><trkpt lon="34.861142" lat="31.36991"><ele>499</ele><time>2017-11-10T08:41:24.000Z</time></trkpt><trkpt lon="34.861142" lat="31.36991"><ele>499</ele><time>2017-11-10T08:41:25.000Z</time></trkpt><trkpt lon="34.861142" lat="31.36991"><ele>499</ele><time>2017-11-10T08:41:26.000Z</time></trkpt><trkpt lon="34.861142" lat="31.36991"><ele>499</ele><time>2017-11-10T08:41:27.000Z</time></trkpt><trkpt lon="34.861142" lat="31.36991"><ele>499</ele><time>2017-11-10T08:41:28.000Z</time></trkpt><trkpt lon="34.861142" lat="31.36991"><ele>499</ele><time>2017-11-10T08:41:29.000Z</time></trkpt><trkpt lon="34.861142" lat="31.36991"><ele>499</ele><time>2017-11-10T08:41:30.000Z</time></trkpt><trkpt lon="34.861142" lat="31.36991"><ele>500</ele><time>2017-11-10T08:41:31.000Z</time></trkpt><trkpt lon="34.861142" lat="31.36991"><ele>500</ele><time>2017-11-10T08:41:32.000Z</time></trkpt><trkpt lon="34.861142" lat="31.36991"><ele>500</ele><time>2017-11-10T08:41:33.000Z</time></trkpt><trkpt lon="34.861142" lat="31.36991"><ele>500</ele><time>2017-11-10T08:41:34.000Z</time></trkpt><trkpt lon="34.861142" lat="31.36991"><ele>500</ele><time>2017-11-10T08:41:35.000Z</time></trkpt><trkpt lon="34.861142" lat="31.36991"><ele>500</ele><time>2017-11-10T08:41:36.000Z</time></trkpt><trkpt lon="34.861142" lat="31.36991"><ele>500</ele><time>2017-11-10T08:41:37.000Z</time></trkpt><trkpt lon="34.861142" lat="31.36991"><ele>500</ele><time>2017-11-10T08:41:38.000Z</time></trkpt><trkpt lon="34.861142" lat="31.36991"><ele>500</ele><time>2017-11-10T08:41:39.000Z</time></trkpt><trkpt lon="34.861142" lat="31.36991"><ele>500</ele><time>2017-11-10T08:41:40.000Z</time></trkpt><trkpt lon="34.861142" lat="31.36991"><ele>500</ele><time>2017-11-10T08:41:41.000Z</time></trkpt><trkpt lon="34.861142" lat="31.36991"><ele>500</ele><time>2017-11-10T08:41:42.000Z</time></trkpt><trkpt lon="34.861142" lat="31.36991"><ele>499</ele><time>2017-11-10T08:41:43.000Z</time></trkpt><trkpt lon="34.861142" lat="31.36991"><ele>500</ele><time>2017-11-10T08:41:44.000Z</time></trkpt><trkpt lon="34.861142" lat="31.36991"><ele>500</ele><time>2017-11-10T08:41:45.000Z</time></trkpt><trkpt lon="34.861142" lat="31.36991"><ele>500</ele><time>2017-11-10T08:41:46.000Z</time></trkpt><trkpt lon="34.861142" lat="31.36991"><ele>500</ele><time>2017-11-10T08:41:47.000Z</time></trkpt><trkpt lon="34.861142" lat="31.36991"><ele>500</ele><time>2017-11-10T08:41:48.000Z</time></trkpt><trkpt lon="34.861142" lat="31.36991"><ele>500</ele><time>2017-11-10T08:41:49.000Z</time></trkpt><trkpt lon="34.861142" lat="31.36991"><ele>499</ele><time>2017-11-10T08:41:50.000Z</time></trkpt><trkpt lon="34.861142" lat="31.36991"><ele>499</ele><time>2017-11-10T08:41:51.000Z</time></trkpt><trkpt lon="34.861142" lat="31.36991"><ele>499</ele><time>2017-11-10T08:41:52.000Z</time></trkpt><trkpt lon="34.861142" lat="31.36991"><ele>499</ele><time>2017-11-10T08:41:53.000Z</time></trkpt><trkpt lon="34.861142" lat="31.36991"><ele>499</ele><time>2017-11-10T08:41:54.000Z</time></trkpt><trkpt lon="34.861142" lat="31.36991"><ele>499</ele><time>2017-11-10T08:41:55.000Z</time></trkpt><trkpt lon="34.861142" lat="31.36991"><ele>499</ele><time>2017-11-10T08:41:56.000Z</time></trkpt><trkpt lon="34.861142" lat="31.36991"><ele>499</ele><time>2017-11-10T08:41:57.000Z</time></trkpt><trkpt lon="34.861142" lat="31.36991"><ele>499</ele><time>2017-11-10T08:41:58.000Z</time></trkpt><trkpt lon="34.861142" lat="31.36991"><ele>499</ele><time>2017-11-10T08:41:59.000Z</time></trkpt><trkpt lon="34.861142" lat="31.36991"><ele>500</ele><time>2017-11-10T08:42:00.000Z</time></trkpt><trkpt lon="34.861142" lat="31.36991"><ele>500</ele><time>2017-11-10T08:42:01.000Z</time></trkpt><trkpt lon="34.861142" lat="31.36991"><ele>500</ele><time>2017-11-10T08:42:02.000Z</time></trkpt><trkpt lon="34.861142" lat="31.36991"><ele>499</ele><time>2017-11-10T08:42:03.000Z</time></trkpt><trkpt lon="34.861142" lat="31.36991"><ele>499</ele><time>2017-11-10T08:42:04.000Z</time></trkpt><trkpt lon="34.861142" lat="31.36991"><ele>499</ele><time>2017-11-10T08:42:05.000Z</time></trkpt><trkpt lon="34.861142" lat="31.36991"><ele>499</ele><time>2017-11-10T08:42:06.000Z</time></trkpt><trkpt lon="34.861142" lat="31.36991"><ele>499</ele><time>2017-11-10T08:42:07.000Z</time></trkpt><trkpt lon="34.861142" lat="31.36991"><ele>499</ele><time>2017-11-10T08:42:08.000Z</time></trkpt><trkpt lon="34.861142" lat="31.36991"><ele>499</ele><time>2017-11-10T08:42:09.000Z</time></trkpt><trkpt lon="34.861142" lat="31.36991"><ele>499</ele><time>2017-11-10T08:42:10.000Z</time></trkpt><trkpt lon="34.861142" lat="31.36991"><ele>499</ele><time>2017-11-10T08:42:11.000Z</time></trkpt><trkpt lon="34.861142" lat="31.36991"><ele>499</ele><time>2017-11-10T08:42:12.000Z</time></trkpt><trkpt lon="34.861142" lat="31.36991"><ele>500</ele><time>2017-11-10T08:42:13.000Z</time></trkpt><trkpt lon="34.861142" lat="31.36991"><ele>500</ele><time>2017-11-10T08:42:14.000Z</time></trkpt><trkpt lon="34.861142" lat="31.36991"><ele>500</ele><time>2017-11-10T08:42:15.000Z</time></trkpt><trkpt lon="34.861142" lat="31.36991"><ele>500</ele><time>2017-11-10T08:42:16.000Z</time></trkpt><trkpt lon="34.861142" lat="31.36991"><ele>500</ele><time>2017-11-10T08:42:17.000Z</time></trkpt><trkpt lon="34.861142" lat="31.36991"><ele>500</ele><time>2017-11-10T08:42:18.000Z</time></trkpt><trkpt lon="34.861142" lat="31.36991"><ele>500</ele><time>2017-11-10T08:42:19.000Z</time></trkpt><trkpt lon="34.861142" lat="31.36991"><ele>500</ele><time>2017-11-10T08:42:20.000Z</time></trkpt><trkpt lon="34.861142" lat="31.36991"><ele>500</ele><time>2017-11-10T08:42:21.000Z</time></trkpt><trkpt lon="34.861142" lat="31.36991"><ele>500</ele><time>2017-11-10T08:42:22.000Z</time></trkpt><trkpt lon="34.861142" lat="31.36991"><ele>500</ele><time>2017-11-10T08:42:23.000Z</time></trkpt><trkpt lon="34.861142" lat="31.36991"><ele>500</ele><time>2017-11-10T08:42:24.000Z</time></trkpt><trkpt lon="34.861142" lat="31.36991"><ele>500</ele><time>2017-11-10T08:42:25.000Z</time></trkpt><trkpt lon="34.861142" lat="31.36991"><ele>500</ele><time>2017-11-10T08:42:26.000Z</time></trkpt><trkpt lon="34.861142" lat="31.36991"><ele>500</ele><time>2017-11-10T08:42:27.000Z</time></trkpt><trkpt lon="34.861142" lat="31.36991"><ele>500</ele><time>2017-11-10T08:42:28.000Z</time></trkpt><trkpt lon="34.861142" lat="31.36991"><ele>500</ele><time>2017-11-10T08:42:29.000Z</time></trkpt><trkpt lon="34.861142" lat="31.36991"><ele>500</ele><time>2017-11-10T08:42:30.000Z</time></trkpt><trkpt lon="34.861142" lat="31.36991"><ele>500</ele><time>2017-11-10T08:42:31.000Z</time></trkpt><trkpt lon="34.861142" lat="31.36991"><ele>500</ele><time>2017-11-10T08:42:32.000Z</time></trkpt><trkpt lon="34.861142" lat="31.36991"><ele>500</ele><time>2017-11-10T08:42:33.000Z</time></trkpt><trkpt lon="34.861142" lat="31.36991"><ele>500</ele><time>2017-11-10T08:42:34.000Z</time></trkpt><trkpt lon="34.861142" lat="31.36991"><ele>500</ele><time>2017-11-10T08:42:35.000Z</time></trkpt><trkpt lon="34.861142" lat="31.36991"><ele>500</ele><time>2017-11-10T08:42:36.000Z</time></trkpt><trkpt lon="34.861142" lat="31.36991"><ele>500</ele><time>2017-11-10T08:42:37.000Z</time></trkpt><trkpt lon="34.861142" lat="31.36991"><ele>500</ele><time>2017-11-10T08:42:38.000Z</time></trkpt><trkpt lon="34.861142" lat="31.36991"><ele>500</ele><time>2017-11-10T08:42:39.000Z</time></trkpt><trkpt lon="34.861142" lat="31.36991"><ele>500</ele><time>2017-11-10T08:42:40.000Z</time></trkpt><trkpt lon="34.861142" lat="31.36991"><ele>500</ele><time>2017-11-10T08:42:41.000Z</time></trkpt><trkpt lon="34.861142" lat="31.36991"><ele>500</ele><time>2017-11-10T08:42:42.000Z</time></trkpt><trkpt lon="34.861142" lat="31.36991"><ele>500</ele><time>2017-11-10T08:42:43.000Z</time></trkpt><trkpt lon="34.861142" lat="31.36991"><ele>500</ele><time>2017-11-10T08:42:44.000Z</time></trkpt><trkpt lon="34.861142" lat="31.36991"><ele>500</ele><time>2017-11-10T08:42:45.000Z</time></trkpt><trkpt lon="34.861142" lat="31.36991"><ele>500</ele><time>2017-11-10T08:42:46.000Z</time></trkpt><trkpt lon="34.861142" lat="31.36991"><ele>500</ele><time>2017-11-10T08:42:47.000Z</time></trkpt><trkpt lon="34.861142" lat="31.36991"><ele>500</ele><time>2017-11-10T08:42:48.000Z</time></trkpt><trkpt lon="34.861142" lat="31.36991"><ele>500</ele><time>2017-11-10T08:42:49.000Z</time></trkpt><trkpt lon="34.861142" lat="31.36991"><ele>500</ele><time>2017-11-10T08:42:50.000Z</time></trkpt><trkpt lon="34.861142" lat="31.36991"><ele>500</ele><time>2017-11-10T08:42:51.000Z</time></trkpt><trkpt lon="34.861142" lat="31.36991"><ele>500</ele><time>2017-11-10T08:42:52.000Z</time></trkpt><trkpt lon="34.861142" lat="31.36991"><ele>500</ele><time>2017-11-10T08:42:53.000Z</time></trkpt><trkpt lon="34.861142" lat="31.36991"><ele>500</ele><time>2017-11-10T08:42:54.000Z</time></trkpt><trkpt lon="34.861142" lat="31.36991"><ele>500</ele><time>2017-11-10T08:42:55.000Z</time></trkpt><trkpt lon="34.861142" lat="31.36991"><ele>500</ele><time>2017-11-10T08:42:56.000Z</time></trkpt><trkpt lon="34.861142" lat="31.36991"><ele>500</ele><time>2017-11-10T08:42:57.000Z</time></trkpt><trkpt lon="34.861142" lat="31.36991"><ele>500</ele><time>2017-11-10T08:42:58.000Z</time></trkpt><trkpt lon="34.861142" lat="31.36991"><ele>500</ele><time>2017-11-10T08:42:59.000Z</time></trkpt><trkpt lon="34.861142" lat="31.36991"><ele>500</ele><time>2017-11-10T08:43:00.000Z</time></trkpt><trkpt lon="34.861142" lat="31.36991"><ele>500</ele><time>2017-11-10T08:43:01.000Z</time></trkpt><trkpt lon="34.861142" lat="31.36991"><ele>500</ele><time>2017-11-10T08:43:02.000Z</time></trkpt><trkpt lon="34.861142" lat="31.36991"><ele>500</ele><time>2017-11-10T08:43:03.000Z</time></trkpt><trkpt lon="34.861142" lat="31.36991"><ele>500</ele><time>2017-11-10T08:43:04.000Z</time></trkpt><trkpt lon="34.861142" lat="31.36991"><ele>500</ele><time>2017-11-10T08:43:05.000Z</time></trkpt><trkpt lon="34.861163" lat="31.369919"><ele>500</ele><time>2017-11-10T08:43:06.000Z</time></trkpt><trkpt lon="34.861187" lat="31.36992"><ele>500</ele><time>2017-11-10T08:43:07.000Z</time></trkpt><trkpt lon="34.861218" lat="31.369915"><ele>500</ele><time>2017-11-10T08:43:08.000Z</time></trkpt><trkpt lon="34.861257" lat="31.369904"><ele>500</ele><time>2017-11-10T08:43:09.000Z</time></trkpt><trkpt lon="34.861296" lat="31.369885"><ele>499</ele><time>2017-11-10T08:43:10.000Z</time></trkpt><trkpt lon="34.861328" lat="31.369858"><ele>499</ele><time>2017-11-10T08:43:11.000Z</time></trkpt><trkpt lon="34.861356" lat="31.369829"><ele>499</ele><time>2017-11-10T08:43:12.000Z</time></trkpt><trkpt lon="34.861377" lat="31.369798"><ele>499</ele><time>2017-11-10T08:43:13.000Z</time></trkpt><trkpt lon="34.861393" lat="31.369765"><ele>499</ele><time>2017-11-10T08:43:14.000Z</time></trkpt><trkpt lon="34.861405" lat="31.36973"><ele>500</ele><time>2017-11-10T08:43:15.000Z</time></trkpt><trkpt lon="34.861418" lat="31.369692"><ele>500</ele><time>2017-11-10T08:43:16.000Z</time></trkpt><trkpt lon="34.861427" lat="31.369653"><ele>501</ele><time>2017-11-10T08:43:17.000Z</time></trkpt><trkpt lon="34.861434" lat="31.369615"><ele>501</ele><time>2017-11-10T08:43:18.000Z</time></trkpt><trkpt lon="34.86144" lat="31.36958"><ele>501</ele><time>2017-11-10T08:43:19.000Z</time></trkpt><trkpt lon="34.861446" lat="31.369545"><ele>501</ele><time>2017-11-10T08:43:20.000Z</time></trkpt><trkpt lon="34.861449" lat="31.369509"><ele>501</ele><time>2017-11-10T08:43:21.000Z</time></trkpt><trkpt lon="34.861449" lat="31.369475"><ele>501</ele><time>2017-11-10T08:43:22.000Z</time></trkpt><trkpt lon="34.861447" lat="31.36944"><ele>501</ele><time>2017-11-10T08:43:23.000Z</time></trkpt><trkpt lon="34.861446" lat="31.369405"><ele>501</ele><time>2017-11-10T08:43:24.000Z</time></trkpt><trkpt lon="34.861446" lat="31.369369"><ele>501</ele><time>2017-11-10T08:43:25.000Z</time></trkpt><trkpt lon="34.861448" lat="31.369333"><ele>501</ele><time>2017-11-10T08:43:26.000Z</time></trkpt><trkpt lon="34.861449" lat="31.369297"><ele>501</ele><time>2017-11-10T08:43:27.000Z</time></trkpt><trkpt lon="34.861451" lat="31.369261"><ele>501</ele><time>2017-11-10T08:43:28.000Z</time></trkpt><trkpt lon="34.86145" lat="31.369223"><ele>501</ele><time>2017-11-10T08:43:29.000Z</time></trkpt><trkpt lon="34.861442" lat="31.369184"><ele>501</ele><time>2017-11-10T08:43:30.000Z</time></trkpt><trkpt lon="34.861432" lat="31.369147"><ele>501</ele><time>2017-11-10T08:43:31.000Z</time></trkpt><trkpt lon="34.861424" lat="31.36911"><ele>501</ele><time>2017-11-10T08:43:32.000Z</time></trkpt><trkpt lon="34.861418" lat="31.369075"><ele>501</ele><time>2017-11-10T08:43:33.000Z</time></trkpt><trkpt lon="34.861411" lat="31.369041"><ele>501</ele><time>2017-11-10T08:43:34.000Z</time></trkpt><trkpt lon="34.861401" lat="31.369008"><ele>501</ele><time>2017-11-10T08:43:35.000Z</time></trkpt><trkpt lon="34.861393" lat="31.368975"><ele>501</ele><time>2017-11-10T08:43:36.000Z</time></trkpt><trkpt lon="34.861384" lat="31.368941"><ele>501</ele><time>2017-11-10T08:43:37.000Z</time></trkpt><trkpt lon="34.861374" lat="31.36891"><ele>501</ele><time>2017-11-10T08:43:38.000Z</time></trkpt><trkpt lon="34.861365" lat="31.368877"><ele>501</ele><time>2017-11-10T08:43:39.000Z</time></trkpt><trkpt lon="34.861358" lat="31.368843"><ele>502</ele><time>2017-11-10T08:43:40.000Z</time></trkpt><trkpt lon="34.861353" lat="31.36881"><ele>502</ele><time>2017-11-10T08:43:41.000Z</time></trkpt><trkpt lon="34.861348" lat="31.36878"><ele>502</ele><time>2017-11-10T08:43:42.000Z</time></trkpt><trkpt lon="34.861349" lat="31.368747"><ele>502</ele><time>2017-11-10T08:43:43.000Z</time></trkpt><trkpt lon="34.861354" lat="31.368714"><ele>502</ele><time>2017-11-10T08:43:44.000Z</time></trkpt><trkpt lon="34.861359" lat="31.368684"><ele>502</ele><time>2017-11-10T08:43:45.000Z</time></trkpt><trkpt lon="34.86136" lat="31.368654"><ele>502</ele><time>2017-11-10T08:43:46.000Z</time></trkpt><trkpt lon="34.86135" lat="31.368627"><ele>502</ele><time>2017-11-10T08:43:47.000Z</time></trkpt><trkpt lon="34.861332" lat="31.368605"><ele>503</ele><time>2017-11-10T08:43:48.000Z</time></trkpt><trkpt lon="34.861312" lat="31.368583"><ele>503</ele><time>2017-11-10T08:43:49.000Z</time></trkpt><trkpt lon="34.861291" lat="31.368558"><ele>503</ele><time>2017-11-10T08:43:50.000Z</time></trkpt><trkpt lon="34.861267" lat="31.368533"><ele>503</ele><time>2017-11-10T08:43:51.000Z</time></trkpt><trkpt lon="34.861239" lat="31.368511"><ele>503</ele><time>2017-11-10T08:43:52.000Z</time></trkpt><trkpt lon="34.861211" lat="31.368488"><ele>503</ele><time>2017-11-10T08:43:53.000Z</time></trkpt><trkpt lon="34.86118" lat="31.368463"><ele>503</ele><time>2017-11-10T08:43:54.000Z</time></trkpt><trkpt lon="34.861144" lat="31.36844"><ele>503</ele><time>2017-11-10T08:43:55.000Z</time></trkpt><trkpt lon="34.861107" lat="31.368415"><ele>502</ele><time>2017-11-10T08:43:56.000Z</time></trkpt><trkpt lon="34.861068" lat="31.368387"><ele>502</ele><time>2017-11-10T08:43:57.000Z</time></trkpt><trkpt lon="34.861031" lat="31.368352"><ele>502</ele><time>2017-11-10T08:43:58.000Z</time></trkpt><trkpt lon="34.860996" lat="31.368309"><ele>501</ele><time>2017-11-10T08:43:59.000Z</time></trkpt><trkpt lon="34.860961" lat="31.368262"><ele>501</ele><time>2017-11-10T08:44:00.000Z</time></trkpt><trkpt lon="34.860926" lat="31.368214"><ele>500</ele><time>2017-11-10T08:44:01.000Z</time></trkpt><trkpt lon="34.860883" lat="31.368158"><ele>500</ele><time>2017-11-10T08:44:02.000Z</time></trkpt><trkpt lon="34.860827" lat="31.368107"><ele>500</ele><time>2017-11-10T08:44:03.000Z</time></trkpt><trkpt lon="34.860771" lat="31.368056"><ele>500</ele><time>2017-11-10T08:44:04.000Z</time></trkpt><trkpt lon="34.860719" lat="31.36801"><ele>500</ele><time>2017-11-10T08:44:05.000Z</time></trkpt><trkpt lon="34.860679" lat="31.367962"><ele>500</ele><time>2017-11-10T08:44:06.000Z</time></trkpt><trkpt lon="34.860649" lat="31.367916"><ele>500</ele><time>2017-11-10T08:44:07.000Z</time></trkpt><trkpt lon="34.860626" lat="31.367868"><ele>500</ele><time>2017-11-10T08:44:08.000Z</time></trkpt><trkpt lon="34.860615" lat="31.367816"><ele>500</ele><time>2017-11-10T08:44:09.000Z</time></trkpt><trkpt lon="34.86061" lat="31.367765"><ele>500</ele><time>2017-11-10T08:44:10.000Z</time></trkpt><trkpt lon="34.860603" lat="31.367714"><ele>500</ele><time>2017-11-10T08:44:11.000Z</time></trkpt><trkpt lon="34.860594" lat="31.367662"><ele>500</ele><time>2017-11-10T08:44:12.000Z</time></trkpt><trkpt lon="34.860584" lat="31.36761"><ele>500</ele><time>2017-11-10T08:44:13.000Z</time></trkpt><trkpt lon="34.860567" lat="31.367558"><ele>500</ele><time>2017-11-10T08:44:14.000Z</time></trkpt><trkpt lon="34.860543" lat="31.36751"><ele>500</ele><time>2017-11-10T08:44:15.000Z</time></trkpt><trkpt lon="34.860515" lat="31.367466"><ele>500</ele><time>2017-11-10T08:44:16.000Z</time></trkpt><trkpt lon="34.860487" lat="31.367422"><ele>500</ele><time>2017-11-10T08:44:17.000Z</time></trkpt><trkpt lon="34.860458" lat="31.36738"><ele>500</ele><time>2017-11-10T08:44:18.000Z</time></trkpt><trkpt lon="34.860429" lat="31.367338"><ele>500</ele><time>2017-11-10T08:44:19.000Z</time></trkpt><trkpt lon="34.860391" lat="31.3673"><ele>500</ele><time>2017-11-10T08:44:20.000Z</time></trkpt><trkpt lon="34.860343" lat="31.367264"><ele>499</ele><time>2017-11-10T08:44:21.000Z</time></trkpt><trkpt lon="34.860289" lat="31.367229"><ele>499</ele><time>2017-11-10T08:44:22.000Z</time></trkpt><trkpt lon="34.860227" lat="31.367192"><ele>499</ele><time>2017-11-10T08:44:23.000Z</time></trkpt><trkpt lon="34.860158" lat="31.367158"><ele>499</ele><time>2017-11-10T08:44:24.000Z</time></trkpt><trkpt lon="34.860088" lat="31.367128"><ele>498</ele><time>2017-11-10T08:44:25.000Z</time></trkpt><trkpt lon="34.860021" lat="31.367098"><ele>498</ele><time>2017-11-10T08:44:26.000Z</time></trkpt><trkpt lon="34.859952" lat="31.367072"><ele>498</ele><time>2017-11-10T08:44:27.000Z</time></trkpt><trkpt lon="34.859887" lat="31.367052"><ele>498</ele><time>2017-11-10T08:44:28.000Z</time></trkpt><trkpt lon="34.859826" lat="31.367034"><ele>498</ele><time>2017-11-10T08:44:29.000Z</time></trkpt><trkpt lon="34.859771" lat="31.367014"><ele>498</ele><time>2017-11-10T08:44:30.000Z</time></trkpt><trkpt lon="34.859723" lat="31.366988"><ele>498</ele><time>2017-11-10T08:44:31.000Z</time></trkpt><trkpt lon="34.859678" lat="31.36696"><ele>498</ele><time>2017-11-10T08:44:32.000Z</time></trkpt><trkpt lon="34.859633" lat="31.366924"><ele>498</ele><time>2017-11-10T08:44:33.000Z</time></trkpt><trkpt lon="34.859586" lat="31.366892"><ele>498</ele><time>2017-11-10T08:44:34.000Z</time></trkpt><trkpt lon="34.859533" lat="31.366857"><ele>498</ele><time>2017-11-10T08:44:35.000Z</time></trkpt><trkpt lon="34.859485" lat="31.366824"><ele>498</ele><time>2017-11-10T08:44:36.000Z</time></trkpt><trkpt lon="34.859448" lat="31.366796"><ele>499</ele><time>2017-11-10T08:44:37.000Z</time></trkpt><trkpt lon="34.859411" lat="31.366769"><ele>499</ele><time>2017-11-10T08:44:38.000Z</time></trkpt><trkpt lon="34.859386" lat="31.366736"><ele>499</ele><time>2017-11-10T08:44:39.000Z</time></trkpt><trkpt lon="34.859385" lat="31.366698"><ele>499</ele><time>2017-11-10T08:44:40.000Z</time></trkpt><trkpt lon="34.859387" lat="31.36666"><ele>498</ele><time>2017-11-10T08:44:41.000Z</time></trkpt><trkpt lon="34.859387" lat="31.366636"><ele>498</ele><time>2017-11-10T08:44:42.000Z</time></trkpt><trkpt lon="34.859387" lat="31.366636"><ele>498</ele><time>2017-11-10T08:44:43.000Z</time></trkpt><trkpt lon="34.859387" lat="31.366636"><ele>497</ele><time>2017-11-10T08:44:44.000Z</time></trkpt><trkpt lon="34.859387" lat="31.366636"><ele>497</ele><time>2017-11-10T08:44:45.000Z</time></trkpt><trkpt lon="34.859387" lat="31.366636"><ele>497</ele><time>2017-11-10T08:44:46.000Z</time></trkpt><trkpt lon="34.859387" lat="31.366636"><ele>497</ele><time>2017-11-10T08:44:47.000Z</time></trkpt><trkpt lon="34.859387" lat="31.366636"><ele>497</ele><time>2017-11-10T08:44:48.000Z</time></trkpt><trkpt lon="34.859399" lat="31.366621"><ele>497</ele><time>2017-11-10T08:44:49.000Z</time></trkpt><trkpt lon="34.859399" lat="31.366621"><ele>497</ele><time>2017-11-10T08:44:50.000Z</time></trkpt><trkpt lon="34.859399" lat="31.366621"><ele>497</ele><time>2017-11-10T08:44:51.000Z</time></trkpt><trkpt lon="34.859399" lat="31.366621"><ele>497</ele><time>2017-11-10T08:44:52.000Z</time></trkpt><trkpt lon="34.859399" lat="31.366621"><ele>497</ele><time>2017-11-10T08:44:53.000Z</time></trkpt><trkpt lon="34.859399" lat="31.366621"><ele>497</ele><time>2017-11-10T08:44:54.000Z</time></trkpt><trkpt lon="34.859399" lat="31.366621"><ele>497</ele><time>2017-11-10T08:44:55.000Z</time></trkpt><trkpt lon="34.859399" lat="31.366621"><ele>497</ele><time>2017-11-10T08:44:56.000Z</time></trkpt><trkpt lon="34.859399" lat="31.366621"><ele>497</ele><time>2017-11-10T08:44:57.000Z</time></trkpt><trkpt lon="34.859399" lat="31.366621"><ele>497</ele><time>2017-11-10T08:44:58.000Z</time></trkpt><trkpt lon="34.859399" lat="31.366621"><ele>497</ele><time>2017-11-10T08:44:59.000Z</time></trkpt><trkpt lon="34.859399" lat="31.366621"><ele>497</ele><time>2017-11-10T08:45:00.000Z</time></trkpt><trkpt lon="34.859399" lat="31.366621"><ele>498</ele><time>2017-11-10T08:45:01.000Z</time></trkpt><trkpt lon="34.859399" lat="31.366621"><ele>498</ele><time>2017-11-10T08:45:02.000Z</time></trkpt><trkpt lon="34.859399" lat="31.366621"><ele>498</ele><time>2017-11-10T08:45:03.000Z</time></trkpt><trkpt lon="34.859399" lat="31.366621"><ele>498</ele><time>2017-11-10T08:45:04.000Z</time></trkpt><trkpt lon="34.859408" lat="31.366596"><ele>498</ele><time>2017-11-10T08:45:05.000Z</time></trkpt><trkpt lon="34.859403" lat="31.366576"><ele>498</ele><time>2017-11-10T08:45:06.000Z</time></trkpt><trkpt lon="34.859396" lat="31.36655"><ele>498</ele><time>2017-11-10T08:45:07.000Z</time></trkpt><trkpt lon="34.859386" lat="31.366519"><ele>498</ele><time>2017-11-10T08:45:08.000Z</time></trkpt><trkpt lon="34.859369" lat="31.366487"><ele>498</ele><time>2017-11-10T08:45:09.000Z</time></trkpt><trkpt lon="34.859348" lat="31.366456"><ele>497</ele><time>2017-11-10T08:45:10.000Z</time></trkpt><trkpt lon="34.859337" lat="31.366422"><ele>497</ele><time>2017-11-10T08:45:11.000Z</time></trkpt><trkpt lon="34.859339" lat="31.366387"><ele>497</ele><time>2017-11-10T08:45:12.000Z</time></trkpt><trkpt lon="34.859343" lat="31.366358"><ele>497</ele><time>2017-11-10T08:45:13.000Z</time></trkpt><trkpt lon="34.859343" lat="31.366334"><ele>497</ele><time>2017-11-10T08:45:14.000Z</time></trkpt><trkpt lon="34.859336" lat="31.366316"><ele>497</ele><time>2017-11-10T08:45:15.000Z</time></trkpt><trkpt lon="34.859322" lat="31.366301"><ele>497</ele><time>2017-11-10T08:45:16.000Z</time></trkpt><trkpt lon="34.859305" lat="31.366287"><ele>496</ele><time>2017-11-10T08:45:17.000Z</time></trkpt><trkpt lon="34.859287" lat="31.366273"><ele>496</ele><time>2017-11-10T08:45:18.000Z</time></trkpt><trkpt lon="34.859269" lat="31.366255"><ele>496</ele><time>2017-11-10T08:45:19.000Z</time></trkpt><trkpt lon="34.859248" lat="31.366234"><ele>496</ele><time>2017-11-10T08:45:20.000Z</time></trkpt><trkpt lon="34.85923" lat="31.366209"><ele>496</ele><time>2017-11-10T08:45:21.000Z</time></trkpt><trkpt lon="34.859214" lat="31.366178"><ele>496</ele><time>2017-11-10T08:45:22.000Z</time></trkpt><trkpt lon="34.859196" lat="31.36614"><ele>496</ele><time>2017-11-10T08:45:23.000Z</time></trkpt><trkpt lon="34.859179" lat="31.366099"><ele>496</ele><time>2017-11-10T08:45:24.000Z</time></trkpt><trkpt lon="34.859155" lat="31.366054"><ele>495</ele><time>2017-11-10T08:45:25.000Z</time></trkpt><trkpt lon="34.85912" lat="31.366003"><ele>494</ele><time>2017-11-10T08:45:26.000Z</time></trkpt><trkpt lon="34.859087" lat="31.365951"><ele>493</ele><time>2017-11-10T08:45:27.000Z</time></trkpt><trkpt lon="34.859066" lat="31.3659"><ele>492</ele><time>2017-11-10T08:45:28.000Z</time></trkpt><trkpt lon="34.859065" lat="31.365847"><ele>492</ele><time>2017-11-10T08:45:29.000Z</time></trkpt><trkpt lon="34.859078" lat="31.365792"><ele>491</ele><time>2017-11-10T08:45:30.000Z</time></trkpt><trkpt lon="34.859077" lat="31.365738"><ele>490</ele><time>2017-11-10T08:45:31.000Z</time></trkpt><trkpt lon="34.859065" lat="31.365684"><ele>490</ele><time>2017-11-10T08:45:32.000Z</time></trkpt><trkpt lon="34.859039" lat="31.36563"><ele>490</ele><time>2017-11-10T08:45:33.000Z</time></trkpt><trkpt lon="34.859003" lat="31.365576"><ele>490</ele><time>2017-11-10T08:45:34.000Z</time></trkpt><trkpt lon="34.858968" lat="31.365521"><ele>489</ele><time>2017-11-10T08:45:35.000Z</time></trkpt><trkpt lon="34.858935" lat="31.365464"><ele>488</ele><time>2017-11-10T08:45:36.000Z</time></trkpt><trkpt lon="34.858901" lat="31.365412"><ele>487</ele><time>2017-11-10T08:45:37.000Z</time></trkpt><trkpt lon="34.858873" lat="31.365367"><ele>486</ele><time>2017-11-10T08:45:38.000Z</time></trkpt><trkpt lon="34.858865" lat="31.365329"><ele>485</ele><time>2017-11-10T08:45:39.000Z</time></trkpt><trkpt lon="34.858868" lat="31.365298"><ele>485</ele><time>2017-11-10T08:45:40.000Z</time></trkpt><trkpt lon="34.858877" lat="31.365274"><ele>484</ele><time>2017-11-10T08:45:41.000Z</time></trkpt><trkpt lon="34.858882" lat="31.365247"><ele>484</ele><time>2017-11-10T08:45:42.000Z</time></trkpt><trkpt lon="34.858891" lat="31.365218"><ele>484</ele><time>2017-11-10T08:45:43.000Z</time></trkpt><trkpt lon="34.858903" lat="31.365186"><ele>485</ele><time>2017-11-10T08:45:44.000Z</time></trkpt><trkpt lon="34.858917" lat="31.365155"><ele>484</ele><time>2017-11-10T08:45:45.000Z</time></trkpt><trkpt lon="34.858929" lat="31.365126"><ele>484</ele><time>2017-11-10T08:45:46.000Z</time></trkpt><trkpt lon="34.85894" lat="31.365094"><ele>484</ele><time>2017-11-10T08:45:47.000Z</time></trkpt><trkpt lon="34.858932" lat="31.365059"><ele>484</ele><time>2017-11-10T08:45:48.000Z</time></trkpt><trkpt lon="34.858915" lat="31.365019"><ele>483</ele><time>2017-11-10T08:45:49.000Z</time></trkpt><trkpt lon="34.858919" lat="31.364976"><ele>482</ele><time>2017-11-10T08:45:50.000Z</time></trkpt><trkpt lon="34.858944" lat="31.364925"><ele>481</ele><time>2017-11-10T08:45:51.000Z</time></trkpt><trkpt lon="34.858986" lat="31.364874"><ele>480</ele><time>2017-11-10T08:45:52.000Z</time></trkpt><trkpt lon="34.859042" lat="31.364835"><ele>479</ele><time>2017-11-10T08:45:53.000Z</time></trkpt><trkpt lon="34.859108" lat="31.364818"><ele>479</ele><time>2017-11-10T08:45:54.000Z</time></trkpt><trkpt lon="34.85918" lat="31.364816"><ele>479</ele><time>2017-11-10T08:45:55.000Z</time></trkpt><trkpt lon="34.859247" lat="31.364825"><ele>478</ele><time>2017-11-10T08:45:56.000Z</time></trkpt><trkpt lon="34.8593" lat="31.36485"><ele>478</ele><time>2017-11-10T08:45:57.000Z</time></trkpt><trkpt lon="34.859335" lat="31.364881"><ele>479</ele><time>2017-11-10T08:45:58.000Z</time></trkpt><trkpt lon="34.859353" lat="31.364913"><ele>479</ele><time>2017-11-10T08:45:59.000Z</time></trkpt><trkpt lon="34.859371" lat="31.364941"><ele>480</ele><time>2017-11-10T08:46:00.000Z</time></trkpt><trkpt lon="34.859399" lat="31.364957"><ele>480</ele><time>2017-11-10T08:46:01.000Z</time></trkpt><trkpt lon="34.859432" lat="31.364956"><ele>480</ele><time>2017-11-10T08:46:02.000Z</time></trkpt><trkpt lon="34.859458" lat="31.364936"><ele>480</ele><time>2017-11-10T08:46:03.000Z</time></trkpt><trkpt lon="34.859457" lat="31.364893"><ele>479.6</ele><time>2017-11-10T08:46:04.000Z</time></trkpt><trkpt lon="34.859434" lat="31.364842"><ele>479</ele><time>2017-11-10T08:46:05.000Z</time></trkpt><trkpt lon="34.859391" lat="31.364791"><ele>478</ele><time>2017-11-10T08:46:06.000Z</time></trkpt><trkpt lon="34.859344" lat="31.364739"><ele>477</ele><time>2017-11-10T08:46:07.000Z</time></trkpt><trkpt lon="34.85929" lat="31.364699"><ele>476</ele><time>2017-11-10T08:46:08.000Z</time></trkpt><trkpt lon="34.859236" lat="31.364678"><ele>476</ele><time>2017-11-10T08:46:09.000Z</time></trkpt><trkpt lon="34.8592" lat="31.364656"><ele>476</ele><time>2017-11-10T08:46:10.000Z</time></trkpt><trkpt lon="34.859165" lat="31.364629"><ele>476</ele><time>2017-11-10T08:46:11.000Z</time></trkpt><trkpt lon="34.859122" lat="31.364599"><ele>475</ele><time>2017-11-10T08:46:12.000Z</time></trkpt><trkpt lon="34.859075" lat="31.364565"><ele>475</ele><time>2017-11-10T08:46:13.000Z</time></trkpt><trkpt lon="34.859028" lat="31.36453"><ele>474</ele><time>2017-11-10T08:46:14.000Z</time></trkpt><trkpt lon="34.858964" lat="31.364505"><ele>474</ele><time>2017-11-10T08:46:15.000Z</time></trkpt><trkpt lon="34.858893" lat="31.364502"><ele>473</ele><time>2017-11-10T08:46:16.000Z</time></trkpt><trkpt lon="34.858825" lat="31.364502"><ele>473</ele><time>2017-11-10T08:46:17.000Z</time></trkpt><trkpt lon="34.858758" lat="31.364508"><ele>472</ele><time>2017-11-10T08:46:18.000Z</time></trkpt><trkpt lon="34.858701" lat="31.364526"><ele>472</ele><time>2017-11-10T08:46:19.000Z</time></trkpt><trkpt lon="34.858657" lat="31.364555"><ele>472</ele><time>2017-11-10T08:46:20.000Z</time></trkpt><trkpt lon="34.858619" lat="31.364588"><ele>472</ele><time>2017-11-10T08:46:21.000Z</time></trkpt><trkpt lon="34.858574" lat="31.364608"><ele>472</ele><time>2017-11-10T08:46:22.000Z</time></trkpt><trkpt lon="34.858532" lat="31.364602"><ele>472</ele><time>2017-11-10T08:46:23.000Z</time></trkpt><trkpt lon="34.858521" lat="31.364567"><ele>472</ele><time>2017-11-10T08:46:24.000Z</time></trkpt><trkpt lon="34.858546" lat="31.364522"><ele>472</ele><time>2017-11-10T08:46:25.000Z</time></trkpt><trkpt lon="34.858586" lat="31.364482"><ele>471</ele><time>2017-11-10T08:46:26.000Z</time></trkpt><trkpt lon="34.858628" lat="31.364441"><ele>470</ele><time>2017-11-10T08:46:27.000Z</time></trkpt><trkpt lon="34.858673" lat="31.364405"><ele>470</ele><time>2017-11-10T08:46:28.000Z</time></trkpt><trkpt lon="34.858722" lat="31.36437"><ele>469</ele><time>2017-11-10T08:46:29.000Z</time></trkpt><trkpt lon="34.858774" lat="31.36434"><ele>469</ele><time>2017-11-10T08:46:30.000Z</time></trkpt><trkpt lon="34.858829" lat="31.364319"><ele>469</ele><time>2017-11-10T08:46:31.000Z</time></trkpt><trkpt lon="34.858887" lat="31.364303"><ele>469</ele><time>2017-11-10T08:46:32.000Z</time></trkpt><trkpt lon="34.858952" lat="31.364289"><ele>468</ele><time>2017-11-10T08:46:33.000Z</time></trkpt><trkpt lon="34.859018" lat="31.364282"><ele>467</ele><time>2017-11-10T08:46:34.000Z</time></trkpt><trkpt lon="34.859082" lat="31.364273"><ele>467</ele><time>2017-11-10T08:46:35.000Z</time></trkpt><trkpt lon="34.85913" lat="31.364258"><ele>467</ele><time>2017-11-10T08:46:36.000Z</time></trkpt><trkpt lon="34.859174" lat="31.364243"><ele>466</ele><time>2017-11-10T08:46:37.000Z</time></trkpt><trkpt lon="34.85922" lat="31.364241"><ele>466</ele><time>2017-11-10T08:46:38.000Z</time></trkpt><trkpt lon="34.859268" lat="31.364259"><ele>465</ele><time>2017-11-10T08:46:39.000Z</time></trkpt><trkpt lon="34.859316" lat="31.364277"><ele>465</ele><time>2017-11-10T08:46:40.000Z</time></trkpt><trkpt lon="34.859367" lat="31.364297"><ele>465</ele><time>2017-11-10T08:46:41.000Z</time></trkpt><trkpt lon="34.859413" lat="31.364313"><ele>466</ele><time>2017-11-10T08:46:42.000Z</time></trkpt><trkpt lon="34.859462" lat="31.364326"><ele>466</ele><time>2017-11-10T08:46:43.000Z</time></trkpt><trkpt lon="34.859509" lat="31.364343"><ele>466</ele><time>2017-11-10T08:46:44.000Z</time></trkpt><trkpt lon="34.859552" lat="31.364365"><ele>466</ele><time>2017-11-10T08:46:45.000Z</time></trkpt><trkpt lon="34.859594" lat="31.364382"><ele>466</ele><time>2017-11-10T08:46:46.000Z</time></trkpt><trkpt lon="34.859634" lat="31.364384"><ele>466</ele><time>2017-11-10T08:46:47.000Z</time></trkpt><trkpt lon="34.859665" lat="31.364368"><ele>466</ele><time>2017-11-10T08:46:48.000Z</time></trkpt><trkpt lon="34.859687" lat="31.364342"><ele>465</ele><time>2017-11-10T08:46:49.000Z</time></trkpt><trkpt lon="34.859706" lat="31.36431"><ele>465</ele><time>2017-11-10T08:46:50.000Z</time></trkpt><trkpt lon="34.859717" lat="31.364273"><ele>464</ele><time>2017-11-10T08:46:51.000Z</time></trkpt><trkpt lon="34.859709" lat="31.364232"><ele>464</ele><time>2017-11-10T08:46:52.000Z</time></trkpt><trkpt lon="34.859691" lat="31.364197"><ele>464</ele><time>2017-11-10T08:46:53.000Z</time></trkpt><trkpt lon="34.859681" lat="31.364161"><ele>464</ele><time>2017-11-10T08:46:54.000Z</time></trkpt><trkpt lon="34.859672" lat="31.364125"><ele>464</ele><time>2017-11-10T08:46:55.000Z</time></trkpt><trkpt lon="34.859656" lat="31.364091"><ele>464</ele><time>2017-11-10T08:46:56.000Z</time></trkpt><trkpt lon="34.859634" lat="31.364059"><ele>464</ele><time>2017-11-10T08:46:57.000Z</time></trkpt><trkpt lon="34.859613" lat="31.364026"><ele>464</ele><time>2017-11-10T08:46:58.000Z</time></trkpt><trkpt lon="34.859592" lat="31.363992"><ele>464</ele><time>2017-11-10T08:46:59.000Z</time></trkpt><trkpt lon="34.859572" lat="31.363956"><ele>465</ele><time>2017-11-10T08:47:00.000Z</time></trkpt><trkpt lon="34.859557" lat="31.363919"><ele>465</ele><time>2017-11-10T08:47:01.000Z</time></trkpt><trkpt lon="34.859554" lat="31.363882"><ele>465</ele><time>2017-11-10T08:47:02.000Z</time></trkpt><trkpt lon="34.859566" lat="31.363845"><ele>465</ele><time>2017-11-10T08:47:03.000Z</time></trkpt><trkpt lon="34.859584" lat="31.363812"><ele>465</ele><time>2017-11-10T08:47:04.000Z</time></trkpt><trkpt lon="34.8596" lat="31.363786"><ele>465</ele><time>2017-11-10T08:47:05.000Z</time></trkpt><trkpt lon="34.859615" lat="31.363761"><ele>466</ele><time>2017-11-10T08:47:06.000Z</time></trkpt><trkpt lon="34.859632" lat="31.363736"><ele>466</ele><time>2017-11-10T08:47:07.000Z</time></trkpt><trkpt lon="34.85965" lat="31.363708"><ele>466</ele><time>2017-11-10T08:47:08.000Z</time></trkpt><trkpt lon="34.859663" lat="31.363677"><ele>466</ele><time>2017-11-10T08:47:09.000Z</time></trkpt><trkpt lon="34.859668" lat="31.363649"><ele>466</ele><time>2017-11-10T08:47:10.000Z</time></trkpt><trkpt lon="34.859664" lat="31.363621"><ele>466</ele><time>2017-11-10T08:47:11.000Z</time></trkpt><trkpt lon="34.859654" lat="31.363594"><ele>466</ele><time>2017-11-10T08:47:12.000Z</time></trkpt><trkpt lon="34.859641" lat="31.363568"><ele>467</ele><time>2017-11-10T08:47:13.000Z</time></trkpt><trkpt lon="34.859628" lat="31.363542"><ele>467</ele><time>2017-11-10T08:47:14.000Z</time></trkpt><trkpt lon="34.859617" lat="31.363517"><ele>467</ele><time>2017-11-10T08:47:15.000Z</time></trkpt><trkpt lon="34.859608" lat="31.363494"><ele>468</ele><time>2017-11-10T08:47:16.000Z</time></trkpt><trkpt lon="34.859596" lat="31.363469"><ele>468</ele><time>2017-11-10T08:47:17.000Z</time></trkpt><trkpt lon="34.859584" lat="31.363445"><ele>468</ele><time>2017-11-10T08:47:18.000Z</time></trkpt><trkpt lon="34.859572" lat="31.363423"><ele>469</ele><time>2017-11-10T08:47:19.000Z</time></trkpt><trkpt lon="34.859556" lat="31.363402"><ele>469</ele><time>2017-11-10T08:47:20.000Z</time></trkpt><trkpt lon="34.85954" lat="31.363382"><ele>469</ele><time>2017-11-10T08:47:21.000Z</time></trkpt><trkpt lon="34.859522" lat="31.363365"><ele>470</ele><time>2017-11-10T08:47:22.000Z</time></trkpt><trkpt lon="34.859512" lat="31.363342"><ele>470</ele><time>2017-11-10T08:47:23.000Z</time></trkpt><trkpt lon="34.859507" lat="31.363319"><ele>470</ele><time>2017-11-10T08:47:24.000Z</time></trkpt><trkpt lon="34.859507" lat="31.363297"><ele>470</ele><time>2017-11-10T08:47:25.000Z</time></trkpt><trkpt lon="34.859512" lat="31.363277"><ele>471</ele><time>2017-11-10T08:47:26.000Z</time></trkpt><trkpt lon="34.859526" lat="31.363258"><ele>471</ele><time>2017-11-10T08:47:27.000Z</time></trkpt><trkpt lon="34.859544" lat="31.363246"><ele>471</ele><time>2017-11-10T08:47:28.000Z</time></trkpt><trkpt lon="34.859562" lat="31.363236"><ele>471</ele><time>2017-11-10T08:47:29.000Z</time></trkpt><trkpt lon="34.859562" lat="31.363236"><ele>471</ele><time>2017-11-10T08:47:30.000Z</time></trkpt><trkpt lon="34.859594" lat="31.363231"><ele>471</ele><time>2017-11-10T08:47:31.000Z</time></trkpt><trkpt lon="34.859594" lat="31.363231"><ele>471</ele><time>2017-11-10T08:47:32.000Z</time></trkpt><trkpt lon="34.859631" lat="31.363242"><ele>471</ele><time>2017-11-10T08:47:33.000Z</time></trkpt><trkpt lon="34.859656" lat="31.363258"><ele>471</ele><time>2017-11-10T08:47:34.000Z</time></trkpt><trkpt lon="34.859681" lat="31.363274"><ele>471</ele><time>2017-11-10T08:47:35.000Z</time></trkpt><trkpt lon="34.85971" lat="31.363292"><ele>471</ele><time>2017-11-10T08:47:36.000Z</time></trkpt><trkpt lon="34.859743" lat="31.363312"><ele>471</ele><time>2017-11-10T08:47:37.000Z</time></trkpt><trkpt lon="34.859776" lat="31.36333"><ele>471</ele><time>2017-11-10T08:47:38.000Z</time></trkpt><trkpt lon="34.859806" lat="31.363348"><ele>471</ele><time>2017-11-10T08:47:39.000Z</time></trkpt><trkpt lon="34.859823" lat="31.363372"><ele>471</ele><time>2017-11-10T08:47:40.000Z</time></trkpt><trkpt lon="34.859825" lat="31.363401"><ele>471</ele><time>2017-11-10T08:47:41.000Z</time></trkpt><trkpt lon="34.859821" lat="31.363431"><ele>471</ele><time>2017-11-10T08:47:42.000Z</time></trkpt><trkpt lon="34.859822" lat="31.363463"><ele>471</ele><time>2017-11-10T08:47:43.000Z</time></trkpt><trkpt lon="34.859828" lat="31.363495"><ele>471</ele><time>2017-11-10T08:47:44.000Z</time></trkpt><trkpt lon="34.859831" lat="31.363525"><ele>471</ele><time>2017-11-10T08:47:45.000Z</time></trkpt><trkpt lon="34.859832" lat="31.363555"><ele>471</ele><time>2017-11-10T08:47:46.000Z</time></trkpt><trkpt lon="34.859836" lat="31.363587"><ele>471</ele><time>2017-11-10T08:47:47.000Z</time></trkpt><trkpt lon="34.859845" lat="31.363623"><ele>471</ele><time>2017-11-10T08:47:48.000Z</time></trkpt><trkpt lon="34.85986" lat="31.363659"><ele>471</ele><time>2017-11-10T08:47:49.000Z</time></trkpt><trkpt lon="34.85988" lat="31.363692"><ele>471</ele><time>2017-11-10T08:47:50.000Z</time></trkpt><trkpt lon="34.859903" lat="31.363724"><ele>471</ele><time>2017-11-10T08:47:51.000Z</time></trkpt><trkpt lon="34.859926" lat="31.36375"><ele>471</ele><time>2017-11-10T08:47:52.000Z</time></trkpt><trkpt lon="34.859948" lat="31.363775"><ele>471</ele><time>2017-11-10T08:47:53.000Z</time></trkpt><trkpt lon="34.85997" lat="31.3638"><ele>471</ele><time>2017-11-10T08:47:54.000Z</time></trkpt><trkpt lon="34.859994" lat="31.363825"><ele>471</ele><time>2017-11-10T08:47:55.000Z</time></trkpt><trkpt lon="34.860018" lat="31.363847"><ele>471</ele><time>2017-11-10T08:47:56.000Z</time></trkpt><trkpt lon="34.860041" lat="31.363869"><ele>471</ele><time>2017-11-10T08:47:57.000Z</time></trkpt><trkpt lon="34.860066" lat="31.36389"><ele>471</ele><time>2017-11-10T08:47:58.000Z</time></trkpt><trkpt lon="34.860094" lat="31.36391"><ele>472</ele><time>2017-11-10T08:47:59.000Z</time></trkpt><trkpt lon="34.860125" lat="31.363929"><ele>472</ele><time>2017-11-10T08:48:00.000Z</time></trkpt><trkpt lon="34.860154" lat="31.363947"><ele>472</ele><time>2017-11-10T08:48:01.000Z</time></trkpt><trkpt lon="34.860183" lat="31.363966"><ele>472</ele><time>2017-11-10T08:48:02.000Z</time></trkpt><trkpt lon="34.860211" lat="31.363987"><ele>472</ele><time>2017-11-10T08:48:03.000Z</time></trkpt><trkpt lon="34.860234" lat="31.364006"><ele>472</ele><time>2017-11-10T08:48:04.000Z</time></trkpt><trkpt lon="34.860258" lat="31.364029"><ele>472</ele><time>2017-11-10T08:48:05.000Z</time></trkpt><trkpt lon="34.860282" lat="31.364052"><ele>472</ele><time>2017-11-10T08:48:06.000Z</time></trkpt><trkpt lon="34.860307" lat="31.364073"><ele>472.4</ele><time>2017-11-10T08:48:07.000Z</time></trkpt><trkpt lon="34.860334" lat="31.364091"><ele>473</ele><time>2017-11-10T08:48:08.000Z</time></trkpt><trkpt lon="34.860361" lat="31.364109"><ele>473</ele><time>2017-11-10T08:48:09.000Z</time></trkpt><trkpt lon="34.860388" lat="31.364131"><ele>473</ele><time>2017-11-10T08:48:10.000Z</time></trkpt><trkpt lon="34.860415" lat="31.364152"><ele>473</ele><time>2017-11-10T08:48:11.000Z</time></trkpt><trkpt lon="34.86044" lat="31.364176"><ele>473</ele><time>2017-11-10T08:48:12.000Z</time></trkpt><trkpt lon="34.860463" lat="31.364199"><ele>473</ele><time>2017-11-10T08:48:13.000Z</time></trkpt><trkpt lon="34.86049" lat="31.364222"><ele>474</ele><time>2017-11-10T08:48:14.000Z</time></trkpt><trkpt lon="34.86052" lat="31.364243"><ele>474</ele><time>2017-11-10T08:48:15.000Z</time></trkpt><trkpt lon="34.860546" lat="31.364263"><ele>475</ele><time>2017-11-10T08:48:16.000Z</time></trkpt><trkpt lon="34.860571" lat="31.364285"><ele>475</ele><time>2017-11-10T08:48:17.000Z</time></trkpt><trkpt lon="34.860595" lat="31.364308"><ele>475</ele><time>2017-11-10T08:48:18.000Z</time></trkpt><trkpt lon="34.860617" lat="31.364327"><ele>475</ele><time>2017-11-10T08:48:19.000Z</time></trkpt><trkpt lon="34.86064" lat="31.364348"><ele>475</ele><time>2017-11-10T08:48:20.000Z</time></trkpt><trkpt lon="34.860658" lat="31.364366"><ele>475</ele><time>2017-11-10T08:48:21.000Z</time></trkpt><trkpt lon="34.860677" lat="31.364387"><ele>475</ele><time>2017-11-10T08:48:22.000Z</time></trkpt><trkpt lon="34.860699" lat="31.364408"><ele>475</ele><time>2017-11-10T08:48:23.000Z</time></trkpt><trkpt lon="34.860725" lat="31.364429"><ele>475</ele><time>2017-11-10T08:48:24.000Z</time></trkpt><trkpt lon="34.860749" lat="31.364448"><ele>475</ele><time>2017-11-10T08:48:25.000Z</time></trkpt><trkpt lon="34.860772" lat="31.364466"><ele>476</ele><time>2017-11-10T08:48:26.000Z</time></trkpt><trkpt lon="34.860793" lat="31.364483"><ele>477</ele><time>2017-11-10T08:48:27.000Z</time></trkpt><trkpt lon="34.860816" lat="31.364502"><ele>477</ele><time>2017-11-10T08:48:28.000Z</time></trkpt><trkpt lon="34.860844" lat="31.364519"><ele>477</ele><time>2017-11-10T08:48:29.000Z</time></trkpt><trkpt lon="34.860875" lat="31.364534"><ele>477</ele><time>2017-11-10T08:48:30.000Z</time></trkpt><trkpt lon="34.8609" lat="31.364547"><ele>477</ele><time>2017-11-10T08:48:31.000Z</time></trkpt><trkpt lon="34.860926" lat="31.36456"><ele>477</ele><time>2017-11-10T08:48:32.000Z</time></trkpt><trkpt lon="34.860951" lat="31.364573"><ele>477</ele><time>2017-11-10T08:48:33.000Z</time></trkpt><trkpt lon="34.860973" lat="31.364588"><ele>477</ele><time>2017-11-10T08:48:34.000Z</time></trkpt><trkpt lon="34.860995" lat="31.364603"><ele>478</ele><time>2017-11-10T08:48:35.000Z</time></trkpt><trkpt lon="34.861016" lat="31.364621"><ele>478</ele><time>2017-11-10T08:48:36.000Z</time></trkpt><trkpt lon="34.861037" lat="31.364639"><ele>478</ele><time>2017-11-10T08:48:37.000Z</time></trkpt><trkpt lon="34.861059" lat="31.364656"><ele>479</ele><time>2017-11-10T08:48:38.000Z</time></trkpt><trkpt lon="34.861084" lat="31.364668"><ele>479</ele><time>2017-11-10T08:48:39.000Z</time></trkpt><trkpt lon="34.861109" lat="31.364681"><ele>479</ele><time>2017-11-10T08:48:40.000Z</time></trkpt><trkpt lon="34.861133" lat="31.364692"><ele>479</ele><time>2017-11-10T08:48:41.000Z</time></trkpt><trkpt lon="34.861156" lat="31.364704"><ele>479</ele><time>2017-11-10T08:48:42.000Z</time></trkpt><trkpt lon="34.861176" lat="31.364717"><ele>479</ele><time>2017-11-10T08:48:43.000Z</time></trkpt><trkpt lon="34.861193" lat="31.364733"><ele>480</ele><time>2017-11-10T08:48:44.000Z</time></trkpt><trkpt lon="34.861209" lat="31.36475"><ele>480</ele><time>2017-11-10T08:48:45.000Z</time></trkpt><trkpt lon="34.861221" lat="31.364769"><ele>480</ele><time>2017-11-10T08:48:46.000Z</time></trkpt><trkpt lon="34.861235" lat="31.364788"><ele>480</ele><time>2017-11-10T08:48:47.000Z</time></trkpt><trkpt lon="34.861249" lat="31.364806"><ele>480</ele><time>2017-11-10T08:48:48.000Z</time></trkpt><trkpt lon="34.861263" lat="31.364823"><ele>480</ele><time>2017-11-10T08:48:49.000Z</time></trkpt><trkpt lon="34.861278" lat="31.36484"><ele>481</ele><time>2017-11-10T08:48:50.000Z</time></trkpt><trkpt lon="34.861291" lat="31.364857"><ele>481</ele><time>2017-11-10T08:48:51.000Z</time></trkpt><trkpt lon="34.861302" lat="31.364874"><ele>481</ele><time>2017-11-10T08:48:52.000Z</time></trkpt><trkpt lon="34.861313" lat="31.364894"><ele>481</ele><time>2017-11-10T08:48:53.000Z</time></trkpt><trkpt lon="34.861324" lat="31.364915"><ele>482</ele><time>2017-11-10T08:48:54.000Z</time></trkpt><trkpt lon="34.861337" lat="31.364934"><ele>481</ele><time>2017-11-10T08:48:55.000Z</time></trkpt><trkpt lon="34.861351" lat="31.364951"><ele>481</ele><time>2017-11-10T08:48:56.000Z</time></trkpt><trkpt lon="34.861365" lat="31.36497"><ele>481</ele><time>2017-11-10T08:48:57.000Z</time></trkpt><trkpt lon="34.86138" lat="31.364988"><ele>481</ele><time>2017-11-10T08:48:58.000Z</time></trkpt><trkpt lon="34.861397" lat="31.365007"><ele>481</ele><time>2017-11-10T08:48:59.000Z</time></trkpt><trkpt lon="34.861412" lat="31.365022"><ele>481</ele><time>2017-11-10T08:49:00.000Z</time></trkpt><trkpt lon="34.861431" lat="31.365038"><ele>482</ele><time>2017-11-10T08:49:01.000Z</time></trkpt><trkpt lon="34.86145" lat="31.365052"><ele>482</ele><time>2017-11-10T08:49:02.000Z</time></trkpt><trkpt lon="34.861468" lat="31.365066"><ele>483</ele><time>2017-11-10T08:49:03.000Z</time></trkpt><trkpt lon="34.861484" lat="31.365083"><ele>483</ele><time>2017-11-10T08:49:04.000Z</time></trkpt><trkpt lon="34.8615" lat="31.365105"><ele>483</ele><time>2017-11-10T08:49:05.000Z</time></trkpt><trkpt lon="34.861515" lat="31.365127"><ele>483</ele><time>2017-11-10T08:49:06.000Z</time></trkpt><trkpt lon="34.861531" lat="31.365148"><ele>483</ele><time>2017-11-10T08:49:07.000Z</time></trkpt><trkpt lon="34.861547" lat="31.365165"><ele>483</ele><time>2017-11-10T08:49:08.000Z</time></trkpt><trkpt lon="34.861562" lat="31.365185"><ele>483</ele><time>2017-11-10T08:49:09.000Z</time></trkpt><trkpt lon="34.861576" lat="31.365206"><ele>483</ele><time>2017-11-10T08:49:10.000Z</time></trkpt><trkpt lon="34.861592" lat="31.365228"><ele>483</ele><time>2017-11-10T08:49:11.000Z</time></trkpt><trkpt lon="34.861607" lat="31.365253"><ele>483</ele><time>2017-11-10T08:49:12.000Z</time></trkpt><trkpt lon="34.861624" lat="31.365276"><ele>483</ele><time>2017-11-10T08:49:13.000Z</time></trkpt><trkpt lon="34.861639" lat="31.365296"><ele>483</ele><time>2017-11-10T08:49:14.000Z</time></trkpt><trkpt lon="34.861658" lat="31.365316"><ele>483</ele><time>2017-11-10T08:49:15.000Z</time></trkpt><trkpt lon="34.861679" lat="31.365339"><ele>484</ele><time>2017-11-10T08:49:16.000Z</time></trkpt><trkpt lon="34.8617" lat="31.365362"><ele>484</ele><time>2017-11-10T08:49:17.000Z</time></trkpt><trkpt lon="34.861723" lat="31.365384"><ele>485</ele><time>2017-11-10T08:49:18.000Z</time></trkpt><trkpt lon="34.861751" lat="31.365401"><ele>485</ele><time>2017-11-10T08:49:19.000Z</time></trkpt><trkpt lon="34.861781" lat="31.365405"><ele>485</ele><time>2017-11-10T08:49:20.000Z</time></trkpt><trkpt lon="34.861805" lat="31.365394"><ele>486</ele><time>2017-11-10T08:49:21.000Z</time></trkpt><trkpt lon="34.861818" lat="31.365375"><ele>486</ele><time>2017-11-10T08:49:22.000Z</time></trkpt><trkpt lon="34.861819" lat="31.365356"><ele>486</ele><time>2017-11-10T08:49:23.000Z</time></trkpt><trkpt lon="34.861809" lat="31.365336"><ele>486</ele><time>2017-11-10T08:49:24.000Z</time></trkpt><trkpt lon="34.861795" lat="31.365316"><ele>486</ele><time>2017-11-10T08:49:25.000Z</time></trkpt><trkpt lon="34.861781" lat="31.365293"><ele>486</ele><time>2017-11-10T08:49:26.000Z</time></trkpt><trkpt lon="34.86177" lat="31.365267"><ele>485</ele><time>2017-11-10T08:49:27.000Z</time></trkpt><trkpt lon="34.861761" lat="31.365242"><ele>485</ele><time>2017-11-10T08:49:28.000Z</time></trkpt><trkpt lon="34.861752" lat="31.365217"><ele>485</ele><time>2017-11-10T08:49:29.000Z</time></trkpt><trkpt lon="34.861742" lat="31.365192"><ele>485</ele><time>2017-11-10T08:49:30.000Z</time></trkpt><trkpt lon="34.861732" lat="31.365167"><ele>485</ele><time>2017-11-10T08:49:31.000Z</time></trkpt><trkpt lon="34.861717" lat="31.365143"><ele>485</ele><time>2017-11-10T08:49:32.000Z</time></trkpt><trkpt lon="34.861703" lat="31.365119"><ele>485</ele><time>2017-11-10T08:49:33.000Z</time></trkpt><trkpt lon="34.861695" lat="31.365096"><ele>485</ele><time>2017-11-10T08:49:34.000Z</time></trkpt><trkpt lon="34.861691" lat="31.365071"><ele>485</ele><time>2017-11-10T08:49:35.000Z</time></trkpt><trkpt lon="34.861688" lat="31.365046"><ele>485</ele><time>2017-11-10T08:49:36.000Z</time></trkpt><trkpt lon="34.861685" lat="31.365022"><ele>485</ele><time>2017-11-10T08:49:37.000Z</time></trkpt><trkpt lon="34.861686" lat="31.364998"><ele>485</ele><time>2017-11-10T08:49:38.000Z</time></trkpt><trkpt lon="34.861689" lat="31.364975"><ele>485</ele><time>2017-11-10T08:49:39.000Z</time></trkpt><trkpt lon="34.861695" lat="31.364954"><ele>485</ele><time>2017-11-10T08:49:40.000Z</time></trkpt><trkpt lon="34.861702" lat="31.364936"><ele>486</ele><time>2017-11-10T08:49:41.000Z</time></trkpt><trkpt lon="34.861702" lat="31.364936"><ele>486</ele><time>2017-11-10T08:49:42.000Z</time></trkpt><trkpt lon="34.861707" lat="31.364902"><ele>486</ele><time>2017-11-10T08:49:43.000Z</time></trkpt><trkpt lon="34.861702" lat="31.364884"><ele>486</ele><time>2017-11-10T08:49:44.000Z</time></trkpt><trkpt lon="34.861692" lat="31.364865"><ele>486</ele><time>2017-11-10T08:49:45.000Z</time></trkpt><trkpt lon="34.861681" lat="31.364845"><ele>486</ele><time>2017-11-10T08:49:46.000Z</time></trkpt><trkpt lon="34.861674" lat="31.364823"><ele>486</ele><time>2017-11-10T08:49:47.000Z</time></trkpt><trkpt lon="34.861667" lat="31.364797"><ele>486</ele><time>2017-11-10T08:49:48.000Z</time></trkpt><trkpt lon="34.861663" lat="31.364769"><ele>486</ele><time>2017-11-10T08:49:49.000Z</time></trkpt><trkpt lon="34.861661" lat="31.364743"><ele>486</ele><time>2017-11-10T08:49:50.000Z</time></trkpt><trkpt lon="34.861661" lat="31.364717"><ele>486</ele><time>2017-11-10T08:49:51.000Z</time></trkpt><trkpt lon="34.861662" lat="31.364691"><ele>487</ele><time>2017-11-10T08:49:52.000Z</time></trkpt><trkpt lon="34.861663" lat="31.364667"><ele>487</ele><time>2017-11-10T08:49:53.000Z</time></trkpt><trkpt lon="34.861665" lat="31.364642"><ele>487</ele><time>2017-11-10T08:49:54.000Z</time></trkpt><trkpt lon="34.861664" lat="31.364619"><ele>487</ele><time>2017-11-10T08:49:55.000Z</time></trkpt><trkpt lon="34.861662" lat="31.364596"><ele>487</ele><time>2017-11-10T08:49:56.000Z</time></trkpt><trkpt lon="34.861655" lat="31.364574"><ele>487</ele><time>2017-11-10T08:49:57.000Z</time></trkpt><trkpt lon="34.861643" lat="31.364554"><ele>488</ele><time>2017-11-10T08:49:58.000Z</time></trkpt><trkpt lon="34.861632" lat="31.364534"><ele>488</ele><time>2017-11-10T08:49:59.000Z</time></trkpt><trkpt lon="34.861622" lat="31.364514"><ele>488</ele><time>2017-11-10T08:50:00.000Z</time></trkpt><trkpt lon="34.861611" lat="31.364493"><ele>488</ele><time>2017-11-10T08:50:01.000Z</time></trkpt><trkpt lon="34.8616" lat="31.364472"><ele>488</ele><time>2017-11-10T08:50:02.000Z</time></trkpt><trkpt lon="34.861589" lat="31.364452"><ele>488</ele><time>2017-11-10T08:50:03.000Z</time></trkpt><trkpt lon="34.861578" lat="31.364429"><ele>488</ele><time>2017-11-10T08:50:04.000Z</time></trkpt><trkpt lon="34.861568" lat="31.36441"><ele>488</ele><time>2017-11-10T08:50:05.000Z</time></trkpt><trkpt lon="34.861559" lat="31.364393"><ele>489</ele><time>2017-11-10T08:50:06.000Z</time></trkpt><trkpt lon="34.861549" lat="31.364376"><ele>489</ele><time>2017-11-10T08:50:07.000Z</time></trkpt><trkpt lon="34.861539" lat="31.364358"><ele>489</ele><time>2017-11-10T08:50:08.000Z</time></trkpt><trkpt lon="34.861531" lat="31.364335"><ele>489</ele><time>2017-11-10T08:50:09.000Z</time></trkpt><trkpt lon="34.861529" lat="31.36431"><ele>488</ele><time>2017-11-10T08:50:10.000Z</time></trkpt><trkpt lon="34.86153" lat="31.364283"><ele>488</ele><time>2017-11-10T08:50:11.000Z</time></trkpt><trkpt lon="34.861529" lat="31.364259"><ele>488</ele><time>2017-11-10T08:50:12.000Z</time></trkpt><trkpt lon="34.861522" lat="31.36424"><ele>489</ele><time>2017-11-10T08:50:13.000Z</time></trkpt><trkpt lon="34.861506" lat="31.36422"><ele>489</ele><time>2017-11-10T08:50:14.000Z</time></trkpt><trkpt lon="34.861494" lat="31.364197"><ele>489</ele><time>2017-11-10T08:50:15.000Z</time></trkpt><trkpt lon="34.861491" lat="31.364172"><ele>489</ele><time>2017-11-10T08:50:16.000Z</time></trkpt><trkpt lon="34.861491" lat="31.36415"><ele>489</ele><time>2017-11-10T08:50:17.000Z</time></trkpt><trkpt lon="34.861497" lat="31.364129"><ele>489</ele><time>2017-11-10T08:50:18.000Z</time></trkpt><trkpt lon="34.861504" lat="31.364109"><ele>489</ele><time>2017-11-10T08:50:19.000Z</time></trkpt><trkpt lon="34.861516" lat="31.364089"><ele>489</ele><time>2017-11-10T08:50:20.000Z</time></trkpt><trkpt lon="34.861537" lat="31.364077"><ele>489</ele><time>2017-11-10T08:50:21.000Z</time></trkpt><trkpt lon="34.861559" lat="31.364076"><ele>490</ele><time>2017-11-10T08:50:22.000Z</time></trkpt><trkpt lon="34.861559" lat="31.364076"><ele>490</ele><time>2017-11-10T08:50:23.000Z</time></trkpt><trkpt lon="34.861592" lat="31.364096"><ele>490</ele><time>2017-11-10T08:50:24.000Z</time></trkpt><trkpt lon="34.861606" lat="31.36411"><ele>490</ele><time>2017-11-10T08:50:25.000Z</time></trkpt><trkpt lon="34.861619" lat="31.364127"><ele>490</ele><time>2017-11-10T08:50:26.000Z</time></trkpt><trkpt lon="34.86163" lat="31.364146"><ele>490</ele><time>2017-11-10T08:50:27.000Z</time></trkpt><trkpt lon="34.861645" lat="31.364163"><ele>490</ele><time>2017-11-10T08:50:28.000Z</time></trkpt><trkpt lon="34.861668" lat="31.364175"><ele>490</ele><time>2017-11-10T08:50:29.000Z</time></trkpt><trkpt lon="34.861694" lat="31.364184"><ele>490</ele><time>2017-11-10T08:50:30.000Z</time></trkpt><trkpt lon="34.861717" lat="31.364194"><ele>490</ele><time>2017-11-10T08:50:31.000Z</time></trkpt><trkpt lon="34.861739" lat="31.364208"><ele>490</ele><time>2017-11-10T08:50:32.000Z</time></trkpt><trkpt lon="34.861765" lat="31.364218"><ele>490</ele><time>2017-11-10T08:50:33.000Z</time></trkpt><trkpt lon="34.861791" lat="31.364224"><ele>490</ele><time>2017-11-10T08:50:34.000Z</time></trkpt><trkpt lon="34.861814" lat="31.364227"><ele>490</ele><time>2017-11-10T08:50:35.000Z</time></trkpt><trkpt lon="34.861836" lat="31.364224"><ele>490</ele><time>2017-11-10T08:50:36.000Z</time></trkpt><trkpt lon="34.861857" lat="31.364218"><ele>490</ele><time>2017-11-10T08:50:37.000Z</time></trkpt><trkpt lon="34.861857" lat="31.364218"><ele>490</ele><time>2017-11-10T08:50:38.000Z</time></trkpt><trkpt lon="34.861877" lat="31.364213"><ele>490</ele><time>2017-11-10T08:50:39.000Z</time></trkpt><trkpt lon="34.861877" lat="31.364213"><ele>490</ele><time>2017-11-10T08:50:40.000Z</time></trkpt><trkpt lon="34.861877" lat="31.364213"><ele>490</ele><time>2017-11-10T08:50:41.000Z</time></trkpt><trkpt lon="34.861877" lat="31.364213"><ele>490</ele><time>2017-11-10T08:50:42.000Z</time></trkpt><trkpt lon="34.861877" lat="31.364213"><ele>490</ele><time>2017-11-10T08:50:43.000Z</time></trkpt><trkpt lon="34.861877" lat="31.364213"><ele>490</ele><time>2017-11-10T08:50:44.000Z</time></trkpt><trkpt lon="34.861877" lat="31.364213"><ele>490</ele><time>2017-11-10T08:50:45.000Z</time></trkpt><trkpt lon="34.861877" lat="31.364213"><ele>490</ele><time>2017-11-10T08:50:46.000Z</time></trkpt><trkpt lon="34.861877" lat="31.364213"><ele>490</ele><time>2017-11-10T08:50:47.000Z</time></trkpt><trkpt lon="34.861877" lat="31.364213"><ele>490</ele><time>2017-11-10T08:50:49.000Z</time></trkpt><trkpt lon="34.861877" lat="31.364213"><ele>490</ele><time>2017-11-10T08:50:50.000Z</time></trkpt><trkpt lon="34.861877" lat="31.364213"><ele>490</ele><time>2017-11-10T08:50:51.000Z</time></trkpt><trkpt lon="34.861877" lat="31.364213"><ele>490</ele><time>2017-11-10T08:50:52.000Z</time></trkpt><trkpt lon="34.861877" lat="31.364213"><ele>490</ele><time>2017-11-10T08:50:53.000Z</time></trkpt><trkpt lon="34.861877" lat="31.364213"><ele>490</ele><time>2017-11-10T08:50:54.000Z</time></trkpt><trkpt lon="34.861877" lat="31.364213"><ele>490</ele><time>2017-11-10T08:50:55.000Z</time></trkpt><trkpt lon="34.861877" lat="31.364213"><ele>490</ele><time>2017-11-10T08:50:56.000Z</time></trkpt><trkpt lon="34.861877" lat="31.364213"><ele>490</ele><time>2017-11-10T08:50:57.000Z</time></trkpt><trkpt lon="34.861877" lat="31.364213"><ele>490</ele><time>2017-11-10T08:50:58.000Z</time></trkpt><trkpt lon="34.861877" lat="31.364213"><ele>491</ele><time>2017-11-10T08:50:59.000Z</time></trkpt><trkpt lon="34.861877" lat="31.364213"><ele>491</ele><time>2017-11-10T08:51:00.000Z</time></trkpt><trkpt lon="34.861877" lat="31.364213"><ele>491</ele><time>2017-11-10T08:51:01.000Z</time></trkpt><trkpt lon="34.861877" lat="31.364213"><ele>491</ele><time>2017-11-10T08:51:02.000Z</time></trkpt><trkpt lon="34.861877" lat="31.364213"><ele>491</ele><time>2017-11-10T08:51:03.000Z</time></trkpt><trkpt lon="34.861877" lat="31.364213"><ele>491</ele><time>2017-11-10T08:51:04.000Z</time></trkpt><trkpt lon="34.861877" lat="31.364213"><ele>491</ele><time>2017-11-10T08:51:05.000Z</time></trkpt><trkpt lon="34.861877" lat="31.364213"><ele>491</ele><time>2017-11-10T08:51:06.000Z</time></trkpt><trkpt lon="34.861877" lat="31.364213"><ele>491</ele><time>2017-11-10T08:51:07.000Z</time></trkpt><trkpt lon="34.861877" lat="31.364213"><ele>491</ele><time>2017-11-10T08:51:08.000Z</time></trkpt><trkpt lon="34.861877" lat="31.364213"><ele>491</ele><time>2017-11-10T08:51:09.000Z</time></trkpt><trkpt lon="34.861877" lat="31.364213"><ele>491</ele><time>2017-11-10T08:51:10.000Z</time></trkpt><trkpt lon="34.861877" lat="31.364213"><ele>491</ele><time>2017-11-10T08:51:11.000Z</time></trkpt><trkpt lon="34.861877" lat="31.364213"><ele>491</ele><time>2017-11-10T08:51:12.000Z</time></trkpt><trkpt lon="34.861877" lat="31.364213"><ele>491</ele><time>2017-11-10T08:51:13.000Z</time></trkpt><trkpt lon="34.861877" lat="31.364213"><ele>491</ele><time>2017-11-10T08:51:14.000Z</time></trkpt><trkpt lon="34.861877" lat="31.364213"><ele>491</ele><time>2017-11-10T08:51:15.000Z</time></trkpt><trkpt lon="34.861877" lat="31.364213"><ele>491</ele><time>2017-11-10T08:51:16.000Z</time></trkpt><trkpt lon="34.861877" lat="31.364213"><ele>491</ele><time>2017-11-10T08:51:17.000Z</time></trkpt><trkpt lon="34.861877" lat="31.364213"><ele>491</ele><time>2017-11-10T08:51:18.000Z</time></trkpt><trkpt lon="34.861877" lat="31.364213"><ele>491</ele><time>2017-11-10T08:51:19.000Z</time></trkpt><trkpt lon="34.861877" lat="31.364213"><ele>491</ele><time>2017-11-10T08:51:20.000Z</time></trkpt><trkpt lon="34.861877" lat="31.364213"><ele>491</ele><time>2017-11-10T08:51:21.000Z</time></trkpt><trkpt lon="34.861877" lat="31.364213"><ele>491</ele><time>2017-11-10T08:51:22.000Z</time></trkpt><trkpt lon="34.861877" lat="31.364213"><ele>491</ele><time>2017-11-10T08:51:23.000Z</time></trkpt><trkpt lon="34.861877" lat="31.364213"><ele>491</ele><time>2017-11-10T08:51:24.000Z</time></trkpt><trkpt lon="34.861877" lat="31.364213"><ele>491</ele><time>2017-11-10T08:51:25.000Z</time></trkpt><trkpt lon="34.861877" lat="31.364213"><ele>491</ele><time>2017-11-10T08:51:26.000Z</time></trkpt><trkpt lon="34.861877" lat="31.364213"><ele>491</ele><time>2017-11-10T08:51:27.000Z</time></trkpt><trkpt lon="34.861877" lat="31.364213"><ele>491</ele><time>2017-11-10T08:51:28.000Z</time></trkpt><trkpt lon="34.861877" lat="31.364213"><ele>490</ele><time>2017-11-10T08:51:29.000Z</time></trkpt><trkpt lon="34.861877" lat="31.364213"><ele>490</ele><time>2017-11-10T08:51:30.000Z</time></trkpt><trkpt lon="34.861877" lat="31.364213"><ele>490</ele><time>2017-11-10T08:51:31.000Z</time></trkpt><trkpt lon="34.861877" lat="31.364213"><ele>490</ele><time>2017-11-10T08:51:32.000Z</time></trkpt><trkpt lon="34.861877" lat="31.364213"><ele>490</ele><time>2017-11-10T08:51:33.000Z</time></trkpt><trkpt lon="34.861877" lat="31.364213"><ele>490</ele><time>2017-11-10T08:51:34.000Z</time></trkpt><trkpt lon="34.861877" lat="31.364213"><ele>490</ele><time>2017-11-10T08:51:35.000Z</time></trkpt><trkpt lon="34.861877" lat="31.364213"><ele>490</ele><time>2017-11-10T08:51:36.000Z</time></trkpt><trkpt lon="34.861877" lat="31.364213"><ele>490</ele><time>2017-11-10T08:51:37.000Z</time></trkpt><trkpt lon="34.861877" lat="31.364213"><ele>490</ele><time>2017-11-10T08:51:38.000Z</time></trkpt><trkpt lon="34.861877" lat="31.364213"><ele>490</ele><time>2017-11-10T08:51:39.000Z</time></trkpt><trkpt lon="34.861877" lat="31.364213"><ele>490</ele><time>2017-11-10T08:51:40.000Z</time></trkpt><trkpt lon="34.861877" lat="31.364213"><ele>490</ele><time>2017-11-10T08:51:41.000Z</time></trkpt><trkpt lon="34.861877" lat="31.364213"><ele>490</ele><time>2017-11-10T08:51:42.000Z</time></trkpt><trkpt lon="34.861877" lat="31.364213"><ele>490</ele><time>2017-11-10T08:51:43.000Z</time></trkpt><trkpt lon="34.861877" lat="31.364213"><ele>490</ele><time>2017-11-10T08:51:44.000Z</time></trkpt><trkpt lon="34.861877" lat="31.364213"><ele>490</ele><time>2017-11-10T08:51:45.000Z</time></trkpt><trkpt lon="34.861877" lat="31.364213"><ele>490</ele><time>2017-11-10T08:51:46.000Z</time></trkpt><trkpt lon="34.861877" lat="31.364213"><ele>490</ele><time>2017-11-10T08:51:47.000Z</time></trkpt><trkpt lon="34.861877" lat="31.364213"><ele>490</ele><time>2017-11-10T08:51:48.000Z</time></trkpt><trkpt lon="34.861877" lat="31.364213"><ele>490</ele><time>2017-11-10T08:51:49.000Z</time></trkpt><trkpt lon="34.861877" lat="31.364213"><ele>490</ele><time>2017-11-10T08:51:50.000Z</time></trkpt><trkpt lon="34.861877" lat="31.364213"><ele>490</ele><time>2017-11-10T08:51:51.000Z</time></trkpt><trkpt lon="34.861877" lat="31.364213"><ele>490</ele><time>2017-11-10T08:51:52.000Z</time></trkpt><trkpt lon="34.861877" lat="31.364213"><ele>490</ele><time>2017-11-10T08:51:53.000Z</time></trkpt><trkpt lon="34.861877" lat="31.364213"><ele>490</ele><time>2017-11-10T08:51:54.000Z</time></trkpt><trkpt lon="34.861877" lat="31.364213"><ele>490</ele><time>2017-11-10T08:51:55.000Z</time></trkpt><trkpt lon="34.861877" lat="31.364213"><ele>490</ele><time>2017-11-10T08:51:56.000Z</time></trkpt><trkpt lon="34.861877" lat="31.364213"><ele>490</ele><time>2017-11-10T08:51:57.000Z</time></trkpt><trkpt lon="34.861877" lat="31.364213"><ele>490</ele><time>2017-11-10T08:51:58.000Z</time></trkpt><trkpt lon="34.861877" lat="31.364213"><ele>490</ele><time>2017-11-10T08:51:59.000Z</time></trkpt><trkpt lon="34.861877" lat="31.364213"><ele>490</ele><time>2017-11-10T08:52:00.000Z</time></trkpt><trkpt lon="34.861877" lat="31.364213"><ele>490</ele><time>2017-11-10T08:52:01.000Z</time></trkpt><trkpt lon="34.861877" lat="31.364213"><ele>490</ele><time>2017-11-10T08:52:02.000Z</time></trkpt><trkpt lon="34.861877" lat="31.364213"><ele>490</ele><time>2017-11-10T08:52:03.000Z</time></trkpt><trkpt lon="34.861877" lat="31.364213"><ele>490</ele><time>2017-11-10T08:52:04.000Z</time></trkpt><trkpt lon="34.861877" lat="31.364213"><ele>490</ele><time>2017-11-10T08:52:05.000Z</time></trkpt><trkpt lon="34.861877" lat="31.364213"><ele>490</ele><time>2017-11-10T08:52:06.000Z</time></trkpt><trkpt lon="34.861877" lat="31.364213"><ele>490</ele><time>2017-11-10T08:52:07.000Z</time></trkpt><trkpt lon="34.861877" lat="31.364213"><ele>490</ele><time>2017-11-10T08:52:08.000Z</time></trkpt><trkpt lon="34.861877" lat="31.364213"><ele>490</ele><time>2017-11-10T08:52:09.000Z</time></trkpt><trkpt lon="34.861877" lat="31.364213"><ele>490</ele><time>2017-11-10T08:52:10.000Z</time></trkpt><trkpt lon="34.861877" lat="31.364213"><ele>490</ele><time>2017-11-10T08:52:11.000Z</time></trkpt><trkpt lon="34.861877" lat="31.364213"><ele>490</ele><time>2017-11-10T08:52:12.000Z</time></trkpt><trkpt lon="34.861877" lat="31.364213"><ele>490</ele><time>2017-11-10T08:52:13.000Z</time></trkpt><trkpt lon="34.861877" lat="31.364213"><ele>490</ele><time>2017-11-10T08:52:14.000Z</time></trkpt><trkpt lon="34.86188" lat="31.36423"><ele>490</ele><time>2017-11-10T08:52:15.000Z</time></trkpt><trkpt lon="34.86188" lat="31.36423"><ele>490</ele><time>2017-11-10T08:52:16.000Z</time></trkpt><trkpt lon="34.86188" lat="31.36423"><ele>490</ele><time>2017-11-10T08:52:17.000Z</time></trkpt><trkpt lon="34.86188" lat="31.36423"><ele>490</ele><time>2017-11-10T08:52:18.000Z</time></trkpt><trkpt lon="34.86188" lat="31.36423"><ele>490</ele><time>2017-11-10T08:52:19.000Z</time></trkpt><trkpt lon="34.86188" lat="31.36423"><ele>490</ele><time>2017-11-10T08:52:20.000Z</time></trkpt><trkpt lon="34.86188" lat="31.36423"><ele>490</ele><time>2017-11-10T08:52:21.000Z</time></trkpt><trkpt lon="34.86188" lat="31.36423"><ele>490</ele><time>2017-11-10T08:52:22.000Z</time></trkpt><trkpt lon="34.86188" lat="31.36423"><ele>490</ele><time>2017-11-10T08:52:23.000Z</time></trkpt><trkpt lon="34.86188" lat="31.36423"><ele>490</ele><time>2017-11-10T08:52:24.000Z</time></trkpt><trkpt lon="34.86188" lat="31.36423"><ele>490</ele><time>2017-11-10T08:52:25.000Z</time></trkpt><trkpt lon="34.86188" lat="31.36423"><ele>490</ele><time>2017-11-10T08:52:26.000Z</time></trkpt><trkpt lon="34.86188" lat="31.36423"><ele>490</ele><time>2017-11-10T08:52:27.000Z</time></trkpt><trkpt lon="34.86188" lat="31.36423"><ele>490</ele><time>2017-11-10T08:52:28.000Z</time></trkpt><trkpt lon="34.86188" lat="31.36423"><ele>490</ele><time>2017-11-10T08:52:29.000Z</time></trkpt><trkpt lon="34.86188" lat="31.36423"><ele>490</ele><time>2017-11-10T08:52:30.000Z</time></trkpt><trkpt lon="34.86188" lat="31.36423"><ele>490</ele><time>2017-11-10T08:52:31.000Z</time></trkpt><trkpt lon="34.86188" lat="31.36423"><ele>490</ele><time>2017-11-10T08:52:32.000Z</time></trkpt><trkpt lon="34.86188" lat="31.36423"><ele>490</ele><time>2017-11-10T08:52:33.000Z</time></trkpt><trkpt lon="34.86188" lat="31.36423"><ele>490</ele><time>2017-11-10T08:52:34.000Z</time></trkpt><trkpt lon="34.86188" lat="31.36423"><ele>490</ele><time>2017-11-10T08:52:35.000Z</time></trkpt><trkpt lon="34.86188" lat="31.36423"><ele>490</ele><time>2017-11-10T08:52:36.000Z</time></trkpt><trkpt lon="34.86188" lat="31.36423"><ele>490</ele><time>2017-11-10T08:52:37.000Z</time></trkpt><trkpt lon="34.86188" lat="31.36423"><ele>490</ele><time>2017-11-10T08:52:38.000Z</time></trkpt><trkpt lon="34.86188" lat="31.36423"><ele>490</ele><time>2017-11-10T08:52:39.000Z</time></trkpt><trkpt lon="34.86188" lat="31.36423"><ele>490</ele><time>2017-11-10T08:52:40.000Z</time></trkpt><trkpt lon="34.86188" lat="31.36423"><ele>490</ele><time>2017-11-10T08:52:41.000Z</time></trkpt><trkpt lon="34.86188" lat="31.36423"><ele>490</ele><time>2017-11-10T08:52:42.000Z</time></trkpt><trkpt lon="34.86188" lat="31.36423"><ele>490</ele><time>2017-11-10T08:52:43.000Z</time></trkpt><trkpt lon="34.86188" lat="31.36423"><ele>490</ele><time>2017-11-10T08:52:44.000Z</time></trkpt><trkpt lon="34.86188" lat="31.36423"><ele>490</ele><time>2017-11-10T08:52:45.000Z</time></trkpt><trkpt lon="34.86188" lat="31.36423"><ele>490</ele><time>2017-11-10T08:52:46.000Z</time></trkpt><trkpt lon="34.86188" lat="31.36423"><ele>490</ele><time>2017-11-10T08:52:47.000Z</time></trkpt><trkpt lon="34.86188" lat="31.36423"><ele>490</ele><time>2017-11-10T08:52:48.000Z</time></trkpt><trkpt lon="34.86188" lat="31.36423"><ele>490</ele><time>2017-11-10T08:52:49.000Z</time></trkpt><trkpt lon="34.86188" lat="31.36423"><ele>490</ele><time>2017-11-10T08:52:50.000Z</time></trkpt><trkpt lon="34.86188" lat="31.36423"><ele>490</ele><time>2017-11-10T08:52:51.000Z</time></trkpt><trkpt lon="34.86188" lat="31.36423"><ele>490</ele><time>2017-11-10T08:52:52.000Z</time></trkpt><trkpt lon="34.86188" lat="31.36423"><ele>490</ele><time>2017-11-10T08:52:53.000Z</time></trkpt><trkpt lon="34.86188" lat="31.36423"><ele>490</ele><time>2017-11-10T08:52:54.000Z</time></trkpt><trkpt lon="34.86188" lat="31.36423"><ele>490</ele><time>2017-11-10T08:52:55.000Z</time></trkpt><trkpt lon="34.86188" lat="31.36423"><ele>490</ele><time>2017-11-10T08:52:56.000Z</time></trkpt><trkpt lon="34.86188" lat="31.36423"><ele>490</ele><time>2017-11-10T08:52:57.000Z</time></trkpt><trkpt lon="34.86188" lat="31.36423"><ele>490</ele><time>2017-11-10T08:52:58.000Z</time></trkpt><trkpt lon="34.86188" lat="31.36423"><ele>490</ele><time>2017-11-10T08:52:59.000Z</time></trkpt><trkpt lon="34.86188" lat="31.36423"><ele>490</ele><time>2017-11-10T08:53:00.000Z</time></trkpt><trkpt lon="34.86188" lat="31.36423"><ele>490</ele><time>2017-11-10T08:53:01.000Z</time></trkpt><trkpt lon="34.86188" lat="31.36423"><ele>490</ele><time>2017-11-10T08:53:02.000Z</time></trkpt><trkpt lon="34.86188" lat="31.36423"><ele>490</ele><time>2017-11-10T08:53:03.000Z</time></trkpt><trkpt lon="34.86188" lat="31.36423"><ele>490</ele><time>2017-11-10T08:53:04.000Z</time></trkpt><trkpt lon="34.86188" lat="31.36423"><ele>490</ele><time>2017-11-10T08:53:05.000Z</time></trkpt><trkpt lon="34.86188" lat="31.36423"><ele>490</ele><time>2017-11-10T08:53:06.000Z</time></trkpt><trkpt lon="34.86188" lat="31.36423"><ele>490</ele><time>2017-11-10T08:53:07.000Z</time></trkpt><trkpt lon="34.86188" lat="31.36423"><ele>490</ele><time>2017-11-10T08:53:08.000Z</time></trkpt><trkpt lon="34.86188" lat="31.36423"><ele>490</ele><time>2017-11-10T08:53:09.000Z</time></trkpt><trkpt lon="34.86188" lat="31.36423"><ele>490</ele><time>2017-11-10T08:53:10.000Z</time></trkpt><trkpt lon="34.86188" lat="31.36423"><ele>490</ele><time>2017-11-10T08:53:11.000Z</time></trkpt><trkpt lon="34.86188" lat="31.36423"><ele>490</ele><time>2017-11-10T08:53:12.000Z</time></trkpt><trkpt lon="34.86188" lat="31.36423"><ele>490</ele><time>2017-11-10T08:53:13.000Z</time></trkpt><trkpt lon="34.861913" lat="31.364215"><ele>490</ele><time>2017-11-10T08:53:14.000Z</time></trkpt><trkpt lon="34.86193" lat="31.364199"><ele>490</ele><time>2017-11-10T08:53:15.000Z</time></trkpt><trkpt lon="34.861946" lat="31.36418"><ele>490</ele><time>2017-11-10T08:53:16.000Z</time></trkpt><trkpt lon="34.861962" lat="31.364157"><ele>490</ele><time>2017-11-10T08:53:17.000Z</time></trkpt><trkpt lon="34.861978" lat="31.364131"><ele>490</ele><time>2017-11-10T08:53:18.000Z</time></trkpt><trkpt lon="34.86199" lat="31.3641"><ele>490</ele><time>2017-11-10T08:53:19.000Z</time></trkpt><trkpt lon="34.861998" lat="31.364066"><ele>490</ele><time>2017-11-10T08:53:20.000Z</time></trkpt><trkpt lon="34.861997" lat="31.364028"><ele>490</ele><time>2017-11-10T08:53:21.000Z</time></trkpt><trkpt lon="34.861983" lat="31.363989"><ele>490</ele><time>2017-11-10T08:53:22.000Z</time></trkpt><trkpt lon="34.86196" lat="31.363954"><ele>489</ele><time>2017-11-10T08:53:23.000Z</time></trkpt><trkpt lon="34.861939" lat="31.363919"><ele>489</ele><time>2017-11-10T08:53:24.000Z</time></trkpt><trkpt lon="34.861929" lat="31.36388"><ele>489</ele><time>2017-11-10T08:53:25.000Z</time></trkpt><trkpt lon="34.861932" lat="31.363837"><ele>489</ele><time>2017-11-10T08:53:26.000Z</time></trkpt><trkpt lon="34.861932" lat="31.363786"><ele>489</ele><time>2017-11-10T08:53:27.000Z</time></trkpt><trkpt lon="34.861916" lat="31.363733"><ele>489</ele><time>2017-11-10T08:53:28.000Z</time></trkpt><trkpt lon="34.861886" lat="31.363681"><ele>488</ele><time>2017-11-10T08:53:29.000Z</time></trkpt><trkpt lon="34.861852" lat="31.363631"><ele>488</ele><time>2017-11-10T08:53:30.000Z</time></trkpt><trkpt lon="34.861833" lat="31.363581"><ele>487</ele><time>2017-11-10T08:53:31.000Z</time></trkpt><trkpt lon="34.861835" lat="31.363526"><ele>486</ele><time>2017-11-10T08:53:32.000Z</time></trkpt><trkpt lon="34.861828" lat="31.363465"><ele>485</ele><time>2017-11-10T08:53:33.000Z</time></trkpt><trkpt lon="34.861801" lat="31.363405"><ele>484</ele><time>2017-11-10T08:53:34.000Z</time></trkpt><trkpt lon="34.861764" lat="31.36335"><ele>484</ele><time>2017-11-10T08:53:35.000Z</time></trkpt><trkpt lon="34.861723" lat="31.363299"><ele>484</ele><time>2017-11-10T08:53:36.000Z</time></trkpt><trkpt lon="34.861685" lat="31.363253"><ele>484</ele><time>2017-11-10T08:53:37.000Z</time></trkpt><trkpt lon="34.861654" lat="31.363209"><ele>484</ele><time>2017-11-10T08:53:38.000Z</time></trkpt><trkpt lon="34.861631" lat="31.363163"><ele>484</ele><time>2017-11-10T08:53:39.000Z</time></trkpt><trkpt lon="34.861618" lat="31.363118"><ele>484</ele><time>2017-11-10T08:53:40.000Z</time></trkpt><trkpt lon="34.861617" lat="31.363067"><ele>484</ele><time>2017-11-10T08:53:41.000Z</time></trkpt><trkpt lon="34.861628" lat="31.363013"><ele>484</ele><time>2017-11-10T08:53:42.000Z</time></trkpt><trkpt lon="34.861655" lat="31.362956"><ele>484</ele><time>2017-11-10T08:53:43.000Z</time></trkpt><trkpt lon="34.86169" lat="31.362898"><ele>484</ele><time>2017-11-10T08:53:44.000Z</time></trkpt><trkpt lon="34.861721" lat="31.362836"><ele>484</ele><time>2017-11-10T08:53:45.000Z</time></trkpt><trkpt lon="34.861752" lat="31.362768"><ele>484</ele><time>2017-11-10T08:53:46.000Z</time></trkpt><trkpt lon="34.861769" lat="31.362698"><ele>484</ele><time>2017-11-10T08:53:47.000Z</time></trkpt><trkpt lon="34.861786" lat="31.362627"><ele>484</ele><time>2017-11-10T08:53:48.000Z</time></trkpt><trkpt lon="34.861799" lat="31.362562"><ele>484</ele><time>2017-11-10T08:53:49.000Z</time></trkpt><trkpt lon="34.861816" lat="31.362504"><ele>484</ele><time>2017-11-10T08:53:50.000Z</time></trkpt><trkpt lon="34.861824" lat="31.362448"><ele>484</ele><time>2017-11-10T08:53:51.000Z</time></trkpt><trkpt lon="34.861818" lat="31.362395"><ele>484</ele><time>2017-11-10T08:53:52.000Z</time></trkpt><trkpt lon="34.861801" lat="31.362351"><ele>484</ele><time>2017-11-10T08:53:53.000Z</time></trkpt><trkpt lon="34.861775" lat="31.362309"><ele>484</ele><time>2017-11-10T08:53:54.000Z</time></trkpt><trkpt lon="34.861743" lat="31.362272"><ele>484</ele><time>2017-11-10T08:53:55.000Z</time></trkpt><trkpt lon="34.861707" lat="31.362241"><ele>484</ele><time>2017-11-10T08:53:56.000Z</time></trkpt><trkpt lon="34.861668" lat="31.362212"><ele>485</ele><time>2017-11-10T08:53:57.000Z</time></trkpt><trkpt lon="34.861625" lat="31.362195"><ele>485</ele><time>2017-11-10T08:53:58.000Z</time></trkpt><trkpt lon="34.861584" lat="31.362176"><ele>485</ele><time>2017-11-10T08:53:59.000Z</time></trkpt><trkpt lon="34.861555" lat="31.36215"><ele>485</ele><time>2017-11-10T08:54:00.000Z</time></trkpt><trkpt lon="34.861555" lat="31.362118"><ele>485</ele><time>2017-11-10T08:54:01.000Z</time></trkpt><trkpt lon="34.861589" lat="31.362094"><ele>485</ele><time>2017-11-10T08:54:02.000Z</time></trkpt><trkpt lon="34.86163" lat="31.362062"><ele>485</ele><time>2017-11-10T08:54:03.000Z</time></trkpt><trkpt lon="34.861676" lat="31.36203"><ele>484</ele><time>2017-11-10T08:54:04.000Z</time></trkpt><trkpt lon="34.861729" lat="31.362004"><ele>484</ele><time>2017-11-10T08:54:05.000Z</time></trkpt><trkpt lon="34.861788" lat="31.36199"><ele>483</ele><time>2017-11-10T08:54:06.000Z</time></trkpt><trkpt lon="34.86185" lat="31.361982"><ele>482</ele><time>2017-11-10T08:54:07.000Z</time></trkpt><trkpt lon="34.861903" lat="31.36197"><ele>482</ele><time>2017-11-10T08:54:08.000Z</time></trkpt><trkpt lon="34.861933" lat="31.36194"><ele>482</ele><time>2017-11-10T08:54:09.000Z</time></trkpt><trkpt lon="34.861934" lat="31.361892"><ele>482</ele><time>2017-11-10T08:54:10.000Z</time></trkpt><trkpt lon="34.86194" lat="31.361845"><ele>481</ele><time>2017-11-10T08:54:11.000Z</time></trkpt><trkpt lon="34.86197" lat="31.361814"><ele>480</ele><time>2017-11-10T08:54:12.000Z</time></trkpt><trkpt lon="34.86202" lat="31.361802"><ele>479</ele><time>2017-11-10T08:54:13.000Z</time></trkpt><trkpt lon="34.862072" lat="31.361808"><ele>478</ele><time>2017-11-10T08:54:14.000Z</time></trkpt><trkpt lon="34.86212" lat="31.361816"><ele>478</ele><time>2017-11-10T08:54:15.000Z</time></trkpt><trkpt lon="34.862167" lat="31.361824"><ele>478</ele><time>2017-11-10T08:54:16.000Z</time></trkpt><trkpt lon="34.862214" lat="31.361834"><ele>478</ele><time>2017-11-10T08:54:17.000Z</time></trkpt><trkpt lon="34.862262" lat="31.361848"><ele>478</ele><time>2017-11-10T08:54:18.000Z</time></trkpt><trkpt lon="34.862311" lat="31.36187"><ele>477</ele><time>2017-11-10T08:54:19.000Z</time></trkpt><trkpt lon="34.862365" lat="31.361894"><ele>477</ele><time>2017-11-10T08:54:20.000Z</time></trkpt><trkpt lon="34.862413" lat="31.361924"><ele>476</ele><time>2017-11-10T08:54:21.000Z</time></trkpt><trkpt lon="34.862444" lat="31.361956"><ele>476</ele><time>2017-11-10T08:54:22.000Z</time></trkpt><trkpt lon="34.862455" lat="31.361974"><ele>476</ele><time>2017-11-10T08:54:23.000Z</time></trkpt><trkpt lon="34.862455" lat="31.361974"><ele>475</ele><time>2017-11-10T08:54:24.000Z</time></trkpt><trkpt lon="34.862455" lat="31.361974"><ele>475</ele><time>2017-11-10T08:54:25.000Z</time></trkpt><trkpt lon="34.862455" lat="31.361974"><ele>475</ele><time>2017-11-10T08:54:26.000Z</time></trkpt><trkpt lon="34.862455" lat="31.361974"><ele>475</ele><time>2017-11-10T08:54:27.000Z</time></trkpt><trkpt lon="34.862455" lat="31.361974"><ele>475</ele><time>2017-11-10T08:54:28.000Z</time></trkpt><trkpt lon="34.862455" lat="31.361974"><ele>475</ele><time>2017-11-10T08:54:29.000Z</time></trkpt><trkpt lon="34.862455" lat="31.361974"><ele>475</ele><time>2017-11-10T08:54:30.000Z</time></trkpt><trkpt lon="34.862455" lat="31.361974"><ele>475</ele><time>2017-11-10T08:54:31.000Z</time></trkpt><trkpt lon="34.862455" lat="31.361974"><ele>475</ele><time>2017-11-10T08:54:32.000Z</time></trkpt><trkpt lon="34.862455" lat="31.361974"><ele>475</ele><time>2017-11-10T08:54:33.000Z</time></trkpt><trkpt lon="34.862455" lat="31.361974"><ele>475</ele><time>2017-11-10T08:54:34.000Z</time></trkpt><trkpt lon="34.862455" lat="31.361974"><ele>475</ele><time>2017-11-10T08:54:35.000Z</time></trkpt><trkpt lon="34.862455" lat="31.361974"><ele>475</ele><time>2017-11-10T08:54:36.000Z</time></trkpt><trkpt lon="34.862455" lat="31.361974"><ele>475</ele><time>2017-11-10T08:54:37.000Z</time></trkpt><trkpt lon="34.862434" lat="31.361972"><ele>475</ele><time>2017-11-10T08:54:38.000Z</time></trkpt><trkpt lon="34.862434" lat="31.361972"><ele>475</ele><time>2017-11-10T08:54:39.000Z</time></trkpt><trkpt lon="34.862434" lat="31.361972"><ele>475</ele><time>2017-11-10T08:54:40.000Z</time></trkpt><trkpt lon="34.862434" lat="31.361972"><ele>475</ele><time>2017-11-10T08:54:41.000Z</time></trkpt><trkpt lon="34.862434" lat="31.361972"><ele>475</ele><time>2017-11-10T08:54:42.000Z</time></trkpt><trkpt lon="34.862434" lat="31.361972"><ele>475</ele><time>2017-11-10T08:54:43.000Z</time></trkpt><trkpt lon="34.862434" lat="31.361972"><ele>475</ele><time>2017-11-10T08:54:44.000Z</time></trkpt><trkpt lon="34.862434" lat="31.361972"><ele>475</ele><time>2017-11-10T08:54:45.000Z</time></trkpt><trkpt lon="34.862434" lat="31.361972"><ele>475</ele><time>2017-11-10T08:54:46.000Z</time></trkpt><trkpt lon="34.862434" lat="31.361972"><ele>475</ele><time>2017-11-10T08:54:47.000Z</time></trkpt><trkpt lon="34.862434" lat="31.361972"><ele>475</ele><time>2017-11-10T08:54:48.000Z</time></trkpt><trkpt lon="34.862434" lat="31.361972"><ele>475</ele><time>2017-11-10T08:54:49.000Z</time></trkpt><trkpt lon="34.862434" lat="31.361972"><ele>475</ele><time>2017-11-10T08:54:50.000Z</time></trkpt><trkpt lon="34.862434" lat="31.361972"><ele>475</ele><time>2017-11-10T08:54:51.000Z</time></trkpt><trkpt lon="34.862434" lat="31.361972"><ele>475</ele><time>2017-11-10T08:54:52.000Z</time></trkpt><trkpt lon="34.862434" lat="31.361972"><ele>475</ele><time>2017-11-10T08:54:53.000Z</time></trkpt><trkpt lon="34.862434" lat="31.361972"><ele>475</ele><time>2017-11-10T08:54:54.000Z</time></trkpt><trkpt lon="34.862434" lat="31.361972"><ele>475</ele><time>2017-11-10T08:54:55.000Z</time></trkpt><trkpt lon="34.862434" lat="31.361972"><ele>475</ele><time>2017-11-10T08:54:56.000Z</time></trkpt><trkpt lon="34.862434" lat="31.361972"><ele>475</ele><time>2017-11-10T08:54:57.000Z</time></trkpt><trkpt lon="34.862434" lat="31.361972"><ele>475</ele><time>2017-11-10T08:54:58.000Z</time></trkpt><trkpt lon="34.862453" lat="31.361982"><ele>476</ele><time>2017-11-10T08:54:59.000Z</time></trkpt><trkpt lon="34.862453" lat="31.361982"><ele>476</ele><time>2017-11-10T08:55:00.000Z</time></trkpt><trkpt lon="34.862453" lat="31.361982"><ele>476</ele><time>2017-11-10T08:55:01.000Z</time></trkpt><trkpt lon="34.862453" lat="31.361982"><ele>476</ele><time>2017-11-10T08:55:02.000Z</time></trkpt><trkpt lon="34.862453" lat="31.361982"><ele>476</ele><time>2017-11-10T08:55:03.000Z</time></trkpt><trkpt lon="34.862453" lat="31.361982"><ele>476</ele><time>2017-11-10T08:55:04.000Z</time></trkpt><trkpt lon="34.862453" lat="31.361982"><ele>476</ele><time>2017-11-10T08:55:05.000Z</time></trkpt><trkpt lon="34.862453" lat="31.361982"><ele>476</ele><time>2017-11-10T08:55:06.000Z</time></trkpt><trkpt lon="34.862453" lat="31.361982"><ele>476</ele><time>2017-11-10T08:55:07.000Z</time></trkpt><trkpt lon="34.862453" lat="31.361982"><ele>476</ele><time>2017-11-10T08:55:08.000Z</time></trkpt><trkpt lon="34.862453" lat="31.361982"><ele>476</ele><time>2017-11-10T08:55:09.000Z</time></trkpt><trkpt lon="34.862453" lat="31.361982"><ele>476</ele><time>2017-11-10T08:55:10.000Z</time></trkpt><trkpt lon="34.862473" lat="31.362"><ele>476</ele><time>2017-11-10T08:55:11.000Z</time></trkpt><trkpt lon="34.862491" lat="31.362022"><ele>475</ele><time>2017-11-10T08:55:12.000Z</time></trkpt><trkpt lon="34.862505" lat="31.362056"><ele>474</ele><time>2017-11-10T08:55:13.000Z</time></trkpt><trkpt lon="34.86251" lat="31.362098"><ele>474</ele><time>2017-11-10T08:55:14.000Z</time></trkpt><trkpt lon="34.862503" lat="31.362138"><ele>474</ele><time>2017-11-10T08:55:15.000Z</time></trkpt><trkpt lon="34.862487" lat="31.362172"><ele>474</ele><time>2017-11-10T08:55:16.000Z</time></trkpt><trkpt lon="34.862469" lat="31.362204"><ele>474</ele><time>2017-11-10T08:55:17.000Z</time></trkpt><trkpt lon="34.862453" lat="31.362232"><ele>474</ele><time>2017-11-10T08:55:18.000Z</time></trkpt><trkpt lon="34.86243" lat="31.362258"><ele>474</ele><time>2017-11-10T08:55:19.000Z</time></trkpt><trkpt lon="34.862411" lat="31.362284"><ele>475</ele><time>2017-11-10T08:55:20.000Z</time></trkpt><trkpt lon="34.862393" lat="31.362312"><ele>475</ele><time>2017-11-10T08:55:21.000Z</time></trkpt><trkpt lon="34.862376" lat="31.362342"><ele>475</ele><time>2017-11-10T08:55:22.000Z</time></trkpt><trkpt lon="34.862365" lat="31.362368"><ele>475</ele><time>2017-11-10T08:55:23.000Z</time></trkpt><trkpt lon="34.862363" lat="31.362392"><ele>475</ele><time>2017-11-10T08:55:24.000Z</time></trkpt><trkpt lon="34.862369" lat="31.362414"><ele>475</ele><time>2017-11-10T08:55:25.000Z</time></trkpt><trkpt lon="34.862369" lat="31.362414"><ele>475</ele><time>2017-11-10T08:55:26.000Z</time></trkpt><trkpt lon="34.862369" lat="31.362414"><ele>475</ele><time>2017-11-10T08:55:27.000Z</time></trkpt><trkpt lon="34.862369" lat="31.362414"><ele>475</ele><time>2017-11-10T08:55:28.000Z</time></trkpt><trkpt lon="34.862369" lat="31.362414"><ele>475</ele><time>2017-11-10T08:55:29.000Z</time></trkpt><trkpt lon="34.862369" lat="31.362414"><ele>475</ele><time>2017-11-10T08:55:30.000Z</time></trkpt><trkpt lon="34.862369" lat="31.362414"><ele>475</ele><time>2017-11-10T08:55:31.000Z</time></trkpt><trkpt lon="34.862369" lat="31.362414"><ele>475</ele><time>2017-11-10T08:55:32.000Z</time></trkpt><trkpt lon="34.862369" lat="31.362414"><ele>475</ele><time>2017-11-10T08:55:33.000Z</time></trkpt><trkpt lon="34.862369" lat="31.362414"><ele>475</ele><time>2017-11-10T08:55:34.000Z</time></trkpt><trkpt lon="34.862369" lat="31.362414"><ele>475</ele><time>2017-11-10T08:55:35.000Z</time></trkpt><trkpt lon="34.862365" lat="31.362432"><ele>475</ele><time>2017-11-10T08:55:36.000Z</time></trkpt><trkpt lon="34.862365" lat="31.362432"><ele>475</ele><time>2017-11-10T08:55:37.000Z</time></trkpt><trkpt lon="34.862365" lat="31.362432"><ele>475</ele><time>2017-11-10T08:55:38.000Z</time></trkpt><trkpt lon="34.862365" lat="31.362432"><ele>475</ele><time>2017-11-10T08:55:39.000Z</time></trkpt><trkpt lon="34.862365" lat="31.362432"><ele>475</ele><time>2017-11-10T08:55:40.000Z</time></trkpt><trkpt lon="34.862365" lat="31.362432"><ele>475</ele><time>2017-11-10T08:55:41.000Z</time></trkpt><trkpt lon="34.862365" lat="31.362432"><ele>475</ele><time>2017-11-10T08:55:42.000Z</time></trkpt><trkpt lon="34.862365" lat="31.362432"><ele>475</ele><time>2017-11-10T08:55:43.000Z</time></trkpt><trkpt lon="34.862365" lat="31.362432"><ele>475</ele><time>2017-11-10T08:55:44.000Z</time></trkpt><trkpt lon="34.862365" lat="31.362432"><ele>475</ele><time>2017-11-10T08:55:45.000Z</time></trkpt><trkpt lon="34.862369" lat="31.362456"><ele>475</ele><time>2017-11-10T08:55:46.000Z</time></trkpt><trkpt lon="34.862379" lat="31.362484"><ele>474</ele><time>2017-11-10T08:55:47.000Z</time></trkpt><trkpt lon="34.862389" lat="31.362515"><ele>474</ele><time>2017-11-10T08:55:48.000Z</time></trkpt><trkpt lon="34.862411" lat="31.362554"><ele>474</ele><time>2017-11-10T08:55:49.000Z</time></trkpt><trkpt lon="34.862437" lat="31.362604"><ele>474</ele><time>2017-11-10T08:55:50.000Z</time></trkpt><trkpt lon="34.862462" lat="31.36265"><ele>473</ele><time>2017-11-10T08:55:51.000Z</time></trkpt><trkpt lon="34.862484" lat="31.362698"><ele>473</ele><time>2017-11-10T08:55:52.000Z</time></trkpt><trkpt lon="34.862498" lat="31.362748"><ele>472</ele><time>2017-11-10T08:55:53.000Z</time></trkpt><trkpt lon="34.862501" lat="31.362794"><ele>472</ele><time>2017-11-10T08:55:54.000Z</time></trkpt><trkpt lon="34.862494" lat="31.362836"><ele>472</ele><time>2017-11-10T08:55:55.000Z</time></trkpt><trkpt lon="34.862472" lat="31.36288"><ele>472</ele><time>2017-11-10T08:55:56.000Z</time></trkpt><trkpt lon="34.862446" lat="31.362916"><ele>472</ele><time>2017-11-10T08:55:57.000Z</time></trkpt><trkpt lon="34.862425" lat="31.362934"><ele>472</ele><time>2017-11-10T08:55:58.000Z</time></trkpt><trkpt lon="34.862425" lat="31.362934"><ele>472</ele><time>2017-11-10T08:55:59.000Z</time></trkpt><trkpt lon="34.862404" lat="31.362936"><ele>472</ele><time>2017-11-10T08:56:00.000Z</time></trkpt><trkpt lon="34.862404" lat="31.362936"><ele>471</ele><time>2017-11-10T08:56:01.000Z</time></trkpt><trkpt lon="34.862404" lat="31.362936"><ele>471</ele><time>2017-11-10T08:56:02.000Z</time></trkpt><trkpt lon="34.862404" lat="31.362936"><ele>471</ele><time>2017-11-10T08:56:03.000Z</time></trkpt><trkpt lon="34.862404" lat="31.362936"><ele>471</ele><time>2017-11-10T08:56:04.000Z</time></trkpt><trkpt lon="34.862404" lat="31.362936"><ele>471</ele><time>2017-11-10T08:56:05.000Z</time></trkpt><trkpt lon="34.862371" lat="31.362938"><ele>471</ele><time>2017-11-10T08:56:06.000Z</time></trkpt><trkpt lon="34.862371" lat="31.362938"><ele>471</ele><time>2017-11-10T08:56:07.000Z</time></trkpt><trkpt lon="34.862371" lat="31.362938"><ele>471</ele><time>2017-11-10T08:56:08.000Z</time></trkpt><trkpt lon="34.862354" lat="31.362914"><ele>471</ele><time>2017-11-10T08:56:09.000Z</time></trkpt><trkpt lon="34.862354" lat="31.362914"><ele>472</ele><time>2017-11-10T08:56:10.000Z</time></trkpt><trkpt lon="34.862349" lat="31.362892"><ele>472</ele><time>2017-11-10T08:56:11.000Z</time></trkpt><trkpt lon="34.862349" lat="31.362892"><ele>472</ele><time>2017-11-10T08:56:12.000Z</time></trkpt><trkpt lon="34.862343" lat="31.362864"><ele>472</ele><time>2017-11-10T08:56:13.000Z</time></trkpt><trkpt lon="34.862343" lat="31.362864"><ele>472</ele><time>2017-11-10T08:56:14.000Z</time></trkpt><trkpt lon="34.862339" lat="31.362838"><ele>472</ele><time>2017-11-10T08:56:15.000Z</time></trkpt><trkpt lon="34.862339" lat="31.362838"><ele>472</ele><time>2017-11-10T08:56:16.000Z</time></trkpt><trkpt lon="34.862337" lat="31.362812"><ele>472</ele><time>2017-11-10T08:56:17.000Z</time></trkpt><trkpt lon="34.862337" lat="31.362812"><ele>472</ele><time>2017-11-10T08:56:18.000Z</time></trkpt><trkpt lon="34.862333" lat="31.362784"><ele>473</ele><time>2017-11-10T08:56:19.000Z</time></trkpt><trkpt lon="34.862333" lat="31.362784"><ele>473</ele><time>2017-11-10T08:56:20.000Z</time></trkpt><trkpt lon="34.862327" lat="31.36276"><ele>473</ele><time>2017-11-10T08:56:21.000Z</time></trkpt><trkpt lon="34.862327" lat="31.36276"><ele>473</ele><time>2017-11-10T08:56:22.000Z</time></trkpt><trkpt lon="34.862329" lat="31.36274"><ele>473</ele><time>2017-11-10T08:56:23.000Z</time></trkpt><trkpt lon="34.862329" lat="31.36274"><ele>473</ele><time>2017-11-10T08:56:24.000Z</time></trkpt><trkpt lon="34.862331" lat="31.362716"><ele>473</ele><time>2017-11-10T08:56:25.000Z</time></trkpt><trkpt lon="34.862331" lat="31.362716"><ele>473</ele><time>2017-11-10T08:56:26.000Z</time></trkpt><trkpt lon="34.862331" lat="31.362716"><ele>473</ele><time>2017-11-10T08:56:27.000Z</time></trkpt><trkpt lon="34.862331" lat="31.362716"><ele>474</ele><time>2017-11-10T08:56:28.000Z</time></trkpt><trkpt lon="34.862331" lat="31.362716"><ele>474</ele><time>2017-11-10T08:56:29.000Z</time></trkpt><trkpt lon="34.862331" lat="31.362716"><ele>474</ele><time>2017-11-10T08:56:30.000Z</time></trkpt><trkpt lon="34.862331" lat="31.362716"><ele>474</ele><time>2017-11-10T08:56:31.000Z</time></trkpt><trkpt lon="34.862331" lat="31.362716"><ele>474</ele><time>2017-11-10T08:56:32.000Z</time></trkpt><trkpt lon="34.862331" lat="31.362716"><ele>474</ele><time>2017-11-10T08:56:33.000Z</time></trkpt><trkpt lon="34.862331" lat="31.362716"><ele>474</ele><time>2017-11-10T08:56:34.000Z</time></trkpt><trkpt lon="34.862331" lat="31.362716"><ele>474</ele><time>2017-11-10T08:56:35.000Z</time></trkpt><trkpt lon="34.862331" lat="31.362716"><ele>474</ele><time>2017-11-10T08:56:36.000Z</time></trkpt><trkpt lon="34.862331" lat="31.362716"><ele>474</ele><time>2017-11-10T08:56:37.000Z</time></trkpt><trkpt lon="34.862336" lat="31.362695"><ele>474</ele><time>2017-11-10T08:56:38.000Z</time></trkpt><trkpt lon="34.862336" lat="31.362695"><ele>474</ele><time>2017-11-10T08:56:39.000Z</time></trkpt><trkpt lon="34.862336" lat="31.362695"><ele>474</ele><time>2017-11-10T08:56:40.000Z</time></trkpt><trkpt lon="34.862336" lat="31.362695"><ele>474</ele><time>2017-11-10T08:56:41.000Z</time></trkpt><trkpt lon="34.862336" lat="31.362695"><ele>474</ele><time>2017-11-10T08:56:42.000Z</time></trkpt><trkpt lon="34.862336" lat="31.362695"><ele>474</ele><time>2017-11-10T08:56:43.000Z</time></trkpt><trkpt lon="34.862336" lat="31.362695"><ele>474</ele><time>2017-11-10T08:56:44.000Z</time></trkpt><trkpt lon="34.862336" lat="31.362695"><ele>474</ele><time>2017-11-10T08:56:45.000Z</time></trkpt><trkpt lon="34.862336" lat="31.362695"><ele>474</ele><time>2017-11-10T08:56:46.000Z</time></trkpt><trkpt lon="34.862336" lat="31.362695"><ele>474</ele><time>2017-11-10T08:56:47.000Z</time></trkpt><trkpt lon="34.862336" lat="31.362695"><ele>474</ele><time>2017-11-10T08:56:48.000Z</time></trkpt><trkpt lon="34.862336" lat="31.362695"><ele>474</ele><time>2017-11-10T08:56:49.000Z</time></trkpt><trkpt lon="34.862337" lat="31.362676"><ele>474</ele><time>2017-11-10T08:56:50.000Z</time></trkpt><trkpt lon="34.862337" lat="31.362676"><ele>474</ele><time>2017-11-10T08:56:51.000Z</time></trkpt><trkpt lon="34.862333" lat="31.362656"><ele>474</ele><time>2017-11-10T08:56:52.000Z</time></trkpt><trkpt lon="34.862333" lat="31.362656"><ele>474</ele><time>2017-11-10T08:56:53.000Z</time></trkpt><trkpt lon="34.862328" lat="31.36262"><ele>474</ele><time>2017-11-10T08:56:54.000Z</time></trkpt><trkpt lon="34.862322" lat="31.362602"><ele>475</ele><time>2017-11-10T08:56:55.000Z</time></trkpt><trkpt lon="34.862319" lat="31.362584"><ele>475</ele><time>2017-11-10T08:56:56.000Z</time></trkpt><trkpt lon="34.862319" lat="31.362584"><ele>475</ele><time>2017-11-10T08:56:57.000Z</time></trkpt><trkpt lon="34.862307" lat="31.362552"><ele>476</ele><time>2017-11-10T08:56:58.000Z</time></trkpt><trkpt lon="34.862307" lat="31.362552"><ele>476</ele><time>2017-11-10T08:56:59.000Z</time></trkpt><trkpt lon="34.862306" lat="31.362527"><ele>476</ele><time>2017-11-10T08:57:00.000Z</time></trkpt><trkpt lon="34.862306" lat="31.362527"><ele>476</ele><time>2017-11-10T08:57:01.000Z</time></trkpt><trkpt lon="34.862315" lat="31.362501"><ele>476</ele><time>2017-11-10T08:57:02.000Z</time></trkpt><trkpt lon="34.862315" lat="31.362501"><ele>476</ele><time>2017-11-10T08:57:03.000Z</time></trkpt><trkpt lon="34.862324" lat="31.362475"><ele>476</ele><time>2017-11-10T08:57:04.000Z</time></trkpt><trkpt lon="34.862324" lat="31.362475"><ele>476</ele><time>2017-11-10T08:57:05.000Z</time></trkpt><trkpt lon="34.862332" lat="31.362448"><ele>476</ele><time>2017-11-10T08:57:06.000Z</time></trkpt><trkpt lon="34.862332" lat="31.362448"><ele>476</ele><time>2017-11-10T08:57:07.000Z</time></trkpt><trkpt lon="34.862342" lat="31.362425"><ele>476</ele><time>2017-11-10T08:57:08.000Z</time></trkpt><trkpt lon="34.862342" lat="31.362425"><ele>476</ele><time>2017-11-10T08:57:09.000Z</time></trkpt><trkpt lon="34.862357" lat="31.362412"><ele>476</ele><time>2017-11-10T08:57:10.000Z</time></trkpt><trkpt lon="34.862357" lat="31.362412"><ele>476</ele><time>2017-11-10T08:57:11.000Z</time></trkpt><trkpt lon="34.862357" lat="31.362412"><ele>476</ele><time>2017-11-10T08:57:12.000Z</time></trkpt><trkpt lon="34.862357" lat="31.362412"><ele>476</ele><time>2017-11-10T08:57:13.000Z</time></trkpt><trkpt lon="34.862357" lat="31.362412"><ele>476</ele><time>2017-11-10T08:57:14.000Z</time></trkpt><trkpt lon="34.862357" lat="31.362412"><ele>476</ele><time>2017-11-10T08:57:15.000Z</time></trkpt><trkpt lon="34.862357" lat="31.362412"><ele>476</ele><time>2017-11-10T08:57:16.000Z</time></trkpt><trkpt lon="34.862357" lat="31.362412"><ele>476</ele><time>2017-11-10T08:57:17.000Z</time></trkpt><trkpt lon="34.862357" lat="31.362412"><ele>476</ele><time>2017-11-10T08:57:18.000Z</time></trkpt><trkpt lon="34.862357" lat="31.362412"><ele>476</ele><time>2017-11-10T08:57:19.000Z</time></trkpt><trkpt lon="34.862357" lat="31.362412"><ele>476</ele><time>2017-11-10T08:57:20.000Z</time></trkpt><trkpt lon="34.862357" lat="31.362412"><ele>476</ele><time>2017-11-10T08:57:21.000Z</time></trkpt><trkpt lon="34.862357" lat="31.362412"><ele>476</ele><time>2017-11-10T08:57:22.000Z</time></trkpt><trkpt lon="34.862357" lat="31.362412"><ele>476</ele><time>2017-11-10T08:57:23.000Z</time></trkpt><trkpt lon="34.862357" lat="31.362412"><ele>476</ele><time>2017-11-10T08:57:24.000Z</time></trkpt><trkpt lon="34.862357" lat="31.362412"><ele>476</ele><time>2017-11-10T08:57:25.000Z</time></trkpt><trkpt lon="34.862357" lat="31.362412"><ele>476</ele><time>2017-11-10T08:57:26.000Z</time></trkpt><trkpt lon="34.862357" lat="31.362412"><ele>476</ele><time>2017-11-10T08:57:27.000Z</time></trkpt><trkpt lon="34.862357" lat="31.362412"><ele>476</ele><time>2017-11-10T08:57:28.000Z</time></trkpt><trkpt lon="34.862357" lat="31.362412"><ele>476</ele><time>2017-11-10T08:57:29.000Z</time></trkpt><trkpt lon="34.862357" lat="31.362412"><ele>476</ele><time>2017-11-10T08:57:30.000Z</time></trkpt><trkpt lon="34.862357" lat="31.362412"><ele>476</ele><time>2017-11-10T08:57:31.000Z</time></trkpt><trkpt lon="34.862357" lat="31.362412"><ele>476</ele><time>2017-11-10T08:57:32.000Z</time></trkpt><trkpt lon="34.862357" lat="31.362412"><ele>476</ele><time>2017-11-10T08:57:33.000Z</time></trkpt><trkpt lon="34.862357" lat="31.362412"><ele>476</ele><time>2017-11-10T08:57:34.000Z</time></trkpt><trkpt lon="34.862357" lat="31.362412"><ele>476</ele><time>2017-11-10T08:57:35.000Z</time></trkpt><trkpt lon="34.862357" lat="31.362412"><ele>476</ele><time>2017-11-10T08:57:36.000Z</time></trkpt><trkpt lon="34.862357" lat="31.362412"><ele>476</ele><time>2017-11-10T08:57:37.000Z</time></trkpt><trkpt lon="34.862369" lat="31.362437"><ele>476</ele><time>2017-11-10T08:57:38.000Z</time></trkpt><trkpt lon="34.862375" lat="31.362458"><ele>476</ele><time>2017-11-10T08:57:39.000Z</time></trkpt><trkpt lon="34.862383" lat="31.362484"><ele>476</ele><time>2017-11-10T08:57:40.000Z</time></trkpt><trkpt lon="34.862393" lat="31.362512"><ele>475</ele><time>2017-11-10T08:57:41.000Z</time></trkpt><trkpt lon="34.862413" lat="31.362548"><ele>475</ele><time>2017-11-10T08:57:42.000Z</time></trkpt><trkpt lon="34.862437" lat="31.362598"><ele>475</ele><time>2017-11-10T08:57:43.000Z</time></trkpt><trkpt lon="34.862463" lat="31.362649"><ele>474</ele><time>2017-11-10T08:57:44.000Z</time></trkpt><trkpt lon="34.862488" lat="31.362706"><ele>474</ele><time>2017-11-10T08:57:45.000Z</time></trkpt><trkpt lon="34.862501" lat="31.362771"><ele>473</ele><time>2017-11-10T08:57:46.000Z</time></trkpt><trkpt lon="34.862491" lat="31.362836"><ele>473</ele><time>2017-11-10T08:57:47.000Z</time></trkpt><trkpt lon="34.862459" lat="31.362895"><ele>472</ele><time>2017-11-10T08:57:48.000Z</time></trkpt><trkpt lon="34.862415" lat="31.36294"><ele>472</ele><time>2017-11-10T08:57:49.000Z</time></trkpt><trkpt lon="34.862377" lat="31.362977"><ele>472</ele><time>2017-11-10T08:57:50.000Z</time></trkpt><trkpt lon="34.862345" lat="31.363021"><ele>472</ele><time>2017-11-10T08:57:51.000Z</time></trkpt><trkpt lon="34.862315" lat="31.363062"><ele>472</ele><time>2017-11-10T08:57:52.000Z</time></trkpt><trkpt lon="34.86229" lat="31.363102"><ele>472</ele><time>2017-11-10T08:57:53.000Z</time></trkpt><trkpt lon="34.862281" lat="31.363146"><ele>473</ele><time>2017-11-10T08:57:54.000Z</time></trkpt><trkpt lon="34.862302" lat="31.363186"><ele>473</ele><time>2017-11-10T08:57:55.000Z</time></trkpt><trkpt lon="34.862335" lat="31.363215"><ele>473</ele><time>2017-11-10T08:57:56.000Z</time></trkpt><trkpt lon="34.862378" lat="31.363234"><ele>473</ele><time>2017-11-10T08:57:57.000Z</time></trkpt><trkpt lon="34.862424" lat="31.36324"><ele>473</ele><time>2017-11-10T08:57:58.000Z</time></trkpt><trkpt lon="34.862468" lat="31.363244"><ele>473</ele><time>2017-11-10T08:57:59.000Z</time></trkpt><trkpt lon="34.862515" lat="31.363252"><ele>473</ele><time>2017-11-10T08:58:00.000Z</time></trkpt><trkpt lon="34.86256" lat="31.363257"><ele>473</ele><time>2017-11-10T08:58:01.000Z</time></trkpt><trkpt lon="34.862602" lat="31.363257"><ele>473</ele><time>2017-11-10T08:58:02.000Z</time></trkpt><trkpt lon="34.862655" lat="31.363247"><ele>473</ele><time>2017-11-10T08:58:03.000Z</time></trkpt><trkpt lon="34.862705" lat="31.363235"><ele>473</ele><time>2017-11-10T08:58:04.000Z</time></trkpt><trkpt lon="34.862762" lat="31.363237"><ele>473</ele><time>2017-11-10T08:58:05.000Z</time></trkpt><trkpt lon="34.862815" lat="31.363265"><ele>472</ele><time>2017-11-10T08:58:06.000Z</time></trkpt><trkpt lon="34.862864" lat="31.363296"><ele>472</ele><time>2017-11-10T08:58:07.000Z</time></trkpt><trkpt lon="34.862912" lat="31.363311"><ele>471</ele><time>2017-11-10T08:58:08.000Z</time></trkpt><trkpt lon="34.862969" lat="31.363308"><ele>470</ele><time>2017-11-10T08:58:09.000Z</time></trkpt><trkpt lon="34.863037" lat="31.363296"><ele>470</ele><time>2017-11-10T08:58:10.000Z</time></trkpt><trkpt lon="34.863107" lat="31.36328"><ele>469</ele><time>2017-11-10T08:58:11.000Z</time></trkpt><trkpt lon="34.863178" lat="31.363245"><ele>468</ele><time>2017-11-10T08:58:12.000Z</time></trkpt><trkpt lon="34.863247" lat="31.363207"><ele>467</ele><time>2017-11-10T08:58:13.000Z</time></trkpt><trkpt lon="34.863325" lat="31.363174"><ele>467</ele><time>2017-11-10T08:58:14.000Z</time></trkpt><trkpt lon="34.863413" lat="31.363148"><ele>467</ele><time>2017-11-10T08:58:15.000Z</time></trkpt><trkpt lon="34.863503" lat="31.363123"><ele>466</ele><time>2017-11-10T08:58:16.000Z</time></trkpt><trkpt lon="34.863596" lat="31.363097"><ele>466</ele><time>2017-11-10T08:58:17.000Z</time></trkpt><trkpt lon="34.863689" lat="31.363072"><ele>465</ele><time>2017-11-10T08:58:18.000Z</time></trkpt><trkpt lon="34.863786" lat="31.363048"><ele>464</ele><time>2017-11-10T08:58:19.000Z</time></trkpt><trkpt lon="34.86388" lat="31.363026"><ele>464</ele><time>2017-11-10T08:58:20.000Z</time></trkpt><trkpt lon="34.863969" lat="31.363005"><ele>463</ele><time>2017-11-10T08:58:21.000Z</time></trkpt><trkpt lon="34.864053" lat="31.362984"><ele>463</ele><time>2017-11-10T08:58:22.000Z</time></trkpt><trkpt lon="34.864126" lat="31.362971"><ele>463</ele><time>2017-11-10T08:58:23.000Z</time></trkpt><trkpt lon="34.864178" lat="31.362974"><ele>463</ele><time>2017-11-10T08:58:24.000Z</time></trkpt><trkpt lon="34.864195" lat="31.362995"><ele>463</ele><time>2017-11-10T08:58:25.000Z</time></trkpt><trkpt lon="34.864194" lat="31.363017"><ele>463</ele><time>2017-11-10T08:58:26.000Z</time></trkpt><trkpt lon="34.864195" lat="31.363037"><ele>463</ele><time>2017-11-10T08:58:27.000Z</time></trkpt><trkpt lon="34.864204" lat="31.36306"><ele>463</ele><time>2017-11-10T08:58:28.000Z</time></trkpt><trkpt lon="34.864217" lat="31.363081"><ele>464</ele><time>2017-11-10T08:58:29.000Z</time></trkpt><trkpt lon="34.86423" lat="31.363102"><ele>464</ele><time>2017-11-10T08:58:30.000Z</time></trkpt><trkpt lon="34.864242" lat="31.363119"><ele>464</ele><time>2017-11-10T08:58:31.000Z</time></trkpt><trkpt lon="34.864253" lat="31.36314"><ele>465</ele><time>2017-11-10T08:58:32.000Z</time></trkpt><trkpt lon="34.864259" lat="31.363162"><ele>465</ele><time>2017-11-10T08:58:33.000Z</time></trkpt><trkpt lon="34.86427" lat="31.363189"><ele>465</ele><time>2017-11-10T08:58:34.000Z</time></trkpt><trkpt lon="34.864286" lat="31.363213"><ele>465</ele><time>2017-11-10T08:58:35.000Z</time></trkpt><trkpt lon="34.864305" lat="31.363234"><ele>465</ele><time>2017-11-10T08:58:36.000Z</time></trkpt><trkpt lon="34.864324" lat="31.363255"><ele>465</ele><time>2017-11-10T08:58:37.000Z</time></trkpt><trkpt lon="34.86434" lat="31.363277"><ele>465</ele><time>2017-11-10T08:58:38.000Z</time></trkpt><trkpt lon="34.864354" lat="31.363296"><ele>465</ele><time>2017-11-10T08:58:39.000Z</time></trkpt><trkpt lon="34.864368" lat="31.363312"><ele>465</ele><time>2017-11-10T08:58:40.000Z</time></trkpt><trkpt lon="34.864368" lat="31.363312"><ele>466</ele><time>2017-11-10T08:58:41.000Z</time></trkpt><trkpt lon="34.864398" lat="31.363337"><ele>466</ele><time>2017-11-10T08:58:42.000Z</time></trkpt><trkpt lon="34.864398" lat="31.363337"><ele>466</ele><time>2017-11-10T08:58:43.000Z</time></trkpt><trkpt lon="34.864419" lat="31.363366"><ele>466</ele><time>2017-11-10T08:58:44.000Z</time></trkpt><trkpt lon="34.864426" lat="31.363385"><ele>466</ele><time>2017-11-10T08:58:45.000Z</time></trkpt><trkpt lon="34.864439" lat="31.363406"><ele>466</ele><time>2017-11-10T08:58:46.000Z</time></trkpt><trkpt lon="34.864453" lat="31.36343"><ele>466</ele><time>2017-11-10T08:58:47.000Z</time></trkpt><trkpt lon="34.864466" lat="31.363456"><ele>466</ele><time>2017-11-10T08:58:48.000Z</time></trkpt><trkpt lon="34.864477" lat="31.363482"><ele>467</ele><time>2017-11-10T08:58:49.000Z</time></trkpt><trkpt lon="34.864486" lat="31.363506"><ele>467</ele><time>2017-11-10T08:58:50.000Z</time></trkpt><trkpt lon="34.864491" lat="31.363529"><ele>467</ele><time>2017-11-10T08:58:51.000Z</time></trkpt><trkpt lon="34.864494" lat="31.363552"><ele>467</ele><time>2017-11-10T08:58:52.000Z</time></trkpt><trkpt lon="34.864497" lat="31.363576"><ele>467</ele><time>2017-11-10T08:58:53.000Z</time></trkpt><trkpt lon="34.864501" lat="31.363601"><ele>467</ele><time>2017-11-10T08:58:54.000Z</time></trkpt><trkpt lon="34.86451" lat="31.363626"><ele>467</ele><time>2017-11-10T08:58:55.000Z</time></trkpt><trkpt lon="34.864523" lat="31.363648"><ele>467</ele><time>2017-11-10T08:58:56.000Z</time></trkpt><trkpt lon="34.864533" lat="31.363671"><ele>467</ele><time>2017-11-10T08:58:57.000Z</time></trkpt><trkpt lon="34.864539" lat="31.363696"><ele>467</ele><time>2017-11-10T08:58:58.000Z</time></trkpt><trkpt lon="34.864543" lat="31.363721"><ele>467</ele><time>2017-11-10T08:58:59.000Z</time></trkpt><trkpt lon="34.864543" lat="31.363746"><ele>467</ele><time>2017-11-10T08:59:00.000Z</time></trkpt><trkpt lon="34.864542" lat="31.363773"><ele>467</ele><time>2017-11-10T08:59:01.000Z</time></trkpt><trkpt lon="34.864538" lat="31.363801"><ele>467</ele><time>2017-11-10T08:59:02.000Z</time></trkpt><trkpt lon="34.864531" lat="31.363831"><ele>467</ele><time>2017-11-10T08:59:03.000Z</time></trkpt><trkpt lon="34.864526" lat="31.363863"><ele>467</ele><time>2017-11-10T08:59:04.000Z</time></trkpt><trkpt lon="34.864527" lat="31.363895"><ele>467</ele><time>2017-11-10T08:59:05.000Z</time></trkpt><trkpt lon="34.864536" lat="31.363926"><ele>467</ele><time>2017-11-10T08:59:06.000Z</time></trkpt><trkpt lon="34.864555" lat="31.363953"><ele>467</ele><time>2017-11-10T08:59:07.000Z</time></trkpt><trkpt lon="34.864585" lat="31.363972"><ele>467</ele><time>2017-11-10T08:59:08.000Z</time></trkpt><trkpt lon="34.864622" lat="31.363983"><ele>467</ele><time>2017-11-10T08:59:09.000Z</time></trkpt><trkpt lon="34.864659" lat="31.363982"><ele>468</ele><time>2017-11-10T08:59:10.000Z</time></trkpt><trkpt lon="34.864696" lat="31.363973"><ele>468</ele><time>2017-11-10T08:59:11.000Z</time></trkpt><trkpt lon="34.864728" lat="31.363963"><ele>468.4</ele><time>2017-11-10T08:59:12.000Z</time></trkpt><trkpt lon="34.864756" lat="31.363951"><ele>469</ele><time>2017-11-10T08:59:13.000Z</time></trkpt><trkpt lon="34.864784" lat="31.363937"><ele>469</ele><time>2017-11-10T08:59:14.000Z</time></trkpt><trkpt lon="34.864812" lat="31.363917"><ele>469</ele><time>2017-11-10T08:59:15.000Z</time></trkpt><trkpt lon="34.864841" lat="31.363895"><ele>469</ele><time>2017-11-10T08:59:16.000Z</time></trkpt><trkpt lon="34.864874" lat="31.363873"><ele>469</ele><time>2017-11-10T08:59:17.000Z</time></trkpt><trkpt lon="34.864907" lat="31.363846"><ele>469</ele><time>2017-11-10T08:59:18.000Z</time></trkpt><trkpt lon="34.864942" lat="31.363819"><ele>468</ele><time>2017-11-10T08:59:19.000Z</time></trkpt><trkpt lon="34.86498" lat="31.36379"><ele>468</ele><time>2017-11-10T08:59:20.000Z</time></trkpt><trkpt lon="34.865014" lat="31.363757"><ele>468</ele><time>2017-11-10T08:59:21.000Z</time></trkpt><trkpt lon="34.865038" lat="31.363719"><ele>468</ele><time>2017-11-10T08:59:22.000Z</time></trkpt><trkpt lon="34.865059" lat="31.36368"><ele>468</ele><time>2017-11-10T08:59:23.000Z</time></trkpt><trkpt lon="34.865075" lat="31.363641"><ele>468</ele><time>2017-11-10T08:59:24.000Z</time></trkpt><trkpt lon="34.865096" lat="31.363603"><ele>468</ele><time>2017-11-10T08:59:25.000Z</time></trkpt><trkpt lon="34.865123" lat="31.363567"><ele>468</ele><time>2017-11-10T08:59:26.000Z</time></trkpt><trkpt lon="34.865148" lat="31.363529"><ele>469</ele><time>2017-11-10T08:59:27.000Z</time></trkpt><trkpt lon="34.86517" lat="31.36349"><ele>469</ele><time>2017-11-10T08:59:28.000Z</time></trkpt><trkpt lon="34.865186" lat="31.363448"><ele>470</ele><time>2017-11-10T08:59:29.000Z</time></trkpt><trkpt lon="34.865194" lat="31.363405"><ele>470</ele><time>2017-11-10T08:59:30.000Z</time></trkpt><trkpt lon="34.865202" lat="31.363368"><ele>470</ele><time>2017-11-10T08:59:31.000Z</time></trkpt><trkpt lon="34.865218" lat="31.363335"><ele>470</ele><time>2017-11-10T08:59:32.000Z</time></trkpt><trkpt lon="34.865235" lat="31.363309"><ele>471</ele><time>2017-11-10T08:59:33.000Z</time></trkpt><trkpt lon="34.865257" lat="31.36328"><ele>471</ele><time>2017-11-10T08:59:34.000Z</time></trkpt><trkpt lon="34.865276" lat="31.363252"><ele>471</ele><time>2017-11-10T08:59:35.000Z</time></trkpt><trkpt lon="34.865289" lat="31.363222"><ele>471</ele><time>2017-11-10T08:59:36.000Z</time></trkpt><trkpt lon="34.865294" lat="31.363187"><ele>471</ele><time>2017-11-10T08:59:37.000Z</time></trkpt><trkpt lon="34.865296" lat="31.363155"><ele>471</ele><time>2017-11-10T08:59:38.000Z</time></trkpt><trkpt lon="34.865298" lat="31.363123"><ele>471</ele><time>2017-11-10T08:59:39.000Z</time></trkpt><trkpt lon="34.865297" lat="31.363088"><ele>471</ele><time>2017-11-10T08:59:40.000Z</time></trkpt><trkpt lon="34.86529" lat="31.363053"><ele>471</ele><time>2017-11-10T08:59:41.000Z</time></trkpt><trkpt lon="34.865277" lat="31.363022"><ele>471</ele><time>2017-11-10T08:59:42.000Z</time></trkpt><trkpt lon="34.865264" lat="31.362995"><ele>471</ele><time>2017-11-10T08:59:43.000Z</time></trkpt><trkpt lon="34.865253" lat="31.36297"><ele>471</ele><time>2017-11-10T08:59:44.000Z</time></trkpt><trkpt lon="34.865247" lat="31.362947"><ele>471</ele><time>2017-11-10T08:59:45.000Z</time></trkpt><trkpt lon="34.865246" lat="31.362925"><ele>471</ele><time>2017-11-10T08:59:46.000Z</time></trkpt><trkpt lon="34.865244" lat="31.362901"><ele>471</ele><time>2017-11-10T08:59:47.000Z</time></trkpt><trkpt lon="34.865241" lat="31.362877"><ele>471</ele><time>2017-11-10T08:59:48.000Z</time></trkpt><trkpt lon="34.865238" lat="31.362852"><ele>471</ele><time>2017-11-10T08:59:49.000Z</time></trkpt><trkpt lon="34.865233" lat="31.362829"><ele>471</ele><time>2017-11-10T08:59:50.000Z</time></trkpt><trkpt lon="34.865226" lat="31.362806"><ele>471</ele><time>2017-11-10T08:59:51.000Z</time></trkpt><trkpt lon="34.865216" lat="31.362782"><ele>471</ele><time>2017-11-10T08:59:52.000Z</time></trkpt><trkpt lon="34.865208" lat="31.362761"><ele>472</ele><time>2017-11-10T08:59:53.000Z</time></trkpt><trkpt lon="34.865198" lat="31.36274"><ele>472</ele><time>2017-11-10T08:59:54.000Z</time></trkpt><trkpt lon="34.865189" lat="31.362719"><ele>472</ele><time>2017-11-10T08:59:55.000Z</time></trkpt><trkpt lon="34.86518" lat="31.362697"><ele>472</ele><time>2017-11-10T08:59:56.000Z</time></trkpt><trkpt lon="34.865172" lat="31.362673"><ele>472</ele><time>2017-11-10T08:59:57.000Z</time></trkpt><trkpt lon="34.865164" lat="31.362648"><ele>473</ele><time>2017-11-10T08:59:58.000Z</time></trkpt><trkpt lon="34.865157" lat="31.362618"><ele>473</ele><time>2017-11-10T08:59:59.000Z</time></trkpt><trkpt lon="34.86515" lat="31.362591"><ele>473</ele><time>2017-11-10T09:00:00.000Z</time></trkpt><trkpt lon="34.865137" lat="31.362566"><ele>473</ele><time>2017-11-10T09:00:01.000Z</time></trkpt><trkpt lon="34.865124" lat="31.36254"><ele>473</ele><time>2017-11-10T09:00:02.000Z</time></trkpt><trkpt lon="34.865107" lat="31.362517"><ele>473</ele><time>2017-11-10T09:00:03.000Z</time></trkpt><trkpt lon="34.865096" lat="31.362491"><ele>473</ele><time>2017-11-10T09:00:04.000Z</time></trkpt><trkpt lon="34.865096" lat="31.362466"><ele>473</ele><time>2017-11-10T09:00:05.000Z</time></trkpt><trkpt lon="34.865106" lat="31.362446"><ele>473</ele><time>2017-11-10T09:00:06.000Z</time></trkpt><trkpt lon="34.865119" lat="31.362421"><ele>473</ele><time>2017-11-10T09:00:07.000Z</time></trkpt><trkpt lon="34.865129" lat="31.362387"><ele>472</ele><time>2017-11-10T09:00:08.000Z</time></trkpt><trkpt lon="34.865138" lat="31.362346"><ele>472</ele><time>2017-11-10T09:00:09.000Z</time></trkpt><trkpt lon="34.865145" lat="31.362296"><ele>472</ele><time>2017-11-10T09:00:10.000Z</time></trkpt><trkpt lon="34.865133" lat="31.362247"><ele>472</ele><time>2017-11-10T09:00:11.000Z</time></trkpt><trkpt lon="34.865115" lat="31.362199"><ele>471</ele><time>2017-11-10T09:00:12.000Z</time></trkpt><trkpt lon="34.865122" lat="31.362147"><ele>471</ele><time>2017-11-10T09:00:13.000Z</time></trkpt><trkpt lon="34.865141" lat="31.362097"><ele>471</ele><time>2017-11-10T09:00:14.000Z</time></trkpt><trkpt lon="34.865154" lat="31.362043"><ele>470</ele><time>2017-11-10T09:00:15.000Z</time></trkpt><trkpt lon="34.865159" lat="31.361983"><ele>470</ele><time>2017-11-10T09:00:16.000Z</time></trkpt><trkpt lon="34.865148" lat="31.361926"><ele>470</ele><time>2017-11-10T09:00:17.000Z</time></trkpt><trkpt lon="34.865129" lat="31.361876"><ele>470</ele><time>2017-11-10T09:00:18.000Z</time></trkpt><trkpt lon="34.86512" lat="31.361829"><ele>470</ele><time>2017-11-10T09:00:19.000Z</time></trkpt><trkpt lon="34.865114" lat="31.361777"><ele>470</ele><time>2017-11-10T09:00:20.000Z</time></trkpt><trkpt lon="34.865114" lat="31.361723"><ele>469</ele><time>2017-11-10T09:00:21.000Z</time></trkpt><trkpt lon="34.865118" lat="31.361669"><ele>469</ele><time>2017-11-10T09:00:22.000Z</time></trkpt><trkpt lon="34.865114" lat="31.361617"><ele>469</ele><time>2017-11-10T09:00:23.000Z</time></trkpt><trkpt lon="34.865119" lat="31.361569"><ele>469</ele><time>2017-11-10T09:00:24.000Z</time></trkpt><trkpt lon="34.865139" lat="31.361526"><ele>469</ele><time>2017-11-10T09:00:25.000Z</time></trkpt><trkpt lon="34.865166" lat="31.361482"><ele>469</ele><time>2017-11-10T09:00:26.000Z</time></trkpt><trkpt lon="34.865177" lat="31.361431"><ele>468</ele><time>2017-11-10T09:00:27.000Z</time></trkpt><trkpt lon="34.865178" lat="31.361375"><ele>468</ele><time>2017-11-10T09:00:28.000Z</time></trkpt><trkpt lon="34.865174" lat="31.361317"><ele>467</ele><time>2017-11-10T09:00:29.000Z</time></trkpt><trkpt lon="34.86516" lat="31.361258"><ele>467</ele><time>2017-11-10T09:00:30.000Z</time></trkpt><trkpt lon="34.865145" lat="31.361202"><ele>467</ele><time>2017-11-10T09:00:31.000Z</time></trkpt><trkpt lon="34.865145" lat="31.361145"><ele>466</ele><time>2017-11-10T09:00:32.000Z</time></trkpt><trkpt lon="34.865152" lat="31.361088"><ele>466</ele><time>2017-11-10T09:00:33.000Z</time></trkpt><trkpt lon="34.865154" lat="31.361022"><ele>465</ele><time>2017-11-10T09:00:34.000Z</time></trkpt><trkpt lon="34.865137" lat="31.360953"><ele>464</ele><time>2017-11-10T09:00:35.000Z</time></trkpt><trkpt lon="34.865117" lat="31.360886"><ele>464</ele><time>2017-11-10T09:00:36.000Z</time></trkpt><trkpt lon="34.865107" lat="31.360828"><ele>464</ele><time>2017-11-10T09:00:37.000Z</time></trkpt><trkpt lon="34.865111" lat="31.360777"><ele>464</ele><time>2017-11-10T09:00:38.000Z</time></trkpt><trkpt lon="34.865124" lat="31.360725"><ele>464</ele><time>2017-11-10T09:00:39.000Z</time></trkpt><trkpt lon="34.865132" lat="31.360666"><ele>464</ele><time>2017-11-10T09:00:40.000Z</time></trkpt><trkpt lon="34.865139" lat="31.360607"><ele>463</ele><time>2017-11-10T09:00:41.000Z</time></trkpt><trkpt lon="34.865149" lat="31.360543"><ele>462</ele><time>2017-11-10T09:00:42.000Z</time></trkpt><trkpt lon="34.865147" lat="31.360477"><ele>462</ele><time>2017-11-10T09:00:43.000Z</time></trkpt><trkpt lon="34.865132" lat="31.360418"><ele>461</ele><time>2017-11-10T09:00:44.000Z</time></trkpt><trkpt lon="34.865133" lat="31.360365"><ele>461</ele><time>2017-11-10T09:00:45.000Z</time></trkpt><trkpt lon="34.865157" lat="31.360314"><ele>461</ele><time>2017-11-10T09:00:46.000Z</time></trkpt><trkpt lon="34.865169" lat="31.360245"><ele>459</ele><time>2017-11-10T09:00:47.000Z</time></trkpt><trkpt lon="34.865144" lat="31.360177"><ele>458</ele><time>2017-11-10T09:00:48.000Z</time></trkpt><trkpt lon="34.865097" lat="31.360117"><ele>458</ele><time>2017-11-10T09:00:49.000Z</time></trkpt><trkpt lon="34.865039" lat="31.360068"><ele>457.6</ele><time>2017-11-10T09:00:50.000Z</time></trkpt><trkpt lon="34.864982" lat="31.360024"><ele>457</ele><time>2017-11-10T09:00:51.000Z</time></trkpt><trkpt lon="34.864932" lat="31.359969"><ele>457</ele><time>2017-11-10T09:00:52.000Z</time></trkpt><trkpt lon="34.864883" lat="31.359912"><ele>457</ele><time>2017-11-10T09:00:53.000Z</time></trkpt><trkpt lon="34.864831" lat="31.359865"><ele>456</ele><time>2017-11-10T09:00:54.000Z</time></trkpt><trkpt lon="34.864793" lat="31.359823"><ele>456</ele><time>2017-11-10T09:00:55.000Z</time></trkpt><trkpt lon="34.864766" lat="31.359777"><ele>456</ele><time>2017-11-10T09:00:56.000Z</time></trkpt><trkpt lon="34.864732" lat="31.35973"><ele>456</ele><time>2017-11-10T09:00:57.000Z</time></trkpt><trkpt lon="34.864699" lat="31.359686"><ele>456</ele><time>2017-11-10T09:00:58.000Z</time></trkpt><trkpt lon="34.864677" lat="31.359642"><ele>456</ele><time>2017-11-10T09:00:59.000Z</time></trkpt><trkpt lon="34.864665" lat="31.3596"><ele>456</ele><time>2017-11-10T09:01:00.000Z</time></trkpt><trkpt lon="34.864655" lat="31.359556"><ele>457</ele><time>2017-11-10T09:01:01.000Z</time></trkpt><trkpt lon="34.864637" lat="31.359516"><ele>457</ele><time>2017-11-10T09:01:02.000Z</time></trkpt><trkpt lon="34.864611" lat="31.359486"><ele>457</ele><time>2017-11-10T09:01:03.000Z</time></trkpt><trkpt lon="34.86458" lat="31.359474"><ele>458</ele><time>2017-11-10T09:01:04.000Z</time></trkpt><trkpt lon="34.864552" lat="31.359464"><ele>458</ele><time>2017-11-10T09:01:05.000Z</time></trkpt><trkpt lon="34.864528" lat="31.359462"><ele>458</ele><time>2017-11-10T09:01:06.000Z</time></trkpt><trkpt lon="34.864505" lat="31.359468"><ele>458</ele><time>2017-11-10T09:01:07.000Z</time></trkpt><trkpt lon="34.864484" lat="31.359474"><ele>458</ele><time>2017-11-10T09:01:08.000Z</time></trkpt><trkpt lon="34.864462" lat="31.359476"><ele>458</ele><time>2017-11-10T09:01:09.000Z</time></trkpt><trkpt lon="34.864439" lat="31.359476"><ele>458</ele><time>2017-11-10T09:01:10.000Z</time></trkpt><trkpt lon="34.864417" lat="31.35947"><ele>459</ele><time>2017-11-10T09:01:11.000Z</time></trkpt><trkpt lon="34.864396" lat="31.359458"><ele>459</ele><time>2017-11-10T09:01:12.000Z</time></trkpt><trkpt lon="34.864381" lat="31.359444"><ele>459</ele><time>2017-11-10T09:01:13.000Z</time></trkpt><trkpt lon="34.864374" lat="31.359426"><ele>459</ele><time>2017-11-10T09:01:14.000Z</time></trkpt><trkpt lon="34.864375" lat="31.359406"><ele>459</ele><time>2017-11-10T09:01:15.000Z</time></trkpt><trkpt lon="34.864385" lat="31.359388"><ele>459</ele><time>2017-11-10T09:01:16.000Z</time></trkpt><trkpt lon="34.864403" lat="31.359368"><ele>459</ele><time>2017-11-10T09:01:17.000Z</time></trkpt><trkpt lon="34.864426" lat="31.359356"><ele>459</ele><time>2017-11-10T09:01:18.000Z</time></trkpt><trkpt lon="34.864448" lat="31.359348"><ele>459</ele><time>2017-11-10T09:01:19.000Z</time></trkpt><trkpt lon="34.86447" lat="31.359341"><ele>459</ele><time>2017-11-10T09:01:20.000Z</time></trkpt><trkpt lon="34.86449" lat="31.359336"><ele>459</ele><time>2017-11-10T09:01:21.000Z</time></trkpt><trkpt lon="34.86449" lat="31.359336"><ele>459</ele><time>2017-11-10T09:01:22.000Z</time></trkpt><trkpt lon="34.864516" lat="31.359318"><ele>459</ele><time>2017-11-10T09:01:23.000Z</time></trkpt><trkpt lon="34.864516" lat="31.359318"><ele>459</ele><time>2017-11-10T09:01:24.000Z</time></trkpt><trkpt lon="34.864516" lat="31.359318"><ele>459</ele><time>2017-11-10T09:01:25.000Z</time></trkpt><trkpt lon="34.864516" lat="31.359318"><ele>459</ele><time>2017-11-10T09:01:26.000Z</time></trkpt><trkpt lon="34.864516" lat="31.359318"><ele>459</ele><time>2017-11-10T09:01:27.000Z</time></trkpt><trkpt lon="34.864516" lat="31.359318"><ele>459</ele><time>2017-11-10T09:01:28.000Z</time></trkpt><trkpt lon="34.864516" lat="31.359318"><ele>459</ele><time>2017-11-10T09:01:29.000Z</time></trkpt><trkpt lon="34.864516" lat="31.359318"><ele>459</ele><time>2017-11-10T09:01:30.000Z</time></trkpt><trkpt lon="34.864516" lat="31.359318"><ele>459</ele><time>2017-11-10T09:01:31.000Z</time></trkpt><trkpt lon="34.864516" lat="31.359318"><ele>459</ele><time>2017-11-10T09:01:32.000Z</time></trkpt><trkpt lon="34.864516" lat="31.359318"><ele>459</ele><time>2017-11-10T09:01:33.000Z</time></trkpt><trkpt lon="34.864516" lat="31.359318"><ele>459</ele><time>2017-11-10T09:01:34.000Z</time></trkpt><trkpt lon="34.864516" lat="31.359318"><ele>459</ele><time>2017-11-10T09:01:35.000Z</time></trkpt><trkpt lon="34.864516" lat="31.359318"><ele>459</ele><time>2017-11-10T09:01:36.000Z</time></trkpt><trkpt lon="34.864516" lat="31.359318"><ele>459</ele><time>2017-11-10T09:01:37.000Z</time></trkpt><trkpt lon="34.864516" lat="31.359318"><ele>459</ele><time>2017-11-10T09:01:38.000Z</time></trkpt><trkpt lon="34.864516" lat="31.359318"><ele>459</ele><time>2017-11-10T09:01:39.000Z</time></trkpt><trkpt lon="34.864516" lat="31.359318"><ele>459</ele><time>2017-11-10T09:01:40.000Z</time></trkpt><trkpt lon="34.864516" lat="31.359318"><ele>459</ele><time>2017-11-10T09:01:41.000Z</time></trkpt><trkpt lon="34.864516" lat="31.359318"><ele>459</ele><time>2017-11-10T09:01:42.000Z</time></trkpt><trkpt lon="34.864516" lat="31.359318"><ele>459</ele><time>2017-11-10T09:01:43.000Z</time></trkpt><trkpt lon="34.864516" lat="31.359318"><ele>459</ele><time>2017-11-10T09:01:44.000Z</time></trkpt><trkpt lon="34.864516" lat="31.359318"><ele>459</ele><time>2017-11-10T09:01:45.000Z</time></trkpt><trkpt lon="34.864516" lat="31.359318"><ele>459</ele><time>2017-11-10T09:01:46.000Z</time></trkpt><trkpt lon="34.864516" lat="31.359318"><ele>459</ele><time>2017-11-10T09:01:47.000Z</time></trkpt><trkpt lon="34.864516" lat="31.359318"><ele>459</ele><time>2017-11-10T09:01:48.000Z</time></trkpt><trkpt lon="34.864516" lat="31.359318"><ele>459</ele><time>2017-11-10T09:01:49.000Z</time></trkpt><trkpt lon="34.864516" lat="31.359318"><ele>459</ele><time>2017-11-10T09:01:50.000Z</time></trkpt><trkpt lon="34.864516" lat="31.359318"><ele>459</ele><time>2017-11-10T09:01:51.000Z</time></trkpt><trkpt lon="34.864516" lat="31.359318"><ele>459</ele><time>2017-11-10T09:01:52.000Z</time></trkpt><trkpt lon="34.864516" lat="31.359318"><ele>459</ele><time>2017-11-10T09:01:53.000Z</time></trkpt><trkpt lon="34.864516" lat="31.359318"><ele>459</ele><time>2017-11-10T09:01:54.000Z</time></trkpt><trkpt lon="34.864516" lat="31.359318"><ele>459</ele><time>2017-11-10T09:01:55.000Z</time></trkpt><trkpt lon="34.864516" lat="31.359318"><ele>459</ele><time>2017-11-10T09:01:56.000Z</time></trkpt><trkpt lon="34.864516" lat="31.359318"><ele>459</ele><time>2017-11-10T09:01:57.000Z</time></trkpt><trkpt lon="34.864516" lat="31.359318"><ele>459</ele><time>2017-11-10T09:01:58.000Z</time></trkpt><trkpt lon="34.864516" lat="31.359318"><ele>459</ele><time>2017-11-10T09:01:59.000Z</time></trkpt><trkpt lon="34.864516" lat="31.359318"><ele>459</ele><time>2017-11-10T09:02:00.000Z</time></trkpt><trkpt lon="34.864516" lat="31.359318"><ele>459</ele><time>2017-11-10T09:02:01.000Z</time></trkpt><trkpt lon="34.864516" lat="31.359318"><ele>459</ele><time>2017-11-10T09:02:02.000Z</time></trkpt><trkpt lon="34.864516" lat="31.359318"><ele>459</ele><time>2017-11-10T09:02:03.000Z</time></trkpt><trkpt lon="34.864516" lat="31.359318"><ele>459</ele><time>2017-11-10T09:02:04.000Z</time></trkpt><trkpt lon="34.864509" lat="31.359301"><ele>459</ele><time>2017-11-10T09:02:05.000Z</time></trkpt><trkpt lon="34.864509" lat="31.359301"><ele>459</ele><time>2017-11-10T09:02:06.000Z</time></trkpt><trkpt lon="34.864509" lat="31.359301"><ele>459</ele><time>2017-11-10T09:02:07.000Z</time></trkpt><trkpt lon="34.864509" lat="31.359301"><ele>459</ele><time>2017-11-10T09:02:08.000Z</time></trkpt><trkpt lon="34.864509" lat="31.359301"><ele>459</ele><time>2017-11-10T09:02:09.000Z</time></trkpt><trkpt lon="34.864509" lat="31.359301"><ele>459</ele><time>2017-11-10T09:02:10.000Z</time></trkpt><trkpt lon="34.864509" lat="31.359301"><ele>459</ele><time>2017-11-10T09:02:11.000Z</time></trkpt><trkpt lon="34.864509" lat="31.359301"><ele>459</ele><time>2017-11-10T09:02:12.000Z</time></trkpt><trkpt lon="34.864509" lat="31.359301"><ele>459</ele><time>2017-11-10T09:02:13.000Z</time></trkpt><trkpt lon="34.864509" lat="31.359301"><ele>459</ele><time>2017-11-10T09:02:14.000Z</time></trkpt><trkpt lon="34.864509" lat="31.359301"><ele>459</ele><time>2017-11-10T09:02:15.000Z</time></trkpt><trkpt lon="34.864509" lat="31.359301"><ele>459</ele><time>2017-11-10T09:02:16.000Z</time></trkpt><trkpt lon="34.864509" lat="31.359301"><ele>459</ele><time>2017-11-10T09:02:17.000Z</time></trkpt><trkpt lon="34.864509" lat="31.359301"><ele>459</ele><time>2017-11-10T09:02:18.000Z</time></trkpt><trkpt lon="34.864509" lat="31.359301"><ele>459</ele><time>2017-11-10T09:02:19.000Z</time></trkpt><trkpt lon="34.864509" lat="31.359301"><ele>459</ele><time>2017-11-10T09:02:20.000Z</time></trkpt><trkpt lon="34.864509" lat="31.359301"><ele>459</ele><time>2017-11-10T09:02:21.000Z</time></trkpt><trkpt lon="34.864509" lat="31.359301"><ele>459</ele><time>2017-11-10T09:02:22.000Z</time></trkpt><trkpt lon="34.864509" lat="31.359301"><ele>459</ele><time>2017-11-10T09:02:23.000Z</time></trkpt><trkpt lon="34.864512" lat="31.359281"><ele>459</ele><time>2017-11-10T09:02:24.000Z</time></trkpt><trkpt lon="34.864512" lat="31.359281"><ele>459</ele><time>2017-11-10T09:02:25.000Z</time></trkpt><trkpt lon="34.864512" lat="31.359281"><ele>459</ele><time>2017-11-10T09:02:26.000Z</time></trkpt><trkpt lon="34.864512" lat="31.359281"><ele>459</ele><time>2017-11-10T09:02:27.000Z</time></trkpt><trkpt lon="34.864512" lat="31.359281"><ele>459</ele><time>2017-11-10T09:02:28.000Z</time></trkpt><trkpt lon="34.864512" lat="31.359281"><ele>459</ele><time>2017-11-10T09:02:29.000Z</time></trkpt><trkpt lon="34.864512" lat="31.359281"><ele>459</ele><time>2017-11-10T09:02:30.000Z</time></trkpt><trkpt lon="34.864512" lat="31.359281"><ele>459</ele><time>2017-11-10T09:02:31.000Z</time></trkpt><trkpt lon="34.864512" lat="31.359281"><ele>459</ele><time>2017-11-10T09:02:32.000Z</time></trkpt><trkpt lon="34.864512" lat="31.359281"><ele>459</ele><time>2017-11-10T09:02:33.000Z</time></trkpt><trkpt lon="34.864512" lat="31.359281"><ele>459</ele><time>2017-11-10T09:02:34.000Z</time></trkpt><trkpt lon="34.864512" lat="31.359281"><ele>459</ele><time>2017-11-10T09:02:35.000Z</time></trkpt><trkpt lon="34.864512" lat="31.359281"><ele>459</ele><time>2017-11-10T09:02:36.000Z</time></trkpt><trkpt lon="34.864512" lat="31.359281"><ele>459</ele><time>2017-11-10T09:02:37.000Z</time></trkpt><trkpt lon="34.864512" lat="31.359281"><ele>459</ele><time>2017-11-10T09:02:38.000Z</time></trkpt><trkpt lon="34.864512" lat="31.359281"><ele>459</ele><time>2017-11-10T09:02:39.000Z</time></trkpt><trkpt lon="34.864512" lat="31.359281"><ele>459</ele><time>2017-11-10T09:02:40.000Z</time></trkpt><trkpt lon="34.864512" lat="31.359281"><ele>459</ele><time>2017-11-10T09:02:41.000Z</time></trkpt><trkpt lon="34.864512" lat="31.359281"><ele>459</ele><time>2017-11-10T09:02:42.000Z</time></trkpt><trkpt lon="34.864512" lat="31.359281"><ele>459</ele><time>2017-11-10T09:02:43.000Z</time></trkpt><trkpt lon="34.864512" lat="31.359281"><ele>459</ele><time>2017-11-10T09:02:44.000Z</time></trkpt><trkpt lon="34.864512" lat="31.359281"><ele>459</ele><time>2017-11-10T09:02:45.000Z</time></trkpt><trkpt lon="34.864512" lat="31.359281"><ele>459</ele><time>2017-11-10T09:02:46.000Z</time></trkpt><trkpt lon="34.864512" lat="31.359281"><ele>459</ele><time>2017-11-10T09:02:47.000Z</time></trkpt><trkpt lon="34.864512" lat="31.359281"><ele>459</ele><time>2017-11-10T09:02:48.000Z</time></trkpt><trkpt lon="34.864512" lat="31.359281"><ele>459</ele><time>2017-11-10T09:02:49.000Z</time></trkpt><trkpt lon="34.864512" lat="31.359281"><ele>459</ele><time>2017-11-10T09:02:50.000Z</time></trkpt><trkpt lon="34.864512" lat="31.359281"><ele>459</ele><time>2017-11-10T09:02:51.000Z</time></trkpt><trkpt lon="34.864512" lat="31.359281"><ele>459</ele><time>2017-11-10T09:02:52.000Z</time></trkpt><trkpt lon="34.864512" lat="31.359281"><ele>459</ele><time>2017-11-10T09:02:53.000Z</time></trkpt><trkpt lon="34.864512" lat="31.359281"><ele>459</ele><time>2017-11-10T09:02:54.000Z</time></trkpt><trkpt lon="34.864512" lat="31.359281"><ele>459</ele><time>2017-11-10T09:02:55.000Z</time></trkpt><trkpt lon="34.864512" lat="31.359281"><ele>459</ele><time>2017-11-10T09:02:56.000Z</time></trkpt><trkpt lon="34.864512" lat="31.359281"><ele>459</ele><time>2017-11-10T09:02:57.000Z</time></trkpt><trkpt lon="34.864512" lat="31.359281"><ele>459</ele><time>2017-11-10T09:02:58.000Z</time></trkpt><trkpt lon="34.864512" lat="31.359281"><ele>459</ele><time>2017-11-10T09:02:59.000Z</time></trkpt><trkpt lon="34.864512" lat="31.359281"><ele>459</ele><time>2017-11-10T09:03:00.000Z</time></trkpt><trkpt lon="34.864512" lat="31.359281"><ele>459</ele><time>2017-11-10T09:03:01.000Z</time></trkpt><trkpt lon="34.864512" lat="31.359281"><ele>459</ele><time>2017-11-10T09:03:02.000Z</time></trkpt><trkpt lon="34.864512" lat="31.359281"><ele>459</ele><time>2017-11-10T09:03:03.000Z</time></trkpt><trkpt lon="34.864512" lat="31.359281"><ele>459</ele><time>2017-11-10T09:03:04.000Z</time></trkpt><trkpt lon="34.864512" lat="31.359281"><ele>459</ele><time>2017-11-10T09:03:05.000Z</time></trkpt><trkpt lon="34.864512" lat="31.359281"><ele>459</ele><time>2017-11-10T09:03:06.000Z</time></trkpt><trkpt lon="34.864512" lat="31.359281"><ele>459</ele><time>2017-11-10T09:03:07.000Z</time></trkpt><trkpt lon="34.864512" lat="31.359281"><ele>459</ele><time>2017-11-10T09:03:08.000Z</time></trkpt><trkpt lon="34.864512" lat="31.359281"><ele>460</ele><time>2017-11-10T09:03:09.000Z</time></trkpt><trkpt lon="34.864512" lat="31.359281"><ele>460</ele><time>2017-11-10T09:03:10.000Z</time></trkpt><trkpt lon="34.864512" lat="31.359281"><ele>460</ele><time>2017-11-10T09:03:11.000Z</time></trkpt><trkpt lon="34.864512" lat="31.359281"><ele>460</ele><time>2017-11-10T09:03:12.000Z</time></trkpt><trkpt lon="34.864512" lat="31.359281"><ele>460</ele><time>2017-11-10T09:03:13.000Z</time></trkpt><trkpt lon="34.864512" lat="31.359281"><ele>460</ele><time>2017-11-10T09:03:14.000Z</time></trkpt><trkpt lon="34.864512" lat="31.359281"><ele>460</ele><time>2017-11-10T09:03:15.000Z</time></trkpt><trkpt lon="34.864512" lat="31.359281"><ele>460</ele><time>2017-11-10T09:03:16.000Z</time></trkpt><trkpt lon="34.864512" lat="31.359281"><ele>460</ele><time>2017-11-10T09:03:17.000Z</time></trkpt><trkpt lon="34.864528" lat="31.359254"><ele>460</ele><time>2017-11-10T09:03:18.000Z</time></trkpt><trkpt lon="34.864547" lat="31.359235"><ele>459</ele><time>2017-11-10T09:03:19.000Z</time></trkpt><trkpt lon="34.864563" lat="31.359214"><ele>459</ele><time>2017-11-10T09:03:20.000Z</time></trkpt><trkpt lon="34.864576" lat="31.35919"><ele>459</ele><time>2017-11-10T09:03:21.000Z</time></trkpt><trkpt lon="34.86459" lat="31.359164"><ele>459</ele><time>2017-11-10T09:03:22.000Z</time></trkpt><trkpt lon="34.864604" lat="31.35914"><ele>459</ele><time>2017-11-10T09:03:23.000Z</time></trkpt><trkpt lon="34.864617" lat="31.359114"><ele>459</ele><time>2017-11-10T09:03:24.000Z</time></trkpt><trkpt lon="34.864619" lat="31.359082"><ele>459</ele><time>2017-11-10T09:03:25.000Z</time></trkpt><trkpt lon="34.864615" lat="31.359052"><ele>459</ele><time>2017-11-10T09:03:26.000Z</time></trkpt><trkpt lon="34.864615" lat="31.359028"><ele>459</ele><time>2017-11-10T09:03:27.000Z</time></trkpt><trkpt lon="34.864618" lat="31.359009"><ele>459</ele><time>2017-11-10T09:03:28.000Z</time></trkpt><trkpt lon="34.86462" lat="31.35899"><ele>459</ele><time>2017-11-10T09:03:29.000Z</time></trkpt><trkpt lon="34.864621" lat="31.358962"><ele>459</ele><time>2017-11-10T09:03:30.000Z</time></trkpt><trkpt lon="34.864616" lat="31.35893"><ele>459</ele><time>2017-11-10T09:03:31.000Z</time></trkpt><trkpt lon="34.864604" lat="31.358902"><ele>459</ele><time>2017-11-10T09:03:32.000Z</time></trkpt><trkpt lon="34.864588" lat="31.358879"><ele>458</ele><time>2017-11-10T09:03:33.000Z</time></trkpt><trkpt lon="34.864571" lat="31.358859"><ele>458</ele><time>2017-11-10T09:03:34.000Z</time></trkpt><trkpt lon="34.864554" lat="31.358842"><ele>459</ele><time>2017-11-10T09:03:35.000Z</time></trkpt><trkpt lon="34.864539" lat="31.358824"><ele>459</ele><time>2017-11-10T09:03:36.000Z</time></trkpt><trkpt lon="34.864523" lat="31.358808"><ele>459</ele><time>2017-11-10T09:03:37.000Z</time></trkpt><trkpt lon="34.864507" lat="31.358788"><ele>459</ele><time>2017-11-10T09:03:38.000Z</time></trkpt><trkpt lon="34.864497" lat="31.358766"><ele>459</ele><time>2017-11-10T09:03:39.000Z</time></trkpt><trkpt lon="34.864486" lat="31.358741"><ele>459</ele><time>2017-11-10T09:03:40.000Z</time></trkpt><trkpt lon="34.864467" lat="31.358706"><ele>459</ele><time>2017-11-10T09:03:41.000Z</time></trkpt><trkpt lon="34.864438" lat="31.358678"><ele>459</ele><time>2017-11-10T09:03:42.000Z</time></trkpt><trkpt lon="34.864415" lat="31.358652"><ele>459</ele><time>2017-11-10T09:03:43.000Z</time></trkpt><trkpt lon="34.864403" lat="31.358626"><ele>459</ele><time>2017-11-10T09:03:44.000Z</time></trkpt><trkpt lon="34.86439" lat="31.358598"><ele>459</ele><time>2017-11-10T09:03:45.000Z</time></trkpt><trkpt lon="34.864379" lat="31.358566"><ele>458</ele><time>2017-11-10T09:03:46.000Z</time></trkpt><trkpt lon="34.864365" lat="31.358536"><ele>458</ele><time>2017-11-10T09:03:47.000Z</time></trkpt><trkpt lon="34.864345" lat="31.358498"><ele>458</ele><time>2017-11-10T09:03:48.000Z</time></trkpt><trkpt lon="34.864317" lat="31.358458"><ele>458</ele><time>2017-11-10T09:03:49.000Z</time></trkpt><trkpt lon="34.864279" lat="31.358422"><ele>458</ele><time>2017-11-10T09:03:50.000Z</time></trkpt><trkpt lon="34.864228" lat="31.358394"><ele>458</ele><time>2017-11-10T09:03:51.000Z</time></trkpt><trkpt lon="34.864172" lat="31.358371"><ele>458</ele><time>2017-11-10T09:03:52.000Z</time></trkpt><trkpt lon="34.864116" lat="31.358356"><ele>458</ele><time>2017-11-10T09:03:53.000Z</time></trkpt><trkpt lon="34.864063" lat="31.358342"><ele>458</ele><time>2017-11-10T09:03:54.000Z</time></trkpt><trkpt lon="34.864018" lat="31.358326"><ele>458</ele><time>2017-11-10T09:03:55.000Z</time></trkpt><trkpt lon="34.86398" lat="31.358308"><ele>459</ele><time>2017-11-10T09:03:56.000Z</time></trkpt><trkpt lon="34.863942" lat="31.358294"><ele>459</ele><time>2017-11-10T09:03:57.000Z</time></trkpt><trkpt lon="34.863907" lat="31.358276"><ele>459</ele><time>2017-11-10T09:03:58.000Z</time></trkpt><trkpt lon="34.863875" lat="31.358254"><ele>459</ele><time>2017-11-10T09:03:59.000Z</time></trkpt><trkpt lon="34.863841" lat="31.358235"><ele>459</ele><time>2017-11-10T09:04:00.000Z</time></trkpt><trkpt lon="34.863805" lat="31.358218"><ele>459</ele><time>2017-11-10T09:04:01.000Z</time></trkpt><trkpt lon="34.863766" lat="31.358204"><ele>459</ele><time>2017-11-10T09:04:02.000Z</time></trkpt><trkpt lon="34.863727" lat="31.358191"><ele>459</ele><time>2017-11-10T09:04:03.000Z</time></trkpt><trkpt lon="34.86369" lat="31.358176"><ele>459</ele><time>2017-11-10T09:04:04.000Z</time></trkpt><trkpt lon="34.863653" lat="31.358159"><ele>459</ele><time>2017-11-10T09:04:05.000Z</time></trkpt><trkpt lon="34.863614" lat="31.358145"><ele>459</ele><time>2017-11-10T09:04:06.000Z</time></trkpt><trkpt lon="34.863572" lat="31.358133"><ele>459</ele><time>2017-11-10T09:04:07.000Z</time></trkpt><trkpt lon="34.86353" lat="31.358118"><ele>459</ele><time>2017-11-10T09:04:08.000Z</time></trkpt><trkpt lon="34.863487" lat="31.358103"><ele>459</ele><time>2017-11-10T09:04:09.000Z</time></trkpt><trkpt lon="34.863452" lat="31.358081"><ele>459</ele><time>2017-11-10T09:04:10.000Z</time></trkpt><trkpt lon="34.863427" lat="31.358051"><ele>459</ele><time>2017-11-10T09:04:11.000Z</time></trkpt><trkpt lon="34.8634" lat="31.35802"><ele>459</ele><time>2017-11-10T09:04:12.000Z</time></trkpt><trkpt lon="34.863365" lat="31.357994"><ele>459</ele><time>2017-11-10T09:04:13.000Z</time></trkpt><trkpt lon="34.863324" lat="31.357977"><ele>459</ele><time>2017-11-10T09:04:14.000Z</time></trkpt><trkpt lon="34.863282" lat="31.357963"><ele>459</ele><time>2017-11-10T09:04:15.000Z</time></trkpt><trkpt lon="34.863239" lat="31.357951"><ele>459</ele><time>2017-11-10T09:04:16.000Z</time></trkpt><trkpt lon="34.863198" lat="31.357937"><ele>459</ele><time>2017-11-10T09:04:17.000Z</time></trkpt><trkpt lon="34.863161" lat="31.357912"><ele>459</ele><time>2017-11-10T09:04:18.000Z</time></trkpt><trkpt lon="34.863131" lat="31.357876"><ele>459</ele><time>2017-11-10T09:04:19.000Z</time></trkpt><trkpt lon="34.863109" lat="31.357833"><ele>459</ele><time>2017-11-10T09:04:20.000Z</time></trkpt><trkpt lon="34.863092" lat="31.357786"><ele>459</ele><time>2017-11-10T09:04:21.000Z</time></trkpt><trkpt lon="34.863076" lat="31.357738"><ele>458</ele><time>2017-11-10T09:04:22.000Z</time></trkpt><trkpt lon="34.863058" lat="31.357693"><ele>458</ele><time>2017-11-10T09:04:23.000Z</time></trkpt><trkpt lon="34.863034" lat="31.357653"><ele>458</ele><time>2017-11-10T09:04:24.000Z</time></trkpt><trkpt lon="34.863003" lat="31.35762"><ele>459</ele><time>2017-11-10T09:04:25.000Z</time></trkpt><trkpt lon="34.862961" lat="31.357602"><ele>459</ele><time>2017-11-10T09:04:26.000Z</time></trkpt><trkpt lon="34.862919" lat="31.357591"><ele>459</ele><time>2017-11-10T09:04:27.000Z</time></trkpt><trkpt lon="34.862881" lat="31.357569"><ele>459</ele><time>2017-11-10T09:04:28.000Z</time></trkpt><trkpt lon="34.862847" lat="31.357535"><ele>458</ele><time>2017-11-10T09:04:29.000Z</time></trkpt><trkpt lon="34.862816" lat="31.357492"><ele>458</ele><time>2017-11-10T09:04:30.000Z</time></trkpt><trkpt lon="34.862792" lat="31.357448"><ele>458</ele><time>2017-11-10T09:04:31.000Z</time></trkpt><trkpt lon="34.862772" lat="31.357402"><ele>458</ele><time>2017-11-10T09:04:32.000Z</time></trkpt><trkpt lon="34.862755" lat="31.357356"><ele>458</ele><time>2017-11-10T09:04:33.000Z</time></trkpt><trkpt lon="34.862734" lat="31.357315"><ele>458</ele><time>2017-11-10T09:04:34.000Z</time></trkpt><trkpt lon="34.862706" lat="31.357279"><ele>458</ele><time>2017-11-10T09:04:35.000Z</time></trkpt><trkpt lon="34.862668" lat="31.357246"><ele>458</ele><time>2017-11-10T09:04:36.000Z</time></trkpt><trkpt lon="34.862615" lat="31.357213"><ele>458</ele><time>2017-11-10T09:04:37.000Z</time></trkpt><trkpt lon="34.862567" lat="31.357171"><ele>457</ele><time>2017-11-10T09:04:38.000Z</time></trkpt><trkpt lon="34.86253" lat="31.357119"><ele>457</ele><time>2017-11-10T09:04:39.000Z</time></trkpt><trkpt lon="34.862476" lat="31.357081"><ele>456</ele><time>2017-11-10T09:04:40.000Z</time></trkpt><trkpt lon="34.862408" lat="31.357056"><ele>456</ele><time>2017-11-10T09:04:41.000Z</time></trkpt><trkpt lon="34.862368" lat="31.357011"><ele>455</ele><time>2017-11-10T09:04:42.000Z</time></trkpt><trkpt lon="34.862356" lat="31.356953"><ele>455</ele><time>2017-11-10T09:04:43.000Z</time></trkpt><trkpt lon="34.862351" lat="31.356896"><ele>454</ele><time>2017-11-10T09:04:44.000Z</time></trkpt><trkpt lon="34.862345" lat="31.356834"><ele>454</ele><time>2017-11-10T09:04:45.000Z</time></trkpt><trkpt lon="34.862352" lat="31.356772"><ele>454</ele><time>2017-11-10T09:04:46.000Z</time></trkpt><trkpt lon="34.862368" lat="31.356715"><ele>454</ele><time>2017-11-10T09:04:47.000Z</time></trkpt><trkpt lon="34.862379" lat="31.356654"><ele>453</ele><time>2017-11-10T09:04:48.000Z</time></trkpt><trkpt lon="34.862392" lat="31.356593"><ele>453</ele><time>2017-11-10T09:04:49.000Z</time></trkpt><trkpt lon="34.862411" lat="31.356537"><ele>452</ele><time>2017-11-10T09:04:50.000Z</time></trkpt><trkpt lon="34.862438" lat="31.356484"><ele>452</ele><time>2017-11-10T09:04:51.000Z</time></trkpt><trkpt lon="34.862472" lat="31.356437"><ele>452</ele><time>2017-11-10T09:04:52.000Z</time></trkpt><trkpt lon="34.862503" lat="31.35639"><ele>452</ele><time>2017-11-10T09:04:53.000Z</time></trkpt><trkpt lon="34.862533" lat="31.356335"><ele>452</ele><time>2017-11-10T09:04:54.000Z</time></trkpt><trkpt lon="34.862562" lat="31.356278"><ele>452</ele><time>2017-11-10T09:04:55.000Z</time></trkpt><trkpt lon="34.862583" lat="31.356219"><ele>451</ele><time>2017-11-10T09:04:56.000Z</time></trkpt><trkpt lon="34.862596" lat="31.356153"><ele>451</ele><time>2017-11-10T09:04:57.000Z</time></trkpt><trkpt lon="34.862593" lat="31.356086"><ele>450</ele><time>2017-11-10T09:04:58.000Z</time></trkpt><trkpt lon="34.862567" lat="31.356024"><ele>450</ele><time>2017-11-10T09:04:59.000Z</time></trkpt><trkpt lon="34.862523" lat="31.355973"><ele>450</ele><time>2017-11-10T09:05:00.000Z</time></trkpt><trkpt lon="34.862467" lat="31.355934"><ele>450</ele><time>2017-11-10T09:05:01.000Z</time></trkpt><trkpt lon="34.862408" lat="31.355899"><ele>450</ele><time>2017-11-10T09:05:02.000Z</time></trkpt><trkpt lon="34.862348" lat="31.355868"><ele>449</ele><time>2017-11-10T09:05:03.000Z</time></trkpt><trkpt lon="34.862291" lat="31.355839"><ele>449</ele><time>2017-11-10T09:05:04.000Z</time></trkpt><trkpt lon="34.862235" lat="31.355823"><ele>449</ele><time>2017-11-10T09:05:05.000Z</time></trkpt><trkpt lon="34.862181" lat="31.355824"><ele>449</ele><time>2017-11-10T09:05:06.000Z</time></trkpt><trkpt lon="34.862125" lat="31.355824"><ele>449</ele><time>2017-11-10T09:05:07.000Z</time></trkpt><trkpt lon="34.862066" lat="31.355819"><ele>449</ele><time>2017-11-10T09:05:08.000Z</time></trkpt><trkpt lon="34.862006" lat="31.355817"><ele>449</ele><time>2017-11-10T09:05:09.000Z</time></trkpt><trkpt lon="34.861949" lat="31.355818"><ele>450</ele><time>2017-11-10T09:05:10.000Z</time></trkpt><trkpt lon="34.861891" lat="31.355815"><ele>450</ele><time>2017-11-10T09:05:11.000Z</time></trkpt><trkpt lon="34.861834" lat="31.355805"><ele>450</ele><time>2017-11-10T09:05:12.000Z</time></trkpt><trkpt lon="34.86178" lat="31.355793"><ele>450</ele><time>2017-11-10T09:05:13.000Z</time></trkpt><trkpt lon="34.86173" lat="31.355777"><ele>450</ele><time>2017-11-10T09:05:14.000Z</time></trkpt><trkpt lon="34.86168" lat="31.355761"><ele>450</ele><time>2017-11-10T09:05:15.000Z</time></trkpt><trkpt lon="34.861627" lat="31.355743"><ele>450</ele><time>2017-11-10T09:05:16.000Z</time></trkpt><trkpt lon="34.861574" lat="31.35572"><ele>450</ele><time>2017-11-10T09:05:17.000Z</time></trkpt><trkpt lon="34.861525" lat="31.355692"><ele>450</ele><time>2017-11-10T09:05:18.000Z</time></trkpt><trkpt lon="34.861476" lat="31.355666"><ele>450</ele><time>2017-11-10T09:05:19.000Z</time></trkpt><trkpt lon="34.861425" lat="31.355645"><ele>451</ele><time>2017-11-10T09:05:20.000Z</time></trkpt><trkpt lon="34.861375" lat="31.355624"><ele>451</ele><time>2017-11-10T09:05:21.000Z</time></trkpt><trkpt lon="34.861329" lat="31.355597"><ele>451</ele><time>2017-11-10T09:05:22.000Z</time></trkpt><trkpt lon="34.861288" lat="31.355569"><ele>451</ele><time>2017-11-10T09:05:23.000Z</time></trkpt><trkpt lon="34.86125" lat="31.35554"><ele>451</ele><time>2017-11-10T09:05:24.000Z</time></trkpt><trkpt lon="34.86122" lat="31.355511"><ele>451</ele><time>2017-11-10T09:05:25.000Z</time></trkpt><trkpt lon="34.861201" lat="31.355491"><ele>451</ele><time>2017-11-10T09:05:26.000Z</time></trkpt><trkpt lon="34.861201" lat="31.355491"><ele>451</ele><time>2017-11-10T09:05:27.000Z</time></trkpt><trkpt lon="34.861191" lat="31.355464"><ele>451</ele><time>2017-11-10T09:05:28.000Z</time></trkpt><trkpt lon="34.861191" lat="31.355464"><ele>452</ele><time>2017-11-10T09:05:29.000Z</time></trkpt><trkpt lon="34.861201" lat="31.355442"><ele>452</ele><time>2017-11-10T09:05:30.000Z</time></trkpt><trkpt lon="34.861201" lat="31.355442"><ele>452</ele><time>2017-11-10T09:05:31.000Z</time></trkpt><trkpt lon="34.861201" lat="31.355442"><ele>452</ele><time>2017-11-10T09:05:32.000Z</time></trkpt><trkpt lon="34.861201" lat="31.355442"><ele>452</ele><time>2017-11-10T09:05:33.000Z</time></trkpt><trkpt lon="34.861201" lat="31.355442"><ele>452</ele><time>2017-11-10T09:05:34.000Z</time></trkpt><trkpt lon="34.861201" lat="31.355442"><ele>452</ele><time>2017-11-10T09:05:35.000Z</time></trkpt><trkpt lon="34.861216" lat="31.355428"><ele>452</ele><time>2017-11-10T09:05:36.000Z</time></trkpt><trkpt lon="34.861216" lat="31.355428"><ele>452</ele><time>2017-11-10T09:05:37.000Z</time></trkpt><trkpt lon="34.861216" lat="31.355428"><ele>452</ele><time>2017-11-10T09:05:38.000Z</time></trkpt><trkpt lon="34.861216" lat="31.355428"><ele>452</ele><time>2017-11-10T09:05:39.000Z</time></trkpt><trkpt lon="34.861241" lat="31.35541"><ele>452</ele><time>2017-11-10T09:05:40.000Z</time></trkpt><trkpt lon="34.861241" lat="31.35541"><ele>452</ele><time>2017-11-10T09:05:42.000Z</time></trkpt><trkpt lon="34.861278" lat="31.355397"><ele>452</ele><time>2017-11-10T09:05:43.000Z</time></trkpt><trkpt lon="34.861278" lat="31.355397"><ele>452</ele><time>2017-11-10T09:05:44.000Z</time></trkpt><trkpt lon="34.861311" lat="31.355391"><ele>452</ele><time>2017-11-10T09:05:45.000Z</time></trkpt><trkpt lon="34.861311" lat="31.355391"><ele>452</ele><time>2017-11-10T09:05:46.000Z</time></trkpt><trkpt lon="34.861335" lat="31.355394"><ele>452</ele><time>2017-11-10T09:05:47.000Z</time></trkpt><trkpt lon="34.861335" lat="31.355394"><ele>452</ele><time>2017-11-10T09:05:48.000Z</time></trkpt><trkpt lon="34.861359" lat="31.355396"><ele>452</ele><time>2017-11-10T09:05:49.000Z</time></trkpt><trkpt lon="34.861359" lat="31.355396"><ele>452</ele><time>2017-11-10T09:05:50.000Z</time></trkpt><trkpt lon="34.861388" lat="31.355396"><ele>453</ele><time>2017-11-10T09:05:51.000Z</time></trkpt><trkpt lon="34.861388" lat="31.355396"><ele>453</ele><time>2017-11-10T09:05:52.000Z</time></trkpt><trkpt lon="34.86141" lat="31.355394"><ele>453</ele><time>2017-11-10T09:05:53.000Z</time></trkpt><trkpt lon="34.86141" lat="31.355394"><ele>453</ele><time>2017-11-10T09:05:54.000Z</time></trkpt><trkpt lon="34.86141" lat="31.355394"><ele>453</ele><time>2017-11-10T09:05:55.000Z</time></trkpt><trkpt lon="34.86141" lat="31.355394"><ele>453</ele><time>2017-11-10T09:05:56.000Z</time></trkpt><trkpt lon="34.86141" lat="31.355394"><ele>453</ele><time>2017-11-10T09:05:57.000Z</time></trkpt><trkpt lon="34.86141" lat="31.355394"><ele>454</ele><time>2017-11-10T09:05:58.000Z</time></trkpt><trkpt lon="34.86141" lat="31.355394"><ele>454</ele><time>2017-11-10T09:05:59.000Z</time></trkpt><trkpt lon="34.86141" lat="31.355394"><ele>454</ele><time>2017-11-10T09:06:00.000Z</time></trkpt><trkpt lon="34.86141" lat="31.355394"><ele>454</ele><time>2017-11-10T09:06:01.000Z</time></trkpt><trkpt lon="34.86141" lat="31.355394"><ele>454</ele><time>2017-11-10T09:06:02.000Z</time></trkpt><trkpt lon="34.86141" lat="31.355394"><ele>454</ele><time>2017-11-10T09:06:03.000Z</time></trkpt><trkpt lon="34.86141" lat="31.355394"><ele>454</ele><time>2017-11-10T09:06:04.000Z</time></trkpt><trkpt lon="34.86141" lat="31.355394"><ele>454</ele><time>2017-11-10T09:06:05.000Z</time></trkpt><trkpt lon="34.86141" lat="31.355394"><ele>454</ele><time>2017-11-10T09:06:06.000Z</time></trkpt><trkpt lon="34.86141" lat="31.355394"><ele>454</ele><time>2017-11-10T09:06:07.000Z</time></trkpt><trkpt lon="34.861435" lat="31.3554"><ele>454</ele><time>2017-11-10T09:06:08.000Z</time></trkpt><trkpt lon="34.861454" lat="31.355408"><ele>454</ele><time>2017-11-10T09:06:09.000Z</time></trkpt><trkpt lon="34.861474" lat="31.355416"><ele>454</ele><time>2017-11-10T09:06:10.000Z</time></trkpt><trkpt lon="34.861503" lat="31.35542"><ele>454</ele><time>2017-11-10T09:06:11.000Z</time></trkpt><trkpt lon="34.861536" lat="31.355419"><ele>454</ele><time>2017-11-10T09:06:12.000Z</time></trkpt><trkpt lon="34.861566" lat="31.355419"><ele>455</ele><time>2017-11-10T09:06:13.000Z</time></trkpt><trkpt lon="34.861595" lat="31.355419"><ele>455</ele><time>2017-11-10T09:06:14.000Z</time></trkpt><trkpt lon="34.861621" lat="31.35542"><ele>455</ele><time>2017-11-10T09:06:15.000Z</time></trkpt><trkpt lon="34.861644" lat="31.355423"><ele>455</ele><time>2017-11-10T09:06:16.000Z</time></trkpt><trkpt lon="34.861664" lat="31.355429"><ele>455</ele><time>2017-11-10T09:06:17.000Z</time></trkpt><trkpt lon="34.86169" lat="31.355435"><ele>455</ele><time>2017-11-10T09:06:18.000Z</time></trkpt><trkpt lon="34.861724" lat="31.35544"><ele>455</ele><time>2017-11-10T09:06:19.000Z</time></trkpt><trkpt lon="34.86176" lat="31.355439"><ele>454.4</ele><time>2017-11-10T09:06:20.000Z</time></trkpt><trkpt lon="34.861789" lat="31.355431"><ele>454</ele><time>2017-11-10T09:06:21.000Z</time></trkpt><trkpt lon="34.861818" lat="31.355421"><ele>455</ele><time>2017-11-10T09:06:22.000Z</time></trkpt><trkpt lon="34.861846" lat="31.355409"><ele>455</ele><time>2017-11-10T09:06:23.000Z</time></trkpt><trkpt lon="34.861869" lat="31.355394"><ele>455</ele><time>2017-11-10T09:06:24.000Z</time></trkpt><trkpt lon="34.861886" lat="31.355379"><ele>455</ele><time>2017-11-10T09:06:25.000Z</time></trkpt><trkpt lon="34.861897" lat="31.355362"><ele>455</ele><time>2017-11-10T09:06:26.000Z</time></trkpt><trkpt lon="34.8619" lat="31.355342"><ele>455</ele><time>2017-11-10T09:06:27.000Z</time></trkpt><trkpt lon="34.861901" lat="31.355317"><ele>455</ele><time>2017-11-10T09:06:28.000Z</time></trkpt><trkpt lon="34.861897" lat="31.355293"><ele>455</ele><time>2017-11-10T09:06:29.000Z</time></trkpt><trkpt lon="34.861892" lat="31.355271"><ele>455</ele><time>2017-11-10T09:06:30.000Z</time></trkpt><trkpt lon="34.861887" lat="31.355246"><ele>455</ele><time>2017-11-10T09:06:31.000Z</time></trkpt><trkpt lon="34.861883" lat="31.355217"><ele>455</ele><time>2017-11-10T09:06:32.000Z</time></trkpt><trkpt lon="34.861877" lat="31.355185"><ele>455</ele><time>2017-11-10T09:06:33.000Z</time></trkpt><trkpt lon="34.861867" lat="31.355151"><ele>455</ele><time>2017-11-10T09:06:34.000Z</time></trkpt><trkpt lon="34.861852" lat="31.355118"><ele>455</ele><time>2017-11-10T09:06:35.000Z</time></trkpt><trkpt lon="34.861834" lat="31.355086"><ele>455</ele><time>2017-11-10T09:06:36.000Z</time></trkpt><trkpt lon="34.86182" lat="31.355057"><ele>455</ele><time>2017-11-10T09:06:37.000Z</time></trkpt><trkpt lon="34.861803" lat="31.355028"><ele>455</ele><time>2017-11-10T09:06:38.000Z</time></trkpt><trkpt lon="34.861788" lat="31.354995"><ele>455</ele><time>2017-11-10T09:06:39.000Z</time></trkpt><trkpt lon="34.861772" lat="31.354961"><ele>455</ele><time>2017-11-10T09:06:40.000Z</time></trkpt><trkpt lon="34.861753" lat="31.354924"><ele>455</ele><time>2017-11-10T09:06:41.000Z</time></trkpt><trkpt lon="34.861733" lat="31.354884"><ele>455</ele><time>2017-11-10T09:06:42.000Z</time></trkpt><trkpt lon="34.861707" lat="31.354845"><ele>455</ele><time>2017-11-10T09:06:43.000Z</time></trkpt><trkpt lon="34.861681" lat="31.354807"><ele>455</ele><time>2017-11-10T09:06:44.000Z</time></trkpt><trkpt lon="34.861658" lat="31.354764"><ele>455</ele><time>2017-11-10T09:06:45.000Z</time></trkpt><trkpt lon="34.861635" lat="31.354718"><ele>455</ele><time>2017-11-10T09:06:46.000Z</time></trkpt><trkpt lon="34.861624" lat="31.354672"><ele>454</ele><time>2017-11-10T09:06:47.000Z</time></trkpt><trkpt lon="34.861628" lat="31.35463"><ele>453</ele><time>2017-11-10T09:06:48.000Z</time></trkpt><trkpt lon="34.861635" lat="31.354586"><ele>452</ele><time>2017-11-10T09:06:49.000Z</time></trkpt><trkpt lon="34.861633" lat="31.354541"><ele>451</ele><time>2017-11-10T09:06:50.000Z</time></trkpt><trkpt lon="34.861615" lat="31.354498"><ele>450</ele><time>2017-11-10T09:06:51.000Z</time></trkpt><trkpt lon="34.861594" lat="31.354455"><ele>450</ele><time>2017-11-10T09:06:52.000Z</time></trkpt><trkpt lon="34.861579" lat="31.354405"><ele>450</ele><time>2017-11-10T09:06:53.000Z</time></trkpt><trkpt lon="34.861575" lat="31.354351"><ele>450</ele><time>2017-11-10T09:06:54.000Z</time></trkpt><trkpt lon="34.861577" lat="31.354301"><ele>449</ele><time>2017-11-10T09:06:55.000Z</time></trkpt><trkpt lon="34.861585" lat="31.354261"><ele>449</ele><time>2017-11-10T09:06:56.000Z</time></trkpt><trkpt lon="34.86159" lat="31.354219"><ele>448</ele><time>2017-11-10T09:06:57.000Z</time></trkpt><trkpt lon="34.861584" lat="31.354178"><ele>447</ele><time>2017-11-10T09:06:58.000Z</time></trkpt><trkpt lon="34.861571" lat="31.354135"><ele>447</ele><time>2017-11-10T09:06:59.000Z</time></trkpt><trkpt lon="34.861553" lat="31.354085"><ele>447</ele><time>2017-11-10T09:07:00.000Z</time></trkpt><trkpt lon="34.861532" lat="31.354034"><ele>445</ele><time>2017-11-10T09:07:01.000Z</time></trkpt><trkpt lon="34.861517" lat="31.353978"><ele>445</ele><time>2017-11-10T09:07:02.000Z</time></trkpt><trkpt lon="34.861507" lat="31.35392"><ele>444</ele><time>2017-11-10T09:07:03.000Z</time></trkpt><trkpt lon="34.86149" lat="31.353861"><ele>444</ele><time>2017-11-10T09:07:04.000Z</time></trkpt><trkpt lon="34.861473" lat="31.353807"><ele>443</ele><time>2017-11-10T09:07:05.000Z</time></trkpt><trkpt lon="34.861461" lat="31.35375"><ele>443</ele><time>2017-11-10T09:07:06.000Z</time></trkpt><trkpt lon="34.861433" lat="31.353684"><ele>442</ele><time>2017-11-10T09:07:07.000Z</time></trkpt><trkpt lon="34.861377" lat="31.353626"><ele>441</ele><time>2017-11-10T09:07:08.000Z</time></trkpt><trkpt lon="34.861302" lat="31.353578"><ele>440</ele><time>2017-11-10T09:07:09.000Z</time></trkpt><trkpt lon="34.861214" lat="31.353551"><ele>439</ele><time>2017-11-10T09:07:10.000Z</time></trkpt><trkpt lon="34.861138" lat="31.353524"><ele>438</ele><time>2017-11-10T09:07:11.000Z</time></trkpt><trkpt lon="34.861078" lat="31.353493"><ele>438</ele><time>2017-11-10T09:07:12.000Z</time></trkpt><trkpt lon="34.861018" lat="31.353476"><ele>438</ele><time>2017-11-10T09:07:13.000Z</time></trkpt><trkpt lon="34.860953" lat="31.353469"><ele>437</ele><time>2017-11-10T09:07:14.000Z</time></trkpt><trkpt lon="34.860882" lat="31.353473"><ele>436</ele><time>2017-11-10T09:07:15.000Z</time></trkpt><trkpt lon="34.860813" lat="31.353476"><ele>436</ele><time>2017-11-10T09:07:16.000Z</time></trkpt><trkpt lon="34.86075" lat="31.353481"><ele>436</ele><time>2017-11-10T09:07:17.000Z</time></trkpt><trkpt lon="34.86069" lat="31.353494"><ele>436</ele><time>2017-11-10T09:07:18.000Z</time></trkpt><trkpt lon="34.860642" lat="31.353513"><ele>435</ele><time>2017-11-10T09:07:19.000Z</time></trkpt><trkpt lon="34.860615" lat="31.353528"><ele>435</ele><time>2017-11-10T09:07:20.000Z</time></trkpt><trkpt lon="34.860613" lat="31.35353"><ele>435</ele><time>2017-11-10T09:07:21.000Z</time></trkpt><trkpt lon="34.860611" lat="31.353532"><ele>435</ele><time>2017-11-10T09:07:22.000Z</time></trkpt><trkpt lon="34.860609" lat="31.353534"><ele>435</ele><time>2017-11-10T09:07:23.000Z</time></trkpt><trkpt lon="34.860607" lat="31.353536"><ele>435</ele><time>2017-11-10T09:07:24.000Z</time></trkpt><trkpt lon="34.860605" lat="31.353538"><ele>435</ele><time>2017-11-10T09:07:25.000Z</time></trkpt><trkpt lon="34.860603" lat="31.35354"><ele>435</ele><time>2017-11-10T09:07:26.000Z</time></trkpt><trkpt lon="34.860602" lat="31.353543"><ele>435</ele><time>2017-11-10T09:07:27.000Z</time></trkpt><trkpt lon="34.8606" lat="31.353545"><ele>435</ele><time>2017-11-10T09:07:28.000Z</time></trkpt><trkpt lon="34.860598" lat="31.353547"><ele>435</ele><time>2017-11-10T09:07:29.000Z</time></trkpt><trkpt lon="34.860596" lat="31.353549"><ele>435</ele><time>2017-11-10T09:07:30.000Z</time></trkpt><trkpt lon="34.860594" lat="31.353551"><ele>435</ele><time>2017-11-10T09:07:31.000Z</time></trkpt><trkpt lon="34.860592" lat="31.353553"><ele>435</ele><time>2017-11-10T09:07:32.000Z</time></trkpt><trkpt lon="34.86059" lat="31.353555"><ele>435</ele><time>2017-11-10T09:07:33.000Z</time></trkpt><trkpt lon="34.860588" lat="31.353557"><ele>435</ele><time>2017-11-10T09:07:34.000Z</time></trkpt><trkpt lon="34.860567" lat="31.353585"><ele>435</ele><time>2017-11-10T09:07:35.000Z</time></trkpt><trkpt lon="34.860546" lat="31.353619"><ele>435</ele><time>2017-11-10T09:07:36.000Z</time></trkpt><trkpt lon="34.860519" lat="31.353651"><ele>435</ele><time>2017-11-10T09:07:37.000Z</time></trkpt><trkpt lon="34.860488" lat="31.35368"><ele>435</ele><time>2017-11-10T09:07:38.000Z</time></trkpt><trkpt lon="34.860453" lat="31.353715"><ele>435</ele><time>2017-11-10T09:07:39.000Z</time></trkpt><trkpt lon="34.860422" lat="31.353759"><ele>434</ele><time>2017-11-10T09:07:40.000Z</time></trkpt><trkpt lon="34.860396" lat="31.353804"><ele>434</ele><time>2017-11-10T09:07:41.000Z</time></trkpt><trkpt lon="34.860365" lat="31.353838"><ele>434</ele><time>2017-11-10T09:07:42.000Z</time></trkpt><trkpt lon="34.860325" lat="31.353861"><ele>434</ele><time>2017-11-10T09:07:43.000Z</time></trkpt><trkpt lon="34.860275" lat="31.353886"><ele>433</ele><time>2017-11-10T09:07:44.000Z</time></trkpt><trkpt lon="34.86022" lat="31.353919"><ele>433</ele><time>2017-11-10T09:07:45.000Z</time></trkpt><trkpt lon="34.860162" lat="31.353957"><ele>433</ele><time>2017-11-10T09:07:46.000Z</time></trkpt><trkpt lon="34.860105" lat="31.353986"><ele>433</ele><time>2017-11-10T09:07:47.000Z</time></trkpt><trkpt lon="34.860047" lat="31.35401"><ele>433</ele><time>2017-11-10T09:07:48.000Z</time></trkpt><trkpt lon="34.859986" lat="31.354038"><ele>433</ele><time>2017-11-10T09:07:49.000Z</time></trkpt><trkpt lon="34.859925" lat="31.354077"><ele>433</ele><time>2017-11-10T09:07:50.000Z</time></trkpt><trkpt lon="34.859862" lat="31.354116"><ele>432</ele><time>2017-11-10T09:07:51.000Z</time></trkpt><trkpt lon="34.859799" lat="31.354156"><ele>432</ele><time>2017-11-10T09:07:52.000Z</time></trkpt><trkpt lon="34.859736" lat="31.354195"><ele>431</ele><time>2017-11-10T09:07:53.000Z</time></trkpt><trkpt lon="34.859676" lat="31.354234"><ele>431</ele><time>2017-11-10T09:07:54.000Z</time></trkpt><trkpt lon="34.85962" lat="31.354273"><ele>431</ele><time>2017-11-10T09:07:55.000Z</time></trkpt><trkpt lon="34.859573" lat="31.354315"><ele>431</ele><time>2017-11-10T09:07:56.000Z</time></trkpt><trkpt lon="34.85955" lat="31.354367"><ele>431</ele><time>2017-11-10T09:07:57.000Z</time></trkpt><trkpt lon="34.859533" lat="31.354416"><ele>431</ele><time>2017-11-10T09:07:58.000Z</time></trkpt><trkpt lon="34.859534" lat="31.354438"><ele>431</ele><time>2017-11-10T09:07:59.000Z</time></trkpt><trkpt lon="34.859534" lat="31.354461"><ele>431</ele><time>2017-11-10T09:08:00.000Z</time></trkpt><trkpt lon="34.859535" lat="31.354483"><ele>431</ele><time>2017-11-10T09:08:01.000Z</time></trkpt><trkpt lon="34.85953" lat="31.354549"><ele>431</ele><time>2017-11-10T09:08:02.000Z</time></trkpt><trkpt lon="34.85952" lat="31.354608"><ele>431</ele><time>2017-11-10T09:08:03.000Z</time></trkpt><trkpt lon="34.859508" lat="31.354665"><ele>432</ele><time>2017-11-10T09:08:04.000Z</time></trkpt><trkpt lon="34.859493" lat="31.354715"><ele>432</ele><time>2017-11-10T09:08:05.000Z</time></trkpt><trkpt lon="34.859472" lat="31.354758"><ele>432</ele><time>2017-11-10T09:08:06.000Z</time></trkpt><trkpt lon="34.859448" lat="31.354794"><ele>432</ele><time>2017-11-10T09:08:07.000Z</time></trkpt><trkpt lon="34.859423" lat="31.354831"><ele>432</ele><time>2017-11-10T09:08:08.000Z</time></trkpt><trkpt lon="34.859406" lat="31.354873"><ele>432</ele><time>2017-11-10T09:08:09.000Z</time></trkpt><trkpt lon="34.859389" lat="31.354912"><ele>432</ele><time>2017-11-10T09:08:10.000Z</time></trkpt><trkpt lon="34.859368" lat="31.354944"><ele>432</ele><time>2017-11-10T09:08:11.000Z</time></trkpt><trkpt lon="34.859345" lat="31.354973"><ele>432</ele><time>2017-11-10T09:08:12.000Z</time></trkpt><trkpt lon="34.859324" lat="31.355003"><ele>433</ele><time>2017-11-10T09:08:13.000Z</time></trkpt><trkpt lon="34.859304" lat="31.355035"><ele>433</ele><time>2017-11-10T09:08:14.000Z</time></trkpt><trkpt lon="34.859285" lat="31.355065"><ele>433</ele><time>2017-11-10T09:08:15.000Z</time></trkpt><trkpt lon="34.859268" lat="31.355094"><ele>434</ele><time>2017-11-10T09:08:16.000Z</time></trkpt><trkpt lon="34.859253" lat="31.355122"><ele>434</ele><time>2017-11-10T09:08:17.000Z</time></trkpt><trkpt lon="34.859238" lat="31.355146"><ele>434</ele><time>2017-11-10T09:08:18.000Z</time></trkpt><trkpt lon="34.859225" lat="31.35517"><ele>435</ele><time>2017-11-10T09:08:19.000Z</time></trkpt><trkpt lon="34.859222" lat="31.355196"><ele>435</ele><time>2017-11-10T09:08:20.000Z</time></trkpt><trkpt lon="34.859229" lat="31.355223"><ele>435</ele><time>2017-11-10T09:08:21.000Z</time></trkpt><trkpt lon="34.859236" lat="31.355251"><ele>435</ele><time>2017-11-10T09:08:22.000Z</time></trkpt><trkpt lon="34.859239" lat="31.35528"><ele>435</ele><time>2017-11-10T09:08:23.000Z</time></trkpt><trkpt lon="34.85924" lat="31.355308"><ele>435</ele><time>2017-11-10T09:08:24.000Z</time></trkpt><trkpt lon="34.859245" lat="31.355331"><ele>435</ele><time>2017-11-10T09:08:25.000Z</time></trkpt><trkpt lon="34.859245" lat="31.355331"><ele>435</ele><time>2017-11-10T09:08:26.000Z</time></trkpt><trkpt lon="34.859251" lat="31.355363"><ele>436</ele><time>2017-11-10T09:08:27.000Z</time></trkpt><trkpt lon="34.859251" lat="31.355363"><ele>436</ele><time>2017-11-10T09:08:28.000Z</time></trkpt><trkpt lon="34.859255" lat="31.355394"><ele>436</ele><time>2017-11-10T09:08:29.000Z</time></trkpt><trkpt lon="34.859262" lat="31.355412"><ele>436</ele><time>2017-11-10T09:08:30.000Z</time></trkpt><trkpt lon="34.859267" lat="31.355432"><ele>436</ele><time>2017-11-10T09:08:31.000Z</time></trkpt><trkpt lon="34.859266" lat="31.35545"><ele>436</ele><time>2017-11-10T09:08:32.000Z</time></trkpt><trkpt lon="34.859267" lat="31.35547"><ele>436</ele><time>2017-11-10T09:08:33.000Z</time></trkpt><trkpt lon="34.859275" lat="31.355491"><ele>436</ele><time>2017-11-10T09:08:34.000Z</time></trkpt><trkpt lon="34.859283" lat="31.355513"><ele>436</ele><time>2017-11-10T09:08:35.000Z</time></trkpt><trkpt lon="34.859292" lat="31.355536"><ele>436</ele><time>2017-11-10T09:08:36.000Z</time></trkpt><trkpt lon="34.859303" lat="31.35556"><ele>436</ele><time>2017-11-10T09:08:37.000Z</time></trkpt><trkpt lon="34.859313" lat="31.355585"><ele>436</ele><time>2017-11-10T09:08:38.000Z</time></trkpt><trkpt lon="34.859319" lat="31.35561"><ele>436</ele><time>2017-11-10T09:08:39.000Z</time></trkpt><trkpt lon="34.859323" lat="31.355633"><ele>436</ele><time>2017-11-10T09:08:40.000Z</time></trkpt><trkpt lon="34.859321" lat="31.355655"><ele>436</ele><time>2017-11-10T09:08:41.000Z</time></trkpt><trkpt lon="34.859317" lat="31.355674"><ele>436</ele><time>2017-11-10T09:08:42.000Z</time></trkpt><trkpt lon="34.859315" lat="31.355694"><ele>437</ele><time>2017-11-10T09:08:43.000Z</time></trkpt><trkpt lon="34.859321" lat="31.355712"><ele>437</ele><time>2017-11-10T09:08:44.000Z</time></trkpt><trkpt lon="34.859336" lat="31.355729"><ele>437</ele><time>2017-11-10T09:08:45.000Z</time></trkpt><trkpt lon="34.859358" lat="31.355742"><ele>437</ele><time>2017-11-10T09:08:46.000Z</time></trkpt><trkpt lon="34.859382" lat="31.355754"><ele>437</ele><time>2017-11-10T09:08:47.000Z</time></trkpt><trkpt lon="34.859406" lat="31.355765"><ele>437</ele><time>2017-11-10T09:08:48.000Z</time></trkpt><trkpt lon="34.859425" lat="31.355781"><ele>437</ele><time>2017-11-10T09:08:49.000Z</time></trkpt><trkpt lon="34.859434" lat="31.355804"><ele>438</ele><time>2017-11-10T09:08:50.000Z</time></trkpt><trkpt lon="34.859438" lat="31.355828"><ele>438</ele><time>2017-11-10T09:08:51.000Z</time></trkpt><trkpt lon="34.859448" lat="31.355849"><ele>438</ele><time>2017-11-10T09:08:52.000Z</time></trkpt><trkpt lon="34.859464" lat="31.355867"><ele>438</ele><time>2017-11-10T09:08:53.000Z</time></trkpt><trkpt lon="34.859484" lat="31.35588"><ele>438</ele><time>2017-11-10T09:08:54.000Z</time></trkpt><trkpt lon="34.859508" lat="31.355893"><ele>439</ele><time>2017-11-10T09:08:55.000Z</time></trkpt><trkpt lon="34.85953" lat="31.35591"><ele>439</ele><time>2017-11-10T09:08:56.000Z</time></trkpt><trkpt lon="34.859546" lat="31.355929"><ele>439</ele><time>2017-11-10T09:08:57.000Z</time></trkpt><trkpt lon="34.859558" lat="31.355948"><ele>439</ele><time>2017-11-10T09:08:58.000Z</time></trkpt><trkpt lon="34.859568" lat="31.355968"><ele>439</ele><time>2017-11-10T09:08:59.000Z</time></trkpt><trkpt lon="34.859579" lat="31.355986"><ele>439</ele><time>2017-11-10T09:09:00.000Z</time></trkpt><trkpt lon="34.85959" lat="31.356005"><ele>439</ele><time>2017-11-10T09:09:01.000Z</time></trkpt><trkpt lon="34.859599" lat="31.356025"><ele>439</ele><time>2017-11-10T09:09:02.000Z</time></trkpt><trkpt lon="34.859601" lat="31.356046"><ele>440</ele><time>2017-11-10T09:09:03.000Z</time></trkpt><trkpt lon="34.859597" lat="31.356066"><ele>440</ele><time>2017-11-10T09:09:04.000Z</time></trkpt><trkpt lon="34.85959" lat="31.356085"><ele>440</ele><time>2017-11-10T09:09:05.000Z</time></trkpt><trkpt lon="34.859584" lat="31.356102"><ele>440</ele><time>2017-11-10T09:09:06.000Z</time></trkpt><trkpt lon="34.859583" lat="31.356121"><ele>440</ele><time>2017-11-10T09:09:07.000Z</time></trkpt><trkpt lon="34.859583" lat="31.356121"><ele>440</ele><time>2017-11-10T09:09:08.000Z</time></trkpt><trkpt lon="34.859577" lat="31.356156"><ele>440</ele><time>2017-11-10T09:09:09.000Z</time></trkpt><trkpt lon="34.859564" lat="31.356173"><ele>440</ele><time>2017-11-10T09:09:10.000Z</time></trkpt><trkpt lon="34.859551" lat="31.356189"><ele>441</ele><time>2017-11-10T09:09:11.000Z</time></trkpt><trkpt lon="34.859542" lat="31.356208"><ele>441</ele><time>2017-11-10T09:09:12.000Z</time></trkpt><trkpt lon="34.859539" lat="31.356229"><ele>441</ele><time>2017-11-10T09:09:13.000Z</time></trkpt><trkpt lon="34.859538" lat="31.356249"><ele>441</ele><time>2017-11-10T09:09:14.000Z</time></trkpt><trkpt lon="34.859531" lat="31.356268"><ele>441</ele><time>2017-11-10T09:09:15.000Z</time></trkpt><trkpt lon="34.859518" lat="31.356285"><ele>441</ele><time>2017-11-10T09:09:16.000Z</time></trkpt><trkpt lon="34.859503" lat="31.356305"><ele>441</ele><time>2017-11-10T09:09:17.000Z</time></trkpt><trkpt lon="34.859489" lat="31.356323"><ele>441</ele><time>2017-11-10T09:09:18.000Z</time></trkpt><trkpt lon="34.859474" lat="31.356343"><ele>441</ele><time>2017-11-10T09:09:19.000Z</time></trkpt><trkpt lon="34.859464" lat="31.356363"><ele>441</ele><time>2017-11-10T09:09:20.000Z</time></trkpt><trkpt lon="34.859464" lat="31.356384"><ele>441</ele><time>2017-11-10T09:09:21.000Z</time></trkpt><trkpt lon="34.859472" lat="31.356402"><ele>441</ele><time>2017-11-10T09:09:22.000Z</time></trkpt><trkpt lon="34.859487" lat="31.356417"><ele>441</ele><time>2017-11-10T09:09:23.000Z</time></trkpt><trkpt lon="34.8595" lat="31.356431"><ele>441</ele><time>2017-11-10T09:09:24.000Z</time></trkpt><trkpt lon="34.859513" lat="31.356448"><ele>441</ele><time>2017-11-10T09:09:25.000Z</time></trkpt><trkpt lon="34.859521" lat="31.356467"><ele>441</ele><time>2017-11-10T09:09:26.000Z</time></trkpt><trkpt lon="34.859521" lat="31.356491"><ele>441</ele><time>2017-11-10T09:09:27.000Z</time></trkpt><trkpt lon="34.859519" lat="31.356514"><ele>441</ele><time>2017-11-10T09:09:28.000Z</time></trkpt><trkpt lon="34.859518" lat="31.356538"><ele>442</ele><time>2017-11-10T09:09:29.000Z</time></trkpt><trkpt lon="34.859518" lat="31.356562"><ele>442</ele><time>2017-11-10T09:09:30.000Z</time></trkpt><trkpt lon="34.859519" lat="31.356587"><ele>442</ele><time>2017-11-10T09:09:31.000Z</time></trkpt><trkpt lon="34.859519" lat="31.356615"><ele>442</ele><time>2017-11-10T09:09:32.000Z</time></trkpt><trkpt lon="34.859519" lat="31.356647"><ele>442</ele><time>2017-11-10T09:09:33.000Z</time></trkpt><trkpt lon="34.859519" lat="31.356683"><ele>442</ele><time>2017-11-10T09:09:34.000Z</time></trkpt><trkpt lon="34.859517" lat="31.356714"><ele>442</ele><time>2017-11-10T09:09:35.000Z</time></trkpt><trkpt lon="34.859511" lat="31.356737"><ele>443</ele><time>2017-11-10T09:09:36.000Z</time></trkpt><trkpt lon="34.859499" lat="31.356756"><ele>443</ele><time>2017-11-10T09:09:37.000Z</time></trkpt><trkpt lon="34.859484" lat="31.35677"><ele>443</ele><time>2017-11-10T09:09:38.000Z</time></trkpt><trkpt lon="34.859468" lat="31.356783"><ele>443</ele><time>2017-11-10T09:09:39.000Z</time></trkpt><trkpt lon="34.859448" lat="31.356801"><ele>444</ele><time>2017-11-10T09:09:40.000Z</time></trkpt><trkpt lon="34.859431" lat="31.35682"><ele>444</ele><time>2017-11-10T09:09:41.000Z</time></trkpt><trkpt lon="34.859411" lat="31.356834"><ele>444</ele><time>2017-11-10T09:09:42.000Z</time></trkpt><trkpt lon="34.859388" lat="31.356847"><ele>444</ele><time>2017-11-10T09:09:43.000Z</time></trkpt><trkpt lon="34.859363" lat="31.356858"><ele>444</ele><time>2017-11-10T09:09:44.000Z</time></trkpt><trkpt lon="34.859339" lat="31.356871"><ele>444</ele><time>2017-11-10T09:09:45.000Z</time></trkpt><trkpt lon="34.859317" lat="31.356887"><ele>445</ele><time>2017-11-10T09:09:46.000Z</time></trkpt><trkpt lon="34.859296" lat="31.356901"><ele>445</ele><time>2017-11-10T09:09:47.000Z</time></trkpt><trkpt lon="34.859275" lat="31.356914"><ele>445</ele><time>2017-11-10T09:09:48.000Z</time></trkpt><trkpt lon="34.859253" lat="31.356925"><ele>445</ele><time>2017-11-10T09:09:49.000Z</time></trkpt><trkpt lon="34.859229" lat="31.356936"><ele>446</ele><time>2017-11-10T09:09:50.000Z</time></trkpt><trkpt lon="34.859205" lat="31.356946"><ele>446</ele><time>2017-11-10T09:09:51.000Z</time></trkpt><trkpt lon="34.859182" lat="31.356954"><ele>446</ele><time>2017-11-10T09:09:52.000Z</time></trkpt><trkpt lon="34.859156" lat="31.356959"><ele>446</ele><time>2017-11-10T09:09:53.000Z</time></trkpt><trkpt lon="34.859128" lat="31.356963"><ele>446</ele><time>2017-11-10T09:09:54.000Z</time></trkpt><trkpt lon="34.859098" lat="31.356968"><ele>446</ele><time>2017-11-10T09:09:55.000Z</time></trkpt><trkpt lon="34.859069" lat="31.356977"><ele>446</ele><time>2017-11-10T09:09:56.000Z</time></trkpt><trkpt lon="34.859046" lat="31.356984"><ele>446</ele><time>2017-11-10T09:09:57.000Z</time></trkpt><trkpt lon="34.859023" lat="31.356989"><ele>446</ele><time>2017-11-10T09:09:58.000Z</time></trkpt><trkpt lon="34.858998" lat="31.356993"><ele>446</ele><time>2017-11-10T09:09:59.000Z</time></trkpt><trkpt lon="34.858975" lat="31.356999"><ele>446</ele><time>2017-11-10T09:10:00.000Z</time></trkpt><trkpt lon="34.858951" lat="31.357008"><ele>446</ele><time>2017-11-10T09:10:01.000Z</time></trkpt><trkpt lon="34.858925" lat="31.357016"><ele>446.4</ele><time>2017-11-10T09:10:02.000Z</time></trkpt><trkpt lon="34.858896" lat="31.357028"><ele>447</ele><time>2017-11-10T09:10:03.000Z</time></trkpt><trkpt lon="34.858867" lat="31.357038"><ele>447</ele><time>2017-11-10T09:10:04.000Z</time></trkpt><trkpt lon="34.858841" lat="31.357046"><ele>447</ele><time>2017-11-10T09:10:05.000Z</time></trkpt><trkpt lon="34.858813" lat="31.357055"><ele>447</ele><time>2017-11-10T09:10:06.000Z</time></trkpt><trkpt lon="34.858786" lat="31.357066"><ele>447</ele><time>2017-11-10T09:10:07.000Z</time></trkpt><trkpt lon="34.858759" lat="31.357079"><ele>448</ele><time>2017-11-10T09:10:08.000Z</time></trkpt><trkpt lon="34.858736" lat="31.357094"><ele>448</ele><time>2017-11-10T09:10:09.000Z</time></trkpt><trkpt lon="34.858719" lat="31.357114"><ele>448</ele><time>2017-11-10T09:10:10.000Z</time></trkpt><trkpt lon="34.858708" lat="31.357138"><ele>448</ele><time>2017-11-10T09:10:11.000Z</time></trkpt><trkpt lon="34.858704" lat="31.35716"><ele>448</ele><time>2017-11-10T09:10:12.000Z</time></trkpt><trkpt lon="34.858709" lat="31.357181"><ele>448</ele><time>2017-11-10T09:10:13.000Z</time></trkpt><trkpt lon="34.858728" lat="31.357198"><ele>448</ele><time>2017-11-10T09:10:14.000Z</time></trkpt><trkpt lon="34.858754" lat="31.357203"><ele>448</ele><time>2017-11-10T09:10:15.000Z</time></trkpt><trkpt lon="34.85878" lat="31.357199"><ele>448</ele><time>2017-11-10T09:10:16.000Z</time></trkpt><trkpt lon="34.858803" lat="31.357196"><ele>448</ele><time>2017-11-10T09:10:17.000Z</time></trkpt><trkpt lon="34.858803" lat="31.357196"><ele>448</ele><time>2017-11-10T09:10:18.000Z</time></trkpt><trkpt lon="34.858844" lat="31.357197"><ele>448</ele><time>2017-11-10T09:10:19.000Z</time></trkpt><trkpt lon="34.858872" lat="31.357198"><ele>448</ele><time>2017-11-10T09:10:20.000Z</time></trkpt><trkpt lon="34.858907" lat="31.357193"><ele>448</ele><time>2017-11-10T09:10:21.000Z</time></trkpt><trkpt lon="34.858941" lat="31.357186"><ele>448</ele><time>2017-11-10T09:10:22.000Z</time></trkpt><trkpt lon="34.858976" lat="31.357184"><ele>448</ele><time>2017-11-10T09:10:23.000Z</time></trkpt><trkpt lon="34.859008" lat="31.357189"><ele>448</ele><time>2017-11-10T09:10:24.000Z</time></trkpt><trkpt lon="34.859035" lat="31.357198"><ele>449</ele><time>2017-11-10T09:10:25.000Z</time></trkpt><trkpt lon="34.859057" lat="31.357207"><ele>449</ele><time>2017-11-10T09:10:26.000Z</time></trkpt><trkpt lon="34.859057" lat="31.357207"><ele>449</ele><time>2017-11-10T09:10:27.000Z</time></trkpt><trkpt lon="34.859094" lat="31.357216"><ele>449</ele><time>2017-11-10T09:10:28.000Z</time></trkpt><trkpt lon="34.859094" lat="31.357216"><ele>449</ele><time>2017-11-10T09:10:29.000Z</time></trkpt><trkpt lon="34.85912" lat="31.357223"><ele>449</ele><time>2017-11-10T09:10:30.000Z</time></trkpt><trkpt lon="34.859142" lat="31.357226"><ele>449</ele><time>2017-11-10T09:10:31.000Z</time></trkpt><trkpt lon="34.859164" lat="31.357228"><ele>449</ele><time>2017-11-10T09:10:32.000Z</time></trkpt><trkpt lon="34.859197" lat="31.35723"><ele>449</ele><time>2017-11-10T09:10:33.000Z</time></trkpt><trkpt lon="34.859234" lat="31.357235"><ele>449</ele><time>2017-11-10T09:10:34.000Z</time></trkpt><trkpt lon="34.859267" lat="31.357243"><ele>449</ele><time>2017-11-10T09:10:35.000Z</time></trkpt><trkpt lon="34.859295" lat="31.357247"><ele>449</ele><time>2017-11-10T09:10:36.000Z</time></trkpt><trkpt lon="34.859326" lat="31.35725"><ele>449</ele><time>2017-11-10T09:10:37.000Z</time></trkpt><trkpt lon="34.859356" lat="31.357254"><ele>449</ele><time>2017-11-10T09:10:38.000Z</time></trkpt><trkpt lon="34.859383" lat="31.357261"><ele>449</ele><time>2017-11-10T09:10:39.000Z</time></trkpt><trkpt lon="34.859412" lat="31.357269"><ele>449</ele><time>2017-11-10T09:10:40.000Z</time></trkpt><trkpt lon="34.85944" lat="31.357276"><ele>449</ele><time>2017-11-10T09:10:41.000Z</time></trkpt><trkpt lon="34.859473" lat="31.357284"><ele>449</ele><time>2017-11-10T09:10:42.000Z</time></trkpt><trkpt lon="34.859502" lat="31.357296"><ele>449</ele><time>2017-11-10T09:10:43.000Z</time></trkpt><trkpt lon="34.859524" lat="31.35731"><ele>449</ele><time>2017-11-10T09:10:44.000Z</time></trkpt><trkpt lon="34.85954" lat="31.357324"><ele>449</ele><time>2017-11-10T09:10:45.000Z</time></trkpt><trkpt lon="34.85954" lat="31.357324"><ele>449</ele><time>2017-11-10T09:10:46.000Z</time></trkpt><trkpt lon="34.859559" lat="31.357355"><ele>450</ele><time>2017-11-10T09:10:47.000Z</time></trkpt><trkpt lon="34.85957" lat="31.357373"><ele>450</ele><time>2017-11-10T09:10:48.000Z</time></trkpt><trkpt lon="34.859583" lat="31.357389"><ele>450</ele><time>2017-11-10T09:10:49.000Z</time></trkpt><trkpt lon="34.859596" lat="31.357405"><ele>451</ele><time>2017-11-10T09:10:50.000Z</time></trkpt><trkpt lon="34.859609" lat="31.35742"><ele>451</ele><time>2017-11-10T09:10:51.000Z</time></trkpt><trkpt lon="34.859609" lat="31.35742"><ele>451</ele><time>2017-11-10T09:10:52.000Z</time></trkpt><trkpt lon="34.859632" lat="31.357448"><ele>451</ele><time>2017-11-10T09:10:53.000Z</time></trkpt><trkpt lon="34.859632" lat="31.357448"><ele>451</ele><time>2017-11-10T09:10:54.000Z</time></trkpt><trkpt lon="34.859648" lat="31.357479"><ele>451</ele><time>2017-11-10T09:10:55.000Z</time></trkpt><trkpt lon="34.859656" lat="31.357496"><ele>451</ele><time>2017-11-10T09:10:56.000Z</time></trkpt><trkpt lon="34.859663" lat="31.357515"><ele>452</ele><time>2017-11-10T09:10:57.000Z</time></trkpt><trkpt lon="34.859668" lat="31.357534"><ele>452</ele><time>2017-11-10T09:10:58.000Z</time></trkpt><trkpt lon="34.859668" lat="31.357534"><ele>452</ele><time>2017-11-10T09:10:59.000Z</time></trkpt><trkpt lon="34.859681" lat="31.357566"><ele>452</ele><time>2017-11-10T09:11:00.000Z</time></trkpt><trkpt lon="34.859681" lat="31.357566"><ele>452</ele><time>2017-11-10T09:11:01.000Z</time></trkpt><trkpt lon="34.85969" lat="31.357594"><ele>452</ele><time>2017-11-10T09:11:02.000Z</time></trkpt><trkpt lon="34.85969" lat="31.357594"><ele>452</ele><time>2017-11-10T09:11:03.000Z</time></trkpt><trkpt lon="34.859707" lat="31.357618"><ele>452</ele><time>2017-11-10T09:11:04.000Z</time></trkpt><trkpt lon="34.859714" lat="31.357636"><ele>452</ele><time>2017-11-10T09:11:05.000Z</time></trkpt><trkpt lon="34.859719" lat="31.357656"><ele>452</ele><time>2017-11-10T09:11:06.000Z</time></trkpt><trkpt lon="34.859726" lat="31.357676"><ele>452</ele><time>2017-11-10T09:11:07.000Z</time></trkpt><trkpt lon="34.859734" lat="31.357696"><ele>452</ele><time>2017-11-10T09:11:08.000Z</time></trkpt><trkpt lon="34.859747" lat="31.357713"><ele>452</ele><time>2017-11-10T09:11:09.000Z</time></trkpt><trkpt lon="34.859766" lat="31.357726"><ele>452</ele><time>2017-11-10T09:11:10.000Z</time></trkpt><trkpt lon="34.85979" lat="31.35774"><ele>452</ele><time>2017-11-10T09:11:11.000Z</time></trkpt><trkpt lon="34.859819" lat="31.35775"><ele>453</ele><time>2017-11-10T09:11:12.000Z</time></trkpt><trkpt lon="34.859848" lat="31.357756"><ele>453</ele><time>2017-11-10T09:11:13.000Z</time></trkpt><trkpt lon="34.859877" lat="31.357758"><ele>453</ele><time>2017-11-10T09:11:14.000Z</time></trkpt><trkpt lon="34.859908" lat="31.35776"><ele>453</ele><time>2017-11-10T09:11:15.000Z</time></trkpt><trkpt lon="34.859937" lat="31.357768"><ele>453</ele><time>2017-11-10T09:11:16.000Z</time></trkpt><trkpt lon="34.859964" lat="31.357778"><ele>453</ele><time>2017-11-10T09:11:17.000Z</time></trkpt><trkpt lon="34.85999" lat="31.35779"><ele>453</ele><time>2017-11-10T09:11:18.000Z</time></trkpt><trkpt lon="34.860014" lat="31.357806"><ele>453</ele><time>2017-11-10T09:11:19.000Z</time></trkpt><trkpt lon="34.860037" lat="31.357822"><ele>453</ele><time>2017-11-10T09:11:20.000Z</time></trkpt><trkpt lon="34.860059" lat="31.357838"><ele>453</ele><time>2017-11-10T09:11:21.000Z</time></trkpt><trkpt lon="34.860081" lat="31.357856"><ele>453</ele><time>2017-11-10T09:11:22.000Z</time></trkpt><trkpt lon="34.860101" lat="31.357876"><ele>453</ele><time>2017-11-10T09:11:23.000Z</time></trkpt><trkpt lon="34.860118" lat="31.357894"><ele>453</ele><time>2017-11-10T09:11:24.000Z</time></trkpt><trkpt lon="34.860135" lat="31.357912"><ele>453</ele><time>2017-11-10T09:11:25.000Z</time></trkpt><trkpt lon="34.860156" lat="31.357929"><ele>453</ele><time>2017-11-10T09:11:26.000Z</time></trkpt><trkpt lon="34.86018" lat="31.357944"><ele>453</ele><time>2017-11-10T09:11:27.000Z</time></trkpt><trkpt lon="34.860203" lat="31.357962"><ele>453</ele><time>2017-11-10T09:11:28.000Z</time></trkpt><trkpt lon="34.860222" lat="31.35798"><ele>454</ele><time>2017-11-10T09:11:29.000Z</time></trkpt><trkpt lon="34.86024" lat="31.358002"><ele>454</ele><time>2017-11-10T09:11:30.000Z</time></trkpt><trkpt lon="34.860257" lat="31.35802"><ele>454</ele><time>2017-11-10T09:11:31.000Z</time></trkpt><trkpt lon="34.860277" lat="31.358038"><ele>454</ele><time>2017-11-10T09:11:32.000Z</time></trkpt><trkpt lon="34.8603" lat="31.358054"><ele>454</ele><time>2017-11-10T09:11:33.000Z</time></trkpt><trkpt lon="34.860322" lat="31.358077"><ele>455</ele><time>2017-11-10T09:11:34.000Z</time></trkpt><trkpt lon="34.860341" lat="31.358102"><ele>455</ele><time>2017-11-10T09:11:35.000Z</time></trkpt><trkpt lon="34.860355" lat="31.35813"><ele>456</ele><time>2017-11-10T09:11:36.000Z</time></trkpt><trkpt lon="34.860364" lat="31.358156"><ele>456</ele><time>2017-11-10T09:11:37.000Z</time></trkpt><trkpt lon="34.860372" lat="31.358182"><ele>456</ele><time>2017-11-10T09:11:38.000Z</time></trkpt><trkpt lon="34.860379" lat="31.358202"><ele>457</ele><time>2017-11-10T09:11:39.000Z</time></trkpt><trkpt lon="34.860383" lat="31.35822"><ele>457</ele><time>2017-11-10T09:11:40.000Z</time></trkpt><trkpt lon="34.860387" lat="31.358238"><ele>457</ele><time>2017-11-10T09:11:41.000Z</time></trkpt><trkpt lon="34.860394" lat="31.358256"><ele>458</ele><time>2017-11-10T09:11:42.000Z</time></trkpt><trkpt lon="34.860407" lat="31.358274"><ele>458</ele><time>2017-11-10T09:11:43.000Z</time></trkpt><trkpt lon="34.860423" lat="31.358292"><ele>458</ele><time>2017-11-10T09:11:44.000Z</time></trkpt><trkpt lon="34.860439" lat="31.358308"><ele>458</ele><time>2017-11-10T09:11:45.000Z</time></trkpt><trkpt lon="34.860451" lat="31.358327"><ele>458</ele><time>2017-11-10T09:11:46.000Z</time></trkpt><trkpt lon="34.860461" lat="31.358346"><ele>458</ele><time>2017-11-10T09:11:47.000Z</time></trkpt><trkpt lon="34.860468" lat="31.358363"><ele>458</ele><time>2017-11-10T09:11:48.000Z</time></trkpt><trkpt lon="34.860468" lat="31.358363"><ele>458</ele><time>2017-11-10T09:11:49.000Z</time></trkpt><trkpt lon="34.860483" lat="31.358396"><ele>458</ele><time>2017-11-10T09:11:50.000Z</time></trkpt><trkpt lon="34.860491" lat="31.358412"><ele>458</ele><time>2017-11-10T09:11:51.000Z</time></trkpt><trkpt lon="34.860491" lat="31.358412"><ele>458</ele><time>2017-11-10T09:11:52.000Z</time></trkpt><trkpt lon="34.860506" lat="31.358438"><ele>458</ele><time>2017-11-10T09:11:53.000Z</time></trkpt><trkpt lon="34.860506" lat="31.358438"><ele>458</ele><time>2017-11-10T09:11:54.000Z</time></trkpt><trkpt lon="34.860524" lat="31.358468"><ele>458</ele><time>2017-11-10T09:11:55.000Z</time></trkpt><trkpt lon="34.860533" lat="31.358488"><ele>458</ele><time>2017-11-10T09:11:56.000Z</time></trkpt><trkpt lon="34.860542" lat="31.358506"><ele>459</ele><time>2017-11-10T09:11:57.000Z</time></trkpt><trkpt lon="34.860549" lat="31.358524"><ele>459</ele><time>2017-11-10T09:11:58.000Z</time></trkpt><trkpt lon="34.860554" lat="31.358544"><ele>459</ele><time>2017-11-10T09:11:59.000Z</time></trkpt><trkpt lon="34.860556" lat="31.35857"><ele>459</ele><time>2017-11-10T09:12:00.000Z</time></trkpt><trkpt lon="34.860556" lat="31.358597"><ele>460</ele><time>2017-11-10T09:12:01.000Z</time></trkpt><trkpt lon="34.86056" lat="31.358622"><ele>460</ele><time>2017-11-10T09:12:02.000Z</time></trkpt><trkpt lon="34.860564" lat="31.358644"><ele>460</ele><time>2017-11-10T09:12:03.000Z</time></trkpt><trkpt lon="34.86057" lat="31.358665"><ele>461</ele><time>2017-11-10T09:12:04.000Z</time></trkpt><trkpt lon="34.860572" lat="31.358685"><ele>461</ele><time>2017-11-10T09:12:05.000Z</time></trkpt><trkpt lon="34.860574" lat="31.358703"><ele>461</ele><time>2017-11-10T09:12:06.000Z</time></trkpt><trkpt lon="34.860574" lat="31.358703"><ele>462</ele><time>2017-11-10T09:12:07.000Z</time></trkpt><trkpt lon="34.860574" lat="31.358736"><ele>462</ele><time>2017-11-10T09:12:08.000Z</time></trkpt><trkpt lon="34.860572" lat="31.358757"><ele>462</ele><time>2017-11-10T09:12:09.000Z</time></trkpt><trkpt lon="34.860572" lat="31.358778"><ele>462</ele><time>2017-11-10T09:12:10.000Z</time></trkpt><trkpt lon="34.860568" lat="31.358798"><ele>462</ele><time>2017-11-10T09:12:11.000Z</time></trkpt><trkpt lon="34.860563" lat="31.358818"><ele>462</ele><time>2017-11-10T09:12:12.000Z</time></trkpt><trkpt lon="34.860558" lat="31.358837"><ele>462</ele><time>2017-11-10T09:12:13.000Z</time></trkpt><trkpt lon="34.86055" lat="31.358856"><ele>462</ele><time>2017-11-10T09:12:14.000Z</time></trkpt><trkpt lon="34.860542" lat="31.358873"><ele>462</ele><time>2017-11-10T09:12:15.000Z</time></trkpt><trkpt lon="34.860542" lat="31.358873"><ele>462</ele><time>2017-11-10T09:12:16.000Z</time></trkpt><trkpt lon="34.860528" lat="31.358906"><ele>462</ele><time>2017-11-10T09:12:17.000Z</time></trkpt><trkpt lon="34.860518" lat="31.358922"><ele>463</ele><time>2017-11-10T09:12:18.000Z</time></trkpt><trkpt lon="34.860506" lat="31.358939"><ele>463</ele><time>2017-11-10T09:12:19.000Z</time></trkpt><trkpt lon="34.86049" lat="31.358955"><ele>464</ele><time>2017-11-10T09:12:20.000Z</time></trkpt><trkpt lon="34.860476" lat="31.35897"><ele>464</ele><time>2017-11-10T09:12:21.000Z</time></trkpt><trkpt lon="34.860464" lat="31.358986"><ele>464</ele><time>2017-11-10T09:12:22.000Z</time></trkpt><trkpt lon="34.860452" lat="31.359005"><ele>464</ele><time>2017-11-10T09:12:23.000Z</time></trkpt><trkpt lon="34.860444" lat="31.359023"><ele>464</ele><time>2017-11-10T09:12:24.000Z</time></trkpt><trkpt lon="34.860434" lat="31.35904"><ele>464</ele><time>2017-11-10T09:12:25.000Z</time></trkpt><trkpt lon="34.860423" lat="31.359056"><ele>464</ele><time>2017-11-10T09:12:26.000Z</time></trkpt><trkpt lon="34.860412" lat="31.359072"><ele>464</ele><time>2017-11-10T09:12:27.000Z</time></trkpt><trkpt lon="34.8604" lat="31.359087"><ele>465</ele><time>2017-11-10T09:12:28.000Z</time></trkpt><trkpt lon="34.860384" lat="31.3591"><ele>465</ele><time>2017-11-10T09:12:29.000Z</time></trkpt><trkpt lon="34.860368" lat="31.359118"><ele>465</ele><time>2017-11-10T09:12:30.000Z</time></trkpt><trkpt lon="34.860354" lat="31.359136"><ele>465</ele><time>2017-11-10T09:12:31.000Z</time></trkpt><trkpt lon="34.860344" lat="31.359156"><ele>465</ele><time>2017-11-10T09:12:32.000Z</time></trkpt><trkpt lon="34.860332" lat="31.359174"><ele>465</ele><time>2017-11-10T09:12:33.000Z</time></trkpt><trkpt lon="34.860318" lat="31.35919"><ele>465</ele><time>2017-11-10T09:12:34.000Z</time></trkpt><trkpt lon="34.860306" lat="31.359206"><ele>466</ele><time>2017-11-10T09:12:35.000Z</time></trkpt><trkpt lon="34.860296" lat="31.359222"><ele>466</ele><time>2017-11-10T09:12:36.000Z</time></trkpt><trkpt lon="34.86029" lat="31.35924"><ele>466</ele><time>2017-11-10T09:12:37.000Z</time></trkpt><trkpt lon="34.860283" lat="31.359258"><ele>466</ele><time>2017-11-10T09:12:38.000Z</time></trkpt><trkpt lon="34.860276" lat="31.359276"><ele>467</ele><time>2017-11-10T09:12:39.000Z</time></trkpt><trkpt lon="34.860272" lat="31.359298"><ele>467</ele><time>2017-11-10T09:12:40.000Z</time></trkpt><trkpt lon="34.86027" lat="31.359317"><ele>467</ele><time>2017-11-10T09:12:41.000Z</time></trkpt><trkpt lon="34.860266" lat="31.359336"><ele>467</ele><time>2017-11-10T09:12:42.000Z</time></trkpt><trkpt lon="34.860268" lat="31.359357"><ele>467</ele><time>2017-11-10T09:12:43.000Z</time></trkpt><trkpt lon="34.860272" lat="31.359375"><ele>468</ele><time>2017-11-10T09:12:44.000Z</time></trkpt><trkpt lon="34.860276" lat="31.359393"><ele>468</ele><time>2017-11-10T09:12:45.000Z</time></trkpt><trkpt lon="34.860284" lat="31.359411"><ele>468</ele><time>2017-11-10T09:12:46.000Z</time></trkpt><trkpt lon="34.860294" lat="31.359432"><ele>468</ele><time>2017-11-10T09:12:47.000Z</time></trkpt><trkpt lon="34.86031" lat="31.359454"><ele>468</ele><time>2017-11-10T09:12:48.000Z</time></trkpt><trkpt lon="34.860328" lat="31.359477"><ele>468</ele><time>2017-11-10T09:12:49.000Z</time></trkpt><trkpt lon="34.86035" lat="31.359499"><ele>467</ele><time>2017-11-10T09:12:50.000Z</time></trkpt><trkpt lon="34.860372" lat="31.359523"><ele>467</ele><time>2017-11-10T09:12:51.000Z</time></trkpt><trkpt lon="34.860398" lat="31.359544"><ele>467</ele><time>2017-11-10T09:12:52.000Z</time></trkpt><trkpt lon="34.860428" lat="31.359567"><ele>467</ele><time>2017-11-10T09:12:53.000Z</time></trkpt><trkpt lon="34.86046" lat="31.359594"><ele>467</ele><time>2017-11-10T09:12:54.000Z</time></trkpt><trkpt lon="34.860495" lat="31.359617"><ele>467</ele><time>2017-11-10T09:12:55.000Z</time></trkpt><trkpt lon="34.860528" lat="31.359634"><ele>467</ele><time>2017-11-10T09:12:56.000Z</time></trkpt><trkpt lon="34.860556" lat="31.359649"><ele>467</ele><time>2017-11-10T09:12:57.000Z</time></trkpt><trkpt lon="34.860581" lat="31.359663"><ele>467</ele><time>2017-11-10T09:12:58.000Z</time></trkpt><trkpt lon="34.860608" lat="31.359682"><ele>467</ele><time>2017-11-10T09:12:59.000Z</time></trkpt><trkpt lon="34.860636" lat="31.359707"><ele>467</ele><time>2017-11-10T09:13:00.000Z</time></trkpt><trkpt lon="34.860655" lat="31.359728"><ele>467</ele><time>2017-11-10T09:13:01.000Z</time></trkpt><trkpt lon="34.860667" lat="31.359743"><ele>467</ele><time>2017-11-10T09:13:02.000Z</time></trkpt><trkpt lon="34.860683" lat="31.359757"><ele>468</ele><time>2017-11-10T09:13:03.000Z</time></trkpt><trkpt lon="34.860702" lat="31.359771"><ele>468</ele><time>2017-11-10T09:13:04.000Z</time></trkpt><trkpt lon="34.860722" lat="31.359786"><ele>468</ele><time>2017-11-10T09:13:05.000Z</time></trkpt><trkpt lon="34.860739" lat="31.359812"><ele>468</ele><time>2017-11-10T09:13:06.000Z</time></trkpt><trkpt lon="34.860753" lat="31.359837"><ele>468</ele><time>2017-11-10T09:13:07.000Z</time></trkpt><trkpt lon="34.860763" lat="31.359858"><ele>468</ele><time>2017-11-10T09:13:08.000Z</time></trkpt><trkpt lon="34.860773" lat="31.359875"><ele>468</ele><time>2017-11-10T09:13:09.000Z</time></trkpt><trkpt lon="34.860773" lat="31.359875"><ele>468</ele><time>2017-11-10T09:13:10.000Z</time></trkpt><trkpt lon="34.860786" lat="31.359901"><ele>468</ele><time>2017-11-10T09:13:11.000Z</time></trkpt><trkpt lon="34.860793" lat="31.359919"><ele>468</ele><time>2017-11-10T09:13:12.000Z</time></trkpt><trkpt lon="34.860799" lat="31.359939"><ele>468</ele><time>2017-11-10T09:13:13.000Z</time></trkpt><trkpt lon="34.860809" lat="31.359959"><ele>469</ele><time>2017-11-10T09:13:14.000Z</time></trkpt><trkpt lon="34.86082" lat="31.359982"><ele>469</ele><time>2017-11-10T09:13:15.000Z</time></trkpt><trkpt lon="34.860829" lat="31.360006"><ele>469</ele><time>2017-11-10T09:13:16.000Z</time></trkpt><trkpt lon="34.860831" lat="31.360027"><ele>469</ele><time>2017-11-10T09:13:17.000Z</time></trkpt><trkpt lon="34.860833" lat="31.360048"><ele>469</ele><time>2017-11-10T09:13:18.000Z</time></trkpt><trkpt lon="34.860839" lat="31.360069"><ele>469</ele><time>2017-11-10T09:13:19.000Z</time></trkpt><trkpt lon="34.860848" lat="31.360088"><ele>469</ele><time>2017-11-10T09:13:20.000Z</time></trkpt><trkpt lon="34.860858" lat="31.360105"><ele>469</ele><time>2017-11-10T09:13:21.000Z</time></trkpt><trkpt lon="34.860868" lat="31.360122"><ele>469</ele><time>2017-11-10T09:13:22.000Z</time></trkpt><trkpt lon="34.860884" lat="31.360137"><ele>469</ele><time>2017-11-10T09:13:23.000Z</time></trkpt><trkpt lon="34.860905" lat="31.360152"><ele>469</ele><time>2017-11-10T09:13:24.000Z</time></trkpt><trkpt lon="34.86093" lat="31.360173"><ele>469</ele><time>2017-11-10T09:13:25.000Z</time></trkpt><trkpt lon="34.86096" lat="31.3602"><ele>469</ele><time>2017-11-10T09:13:26.000Z</time></trkpt><trkpt lon="34.860995" lat="31.360233"><ele>469</ele><time>2017-11-10T09:13:27.000Z</time></trkpt><trkpt lon="34.861023" lat="31.360266"><ele>468</ele><time>2017-11-10T09:13:28.000Z</time></trkpt><trkpt lon="34.861045" lat="31.360297"><ele>468</ele><time>2017-11-10T09:13:29.000Z</time></trkpt><trkpt lon="34.861066" lat="31.360327"><ele>468</ele><time>2017-11-10T09:13:30.000Z</time></trkpt><trkpt lon="34.861087" lat="31.360351"><ele>468</ele><time>2017-11-10T09:13:31.000Z</time></trkpt><trkpt lon="34.861111" lat="31.360375"><ele>468</ele><time>2017-11-10T09:13:32.000Z</time></trkpt><trkpt lon="34.861138" lat="31.360398"><ele>468</ele><time>2017-11-10T09:13:33.000Z</time></trkpt><trkpt lon="34.861169" lat="31.360427"><ele>468</ele><time>2017-11-10T09:13:34.000Z</time></trkpt><trkpt lon="34.861206" lat="31.36046"><ele>467</ele><time>2017-11-10T09:13:35.000Z</time></trkpt><trkpt lon="34.861233" lat="31.360497"><ele>467</ele><time>2017-11-10T09:13:36.000Z</time></trkpt><trkpt lon="34.861246" lat="31.360537"><ele>467</ele><time>2017-11-10T09:13:37.000Z</time></trkpt><trkpt lon="34.861247" lat="31.360575"><ele>467</ele><time>2017-11-10T09:13:38.000Z</time></trkpt><trkpt lon="34.861245" lat="31.36061"><ele>467</ele><time>2017-11-10T09:13:39.000Z</time></trkpt><trkpt lon="34.861246" lat="31.36064"><ele>467</ele><time>2017-11-10T09:13:40.000Z</time></trkpt><trkpt lon="34.861247" lat="31.360665"><ele>467</ele><time>2017-11-10T09:13:41.000Z</time></trkpt><trkpt lon="34.861251" lat="31.36069"><ele>467</ele><time>2017-11-10T09:13:42.000Z</time></trkpt><trkpt lon="34.861259" lat="31.360718"><ele>467</ele><time>2017-11-10T09:13:43.000Z</time></trkpt><trkpt lon="34.861265" lat="31.360748"><ele>467</ele><time>2017-11-10T09:13:44.000Z</time></trkpt><trkpt lon="34.861264" lat="31.360777"><ele>467</ele><time>2017-11-10T09:13:45.000Z</time></trkpt><trkpt lon="34.861256" lat="31.360796"><ele>467</ele><time>2017-11-10T09:13:46.000Z</time></trkpt><trkpt lon="34.861246" lat="31.360817"><ele>468</ele><time>2017-11-10T09:13:47.000Z</time></trkpt><trkpt lon="34.861238" lat="31.360834"><ele>468</ele><time>2017-11-10T09:13:48.000Z</time></trkpt><trkpt lon="34.861229" lat="31.360853"><ele>468</ele><time>2017-11-10T09:13:49.000Z</time></trkpt><trkpt lon="34.861221" lat="31.360872"><ele>468</ele><time>2017-11-10T09:13:50.000Z</time></trkpt><trkpt lon="34.86121" lat="31.360888"><ele>468</ele><time>2017-11-10T09:13:51.000Z</time></trkpt><trkpt lon="34.861192" lat="31.360903"><ele>469</ele><time>2017-11-10T09:13:52.000Z</time></trkpt><trkpt lon="34.861169" lat="31.360908"><ele>469</ele><time>2017-11-10T09:13:53.000Z</time></trkpt><trkpt lon="34.861146" lat="31.360898"><ele>469</ele><time>2017-11-10T09:13:54.000Z</time></trkpt><trkpt lon="34.861134" lat="31.360879"><ele>469</ele><time>2017-11-10T09:13:55.000Z</time></trkpt><trkpt lon="34.861136" lat="31.360853"><ele>469</ele><time>2017-11-10T09:13:56.000Z</time></trkpt><trkpt lon="34.861139" lat="31.360824"><ele>469</ele><time>2017-11-10T09:13:57.000Z</time></trkpt><trkpt lon="34.861138" lat="31.360794"><ele>469</ele><time>2017-11-10T09:13:58.000Z</time></trkpt><trkpt lon="34.861129" lat="31.360762"><ele>469</ele><time>2017-11-10T09:13:59.000Z</time></trkpt><trkpt lon="34.861111" lat="31.360735"><ele>469</ele><time>2017-11-10T09:14:00.000Z</time></trkpt><trkpt lon="34.86109" lat="31.360715"><ele>469</ele><time>2017-11-10T09:14:01.000Z</time></trkpt><trkpt lon="34.861074" lat="31.3607"><ele>469</ele><time>2017-11-10T09:14:02.000Z</time></trkpt><trkpt lon="34.861058" lat="31.360686"><ele>470</ele><time>2017-11-10T09:14:03.000Z</time></trkpt><trkpt lon="34.861044" lat="31.360673"><ele>470</ele><time>2017-11-10T09:14:04.000Z</time></trkpt><trkpt lon="34.861029" lat="31.360657"><ele>470</ele><time>2017-11-10T09:14:05.000Z</time></trkpt><trkpt lon="34.861013" lat="31.360645"><ele>470</ele><time>2017-11-10T09:14:06.000Z</time></trkpt><trkpt lon="34.861013" lat="31.360645"><ele>470</ele><time>2017-11-10T09:14:07.000Z</time></trkpt><trkpt lon="34.860998" lat="31.36062"><ele>471</ele><time>2017-11-10T09:14:08.000Z</time></trkpt><trkpt lon="34.860998" lat="31.36062"><ele>471</ele><time>2017-11-10T09:14:09.000Z</time></trkpt><trkpt lon="34.860985" lat="31.360588"><ele>471</ele><time>2017-11-10T09:14:10.000Z</time></trkpt><trkpt lon="34.860969" lat="31.360574"><ele>471</ele><time>2017-11-10T09:14:11.000Z</time></trkpt><trkpt lon="34.860951" lat="31.360564"><ele>471</ele><time>2017-11-10T09:14:12.000Z</time></trkpt><trkpt lon="34.860951" lat="31.360564"><ele>472</ele><time>2017-11-10T09:14:13.000Z</time></trkpt><trkpt lon="34.860928" lat="31.360538"><ele>472</ele><time>2017-11-10T09:14:14.000Z</time></trkpt><trkpt lon="34.860918" lat="31.360521"><ele>472</ele><time>2017-11-10T09:14:15.000Z</time></trkpt><trkpt lon="34.860908" lat="31.360501"><ele>472</ele><time>2017-11-10T09:14:16.000Z</time></trkpt><trkpt lon="34.860899" lat="31.360481"><ele>472</ele><time>2017-11-10T09:14:17.000Z</time></trkpt><trkpt lon="34.860886" lat="31.36046"><ele>472</ele><time>2017-11-10T09:14:18.000Z</time></trkpt><trkpt lon="34.860863" lat="31.360446"><ele>472</ele><time>2017-11-10T09:14:19.000Z</time></trkpt><trkpt lon="34.860839" lat="31.360442"><ele>472</ele><time>2017-11-10T09:14:20.000Z</time></trkpt><trkpt lon="34.860821" lat="31.360454"><ele>472</ele><time>2017-11-10T09:14:21.000Z</time></trkpt><trkpt lon="34.860815" lat="31.360475"><ele>472</ele><time>2017-11-10T09:14:22.000Z</time></trkpt><trkpt lon="34.860813" lat="31.360498"><ele>473</ele><time>2017-11-10T09:14:23.000Z</time></trkpt><trkpt lon="34.860813" lat="31.360521"><ele>473</ele><time>2017-11-10T09:14:24.000Z</time></trkpt><trkpt lon="34.860812" lat="31.360544"><ele>473</ele><time>2017-11-10T09:14:25.000Z</time></trkpt><trkpt lon="34.86081" lat="31.360565"><ele>473</ele><time>2017-11-10T09:14:26.000Z</time></trkpt><trkpt lon="34.860804" lat="31.360588"><ele>474</ele><time>2017-11-10T09:14:27.000Z</time></trkpt><trkpt lon="34.860793" lat="31.360608"><ele>474</ele><time>2017-11-10T09:14:28.000Z</time></trkpt><trkpt lon="34.860782" lat="31.360624"><ele>474</ele><time>2017-11-10T09:14:29.000Z</time></trkpt><trkpt lon="34.860782" lat="31.360624"><ele>474</ele><time>2017-11-10T09:14:30.000Z</time></trkpt><trkpt lon="34.860777" lat="31.360657"><ele>474</ele><time>2017-11-10T09:14:31.000Z</time></trkpt><trkpt lon="34.860777" lat="31.360657"><ele>475</ele><time>2017-11-10T09:14:32.000Z</time></trkpt><trkpt lon="34.860786" lat="31.360687"><ele>475</ele><time>2017-11-10T09:14:33.000Z</time></trkpt><trkpt lon="34.860786" lat="31.360687"><ele>475</ele><time>2017-11-10T09:14:34.000Z</time></trkpt><trkpt lon="34.860792" lat="31.360708"><ele>475</ele><time>2017-11-10T09:14:35.000Z</time></trkpt><trkpt lon="34.860798" lat="31.360725"><ele>475</ele><time>2017-11-10T09:14:36.000Z</time></trkpt><trkpt lon="34.860809" lat="31.360748"><ele>475</ele><time>2017-11-10T09:14:37.000Z</time></trkpt><trkpt lon="34.86082" lat="31.360772"><ele>475</ele><time>2017-11-10T09:14:38.000Z</time></trkpt><trkpt lon="34.860826" lat="31.360796"><ele>475</ele><time>2017-11-10T09:14:39.000Z</time></trkpt><trkpt lon="34.860827" lat="31.360818"><ele>475</ele><time>2017-11-10T09:14:40.000Z</time></trkpt><trkpt lon="34.860828" lat="31.360838"><ele>475</ele><time>2017-11-10T09:14:41.000Z</time></trkpt><trkpt lon="34.86083" lat="31.360858"><ele>475</ele><time>2017-11-10T09:14:42.000Z</time></trkpt><trkpt lon="34.860832" lat="31.360878"><ele>475</ele><time>2017-11-10T09:14:43.000Z</time></trkpt><trkpt lon="34.860833" lat="31.360897"><ele>475</ele><time>2017-11-10T09:14:44.000Z</time></trkpt><trkpt lon="34.860838" lat="31.360921"><ele>475</ele><time>2017-11-10T09:14:45.000Z</time></trkpt><trkpt lon="34.860841" lat="31.360944"><ele>475</ele><time>2017-11-10T09:14:46.000Z</time></trkpt><trkpt lon="34.860839" lat="31.360966"><ele>475</ele><time>2017-11-10T09:14:47.000Z</time></trkpt><trkpt lon="34.860831" lat="31.360989"><ele>475</ele><time>2017-11-10T09:14:48.000Z</time></trkpt><trkpt lon="34.860819" lat="31.361011"><ele>475</ele><time>2017-11-10T09:14:49.000Z</time></trkpt><trkpt lon="34.860804" lat="31.36103"><ele>475</ele><time>2017-11-10T09:14:50.000Z</time></trkpt><trkpt lon="34.860782" lat="31.361049"><ele>475</ele><time>2017-11-10T09:14:51.000Z</time></trkpt><trkpt lon="34.860755" lat="31.361063"><ele>476</ele><time>2017-11-10T09:14:52.000Z</time></trkpt><trkpt lon="34.860729" lat="31.361069"><ele>476</ele><time>2017-11-10T09:14:53.000Z</time></trkpt><trkpt lon="34.860706" lat="31.361072"><ele>476</ele><time>2017-11-10T09:14:54.000Z</time></trkpt><trkpt lon="34.860685" lat="31.36108"><ele>476</ele><time>2017-11-10T09:14:55.000Z</time></trkpt><trkpt lon="34.860665" lat="31.361091"><ele>476</ele><time>2017-11-10T09:14:56.000Z</time></trkpt><trkpt lon="34.86065" lat="31.361104"><ele>476</ele><time>2017-11-10T09:14:57.000Z</time></trkpt><trkpt lon="34.860637" lat="31.36112"><ele>476</ele><time>2017-11-10T09:14:58.000Z</time></trkpt><trkpt lon="34.860625" lat="31.361136"><ele>476</ele><time>2017-11-10T09:14:59.000Z</time></trkpt><trkpt lon="34.860612" lat="31.361151"><ele>476</ele><time>2017-11-10T09:15:00.000Z</time></trkpt><trkpt lon="34.860599" lat="31.361168"><ele>476</ele><time>2017-11-10T09:15:01.000Z</time></trkpt><trkpt lon="34.86059" lat="31.361189"><ele>476</ele><time>2017-11-10T09:15:02.000Z</time></trkpt><trkpt lon="34.860584" lat="31.36121"><ele>476</ele><time>2017-11-10T09:15:03.000Z</time></trkpt><trkpt lon="34.860572" lat="31.361231"><ele>476</ele><time>2017-11-10T09:15:04.000Z</time></trkpt><trkpt lon="34.860557" lat="31.361257"><ele>476</ele><time>2017-11-10T09:15:05.000Z</time></trkpt><trkpt lon="34.860545" lat="31.361287"><ele>476</ele><time>2017-11-10T09:15:06.000Z</time></trkpt><trkpt lon="34.860538" lat="31.36132"><ele>476</ele><time>2017-11-10T09:15:07.000Z</time></trkpt><trkpt lon="34.860531" lat="31.36135"><ele>476</ele><time>2017-11-10T09:15:08.000Z</time></trkpt><trkpt lon="34.860517" lat="31.361376"><ele>476</ele><time>2017-11-10T09:15:09.000Z</time></trkpt><trkpt lon="34.860499" lat="31.3614"><ele>476</ele><time>2017-11-10T09:15:10.000Z</time></trkpt><trkpt lon="34.860482" lat="31.361425"><ele>476</ele><time>2017-11-10T09:15:11.000Z</time></trkpt><trkpt lon="34.860472" lat="31.361451"><ele>477</ele><time>2017-11-10T09:15:12.000Z</time></trkpt><trkpt lon="34.860464" lat="31.361472"><ele>477</ele><time>2017-11-10T09:15:13.000Z</time></trkpt><trkpt lon="34.860457" lat="31.361493"><ele>477</ele><time>2017-11-10T09:15:14.000Z</time></trkpt><trkpt lon="34.860445" lat="31.361515"><ele>477</ele><time>2017-11-10T09:15:15.000Z</time></trkpt><trkpt lon="34.86043" lat="31.361539"><ele>477</ele><time>2017-11-10T09:15:16.000Z</time></trkpt><trkpt lon="34.860416" lat="31.361566"><ele>477</ele><time>2017-11-10T09:15:17.000Z</time></trkpt><trkpt lon="34.860404" lat="31.361596"><ele>477</ele><time>2017-11-10T09:15:18.000Z</time></trkpt><trkpt lon="34.860396" lat="31.361624"><ele>478</ele><time>2017-11-10T09:15:19.000Z</time></trkpt><trkpt lon="34.860391" lat="31.361649"><ele>478</ele><time>2017-11-10T09:15:20.000Z</time></trkpt><trkpt lon="34.860388" lat="31.361674"><ele>478</ele><time>2017-11-10T09:15:21.000Z</time></trkpt><trkpt lon="34.860381" lat="31.361697"><ele>479</ele><time>2017-11-10T09:15:22.000Z</time></trkpt><trkpt lon="34.860369" lat="31.361716"><ele>479</ele><time>2017-11-10T09:15:23.000Z</time></trkpt><trkpt lon="34.860355" lat="31.361732"><ele>479</ele><time>2017-11-10T09:15:24.000Z</time></trkpt><trkpt lon="34.860341" lat="31.361749"><ele>479</ele><time>2017-11-10T09:15:25.000Z</time></trkpt><trkpt lon="34.860328" lat="31.361765"><ele>479</ele><time>2017-11-10T09:15:26.000Z</time></trkpt><trkpt lon="34.860312" lat="31.361782"><ele>479</ele><time>2017-11-10T09:15:27.000Z</time></trkpt><trkpt lon="34.860291" lat="31.3618"><ele>479</ele><time>2017-11-10T09:15:28.000Z</time></trkpt><trkpt lon="34.860273" lat="31.361822"><ele>479</ele><time>2017-11-10T09:15:29.000Z</time></trkpt><trkpt lon="34.860258" lat="31.361842"><ele>479</ele><time>2017-11-10T09:15:30.000Z</time></trkpt><trkpt lon="34.860244" lat="31.361862"><ele>479</ele><time>2017-11-10T09:15:31.000Z</time></trkpt><trkpt lon="34.860228" lat="31.36188"><ele>479</ele><time>2017-11-10T09:15:32.000Z</time></trkpt><trkpt lon="34.860208" lat="31.361894"><ele>479</ele><time>2017-11-10T09:15:33.000Z</time></trkpt><trkpt lon="34.860182" lat="31.361904"><ele>479</ele><time>2017-11-10T09:15:34.000Z</time></trkpt><trkpt lon="34.860151" lat="31.361915"><ele>479</ele><time>2017-11-10T09:15:35.000Z</time></trkpt><trkpt lon="34.860122" lat="31.361928"><ele>479</ele><time>2017-11-10T09:15:36.000Z</time></trkpt><trkpt lon="34.860095" lat="31.361943"><ele>479</ele><time>2017-11-10T09:15:37.000Z</time></trkpt><trkpt lon="34.860068" lat="31.361958"><ele>479</ele><time>2017-11-10T09:15:38.000Z</time></trkpt><trkpt lon="34.860038" lat="31.361972"><ele>479</ele><time>2017-11-10T09:15:39.000Z</time></trkpt><trkpt lon="34.860002" lat="31.361985"><ele>479</ele><time>2017-11-10T09:15:40.000Z</time></trkpt><trkpt lon="34.859959" lat="31.362002"><ele>479</ele><time>2017-11-10T09:15:41.000Z</time></trkpt><trkpt lon="34.859907" lat="31.362032"><ele>479</ele><time>2017-11-10T09:15:42.000Z</time></trkpt><trkpt lon="34.859861" lat="31.362067"><ele>478</ele><time>2017-11-10T09:15:43.000Z</time></trkpt><trkpt lon="34.859815" lat="31.362101"><ele>478</ele><time>2017-11-10T09:15:44.000Z</time></trkpt><trkpt lon="34.85978" lat="31.362132"><ele>478</ele><time>2017-11-10T09:15:45.000Z</time></trkpt><trkpt lon="34.859747" lat="31.362169"><ele>478</ele><time>2017-11-10T09:15:46.000Z</time></trkpt><trkpt lon="34.859711" lat="31.362208"><ele>478</ele><time>2017-11-10T09:15:47.000Z</time></trkpt><trkpt lon="34.85968" lat="31.362241"><ele>478</ele><time>2017-11-10T09:15:48.000Z</time></trkpt><trkpt lon="34.859652" lat="31.362265"><ele>478</ele><time>2017-11-10T09:15:49.000Z</time></trkpt><trkpt lon="34.859626" lat="31.36229"><ele>478</ele><time>2017-11-10T09:15:50.000Z</time></trkpt><trkpt lon="34.8596" lat="31.362316"><ele>478</ele><time>2017-11-10T09:15:51.000Z</time></trkpt><trkpt lon="34.859574" lat="31.362342"><ele>478</ele><time>2017-11-10T09:15:52.000Z</time></trkpt><trkpt lon="34.859548" lat="31.362364"><ele>478</ele><time>2017-11-10T09:15:53.000Z</time></trkpt><trkpt lon="34.859525" lat="31.362379"><ele>478</ele><time>2017-11-10T09:15:54.000Z</time></trkpt><trkpt lon="34.859499" lat="31.36239"><ele>478</ele><time>2017-11-10T09:15:55.000Z</time></trkpt><trkpt lon="34.859466" lat="31.362399"><ele>478</ele><time>2017-11-10T09:15:56.000Z</time></trkpt><trkpt lon="34.859431" lat="31.3624"><ele>478</ele><time>2017-11-10T09:15:57.000Z</time></trkpt><trkpt lon="34.859392" lat="31.362402"><ele>478</ele><time>2017-11-10T09:15:58.000Z</time></trkpt><trkpt lon="34.859345" lat="31.362407"><ele>478</ele><time>2017-11-10T09:15:59.000Z</time></trkpt><trkpt lon="34.859295" lat="31.362411"><ele>478</ele><time>2017-11-10T09:16:00.000Z</time></trkpt><trkpt lon="34.859246" lat="31.362416"><ele>477</ele><time>2017-11-10T09:16:01.000Z</time></trkpt><trkpt lon="34.859205" lat="31.362416"><ele>477</ele><time>2017-11-10T09:16:02.000Z</time></trkpt><trkpt lon="34.859166" lat="31.362418"><ele>477</ele><time>2017-11-10T09:16:03.000Z</time></trkpt><trkpt lon="34.859126" lat="31.362419"><ele>477</ele><time>2017-11-10T09:16:04.000Z</time></trkpt><trkpt lon="34.859094" lat="31.362421"><ele>477</ele><time>2017-11-10T09:16:05.000Z</time></trkpt><trkpt lon="34.859068" lat="31.362422"><ele>477</ele><time>2017-11-10T09:16:06.000Z</time></trkpt><trkpt lon="34.859041" lat="31.362427"><ele>477</ele><time>2017-11-10T09:16:07.000Z</time></trkpt><trkpt lon="34.859015" lat="31.362432"><ele>477</ele><time>2017-11-10T09:16:08.000Z</time></trkpt><trkpt lon="34.858989" lat="31.362437"><ele>478</ele><time>2017-11-10T09:16:09.000Z</time></trkpt><trkpt lon="34.858964" lat="31.362447"><ele>478</ele><time>2017-11-10T09:16:10.000Z</time></trkpt><trkpt lon="34.858936" lat="31.362456"><ele>478</ele><time>2017-11-10T09:16:11.000Z</time></trkpt><trkpt lon="34.858907" lat="31.362466"><ele>479</ele><time>2017-11-10T09:16:12.000Z</time></trkpt><trkpt lon="34.858881" lat="31.362481"><ele>479</ele><time>2017-11-10T09:16:13.000Z</time></trkpt><trkpt lon="34.85886" lat="31.36249"><ele>480</ele><time>2017-11-10T09:16:14.000Z</time></trkpt><trkpt lon="34.858838" lat="31.362485"><ele>480</ele><time>2017-11-10T09:16:15.000Z</time></trkpt><trkpt lon="34.858816" lat="31.362479"><ele>480</ele><time>2017-11-10T09:16:16.000Z</time></trkpt><trkpt lon="34.858788" lat="31.362472"><ele>480</ele><time>2017-11-10T09:16:17.000Z</time></trkpt><trkpt lon="34.858758" lat="31.362468"><ele>480</ele><time>2017-11-10T09:16:18.000Z</time></trkpt><trkpt lon="34.858728" lat="31.36246"><ele>480</ele><time>2017-11-10T09:16:19.000Z</time></trkpt><trkpt lon="34.858701" lat="31.362451"><ele>480</ele><time>2017-11-10T09:16:20.000Z</time></trkpt><trkpt lon="34.858673" lat="31.362443"><ele>480</ele><time>2017-11-10T09:16:21.000Z</time></trkpt><trkpt lon="34.858648" lat="31.362436"><ele>480</ele><time>2017-11-10T09:16:22.000Z</time></trkpt><trkpt lon="34.858623" lat="31.362428"><ele>480</ele><time>2017-11-10T09:16:23.000Z</time></trkpt><trkpt lon="34.858598" lat="31.362422"><ele>480</ele><time>2017-11-10T09:16:24.000Z</time></trkpt><trkpt lon="34.858573" lat="31.362417"><ele>480</ele><time>2017-11-10T09:16:25.000Z</time></trkpt><trkpt lon="34.858549" lat="31.362409"><ele>480</ele><time>2017-11-10T09:16:26.000Z</time></trkpt><trkpt lon="34.858522" lat="31.362402"><ele>480</ele><time>2017-11-10T09:16:27.000Z</time></trkpt><trkpt lon="34.858496" lat="31.362394"><ele>480</ele><time>2017-11-10T09:16:28.000Z</time></trkpt><trkpt lon="34.858476" lat="31.362385"><ele>480</ele><time>2017-11-10T09:16:29.000Z</time></trkpt><trkpt lon="34.858456" lat="31.362373"><ele>480</ele><time>2017-11-10T09:16:30.000Z</time></trkpt><trkpt lon="34.858433" lat="31.362359"><ele>480</ele><time>2017-11-10T09:16:31.000Z</time></trkpt><trkpt lon="34.858408" lat="31.362348"><ele>480</ele><time>2017-11-10T09:16:32.000Z</time></trkpt><trkpt lon="34.85838" lat="31.362335"><ele>480</ele><time>2017-11-10T09:16:33.000Z</time></trkpt><trkpt lon="34.858352" lat="31.362318"><ele>480</ele><time>2017-11-10T09:16:34.000Z</time></trkpt><trkpt lon="34.858321" lat="31.362304"><ele>480</ele><time>2017-11-10T09:16:35.000Z</time></trkpt><trkpt lon="34.858291" lat="31.362293"><ele>480</ele><time>2017-11-10T09:16:36.000Z</time></trkpt><trkpt lon="34.858264" lat="31.362281"><ele>480</ele><time>2017-11-10T09:16:37.000Z</time></trkpt><trkpt lon="34.858235" lat="31.362269"><ele>480</ele><time>2017-11-10T09:16:38.000Z</time></trkpt><trkpt lon="34.858208" lat="31.362253"><ele>480</ele><time>2017-11-10T09:16:39.000Z</time></trkpt><trkpt lon="34.858184" lat="31.362236"><ele>480</ele><time>2017-11-10T09:16:40.000Z</time></trkpt><trkpt lon="34.858157" lat="31.362217"><ele>480</ele><time>2017-11-10T09:16:41.000Z</time></trkpt><trkpt lon="34.858129" lat="31.362195"><ele>480</ele><time>2017-11-10T09:16:42.000Z</time></trkpt><trkpt lon="34.85811" lat="31.362164"><ele>480</ele><time>2017-11-10T09:16:43.000Z</time></trkpt><trkpt lon="34.858088" lat="31.362127"><ele>480</ele><time>2017-11-10T09:16:44.000Z</time></trkpt><trkpt lon="34.858067" lat="31.362089"><ele>480</ele><time>2017-11-10T09:16:45.000Z</time></trkpt><trkpt lon="34.858034" lat="31.362054"><ele>480</ele><time>2017-11-10T09:16:46.000Z</time></trkpt><trkpt lon="34.858001" lat="31.362019"><ele>478.4</ele><time>2017-11-10T09:16:47.000Z</time></trkpt><trkpt lon="34.857975" lat="31.361985"><ele>478</ele><time>2017-11-10T09:16:48.000Z</time></trkpt><trkpt lon="34.857947" lat="31.361949"><ele>477</ele><time>2017-11-10T09:16:49.000Z</time></trkpt><trkpt lon="34.857911" lat="31.361908"><ele>476</ele><time>2017-11-10T09:16:50.000Z</time></trkpt><trkpt lon="34.857871" lat="31.361875"><ele>476</ele><time>2017-11-10T09:16:51.000Z</time></trkpt><trkpt lon="34.857834" lat="31.361846"><ele>476</ele><time>2017-11-10T09:16:52.000Z</time></trkpt><trkpt lon="34.857815" lat="31.36181"><ele>476</ele><time>2017-11-10T09:16:53.000Z</time></trkpt><trkpt lon="34.857821" lat="31.361776"><ele>476</ele><time>2017-11-10T09:16:54.000Z</time></trkpt><trkpt lon="34.857846" lat="31.36175"><ele>475</ele><time>2017-11-10T09:16:55.000Z</time></trkpt><trkpt lon="34.857871" lat="31.361723"><ele>474</ele><time>2017-11-10T09:16:56.000Z</time></trkpt><trkpt lon="34.857884" lat="31.361693"><ele>474</ele><time>2017-11-10T09:16:57.000Z</time></trkpt><trkpt lon="34.857896" lat="31.361663"><ele>474</ele><time>2017-11-10T09:16:58.000Z</time></trkpt><trkpt lon="34.857905" lat="31.361636"><ele>473</ele><time>2017-11-10T09:16:59.000Z</time></trkpt><trkpt lon="34.857896" lat="31.361606"><ele>472</ele><time>2017-11-10T09:17:00.000Z</time></trkpt><trkpt lon="34.857872" lat="31.361577"><ele>472</ele><time>2017-11-10T09:17:01.000Z</time></trkpt><trkpt lon="34.857843" lat="31.361551"><ele>472</ele><time>2017-11-10T09:17:02.000Z</time></trkpt><trkpt lon="34.857808" lat="31.361534"><ele>471.6</ele><time>2017-11-10T09:17:03.000Z</time></trkpt><trkpt lon="34.857765" lat="31.361524"><ele>470</ele><time>2017-11-10T09:17:04.000Z</time></trkpt><trkpt lon="34.857719" lat="31.36152"><ele>470</ele><time>2017-11-10T09:17:05.000Z</time></trkpt><trkpt lon="34.857677" lat="31.361519"><ele>470</ele><time>2017-11-10T09:17:06.000Z</time></trkpt><trkpt lon="34.85764" lat="31.361529"><ele>470</ele><time>2017-11-10T09:17:07.000Z</time></trkpt><trkpt lon="34.857608" lat="31.361544"><ele>470</ele><time>2017-11-10T09:17:08.000Z</time></trkpt><trkpt lon="34.85758" lat="31.361557"><ele>470</ele><time>2017-11-10T09:17:09.000Z</time></trkpt><trkpt lon="34.857548" lat="31.361568"><ele>470</ele><time>2017-11-10T09:17:10.000Z</time></trkpt><trkpt lon="34.857511" lat="31.361566"><ele>470</ele><time>2017-11-10T09:17:11.000Z</time></trkpt><trkpt lon="34.857483" lat="31.361548"><ele>470</ele><time>2017-11-10T09:17:12.000Z</time></trkpt><trkpt lon="34.857455" lat="31.361524"><ele>469</ele><time>2017-11-10T09:17:13.000Z</time></trkpt><trkpt lon="34.857426" lat="31.361502"><ele>468</ele><time>2017-11-10T09:17:14.000Z</time></trkpt><trkpt lon="34.85739" lat="31.361492"><ele>468</ele><time>2017-11-10T09:17:15.000Z</time></trkpt><trkpt lon="34.857355" lat="31.36149"><ele>467</ele><time>2017-11-10T09:17:16.000Z</time></trkpt><trkpt lon="34.857308" lat="31.361497"><ele>467</ele><time>2017-11-10T09:17:17.000Z</time></trkpt><trkpt lon="34.857259" lat="31.361518"><ele>466</ele><time>2017-11-10T09:17:18.000Z</time></trkpt><trkpt lon="34.857214" lat="31.361553"><ele>465</ele><time>2017-11-10T09:17:19.000Z</time></trkpt><trkpt lon="34.857177" lat="31.361597"><ele>465</ele><time>2017-11-10T09:17:20.000Z</time></trkpt><trkpt lon="34.857154" lat="31.361637"><ele>465</ele><time>2017-11-10T09:17:21.000Z</time></trkpt><trkpt lon="34.857132" lat="31.361668"><ele>465</ele><time>2017-11-10T09:17:22.000Z</time></trkpt><trkpt lon="34.857109" lat="31.361697"><ele>465</ele><time>2017-11-10T09:17:23.000Z</time></trkpt><trkpt lon="34.857087" lat="31.361728"><ele>465</ele><time>2017-11-10T09:17:24.000Z</time></trkpt><trkpt lon="34.85707" lat="31.361761"><ele>465</ele><time>2017-11-10T09:17:25.000Z</time></trkpt><trkpt lon="34.857061" lat="31.361793"><ele>465</ele><time>2017-11-10T09:17:26.000Z</time></trkpt><trkpt lon="34.85706" lat="31.361819"><ele>466</ele><time>2017-11-10T09:17:27.000Z</time></trkpt><trkpt lon="34.857067" lat="31.361838"><ele>466</ele><time>2017-11-10T09:17:28.000Z</time></trkpt><trkpt lon="34.857074" lat="31.361856"><ele>466</ele><time>2017-11-10T09:17:29.000Z</time></trkpt><trkpt lon="34.857084" lat="31.361882"><ele>466</ele><time>2017-11-10T09:17:30.000Z</time></trkpt><trkpt lon="34.857092" lat="31.361908"><ele>466</ele><time>2017-11-10T09:17:31.000Z</time></trkpt><trkpt lon="34.8571" lat="31.361933"><ele>467</ele><time>2017-11-10T09:17:32.000Z</time></trkpt><trkpt lon="34.857104" lat="31.361958"><ele>467</ele><time>2017-11-10T09:17:33.000Z</time></trkpt><trkpt lon="34.857102" lat="31.361983"><ele>467</ele><time>2017-11-10T09:17:34.000Z</time></trkpt><trkpt lon="34.857103" lat="31.362009"><ele>467</ele><time>2017-11-10T09:17:35.000Z</time></trkpt><trkpt lon="34.857111" lat="31.362037"><ele>467</ele><time>2017-11-10T09:17:36.000Z</time></trkpt><trkpt lon="34.857125" lat="31.362062"><ele>467</ele><time>2017-11-10T09:17:37.000Z</time></trkpt><trkpt lon="34.857136" lat="31.362085"><ele>467</ele><time>2017-11-10T09:17:38.000Z</time></trkpt><trkpt lon="34.857143" lat="31.362106"><ele>468</ele><time>2017-11-10T09:17:39.000Z</time></trkpt><trkpt lon="34.857148" lat="31.362125"><ele>468</ele><time>2017-11-10T09:17:40.000Z</time></trkpt><trkpt lon="34.85715" lat="31.362146"><ele>468</ele><time>2017-11-10T09:17:41.000Z</time></trkpt><trkpt lon="34.857149" lat="31.36217"><ele>468</ele><time>2017-11-10T09:17:42.000Z</time></trkpt><trkpt lon="34.85715" lat="31.362197"><ele>468</ele><time>2017-11-10T09:17:43.000Z</time></trkpt><trkpt lon="34.857151" lat="31.362221"><ele>468</ele><time>2017-11-10T09:17:44.000Z</time></trkpt><trkpt lon="34.857149" lat="31.362248"><ele>468</ele><time>2017-11-10T09:17:45.000Z</time></trkpt><trkpt lon="34.857147" lat="31.362279"><ele>468</ele><time>2017-11-10T09:17:46.000Z</time></trkpt><trkpt lon="34.857149" lat="31.362313"><ele>468</ele><time>2017-11-10T09:17:47.000Z</time></trkpt><trkpt lon="34.857149" lat="31.362344"><ele>468</ele><time>2017-11-10T09:17:48.000Z</time></trkpt><trkpt lon="34.857145" lat="31.362373"><ele>468</ele><time>2017-11-10T09:17:49.000Z</time></trkpt><trkpt lon="34.857145" lat="31.362399"><ele>468</ele><time>2017-11-10T09:17:50.000Z</time></trkpt><trkpt lon="34.857148" lat="31.36242"><ele>468</ele><time>2017-11-10T09:17:51.000Z</time></trkpt><trkpt lon="34.857146" lat="31.36244"><ele>468</ele><time>2017-11-10T09:17:52.000Z</time></trkpt><trkpt lon="34.857146" lat="31.36244"><ele>468</ele><time>2017-11-10T09:17:53.000Z</time></trkpt><trkpt lon="34.857125" lat="31.362471"><ele>468</ele><time>2017-11-10T09:17:54.000Z</time></trkpt><trkpt lon="34.857107" lat="31.362481"><ele>468</ele><time>2017-11-10T09:17:55.000Z</time></trkpt><trkpt lon="34.857096" lat="31.362462"><ele>468</ele><time>2017-11-10T09:17:56.000Z</time></trkpt><trkpt lon="34.857086" lat="31.362442"><ele>468</ele><time>2017-11-10T09:17:57.000Z</time></trkpt><trkpt lon="34.857087" lat="31.362398"><ele>468</ele><time>2017-11-10T09:17:58.000Z</time></trkpt><trkpt lon="34.857092" lat="31.362349"><ele>467</ele><time>2017-11-10T09:17:59.000Z</time></trkpt><trkpt lon="34.857088" lat="31.3623"><ele>466</ele><time>2017-11-10T09:18:00.000Z</time></trkpt><trkpt lon="34.857072" lat="31.362241"><ele>465</ele><time>2017-11-10T09:18:01.000Z</time></trkpt><trkpt lon="34.857052" lat="31.36219"><ele>465</ele><time>2017-11-10T09:18:02.000Z</time></trkpt><trkpt lon="34.857032" lat="31.36215"><ele>465</ele><time>2017-11-10T09:18:03.000Z</time></trkpt><trkpt lon="34.857006" lat="31.362133"><ele>465</ele><time>2017-11-10T09:18:04.000Z</time></trkpt><trkpt lon="34.856976" lat="31.362128"><ele>464</ele><time>2017-11-10T09:18:05.000Z</time></trkpt><trkpt lon="34.856932" lat="31.362136"><ele>463</ele><time>2017-11-10T09:18:06.000Z</time></trkpt><trkpt lon="34.856866" lat="31.362153"><ele>463</ele><time>2017-11-10T09:18:07.000Z</time></trkpt><trkpt lon="34.8568" lat="31.362177"><ele>462</ele><time>2017-11-10T09:18:08.000Z</time></trkpt><trkpt lon="34.856752" lat="31.36219"><ele>462</ele><time>2017-11-10T09:18:09.000Z</time></trkpt><trkpt lon="34.856728" lat="31.362194"><ele>461</ele><time>2017-11-10T09:18:10.000Z</time></trkpt><trkpt lon="34.856728" lat="31.362194"><ele>461</ele><time>2017-11-10T09:18:11.000Z</time></trkpt><trkpt lon="34.856728" lat="31.362194"><ele>461</ele><time>2017-11-10T09:18:12.000Z</time></trkpt><trkpt lon="34.856728" lat="31.362194"><ele>461</ele><time>2017-11-10T09:18:13.000Z</time></trkpt><trkpt lon="34.856728" lat="31.362194"><ele>461</ele><time>2017-11-10T09:18:14.000Z</time></trkpt><trkpt lon="34.856728" lat="31.362194"><ele>461</ele><time>2017-11-10T09:18:15.000Z</time></trkpt><trkpt lon="34.856728" lat="31.362194"><ele>461</ele><time>2017-11-10T09:18:16.000Z</time></trkpt><trkpt lon="34.856728" lat="31.362194"><ele>461</ele><time>2017-11-10T09:18:17.000Z</time></trkpt><trkpt lon="34.856728" lat="31.362194"><ele>461</ele><time>2017-11-10T09:18:18.000Z</time></trkpt><trkpt lon="34.856728" lat="31.362194"><ele>461</ele><time>2017-11-10T09:18:19.000Z</time></trkpt><trkpt lon="34.856728" lat="31.362194"><ele>461</ele><time>2017-11-10T09:18:20.000Z</time></trkpt><trkpt lon="34.856728" lat="31.362194"><ele>461</ele><time>2017-11-10T09:18:21.000Z</time></trkpt><trkpt lon="34.856728" lat="31.362194"><ele>461</ele><time>2017-11-10T09:18:22.000Z</time></trkpt><trkpt lon="34.856728" lat="31.362194"><ele>461</ele><time>2017-11-10T09:18:23.000Z</time></trkpt><trkpt lon="34.856728" lat="31.362194"><ele>461</ele><time>2017-11-10T09:18:24.000Z</time></trkpt><trkpt lon="34.856728" lat="31.362194"><ele>461</ele><time>2017-11-10T09:18:25.000Z</time></trkpt><trkpt lon="34.856728" lat="31.362194"><ele>461</ele><time>2017-11-10T09:18:26.000Z</time></trkpt><trkpt lon="34.856728" lat="31.362194"><ele>461</ele><time>2017-11-10T09:18:27.000Z</time></trkpt><trkpt lon="34.856728" lat="31.362194"><ele>461</ele><time>2017-11-10T09:18:28.000Z</time></trkpt><trkpt lon="34.856728" lat="31.362194"><ele>461</ele><time>2017-11-10T09:18:29.000Z</time></trkpt><trkpt lon="34.856728" lat="31.362194"><ele>461</ele><time>2017-11-10T09:18:30.000Z</time></trkpt><trkpt lon="34.856728" lat="31.362194"><ele>461</ele><time>2017-11-10T09:18:31.000Z</time></trkpt><trkpt lon="34.856728" lat="31.362194"><ele>461</ele><time>2017-11-10T09:18:32.000Z</time></trkpt><trkpt lon="34.85674" lat="31.362178"><ele>461</ele><time>2017-11-10T09:18:33.000Z</time></trkpt><trkpt lon="34.85674" lat="31.362178"><ele>461</ele><time>2017-11-10T09:18:34.000Z</time></trkpt><trkpt lon="34.856768" lat="31.362173"><ele>461</ele><time>2017-11-10T09:18:35.000Z</time></trkpt><trkpt lon="34.856768" lat="31.362173"><ele>461</ele><time>2017-11-10T09:18:36.000Z</time></trkpt><trkpt lon="34.856797" lat="31.362166"><ele>461</ele><time>2017-11-10T09:18:37.000Z</time></trkpt><trkpt lon="34.856797" lat="31.362166"><ele>461</ele><time>2017-11-10T09:18:38.000Z</time></trkpt><trkpt lon="34.856826" lat="31.36216"><ele>461</ele><time>2017-11-10T09:18:39.000Z</time></trkpt><trkpt lon="34.856854" lat="31.362154"><ele>461</ele><time>2017-11-10T09:18:41.000Z</time></trkpt><trkpt lon="34.856854" lat="31.362154"><ele>461</ele><time>2017-11-10T09:18:42.000Z</time></trkpt><trkpt lon="34.856878" lat="31.362146"><ele>462</ele><time>2017-11-10T09:18:43.000Z</time></trkpt><trkpt lon="34.856878" lat="31.362146"><ele>462</ele><time>2017-11-10T09:18:44.000Z</time></trkpt><trkpt lon="34.856906" lat="31.362138"><ele>462</ele><time>2017-11-10T09:18:45.000Z</time></trkpt><trkpt lon="34.856906" lat="31.362138"><ele>462</ele><time>2017-11-10T09:18:46.000Z</time></trkpt><trkpt lon="34.856928" lat="31.362132"><ele>462</ele><time>2017-11-10T09:18:47.000Z</time></trkpt><trkpt lon="34.856928" lat="31.362132"><ele>462</ele><time>2017-11-10T09:18:48.000Z</time></trkpt><trkpt lon="34.856928" lat="31.362132"><ele>462</ele><time>2017-11-10T09:18:49.000Z</time></trkpt><trkpt lon="34.856952" lat="31.362125"><ele>462</ele><time>2017-11-10T09:18:50.000Z</time></trkpt><trkpt lon="34.856952" lat="31.362125"><ele>462</ele><time>2017-11-10T09:18:51.000Z</time></trkpt><trkpt lon="34.856952" lat="31.362125"><ele>462</ele><time>2017-11-10T09:18:52.000Z</time></trkpt><trkpt lon="34.856952" lat="31.362125"><ele>463</ele><time>2017-11-10T09:18:53.000Z</time></trkpt><trkpt lon="34.856982" lat="31.362128"><ele>463</ele><time>2017-11-10T09:18:54.000Z</time></trkpt><trkpt lon="34.856982" lat="31.362128"><ele>464</ele><time>2017-11-10T09:18:55.000Z</time></trkpt><trkpt lon="34.856982" lat="31.362128"><ele>464</ele><time>2017-11-10T09:18:56.000Z</time></trkpt><trkpt lon="34.857006" lat="31.362128"><ele>464</ele><time>2017-11-10T09:18:57.000Z</time></trkpt><trkpt lon="34.857006" lat="31.362128"><ele>464</ele><time>2017-11-10T09:18:58.000Z</time></trkpt><trkpt lon="34.857006" lat="31.362128"><ele>464</ele><time>2017-11-10T09:18:59.000Z</time></trkpt><trkpt lon="34.857031" lat="31.362132"><ele>465</ele><time>2017-11-10T09:19:00.000Z</time></trkpt><trkpt lon="34.857031" lat="31.362132"><ele>465</ele><time>2017-11-10T09:19:01.000Z</time></trkpt><trkpt lon="34.857031" lat="31.362132"><ele>465</ele><time>2017-11-10T09:19:02.000Z</time></trkpt><trkpt lon="34.857031" lat="31.362132"><ele>465</ele><time>2017-11-10T09:19:03.000Z</time></trkpt><trkpt lon="34.857031" lat="31.362132"><ele>465</ele><time>2017-11-10T09:19:04.000Z</time></trkpt><trkpt lon="34.857031" lat="31.362132"><ele>465</ele><time>2017-11-10T09:19:05.000Z</time></trkpt><trkpt lon="34.857031" lat="31.362132"><ele>465</ele><time>2017-11-10T09:19:06.000Z</time></trkpt><trkpt lon="34.857031" lat="31.362132"><ele>465</ele><time>2017-11-10T09:19:07.000Z</time></trkpt><trkpt lon="34.857031" lat="31.362132"><ele>465</ele><time>2017-11-10T09:19:08.000Z</time></trkpt><trkpt lon="34.857031" lat="31.362132"><ele>465</ele><time>2017-11-10T09:19:09.000Z</time></trkpt><trkpt lon="34.857031" lat="31.362132"><ele>465</ele><time>2017-11-10T09:19:10.000Z</time></trkpt><trkpt lon="34.857031" lat="31.362132"><ele>465</ele><time>2017-11-10T09:19:11.000Z</time></trkpt><trkpt lon="34.857031" lat="31.362132"><ele>465</ele><time>2017-11-10T09:19:12.000Z</time></trkpt><trkpt lon="34.857031" lat="31.362132"><ele>465</ele><time>2017-11-10T09:19:13.000Z</time></trkpt><trkpt lon="34.857031" lat="31.362132"><ele>465</ele><time>2017-11-10T09:19:14.000Z</time></trkpt><trkpt lon="34.857031" lat="31.362132"><ele>465</ele><time>2017-11-10T09:19:15.000Z</time></trkpt><trkpt lon="34.857031" lat="31.362132"><ele>466</ele><time>2017-11-10T09:19:16.000Z</time></trkpt><trkpt lon="34.857031" lat="31.362132"><ele>466</ele><time>2017-11-10T09:19:17.000Z</time></trkpt><trkpt lon="34.857031" lat="31.362132"><ele>466</ele><time>2017-11-10T09:19:18.000Z</time></trkpt><trkpt lon="34.857031" lat="31.362132"><ele>466</ele><time>2017-11-10T09:19:19.000Z</time></trkpt><trkpt lon="34.857031" lat="31.362132"><ele>466</ele><time>2017-11-10T09:19:20.000Z</time></trkpt><trkpt lon="34.857031" lat="31.362132"><ele>466</ele><time>2017-11-10T09:19:21.000Z</time></trkpt><trkpt lon="34.857031" lat="31.362132"><ele>466</ele><time>2017-11-10T09:19:22.000Z</time></trkpt><trkpt lon="34.857031" lat="31.362132"><ele>465</ele><time>2017-11-10T09:19:23.000Z</time></trkpt><trkpt lon="34.857031" lat="31.362132"><ele>465</ele><time>2017-11-10T09:19:24.000Z</time></trkpt><trkpt lon="34.857031" lat="31.362132"><ele>465</ele><time>2017-11-10T09:19:25.000Z</time></trkpt><trkpt lon="34.857031" lat="31.362132"><ele>465</ele><time>2017-11-10T09:19:26.000Z</time></trkpt><trkpt lon="34.857031" lat="31.362132"><ele>465</ele><time>2017-11-10T09:19:27.000Z</time></trkpt><trkpt lon="34.857031" lat="31.362132"><ele>465</ele><time>2017-11-10T09:19:28.000Z</time></trkpt><trkpt lon="34.857031" lat="31.362132"><ele>465</ele><time>2017-11-10T09:19:29.000Z</time></trkpt><trkpt lon="34.857031" lat="31.362132"><ele>465</ele><time>2017-11-10T09:19:30.000Z</time></trkpt><trkpt lon="34.857031" lat="31.362132"><ele>465</ele><time>2017-11-10T09:19:31.000Z</time></trkpt><trkpt lon="34.857031" lat="31.362132"><ele>465</ele><time>2017-11-10T09:19:32.000Z</time></trkpt><trkpt lon="34.857031" lat="31.362132"><ele>465</ele><time>2017-11-10T09:19:33.000Z</time></trkpt><trkpt lon="34.857031" lat="31.362132"><ele>465</ele><time>2017-11-10T09:19:34.000Z</time></trkpt><trkpt lon="34.857031" lat="31.362132"><ele>465</ele><time>2017-11-10T09:19:35.000Z</time></trkpt><trkpt lon="34.857031" lat="31.362132"><ele>465</ele><time>2017-11-10T09:19:36.000Z</time></trkpt><trkpt lon="34.857031" lat="31.362132"><ele>465</ele><time>2017-11-10T09:19:37.000Z</time></trkpt><trkpt lon="34.857031" lat="31.362132"><ele>465</ele><time>2017-11-10T09:19:38.000Z</time></trkpt><trkpt lon="34.857031" lat="31.362132"><ele>465</ele><time>2017-11-10T09:19:39.000Z</time></trkpt><trkpt lon="34.857031" lat="31.362132"><ele>465</ele><time>2017-11-10T09:19:40.000Z</time></trkpt><trkpt lon="34.857031" lat="31.362132"><ele>465</ele><time>2017-11-10T09:19:41.000Z</time></trkpt><trkpt lon="34.857054" lat="31.362138"><ele>465</ele><time>2017-11-10T09:19:42.000Z</time></trkpt><trkpt lon="34.857054" lat="31.362138"><ele>465</ele><time>2017-11-10T09:19:43.000Z</time></trkpt><trkpt lon="34.857054" lat="31.362138"><ele>465</ele><time>2017-11-10T09:19:44.000Z</time></trkpt><trkpt lon="34.857054" lat="31.362138"><ele>465</ele><time>2017-11-10T09:19:45.000Z</time></trkpt><trkpt lon="34.857054" lat="31.362138"><ele>465</ele><time>2017-11-10T09:19:46.000Z</time></trkpt><trkpt lon="34.857054" lat="31.362138"><ele>465</ele><time>2017-11-10T09:19:47.000Z</time></trkpt><trkpt lon="34.857054" lat="31.362138"><ele>465</ele><time>2017-11-10T09:19:48.000Z</time></trkpt><trkpt lon="34.857054" lat="31.362138"><ele>465</ele><time>2017-11-10T09:19:49.000Z</time></trkpt><trkpt lon="34.857054" lat="31.362138"><ele>465</ele><time>2017-11-10T09:19:50.000Z</time></trkpt><trkpt lon="34.857054" lat="31.362138"><ele>465</ele><time>2017-11-10T09:19:51.000Z</time></trkpt><trkpt lon="34.857054" lat="31.362138"><ele>465</ele><time>2017-11-10T09:19:52.000Z</time></trkpt><trkpt lon="34.857054" lat="31.362138"><ele>465</ele><time>2017-11-10T09:19:53.000Z</time></trkpt><trkpt lon="34.857054" lat="31.362138"><ele>465</ele><time>2017-11-10T09:19:54.000Z</time></trkpt><trkpt lon="34.857054" lat="31.362138"><ele>465</ele><time>2017-11-10T09:19:55.000Z</time></trkpt><trkpt lon="34.857054" lat="31.362138"><ele>465</ele><time>2017-11-10T09:19:56.000Z</time></trkpt><trkpt lon="34.857054" lat="31.362138"><ele>465</ele><time>2017-11-10T09:19:57.000Z</time></trkpt><trkpt lon="34.857054" lat="31.362138"><ele>465</ele><time>2017-11-10T09:19:58.000Z</time></trkpt><trkpt lon="34.857054" lat="31.362138"><ele>465</ele><time>2017-11-10T09:19:59.000Z</time></trkpt><trkpt lon="34.857054" lat="31.362138"><ele>465</ele><time>2017-11-10T09:20:00.000Z</time></trkpt><trkpt lon="34.857054" lat="31.362138"><ele>465</ele><time>2017-11-10T09:20:01.000Z</time></trkpt><trkpt lon="34.857054" lat="31.362138"><ele>465</ele><time>2017-11-10T09:20:02.000Z</time></trkpt><trkpt lon="34.857054" lat="31.362138"><ele>465</ele><time>2017-11-10T09:20:03.000Z</time></trkpt><trkpt lon="34.857054" lat="31.362138"><ele>465</ele><time>2017-11-10T09:20:04.000Z</time></trkpt><trkpt lon="34.857054" lat="31.362138"><ele>465</ele><time>2017-11-10T09:20:05.000Z</time></trkpt><trkpt lon="34.857054" lat="31.362138"><ele>465</ele><time>2017-11-10T09:20:06.000Z</time></trkpt><trkpt lon="34.857054" lat="31.362138"><ele>465</ele><time>2017-11-10T09:20:07.000Z</time></trkpt><trkpt lon="34.857054" lat="31.362138"><ele>465</ele><time>2017-11-10T09:20:08.000Z</time></trkpt><trkpt lon="34.857054" lat="31.362138"><ele>465</ele><time>2017-11-10T09:20:09.000Z</time></trkpt><trkpt lon="34.857054" lat="31.362138"><ele>465</ele><time>2017-11-10T09:20:10.000Z</time></trkpt><trkpt lon="34.857054" lat="31.362138"><ele>465</ele><time>2017-11-10T09:20:11.000Z</time></trkpt><trkpt lon="34.857054" lat="31.362138"><ele>465</ele><time>2017-11-10T09:20:12.000Z</time></trkpt><trkpt lon="34.857054" lat="31.362138"><ele>465</ele><time>2017-11-10T09:20:13.000Z</time></trkpt><trkpt lon="34.857054" lat="31.362138"><ele>465</ele><time>2017-11-10T09:20:14.000Z</time></trkpt><trkpt lon="34.857054" lat="31.362138"><ele>465</ele><time>2017-11-10T09:20:15.000Z</time></trkpt><trkpt lon="34.857054" lat="31.362138"><ele>465</ele><time>2017-11-10T09:20:16.000Z</time></trkpt><trkpt lon="34.857054" lat="31.362138"><ele>465</ele><time>2017-11-10T09:20:17.000Z</time></trkpt><trkpt lon="34.857054" lat="31.362138"><ele>464</ele><time>2017-11-10T09:20:18.000Z</time></trkpt><trkpt lon="34.857054" lat="31.362138"><ele>464</ele><time>2017-11-10T09:20:19.000Z</time></trkpt><trkpt lon="34.857054" lat="31.362138"><ele>464</ele><time>2017-11-10T09:20:20.000Z</time></trkpt><trkpt lon="34.857054" lat="31.362138"><ele>464</ele><time>2017-11-10T09:20:21.000Z</time></trkpt><trkpt lon="34.857054" lat="31.362138"><ele>464</ele><time>2017-11-10T09:20:22.000Z</time></trkpt><trkpt lon="34.857054" lat="31.362138"><ele>464</ele><time>2017-11-10T09:20:23.000Z</time></trkpt><trkpt lon="34.857054" lat="31.362138"><ele>464</ele><time>2017-11-10T09:20:24.000Z</time></trkpt><trkpt lon="34.857054" lat="31.362138"><ele>464</ele><time>2017-11-10T09:20:25.000Z</time></trkpt><trkpt lon="34.857054" lat="31.362138"><ele>464</ele><time>2017-11-10T09:20:26.000Z</time></trkpt><trkpt lon="34.857054" lat="31.362138"><ele>464</ele><time>2017-11-10T09:20:27.000Z</time></trkpt><trkpt lon="34.857054" lat="31.362138"><ele>464</ele><time>2017-11-10T09:20:28.000Z</time></trkpt><trkpt lon="34.857054" lat="31.362138"><ele>464</ele><time>2017-11-10T09:20:29.000Z</time></trkpt><trkpt lon="34.857054" lat="31.362138"><ele>464</ele><time>2017-11-10T09:20:30.000Z</time></trkpt><trkpt lon="34.857054" lat="31.362138"><ele>464</ele><time>2017-11-10T09:20:31.000Z</time></trkpt><trkpt lon="34.857054" lat="31.362138"><ele>464</ele><time>2017-11-10T09:20:32.000Z</time></trkpt><trkpt lon="34.857054" lat="31.362138"><ele>464</ele><time>2017-11-10T09:20:33.000Z</time></trkpt><trkpt lon="34.857054" lat="31.362138"><ele>464</ele><time>2017-11-10T09:20:34.000Z</time></trkpt><trkpt lon="34.857054" lat="31.362138"><ele>464</ele><time>2017-11-10T09:20:35.000Z</time></trkpt><trkpt lon="34.857054" lat="31.362138"><ele>464</ele><time>2017-11-10T09:20:36.000Z</time></trkpt><trkpt lon="34.857054" lat="31.362138"><ele>464</ele><time>2017-11-10T09:20:37.000Z</time></trkpt><trkpt lon="34.857054" lat="31.362138"><ele>464</ele><time>2017-11-10T09:20:38.000Z</time></trkpt><trkpt lon="34.857054" lat="31.362138"><ele>464</ele><time>2017-11-10T09:20:39.000Z</time></trkpt><trkpt lon="34.857054" lat="31.362138"><ele>464</ele><time>2017-11-10T09:20:40.000Z</time></trkpt><trkpt lon="34.857054" lat="31.362138"><ele>464</ele><time>2017-11-10T09:20:41.000Z</time></trkpt><trkpt lon="34.857054" lat="31.362138"><ele>464</ele><time>2017-11-10T09:20:42.000Z</time></trkpt><trkpt lon="34.857054" lat="31.362138"><ele>464</ele><time>2017-11-10T09:20:43.000Z</time></trkpt><trkpt lon="34.857054" lat="31.362138"><ele>464</ele><time>2017-11-10T09:20:44.000Z</time></trkpt><trkpt lon="34.857054" lat="31.362138"><ele>464</ele><time>2017-11-10T09:20:45.000Z</time></trkpt><trkpt lon="34.857054" lat="31.362138"><ele>464</ele><time>2017-11-10T09:20:46.000Z</time></trkpt><trkpt lon="34.857054" lat="31.362138"><ele>464</ele><time>2017-11-10T09:20:47.000Z</time></trkpt><trkpt lon="34.857054" lat="31.362138"><ele>464</ele><time>2017-11-10T09:20:48.000Z</time></trkpt><trkpt lon="34.857054" lat="31.362138"><ele>464</ele><time>2017-11-10T09:20:49.000Z</time></trkpt><trkpt lon="34.857054" lat="31.362138"><ele>464</ele><time>2017-11-10T09:20:50.000Z</time></trkpt><trkpt lon="34.857054" lat="31.362138"><ele>464</ele><time>2017-11-10T09:20:51.000Z</time></trkpt><trkpt lon="34.857054" lat="31.362138"><ele>464</ele><time>2017-11-10T09:20:52.000Z</time></trkpt><trkpt lon="34.857054" lat="31.362138"><ele>464</ele><time>2017-11-10T09:20:53.000Z</time></trkpt><trkpt lon="34.857054" lat="31.362138"><ele>464</ele><time>2017-11-10T09:20:54.000Z</time></trkpt><trkpt lon="34.857054" lat="31.362138"><ele>464</ele><time>2017-11-10T09:20:55.000Z</time></trkpt><trkpt lon="34.857054" lat="31.362138"><ele>465</ele><time>2017-11-10T09:20:56.000Z</time></trkpt><trkpt lon="34.857054" lat="31.362138"><ele>465</ele><time>2017-11-10T09:20:57.000Z</time></trkpt><trkpt lon="34.857054" lat="31.362138"><ele>464</ele><time>2017-11-10T09:20:58.000Z</time></trkpt><trkpt lon="34.857054" lat="31.362138"><ele>465</ele><time>2017-11-10T09:20:59.000Z</time></trkpt><trkpt lon="34.857054" lat="31.362138"><ele>465</ele><time>2017-11-10T09:21:00.000Z</time></trkpt><trkpt lon="34.857054" lat="31.362138"><ele>465</ele><time>2017-11-10T09:21:01.000Z</time></trkpt><trkpt lon="34.857054" lat="31.362138"><ele>465</ele><time>2017-11-10T09:21:02.000Z</time></trkpt><trkpt lon="34.857054" lat="31.362138"><ele>465</ele><time>2017-11-10T09:21:03.000Z</time></trkpt><trkpt lon="34.857054" lat="31.362138"><ele>465</ele><time>2017-11-10T09:21:04.000Z</time></trkpt><trkpt lon="34.857054" lat="31.362138"><ele>465</ele><time>2017-11-10T09:21:05.000Z</time></trkpt><trkpt lon="34.857054" lat="31.362138"><ele>465</ele><time>2017-11-10T09:21:06.000Z</time></trkpt><trkpt lon="34.857054" lat="31.362138"><ele>465</ele><time>2017-11-10T09:21:07.000Z</time></trkpt><trkpt lon="34.857054" lat="31.362138"><ele>465</ele><time>2017-11-10T09:21:08.000Z</time></trkpt><trkpt lon="34.857054" lat="31.362138"><ele>465</ele><time>2017-11-10T09:21:09.000Z</time></trkpt><trkpt lon="34.857054" lat="31.362138"><ele>465</ele><time>2017-11-10T09:21:10.000Z</time></trkpt><trkpt lon="34.857054" lat="31.362138"><ele>465</ele><time>2017-11-10T09:21:11.000Z</time></trkpt><trkpt lon="34.857054" lat="31.362138"><ele>465</ele><time>2017-11-10T09:21:12.000Z</time></trkpt><trkpt lon="34.857054" lat="31.362138"><ele>465</ele><time>2017-11-10T09:21:13.000Z</time></trkpt><trkpt lon="34.857054" lat="31.362138"><ele>465</ele><time>2017-11-10T09:21:14.000Z</time></trkpt><trkpt lon="34.857054" lat="31.362138"><ele>465</ele><time>2017-11-10T09:21:15.000Z</time></trkpt><trkpt lon="34.857054" lat="31.362138"><ele>465</ele><time>2017-11-10T09:21:16.000Z</time></trkpt><trkpt lon="34.857054" lat="31.362138"><ele>465</ele><time>2017-11-10T09:21:17.000Z</time></trkpt><trkpt lon="34.857054" lat="31.362138"><ele>465</ele><time>2017-11-10T09:21:18.000Z</time></trkpt><trkpt lon="34.857054" lat="31.362138"><ele>465</ele><time>2017-11-10T09:21:19.000Z</time></trkpt><trkpt lon="34.857054" lat="31.362138"><ele>465</ele><time>2017-11-10T09:21:20.000Z</time></trkpt><trkpt lon="34.857054" lat="31.362138"><ele>465</ele><time>2017-11-10T09:21:21.000Z</time></trkpt><trkpt lon="34.857054" lat="31.362138"><ele>465</ele><time>2017-11-10T09:21:22.000Z</time></trkpt><trkpt lon="34.857054" lat="31.362138"><ele>465</ele><time>2017-11-10T09:21:23.000Z</time></trkpt><trkpt lon="34.857054" lat="31.362138"><ele>465</ele><time>2017-11-10T09:21:24.000Z</time></trkpt><trkpt lon="34.857054" lat="31.362138"><ele>465</ele><time>2017-11-10T09:21:25.000Z</time></trkpt><trkpt lon="34.857054" lat="31.362138"><ele>465</ele><time>2017-11-10T09:21:26.000Z</time></trkpt><trkpt lon="34.857054" lat="31.362138"><ele>465</ele><time>2017-11-10T09:21:27.000Z</time></trkpt><trkpt lon="34.857054" lat="31.362138"><ele>465</ele><time>2017-11-10T09:21:28.000Z</time></trkpt><trkpt lon="34.857054" lat="31.362138"><ele>465</ele><time>2017-11-10T09:21:29.000Z</time></trkpt><trkpt lon="34.857054" lat="31.362138"><ele>465</ele><time>2017-11-10T09:21:30.000Z</time></trkpt><trkpt lon="34.857054" lat="31.362138"><ele>465</ele><time>2017-11-10T09:21:31.000Z</time></trkpt><trkpt lon="34.857054" lat="31.362138"><ele>465</ele><time>2017-11-10T09:21:32.000Z</time></trkpt><trkpt lon="34.857054" lat="31.362138"><ele>465</ele><time>2017-11-10T09:21:33.000Z</time></trkpt><trkpt lon="34.857054" lat="31.362138"><ele>465</ele><time>2017-11-10T09:21:34.000Z</time></trkpt><trkpt lon="34.857054" lat="31.362138"><ele>465</ele><time>2017-11-10T09:21:35.000Z</time></trkpt><trkpt lon="34.857054" lat="31.362138"><ele>465</ele><time>2017-11-10T09:21:36.000Z</time></trkpt><trkpt lon="34.857054" lat="31.362138"><ele>465</ele><time>2017-11-10T09:21:37.000Z</time></trkpt><trkpt lon="34.857054" lat="31.362138"><ele>465</ele><time>2017-11-10T09:21:38.000Z</time></trkpt><trkpt lon="34.857054" lat="31.362138"><ele>465</ele><time>2017-11-10T09:21:39.000Z</time></trkpt><trkpt lon="34.857054" lat="31.362138"><ele>465</ele><time>2017-11-10T09:21:40.000Z</time></trkpt><trkpt lon="34.857054" lat="31.362138"><ele>465</ele><time>2017-11-10T09:21:41.000Z</time></trkpt><trkpt lon="34.857054" lat="31.362138"><ele>465</ele><time>2017-11-10T09:21:42.000Z</time></trkpt><trkpt lon="34.857054" lat="31.362138"><ele>465</ele><time>2017-11-10T09:21:43.000Z</time></trkpt><trkpt lon="34.857054" lat="31.362138"><ele>465</ele><time>2017-11-10T09:21:44.000Z</time></trkpt><trkpt lon="34.857054" lat="31.362138"><ele>465</ele><time>2017-11-10T09:21:45.000Z</time></trkpt><trkpt lon="34.857054" lat="31.362138"><ele>465</ele><time>2017-11-10T09:21:46.000Z</time></trkpt><trkpt lon="34.857054" lat="31.362138"><ele>465</ele><time>2017-11-10T09:21:47.000Z</time></trkpt><trkpt lon="34.857054" lat="31.362138"><ele>465</ele><time>2017-11-10T09:21:48.000Z</time></trkpt><trkpt lon="34.857054" lat="31.362138"><ele>465</ele><time>2017-11-10T09:21:49.000Z</time></trkpt><trkpt lon="34.857054" lat="31.362138"><ele>465</ele><time>2017-11-10T09:21:50.000Z</time></trkpt><trkpt lon="34.857054" lat="31.362138"><ele>465</ele><time>2017-11-10T09:21:51.000Z</time></trkpt><trkpt lon="34.857054" lat="31.362138"><ele>465</ele><time>2017-11-10T09:21:52.000Z</time></trkpt><trkpt lon="34.857054" lat="31.362138"><ele>465</ele><time>2017-11-10T09:21:53.000Z</time></trkpt><trkpt lon="34.857054" lat="31.362138"><ele>465</ele><time>2017-11-10T09:21:54.000Z</time></trkpt><trkpt lon="34.857054" lat="31.362138"><ele>465</ele><time>2017-11-10T09:21:55.000Z</time></trkpt><trkpt lon="34.857054" lat="31.362138"><ele>465</ele><time>2017-11-10T09:21:56.000Z</time></trkpt><trkpt lon="34.857054" lat="31.362138"><ele>465</ele><time>2017-11-10T09:21:57.000Z</time></trkpt><trkpt lon="34.857054" lat="31.362138"><ele>465</ele><time>2017-11-10T09:21:58.000Z</time></trkpt><trkpt lon="34.857054" lat="31.362138"><ele>465</ele><time>2017-11-10T09:21:59.000Z</time></trkpt><trkpt lon="34.857054" lat="31.362138"><ele>465</ele><time>2017-11-10T09:22:00.000Z</time></trkpt><trkpt lon="34.857054" lat="31.362138"><ele>465</ele><time>2017-11-10T09:22:01.000Z</time></trkpt><trkpt lon="34.857054" lat="31.362138"><ele>465</ele><time>2017-11-10T09:22:02.000Z</time></trkpt><trkpt lon="34.857054" lat="31.362138"><ele>465</ele><time>2017-11-10T09:22:03.000Z</time></trkpt><trkpt lon="34.857054" lat="31.362138"><ele>465</ele><time>2017-11-10T09:22:04.000Z</time></trkpt><trkpt lon="34.857054" lat="31.362138"><ele>465</ele><time>2017-11-10T09:22:05.000Z</time></trkpt><trkpt lon="34.857054" lat="31.362138"><ele>465</ele><time>2017-11-10T09:22:06.000Z</time></trkpt><trkpt lon="34.857054" lat="31.362138"><ele>465</ele><time>2017-11-10T09:22:07.000Z</time></trkpt><trkpt lon="34.857054" lat="31.362138"><ele>465</ele><time>2017-11-10T09:22:08.000Z</time></trkpt><trkpt lon="34.857054" lat="31.362138"><ele>465</ele><time>2017-11-10T09:22:09.000Z</time></trkpt><trkpt lon="34.857054" lat="31.362138"><ele>465</ele><time>2017-11-10T09:22:10.000Z</time></trkpt><trkpt lon="34.857054" lat="31.362138"><ele>465</ele><time>2017-11-10T09:22:11.000Z</time></trkpt><trkpt lon="34.857054" lat="31.362138"><ele>465</ele><time>2017-11-10T09:22:12.000Z</time></trkpt><trkpt lon="34.857019" lat="31.362131"><ele>465</ele><time>2017-11-10T09:22:13.000Z</time></trkpt><trkpt lon="34.856995" lat="31.362131"><ele>464</ele><time>2017-11-10T09:22:14.000Z</time></trkpt><trkpt lon="34.856972" lat="31.36213"><ele>464</ele><time>2017-11-10T09:22:15.000Z</time></trkpt><trkpt lon="34.856923" lat="31.362141"><ele>463</ele><time>2017-11-10T09:22:16.000Z</time></trkpt><trkpt lon="34.856857" lat="31.362161"><ele>462</ele><time>2017-11-10T09:22:17.000Z</time></trkpt><trkpt lon="34.856781" lat="31.362182"><ele>461</ele><time>2017-11-10T09:22:18.000Z</time></trkpt><trkpt lon="34.856703" lat="31.3622"><ele>461</ele><time>2017-11-10T09:22:19.000Z</time></trkpt><trkpt lon="34.856627" lat="31.362205"><ele>461</ele><time>2017-11-10T09:22:20.000Z</time></trkpt><trkpt lon="34.856553" lat="31.362196"><ele>460</ele><time>2017-11-10T09:22:21.000Z</time></trkpt><trkpt lon="34.856478" lat="31.362174"><ele>459</ele><time>2017-11-10T09:22:22.000Z</time></trkpt><trkpt lon="34.85641" lat="31.362152"><ele>458</ele><time>2017-11-10T09:22:23.000Z</time></trkpt><trkpt lon="34.85634" lat="31.362129"><ele>457</ele><time>2017-11-10T09:22:24.000Z</time></trkpt><trkpt lon="34.85627" lat="31.362109"><ele>457</ele><time>2017-11-10T09:22:25.000Z</time></trkpt><trkpt lon="34.8562" lat="31.3621"><ele>456</ele><time>2017-11-10T09:22:26.000Z</time></trkpt><trkpt lon="34.856133" lat="31.362114"><ele>456</ele><time>2017-11-10T09:22:27.000Z</time></trkpt><trkpt lon="34.856078" lat="31.362153"><ele>455</ele><time>2017-11-10T09:22:28.000Z</time></trkpt><trkpt lon="34.856037" lat="31.362203"><ele>455</ele><time>2017-11-10T09:22:29.000Z</time></trkpt><trkpt lon="34.856012" lat="31.362257"><ele>454</ele><time>2017-11-10T09:22:30.000Z</time></trkpt><trkpt lon="34.856001" lat="31.362308"><ele>454</ele><time>2017-11-10T09:22:31.000Z</time></trkpt><trkpt lon="34.855995" lat="31.362354"><ele>455</ele><time>2017-11-10T09:22:32.000Z</time></trkpt><trkpt lon="34.855981" lat="31.362395"><ele>456</ele><time>2017-11-10T09:22:33.000Z</time></trkpt><trkpt lon="34.855958" lat="31.362434"><ele>456</ele><time>2017-11-10T09:22:34.000Z</time></trkpt><trkpt lon="34.855931" lat="31.362471"><ele>456</ele><time>2017-11-10T09:22:35.000Z</time></trkpt><trkpt lon="34.85591" lat="31.36251"><ele>456</ele><time>2017-11-10T09:22:36.000Z</time></trkpt><trkpt lon="34.855903" lat="31.362551"><ele>456</ele><time>2017-11-10T09:22:37.000Z</time></trkpt><trkpt lon="34.855908" lat="31.36259"><ele>456</ele><time>2017-11-10T09:22:38.000Z</time></trkpt><trkpt lon="34.855903" lat="31.362625"><ele>456</ele><time>2017-11-10T09:22:39.000Z</time></trkpt><trkpt lon="34.855874" lat="31.362659"><ele>456</ele><time>2017-11-10T09:22:40.000Z</time></trkpt><trkpt lon="34.85582" lat="31.362671"><ele>456</ele><time>2017-11-10T09:22:41.000Z</time></trkpt><trkpt lon="34.855756" lat="31.362661"><ele>455</ele><time>2017-11-10T09:22:42.000Z</time></trkpt><trkpt lon="34.855689" lat="31.362653"><ele>454</ele><time>2017-11-10T09:22:43.000Z</time></trkpt><trkpt lon="34.855612" lat="31.362655"><ele>453</ele><time>2017-11-10T09:22:44.000Z</time></trkpt><trkpt lon="34.855542" lat="31.362684"><ele>452</ele><time>2017-11-10T09:22:45.000Z</time></trkpt><trkpt lon="34.855501" lat="31.362742"><ele>451</ele><time>2017-11-10T09:22:46.000Z</time></trkpt><trkpt lon="34.855491" lat="31.362803"><ele>450</ele><time>2017-11-10T09:22:47.000Z</time></trkpt><trkpt lon="34.855514" lat="31.362852"><ele>449</ele><time>2017-11-10T09:22:48.000Z</time></trkpt><trkpt lon="34.855548" lat="31.362889"><ele>449</ele><time>2017-11-10T09:22:49.000Z</time></trkpt><trkpt lon="34.855574" lat="31.36292"><ele>449</ele><time>2017-11-10T09:22:50.000Z</time></trkpt><trkpt lon="34.855576" lat="31.36295"><ele>449</ele><time>2017-11-10T09:22:51.000Z</time></trkpt><trkpt lon="34.855558" lat="31.36298"><ele>449</ele><time>2017-11-10T09:22:52.000Z</time></trkpt><trkpt lon="34.855535" lat="31.36301"><ele>449</ele><time>2017-11-10T09:22:53.000Z</time></trkpt><trkpt lon="34.855519" lat="31.363045"><ele>449</ele><time>2017-11-10T09:22:54.000Z</time></trkpt><trkpt lon="34.855527" lat="31.363083"><ele>449</ele><time>2017-11-10T09:22:55.000Z</time></trkpt><trkpt lon="34.855554" lat="31.363111"><ele>448</ele><time>2017-11-10T09:22:56.000Z</time></trkpt><trkpt lon="34.855583" lat="31.363133"><ele>448</ele><time>2017-11-10T09:22:57.000Z</time></trkpt><trkpt lon="34.855614" lat="31.363154"><ele>448</ele><time>2017-11-10T09:22:58.000Z</time></trkpt><trkpt lon="34.855646" lat="31.363171"><ele>448</ele><time>2017-11-10T09:22:59.000Z</time></trkpt><trkpt lon="34.85568" lat="31.363187"><ele>448</ele><time>2017-11-10T09:23:00.000Z</time></trkpt><trkpt lon="34.855714" lat="31.363202"><ele>448</ele><time>2017-11-10T09:23:01.000Z</time></trkpt><trkpt lon="34.855747" lat="31.363216"><ele>448</ele><time>2017-11-10T09:23:02.000Z</time></trkpt><trkpt lon="34.855778" lat="31.363231"><ele>448</ele><time>2017-11-10T09:23:03.000Z</time></trkpt><trkpt lon="34.855806" lat="31.363248"><ele>448</ele><time>2017-11-10T09:23:04.000Z</time></trkpt><trkpt lon="34.855829" lat="31.36327"><ele>448</ele><time>2017-11-10T09:23:05.000Z</time></trkpt><trkpt lon="34.85584" lat="31.363298"><ele>448</ele><time>2017-11-10T09:23:06.000Z</time></trkpt><trkpt lon="34.855835" lat="31.363328"><ele>448</ele><time>2017-11-10T09:23:07.000Z</time></trkpt><trkpt lon="34.855819" lat="31.363361"><ele>448</ele><time>2017-11-10T09:23:08.000Z</time></trkpt><trkpt lon="34.855798" lat="31.363394"><ele>448</ele><time>2017-11-10T09:23:09.000Z</time></trkpt><trkpt lon="34.855776" lat="31.363425"><ele>448</ele><time>2017-11-10T09:23:10.000Z</time></trkpt><trkpt lon="34.855747" lat="31.363456"><ele>448</ele><time>2017-11-10T09:23:11.000Z</time></trkpt><trkpt lon="34.855719" lat="31.363485"><ele>448</ele><time>2017-11-10T09:23:12.000Z</time></trkpt><trkpt lon="34.855698" lat="31.363512"><ele>449</ele><time>2017-11-10T09:23:13.000Z</time></trkpt><trkpt lon="34.855676" lat="31.363534"><ele>449</ele><time>2017-11-10T09:23:14.000Z</time></trkpt><trkpt lon="34.855655" lat="31.363551"><ele>449</ele><time>2017-11-10T09:23:15.000Z</time></trkpt><trkpt lon="34.855634" lat="31.363564"><ele>449</ele><time>2017-11-10T09:23:16.000Z</time></trkpt><trkpt lon="34.855611" lat="31.363569"><ele>449</ele><time>2017-11-10T09:23:17.000Z</time></trkpt><trkpt lon="34.855588" lat="31.363569"><ele>449</ele><time>2017-11-10T09:23:18.000Z</time></trkpt><trkpt lon="34.855563" lat="31.363572"><ele>449</ele><time>2017-11-10T09:23:19.000Z</time></trkpt><trkpt lon="34.855537" lat="31.363578"><ele>449</ele><time>2017-11-10T09:23:20.000Z</time></trkpt><trkpt lon="34.85551" lat="31.363588"><ele>449</ele><time>2017-11-10T09:23:21.000Z</time></trkpt><trkpt lon="34.855486" lat="31.363602"><ele>450</ele><time>2017-11-10T09:23:22.000Z</time></trkpt><trkpt lon="34.855466" lat="31.363615"><ele>450</ele><time>2017-11-10T09:23:23.000Z</time></trkpt><trkpt lon="34.855443" lat="31.363628"><ele>450</ele><time>2017-11-10T09:23:24.000Z</time></trkpt><trkpt lon="34.855416" lat="31.363643"><ele>450</ele><time>2017-11-10T09:23:25.000Z</time></trkpt><trkpt lon="34.855394" lat="31.363664"><ele>450</ele><time>2017-11-10T09:23:26.000Z</time></trkpt><trkpt lon="34.855379" lat="31.363683"><ele>450</ele><time>2017-11-10T09:23:27.000Z</time></trkpt><trkpt lon="34.855363" lat="31.363696"><ele>451</ele><time>2017-11-10T09:23:28.000Z</time></trkpt><trkpt lon="34.855363" lat="31.363696"><ele>451</ele><time>2017-11-10T09:23:29.000Z</time></trkpt><trkpt lon="34.855329" lat="31.363718"><ele>451</ele><time>2017-11-10T09:23:30.000Z</time></trkpt><trkpt lon="34.855314" lat="31.363735"><ele>451</ele><time>2017-11-10T09:23:31.000Z</time></trkpt><trkpt lon="34.855301" lat="31.363753"><ele>451</ele><time>2017-11-10T09:23:32.000Z</time></trkpt><trkpt lon="34.855287" lat="31.363771"><ele>451</ele><time>2017-11-10T09:23:33.000Z</time></trkpt><trkpt lon="34.855272" lat="31.363789"><ele>451</ele><time>2017-11-10T09:23:34.000Z</time></trkpt><trkpt lon="34.855255" lat="31.363805"><ele>451</ele><time>2017-11-10T09:23:35.000Z</time></trkpt><trkpt lon="34.855235" lat="31.363823"><ele>452</ele><time>2017-11-10T09:23:36.000Z</time></trkpt><trkpt lon="34.855212" lat="31.363843"><ele>452</ele><time>2017-11-10T09:23:37.000Z</time></trkpt><trkpt lon="34.855191" lat="31.363866"><ele>452</ele><time>2017-11-10T09:23:38.000Z</time></trkpt><trkpt lon="34.855171" lat="31.363892"><ele>452</ele><time>2017-11-10T09:23:39.000Z</time></trkpt><trkpt lon="34.85515" lat="31.363921"><ele>452</ele><time>2017-11-10T09:23:40.000Z</time></trkpt><trkpt lon="34.85513" lat="31.363953"><ele>452</ele><time>2017-11-10T09:23:41.000Z</time></trkpt><trkpt lon="34.855112" lat="31.363986"><ele>452</ele><time>2017-11-10T09:23:42.000Z</time></trkpt><trkpt lon="34.855097" lat="31.364018"><ele>453</ele><time>2017-11-10T09:23:43.000Z</time></trkpt><trkpt lon="34.855087" lat="31.364046"><ele>453</ele><time>2017-11-10T09:23:44.000Z</time></trkpt><trkpt lon="34.855083" lat="31.364077"><ele>454</ele><time>2017-11-10T09:23:45.000Z</time></trkpt><trkpt lon="34.855082" lat="31.364107"><ele>455</ele><time>2017-11-10T09:23:46.000Z</time></trkpt><trkpt lon="34.85508" lat="31.364136"><ele>455</ele><time>2017-11-10T09:23:47.000Z</time></trkpt><trkpt lon="34.855073" lat="31.364162"><ele>455</ele><time>2017-11-10T09:23:48.000Z</time></trkpt><trkpt lon="34.855063" lat="31.364191"><ele>455</ele><time>2017-11-10T09:23:49.000Z</time></trkpt><trkpt lon="34.855055" lat="31.364219"><ele>455</ele><time>2017-11-10T09:23:50.000Z</time></trkpt><trkpt lon="34.855046" lat="31.364246"><ele>456</ele><time>2017-11-10T09:23:51.000Z</time></trkpt><trkpt lon="34.85504" lat="31.364273"><ele>456</ele><time>2017-11-10T09:23:52.000Z</time></trkpt><trkpt lon="34.855038" lat="31.364298"><ele>456</ele><time>2017-11-10T09:23:53.000Z</time></trkpt><trkpt lon="34.855037" lat="31.364322"><ele>456</ele><time>2017-11-10T09:23:54.000Z</time></trkpt><trkpt lon="34.855037" lat="31.364346"><ele>456</ele><time>2017-11-10T09:23:55.000Z</time></trkpt><trkpt lon="34.855034" lat="31.364366"><ele>456</ele><time>2017-11-10T09:23:56.000Z</time></trkpt><trkpt lon="34.855029" lat="31.364386"><ele>456</ele><time>2017-11-10T09:23:57.000Z</time></trkpt><trkpt lon="34.855023" lat="31.36441"><ele>456</ele><time>2017-11-10T09:23:58.000Z</time></trkpt><trkpt lon="34.855014" lat="31.364435"><ele>456</ele><time>2017-11-10T09:23:59.000Z</time></trkpt><trkpt lon="34.855004" lat="31.364458"><ele>456</ele><time>2017-11-10T09:24:00.000Z</time></trkpt><trkpt lon="34.854994" lat="31.364482"><ele>456</ele><time>2017-11-10T09:24:01.000Z</time></trkpt><trkpt lon="34.854986" lat="31.364504"><ele>456</ele><time>2017-11-10T09:24:02.000Z</time></trkpt><trkpt lon="34.854982" lat="31.364526"><ele>456</ele><time>2017-11-10T09:24:03.000Z</time></trkpt><trkpt lon="34.854978" lat="31.364547"><ele>456</ele><time>2017-11-10T09:24:04.000Z</time></trkpt><trkpt lon="34.854973" lat="31.364569"><ele>456</ele><time>2017-11-10T09:24:05.000Z</time></trkpt><trkpt lon="34.854969" lat="31.364591"><ele>457</ele><time>2017-11-10T09:24:06.000Z</time></trkpt><trkpt lon="34.854965" lat="31.364613"><ele>457</ele><time>2017-11-10T09:24:07.000Z</time></trkpt><trkpt lon="34.854961" lat="31.364636"><ele>457</ele><time>2017-11-10T09:24:08.000Z</time></trkpt><trkpt lon="34.85496" lat="31.364658"><ele>457</ele><time>2017-11-10T09:24:09.000Z</time></trkpt><trkpt lon="34.854958" lat="31.364679"><ele>458</ele><time>2017-11-10T09:24:10.000Z</time></trkpt><trkpt lon="34.854952" lat="31.364701"><ele>458</ele><time>2017-11-10T09:24:11.000Z</time></trkpt><trkpt lon="34.854945" lat="31.364724"><ele>458</ele><time>2017-11-10T09:24:12.000Z</time></trkpt><trkpt lon="34.854939" lat="31.36475"><ele>458</ele><time>2017-11-10T09:24:13.000Z</time></trkpt><trkpt lon="34.854935" lat="31.364777"><ele>458</ele><time>2017-11-10T09:24:14.000Z</time></trkpt><trkpt lon="34.854932" lat="31.364806"><ele>458</ele><time>2017-11-10T09:24:15.000Z</time></trkpt><trkpt lon="34.854931" lat="31.364832"><ele>458</ele><time>2017-11-10T09:24:16.000Z</time></trkpt><trkpt lon="34.854932" lat="31.364859"><ele>458</ele><time>2017-11-10T09:24:17.000Z</time></trkpt><trkpt lon="34.854935" lat="31.364886"><ele>458</ele><time>2017-11-10T09:24:18.000Z</time></trkpt><trkpt lon="34.854939" lat="31.364911"><ele>458</ele><time>2017-11-10T09:24:19.000Z</time></trkpt><trkpt lon="34.854944" lat="31.364936"><ele>458</ele><time>2017-11-10T09:24:20.000Z</time></trkpt><trkpt lon="34.854951" lat="31.36496"><ele>458</ele><time>2017-11-10T09:24:21.000Z</time></trkpt><trkpt lon="34.854959" lat="31.364982"><ele>458</ele><time>2017-11-10T09:24:22.000Z</time></trkpt><trkpt lon="34.854966" lat="31.365008"><ele>458</ele><time>2017-11-10T09:24:23.000Z</time></trkpt><trkpt lon="34.854975" lat="31.365037"><ele>458</ele><time>2017-11-10T09:24:24.000Z</time></trkpt><trkpt lon="34.854984" lat="31.365066"><ele>459</ele><time>2017-11-10T09:24:25.000Z</time></trkpt><trkpt lon="34.854993" lat="31.365094"><ele>459</ele><time>2017-11-10T09:24:26.000Z</time></trkpt><trkpt lon="34.855003" lat="31.365121"><ele>459</ele><time>2017-11-10T09:24:27.000Z</time></trkpt><trkpt lon="34.855017" lat="31.365144"><ele>459</ele><time>2017-11-10T09:24:28.000Z</time></trkpt><trkpt lon="34.855027" lat="31.365165"><ele>459</ele><time>2017-11-10T09:24:29.000Z</time></trkpt><trkpt lon="34.855034" lat="31.365184"><ele>459</ele><time>2017-11-10T09:24:30.000Z</time></trkpt><trkpt lon="34.855039" lat="31.365204"><ele>459</ele><time>2017-11-10T09:24:31.000Z</time></trkpt><trkpt lon="34.855048" lat="31.365227"><ele>459</ele><time>2017-11-10T09:24:32.000Z</time></trkpt><trkpt lon="34.855061" lat="31.365252"><ele>459</ele><time>2017-11-10T09:24:33.000Z</time></trkpt><trkpt lon="34.855075" lat="31.365272"><ele>459</ele><time>2017-11-10T09:24:34.000Z</time></trkpt><trkpt lon="34.855088" lat="31.36529"><ele>459</ele><time>2017-11-10T09:24:35.000Z</time></trkpt><trkpt lon="34.855101" lat="31.365308"><ele>460</ele><time>2017-11-10T09:24:36.000Z</time></trkpt><trkpt lon="34.855113" lat="31.365327"><ele>461</ele><time>2017-11-10T09:24:37.000Z</time></trkpt><trkpt lon="34.855129" lat="31.365346"><ele>461</ele><time>2017-11-10T09:24:38.000Z</time></trkpt><trkpt lon="34.855149" lat="31.365367"><ele>461</ele><time>2017-11-10T09:24:39.000Z</time></trkpt><trkpt lon="34.855171" lat="31.365392"><ele>461</ele><time>2017-11-10T09:24:40.000Z</time></trkpt><trkpt lon="34.8552" lat="31.365418"><ele>461</ele><time>2017-11-10T09:24:41.000Z</time></trkpt><trkpt lon="34.855236" lat="31.365445"><ele>462</ele><time>2017-11-10T09:24:42.000Z</time></trkpt><trkpt lon="34.855275" lat="31.365468"><ele>462</ele><time>2017-11-10T09:24:43.000Z</time></trkpt><trkpt lon="34.855314" lat="31.365482"><ele>462</ele><time>2017-11-10T09:24:44.000Z</time></trkpt><trkpt lon="34.855348" lat="31.365491"><ele>462</ele><time>2017-11-10T09:24:45.000Z</time></trkpt><trkpt lon="34.855375" lat="31.365497"><ele>463</ele><time>2017-11-10T09:24:46.000Z</time></trkpt><trkpt lon="34.8554" lat="31.365504"><ele>463</ele><time>2017-11-10T09:24:47.000Z</time></trkpt><trkpt lon="34.85542" lat="31.365513"><ele>463</ele><time>2017-11-10T09:24:48.000Z</time></trkpt><trkpt lon="34.855439" lat="31.365524"><ele>463</ele><time>2017-11-10T09:24:49.000Z</time></trkpt><trkpt lon="34.85546" lat="31.365535"><ele>463</ele><time>2017-11-10T09:24:50.000Z</time></trkpt><trkpt lon="34.855483" lat="31.365546"><ele>463</ele><time>2017-11-10T09:24:51.000Z</time></trkpt><trkpt lon="34.855505" lat="31.365555"><ele>463</ele><time>2017-11-10T09:24:52.000Z</time></trkpt><trkpt lon="34.855528" lat="31.365564"><ele>463</ele><time>2017-11-10T09:24:53.000Z</time></trkpt><trkpt lon="34.855552" lat="31.36557"><ele>463</ele><time>2017-11-10T09:24:54.000Z</time></trkpt><trkpt lon="34.855576" lat="31.365577"><ele>464</ele><time>2017-11-10T09:24:55.000Z</time></trkpt><trkpt lon="34.855598" lat="31.365583"><ele>464</ele><time>2017-11-10T09:24:56.000Z</time></trkpt><trkpt lon="34.855598" lat="31.365583"><ele>464</ele><time>2017-11-10T09:24:57.000Z</time></trkpt><trkpt lon="34.855638" lat="31.365587"><ele>465</ele><time>2017-11-10T09:24:58.000Z</time></trkpt><trkpt lon="34.855638" lat="31.365587"><ele>465</ele><time>2017-11-10T09:24:59.000Z</time></trkpt><trkpt lon="34.855675" lat="31.365596"><ele>465</ele><time>2017-11-10T09:25:00.000Z</time></trkpt><trkpt lon="34.855696" lat="31.365601"><ele>465</ele><time>2017-11-10T09:25:01.000Z</time></trkpt><trkpt lon="34.855696" lat="31.365601"><ele>466</ele><time>2017-11-10T09:25:02.000Z</time></trkpt><trkpt lon="34.855735" lat="31.365612"><ele>466</ele><time>2017-11-10T09:25:03.000Z</time></trkpt><trkpt lon="34.855735" lat="31.365612"><ele>466</ele><time>2017-11-10T09:25:04.000Z</time></trkpt><trkpt lon="34.855771" lat="31.365624"><ele>466</ele><time>2017-11-10T09:25:05.000Z</time></trkpt><trkpt lon="34.855771" lat="31.365624"><ele>466</ele><time>2017-11-10T09:25:06.000Z</time></trkpt><trkpt lon="34.85581" lat="31.365638"><ele>466</ele><time>2017-11-10T09:25:07.000Z</time></trkpt><trkpt lon="34.855831" lat="31.365645"><ele>466</ele><time>2017-11-10T09:25:08.000Z</time></trkpt><trkpt lon="34.855855" lat="31.365652"><ele>466</ele><time>2017-11-10T09:25:09.000Z</time></trkpt><trkpt lon="34.855881" lat="31.365658"><ele>466</ele><time>2017-11-10T09:25:10.000Z</time></trkpt><trkpt lon="34.855908" lat="31.365666"><ele>467</ele><time>2017-11-10T09:25:11.000Z</time></trkpt><trkpt lon="34.855939" lat="31.365677"><ele>467</ele><time>2017-11-10T09:25:12.000Z</time></trkpt><trkpt lon="34.85597" lat="31.36569"><ele>467</ele><time>2017-11-10T09:25:13.000Z</time></trkpt><trkpt lon="34.855999" lat="31.365701"><ele>467</ele><time>2017-11-10T09:25:14.000Z</time></trkpt><trkpt lon="34.856022" lat="31.365708"><ele>467</ele><time>2017-11-10T09:25:15.000Z</time></trkpt><trkpt lon="34.85604" lat="31.365719"><ele>467</ele><time>2017-11-10T09:25:16.000Z</time></trkpt><trkpt lon="34.856058" lat="31.365729"><ele>467</ele><time>2017-11-10T09:25:17.000Z</time></trkpt><trkpt lon="34.856074" lat="31.365742"><ele>467</ele><time>2017-11-10T09:25:18.000Z</time></trkpt><trkpt lon="34.856094" lat="31.365755"><ele>467</ele><time>2017-11-10T09:25:19.000Z</time></trkpt><trkpt lon="34.856118" lat="31.365763"><ele>467</ele><time>2017-11-10T09:25:20.000Z</time></trkpt><trkpt lon="34.856139" lat="31.365769"><ele>467</ele><time>2017-11-10T09:25:21.000Z</time></trkpt><trkpt lon="34.856139" lat="31.365769"><ele>468</ele><time>2017-11-10T09:25:22.000Z</time></trkpt><trkpt lon="34.856176" lat="31.365782"><ele>468</ele><time>2017-11-10T09:25:23.000Z</time></trkpt><trkpt lon="34.856197" lat="31.365792"><ele>468</ele><time>2017-11-10T09:25:24.000Z</time></trkpt><trkpt lon="34.856221" lat="31.365802"><ele>468</ele><time>2017-11-10T09:25:25.000Z</time></trkpt><trkpt lon="34.856239" lat="31.365812"><ele>468</ele><time>2017-11-10T09:25:26.000Z</time></trkpt><trkpt lon="34.856239" lat="31.365812"><ele>468</ele><time>2017-11-10T09:25:27.000Z</time></trkpt><trkpt lon="34.856266" lat="31.36584"><ele>468</ele><time>2017-11-10T09:25:28.000Z</time></trkpt><trkpt lon="34.856275" lat="31.36586"><ele>468</ele><time>2017-11-10T09:25:29.000Z</time></trkpt><trkpt lon="34.856277" lat="31.365889"><ele>468</ele><time>2017-11-10T09:25:30.000Z</time></trkpt><trkpt lon="34.856274" lat="31.365934"><ele>467</ele><time>2017-11-10T09:25:31.000Z</time></trkpt><trkpt lon="34.856268" lat="31.365989"><ele>467</ele><time>2017-11-10T09:25:32.000Z</time></trkpt><trkpt lon="34.856269" lat="31.366047"><ele>466</ele><time>2017-11-10T09:25:33.000Z</time></trkpt><trkpt lon="34.856269" lat="31.366098"><ele>466</ele><time>2017-11-10T09:25:34.000Z</time></trkpt><trkpt lon="34.856264" lat="31.366135"><ele>466</ele><time>2017-11-10T09:25:35.000Z</time></trkpt><trkpt lon="34.856264" lat="31.366135"><ele>466</ele><time>2017-11-10T09:25:36.000Z</time></trkpt><trkpt lon="34.856264" lat="31.366135"><ele>466</ele><time>2017-11-10T09:25:37.000Z</time></trkpt><trkpt lon="34.856251" lat="31.36615"><ele>466</ele><time>2017-11-10T09:25:38.000Z</time></trkpt><trkpt lon="34.856251" lat="31.36615"><ele>466</ele><time>2017-11-10T09:25:39.000Z</time></trkpt><trkpt lon="34.856251" lat="31.36615"><ele>466</ele><time>2017-11-10T09:25:40.000Z</time></trkpt><trkpt lon="34.856251" lat="31.36615"><ele>466</ele><time>2017-11-10T09:25:41.000Z</time></trkpt><trkpt lon="34.856251" lat="31.36615"><ele>466</ele><time>2017-11-10T09:25:42.000Z</time></trkpt><trkpt lon="34.856251" lat="31.36615"><ele>466</ele><time>2017-11-10T09:25:43.000Z</time></trkpt><trkpt lon="34.856251" lat="31.36615"><ele>466</ele><time>2017-11-10T09:25:44.000Z</time></trkpt><trkpt lon="34.856251" lat="31.36615"><ele>466</ele><time>2017-11-10T09:25:45.000Z</time></trkpt><trkpt lon="34.856251" lat="31.36615"><ele>466</ele><time>2017-11-10T09:25:46.000Z</time></trkpt><trkpt lon="34.856251" lat="31.36615"><ele>466</ele><time>2017-11-10T09:25:47.000Z</time></trkpt><trkpt lon="34.856251" lat="31.36615"><ele>466</ele><time>2017-11-10T09:25:48.000Z</time></trkpt><trkpt lon="34.856251" lat="31.36615"><ele>466</ele><time>2017-11-10T09:25:49.000Z</time></trkpt><trkpt lon="34.856251" lat="31.36615"><ele>466</ele><time>2017-11-10T09:25:50.000Z</time></trkpt><trkpt lon="34.856251" lat="31.36615"><ele>466</ele><time>2017-11-10T09:25:51.000Z</time></trkpt><trkpt lon="34.856251" lat="31.36615"><ele>466</ele><time>2017-11-10T09:25:52.000Z</time></trkpt><trkpt lon="34.856251" lat="31.36615"><ele>466</ele><time>2017-11-10T09:25:53.000Z</time></trkpt><trkpt lon="34.856251" lat="31.36615"><ele>466</ele><time>2017-11-10T09:25:54.000Z</time></trkpt><trkpt lon="34.856251" lat="31.36615"><ele>466</ele><time>2017-11-10T09:25:55.000Z</time></trkpt><trkpt lon="34.856251" lat="31.36615"><ele>466</ele><time>2017-11-10T09:25:56.000Z</time></trkpt><trkpt lon="34.856251" lat="31.36615"><ele>466</ele><time>2017-11-10T09:25:57.000Z</time></trkpt><trkpt lon="34.856251" lat="31.36615"><ele>466</ele><time>2017-11-10T09:25:58.000Z</time></trkpt><trkpt lon="34.856251" lat="31.36615"><ele>466</ele><time>2017-11-10T09:25:59.000Z</time></trkpt><trkpt lon="34.856251" lat="31.36615"><ele>466</ele><time>2017-11-10T09:26:00.000Z</time></trkpt><trkpt lon="34.856251" lat="31.36615"><ele>466</ele><time>2017-11-10T09:26:01.000Z</time></trkpt><trkpt lon="34.856251" lat="31.36615"><ele>466</ele><time>2017-11-10T09:26:02.000Z</time></trkpt><trkpt lon="34.856251" lat="31.36615"><ele>466</ele><time>2017-11-10T09:26:03.000Z</time></trkpt><trkpt lon="34.856251" lat="31.36615"><ele>466</ele><time>2017-11-10T09:26:04.000Z</time></trkpt><trkpt lon="34.856251" lat="31.36615"><ele>466</ele><time>2017-11-10T09:26:05.000Z</time></trkpt><trkpt lon="34.856251" lat="31.36615"><ele>466</ele><time>2017-11-10T09:26:06.000Z</time></trkpt><trkpt lon="34.856251" lat="31.36615"><ele>466</ele><time>2017-11-10T09:26:07.000Z</time></trkpt><trkpt lon="34.856251" lat="31.36615"><ele>466</ele><time>2017-11-10T09:26:08.000Z</time></trkpt><trkpt lon="34.856251" lat="31.36615"><ele>466</ele><time>2017-11-10T09:26:09.000Z</time></trkpt><trkpt lon="34.856251" lat="31.36615"><ele>466</ele><time>2017-11-10T09:26:10.000Z</time></trkpt><trkpt lon="34.856251" lat="31.36615"><ele>466</ele><time>2017-11-10T09:26:11.000Z</time></trkpt><trkpt lon="34.856251" lat="31.36615"><ele>466</ele><time>2017-11-10T09:26:12.000Z</time></trkpt><trkpt lon="34.856251" lat="31.36615"><ele>466</ele><time>2017-11-10T09:26:13.000Z</time></trkpt><trkpt lon="34.856251" lat="31.36615"><ele>466</ele><time>2017-11-10T09:26:14.000Z</time></trkpt><trkpt lon="34.856251" lat="31.36615"><ele>466</ele><time>2017-11-10T09:26:15.000Z</time></trkpt><trkpt lon="34.856251" lat="31.36615"><ele>466</ele><time>2017-11-10T09:26:16.000Z</time></trkpt><trkpt lon="34.856251" lat="31.36615"><ele>466</ele><time>2017-11-10T09:26:17.000Z</time></trkpt><trkpt lon="34.856251" lat="31.36615"><ele>466</ele><time>2017-11-10T09:26:18.000Z</time></trkpt><trkpt lon="34.856251" lat="31.36615"><ele>466</ele><time>2017-11-10T09:26:19.000Z</time></trkpt><trkpt lon="34.856251" lat="31.36615"><ele>466</ele><time>2017-11-10T09:26:20.000Z</time></trkpt><trkpt lon="34.856251" lat="31.36615"><ele>466</ele><time>2017-11-10T09:26:21.000Z</time></trkpt><trkpt lon="34.856251" lat="31.36615"><ele>466</ele><time>2017-11-10T09:26:22.000Z</time></trkpt><trkpt lon="34.856251" lat="31.36615"><ele>466</ele><time>2017-11-10T09:26:23.000Z</time></trkpt><trkpt lon="34.856251" lat="31.36615"><ele>466</ele><time>2017-11-10T09:26:24.000Z</time></trkpt><trkpt lon="34.856251" lat="31.36615"><ele>466</ele><time>2017-11-10T09:26:25.000Z</time></trkpt><trkpt lon="34.856251" lat="31.36615"><ele>466</ele><time>2017-11-10T09:26:26.000Z</time></trkpt><trkpt lon="34.856251" lat="31.36615"><ele>466</ele><time>2017-11-10T09:26:27.000Z</time></trkpt><trkpt lon="34.856251" lat="31.36615"><ele>466</ele><time>2017-11-10T09:26:28.000Z</time></trkpt><trkpt lon="34.856251" lat="31.36615"><ele>466</ele><time>2017-11-10T09:26:29.000Z</time></trkpt><trkpt lon="34.856251" lat="31.36615"><ele>466</ele><time>2017-11-10T09:26:30.000Z</time></trkpt><trkpt lon="34.856251" lat="31.36615"><ele>466</ele><time>2017-11-10T09:26:31.000Z</time></trkpt><trkpt lon="34.856251" lat="31.36615"><ele>466</ele><time>2017-11-10T09:26:32.000Z</time></trkpt><trkpt lon="34.856251" lat="31.36615"><ele>466</ele><time>2017-11-10T09:26:33.000Z</time></trkpt><trkpt lon="34.856251" lat="31.36615"><ele>466</ele><time>2017-11-10T09:26:34.000Z</time></trkpt><trkpt lon="34.856251" lat="31.36615"><ele>466</ele><time>2017-11-10T09:26:35.000Z</time></trkpt><trkpt lon="34.856251" lat="31.36615"><ele>466</ele><time>2017-11-10T09:26:36.000Z</time></trkpt><trkpt lon="34.856251" lat="31.36615"><ele>466</ele><time>2017-11-10T09:26:37.000Z</time></trkpt><trkpt lon="34.856251" lat="31.36615"><ele>466</ele><time>2017-11-10T09:26:38.000Z</time></trkpt><trkpt lon="34.856251" lat="31.36615"><ele>466</ele><time>2017-11-10T09:26:39.000Z</time></trkpt><trkpt lon="34.856251" lat="31.36615"><ele>466</ele><time>2017-11-10T09:26:40.000Z</time></trkpt><trkpt lon="34.856251" lat="31.36615"><ele>466</ele><time>2017-11-10T09:26:41.000Z</time></trkpt><trkpt lon="34.856251" lat="31.36615"><ele>466</ele><time>2017-11-10T09:26:42.000Z</time></trkpt><trkpt lon="34.856251" lat="31.36615"><ele>466</ele><time>2017-11-10T09:26:43.000Z</time></trkpt><trkpt lon="34.856251" lat="31.36615"><ele>466</ele><time>2017-11-10T09:26:44.000Z</time></trkpt><trkpt lon="34.856251" lat="31.36615"><ele>466</ele><time>2017-11-10T09:26:45.000Z</time></trkpt><trkpt lon="34.856251" lat="31.36615"><ele>466</ele><time>2017-11-10T09:26:46.000Z</time></trkpt><trkpt lon="34.856251" lat="31.36615"><ele>466</ele><time>2017-11-10T09:26:47.000Z</time></trkpt><trkpt lon="34.856251" lat="31.36615"><ele>466</ele><time>2017-11-10T09:26:48.000Z</time></trkpt><trkpt lon="34.856227" lat="31.366144"><ele>466</ele><time>2017-11-10T09:26:49.000Z</time></trkpt><trkpt lon="34.856199" lat="31.366136"><ele>465</ele><time>2017-11-10T09:26:50.000Z</time></trkpt><trkpt lon="34.856171" lat="31.366126"><ele>465</ele><time>2017-11-10T09:26:51.000Z</time></trkpt><trkpt lon="34.856142" lat="31.366112"><ele>465</ele><time>2017-11-10T09:26:52.000Z</time></trkpt><trkpt lon="34.856113" lat="31.366098"><ele>465</ele><time>2017-11-10T09:26:53.000Z</time></trkpt><trkpt lon="34.85608" lat="31.366084"><ele>464</ele><time>2017-11-10T09:26:54.000Z</time></trkpt><trkpt lon="34.856043" lat="31.366076"><ele>464</ele><time>2017-11-10T09:26:55.000Z</time></trkpt><trkpt lon="34.856002" lat="31.366066"><ele>464</ele><time>2017-11-10T09:26:56.000Z</time></trkpt><trkpt lon="34.855957" lat="31.366056"><ele>463</ele><time>2017-11-10T09:26:57.000Z</time></trkpt><trkpt lon="34.855909" lat="31.36605"><ele>463</ele><time>2017-11-10T09:26:58.000Z</time></trkpt><trkpt lon="34.85586" lat="31.366046"><ele>462</ele><time>2017-11-10T09:26:59.000Z</time></trkpt><trkpt lon="34.855814" lat="31.36604"><ele>461</ele><time>2017-11-10T09:27:00.000Z</time></trkpt><trkpt lon="34.855771" lat="31.366034"><ele>460</ele><time>2017-11-10T09:27:01.000Z</time></trkpt><trkpt lon="34.85573" lat="31.366031"><ele>460</ele><time>2017-11-10T09:27:02.000Z</time></trkpt><trkpt lon="34.855693" lat="31.36603"><ele>460</ele><time>2017-11-10T09:27:03.000Z</time></trkpt><trkpt lon="34.855661" lat="31.366028"><ele>460</ele><time>2017-11-10T09:27:04.000Z</time></trkpt><trkpt lon="34.855633" lat="31.366024"><ele>459</ele><time>2017-11-10T09:27:05.000Z</time></trkpt><trkpt lon="34.855613" lat="31.366018"><ele>459</ele><time>2017-11-10T09:27:06.000Z</time></trkpt><trkpt lon="34.855613" lat="31.366018"><ele>459</ele><time>2017-11-10T09:27:07.000Z</time></trkpt><trkpt lon="34.855578" lat="31.366005"><ele>459</ele><time>2017-11-10T09:27:08.000Z</time></trkpt><trkpt lon="34.855558" lat="31.365994"><ele>459</ele><time>2017-11-10T09:27:09.000Z</time></trkpt><trkpt lon="34.855539" lat="31.365983"><ele>459</ele><time>2017-11-10T09:27:10.000Z</time></trkpt><trkpt lon="34.855518" lat="31.365965"><ele>459</ele><time>2017-11-10T09:27:11.000Z</time></trkpt><trkpt lon="34.8555" lat="31.365944"><ele>458</ele><time>2017-11-10T09:27:12.000Z</time></trkpt><trkpt lon="34.855491" lat="31.365918"><ele>458</ele><time>2017-11-10T09:27:13.000Z</time></trkpt><trkpt lon="34.855488" lat="31.365893"><ele>458</ele><time>2017-11-10T09:27:14.000Z</time></trkpt><trkpt lon="34.855483" lat="31.365871"><ele>458</ele><time>2017-11-10T09:27:15.000Z</time></trkpt><trkpt lon="34.855479" lat="31.365851"><ele>458</ele><time>2017-11-10T09:27:16.000Z</time></trkpt><trkpt lon="34.855474" lat="31.365831"><ele>458</ele><time>2017-11-10T09:27:17.000Z</time></trkpt><trkpt lon="34.855466" lat="31.365812"><ele>458</ele><time>2017-11-10T09:27:18.000Z</time></trkpt><trkpt lon="34.855451" lat="31.365792"><ele>458</ele><time>2017-11-10T09:27:19.000Z</time></trkpt><trkpt lon="34.855435" lat="31.365774"><ele>458</ele><time>2017-11-10T09:27:20.000Z</time></trkpt><trkpt lon="34.855414" lat="31.365757"><ele>458</ele><time>2017-11-10T09:27:21.000Z</time></trkpt><trkpt lon="34.855386" lat="31.365746"><ele>458</ele><time>2017-11-10T09:27:22.000Z</time></trkpt><trkpt lon="34.855351" lat="31.365738"><ele>458</ele><time>2017-11-10T09:27:23.000Z</time></trkpt><trkpt lon="34.855313" lat="31.365729"><ele>458</ele><time>2017-11-10T09:27:24.000Z</time></trkpt><trkpt lon="34.855276" lat="31.365717"><ele>458</ele><time>2017-11-10T09:27:25.000Z</time></trkpt><trkpt lon="34.855239" lat="31.365705"><ele>458</ele><time>2017-11-10T09:27:26.000Z</time></trkpt><trkpt lon="34.855201" lat="31.365697"><ele>457</ele><time>2017-11-10T09:27:27.000Z</time></trkpt><trkpt lon="34.855164" lat="31.365691"><ele>457</ele><time>2017-11-10T09:27:28.000Z</time></trkpt><trkpt lon="34.855128" lat="31.365684"><ele>457</ele><time>2017-11-10T09:27:29.000Z</time></trkpt><trkpt lon="34.855089" lat="31.365674"><ele>457</ele><time>2017-11-10T09:27:30.000Z</time></trkpt><trkpt lon="34.85505" lat="31.365655"><ele>457</ele><time>2017-11-10T09:27:31.000Z</time></trkpt><trkpt lon="34.855015" lat="31.365625"><ele>456</ele><time>2017-11-10T09:27:32.000Z</time></trkpt><trkpt lon="34.854979" lat="31.365587"><ele>456</ele><time>2017-11-10T09:27:33.000Z</time></trkpt><trkpt lon="34.85494" lat="31.365543"><ele>455</ele><time>2017-11-10T09:27:34.000Z</time></trkpt><trkpt lon="34.8549" lat="31.36549"><ele>454</ele><time>2017-11-10T09:27:35.000Z</time></trkpt><trkpt lon="34.854863" lat="31.365436"><ele>454</ele><time>2017-11-10T09:27:36.000Z</time></trkpt><trkpt lon="34.854822" lat="31.36538"><ele>453</ele><time>2017-11-10T09:27:37.000Z</time></trkpt><trkpt lon="34.854778" lat="31.365325"><ele>453</ele><time>2017-11-10T09:27:38.000Z</time></trkpt><trkpt lon="34.854735" lat="31.365274"><ele>453</ele><time>2017-11-10T09:27:39.000Z</time></trkpt><trkpt lon="34.854697" lat="31.365228"><ele>453</ele><time>2017-11-10T09:27:40.000Z</time></trkpt><trkpt lon="34.854674" lat="31.365185"><ele>452</ele><time>2017-11-10T09:27:41.000Z</time></trkpt><trkpt lon="34.854652" lat="31.365152"><ele>452</ele><time>2017-11-10T09:27:42.000Z</time></trkpt><trkpt lon="34.854635" lat="31.365127"><ele>452</ele><time>2017-11-10T09:27:43.000Z</time></trkpt><trkpt lon="34.854623" lat="31.365108"><ele>452</ele><time>2017-11-10T09:27:44.000Z</time></trkpt><trkpt lon="34.854623" lat="31.365108"><ele>452</ele><time>2017-11-10T09:27:45.000Z</time></trkpt><trkpt lon="34.854608" lat="31.365082"><ele>452</ele><time>2017-11-10T09:27:46.000Z</time></trkpt><trkpt lon="34.854608" lat="31.365082"><ele>452</ele><time>2017-11-10T09:27:47.000Z</time></trkpt><trkpt lon="34.854608" lat="31.365082"><ele>452</ele><time>2017-11-10T09:27:48.000Z</time></trkpt><trkpt lon="34.854608" lat="31.365082"><ele>451</ele><time>2017-11-10T09:27:49.000Z</time></trkpt><trkpt lon="34.854608" lat="31.365082"><ele>452</ele><time>2017-11-10T09:27:50.000Z</time></trkpt><trkpt lon="34.854608" lat="31.365082"><ele>452</ele><time>2017-11-10T09:27:51.000Z</time></trkpt><trkpt lon="34.854608" lat="31.365082"><ele>452</ele><time>2017-11-10T09:27:52.000Z</time></trkpt><trkpt lon="34.854608" lat="31.365082"><ele>452</ele><time>2017-11-10T09:27:53.000Z</time></trkpt><trkpt lon="34.854608" lat="31.365082"><ele>452</ele><time>2017-11-10T09:27:54.000Z</time></trkpt><trkpt lon="34.854608" lat="31.365082"><ele>452</ele><time>2017-11-10T09:27:55.000Z</time></trkpt><trkpt lon="34.854608" lat="31.365082"><ele>452</ele><time>2017-11-10T09:27:56.000Z</time></trkpt><trkpt lon="34.854608" lat="31.365082"><ele>452</ele><time>2017-11-10T09:27:57.000Z</time></trkpt><trkpt lon="34.854608" lat="31.365082"><ele>452</ele><time>2017-11-10T09:27:58.000Z</time></trkpt><trkpt lon="34.854608" lat="31.365082"><ele>452</ele><time>2017-11-10T09:27:59.000Z</time></trkpt><trkpt lon="34.854608" lat="31.365082"><ele>452</ele><time>2017-11-10T09:28:00.000Z</time></trkpt><trkpt lon="34.854608" lat="31.365082"><ele>452</ele><time>2017-11-10T09:28:01.000Z</time></trkpt><trkpt lon="34.854608" lat="31.365082"><ele>452</ele><time>2017-11-10T09:28:02.000Z</time></trkpt><trkpt lon="34.854608" lat="31.365082"><ele>452</ele><time>2017-11-10T09:28:03.000Z</time></trkpt><trkpt lon="34.854608" lat="31.365082"><ele>452</ele><time>2017-11-10T09:28:04.000Z</time></trkpt><trkpt lon="34.854608" lat="31.365082"><ele>452</ele><time>2017-11-10T09:28:05.000Z</time></trkpt><trkpt lon="34.854608" lat="31.365082"><ele>452</ele><time>2017-11-10T09:28:06.000Z</time></trkpt><trkpt lon="34.854608" lat="31.365082"><ele>452</ele><time>2017-11-10T09:28:07.000Z</time></trkpt><trkpt lon="34.854608" lat="31.365082"><ele>452</ele><time>2017-11-10T09:28:08.000Z</time></trkpt><trkpt lon="34.854608" lat="31.365082"><ele>452</ele><time>2017-11-10T09:28:09.000Z</time></trkpt><trkpt lon="34.854608" lat="31.365082"><ele>452</ele><time>2017-11-10T09:28:10.000Z</time></trkpt><trkpt lon="34.854608" lat="31.365082"><ele>452</ele><time>2017-11-10T09:28:11.000Z</time></trkpt><trkpt lon="34.854608" lat="31.365082"><ele>452</ele><time>2017-11-10T09:28:12.000Z</time></trkpt><trkpt lon="34.854608" lat="31.365082"><ele>452</ele><time>2017-11-10T09:28:13.000Z</time></trkpt><trkpt lon="34.854608" lat="31.365082"><ele>452</ele><time>2017-11-10T09:28:14.000Z</time></trkpt><trkpt lon="34.854608" lat="31.365082"><ele>452</ele><time>2017-11-10T09:28:15.000Z</time></trkpt><trkpt lon="34.854608" lat="31.365082"><ele>452</ele><time>2017-11-10T09:28:16.000Z</time></trkpt><trkpt lon="34.854608" lat="31.365082"><ele>452</ele><time>2017-11-10T09:28:17.000Z</time></trkpt><trkpt lon="34.854608" lat="31.365082"><ele>452</ele><time>2017-11-10T09:28:18.000Z</time></trkpt><trkpt lon="34.854608" lat="31.365082"><ele>452</ele><time>2017-11-10T09:28:19.000Z</time></trkpt><trkpt lon="34.854608" lat="31.365082"><ele>452</ele><time>2017-11-10T09:28:20.000Z</time></trkpt><trkpt lon="34.854608" lat="31.365082"><ele>452</ele><time>2017-11-10T09:28:21.000Z</time></trkpt><trkpt lon="34.854593" lat="31.365067"><ele>452</ele><time>2017-11-10T09:28:22.000Z</time></trkpt><trkpt lon="34.854593" lat="31.365067"><ele>452</ele><time>2017-11-10T09:28:23.000Z</time></trkpt><trkpt lon="34.854593" lat="31.365067"><ele>452</ele><time>2017-11-10T09:28:24.000Z</time></trkpt><trkpt lon="34.854572" lat="31.365067"><ele>452</ele><time>2017-11-10T09:28:25.000Z</time></trkpt><trkpt lon="34.854572" lat="31.365067"><ele>452</ele><time>2017-11-10T09:28:26.000Z</time></trkpt><trkpt lon="34.854572" lat="31.365067"><ele>452</ele><time>2017-11-10T09:28:27.000Z</time></trkpt><trkpt lon="34.854572" lat="31.365067"><ele>453</ele><time>2017-11-10T09:28:28.000Z</time></trkpt><trkpt lon="34.854572" lat="31.365067"><ele>453</ele><time>2017-11-10T09:28:29.000Z</time></trkpt><trkpt lon="34.854572" lat="31.365067"><ele>453</ele><time>2017-11-10T09:28:30.000Z</time></trkpt><trkpt lon="34.854556" lat="31.365082"><ele>453</ele><time>2017-11-10T09:28:31.000Z</time></trkpt><trkpt lon="34.854556" lat="31.365082"><ele>453</ele><time>2017-11-10T09:28:32.000Z</time></trkpt><trkpt lon="34.854547" lat="31.36511"><ele>453</ele><time>2017-11-10T09:28:33.000Z</time></trkpt><trkpt lon="34.854545" lat="31.36513"><ele>453</ele><time>2017-11-10T09:28:34.000Z</time></trkpt><trkpt lon="34.854548" lat="31.365152"><ele>453</ele><time>2017-11-10T09:28:35.000Z</time></trkpt><trkpt lon="34.854559" lat="31.365174"><ele>453</ele><time>2017-11-10T09:28:36.000Z</time></trkpt><trkpt lon="34.854568" lat="31.365197"><ele>454</ele><time>2017-11-10T09:28:37.000Z</time></trkpt><trkpt lon="34.854574" lat="31.365221"><ele>454</ele><time>2017-11-10T09:28:38.000Z</time></trkpt><trkpt lon="34.854578" lat="31.365246"><ele>455</ele><time>2017-11-10T09:28:39.000Z</time></trkpt><trkpt lon="34.854581" lat="31.36527"><ele>455</ele><time>2017-11-10T09:28:40.000Z</time></trkpt><trkpt lon="34.854582" lat="31.365294"><ele>454</ele><time>2017-11-10T09:28:41.000Z</time></trkpt><trkpt lon="34.854583" lat="31.365317"><ele>454</ele><time>2017-11-10T09:28:42.000Z</time></trkpt><trkpt lon="34.854584" lat="31.36534"><ele>454</ele><time>2017-11-10T09:28:43.000Z</time></trkpt><trkpt lon="34.854586" lat="31.365362"><ele>454</ele><time>2017-11-10T09:28:44.000Z</time></trkpt><trkpt lon="34.854587" lat="31.365385"><ele>454</ele><time>2017-11-10T09:28:45.000Z</time></trkpt><trkpt lon="34.854589" lat="31.365407"><ele>454</ele><time>2017-11-10T09:28:46.000Z</time></trkpt><trkpt lon="34.854591" lat="31.36543"><ele>454</ele><time>2017-11-10T09:28:47.000Z</time></trkpt><trkpt lon="34.854591" lat="31.365454"><ele>454</ele><time>2017-11-10T09:28:48.000Z</time></trkpt><trkpt lon="34.854591" lat="31.365479"><ele>454</ele><time>2017-11-10T09:28:49.000Z</time></trkpt><trkpt lon="34.854592" lat="31.365502"><ele>454</ele><time>2017-11-10T09:28:50.000Z</time></trkpt><trkpt lon="34.854592" lat="31.365527"><ele>454</ele><time>2017-11-10T09:28:51.000Z</time></trkpt><trkpt lon="34.854591" lat="31.365552"><ele>454</ele><time>2017-11-10T09:28:52.000Z</time></trkpt><trkpt lon="34.854592" lat="31.365577"><ele>454</ele><time>2017-11-10T09:28:53.000Z</time></trkpt><trkpt lon="34.854592" lat="31.365602"><ele>454</ele><time>2017-11-10T09:28:54.000Z</time></trkpt><trkpt lon="34.854591" lat="31.365628"><ele>454</ele><time>2017-11-10T09:28:55.000Z</time></trkpt><trkpt lon="34.85459" lat="31.365654"><ele>454</ele><time>2017-11-10T09:28:56.000Z</time></trkpt><trkpt lon="34.854587" lat="31.365679"><ele>454</ele><time>2017-11-10T09:28:57.000Z</time></trkpt><trkpt lon="34.854583" lat="31.365704"><ele>454</ele><time>2017-11-10T09:28:58.000Z</time></trkpt><trkpt lon="34.85458" lat="31.36573"><ele>454</ele><time>2017-11-10T09:28:59.000Z</time></trkpt><trkpt lon="34.854577" lat="31.365756"><ele>454</ele><time>2017-11-10T09:29:00.000Z</time></trkpt><trkpt lon="34.854572" lat="31.365783"><ele>454</ele><time>2017-11-10T09:29:01.000Z</time></trkpt><trkpt lon="34.854568" lat="31.36581"><ele>455</ele><time>2017-11-10T09:29:02.000Z</time></trkpt><trkpt lon="34.854564" lat="31.365837"><ele>455</ele><time>2017-11-10T09:29:03.000Z</time></trkpt><trkpt lon="34.85456" lat="31.365863"><ele>455</ele><time>2017-11-10T09:29:04.000Z</time></trkpt><trkpt lon="34.854555" lat="31.365889"><ele>455</ele><time>2017-11-10T09:29:05.000Z</time></trkpt><trkpt lon="34.854549" lat="31.365914"><ele>455</ele><time>2017-11-10T09:29:06.000Z</time></trkpt><trkpt lon="34.854543" lat="31.365941"><ele>455</ele><time>2017-11-10T09:29:07.000Z</time></trkpt><trkpt lon="34.854538" lat="31.365967"><ele>455</ele><time>2017-11-10T09:29:08.000Z</time></trkpt><trkpt lon="34.854534" lat="31.365994"><ele>455</ele><time>2017-11-10T09:29:09.000Z</time></trkpt><trkpt lon="34.854529" lat="31.36602"><ele>455</ele><time>2017-11-10T09:29:10.000Z</time></trkpt><trkpt lon="34.854522" lat="31.366047"><ele>455</ele><time>2017-11-10T09:29:11.000Z</time></trkpt><trkpt lon="34.854516" lat="31.366073"><ele>455</ele><time>2017-11-10T09:29:12.000Z</time></trkpt><trkpt lon="34.854509" lat="31.366099"><ele>455</ele><time>2017-11-10T09:29:13.000Z</time></trkpt><trkpt lon="34.854504" lat="31.366125"><ele>455</ele><time>2017-11-10T09:29:14.000Z</time></trkpt><trkpt lon="34.854499" lat="31.36615"><ele>455</ele><time>2017-11-10T09:29:15.000Z</time></trkpt><trkpt lon="34.854494" lat="31.366176"><ele>456</ele><time>2017-11-10T09:29:16.000Z</time></trkpt><trkpt lon="34.854489" lat="31.366202"><ele>456</ele><time>2017-11-10T09:29:17.000Z</time></trkpt><trkpt lon="34.854483" lat="31.366229"><ele>456</ele><time>2017-11-10T09:29:18.000Z</time></trkpt><trkpt lon="34.854479" lat="31.366256"><ele>456</ele><time>2017-11-10T09:29:19.000Z</time></trkpt><trkpt lon="34.854477" lat="31.366283"><ele>456</ele><time>2017-11-10T09:29:20.000Z</time></trkpt><trkpt lon="34.854474" lat="31.36631"><ele>456</ele><time>2017-11-10T09:29:21.000Z</time></trkpt><trkpt lon="34.854469" lat="31.366335"><ele>456</ele><time>2017-11-10T09:29:22.000Z</time></trkpt><trkpt lon="34.854462" lat="31.366362"><ele>456</ele><time>2017-11-10T09:29:23.000Z</time></trkpt><trkpt lon="34.854456" lat="31.366389"><ele>456</ele><time>2017-11-10T09:29:24.000Z</time></trkpt><trkpt lon="34.85445" lat="31.366415"><ele>456</ele><time>2017-11-10T09:29:25.000Z</time></trkpt><trkpt lon="34.854445" lat="31.36644"><ele>456</ele><time>2017-11-10T09:29:26.000Z</time></trkpt><trkpt lon="34.85444" lat="31.366465"><ele>456</ele><time>2017-11-10T09:29:27.000Z</time></trkpt><trkpt lon="34.854433" lat="31.36649"><ele>456</ele><time>2017-11-10T09:29:28.000Z</time></trkpt><trkpt lon="34.854428" lat="31.366516"><ele>456</ele><time>2017-11-10T09:29:29.000Z</time></trkpt><trkpt lon="34.854424" lat="31.366543"><ele>456</ele><time>2017-11-10T09:29:30.000Z</time></trkpt><trkpt lon="34.854418" lat="31.36657"><ele>456</ele><time>2017-11-10T09:29:31.000Z</time></trkpt><trkpt lon="34.854407" lat="31.366595"><ele>456</ele><time>2017-11-10T09:29:32.000Z</time></trkpt><trkpt lon="34.854395" lat="31.366617"><ele>456</ele><time>2017-11-10T09:29:33.000Z</time></trkpt><trkpt lon="34.854379" lat="31.366638"><ele>456</ele><time>2017-11-10T09:29:34.000Z</time></trkpt><trkpt lon="34.85436" lat="31.366658"><ele>456</ele><time>2017-11-10T09:29:35.000Z</time></trkpt><trkpt lon="34.85434" lat="31.366681"><ele>457</ele><time>2017-11-10T09:29:36.000Z</time></trkpt><trkpt lon="34.854319" lat="31.36671"><ele>457</ele><time>2017-11-10T09:29:37.000Z</time></trkpt><trkpt lon="34.854304" lat="31.366743"><ele>457</ele><time>2017-11-10T09:29:38.000Z</time></trkpt><trkpt lon="34.854302" lat="31.366774"><ele>457</ele><time>2017-11-10T09:29:39.000Z</time></trkpt><trkpt lon="34.854302" lat="31.366806"><ele>458</ele><time>2017-11-10T09:29:40.000Z</time></trkpt><trkpt lon="34.854295" lat="31.366838"><ele>458</ele><time>2017-11-10T09:29:41.000Z</time></trkpt><trkpt lon="34.854286" lat="31.36687"><ele>458</ele><time>2017-11-10T09:29:42.000Z</time></trkpt><trkpt lon="34.854277" lat="31.366901"><ele>458</ele><time>2017-11-10T09:29:43.000Z</time></trkpt><trkpt lon="34.854263" lat="31.366931"><ele>457</ele><time>2017-11-10T09:29:44.000Z</time></trkpt><trkpt lon="34.854244" lat="31.366961"><ele>457</ele><time>2017-11-10T09:29:45.000Z</time></trkpt><trkpt lon="34.854222" lat="31.366992"><ele>457</ele><time>2017-11-10T09:29:46.000Z</time></trkpt><trkpt lon="34.8542" lat="31.367025"><ele>457</ele><time>2017-11-10T09:29:47.000Z</time></trkpt><trkpt lon="34.854184" lat="31.367054"><ele>458</ele><time>2017-11-10T09:29:48.000Z</time></trkpt><trkpt lon="34.854171" lat="31.367081"><ele>459</ele><time>2017-11-10T09:29:49.000Z</time></trkpt><trkpt lon="34.854159" lat="31.367108"><ele>460</ele><time>2017-11-10T09:29:50.000Z</time></trkpt><trkpt lon="34.854144" lat="31.367136"><ele>460</ele><time>2017-11-10T09:29:51.000Z</time></trkpt><trkpt lon="34.85412" lat="31.367157"><ele>460</ele><time>2017-11-10T09:29:52.000Z</time></trkpt><trkpt lon="34.854091" lat="31.367162"><ele>461</ele><time>2017-11-10T09:29:53.000Z</time></trkpt><trkpt lon="34.854066" lat="31.367166"><ele>462</ele><time>2017-11-10T09:29:54.000Z</time></trkpt><trkpt lon="34.854043" lat="31.36718"><ele>462</ele><time>2017-11-10T09:29:55.000Z</time></trkpt><trkpt lon="34.854027" lat="31.3672"><ele>462</ele><time>2017-11-10T09:29:56.000Z</time></trkpt><trkpt lon="34.854017" lat="31.367225"><ele>462</ele><time>2017-11-10T09:29:57.000Z</time></trkpt><trkpt lon="34.854014" lat="31.36725"><ele>463</ele><time>2017-11-10T09:29:58.000Z</time></trkpt><trkpt lon="34.85402" lat="31.367273"><ele>463</ele><time>2017-11-10T09:29:59.000Z</time></trkpt><trkpt lon="34.854027" lat="31.367295"><ele>462</ele><time>2017-11-10T09:30:00.000Z</time></trkpt><trkpt lon="34.854033" lat="31.367317"><ele>463</ele><time>2017-11-10T09:30:01.000Z</time></trkpt><trkpt lon="34.854042" lat="31.367336"><ele>463</ele><time>2017-11-10T09:30:02.000Z</time></trkpt><trkpt lon="34.854054" lat="31.367356"><ele>463</ele><time>2017-11-10T09:30:03.000Z</time></trkpt><trkpt lon="34.854063" lat="31.367378"><ele>463</ele><time>2017-11-10T09:30:04.000Z</time></trkpt><trkpt lon="34.854069" lat="31.3674"><ele>463</ele><time>2017-11-10T09:30:05.000Z</time></trkpt><trkpt lon="34.854074" lat="31.367422"><ele>463</ele><time>2017-11-10T09:30:06.000Z</time></trkpt><trkpt lon="34.854078" lat="31.367446"><ele>464</ele><time>2017-11-10T09:30:07.000Z</time></trkpt><trkpt lon="34.854081" lat="31.367469"><ele>464</ele><time>2017-11-10T09:30:08.000Z</time></trkpt><trkpt lon="34.854081" lat="31.367489"><ele>464</ele><time>2017-11-10T09:30:09.000Z</time></trkpt><trkpt lon="34.854081" lat="31.36751"><ele>464</ele><time>2017-11-10T09:30:10.000Z</time></trkpt><trkpt lon="34.85408" lat="31.367529"><ele>464</ele><time>2017-11-10T09:30:11.000Z</time></trkpt><trkpt lon="34.85408" lat="31.367529"><ele>464</ele><time>2017-11-10T09:30:12.000Z</time></trkpt><trkpt lon="34.854071" lat="31.367561"><ele>465</ele><time>2017-11-10T09:30:13.000Z</time></trkpt><trkpt lon="34.854071" lat="31.367561"><ele>465</ele><time>2017-11-10T09:30:14.000Z</time></trkpt><trkpt lon="34.854059" lat="31.367596"><ele>466</ele><time>2017-11-10T09:30:15.000Z</time></trkpt><trkpt lon="34.854052" lat="31.367616"><ele>466</ele><time>2017-11-10T09:30:16.000Z</time></trkpt><trkpt lon="34.854042" lat="31.367638"><ele>466</ele><time>2017-11-10T09:30:17.000Z</time></trkpt><trkpt lon="34.854029" lat="31.367659"><ele>466</ele><time>2017-11-10T09:30:18.000Z</time></trkpt><trkpt lon="34.854016" lat="31.367679"><ele>466</ele><time>2017-11-10T09:30:19.000Z</time></trkpt><trkpt lon="34.854006" lat="31.367698"><ele>466</ele><time>2017-11-10T09:30:20.000Z</time></trkpt><trkpt lon="34.854" lat="31.367717"><ele>466</ele><time>2017-11-10T09:30:21.000Z</time></trkpt><trkpt lon="34.853996" lat="31.367736"><ele>467</ele><time>2017-11-10T09:30:22.000Z</time></trkpt><trkpt lon="34.853996" lat="31.367736"><ele>467</ele><time>2017-11-10T09:30:23.000Z</time></trkpt><trkpt lon="34.853994" lat="31.367771"><ele>467</ele><time>2017-11-10T09:30:24.000Z</time></trkpt><trkpt lon="34.853993" lat="31.367789"><ele>467</ele><time>2017-11-10T09:30:25.000Z</time></trkpt><trkpt lon="34.853993" lat="31.367789"><ele>467</ele><time>2017-11-10T09:30:26.000Z</time></trkpt><trkpt lon="34.853987" lat="31.367821"><ele>467</ele><time>2017-11-10T09:30:27.000Z</time></trkpt><trkpt lon="34.853987" lat="31.367821"><ele>467</ele><time>2017-11-10T09:30:28.000Z</time></trkpt><trkpt lon="34.853971" lat="31.36785"><ele>467</ele><time>2017-11-10T09:30:29.000Z</time></trkpt><trkpt lon="34.853958" lat="31.367865"><ele>467</ele><time>2017-11-10T09:30:30.000Z</time></trkpt><trkpt lon="34.853944" lat="31.367879"><ele>467</ele><time>2017-11-10T09:30:31.000Z</time></trkpt><trkpt lon="34.853932" lat="31.367896"><ele>468</ele><time>2017-11-10T09:30:32.000Z</time></trkpt><trkpt lon="34.853925" lat="31.367914"><ele>468</ele><time>2017-11-10T09:30:33.000Z</time></trkpt><trkpt lon="34.853919" lat="31.367931"><ele>468</ele><time>2017-11-10T09:30:34.000Z</time></trkpt><trkpt lon="34.853914" lat="31.36795"><ele>468</ele><time>2017-11-10T09:30:35.000Z</time></trkpt><trkpt lon="34.853909" lat="31.36797"><ele>468</ele><time>2017-11-10T09:30:36.000Z</time></trkpt><trkpt lon="34.853904" lat="31.367989"><ele>468</ele><time>2017-11-10T09:30:37.000Z</time></trkpt><trkpt lon="34.853898" lat="31.368007"><ele>468</ele><time>2017-11-10T09:30:38.000Z</time></trkpt><trkpt lon="34.853898" lat="31.368007"><ele>468</ele><time>2017-11-10T09:30:39.000Z</time></trkpt><trkpt lon="34.853881" lat="31.368039"><ele>468</ele><time>2017-11-10T09:30:40.000Z</time></trkpt><trkpt lon="34.853873" lat="31.368056"><ele>469</ele><time>2017-11-10T09:30:41.000Z</time></trkpt><trkpt lon="34.853868" lat="31.368075"><ele>469</ele><time>2017-11-10T09:30:42.000Z</time></trkpt><trkpt lon="34.853865" lat="31.368093"><ele>469</ele><time>2017-11-10T09:30:43.000Z</time></trkpt><trkpt lon="34.853862" lat="31.368111"><ele>469</ele><time>2017-11-10T09:30:44.000Z</time></trkpt><trkpt lon="34.853862" lat="31.368111"><ele>469</ele><time>2017-11-10T09:30:45.000Z</time></trkpt><trkpt lon="34.853858" lat="31.368146"><ele>469</ele><time>2017-11-10T09:30:46.000Z</time></trkpt><trkpt lon="34.853853" lat="31.368163"><ele>469</ele><time>2017-11-10T09:30:47.000Z</time></trkpt><trkpt lon="34.853847" lat="31.368182"><ele>469</ele><time>2017-11-10T09:30:48.000Z</time></trkpt><trkpt lon="34.853839" lat="31.3682"><ele>469</ele><time>2017-11-10T09:30:49.000Z</time></trkpt><trkpt lon="34.853839" lat="31.3682"><ele>470</ele><time>2017-11-10T09:30:50.000Z</time></trkpt><trkpt lon="34.853822" lat="31.368232"><ele>470</ele><time>2017-11-10T09:30:51.000Z</time></trkpt><trkpt lon="34.853814" lat="31.368248"><ele>470</ele><time>2017-11-10T09:30:52.000Z</time></trkpt><trkpt lon="34.853804" lat="31.368266"><ele>470</ele><time>2017-11-10T09:30:53.000Z</time></trkpt><trkpt lon="34.853793" lat="31.368284"><ele>470</ele><time>2017-11-10T09:30:54.000Z</time></trkpt><trkpt lon="34.853784" lat="31.368301"><ele>470</ele><time>2017-11-10T09:30:55.000Z</time></trkpt><trkpt lon="34.853784" lat="31.368301"><ele>470</ele><time>2017-11-10T09:30:56.000Z</time></trkpt><trkpt lon="34.853768" lat="31.368332"><ele>470</ele><time>2017-11-10T09:30:57.000Z</time></trkpt><trkpt lon="34.853761" lat="31.36835"><ele>470</ele><time>2017-11-10T09:30:58.000Z</time></trkpt><trkpt lon="34.853754" lat="31.368367"><ele>470</ele><time>2017-11-10T09:30:59.000Z</time></trkpt><trkpt lon="34.853743" lat="31.368382"><ele>471</ele><time>2017-11-10T09:31:00.000Z</time></trkpt><trkpt lon="34.853743" lat="31.368382"><ele>471</ele><time>2017-11-10T09:31:01.000Z</time></trkpt><trkpt lon="34.853727" lat="31.368414"><ele>471</ele><time>2017-11-10T09:31:02.000Z</time></trkpt><trkpt lon="34.853727" lat="31.368414"><ele>471</ele><time>2017-11-10T09:31:03.000Z</time></trkpt><trkpt lon="34.853715" lat="31.368447"><ele>471</ele><time>2017-11-10T09:31:04.000Z</time></trkpt><trkpt lon="34.853711" lat="31.368465"><ele>471</ele><time>2017-11-10T09:31:05.000Z</time></trkpt><trkpt lon="34.853706" lat="31.368483"><ele>471</ele><time>2017-11-10T09:31:06.000Z</time></trkpt><trkpt lon="34.8537" lat="31.368502"><ele>471</ele><time>2017-11-10T09:31:07.000Z</time></trkpt><trkpt lon="34.853696" lat="31.36852"><ele>471</ele><time>2017-11-10T09:31:08.000Z</time></trkpt><trkpt lon="34.853696" lat="31.36852"><ele>471</ele><time>2017-11-10T09:31:09.000Z</time></trkpt><trkpt lon="34.853693" lat="31.368555"><ele>471</ele><time>2017-11-10T09:31:10.000Z</time></trkpt><trkpt lon="34.853691" lat="31.368574"><ele>471</ele><time>2017-11-10T09:31:11.000Z</time></trkpt><trkpt lon="34.853686" lat="31.368593"><ele>471</ele><time>2017-11-10T09:31:12.000Z</time></trkpt><trkpt lon="34.85368" lat="31.368613"><ele>471</ele><time>2017-11-10T09:31:13.000Z</time></trkpt><trkpt lon="34.853675" lat="31.368631"><ele>471</ele><time>2017-11-10T09:31:14.000Z</time></trkpt><trkpt lon="34.853668" lat="31.368648"><ele>471</ele><time>2017-11-10T09:31:15.000Z</time></trkpt><trkpt lon="34.853661" lat="31.368665"><ele>471</ele><time>2017-11-10T09:31:16.000Z</time></trkpt><trkpt lon="34.853655" lat="31.368683"><ele>471</ele><time>2017-11-10T09:31:17.000Z</time></trkpt><trkpt lon="34.853648" lat="31.368702"><ele>471</ele><time>2017-11-10T09:31:18.000Z</time></trkpt><trkpt lon="34.853647" lat="31.368725"><ele>472</ele><time>2017-11-10T09:31:19.000Z</time></trkpt><trkpt lon="34.853649" lat="31.368748"><ele>472</ele><time>2017-11-10T09:31:20.000Z</time></trkpt><trkpt lon="34.853654" lat="31.368772"><ele>472</ele><time>2017-11-10T09:31:21.000Z</time></trkpt><trkpt lon="34.853659" lat="31.368799"><ele>472</ele><time>2017-11-10T09:31:22.000Z</time></trkpt><trkpt lon="34.853665" lat="31.368828"><ele>472</ele><time>2017-11-10T09:31:23.000Z</time></trkpt><trkpt lon="34.853673" lat="31.368858"><ele>472</ele><time>2017-11-10T09:31:24.000Z</time></trkpt><trkpt lon="34.853678" lat="31.368887"><ele>472</ele><time>2017-11-10T09:31:25.000Z</time></trkpt><trkpt lon="34.853682" lat="31.368914"><ele>472</ele><time>2017-11-10T09:31:26.000Z</time></trkpt><trkpt lon="34.853686" lat="31.36894"><ele>472</ele><time>2017-11-10T09:31:27.000Z</time></trkpt><trkpt lon="34.853689" lat="31.368965"><ele>472</ele><time>2017-11-10T09:31:28.000Z</time></trkpt><trkpt lon="34.853689" lat="31.36899"><ele>472</ele><time>2017-11-10T09:31:29.000Z</time></trkpt><trkpt lon="34.853689" lat="31.369013"><ele>472</ele><time>2017-11-10T09:31:30.000Z</time></trkpt><trkpt lon="34.853689" lat="31.369034"><ele>472</ele><time>2017-11-10T09:31:31.000Z</time></trkpt><trkpt lon="34.853689" lat="31.369053"><ele>472</ele><time>2017-11-10T09:31:32.000Z</time></trkpt><trkpt lon="34.85369" lat="31.369072"><ele>472</ele><time>2017-11-10T09:31:33.000Z</time></trkpt><trkpt lon="34.853688" lat="31.369093"><ele>472</ele><time>2017-11-10T09:31:34.000Z</time></trkpt><trkpt lon="34.853685" lat="31.369114"><ele>473</ele><time>2017-11-10T09:31:35.000Z</time></trkpt><trkpt lon="34.853681" lat="31.369136"><ele>473</ele><time>2017-11-10T09:31:36.000Z</time></trkpt><trkpt lon="34.853676" lat="31.369158"><ele>473</ele><time>2017-11-10T09:31:37.000Z</time></trkpt><trkpt lon="34.853668" lat="31.36918"><ele>473</ele><time>2017-11-10T09:31:38.000Z</time></trkpt><trkpt lon="34.853656" lat="31.369201"><ele>473</ele><time>2017-11-10T09:31:39.000Z</time></trkpt><trkpt lon="34.853645" lat="31.369221"><ele>473</ele><time>2017-11-10T09:31:40.000Z</time></trkpt><trkpt lon="34.853644" lat="31.369241"><ele>473</ele><time>2017-11-10T09:31:41.000Z</time></trkpt><trkpt lon="34.853649" lat="31.36926"><ele>473</ele><time>2017-11-10T09:31:42.000Z</time></trkpt><trkpt lon="34.853652" lat="31.369278"><ele>473</ele><time>2017-11-10T09:31:43.000Z</time></trkpt><trkpt lon="34.853649" lat="31.369299"><ele>473</ele><time>2017-11-10T09:31:44.000Z</time></trkpt><trkpt lon="34.853641" lat="31.36932"><ele>473</ele><time>2017-11-10T09:31:45.000Z</time></trkpt><trkpt lon="34.853631" lat="31.369337"><ele>474</ele><time>2017-11-10T09:31:46.000Z</time></trkpt><trkpt lon="34.853631" lat="31.369337"><ele>474</ele><time>2017-11-10T09:31:47.000Z</time></trkpt><trkpt lon="34.853609" lat="31.369365"><ele>474</ele><time>2017-11-10T09:31:48.000Z</time></trkpt><trkpt lon="34.853599" lat="31.369386"><ele>474</ele><time>2017-11-10T09:31:49.000Z</time></trkpt><trkpt lon="34.853589" lat="31.369408"><ele>475</ele><time>2017-11-10T09:31:50.000Z</time></trkpt><trkpt lon="34.853588" lat="31.36943"><ele>475</ele><time>2017-11-10T09:31:51.000Z</time></trkpt><trkpt lon="34.853593" lat="31.369452"><ele>475</ele><time>2017-11-10T09:31:52.000Z</time></trkpt><trkpt lon="34.853593" lat="31.369471"><ele>475</ele><time>2017-11-10T09:31:53.000Z</time></trkpt><trkpt lon="34.853589" lat="31.369492"><ele>475</ele><time>2017-11-10T09:31:54.000Z</time></trkpt><trkpt lon="34.853585" lat="31.369511"><ele>475</ele><time>2017-11-10T09:31:55.000Z</time></trkpt><trkpt lon="34.853582" lat="31.369532"><ele>476</ele><time>2017-11-10T09:31:56.000Z</time></trkpt><trkpt lon="34.85358" lat="31.369552"><ele>476</ele><time>2017-11-10T09:31:57.000Z</time></trkpt><trkpt lon="34.853578" lat="31.369571"><ele>476</ele><time>2017-11-10T09:31:58.000Z</time></trkpt><trkpt lon="34.853579" lat="31.36959"><ele>476</ele><time>2017-11-10T09:31:59.000Z</time></trkpt><trkpt lon="34.853579" lat="31.36959"><ele>477</ele><time>2017-11-10T09:32:00.000Z</time></trkpt><trkpt lon="34.853583" lat="31.369624"><ele>477</ele><time>2017-11-10T09:32:01.000Z</time></trkpt><trkpt lon="34.853583" lat="31.369624"><ele>477</ele><time>2017-11-10T09:32:02.000Z</time></trkpt><trkpt lon="34.853587" lat="31.36965"><ele>477</ele><time>2017-11-10T09:32:03.000Z</time></trkpt><trkpt lon="34.853587" lat="31.36965"><ele>477</ele><time>2017-11-10T09:32:04.000Z</time></trkpt><trkpt lon="34.853591" lat="31.369677"><ele>477</ele><time>2017-11-10T09:32:05.000Z</time></trkpt><trkpt lon="34.853591" lat="31.369677"><ele>477</ele><time>2017-11-10T09:32:06.000Z</time></trkpt><trkpt lon="34.853592" lat="31.369703"><ele>477</ele><time>2017-11-10T09:32:07.000Z</time></trkpt><trkpt lon="34.853592" lat="31.369703"><ele>477</ele><time>2017-11-10T09:32:08.000Z</time></trkpt><trkpt lon="34.853591" lat="31.369736"><ele>477</ele><time>2017-11-10T09:32:09.000Z</time></trkpt><trkpt lon="34.853588" lat="31.369755"><ele>477</ele><time>2017-11-10T09:32:10.000Z</time></trkpt><trkpt lon="34.853579" lat="31.369774"><ele>477</ele><time>2017-11-10T09:32:11.000Z</time></trkpt><trkpt lon="34.853566" lat="31.369794"><ele>477</ele><time>2017-11-10T09:32:12.000Z</time></trkpt><trkpt lon="34.853552" lat="31.369817"><ele>477</ele><time>2017-11-10T09:32:13.000Z</time></trkpt><trkpt lon="34.853538" lat="31.369844"><ele>477</ele><time>2017-11-10T09:32:14.000Z</time></trkpt><trkpt lon="34.853528" lat="31.369869"><ele>478</ele><time>2017-11-10T09:32:15.000Z</time></trkpt><trkpt lon="34.85352" lat="31.369892"><ele>479</ele><time>2017-11-10T09:32:16.000Z</time></trkpt><trkpt lon="34.853512" lat="31.369913"><ele>479</ele><time>2017-11-10T09:32:17.000Z</time></trkpt><trkpt lon="34.853502" lat="31.369934"><ele>479</ele><time>2017-11-10T09:32:18.000Z</time></trkpt><trkpt lon="34.853493" lat="31.369954"><ele>479</ele><time>2017-11-10T09:32:19.000Z</time></trkpt><trkpt lon="34.853487" lat="31.369974"><ele>479</ele><time>2017-11-10T09:32:20.000Z</time></trkpt><trkpt lon="34.853478" lat="31.369993"><ele>479</ele><time>2017-11-10T09:32:21.000Z</time></trkpt><trkpt lon="34.853465" lat="31.370011"><ele>479</ele><time>2017-11-10T09:32:22.000Z</time></trkpt><trkpt lon="34.85345" lat="31.370029"><ele>479</ele><time>2017-11-10T09:32:23.000Z</time></trkpt><trkpt lon="34.853434" lat="31.370043"><ele>479</ele><time>2017-11-10T09:32:24.000Z</time></trkpt><trkpt lon="34.85342" lat="31.370057"><ele>479</ele><time>2017-11-10T09:32:25.000Z</time></trkpt><trkpt lon="34.853405" lat="31.370071"><ele>479</ele><time>2017-11-10T09:32:26.000Z</time></trkpt><trkpt lon="34.853388" lat="31.370087"><ele>479</ele><time>2017-11-10T09:32:27.000Z</time></trkpt><trkpt lon="34.853371" lat="31.370106"><ele>479</ele><time>2017-11-10T09:32:28.000Z</time></trkpt><trkpt lon="34.853357" lat="31.370128"><ele>480</ele><time>2017-11-10T09:32:29.000Z</time></trkpt><trkpt lon="34.853347" lat="31.37015"><ele>480</ele><time>2017-11-10T09:32:30.000Z</time></trkpt><trkpt lon="34.853339" lat="31.370172"><ele>480</ele><time>2017-11-10T09:32:31.000Z</time></trkpt><trkpt lon="34.853331" lat="31.370192"><ele>480</ele><time>2017-11-10T09:32:32.000Z</time></trkpt><trkpt lon="34.853322" lat="31.370209"><ele>480</ele><time>2017-11-10T09:32:33.000Z</time></trkpt><trkpt lon="34.853312" lat="31.370228"><ele>480</ele><time>2017-11-10T09:32:34.000Z</time></trkpt><trkpt lon="34.8533" lat="31.370249"><ele>480</ele><time>2017-11-10T09:32:35.000Z</time></trkpt><trkpt lon="34.853287" lat="31.370268"><ele>481</ele><time>2017-11-10T09:32:36.000Z</time></trkpt><trkpt lon="34.853276" lat="31.370285"><ele>481</ele><time>2017-11-10T09:32:37.000Z</time></trkpt><trkpt lon="34.853264" lat="31.370301"><ele>481</ele><time>2017-11-10T09:32:38.000Z</time></trkpt><trkpt lon="34.853252" lat="31.370316"><ele>481</ele><time>2017-11-10T09:32:39.000Z</time></trkpt><trkpt lon="34.853238" lat="31.370337"><ele>481</ele><time>2017-11-10T09:32:40.000Z</time></trkpt><trkpt lon="34.853225" lat="31.370361"><ele>481</ele><time>2017-11-10T09:32:41.000Z</time></trkpt><trkpt lon="34.853209" lat="31.370388"><ele>481</ele><time>2017-11-10T09:32:42.000Z</time></trkpt><trkpt lon="34.853192" lat="31.370416"><ele>481</ele><time>2017-11-10T09:32:43.000Z</time></trkpt><trkpt lon="34.853178" lat="31.370439"><ele>481</ele><time>2017-11-10T09:32:44.000Z</time></trkpt><trkpt lon="34.853168" lat="31.370459"><ele>481</ele><time>2017-11-10T09:32:45.000Z</time></trkpt><trkpt lon="34.853161" lat="31.37048"><ele>481</ele><time>2017-11-10T09:32:46.000Z</time></trkpt><trkpt lon="34.853152" lat="31.370507"><ele>481</ele><time>2017-11-10T09:32:47.000Z</time></trkpt><trkpt lon="34.853142" lat="31.370533"><ele>481</ele><time>2017-11-10T09:32:48.000Z</time></trkpt><trkpt lon="34.853132" lat="31.370556"><ele>481</ele><time>2017-11-10T09:32:49.000Z</time></trkpt><trkpt lon="34.853122" lat="31.370576"><ele>482</ele><time>2017-11-10T09:32:50.000Z</time></trkpt><trkpt lon="34.853122" lat="31.370576"><ele>482</ele><time>2017-11-10T09:32:51.000Z</time></trkpt><trkpt lon="34.853108" lat="31.370604"><ele>483</ele><time>2017-11-10T09:32:52.000Z</time></trkpt><trkpt lon="34.853102" lat="31.370622"><ele>483</ele><time>2017-11-10T09:32:53.000Z</time></trkpt><trkpt lon="34.853096" lat="31.37064"><ele>483</ele><time>2017-11-10T09:32:54.000Z</time></trkpt><trkpt lon="34.85309" lat="31.370663"><ele>483</ele><time>2017-11-10T09:32:55.000Z</time></trkpt><trkpt lon="34.853085" lat="31.370689"><ele>483</ele><time>2017-11-10T09:32:56.000Z</time></trkpt><trkpt lon="34.853077" lat="31.370714"><ele>483</ele><time>2017-11-10T09:32:57.000Z</time></trkpt><trkpt lon="34.853069" lat="31.370735"><ele>484</ele><time>2017-11-10T09:32:58.000Z</time></trkpt><trkpt lon="34.853062" lat="31.370754"><ele>484</ele><time>2017-11-10T09:32:59.000Z</time></trkpt><trkpt lon="34.853053" lat="31.370776"><ele>484</ele><time>2017-11-10T09:33:00.000Z</time></trkpt><trkpt lon="34.853041" lat="31.370796"><ele>484</ele><time>2017-11-10T09:33:01.000Z</time></trkpt><trkpt lon="34.853027" lat="31.370813"><ele>484</ele><time>2017-11-10T09:33:02.000Z</time></trkpt><trkpt lon="34.853017" lat="31.37083"><ele>484</ele><time>2017-11-10T09:33:03.000Z</time></trkpt><trkpt lon="34.853015" lat="31.37085"><ele>484</ele><time>2017-11-10T09:33:04.000Z</time></trkpt><trkpt lon="34.853017" lat="31.370874"><ele>484</ele><time>2017-11-10T09:33:05.000Z</time></trkpt><trkpt lon="34.853017" lat="31.370898"><ele>484</ele><time>2017-11-10T09:33:06.000Z</time></trkpt><trkpt lon="34.85301" lat="31.37092"><ele>484</ele><time>2017-11-10T09:33:07.000Z</time></trkpt><trkpt lon="34.853" lat="31.370943"><ele>484</ele><time>2017-11-10T09:33:08.000Z</time></trkpt><trkpt lon="34.852984" lat="31.370967"><ele>484</ele><time>2017-11-10T09:33:09.000Z</time></trkpt><trkpt lon="34.852966" lat="31.370992"><ele>484</ele><time>2017-11-10T09:33:10.000Z</time></trkpt><trkpt lon="34.852948" lat="31.371015"><ele>484</ele><time>2017-11-10T09:33:11.000Z</time></trkpt><trkpt lon="34.852928" lat="31.371034"><ele>484</ele><time>2017-11-10T09:33:12.000Z</time></trkpt><trkpt lon="34.852907" lat="31.37105"><ele>484</ele><time>2017-11-10T09:33:13.000Z</time></trkpt><trkpt lon="34.85289" lat="31.371065"><ele>484</ele><time>2017-11-10T09:33:14.000Z</time></trkpt><trkpt lon="34.852874" lat="31.371081"><ele>485</ele><time>2017-11-10T09:33:15.000Z</time></trkpt><trkpt lon="34.852858" lat="31.371094"><ele>485</ele><time>2017-11-10T09:33:16.000Z</time></trkpt><trkpt lon="34.852858" lat="31.371094"><ele>485</ele><time>2017-11-10T09:33:17.000Z</time></trkpt><trkpt lon="34.852823" lat="31.371112"><ele>485</ele><time>2017-11-10T09:33:18.000Z</time></trkpt><trkpt lon="34.852823" lat="31.371112"><ele>485</ele><time>2017-11-10T09:33:19.000Z</time></trkpt><trkpt lon="34.852788" lat="31.371127"><ele>485</ele><time>2017-11-10T09:33:20.000Z</time></trkpt><trkpt lon="34.852769" lat="31.371137"><ele>485</ele><time>2017-11-10T09:33:21.000Z</time></trkpt><trkpt lon="34.852751" lat="31.371148"><ele>486</ele><time>2017-11-10T09:33:22.000Z</time></trkpt><trkpt lon="34.852732" lat="31.371158"><ele>486</ele><time>2017-11-10T09:33:23.000Z</time></trkpt><trkpt lon="34.852732" lat="31.371158"><ele>486</ele><time>2017-11-10T09:33:24.000Z</time></trkpt><trkpt lon="34.852706" lat="31.371174"><ele>486</ele><time>2017-11-10T09:33:25.000Z</time></trkpt><trkpt lon="34.852706" lat="31.371174"><ele>486</ele><time>2017-11-10T09:33:26.000Z</time></trkpt><trkpt lon="34.852679" lat="31.371187"><ele>486</ele><time>2017-11-10T09:33:27.000Z</time></trkpt><trkpt lon="34.852679" lat="31.371187"><ele>486</ele><time>2017-11-10T09:33:28.000Z</time></trkpt><trkpt lon="34.85265" lat="31.371211"><ele>486</ele><time>2017-11-10T09:33:29.000Z</time></trkpt><trkpt lon="34.852634" lat="31.371224"><ele>486</ele><time>2017-11-10T09:33:30.000Z</time></trkpt><trkpt lon="34.852634" lat="31.371224"><ele>486</ele><time>2017-11-10T09:33:31.000Z</time></trkpt><trkpt lon="34.852606" lat="31.371244"><ele>486</ele><time>2017-11-10T09:33:32.000Z</time></trkpt><trkpt lon="34.852606" lat="31.371244"><ele>486</ele><time>2017-11-10T09:33:33.000Z</time></trkpt><trkpt lon="34.852576" lat="31.371267"><ele>486</ele><time>2017-11-10T09:33:34.000Z</time></trkpt><trkpt lon="34.85256" lat="31.37128"><ele>486</ele><time>2017-11-10T09:33:35.000Z</time></trkpt><trkpt lon="34.852544" lat="31.371293"><ele>487</ele><time>2017-11-10T09:33:36.000Z</time></trkpt><trkpt lon="34.852526" lat="31.371307"><ele>487</ele><time>2017-11-10T09:33:37.000Z</time></trkpt><trkpt lon="34.852509" lat="31.371322"><ele>487</ele><time>2017-11-10T09:33:38.000Z</time></trkpt><trkpt lon="34.852493" lat="31.371335"><ele>487</ele><time>2017-11-10T09:33:39.000Z</time></trkpt><trkpt lon="34.852474" lat="31.371349"><ele>487</ele><time>2017-11-10T09:33:40.000Z</time></trkpt><trkpt lon="34.852454" lat="31.371365"><ele>487</ele><time>2017-11-10T09:33:41.000Z</time></trkpt><trkpt lon="34.852432" lat="31.37138"><ele>487</ele><time>2017-11-10T09:33:42.000Z</time></trkpt><trkpt lon="34.852412" lat="31.371394"><ele>487</ele><time>2017-11-10T09:33:43.000Z</time></trkpt><trkpt lon="34.852392" lat="31.371408"><ele>487</ele><time>2017-11-10T09:33:44.000Z</time></trkpt><trkpt lon="34.85237" lat="31.371421"><ele>487</ele><time>2017-11-10T09:33:45.000Z</time></trkpt><trkpt lon="34.852347" lat="31.371436"><ele>487</ele><time>2017-11-10T09:33:46.000Z</time></trkpt><trkpt lon="34.852322" lat="31.371454"><ele>488</ele><time>2017-11-10T09:33:47.000Z</time></trkpt><trkpt lon="34.852296" lat="31.371471"><ele>488</ele><time>2017-11-10T09:33:48.000Z</time></trkpt><trkpt lon="34.85227" lat="31.371487"><ele>488</ele><time>2017-11-10T09:33:49.000Z</time></trkpt><trkpt lon="34.852244" lat="31.371501"><ele>488</ele><time>2017-11-10T09:33:50.000Z</time></trkpt><trkpt lon="34.852215" lat="31.371517"><ele>488</ele><time>2017-11-10T09:33:51.000Z</time></trkpt><trkpt lon="34.852191" lat="31.371539"><ele>488</ele><time>2017-11-10T09:33:52.000Z</time></trkpt><trkpt lon="34.852172" lat="31.371566"><ele>488</ele><time>2017-11-10T09:33:53.000Z</time></trkpt><trkpt lon="34.852149" lat="31.371598"><ele>488</ele><time>2017-11-10T09:33:54.000Z</time></trkpt><trkpt lon="34.85212" lat="31.371629"><ele>488</ele><time>2017-11-10T09:33:55.000Z</time></trkpt><trkpt lon="34.852088" lat="31.371658"><ele>488</ele><time>2017-11-10T09:33:56.000Z</time></trkpt><trkpt lon="34.852058" lat="31.371687"><ele>488</ele><time>2017-11-10T09:33:57.000Z</time></trkpt><trkpt lon="34.852031" lat="31.371712"><ele>488</ele><time>2017-11-10T09:33:58.000Z</time></trkpt><trkpt lon="34.852005" lat="31.371734"><ele>488</ele><time>2017-11-10T09:33:59.000Z</time></trkpt><trkpt lon="34.851982" lat="31.371756"><ele>488</ele><time>2017-11-10T09:34:00.000Z</time></trkpt><trkpt lon="34.851958" lat="31.371782"><ele>488</ele><time>2017-11-10T09:34:01.000Z</time></trkpt><trkpt lon="34.851937" lat="31.37181"><ele>488</ele><time>2017-11-10T09:34:02.000Z</time></trkpt><trkpt lon="34.85192" lat="31.371838"><ele>488</ele><time>2017-11-10T09:34:03.000Z</time></trkpt><trkpt lon="34.851903" lat="31.37187"><ele>488</ele><time>2017-11-10T09:34:04.000Z</time></trkpt><trkpt lon="34.851887" lat="31.371902"><ele>488</ele><time>2017-11-10T09:34:05.000Z</time></trkpt><trkpt lon="34.85187" lat="31.371934"><ele>488</ele><time>2017-11-10T09:34:06.000Z</time></trkpt><trkpt lon="34.851854" lat="31.371964"><ele>488</ele><time>2017-11-10T09:34:07.000Z</time></trkpt><trkpt lon="34.851836" lat="31.371988"><ele>488</ele><time>2017-11-10T09:34:08.000Z</time></trkpt><trkpt lon="34.851818" lat="31.372012"><ele>488</ele><time>2017-11-10T09:34:09.000Z</time></trkpt><trkpt lon="34.851802" lat="31.372032"><ele>488</ele><time>2017-11-10T09:34:10.000Z</time></trkpt><trkpt lon="34.851792" lat="31.372054"><ele>488</ele><time>2017-11-10T09:34:11.000Z</time></trkpt><trkpt lon="34.85179" lat="31.37208"><ele>488</ele><time>2017-11-10T09:34:12.000Z</time></trkpt><trkpt lon="34.851791" lat="31.37211"><ele>488</ele><time>2017-11-10T09:34:13.000Z</time></trkpt><trkpt lon="34.851789" lat="31.372138"><ele>488</ele><time>2017-11-10T09:34:14.000Z</time></trkpt><trkpt lon="34.851789" lat="31.372165"><ele>488</ele><time>2017-11-10T09:34:15.000Z</time></trkpt><trkpt lon="34.851791" lat="31.37219"><ele>488</ele><time>2017-11-10T09:34:16.000Z</time></trkpt><trkpt lon="34.851798" lat="31.37222"><ele>488</ele><time>2017-11-10T09:34:17.000Z</time></trkpt><trkpt lon="34.851811" lat="31.372248"><ele>488</ele><time>2017-11-10T09:34:18.000Z</time></trkpt><trkpt lon="34.851822" lat="31.372278"><ele>488</ele><time>2017-11-10T09:34:19.000Z</time></trkpt><trkpt lon="34.851832" lat="31.372304"><ele>489</ele><time>2017-11-10T09:34:20.000Z</time></trkpt><trkpt lon="34.851847" lat="31.37233"><ele>489</ele><time>2017-11-10T09:34:21.000Z</time></trkpt><trkpt lon="34.851866" lat="31.372354"><ele>489</ele><time>2017-11-10T09:34:22.000Z</time></trkpt><trkpt lon="34.851885" lat="31.372376"><ele>489</ele><time>2017-11-10T09:34:23.000Z</time></trkpt><trkpt lon="34.851906" lat="31.372394"><ele>489</ele><time>2017-11-10T09:34:24.000Z</time></trkpt><trkpt lon="34.851931" lat="31.372408"><ele>489</ele><time>2017-11-10T09:34:25.000Z</time></trkpt><trkpt lon="34.851959" lat="31.372418"><ele>489</ele><time>2017-11-10T09:34:26.000Z</time></trkpt><trkpt lon="34.851989" lat="31.37243"><ele>489</ele><time>2017-11-10T09:34:27.000Z</time></trkpt><trkpt lon="34.852016" lat="31.372444"><ele>489</ele><time>2017-11-10T09:34:28.000Z</time></trkpt><trkpt lon="34.852042" lat="31.372456"><ele>489</ele><time>2017-11-10T09:34:29.000Z</time></trkpt><trkpt lon="34.852066" lat="31.372465"><ele>489</ele><time>2017-11-10T09:34:30.000Z</time></trkpt><trkpt lon="34.852086" lat="31.372476"><ele>489</ele><time>2017-11-10T09:34:31.000Z</time></trkpt><trkpt lon="34.852108" lat="31.372492"><ele>489</ele><time>2017-11-10T09:34:32.000Z</time></trkpt><trkpt lon="34.852133" lat="31.372504"><ele>489</ele><time>2017-11-10T09:34:33.000Z</time></trkpt><trkpt lon="34.852161" lat="31.37251"><ele>489</ele><time>2017-11-10T09:34:34.000Z</time></trkpt><trkpt lon="34.852186" lat="31.372518"><ele>489</ele><time>2017-11-10T09:34:35.000Z</time></trkpt><trkpt lon="34.852212" lat="31.372527"><ele>489</ele><time>2017-11-10T09:34:36.000Z</time></trkpt><trkpt lon="34.852241" lat="31.372538"><ele>489</ele><time>2017-11-10T09:34:37.000Z</time></trkpt><trkpt lon="34.85227" lat="31.37255"><ele>489</ele><time>2017-11-10T09:34:38.000Z</time></trkpt><trkpt lon="34.852301" lat="31.372562"><ele>490</ele><time>2017-11-10T09:34:39.000Z</time></trkpt><trkpt lon="34.852332" lat="31.37257"><ele>490</ele><time>2017-11-10T09:34:40.000Z</time></trkpt><trkpt lon="34.852364" lat="31.372582"><ele>490</ele><time>2017-11-10T09:34:41.000Z</time></trkpt><trkpt lon="34.8524" lat="31.372594"><ele>490</ele><time>2017-11-10T09:34:42.000Z</time></trkpt><trkpt lon="34.852435" lat="31.372614"><ele>490</ele><time>2017-11-10T09:34:43.000Z</time></trkpt><trkpt lon="34.852462" lat="31.372634"><ele>489</ele><time>2017-11-10T09:34:44.000Z</time></trkpt><trkpt lon="34.852486" lat="31.37265"><ele>490</ele><time>2017-11-10T09:34:45.000Z</time></trkpt><trkpt lon="34.852514" lat="31.372666"><ele>490</ele><time>2017-11-10T09:34:46.000Z</time></trkpt><trkpt lon="34.852543" lat="31.372686"><ele>490</ele><time>2017-11-10T09:34:47.000Z</time></trkpt><trkpt lon="34.852567" lat="31.37271"><ele>489</ele><time>2017-11-10T09:34:48.000Z</time></trkpt><trkpt lon="34.852591" lat="31.372734"><ele>489</ele><time>2017-11-10T09:34:49.000Z</time></trkpt><trkpt lon="34.852613" lat="31.372758"><ele>489</ele><time>2017-11-10T09:34:50.000Z</time></trkpt><trkpt lon="34.852633" lat="31.37278"><ele>489</ele><time>2017-11-10T09:34:51.000Z</time></trkpt><trkpt lon="34.852649" lat="31.372807"><ele>489</ele><time>2017-11-10T09:34:52.000Z</time></trkpt><trkpt lon="34.852657" lat="31.372836"><ele>489</ele><time>2017-11-10T09:34:53.000Z</time></trkpt><trkpt lon="34.852662" lat="31.37287"><ele>489</ele><time>2017-11-10T09:34:54.000Z</time></trkpt><trkpt lon="34.852663" lat="31.372904"><ele>489</ele><time>2017-11-10T09:34:55.000Z</time></trkpt><trkpt lon="34.852662" lat="31.372938"><ele>489</ele><time>2017-11-10T09:34:56.000Z</time></trkpt><trkpt lon="34.852663" lat="31.37297"><ele>489</ele><time>2017-11-10T09:34:57.000Z</time></trkpt><trkpt lon="34.852665" lat="31.373002"><ele>489</ele><time>2017-11-10T09:34:58.000Z</time></trkpt><trkpt lon="34.852668" lat="31.373034"><ele>489</ele><time>2017-11-10T09:34:59.000Z</time></trkpt><trkpt lon="34.852673" lat="31.373068"><ele>489</ele><time>2017-11-10T09:35:00.000Z</time></trkpt><trkpt lon="34.852679" lat="31.373099"><ele>489</ele><time>2017-11-10T09:35:01.000Z</time></trkpt><trkpt lon="34.852678" lat="31.37313"><ele>489</ele><time>2017-11-10T09:35:02.000Z</time></trkpt><trkpt lon="34.852671" lat="31.373164"><ele>489</ele><time>2017-11-10T09:35:03.000Z</time></trkpt><trkpt lon="34.852662" lat="31.373197"><ele>489</ele><time>2017-11-10T09:35:04.000Z</time></trkpt><trkpt lon="34.852652" lat="31.373228"><ele>489</ele><time>2017-11-10T09:35:05.000Z</time></trkpt><trkpt lon="34.852643" lat="31.373261"><ele>489</ele><time>2017-11-10T09:35:06.000Z</time></trkpt><trkpt lon="34.852636" lat="31.373293"><ele>490</ele><time>2017-11-10T09:35:07.000Z</time></trkpt><trkpt lon="34.85263" lat="31.373326"><ele>490</ele><time>2017-11-10T09:35:08.000Z</time></trkpt><trkpt lon="34.852618" lat="31.373358"><ele>490</ele><time>2017-11-10T09:35:09.000Z</time></trkpt><trkpt lon="34.852603" lat="31.373388"><ele>490</ele><time>2017-11-10T09:35:10.000Z</time></trkpt><trkpt lon="34.852587" lat="31.373417"><ele>490</ele><time>2017-11-10T09:35:11.000Z</time></trkpt><trkpt lon="34.852572" lat="31.373445"><ele>490</ele><time>2017-11-10T09:35:12.000Z</time></trkpt><trkpt lon="34.852562" lat="31.373476"><ele>490</ele><time>2017-11-10T09:35:13.000Z</time></trkpt><trkpt lon="34.852557" lat="31.373503"><ele>490</ele><time>2017-11-10T09:35:14.000Z</time></trkpt><trkpt lon="34.852553" lat="31.373536"><ele>490</ele><time>2017-11-10T09:35:15.000Z</time></trkpt><trkpt lon="34.852543" lat="31.373566"><ele>490</ele><time>2017-11-10T09:35:16.000Z</time></trkpt><trkpt lon="34.852534" lat="31.373593"><ele>490</ele><time>2017-11-10T09:35:17.000Z</time></trkpt><trkpt lon="34.852526" lat="31.373621"><ele>490</ele><time>2017-11-10T09:35:18.000Z</time></trkpt><trkpt lon="34.852517" lat="31.37365"><ele>491</ele><time>2017-11-10T09:35:19.000Z</time></trkpt><trkpt lon="34.852509" lat="31.373679"><ele>491</ele><time>2017-11-10T09:35:20.000Z</time></trkpt><trkpt lon="34.852502" lat="31.373707"><ele>491</ele><time>2017-11-10T09:35:21.000Z</time></trkpt><trkpt lon="34.852496" lat="31.373734"><ele>491</ele><time>2017-11-10T09:35:22.000Z</time></trkpt><trkpt lon="34.852494" lat="31.373757"><ele>491</ele><time>2017-11-10T09:35:23.000Z</time></trkpt><trkpt lon="34.852493" lat="31.373783"><ele>491</ele><time>2017-11-10T09:35:24.000Z</time></trkpt><trkpt lon="34.852492" lat="31.373811"><ele>491</ele><time>2017-11-10T09:35:25.000Z</time></trkpt><trkpt lon="34.852491" lat="31.37384"><ele>491</ele><time>2017-11-10T09:35:26.000Z</time></trkpt><trkpt lon="34.852495" lat="31.373871"><ele>491</ele><time>2017-11-10T09:35:27.000Z</time></trkpt><trkpt lon="34.852499" lat="31.373905"><ele>491</ele><time>2017-11-10T09:35:28.000Z</time></trkpt><trkpt lon="34.852503" lat="31.373937"><ele>491</ele><time>2017-11-10T09:35:29.000Z</time></trkpt><trkpt lon="34.852506" lat="31.373969"><ele>491</ele><time>2017-11-10T09:35:30.000Z</time></trkpt><trkpt lon="34.852507" lat="31.374001"><ele>491</ele><time>2017-11-10T09:35:31.000Z</time></trkpt><trkpt lon="34.852507" lat="31.374035"><ele>491</ele><time>2017-11-10T09:35:32.000Z</time></trkpt><trkpt lon="34.852502" lat="31.374073"><ele>491</ele><time>2017-11-10T09:35:33.000Z</time></trkpt><trkpt lon="34.852487" lat="31.374116"><ele>492</ele><time>2017-11-10T09:35:34.000Z</time></trkpt><trkpt lon="34.852471" lat="31.374157"><ele>492</ele><time>2017-11-10T09:35:35.000Z</time></trkpt><trkpt lon="34.852457" lat="31.374194"><ele>492</ele><time>2017-11-10T09:35:36.000Z</time></trkpt><trkpt lon="34.852443" lat="31.374225"><ele>492</ele><time>2017-11-10T09:35:37.000Z</time></trkpt><trkpt lon="34.852431" lat="31.374251"><ele>492</ele><time>2017-11-10T09:35:38.000Z</time></trkpt><trkpt lon="34.852426" lat="31.374276"><ele>492</ele><time>2017-11-10T09:35:39.000Z</time></trkpt><trkpt lon="34.852428" lat="31.374299"><ele>492</ele><time>2017-11-10T09:35:40.000Z</time></trkpt><trkpt lon="34.85243" lat="31.374324"><ele>493</ele><time>2017-11-10T09:35:41.000Z</time></trkpt><trkpt lon="34.852429" lat="31.37435"><ele>493</ele><time>2017-11-10T09:35:42.000Z</time></trkpt><trkpt lon="34.852425" lat="31.374377"><ele>493</ele><time>2017-11-10T09:35:43.000Z</time></trkpt><trkpt lon="34.852418" lat="31.374403"><ele>493</ele><time>2017-11-10T09:35:44.000Z</time></trkpt><trkpt lon="34.852408" lat="31.37443"><ele>493</ele><time>2017-11-10T09:35:45.000Z</time></trkpt><trkpt lon="34.852392" lat="31.374458"><ele>493</ele><time>2017-11-10T09:35:46.000Z</time></trkpt><trkpt lon="34.852372" lat="31.374481"><ele>493</ele><time>2017-11-10T09:35:47.000Z</time></trkpt><trkpt lon="34.852347" lat="31.374499"><ele>493</ele><time>2017-11-10T09:35:48.000Z</time></trkpt><trkpt lon="34.852326" lat="31.374516"><ele>493</ele><time>2017-11-10T09:35:49.000Z</time></trkpt><trkpt lon="34.852307" lat="31.374536"><ele>493</ele><time>2017-11-10T09:35:50.000Z</time></trkpt><trkpt lon="34.852291" lat="31.374558"><ele>493</ele><time>2017-11-10T09:35:51.000Z</time></trkpt><trkpt lon="34.852277" lat="31.374582"><ele>493</ele><time>2017-11-10T09:35:52.000Z</time></trkpt><trkpt lon="34.852269" lat="31.374608"><ele>493</ele><time>2017-11-10T09:35:53.000Z</time></trkpt><trkpt lon="34.852267" lat="31.374637"><ele>493</ele><time>2017-11-10T09:35:54.000Z</time></trkpt><trkpt lon="34.852265" lat="31.37467"><ele>493</ele><time>2017-11-10T09:35:55.000Z</time></trkpt><trkpt lon="34.852257" lat="31.374704"><ele>493</ele><time>2017-11-10T09:35:56.000Z</time></trkpt><trkpt lon="34.852242" lat="31.37474"><ele>493</ele><time>2017-11-10T09:35:57.000Z</time></trkpt><trkpt lon="34.852223" lat="31.374776"><ele>493</ele><time>2017-11-10T09:35:58.000Z</time></trkpt><trkpt lon="34.852201" lat="31.374811"><ele>493</ele><time>2017-11-10T09:35:59.000Z</time></trkpt><trkpt lon="34.852175" lat="31.37484"><ele>493</ele><time>2017-11-10T09:36:00.000Z</time></trkpt><trkpt lon="34.85215" lat="31.374862"><ele>493</ele><time>2017-11-10T09:36:01.000Z</time></trkpt><trkpt lon="34.852132" lat="31.374882"><ele>493</ele><time>2017-11-10T09:36:02.000Z</time></trkpt><trkpt lon="34.852122" lat="31.374907"><ele>493</ele><time>2017-11-10T09:36:03.000Z</time></trkpt><trkpt lon="34.852111" lat="31.374938"><ele>493</ele><time>2017-11-10T09:36:04.000Z</time></trkpt><trkpt lon="34.852096" lat="31.374971"><ele>493</ele><time>2017-11-10T09:36:05.000Z</time></trkpt><trkpt lon="34.85208" lat="31.375007"><ele>493</ele><time>2017-11-10T09:36:06.000Z</time></trkpt><trkpt lon="34.852065" lat="31.375043"><ele>493</ele><time>2017-11-10T09:36:07.000Z</time></trkpt><trkpt lon="34.852047" lat="31.375078"><ele>493</ele><time>2017-11-10T09:36:08.000Z</time></trkpt><trkpt lon="34.852023" lat="31.375107"><ele>493</ele><time>2017-11-10T09:36:09.000Z</time></trkpt><trkpt lon="34.851995" lat="31.375128"><ele>493</ele><time>2017-11-10T09:36:10.000Z</time></trkpt><trkpt lon="34.851966" lat="31.375142"><ele>493</ele><time>2017-11-10T09:36:11.000Z</time></trkpt><trkpt lon="34.851937" lat="31.375154"><ele>493</ele><time>2017-11-10T09:36:12.000Z</time></trkpt><trkpt lon="34.851907" lat="31.375167"><ele>493</ele><time>2017-11-10T09:36:13.000Z</time></trkpt><trkpt lon="34.851874" lat="31.375181"><ele>493</ele><time>2017-11-10T09:36:14.000Z</time></trkpt><trkpt lon="34.85184" lat="31.375198"><ele>493</ele><time>2017-11-10T09:36:15.000Z</time></trkpt><trkpt lon="34.851808" lat="31.375221"><ele>493</ele><time>2017-11-10T09:36:16.000Z</time></trkpt><trkpt lon="34.851785" lat="31.37525"><ele>493</ele><time>2017-11-10T09:36:17.000Z</time></trkpt><trkpt lon="34.851776" lat="31.37528"><ele>493</ele><time>2017-11-10T09:36:18.000Z</time></trkpt><trkpt lon="34.851765" lat="31.375304"><ele>493</ele><time>2017-11-10T09:36:19.000Z</time></trkpt><trkpt lon="34.851746" lat="31.375324"><ele>493</ele><time>2017-11-10T09:36:20.000Z</time></trkpt><trkpt lon="34.851725" lat="31.37534"><ele>493</ele><time>2017-11-10T09:36:21.000Z</time></trkpt><trkpt lon="34.851699" lat="31.375349"><ele>493</ele><time>2017-11-10T09:36:22.000Z</time></trkpt><trkpt lon="34.851675" lat="31.375363"><ele>493</ele><time>2017-11-10T09:36:23.000Z</time></trkpt><trkpt lon="34.851658" lat="31.375385"><ele>493</ele><time>2017-11-10T09:36:24.000Z</time></trkpt><trkpt lon="34.851646" lat="31.375411"><ele>493</ele><time>2017-11-10T09:36:25.000Z</time></trkpt><trkpt lon="34.851634" lat="31.375439"><ele>493</ele><time>2017-11-10T09:36:26.000Z</time></trkpt><trkpt lon="34.85163" lat="31.375469"><ele>493</ele><time>2017-11-10T09:36:27.000Z</time></trkpt><trkpt lon="34.851638" lat="31.375499"><ele>493</ele><time>2017-11-10T09:36:28.000Z</time></trkpt><trkpt lon="34.851643" lat="31.375529"><ele>492</ele><time>2017-11-10T09:36:29.000Z</time></trkpt><trkpt lon="34.851644" lat="31.375553"><ele>492</ele><time>2017-11-10T09:36:30.000Z</time></trkpt><trkpt lon="34.851646" lat="31.375576"><ele>492</ele><time>2017-11-10T09:36:31.000Z</time></trkpt><trkpt lon="34.85165" lat="31.375602"><ele>492</ele><time>2017-11-10T09:36:32.000Z</time></trkpt><trkpt lon="34.851664" lat="31.375628"><ele>492</ele><time>2017-11-10T09:36:33.000Z</time></trkpt><trkpt lon="34.851684" lat="31.375652"><ele>492</ele><time>2017-11-10T09:36:34.000Z</time></trkpt><trkpt lon="34.851698" lat="31.375678"><ele>492</ele><time>2017-11-10T09:36:35.000Z</time></trkpt><trkpt lon="34.85171" lat="31.375704"><ele>492</ele><time>2017-11-10T09:36:36.000Z</time></trkpt><trkpt lon="34.851719" lat="31.375729"><ele>492</ele><time>2017-11-10T09:36:37.000Z</time></trkpt><trkpt lon="34.85173" lat="31.375753"><ele>492</ele><time>2017-11-10T09:36:38.000Z</time></trkpt><trkpt lon="34.851745" lat="31.375777"><ele>492</ele><time>2017-11-10T09:36:39.000Z</time></trkpt><trkpt lon="34.851767" lat="31.3758"><ele>492</ele><time>2017-11-10T09:36:40.000Z</time></trkpt><trkpt lon="34.851792" lat="31.375823"><ele>492</ele><time>2017-11-10T09:36:41.000Z</time></trkpt><trkpt lon="34.851814" lat="31.375841"><ele>492</ele><time>2017-11-10T09:36:42.000Z</time></trkpt><trkpt lon="34.851831" lat="31.375861"><ele>492</ele><time>2017-11-10T09:36:43.000Z</time></trkpt><trkpt lon="34.851834" lat="31.375884"><ele>493</ele><time>2017-11-10T09:36:44.000Z</time></trkpt><trkpt lon="34.85183" lat="31.375909"><ele>493</ele><time>2017-11-10T09:36:45.000Z</time></trkpt><trkpt lon="34.85183" lat="31.375935"><ele>493</ele><time>2017-11-10T09:36:46.000Z</time></trkpt><trkpt lon="34.851836" lat="31.375963"><ele>493</ele><time>2017-11-10T09:36:47.000Z</time></trkpt><trkpt lon="34.851841" lat="31.37599"><ele>493</ele><time>2017-11-10T09:36:48.000Z</time></trkpt><trkpt lon="34.851849" lat="31.376009"><ele>493</ele><time>2017-11-10T09:36:49.000Z</time></trkpt><trkpt lon="34.851859" lat="31.376027"><ele>493</ele><time>2017-11-10T09:36:50.000Z</time></trkpt><trkpt lon="34.85187" lat="31.376049"><ele>493</ele><time>2017-11-10T09:36:51.000Z</time></trkpt><trkpt lon="34.851879" lat="31.376074"><ele>493</ele><time>2017-11-10T09:36:52.000Z</time></trkpt><trkpt lon="34.851888" lat="31.376096"><ele>493</ele><time>2017-11-10T09:36:53.000Z</time></trkpt><trkpt lon="34.851902" lat="31.376121"><ele>493</ele><time>2017-11-10T09:36:54.000Z</time></trkpt><trkpt lon="34.851915" lat="31.376149"><ele>493</ele><time>2017-11-10T09:36:55.000Z</time></trkpt><trkpt lon="34.851928" lat="31.376182"><ele>493</ele><time>2017-11-10T09:36:56.000Z</time></trkpt><trkpt lon="34.851936" lat="31.376218"><ele>494</ele><time>2017-11-10T09:36:57.000Z</time></trkpt><trkpt lon="34.851938" lat="31.376259"><ele>494</ele><time>2017-11-10T09:36:58.000Z</time></trkpt><trkpt lon="34.851939" lat="31.376299"><ele>495</ele><time>2017-11-10T09:36:59.000Z</time></trkpt><trkpt lon="34.85194" lat="31.376334"><ele>495</ele><time>2017-11-10T09:37:00.000Z</time></trkpt><trkpt lon="34.851937" lat="31.376365"><ele>495</ele><time>2017-11-10T09:37:01.000Z</time></trkpt><trkpt lon="34.851932" lat="31.376394"><ele>495</ele><time>2017-11-10T09:37:02.000Z</time></trkpt><trkpt lon="34.851927" lat="31.376425"><ele>495</ele><time>2017-11-10T09:37:03.000Z</time></trkpt><trkpt lon="34.851922" lat="31.376453"><ele>495</ele><time>2017-11-10T09:37:04.000Z</time></trkpt><trkpt lon="34.851913" lat="31.376479"><ele>496</ele><time>2017-11-10T09:37:05.000Z</time></trkpt><trkpt lon="34.851901" lat="31.376506"><ele>496</ele><time>2017-11-10T09:37:06.000Z</time></trkpt><trkpt lon="34.851887" lat="31.376534"><ele>496</ele><time>2017-11-10T09:37:07.000Z</time></trkpt><trkpt lon="34.851874" lat="31.376564"><ele>496</ele><time>2017-11-10T09:37:08.000Z</time></trkpt><trkpt lon="34.851863" lat="31.376594"><ele>496</ele><time>2017-11-10T09:37:09.000Z</time></trkpt><trkpt lon="34.851852" lat="31.376623"><ele>496</ele><time>2017-11-10T09:37:10.000Z</time></trkpt><trkpt lon="34.851842" lat="31.37665"><ele>496</ele><time>2017-11-10T09:37:11.000Z</time></trkpt><trkpt lon="34.851839" lat="31.376675"><ele>496</ele><time>2017-11-10T09:37:12.000Z</time></trkpt><trkpt lon="34.851834" lat="31.376699"><ele>495</ele><time>2017-11-10T09:37:13.000Z</time></trkpt><trkpt lon="34.851825" lat="31.376727"><ele>496</ele><time>2017-11-10T09:37:14.000Z</time></trkpt><trkpt lon="34.851818" lat="31.376757"><ele>496</ele><time>2017-11-10T09:37:15.000Z</time></trkpt><trkpt lon="34.851813" lat="31.376785"><ele>496</ele><time>2017-11-10T09:37:16.000Z</time></trkpt><trkpt lon="34.851811" lat="31.376812"><ele>497</ele><time>2017-11-10T09:37:17.000Z</time></trkpt><trkpt lon="34.851814" lat="31.376838"><ele>497</ele><time>2017-11-10T09:37:18.000Z</time></trkpt><trkpt lon="34.851817" lat="31.376867"><ele>497</ele><time>2017-11-10T09:37:19.000Z</time></trkpt><trkpt lon="34.851827" lat="31.376901"><ele>497</ele><time>2017-11-10T09:37:20.000Z</time></trkpt><trkpt lon="34.851833" lat="31.376936"><ele>497</ele><time>2017-11-10T09:37:21.000Z</time></trkpt><trkpt lon="34.851835" lat="31.376964"><ele>498</ele><time>2017-11-10T09:37:22.000Z</time></trkpt><trkpt lon="34.851836" lat="31.376984"><ele>499</ele><time>2017-11-10T09:37:23.000Z</time></trkpt><trkpt lon="34.851836" lat="31.376984"><ele>499</ele><time>2017-11-10T09:37:24.000Z</time></trkpt><trkpt lon="34.851834" lat="31.377019"><ele>499</ele><time>2017-11-10T09:37:25.000Z</time></trkpt><trkpt lon="34.851832" lat="31.377038"><ele>499</ele><time>2017-11-10T09:37:26.000Z</time></trkpt><trkpt lon="34.851831" lat="31.377057"><ele>499</ele><time>2017-11-10T09:37:27.000Z</time></trkpt><trkpt lon="34.851831" lat="31.377057"><ele>499</ele><time>2017-11-10T09:37:28.000Z</time></trkpt><trkpt lon="34.851828" lat="31.377092"><ele>500</ele><time>2017-11-10T09:37:29.000Z</time></trkpt><trkpt lon="34.851828" lat="31.377092"><ele>500</ele><time>2017-11-10T09:37:30.000Z</time></trkpt><trkpt lon="34.851828" lat="31.377122"><ele>500</ele><time>2017-11-10T09:37:31.000Z</time></trkpt><trkpt lon="34.851828" lat="31.377122"><ele>500</ele><time>2017-11-10T09:37:32.000Z</time></trkpt><trkpt lon="34.85183" lat="31.377147"><ele>500</ele><time>2017-11-10T09:37:33.000Z</time></trkpt><trkpt lon="34.85183" lat="31.377147"><ele>500</ele><time>2017-11-10T09:37:34.000Z</time></trkpt><trkpt lon="34.851823" lat="31.377176"><ele>501</ele><time>2017-11-10T09:37:35.000Z</time></trkpt><trkpt lon="34.85182" lat="31.377195"><ele>501</ele><time>2017-11-10T09:37:36.000Z</time></trkpt><trkpt lon="34.851817" lat="31.377214"><ele>501</ele><time>2017-11-10T09:37:37.000Z</time></trkpt><trkpt lon="34.851813" lat="31.377233"><ele>502</ele><time>2017-11-10T09:37:38.000Z</time></trkpt><trkpt lon="34.851809" lat="31.377251"><ele>502</ele><time>2017-11-10T09:37:39.000Z</time></trkpt><trkpt lon="34.851804" lat="31.377269"><ele>502</ele><time>2017-11-10T09:37:40.000Z</time></trkpt><trkpt lon="34.851799" lat="31.377287"><ele>502</ele><time>2017-11-10T09:37:41.000Z</time></trkpt><trkpt lon="34.851799" lat="31.377287"><ele>502</ele><time>2017-11-10T09:37:42.000Z</time></trkpt><trkpt lon="34.851787" lat="31.377321"><ele>501</ele><time>2017-11-10T09:37:43.000Z</time></trkpt><trkpt lon="34.851787" lat="31.377321"><ele>501</ele><time>2017-11-10T09:37:44.000Z</time></trkpt><trkpt lon="34.851777" lat="31.377355"><ele>501</ele><time>2017-11-10T09:37:45.000Z</time></trkpt><trkpt lon="34.851777" lat="31.377355"><ele>501</ele><time>2017-11-10T09:37:46.000Z</time></trkpt><trkpt lon="34.851763" lat="31.377384"><ele>501</ele><time>2017-11-10T09:37:47.000Z</time></trkpt><trkpt lon="34.851756" lat="31.377402"><ele>501</ele><time>2017-11-10T09:37:48.000Z</time></trkpt><trkpt lon="34.851749" lat="31.377419"><ele>501</ele><time>2017-11-10T09:37:49.000Z</time></trkpt><trkpt lon="34.851738" lat="31.377439"><ele>501</ele><time>2017-11-10T09:37:50.000Z</time></trkpt><trkpt lon="34.851722" lat="31.377465"><ele>501</ele><time>2017-11-10T09:37:51.000Z</time></trkpt><trkpt lon="34.851707" lat="31.377494"><ele>501</ele><time>2017-11-10T09:37:52.000Z</time></trkpt><trkpt lon="34.851692" lat="31.377526"><ele>501</ele><time>2017-11-10T09:37:53.000Z</time></trkpt><trkpt lon="34.851675" lat="31.377557"><ele>501</ele><time>2017-11-10T09:37:54.000Z</time></trkpt><trkpt lon="34.851658" lat="31.377588"><ele>501</ele><time>2017-11-10T09:37:55.000Z</time></trkpt><trkpt lon="34.851643" lat="31.377615"><ele>501</ele><time>2017-11-10T09:37:56.000Z</time></trkpt><trkpt lon="34.851629" lat="31.37764"><ele>501</ele><time>2017-11-10T09:37:57.000Z</time></trkpt><trkpt lon="34.851613" lat="31.377664"><ele>501</ele><time>2017-11-10T09:37:58.000Z</time></trkpt><trkpt lon="34.851593" lat="31.377688"><ele>501</ele><time>2017-11-10T09:37:59.000Z</time></trkpt><trkpt lon="34.851568" lat="31.377713"><ele>501</ele><time>2017-11-10T09:38:00.000Z</time></trkpt><trkpt lon="34.851538" lat="31.377741"><ele>501</ele><time>2017-11-10T09:38:01.000Z</time></trkpt><trkpt lon="34.851505" lat="31.377775"><ele>501</ele><time>2017-11-10T09:38:02.000Z</time></trkpt><trkpt lon="34.851473" lat="31.377809"><ele>501</ele><time>2017-11-10T09:38:03.000Z</time></trkpt><trkpt lon="34.851439" lat="31.377838"><ele>501</ele><time>2017-11-10T09:38:04.000Z</time></trkpt><trkpt lon="34.8514" lat="31.377863"><ele>500</ele><time>2017-11-10T09:38:05.000Z</time></trkpt><trkpt lon="34.851357" lat="31.377889"><ele>500</ele><time>2017-11-10T09:38:06.000Z</time></trkpt><trkpt lon="34.851312" lat="31.377918"><ele>500</ele><time>2017-11-10T09:38:07.000Z</time></trkpt><trkpt lon="34.851267" lat="31.377947"><ele>500</ele><time>2017-11-10T09:38:08.000Z</time></trkpt><trkpt lon="34.851226" lat="31.377972"><ele>500</ele><time>2017-11-10T09:38:09.000Z</time></trkpt><trkpt lon="34.851184" lat="31.377993"><ele>500</ele><time>2017-11-10T09:38:10.000Z</time></trkpt><trkpt lon="34.851137" lat="31.378012"><ele>500</ele><time>2017-11-10T09:38:11.000Z</time></trkpt><trkpt lon="34.851084" lat="31.378028"><ele>500</ele><time>2017-11-10T09:38:12.000Z</time></trkpt><trkpt lon="34.851026" lat="31.378039"><ele>500</ele><time>2017-11-10T09:38:13.000Z</time></trkpt><trkpt lon="34.850962" lat="31.378046"><ele>499</ele><time>2017-11-10T09:38:14.000Z</time></trkpt><trkpt lon="34.850896" lat="31.378046"><ele>499</ele><time>2017-11-10T09:38:15.000Z</time></trkpt><trkpt lon="34.85083" lat="31.378048"><ele>499</ele><time>2017-11-10T09:38:16.000Z</time></trkpt><trkpt lon="34.850766" lat="31.378068"><ele>498</ele><time>2017-11-10T09:38:17.000Z</time></trkpt><trkpt lon="34.850715" lat="31.378096"><ele>498</ele><time>2017-11-10T09:38:18.000Z</time></trkpt><trkpt lon="34.850689" lat="31.378137"><ele>498</ele><time>2017-11-10T09:38:19.000Z</time></trkpt><trkpt lon="34.850673" lat="31.378178"><ele>498</ele><time>2017-11-10T09:38:20.000Z</time></trkpt><trkpt lon="34.850661" lat="31.378216"><ele>498</ele><time>2017-11-10T09:38:21.000Z</time></trkpt><trkpt lon="34.85065" lat="31.378252"><ele>497</ele><time>2017-11-10T09:38:22.000Z</time></trkpt><trkpt lon="34.850644" lat="31.378289"><ele>497</ele><time>2017-11-10T09:38:23.000Z</time></trkpt><trkpt lon="34.850644" lat="31.378328"><ele>497</ele><time>2017-11-10T09:38:24.000Z</time></trkpt><trkpt lon="34.850647" lat="31.378365"><ele>497</ele><time>2017-11-10T09:38:25.000Z</time></trkpt><trkpt lon="34.850636" lat="31.378401"><ele>497</ele><time>2017-11-10T09:38:26.000Z</time></trkpt><trkpt lon="34.850597" lat="31.378427"><ele>497</ele><time>2017-11-10T09:38:27.000Z</time></trkpt><trkpt lon="34.850542" lat="31.378439"><ele>496</ele><time>2017-11-10T09:38:28.000Z</time></trkpt><trkpt lon="34.850485" lat="31.378441"><ele>496</ele><time>2017-11-10T09:38:29.000Z</time></trkpt><trkpt lon="34.850431" lat="31.378438"><ele>495</ele><time>2017-11-10T09:38:30.000Z</time></trkpt><trkpt lon="34.850385" lat="31.378432"><ele>495</ele><time>2017-11-10T09:38:31.000Z</time></trkpt><trkpt lon="34.850355" lat="31.378434"><ele>494</ele><time>2017-11-10T09:38:32.000Z</time></trkpt><trkpt lon="34.850355" lat="31.378434"><ele>493</ele><time>2017-11-10T09:38:33.000Z</time></trkpt><trkpt lon="34.850356" lat="31.378461"><ele>493</ele><time>2017-11-10T09:38:34.000Z</time></trkpt><trkpt lon="34.850356" lat="31.378461"><ele>493</ele><time>2017-11-10T09:38:35.000Z</time></trkpt><trkpt lon="34.850393" lat="31.37847"><ele>492</ele><time>2017-11-10T09:38:36.000Z</time></trkpt><trkpt lon="34.850417" lat="31.37847"><ele>492</ele><time>2017-11-10T09:38:37.000Z</time></trkpt><trkpt lon="34.850443" lat="31.378475"><ele>492</ele><time>2017-11-10T09:38:38.000Z</time></trkpt><trkpt lon="34.850475" lat="31.378483"><ele>492</ele><time>2017-11-10T09:38:39.000Z</time></trkpt><trkpt lon="34.850516" lat="31.378487"><ele>493</ele><time>2017-11-10T09:38:40.000Z</time></trkpt><trkpt lon="34.850552" lat="31.378488"><ele>493</ele><time>2017-11-10T09:38:41.000Z</time></trkpt><trkpt lon="34.850583" lat="31.378488"><ele>493</ele><time>2017-11-10T09:38:42.000Z</time></trkpt><trkpt lon="34.850608" lat="31.378486"><ele>494</ele><time>2017-11-10T09:38:43.000Z</time></trkpt><trkpt lon="34.850608" lat="31.378486"><ele>494</ele><time>2017-11-10T09:38:44.000Z</time></trkpt><trkpt lon="34.850649" lat="31.378485"><ele>495</ele><time>2017-11-10T09:38:45.000Z</time></trkpt><trkpt lon="34.850672" lat="31.378488"><ele>495</ele><time>2017-11-10T09:38:46.000Z</time></trkpt><trkpt lon="34.850697" lat="31.378491"><ele>495</ele><time>2017-11-10T09:38:47.000Z</time></trkpt><trkpt lon="34.850724" lat="31.378493"><ele>495</ele><time>2017-11-10T09:38:48.000Z</time></trkpt><trkpt lon="34.850751" lat="31.378497"><ele>496</ele><time>2017-11-10T09:38:49.000Z</time></trkpt><trkpt lon="34.850782" lat="31.3785"><ele>496</ele><time>2017-11-10T09:38:50.000Z</time></trkpt><trkpt lon="34.850818" lat="31.378502"><ele>496</ele><time>2017-11-10T09:38:51.000Z</time></trkpt><trkpt lon="34.850857" lat="31.378506"><ele>496</ele><time>2017-11-10T09:38:52.000Z</time></trkpt><trkpt lon="34.850897" lat="31.378508"><ele>496</ele><time>2017-11-10T09:38:53.000Z</time></trkpt><trkpt lon="34.850934" lat="31.378507"><ele>497</ele><time>2017-11-10T09:38:54.000Z</time></trkpt><trkpt lon="34.850968" lat="31.378505"><ele>497</ele><time>2017-11-10T09:38:55.000Z</time></trkpt><trkpt lon="34.851001" lat="31.378505"><ele>497</ele><time>2017-11-10T09:38:56.000Z</time></trkpt><trkpt lon="34.851037" lat="31.378507"><ele>497</ele><time>2017-11-10T09:38:57.000Z</time></trkpt><trkpt lon="34.851075" lat="31.378508"><ele>497</ele><time>2017-11-10T09:38:58.000Z</time></trkpt><trkpt lon="34.851113" lat="31.37851"><ele>497</ele><time>2017-11-10T09:38:59.000Z</time></trkpt><trkpt lon="34.85115" lat="31.378514"><ele>498</ele><time>2017-11-10T09:39:00.000Z</time></trkpt><trkpt lon="34.851187" lat="31.378519"><ele>498</ele><time>2017-11-10T09:39:01.000Z</time></trkpt><trkpt lon="34.851223" lat="31.378523"><ele>498</ele><time>2017-11-10T09:39:02.000Z</time></trkpt><trkpt lon="34.851259" lat="31.378526"><ele>498</ele><time>2017-11-10T09:39:03.000Z</time></trkpt><trkpt lon="34.851293" lat="31.378531"><ele>498</ele><time>2017-11-10T09:39:04.000Z</time></trkpt><trkpt lon="34.851324" lat="31.378536"><ele>498</ele><time>2017-11-10T09:39:05.000Z</time></trkpt><trkpt lon="34.851353" lat="31.378543"><ele>498</ele><time>2017-11-10T09:39:06.000Z</time></trkpt><trkpt lon="34.851383" lat="31.378552"><ele>498</ele><time>2017-11-10T09:39:07.000Z</time></trkpt><trkpt lon="34.851414" lat="31.378563"><ele>498</ele><time>2017-11-10T09:39:08.000Z</time></trkpt><trkpt lon="34.851446" lat="31.378575"><ele>498</ele><time>2017-11-10T09:39:09.000Z</time></trkpt><trkpt lon="34.85148" lat="31.378585"><ele>498</ele><time>2017-11-10T09:39:10.000Z</time></trkpt><trkpt lon="34.851518" lat="31.378593"><ele>498</ele><time>2017-11-10T09:39:11.000Z</time></trkpt><trkpt lon="34.851557" lat="31.3786"><ele>498</ele><time>2017-11-10T09:39:12.000Z</time></trkpt><trkpt lon="34.851593" lat="31.378607"><ele>498</ele><time>2017-11-10T09:39:13.000Z</time></trkpt><trkpt lon="34.851625" lat="31.378614"><ele>498.4</ele><time>2017-11-10T09:39:14.000Z</time></trkpt><trkpt lon="34.851657" lat="31.37862"><ele>499</ele><time>2017-11-10T09:39:15.000Z</time></trkpt><trkpt lon="34.851691" lat="31.378626"><ele>499</ele><time>2017-11-10T09:39:16.000Z</time></trkpt><trkpt lon="34.851727" lat="31.378634"><ele>499</ele><time>2017-11-10T09:39:17.000Z</time></trkpt><trkpt lon="34.851766" lat="31.378647"><ele>499</ele><time>2017-11-10T09:39:18.000Z</time></trkpt><trkpt lon="34.851808" lat="31.378662"><ele>500</ele><time>2017-11-10T09:39:19.000Z</time></trkpt><trkpt lon="34.85185" lat="31.378676"><ele>500</ele><time>2017-11-10T09:39:20.000Z</time></trkpt><trkpt lon="34.85189" lat="31.378687"><ele>500</ele><time>2017-11-10T09:39:21.000Z</time></trkpt><trkpt lon="34.851927" lat="31.378696"><ele>501</ele><time>2017-11-10T09:39:22.000Z</time></trkpt><trkpt lon="34.851963" lat="31.378704"><ele>501</ele><time>2017-11-10T09:39:23.000Z</time></trkpt><trkpt lon="34.851997" lat="31.37871"><ele>501</ele><time>2017-11-10T09:39:24.000Z</time></trkpt><trkpt lon="34.852031" lat="31.378712"><ele>501</ele><time>2017-11-10T09:39:25.000Z</time></trkpt><trkpt lon="34.852066" lat="31.378715"><ele>501</ele><time>2017-11-10T09:39:26.000Z</time></trkpt><trkpt lon="34.852099" lat="31.378717"><ele>502</ele><time>2017-11-10T09:39:27.000Z</time></trkpt><trkpt lon="34.852131" lat="31.378717"><ele>502</ele><time>2017-11-10T09:39:28.000Z</time></trkpt><trkpt lon="34.852164" lat="31.378716"><ele>502</ele><time>2017-11-10T09:39:29.000Z</time></trkpt><trkpt lon="34.852197" lat="31.378716"><ele>502</ele><time>2017-11-10T09:39:30.000Z</time></trkpt><trkpt lon="34.852229" lat="31.378715"><ele>502</ele><time>2017-11-10T09:39:31.000Z</time></trkpt><trkpt lon="34.852265" lat="31.378715"><ele>502</ele><time>2017-11-10T09:39:32.000Z</time></trkpt><trkpt lon="34.852305" lat="31.378715"><ele>502</ele><time>2017-11-10T09:39:33.000Z</time></trkpt><trkpt lon="34.852349" lat="31.378713"><ele>502</ele><time>2017-11-10T09:39:34.000Z</time></trkpt><trkpt lon="34.852389" lat="31.378707"><ele>502</ele><time>2017-11-10T09:39:35.000Z</time></trkpt><trkpt lon="34.85243" lat="31.378706"><ele>502</ele><time>2017-11-10T09:39:36.000Z</time></trkpt><trkpt lon="34.852476" lat="31.378703"><ele>502</ele><time>2017-11-10T09:39:37.000Z</time></trkpt><trkpt lon="34.852525" lat="31.378703"><ele>502</ele><time>2017-11-10T09:39:38.000Z</time></trkpt><trkpt lon="34.852575" lat="31.378706"><ele>501</ele><time>2017-11-10T09:39:39.000Z</time></trkpt><trkpt lon="34.852624" lat="31.378708"><ele>501</ele><time>2017-11-10T09:39:40.000Z</time></trkpt><trkpt lon="34.852676" lat="31.378714"><ele>501</ele><time>2017-11-10T09:39:41.000Z</time></trkpt><trkpt lon="34.852731" lat="31.378716"><ele>501</ele><time>2017-11-10T09:39:42.000Z</time></trkpt><trkpt lon="34.852785" lat="31.378711"><ele>500</ele><time>2017-11-10T09:39:43.000Z</time></trkpt><trkpt lon="34.852836" lat="31.378708"><ele>500</ele><time>2017-11-10T09:39:44.000Z</time></trkpt><trkpt lon="34.852883" lat="31.378712"><ele>500</ele><time>2017-11-10T09:39:45.000Z</time></trkpt><trkpt lon="34.852935" lat="31.378721"><ele>500</ele><time>2017-11-10T09:39:46.000Z</time></trkpt><trkpt lon="34.852996" lat="31.378739"><ele>499</ele><time>2017-11-10T09:39:47.000Z</time></trkpt><trkpt lon="34.853062" lat="31.378752"><ele>498</ele><time>2017-11-10T09:39:48.000Z</time></trkpt><trkpt lon="34.853124" lat="31.378766"><ele>498</ele><time>2017-11-10T09:39:49.000Z</time></trkpt><trkpt lon="34.85318" lat="31.378781"><ele>498</ele><time>2017-11-10T09:39:50.000Z</time></trkpt><trkpt lon="34.853238" lat="31.3788"><ele>498</ele><time>2017-11-10T09:39:51.000Z</time></trkpt><trkpt lon="34.853302" lat="31.378825"><ele>498</ele><time>2017-11-10T09:39:52.000Z</time></trkpt><trkpt lon="34.853373" lat="31.378842"><ele>497</ele><time>2017-11-10T09:39:53.000Z</time></trkpt><trkpt lon="34.853448" lat="31.378857"><ele>497</ele><time>2017-11-10T09:39:54.000Z</time></trkpt><trkpt lon="34.853524" lat="31.378874"><ele>498</ele><time>2017-11-10T09:39:55.000Z</time></trkpt><trkpt lon="34.853596" lat="31.378893"><ele>498</ele><time>2017-11-10T09:39:56.000Z</time></trkpt><trkpt lon="34.853667" lat="31.378912"><ele>498</ele><time>2017-11-10T09:39:57.000Z</time></trkpt><trkpt lon="34.853738" lat="31.378928"><ele>497</ele><time>2017-11-10T09:39:58.000Z</time></trkpt><trkpt lon="34.853806" lat="31.378946"><ele>497</ele><time>2017-11-10T09:39:59.000Z</time></trkpt><trkpt lon="34.85387" lat="31.378962"><ele>497</ele><time>2017-11-10T09:40:00.000Z</time></trkpt><trkpt lon="34.853926" lat="31.378975"><ele>497</ele><time>2017-11-10T09:40:01.000Z</time></trkpt><trkpt lon="34.853974" lat="31.37899"><ele>497</ele><time>2017-11-10T09:40:02.000Z</time></trkpt><trkpt lon="34.854014" lat="31.379008"><ele>498.4</ele><time>2017-11-10T09:40:03.000Z</time></trkpt><trkpt lon="34.85405" lat="31.379029"><ele>499</ele><time>2017-11-10T09:40:04.000Z</time></trkpt><trkpt lon="34.85409" lat="31.379052"><ele>499</ele><time>2017-11-10T09:40:05.000Z</time></trkpt><trkpt lon="34.854126" lat="31.379077"><ele>499</ele><time>2017-11-10T09:40:06.000Z</time></trkpt><trkpt lon="34.854166" lat="31.379102"><ele>499</ele><time>2017-11-10T09:40:07.000Z</time></trkpt><trkpt lon="34.854209" lat="31.379124"><ele>499</ele><time>2017-11-10T09:40:08.000Z</time></trkpt><trkpt lon="34.85425" lat="31.379142"><ele>499</ele><time>2017-11-10T09:40:09.000Z</time></trkpt><trkpt lon="34.854291" lat="31.379156"><ele>500</ele><time>2017-11-10T09:40:10.000Z</time></trkpt><trkpt lon="34.854328" lat="31.379168"><ele>500</ele><time>2017-11-10T09:40:11.000Z</time></trkpt><trkpt lon="34.854364" lat="31.379177"><ele>500</ele><time>2017-11-10T09:40:12.000Z</time></trkpt><trkpt lon="34.854398" lat="31.379183"><ele>501</ele><time>2017-11-10T09:40:13.000Z</time></trkpt><trkpt lon="34.854434" lat="31.379189"><ele>501</ele><time>2017-11-10T09:40:14.000Z</time></trkpt><trkpt lon="34.85447" lat="31.37919"><ele>501</ele><time>2017-11-10T09:40:15.000Z</time></trkpt><trkpt lon="34.854504" lat="31.379189"><ele>501</ele><time>2017-11-10T09:40:16.000Z</time></trkpt><trkpt lon="34.854532" lat="31.379186"><ele>501</ele><time>2017-11-10T09:40:17.000Z</time></trkpt><trkpt lon="34.854558" lat="31.379183"><ele>501</ele><time>2017-11-10T09:40:18.000Z</time></trkpt><trkpt lon="34.854588" lat="31.379186"><ele>501</ele><time>2017-11-10T09:40:19.000Z</time></trkpt><trkpt lon="34.854616" lat="31.379188"><ele>501</ele><time>2017-11-10T09:40:20.000Z</time></trkpt><trkpt lon="34.85464" lat="31.379187"><ele>502</ele><time>2017-11-10T09:40:21.000Z</time></trkpt><trkpt lon="34.854662" lat="31.379185"><ele>502</ele><time>2017-11-10T09:40:22.000Z</time></trkpt><trkpt lon="34.854686" lat="31.379188"><ele>502</ele><time>2017-11-10T09:40:23.000Z</time></trkpt><trkpt lon="34.854712" lat="31.379195"><ele>502</ele><time>2017-11-10T09:40:24.000Z</time></trkpt><trkpt lon="34.854744" lat="31.379201"><ele>502</ele><time>2017-11-10T09:40:25.000Z</time></trkpt><trkpt lon="34.854776" lat="31.379207"><ele>502</ele><time>2017-11-10T09:40:26.000Z</time></trkpt><trkpt lon="34.854807" lat="31.379216"><ele>502</ele><time>2017-11-10T09:40:27.000Z</time></trkpt><trkpt lon="34.854834" lat="31.379227"><ele>503</ele><time>2017-11-10T09:40:28.000Z</time></trkpt><trkpt lon="34.854858" lat="31.379239"><ele>503</ele><time>2017-11-10T09:40:29.000Z</time></trkpt><trkpt lon="34.854882" lat="31.379252"><ele>503</ele><time>2017-11-10T09:40:30.000Z</time></trkpt><trkpt lon="34.854907" lat="31.379268"><ele>503</ele><time>2017-11-10T09:40:31.000Z</time></trkpt><trkpt lon="34.854932" lat="31.379282"><ele>503</ele><time>2017-11-10T09:40:32.000Z</time></trkpt><trkpt lon="34.854954" lat="31.379299"><ele>503</ele><time>2017-11-10T09:40:33.000Z</time></trkpt><trkpt lon="34.854976" lat="31.379322"><ele>503</ele><time>2017-11-10T09:40:34.000Z</time></trkpt><trkpt lon="34.854998" lat="31.379349"><ele>503</ele><time>2017-11-10T09:40:35.000Z</time></trkpt><trkpt lon="34.85502" lat="31.379378"><ele>503</ele><time>2017-11-10T09:40:36.000Z</time></trkpt><trkpt lon="34.855042" lat="31.379408"><ele>503</ele><time>2017-11-10T09:40:37.000Z</time></trkpt><trkpt lon="34.855064" lat="31.379436"><ele>503</ele><time>2017-11-10T09:40:38.000Z</time></trkpt><trkpt lon="34.855084" lat="31.379466"><ele>503</ele><time>2017-11-10T09:40:39.000Z</time></trkpt><trkpt lon="34.855102" lat="31.379498"><ele>503</ele><time>2017-11-10T09:40:40.000Z</time></trkpt><trkpt lon="34.855128" lat="31.379527"><ele>503</ele><time>2017-11-10T09:40:41.000Z</time></trkpt><trkpt lon="34.855155" lat="31.379552"><ele>503</ele><time>2017-11-10T09:40:42.000Z</time></trkpt><trkpt lon="34.855178" lat="31.379575"><ele>503</ele><time>2017-11-10T09:40:43.000Z</time></trkpt><trkpt lon="34.8552" lat="31.379597"><ele>503</ele><time>2017-11-10T09:40:44.000Z</time></trkpt><trkpt lon="34.85522" lat="31.379619"><ele>503</ele><time>2017-11-10T09:40:45.000Z</time></trkpt><trkpt lon="34.855235" lat="31.379643"><ele>503</ele><time>2017-11-10T09:40:46.000Z</time></trkpt><trkpt lon="34.855252" lat="31.37967"><ele>503</ele><time>2017-11-10T09:40:47.000Z</time></trkpt><trkpt lon="34.85527" lat="31.379699"><ele>503</ele><time>2017-11-10T09:40:48.000Z</time></trkpt><trkpt lon="34.855288" lat="31.379726"><ele>503</ele><time>2017-11-10T09:40:49.000Z</time></trkpt><trkpt lon="34.85531" lat="31.379755"><ele>503</ele><time>2017-11-10T09:40:50.000Z</time></trkpt><trkpt lon="34.855328" lat="31.379783"><ele>503</ele><time>2017-11-10T09:40:51.000Z</time></trkpt><trkpt lon="34.855346" lat="31.379811"><ele>503</ele><time>2017-11-10T09:40:52.000Z</time></trkpt><trkpt lon="34.855368" lat="31.379837"><ele>503</ele><time>2017-11-10T09:40:53.000Z</time></trkpt><trkpt lon="34.855388" lat="31.379864"><ele>503</ele><time>2017-11-10T09:40:54.000Z</time></trkpt><trkpt lon="34.855412" lat="31.37989"><ele>503</ele><time>2017-11-10T09:40:55.000Z</time></trkpt><trkpt lon="34.855438" lat="31.379915"><ele>503</ele><time>2017-11-10T09:40:56.000Z</time></trkpt><trkpt lon="34.855458" lat="31.379937"><ele>503</ele><time>2017-11-10T09:40:57.000Z</time></trkpt><trkpt lon="34.85548" lat="31.379957"><ele>503</ele><time>2017-11-10T09:40:58.000Z</time></trkpt><trkpt lon="34.8555" lat="31.379977"><ele>503</ele><time>2017-11-10T09:40:59.000Z</time></trkpt><trkpt lon="34.855519" lat="31.379998"><ele>503</ele><time>2017-11-10T09:41:00.000Z</time></trkpt><trkpt lon="34.855538" lat="31.380021"><ele>503</ele><time>2017-11-10T09:41:01.000Z</time></trkpt><trkpt lon="34.85556" lat="31.380042"><ele>504</ele><time>2017-11-10T09:41:02.000Z</time></trkpt><trkpt lon="34.855581" lat="31.380062"><ele>504</ele><time>2017-11-10T09:41:03.000Z</time></trkpt><trkpt lon="34.8556" lat="31.380083"><ele>503</ele><time>2017-11-10T09:41:04.000Z</time></trkpt><trkpt lon="34.855622" lat="31.380105"><ele>503</ele><time>2017-11-10T09:41:05.000Z</time></trkpt><trkpt lon="34.855645" lat="31.380133"><ele>503</ele><time>2017-11-10T09:41:06.000Z</time></trkpt><trkpt lon="34.855672" lat="31.380162"><ele>503</ele><time>2017-11-10T09:41:07.000Z</time></trkpt><trkpt lon="34.855701" lat="31.380194"><ele>503</ele><time>2017-11-10T09:41:08.000Z</time></trkpt><trkpt lon="34.855733" lat="31.380224"><ele>503</ele><time>2017-11-10T09:41:09.000Z</time></trkpt><trkpt lon="34.855765" lat="31.38025"><ele>504</ele><time>2017-11-10T09:41:10.000Z</time></trkpt><trkpt lon="34.855796" lat="31.380273"><ele>504</ele><time>2017-11-10T09:41:11.000Z</time></trkpt><trkpt lon="34.85583" lat="31.380292"><ele>504</ele><time>2017-11-10T09:41:12.000Z</time></trkpt><trkpt lon="34.855864" lat="31.380306"><ele>504</ele><time>2017-11-10T09:41:13.000Z</time></trkpt><trkpt lon="34.855898" lat="31.380318"><ele>504</ele><time>2017-11-10T09:41:14.000Z</time></trkpt><trkpt lon="34.855932" lat="31.380328"><ele>504</ele><time>2017-11-10T09:41:15.000Z</time></trkpt><trkpt lon="34.855966" lat="31.380336"><ele>504</ele><time>2017-11-10T09:41:16.000Z</time></trkpt><trkpt lon="34.856002" lat="31.380341"><ele>504</ele><time>2017-11-10T09:41:17.000Z</time></trkpt><trkpt lon="34.856038" lat="31.380345"><ele>504</ele><time>2017-11-10T09:41:18.000Z</time></trkpt><trkpt lon="34.856076" lat="31.380348"><ele>504</ele><time>2017-11-10T09:41:19.000Z</time></trkpt><trkpt lon="34.856116" lat="31.380347"><ele>504</ele><time>2017-11-10T09:41:20.000Z</time></trkpt><trkpt lon="34.856155" lat="31.380343"><ele>505</ele><time>2017-11-10T09:41:21.000Z</time></trkpt><trkpt lon="34.856192" lat="31.380338"><ele>505</ele><time>2017-11-10T09:41:22.000Z</time></trkpt><trkpt lon="34.856229" lat="31.380329"><ele>505</ele><time>2017-11-10T09:41:23.000Z</time></trkpt><trkpt lon="34.856264" lat="31.380319"><ele>505</ele><time>2017-11-10T09:41:24.000Z</time></trkpt><trkpt lon="34.856299" lat="31.380307"><ele>505</ele><time>2017-11-10T09:41:25.000Z</time></trkpt><trkpt lon="34.856333" lat="31.380294"><ele>505</ele><time>2017-11-10T09:41:26.000Z</time></trkpt><trkpt lon="34.856365" lat="31.380281"><ele>505</ele><time>2017-11-10T09:41:27.000Z</time></trkpt><trkpt lon="34.8564" lat="31.380269"><ele>505</ele><time>2017-11-10T09:41:28.000Z</time></trkpt><trkpt lon="34.856439" lat="31.380262"><ele>505</ele><time>2017-11-10T09:41:29.000Z</time></trkpt><trkpt lon="34.856481" lat="31.380251"><ele>505</ele><time>2017-11-10T09:41:30.000Z</time></trkpt><trkpt lon="34.856524" lat="31.38023"><ele>505</ele><time>2017-11-10T09:41:31.000Z</time></trkpt><trkpt lon="34.856559" lat="31.380207"><ele>505</ele><time>2017-11-10T09:41:32.000Z</time></trkpt><trkpt lon="34.856589" lat="31.38018"><ele>506</ele><time>2017-11-10T09:41:33.000Z</time></trkpt><trkpt lon="34.856615" lat="31.380159"><ele>506</ele><time>2017-11-10T09:41:34.000Z</time></trkpt><trkpt lon="34.85664" lat="31.380144"><ele>506</ele><time>2017-11-10T09:41:35.000Z</time></trkpt><trkpt lon="34.856663" lat="31.380129"><ele>506</ele><time>2017-11-10T09:41:36.000Z</time></trkpt><trkpt lon="34.856687" lat="31.380103"><ele>506</ele><time>2017-11-10T09:41:37.000Z</time></trkpt><trkpt lon="34.856707" lat="31.380072"><ele>506</ele><time>2017-11-10T09:41:38.000Z</time></trkpt><trkpt lon="34.856722" lat="31.380042"><ele>506</ele><time>2017-11-10T09:41:39.000Z</time></trkpt><trkpt lon="34.856736" lat="31.380012"><ele>506</ele><time>2017-11-10T09:41:40.000Z</time></trkpt><trkpt lon="34.856746" lat="31.37998"><ele>506</ele><time>2017-11-10T09:41:41.000Z</time></trkpt><trkpt lon="34.85675" lat="31.379948"><ele>506</ele><time>2017-11-10T09:41:42.000Z</time></trkpt><trkpt lon="34.856747" lat="31.379918"><ele>506</ele><time>2017-11-10T09:41:43.000Z</time></trkpt><trkpt lon="34.856742" lat="31.379889"><ele>507</ele><time>2017-11-10T09:41:44.000Z</time></trkpt><trkpt lon="34.856733" lat="31.379861"><ele>507</ele><time>2017-11-10T09:41:45.000Z</time></trkpt><trkpt lon="34.85672" lat="31.379832"><ele>507</ele><time>2017-11-10T09:41:46.000Z</time></trkpt><trkpt lon="34.856706" lat="31.379805"><ele>507</ele><time>2017-11-10T09:41:47.000Z</time></trkpt><trkpt lon="34.85669" lat="31.379779"><ele>507</ele><time>2017-11-10T09:41:48.000Z</time></trkpt><trkpt lon="34.856674" lat="31.379753"><ele>507</ele><time>2017-11-10T09:41:49.000Z</time></trkpt><trkpt lon="34.856656" lat="31.379727"><ele>507</ele><time>2017-11-10T09:41:50.000Z</time></trkpt><trkpt lon="34.856636" lat="31.379699"><ele>507</ele><time>2017-11-10T09:41:51.000Z</time></trkpt><trkpt lon="34.856617" lat="31.379673"><ele>508</ele><time>2017-11-10T09:41:52.000Z</time></trkpt><trkpt lon="34.8566" lat="31.379647"><ele>508</ele><time>2017-11-10T09:41:53.000Z</time></trkpt><trkpt lon="34.856584" lat="31.379623"><ele>508</ele><time>2017-11-10T09:41:54.000Z</time></trkpt><trkpt lon="34.856569" lat="31.379602"><ele>508</ele><time>2017-11-10T09:41:55.000Z</time></trkpt><trkpt lon="34.856554" lat="31.379581"><ele>508</ele><time>2017-11-10T09:41:56.000Z</time></trkpt><trkpt lon="34.85654" lat="31.379561"><ele>508</ele><time>2017-11-10T09:41:57.000Z</time></trkpt><trkpt lon="34.856528" lat="31.379542"><ele>509</ele><time>2017-11-10T09:41:58.000Z</time></trkpt><trkpt lon="34.856517" lat="31.379522"><ele>509</ele><time>2017-11-10T09:41:59.000Z</time></trkpt><trkpt lon="34.856506" lat="31.379499"><ele>509</ele><time>2017-11-10T09:42:00.000Z</time></trkpt><trkpt lon="34.856498" lat="31.379475"><ele>509</ele><time>2017-11-10T09:42:01.000Z</time></trkpt><trkpt lon="34.856492" lat="31.379448"><ele>509</ele><time>2017-11-10T09:42:02.000Z</time></trkpt><trkpt lon="34.856487" lat="31.379416"><ele>509</ele><time>2017-11-10T09:42:03.000Z</time></trkpt><trkpt lon="34.856484" lat="31.379382"><ele>509</ele><time>2017-11-10T09:42:04.000Z</time></trkpt><trkpt lon="34.856483" lat="31.379343"><ele>509</ele><time>2017-11-10T09:42:05.000Z</time></trkpt><trkpt lon="34.856481" lat="31.379301"><ele>509</ele><time>2017-11-10T09:42:06.000Z</time></trkpt><trkpt lon="34.856478" lat="31.379257"><ele>509</ele><time>2017-11-10T09:42:07.000Z</time></trkpt><trkpt lon="34.856476" lat="31.379212"><ele>509</ele><time>2017-11-10T09:42:08.000Z</time></trkpt><trkpt lon="34.856475" lat="31.379168"><ele>509</ele><time>2017-11-10T09:42:09.000Z</time></trkpt><trkpt lon="34.856473" lat="31.379127"><ele>509</ele><time>2017-11-10T09:42:10.000Z</time></trkpt><trkpt lon="34.856471" lat="31.379087"><ele>509</ele><time>2017-11-10T09:42:11.000Z</time></trkpt><trkpt lon="34.85647" lat="31.37905"><ele>509</ele><time>2017-11-10T09:42:12.000Z</time></trkpt><trkpt lon="34.856471" lat="31.379016"><ele>509</ele><time>2017-11-10T09:42:13.000Z</time></trkpt><trkpt lon="34.856477" lat="31.378979"><ele>509</ele><time>2017-11-10T09:42:14.000Z</time></trkpt><trkpt lon="34.856487" lat="31.37894"><ele>509</ele><time>2017-11-10T09:42:15.000Z</time></trkpt><trkpt lon="34.856499" lat="31.3789"><ele>509</ele><time>2017-11-10T09:42:16.000Z</time></trkpt><trkpt lon="34.856515" lat="31.37886"><ele>509</ele><time>2017-11-10T09:42:17.000Z</time></trkpt><trkpt lon="34.85653" lat="31.378818"><ele>509</ele><time>2017-11-10T09:42:18.000Z</time></trkpt><trkpt lon="34.856547" lat="31.378776"><ele>508</ele><time>2017-11-10T09:42:19.000Z</time></trkpt><trkpt lon="34.85657" lat="31.378735"><ele>508</ele><time>2017-11-10T09:42:20.000Z</time></trkpt><trkpt lon="34.8566" lat="31.378697"><ele>508</ele><time>2017-11-10T09:42:21.000Z</time></trkpt><trkpt lon="34.856636" lat="31.37866"><ele>508</ele><time>2017-11-10T09:42:22.000Z</time></trkpt><trkpt lon="34.856671" lat="31.378623"><ele>508</ele><time>2017-11-10T09:42:23.000Z</time></trkpt><trkpt lon="34.856707" lat="31.378589"><ele>508</ele><time>2017-11-10T09:42:24.000Z</time></trkpt><trkpt lon="34.856745" lat="31.378557"><ele>508</ele><time>2017-11-10T09:42:25.000Z</time></trkpt><trkpt lon="34.856785" lat="31.378521"><ele>508</ele><time>2017-11-10T09:42:26.000Z</time></trkpt><trkpt lon="34.856819" lat="31.378479"><ele>508</ele><time>2017-11-10T09:42:27.000Z</time></trkpt><trkpt lon="34.856849" lat="31.378432"><ele>508</ele><time>2017-11-10T09:42:28.000Z</time></trkpt><trkpt lon="34.85688" lat="31.378389"><ele>507</ele><time>2017-11-10T09:42:29.000Z</time></trkpt><trkpt lon="34.856911" lat="31.37835"><ele>507</ele><time>2017-11-10T09:42:30.000Z</time></trkpt><trkpt lon="34.856946" lat="31.378317"><ele>507</ele><time>2017-11-10T09:42:31.000Z</time></trkpt><trkpt lon="34.85699" lat="31.378291"><ele>507</ele><time>2017-11-10T09:42:32.000Z</time></trkpt><trkpt lon="34.857043" lat="31.378269"><ele>507</ele><time>2017-11-10T09:42:33.000Z</time></trkpt><trkpt lon="34.857099" lat="31.378255"><ele>506</ele><time>2017-11-10T09:42:34.000Z</time></trkpt><trkpt lon="34.857165" lat="31.378235"><ele>505</ele><time>2017-11-10T09:42:35.000Z</time></trkpt><trkpt lon="34.857245" lat="31.378216"><ele>505</ele><time>2017-11-10T09:42:36.000Z</time></trkpt><trkpt lon="34.857327" lat="31.378186"><ele>504</ele><time>2017-11-10T09:42:37.000Z</time></trkpt><trkpt lon="34.857405" lat="31.378146"><ele>503</ele><time>2017-11-10T09:42:38.000Z</time></trkpt><trkpt lon="34.857481" lat="31.378097"><ele>502</ele><time>2017-11-10T09:42:39.000Z</time></trkpt><trkpt lon="34.857545" lat="31.378048"><ele>501</ele><time>2017-11-10T09:42:40.000Z</time></trkpt><trkpt lon="34.857598" lat="31.378006"><ele>501</ele><time>2017-11-10T09:42:41.000Z</time></trkpt><trkpt lon="34.857653" lat="31.377972"><ele>501</ele><time>2017-11-10T09:42:42.000Z</time></trkpt><trkpt lon="34.857709" lat="31.377935"><ele>500</ele><time>2017-11-10T09:42:43.000Z</time></trkpt><trkpt lon="34.857769" lat="31.3779"><ele>500</ele><time>2017-11-10T09:42:44.000Z</time></trkpt><trkpt lon="34.857842" lat="31.37787"><ele>499.6</ele><time>2017-11-10T09:42:45.000Z</time></trkpt><trkpt lon="34.857917" lat="31.377844"><ele>499</ele><time>2017-11-10T09:42:46.000Z</time></trkpt><trkpt lon="34.857991" lat="31.377821"><ele>497</ele><time>2017-11-10T09:42:47.000Z</time></trkpt><trkpt lon="34.858065" lat="31.377794"><ele>496</ele><time>2017-11-10T09:42:48.000Z</time></trkpt><trkpt lon="34.858132" lat="31.377765"><ele>496</ele><time>2017-11-10T09:42:49.000Z</time></trkpt><trkpt lon="34.858198" lat="31.377744"><ele>496</ele><time>2017-11-10T09:42:50.000Z</time></trkpt><trkpt lon="34.858254" lat="31.377723"><ele>496</ele><time>2017-11-10T09:42:51.000Z</time></trkpt><trkpt lon="34.858293" lat="31.377705"><ele>496</ele><time>2017-11-10T09:42:52.000Z</time></trkpt><trkpt lon="34.858332" lat="31.377695"><ele>496</ele><time>2017-11-10T09:42:53.000Z</time></trkpt><trkpt lon="34.858384" lat="31.377683"><ele>495</ele><time>2017-11-10T09:42:54.000Z</time></trkpt><trkpt lon="34.858444" lat="31.377668"><ele>495</ele><time>2017-11-10T09:42:55.000Z</time></trkpt><trkpt lon="34.858505" lat="31.377652"><ele>494</ele><time>2017-11-10T09:42:56.000Z</time></trkpt><trkpt lon="34.858574" lat="31.377644"><ele>494</ele><time>2017-11-10T09:42:57.000Z</time></trkpt><trkpt lon="34.858647" lat="31.377642"><ele>493</ele><time>2017-11-10T09:42:58.000Z</time></trkpt><trkpt lon="34.858725" lat="31.377633"><ele>492</ele><time>2017-11-10T09:42:59.000Z</time></trkpt><trkpt lon="34.8588" lat="31.377628"><ele>491</ele><time>2017-11-10T09:43:00.000Z</time></trkpt><trkpt lon="34.858869" lat="31.377638"><ele>491</ele><time>2017-11-10T09:43:01.000Z</time></trkpt><trkpt lon="34.858924" lat="31.377659"><ele>491</ele><time>2017-11-10T09:43:02.000Z</time></trkpt><trkpt lon="34.858968" lat="31.377679"><ele>491</ele><time>2017-11-10T09:43:03.000Z</time></trkpt><trkpt lon="34.858996" lat="31.377701"><ele>492</ele><time>2017-11-10T09:43:04.000Z</time></trkpt><trkpt lon="34.859015" lat="31.37773"><ele>492</ele><time>2017-11-10T09:43:05.000Z</time></trkpt><trkpt lon="34.859036" lat="31.37776"><ele>492</ele><time>2017-11-10T09:43:06.000Z</time></trkpt><trkpt lon="34.85906" lat="31.377789"><ele>492</ele><time>2017-11-10T09:43:07.000Z</time></trkpt><trkpt lon="34.85909" lat="31.37782"><ele>492</ele><time>2017-11-10T09:43:08.000Z</time></trkpt><trkpt lon="34.85912" lat="31.377849"><ele>492</ele><time>2017-11-10T09:43:09.000Z</time></trkpt><trkpt lon="34.859148" lat="31.377871"><ele>493</ele><time>2017-11-10T09:43:10.000Z</time></trkpt><trkpt lon="34.859169" lat="31.377894"><ele>493</ele><time>2017-11-10T09:43:11.000Z</time></trkpt><trkpt lon="34.859194" lat="31.377916"><ele>493</ele><time>2017-11-10T09:43:12.000Z</time></trkpt><trkpt lon="34.859224" lat="31.377936"><ele>494</ele><time>2017-11-10T09:43:13.000Z</time></trkpt><trkpt lon="34.859245" lat="31.377962"><ele>494</ele><time>2017-11-10T09:43:14.000Z</time></trkpt><trkpt lon="34.859261" lat="31.377991"><ele>494</ele><time>2017-11-10T09:43:15.000Z</time></trkpt><trkpt lon="34.85928" lat="31.378018"><ele>494</ele><time>2017-11-10T09:43:16.000Z</time></trkpt><trkpt lon="34.859303" lat="31.378044"><ele>494</ele><time>2017-11-10T09:43:17.000Z</time></trkpt><trkpt lon="34.859328" lat="31.37807"><ele>494</ele><time>2017-11-10T09:43:18.000Z</time></trkpt><trkpt lon="34.859355" lat="31.378101"><ele>494</ele><time>2017-11-10T09:43:19.000Z</time></trkpt><trkpt lon="34.859385" lat="31.378129"><ele>494</ele><time>2017-11-10T09:43:20.000Z</time></trkpt><trkpt lon="34.859406" lat="31.378157"><ele>494</ele><time>2017-11-10T09:43:21.000Z</time></trkpt><trkpt lon="34.859421" lat="31.378187"><ele>494</ele><time>2017-11-10T09:43:22.000Z</time></trkpt><trkpt lon="34.859445" lat="31.378219"><ele>494</ele><time>2017-11-10T09:43:23.000Z</time></trkpt><trkpt lon="34.859479" lat="31.37825"><ele>494</ele><time>2017-11-10T09:43:24.000Z</time></trkpt><trkpt lon="34.859518" lat="31.378282"><ele>494</ele><time>2017-11-10T09:43:25.000Z</time></trkpt><trkpt lon="34.859553" lat="31.378311"><ele>494</ele><time>2017-11-10T09:43:26.000Z</time></trkpt><trkpt lon="34.859584" lat="31.37834"><ele>494</ele><time>2017-11-10T09:43:27.000Z</time></trkpt><trkpt lon="34.859615" lat="31.378367"><ele>494</ele><time>2017-11-10T09:43:28.000Z</time></trkpt><trkpt lon="34.859646" lat="31.378394"><ele>494</ele><time>2017-11-10T09:43:29.000Z</time></trkpt><trkpt lon="34.859679" lat="31.378419"><ele>494</ele><time>2017-11-10T09:43:30.000Z</time></trkpt><trkpt lon="34.859716" lat="31.378443"><ele>494</ele><time>2017-11-10T09:43:31.000Z</time></trkpt><trkpt lon="34.859753" lat="31.378469"><ele>494</ele><time>2017-11-10T09:43:32.000Z</time></trkpt><trkpt lon="34.859793" lat="31.378495"><ele>494</ele><time>2017-11-10T09:43:33.000Z</time></trkpt><trkpt lon="34.859832" lat="31.378525"><ele>494</ele><time>2017-11-10T09:43:34.000Z</time></trkpt><trkpt lon="34.859873" lat="31.378556"><ele>494</ele><time>2017-11-10T09:43:35.000Z</time></trkpt><trkpt lon="34.859919" lat="31.378584"><ele>494</ele><time>2017-11-10T09:43:36.000Z</time></trkpt><trkpt lon="34.85997" lat="31.378604"><ele>493</ele><time>2017-11-10T09:43:37.000Z</time></trkpt><trkpt lon="34.860021" lat="31.378627"><ele>493</ele><time>2017-11-10T09:43:38.000Z</time></trkpt><trkpt lon="34.86007" lat="31.378651"><ele>493</ele><time>2017-11-10T09:43:39.000Z</time></trkpt><trkpt lon="34.860121" lat="31.378676"><ele>493</ele><time>2017-11-10T09:43:40.000Z</time></trkpt><trkpt lon="34.86017" lat="31.378704"><ele>493</ele><time>2017-11-10T09:43:41.000Z</time></trkpt><trkpt lon="34.86022" lat="31.378731"><ele>493</ele><time>2017-11-10T09:43:42.000Z</time></trkpt><trkpt lon="34.860275" lat="31.378757"><ele>493</ele><time>2017-11-10T09:43:43.000Z</time></trkpt><trkpt lon="34.860329" lat="31.378788"><ele>493</ele><time>2017-11-10T09:43:44.000Z</time></trkpt><trkpt lon="34.860384" lat="31.378821"><ele>493</ele><time>2017-11-10T09:43:45.000Z</time></trkpt><trkpt lon="34.860441" lat="31.378849"><ele>492</ele><time>2017-11-10T09:43:46.000Z</time></trkpt><trkpt lon="34.860494" lat="31.378871"><ele>492</ele><time>2017-11-10T09:43:47.000Z</time></trkpt><trkpt lon="34.860541" lat="31.378895"><ele>492</ele><time>2017-11-10T09:43:48.000Z</time></trkpt><trkpt lon="34.860585" lat="31.378921"><ele>492</ele><time>2017-11-10T09:43:49.000Z</time></trkpt><trkpt lon="34.86063" lat="31.378946"><ele>492</ele><time>2017-11-10T09:43:50.000Z</time></trkpt><trkpt lon="34.860678" lat="31.378966"><ele>492</ele><time>2017-11-10T09:43:51.000Z</time></trkpt><trkpt lon="34.86073" lat="31.37898"><ele>492</ele><time>2017-11-10T09:43:52.000Z</time></trkpt><trkpt lon="34.86078" lat="31.378996"><ele>492</ele><time>2017-11-10T09:43:53.000Z</time></trkpt><trkpt lon="34.860829" lat="31.37902"><ele>492</ele><time>2017-11-10T09:43:54.000Z</time></trkpt><trkpt lon="34.860882" lat="31.379047"><ele>492</ele><time>2017-11-10T09:43:55.000Z</time></trkpt><trkpt lon="34.860934" lat="31.379072"><ele>492</ele><time>2017-11-10T09:43:56.000Z</time></trkpt><trkpt lon="34.860984" lat="31.379097"><ele>492</ele><time>2017-11-10T09:43:57.000Z</time></trkpt><trkpt lon="34.861029" lat="31.37912"><ele>492</ele><time>2017-11-10T09:43:58.000Z</time></trkpt><trkpt lon="34.861065" lat="31.379144"><ele>492</ele><time>2017-11-10T09:43:59.000Z</time></trkpt><trkpt lon="34.861099" lat="31.379173"><ele>492</ele><time>2017-11-10T09:44:00.000Z</time></trkpt><trkpt lon="34.861135" lat="31.379197"><ele>492</ele><time>2017-11-10T09:44:01.000Z</time></trkpt><trkpt lon="34.86117" lat="31.379221"><ele>492</ele><time>2017-11-10T09:44:02.000Z</time></trkpt><trkpt lon="34.861198" lat="31.379249"><ele>492</ele><time>2017-11-10T09:44:03.000Z</time></trkpt><trkpt lon="34.861224" lat="31.379282"><ele>492</ele><time>2017-11-10T09:44:04.000Z</time></trkpt><trkpt lon="34.861255" lat="31.379314"><ele>492</ele><time>2017-11-10T09:44:05.000Z</time></trkpt><trkpt lon="34.861294" lat="31.379339"><ele>492</ele><time>2017-11-10T09:44:06.000Z</time></trkpt><trkpt lon="34.861331" lat="31.379361"><ele>492</ele><time>2017-11-10T09:44:07.000Z</time></trkpt><trkpt lon="34.861365" lat="31.379385"><ele>492</ele><time>2017-11-10T09:44:08.000Z</time></trkpt><trkpt lon="34.861395" lat="31.379412"><ele>492</ele><time>2017-11-10T09:44:09.000Z</time></trkpt><trkpt lon="34.861429" lat="31.379436"><ele>492</ele><time>2017-11-10T09:44:10.000Z</time></trkpt><trkpt lon="34.861464" lat="31.379459"><ele>493</ele><time>2017-11-10T09:44:11.000Z</time></trkpt><trkpt lon="34.8615" lat="31.379477"><ele>493</ele><time>2017-11-10T09:44:12.000Z</time></trkpt><trkpt lon="34.861532" lat="31.379495"><ele>493</ele><time>2017-11-10T09:44:13.000Z</time></trkpt><trkpt lon="34.861556" lat="31.379517"><ele>493</ele><time>2017-11-10T09:44:14.000Z</time></trkpt><trkpt lon="34.86158" lat="31.379539"><ele>493</ele><time>2017-11-10T09:44:15.000Z</time></trkpt><trkpt lon="34.861613" lat="31.379562"><ele>493</ele><time>2017-11-10T09:44:16.000Z</time></trkpt><trkpt lon="34.861651" lat="31.379575"><ele>493</ele><time>2017-11-10T09:44:17.000Z</time></trkpt><trkpt lon="34.861689" lat="31.379584"><ele>493</ele><time>2017-11-10T09:44:18.000Z</time></trkpt><trkpt lon="34.861716" lat="31.379599"><ele>493</ele><time>2017-11-10T09:44:19.000Z</time></trkpt><trkpt lon="34.861737" lat="31.379624"><ele>493</ele><time>2017-11-10T09:44:20.000Z</time></trkpt><trkpt lon="34.861761" lat="31.379653"><ele>493</ele><time>2017-11-10T09:44:21.000Z</time></trkpt><trkpt lon="34.861787" lat="31.379679"><ele>493</ele><time>2017-11-10T09:44:22.000Z</time></trkpt><trkpt lon="34.86181" lat="31.379699"><ele>493</ele><time>2017-11-10T09:44:23.000Z</time></trkpt><trkpt lon="34.861831" lat="31.379717"><ele>494</ele><time>2017-11-10T09:44:24.000Z</time></trkpt><trkpt lon="34.861854" lat="31.37973"><ele>494</ele><time>2017-11-10T09:44:25.000Z</time></trkpt><trkpt lon="34.861875" lat="31.379735"><ele>494</ele><time>2017-11-10T09:44:26.000Z</time></trkpt><trkpt lon="34.861875" lat="31.379735"><ele>494</ele><time>2017-11-10T09:44:27.000Z</time></trkpt><trkpt lon="34.861911" lat="31.379748"><ele>495</ele><time>2017-11-10T09:44:28.000Z</time></trkpt><trkpt lon="34.861935" lat="31.379751"><ele>495</ele><time>2017-11-10T09:44:29.000Z</time></trkpt><trkpt lon="34.861962" lat="31.37975"><ele>495</ele><time>2017-11-10T09:44:30.000Z</time></trkpt><trkpt lon="34.861996" lat="31.379751"><ele>495</ele><time>2017-11-10T09:44:31.000Z</time></trkpt><trkpt lon="34.862026" lat="31.379751"><ele>495</ele><time>2017-11-10T09:44:32.000Z</time></trkpt><trkpt lon="34.862054" lat="31.379755"><ele>495</ele><time>2017-11-10T09:44:33.000Z</time></trkpt><trkpt lon="34.862077" lat="31.379774"><ele>495</ele><time>2017-11-10T09:44:34.000Z</time></trkpt><trkpt lon="34.86208" lat="31.3798"><ele>495</ele><time>2017-11-10T09:44:35.000Z</time></trkpt><trkpt lon="34.862071" lat="31.379834"><ele>495</ele><time>2017-11-10T09:44:36.000Z</time></trkpt><trkpt lon="34.862075" lat="31.379867"><ele>494</ele><time>2017-11-10T09:44:37.000Z</time></trkpt><trkpt lon="34.862097" lat="31.37989"><ele>494</ele><time>2017-11-10T09:44:38.000Z</time></trkpt><trkpt lon="34.862127" lat="31.379897"><ele>494</ele><time>2017-11-10T09:44:39.000Z</time></trkpt><trkpt lon="34.862161" lat="31.379891"><ele>494</ele><time>2017-11-10T09:44:40.000Z</time></trkpt><trkpt lon="34.862196" lat="31.379884"><ele>494</ele><time>2017-11-10T09:44:41.000Z</time></trkpt><trkpt lon="34.86223" lat="31.379881"><ele>495</ele><time>2017-11-10T09:44:42.000Z</time></trkpt><trkpt lon="34.86226" lat="31.379876"><ele>495</ele><time>2017-11-10T09:44:43.000Z</time></trkpt><trkpt lon="34.86229" lat="31.379872"><ele>495</ele><time>2017-11-10T09:44:44.000Z</time></trkpt><trkpt lon="34.862323" lat="31.37987"><ele>495</ele><time>2017-11-10T09:44:45.000Z</time></trkpt><trkpt lon="34.86236" lat="31.37987"><ele>495</ele><time>2017-11-10T09:44:46.000Z</time></trkpt><trkpt lon="34.862404" lat="31.379866"><ele>495</ele><time>2017-11-10T09:44:47.000Z</time></trkpt><trkpt lon="34.862457" lat="31.379864"><ele>495</ele><time>2017-11-10T09:44:48.000Z</time></trkpt><trkpt lon="34.862518" lat="31.379868"><ele>494</ele><time>2017-11-10T09:44:49.000Z</time></trkpt><trkpt lon="34.862582" lat="31.379878"><ele>493</ele><time>2017-11-10T09:44:50.000Z</time></trkpt><trkpt lon="34.862649" lat="31.37989"><ele>493</ele><time>2017-11-10T09:44:51.000Z</time></trkpt><trkpt lon="34.862718" lat="31.379899"><ele>493</ele><time>2017-11-10T09:44:52.000Z</time></trkpt><trkpt lon="34.862787" lat="31.379902"><ele>493</ele><time>2017-11-10T09:44:53.000Z</time></trkpt><trkpt lon="34.862855" lat="31.379902"><ele>492</ele><time>2017-11-10T09:44:54.000Z</time></trkpt><trkpt lon="34.862922" lat="31.3799"><ele>492</ele><time>2017-11-10T09:44:55.000Z</time></trkpt><trkpt lon="34.862978" lat="31.379886"><ele>492</ele><time>2017-11-10T09:44:56.000Z</time></trkpt><trkpt lon="34.863037" lat="31.379867"><ele>492</ele><time>2017-11-10T09:44:57.000Z</time></trkpt><trkpt lon="34.8631" lat="31.379862"><ele>491</ele><time>2017-11-10T09:44:58.000Z</time></trkpt><trkpt lon="34.863163" lat="31.379859"><ele>491</ele><time>2017-11-10T09:44:59.000Z</time></trkpt><trkpt lon="34.863222" lat="31.379842"><ele>491</ele><time>2017-11-10T09:45:00.000Z</time></trkpt><trkpt lon="34.86327" lat="31.379811"><ele>491</ele><time>2017-11-10T09:45:01.000Z</time></trkpt><trkpt lon="34.863308" lat="31.379774"><ele>491</ele><time>2017-11-10T09:45:02.000Z</time></trkpt><trkpt lon="34.863346" lat="31.379733"><ele>491</ele><time>2017-11-10T09:45:03.000Z</time></trkpt><trkpt lon="34.863392" lat="31.379689"><ele>491</ele><time>2017-11-10T09:45:04.000Z</time></trkpt><trkpt lon="34.863438" lat="31.379652"><ele>491</ele><time>2017-11-10T09:45:05.000Z</time></trkpt><trkpt lon="34.86348" lat="31.379615"><ele>491</ele><time>2017-11-10T09:45:06.000Z</time></trkpt><trkpt lon="34.863524" lat="31.379581"><ele>491</ele><time>2017-11-10T09:45:07.000Z</time></trkpt><trkpt lon="34.86357" lat="31.379547"><ele>491</ele><time>2017-11-10T09:45:08.000Z</time></trkpt><trkpt lon="34.863615" lat="31.37952"><ele>490</ele><time>2017-11-10T09:45:09.000Z</time></trkpt><trkpt lon="34.863655" lat="31.379497"><ele>490</ele><time>2017-11-10T09:45:10.000Z</time></trkpt><trkpt lon="34.863678" lat="31.379471"><ele>490</ele><time>2017-11-10T09:45:11.000Z</time></trkpt><trkpt lon="34.863694" lat="31.379444"><ele>490</ele><time>2017-11-10T09:45:12.000Z</time></trkpt><trkpt lon="34.86372" lat="31.379418"><ele>490</ele><time>2017-11-10T09:45:13.000Z</time></trkpt><trkpt lon="34.863752" lat="31.379387"><ele>489</ele><time>2017-11-10T09:45:14.000Z</time></trkpt><trkpt lon="34.863792" lat="31.379355"><ele>489</ele><time>2017-11-10T09:45:15.000Z</time></trkpt><trkpt lon="34.863834" lat="31.379324"><ele>489</ele><time>2017-11-10T09:45:16.000Z</time></trkpt><trkpt lon="34.86387" lat="31.379291"><ele>489</ele><time>2017-11-10T09:45:17.000Z</time></trkpt><trkpt lon="34.863897" lat="31.379261"><ele>489</ele><time>2017-11-10T09:45:18.000Z</time></trkpt><trkpt lon="34.86393" lat="31.379238"><ele>489</ele><time>2017-11-10T09:45:19.000Z</time></trkpt><trkpt lon="34.863971" lat="31.379215"><ele>488</ele><time>2017-11-10T09:45:20.000Z</time></trkpt><trkpt lon="34.864016" lat="31.379189"><ele>488</ele><time>2017-11-10T09:45:21.000Z</time></trkpt><trkpt lon="34.864066" lat="31.379169"><ele>488</ele><time>2017-11-10T09:45:22.000Z</time></trkpt><trkpt lon="34.86412" lat="31.379158"><ele>488</ele><time>2017-11-10T09:45:23.000Z</time></trkpt><trkpt lon="34.864174" lat="31.379156"><ele>488</ele><time>2017-11-10T09:45:24.000Z</time></trkpt><trkpt lon="34.864223" lat="31.379158"><ele>488</ele><time>2017-11-10T09:45:25.000Z</time></trkpt><trkpt lon="34.864268" lat="31.37916"><ele>488</ele><time>2017-11-10T09:45:26.000Z</time></trkpt><trkpt lon="34.86431" lat="31.379163"><ele>488</ele><time>2017-11-10T09:45:27.000Z</time></trkpt><trkpt lon="34.864347" lat="31.379171"><ele>488</ele><time>2017-11-10T09:45:28.000Z</time></trkpt><trkpt lon="34.864384" lat="31.379185"><ele>488</ele><time>2017-11-10T09:45:29.000Z</time></trkpt><trkpt lon="34.864427" lat="31.379197"><ele>488</ele><time>2017-11-10T09:45:30.000Z</time></trkpt><trkpt lon="34.864478" lat="31.3792"><ele>488</ele><time>2017-11-10T09:45:31.000Z</time></trkpt><trkpt lon="34.864532" lat="31.379197"><ele>488</ele><time>2017-11-10T09:45:32.000Z</time></trkpt><trkpt lon="34.864588" lat="31.379192"><ele>488</ele><time>2017-11-10T09:45:33.000Z</time></trkpt><trkpt lon="34.864646" lat="31.379182"><ele>488</ele><time>2017-11-10T09:45:34.000Z</time></trkpt><trkpt lon="34.864704" lat="31.379169"><ele>488</ele><time>2017-11-10T09:45:35.000Z</time></trkpt><trkpt lon="34.864759" lat="31.379151"><ele>488</ele><time>2017-11-10T09:45:36.000Z</time></trkpt><trkpt lon="34.864809" lat="31.379134"><ele>488</ele><time>2017-11-10T09:45:37.000Z</time></trkpt><trkpt lon="34.864857" lat="31.379117"><ele>488</ele><time>2017-11-10T09:45:38.000Z</time></trkpt><trkpt lon="34.864899" lat="31.3791"><ele>487</ele><time>2017-11-10T09:45:39.000Z</time></trkpt><trkpt lon="34.864938" lat="31.379079"><ele>487</ele><time>2017-11-10T09:45:40.000Z</time></trkpt><trkpt lon="34.864981" lat="31.379056"><ele>487</ele><time>2017-11-10T09:45:41.000Z</time></trkpt><trkpt lon="34.865024" lat="31.379034"><ele>487</ele><time>2017-11-10T09:45:42.000Z</time></trkpt><trkpt lon="34.865064" lat="31.379012"><ele>487</ele><time>2017-11-10T09:45:43.000Z</time></trkpt><trkpt lon="34.865102" lat="31.37899"><ele>487</ele><time>2017-11-10T09:45:44.000Z</time></trkpt><trkpt lon="34.865143" lat="31.378967"><ele>487</ele><time>2017-11-10T09:45:45.000Z</time></trkpt><trkpt lon="34.865186" lat="31.378946"><ele>487</ele><time>2017-11-10T09:45:46.000Z</time></trkpt><trkpt lon="34.865227" lat="31.378935"><ele>487</ele><time>2017-11-10T09:45:47.000Z</time></trkpt><trkpt lon="34.865249" lat="31.378937"><ele>487</ele><time>2017-11-10T09:45:48.000Z</time></trkpt><trkpt lon="34.865254" lat="31.378939"><ele>487</ele><time>2017-11-10T09:45:49.000Z</time></trkpt></trkseg></trk></gpx>